<?xml version="1.0" encoding="UTF-8" standalone="no" ?>
<gpx xmlns="http://www.topografix.com/GPX/1/1" xmlns:xsi="http://www.w3.org/2001/XMLSchema-instance" xsi:schemaLocation="http://www.topografix.com/GPX/1/1 http://www.topografix.com/GPX/1/1/gpx.xsd" version="1.1" creator="VisuGPX - https://www.visugpx.com">
  <metadata>
    <name>Autour de St Brieuc </name>
    <desc><![CDATA[De belles petites côtes bien raide ]]></desc>
  </metadata>
  <trk>
    <name><![CDATA[Sortie vélo le matin_1]]></name>
    <extensions>
      <line xmlns="http://www.topografix.com/GPX/gpx_style/0/2">
        <color>0000FF</color>
        <width>4</width>
      </line>
    </extensions>
    <trkseg>
      <trkpt lat="48.4851" lon="-2.68171">
        <ele>13</ele>
        <time>2026-01-25T08:41:02Z</time>
      </trkpt>
      <trkpt lat="48.4851" lon="-2.68171">
        <ele>12.8</ele>
        <time>2026-01-25T08:41:03Z</time>
      </trkpt>
      <trkpt lat="48.4851" lon="-2.68171">
        <ele>12.8</ele>
        <time>2026-01-25T08:41:04Z</time>
      </trkpt>
      <trkpt lat="48.48512" lon="-2.68165">
        <ele>12.8</ele>
        <time>2026-01-25T08:41:05Z</time>
      </trkpt>
      <trkpt lat="48.48514" lon="-2.68158">
        <ele>13.2</ele>
        <time>2026-01-25T08:41:06Z</time>
      </trkpt>
      <trkpt lat="48.48514" lon="-2.68151">
        <ele>13.2</ele>
        <time>2026-01-25T08:41:07Z</time>
      </trkpt>
      <trkpt lat="48.48514" lon="-2.68143">
        <ele>13.2</ele>
        <time>2026-01-25T08:41:08Z</time>
      </trkpt>
      <trkpt lat="48.48514" lon="-2.68136">
        <ele>13.2</ele>
        <time>2026-01-25T08:41:09Z</time>
      </trkpt>
      <trkpt lat="48.48513" lon="-2.68128">
        <ele>12.4</ele>
        <time>2026-01-25T08:41:10Z</time>
      </trkpt>
      <trkpt lat="48.48513" lon="-2.6812">
        <ele>12.8</ele>
        <time>2026-01-25T08:41:11Z</time>
      </trkpt>
      <trkpt lat="48.48513" lon="-2.68111">
        <ele>12.8</ele>
        <time>2026-01-25T08:41:12Z</time>
      </trkpt>
      <trkpt lat="48.48512" lon="-2.68103">
        <ele>12.8</ele>
        <time>2026-01-25T08:41:13Z</time>
      </trkpt>
      <trkpt lat="48.48512" lon="-2.68095">
        <ele>11.8</ele>
        <time>2026-01-25T08:41:14Z</time>
      </trkpt>
      <trkpt lat="48.48512" lon="-2.68087">
        <ele>12.2</ele>
        <time>2026-01-25T08:41:15Z</time>
      </trkpt>
      <trkpt lat="48.48511" lon="-2.68079">
        <ele>12.2</ele>
        <time>2026-01-25T08:41:16Z</time>
      </trkpt>
      <trkpt lat="48.48511" lon="-2.68071">
        <ele>12.2</ele>
        <time>2026-01-25T08:41:17Z</time>
      </trkpt>
      <trkpt lat="48.48511" lon="-2.68063">
        <ele>12.2</ele>
        <time>2026-01-25T08:41:18Z</time>
      </trkpt>
      <trkpt lat="48.48511" lon="-2.68055">
        <ele>12</ele>
        <time>2026-01-25T08:41:19Z</time>
      </trkpt>
      <trkpt lat="48.4851" lon="-2.68046">
        <ele>12</ele>
        <time>2026-01-25T08:41:20Z</time>
      </trkpt>
      <trkpt lat="48.4851" lon="-2.68038">
        <ele>12</ele>
        <time>2026-01-25T08:41:21Z</time>
      </trkpt>
      <trkpt lat="48.4851" lon="-2.6803">
        <ele>11.2</ele>
        <time>2026-01-25T08:41:22Z</time>
      </trkpt>
      <trkpt lat="48.4851" lon="-2.68021">
        <ele>11.2</ele>
        <time>2026-01-25T08:41:23Z</time>
      </trkpt>
      <trkpt lat="48.4851" lon="-2.68013">
        <ele>11.2</ele>
        <time>2026-01-25T08:41:24Z</time>
      </trkpt>
      <trkpt lat="48.4851" lon="-2.68004">
        <ele>11.2</ele>
        <time>2026-01-25T08:41:25Z</time>
      </trkpt>
      <trkpt lat="48.4851" lon="-2.67995">
        <ele>11.2</ele>
        <time>2026-01-25T08:41:26Z</time>
      </trkpt>
      <trkpt lat="48.4851" lon="-2.67986">
        <ele>10.8</ele>
        <time>2026-01-25T08:41:27Z</time>
      </trkpt>
      <trkpt lat="48.48509" lon="-2.67978">
        <ele>10.8</ele>
        <time>2026-01-25T08:41:28Z</time>
      </trkpt>
      <trkpt lat="48.48509" lon="-2.67969">
        <ele>10.8</ele>
        <time>2026-01-25T08:41:29Z</time>
      </trkpt>
      <trkpt lat="48.48509" lon="-2.6796">
        <ele>10</ele>
        <time>2026-01-25T08:41:30Z</time>
      </trkpt>
      <trkpt lat="48.48509" lon="-2.67951">
        <ele>10</ele>
        <time>2026-01-25T08:41:31Z</time>
      </trkpt>
      <trkpt lat="48.48509" lon="-2.67942">
        <ele>10</ele>
        <time>2026-01-25T08:41:32Z</time>
      </trkpt>
      <trkpt lat="48.48509" lon="-2.67933">
        <ele>10</ele>
        <time>2026-01-25T08:41:33Z</time>
      </trkpt>
      <trkpt lat="48.48509" lon="-2.67925">
        <ele>10</ele>
        <time>2026-01-25T08:41:34Z</time>
      </trkpt>
      <trkpt lat="48.48509" lon="-2.67915">
        <ele>10.4</ele>
        <time>2026-01-25T08:41:35Z</time>
      </trkpt>
      <trkpt lat="48.48509" lon="-2.67906">
        <ele>10.4</ele>
        <time>2026-01-25T08:41:36Z</time>
      </trkpt>
      <trkpt lat="48.48509" lon="-2.67898">
        <ele>10.4</ele>
        <time>2026-01-25T08:41:37Z</time>
      </trkpt>
      <trkpt lat="48.48509" lon="-2.67889">
        <ele>10.4</ele>
        <time>2026-01-25T08:41:38Z</time>
      </trkpt>
      <trkpt lat="48.48509" lon="-2.6788">
        <ele>10.6</ele>
        <time>2026-01-25T08:41:39Z</time>
      </trkpt>
      <trkpt lat="48.48509" lon="-2.67871">
        <ele>10.6</ele>
        <time>2026-01-25T08:41:40Z</time>
      </trkpt>
      <trkpt lat="48.48509" lon="-2.67863">
        <ele>10.6</ele>
        <time>2026-01-25T08:41:41Z</time>
      </trkpt>
      <trkpt lat="48.48509" lon="-2.67854">
        <ele>10.6</ele>
        <time>2026-01-25T08:41:42Z</time>
      </trkpt>
      <trkpt lat="48.4851" lon="-2.67846">
        <ele>10.4</ele>
        <time>2026-01-25T08:41:43Z</time>
      </trkpt>
      <trkpt lat="48.4851" lon="-2.67838">
        <ele>10.4</ele>
        <time>2026-01-25T08:41:44Z</time>
      </trkpt>
      <trkpt lat="48.48511" lon="-2.67829">
        <ele>10.4</ele>
        <time>2026-01-25T08:41:45Z</time>
      </trkpt>
      <trkpt lat="48.48511" lon="-2.67821">
        <ele>10.4</ele>
        <time>2026-01-25T08:41:46Z</time>
      </trkpt>
      <trkpt lat="48.48511" lon="-2.67812">
        <ele>10.4</ele>
        <time>2026-01-25T08:41:47Z</time>
      </trkpt>
      <trkpt lat="48.48511" lon="-2.67804">
        <ele>10.4</ele>
        <time>2026-01-25T08:41:48Z</time>
      </trkpt>
      <trkpt lat="48.48511" lon="-2.67795">
        <ele>10.4</ele>
        <time>2026-01-25T08:41:49Z</time>
      </trkpt>
      <trkpt lat="48.48511" lon="-2.67787">
        <ele>10.4</ele>
        <time>2026-01-25T08:41:50Z</time>
      </trkpt>
      <trkpt lat="48.48511" lon="-2.67779">
        <ele>10.8</ele>
        <time>2026-01-25T08:41:51Z</time>
      </trkpt>
      <trkpt lat="48.48511" lon="-2.67771">
        <ele>10.8</ele>
        <time>2026-01-25T08:41:52Z</time>
      </trkpt>
      <trkpt lat="48.48511" lon="-2.67763">
        <ele>10.8</ele>
        <time>2026-01-25T08:41:53Z</time>
      </trkpt>
      <trkpt lat="48.48512" lon="-2.67755">
        <ele>10.8</ele>
        <time>2026-01-25T08:41:54Z</time>
      </trkpt>
      <trkpt lat="48.48512" lon="-2.67747">
        <ele>9.8</ele>
        <time>2026-01-25T08:41:55Z</time>
      </trkpt>
      <trkpt lat="48.48512" lon="-2.67739">
        <ele>9.8</ele>
        <time>2026-01-25T08:41:56Z</time>
      </trkpt>
      <trkpt lat="48.48512" lon="-2.67731">
        <ele>9.8</ele>
        <time>2026-01-25T08:41:57Z</time>
      </trkpt>
      <trkpt lat="48.48513" lon="-2.67724">
        <ele>9.8</ele>
        <time>2026-01-25T08:41:58Z</time>
      </trkpt>
      <trkpt lat="48.48513" lon="-2.67716">
        <ele>9.6</ele>
        <time>2026-01-25T08:41:59Z</time>
      </trkpt>
      <trkpt lat="48.48512" lon="-2.67708">
        <ele>9.6</ele>
        <time>2026-01-25T08:42:00Z</time>
      </trkpt>
      <trkpt lat="48.48513" lon="-2.677">
        <ele>9.6</ele>
        <time>2026-01-25T08:42:01Z</time>
      </trkpt>
      <trkpt lat="48.48513" lon="-2.67692">
        <ele>10.4</ele>
        <time>2026-01-25T08:42:02Z</time>
      </trkpt>
      <trkpt lat="48.48513" lon="-2.67685">
        <ele>10.4</ele>
        <time>2026-01-25T08:42:03Z</time>
      </trkpt>
      <trkpt lat="48.48513" lon="-2.67678">
        <ele>10.4</ele>
        <time>2026-01-25T08:42:04Z</time>
      </trkpt>
      <trkpt lat="48.48513" lon="-2.67672">
        <ele>10.4</ele>
        <time>2026-01-25T08:42:05Z</time>
      </trkpt>
      <trkpt lat="48.48512" lon="-2.67666">
        <ele>10.4</ele>
        <time>2026-01-25T08:42:06Z</time>
      </trkpt>
      <trkpt lat="48.4851" lon="-2.67659">
        <ele>10</ele>
        <time>2026-01-25T08:42:07Z</time>
      </trkpt>
      <trkpt lat="48.48511" lon="-2.67653">
        <ele>10</ele>
        <time>2026-01-25T08:42:08Z</time>
      </trkpt>
      <trkpt lat="48.48513" lon="-2.67648">
        <ele>10</ele>
        <time>2026-01-25T08:42:09Z</time>
      </trkpt>
      <trkpt lat="48.48517" lon="-2.67645">
        <ele>10.6</ele>
        <time>2026-01-25T08:42:10Z</time>
      </trkpt>
      <trkpt lat="48.48521" lon="-2.67645">
        <ele>10.4</ele>
        <time>2026-01-25T08:42:11Z</time>
      </trkpt>
      <trkpt lat="48.48526" lon="-2.67645">
        <ele>10.4</ele>
        <time>2026-01-25T08:42:12Z</time>
      </trkpt>
      <trkpt lat="48.48531" lon="-2.67646">
        <ele>10.4</ele>
        <time>2026-01-25T08:42:13Z</time>
      </trkpt>
      <trkpt lat="48.48536" lon="-2.67646">
        <ele>9.8</ele>
        <time>2026-01-25T08:42:14Z</time>
      </trkpt>
      <trkpt lat="48.48541" lon="-2.67646">
        <ele>9.4</ele>
        <time>2026-01-25T08:42:15Z</time>
      </trkpt>
      <trkpt lat="48.48546" lon="-2.67647">
        <ele>9.4</ele>
        <time>2026-01-25T08:42:16Z</time>
      </trkpt>
      <trkpt lat="48.48552" lon="-2.67648">
        <ele>9.4</ele>
        <time>2026-01-25T08:42:17Z</time>
      </trkpt>
      <trkpt lat="48.48557" lon="-2.6765">
        <ele>8.6</ele>
        <time>2026-01-25T08:42:18Z</time>
      </trkpt>
      <trkpt lat="48.48563" lon="-2.67652">
        <ele>8.2</ele>
        <time>2026-01-25T08:42:19Z</time>
      </trkpt>
      <trkpt lat="48.48569" lon="-2.67654">
        <ele>8.2</ele>
        <time>2026-01-25T08:42:20Z</time>
      </trkpt>
      <trkpt lat="48.48575" lon="-2.67658">
        <ele>8.2</ele>
        <time>2026-01-25T08:42:21Z</time>
      </trkpt>
      <trkpt lat="48.4858" lon="-2.67661">
        <ele>8.2</ele>
        <time>2026-01-25T08:42:22Z</time>
      </trkpt>
      <trkpt lat="48.48586" lon="-2.67665">
        <ele>7.8</ele>
        <time>2026-01-25T08:42:23Z</time>
      </trkpt>
      <trkpt lat="48.48592" lon="-2.67669">
        <ele>7.8</ele>
        <time>2026-01-25T08:42:24Z</time>
      </trkpt>
      <trkpt lat="48.48597" lon="-2.67673">
        <ele>7.8</ele>
        <time>2026-01-25T08:42:25Z</time>
      </trkpt>
      <trkpt lat="48.48603" lon="-2.67677">
        <ele>7.4</ele>
        <time>2026-01-25T08:42:26Z</time>
      </trkpt>
      <trkpt lat="48.48609" lon="-2.67681">
        <ele>7.4</ele>
        <time>2026-01-25T08:42:27Z</time>
      </trkpt>
      <trkpt lat="48.48615" lon="-2.67686">
        <ele>7.4</ele>
        <time>2026-01-25T08:42:28Z</time>
      </trkpt>
      <trkpt lat="48.4862" lon="-2.6769">
        <ele>7.4</ele>
        <time>2026-01-25T08:42:29Z</time>
      </trkpt>
      <trkpt lat="48.48626" lon="-2.67695">
        <ele>7</ele>
        <time>2026-01-25T08:42:30Z</time>
      </trkpt>
      <trkpt lat="48.48632" lon="-2.67699">
        <ele>6.8</ele>
        <time>2026-01-25T08:42:31Z</time>
      </trkpt>
      <trkpt lat="48.48638" lon="-2.67704">
        <ele>6.8</ele>
        <time>2026-01-25T08:42:32Z</time>
      </trkpt>
      <trkpt lat="48.48644" lon="-2.67709">
        <ele>6.8</ele>
        <time>2026-01-25T08:42:33Z</time>
      </trkpt>
      <trkpt lat="48.48649" lon="-2.67714">
        <ele>6.8</ele>
        <time>2026-01-25T08:42:34Z</time>
      </trkpt>
      <trkpt lat="48.48655" lon="-2.67718">
        <ele>6.6</ele>
        <time>2026-01-25T08:42:35Z</time>
      </trkpt>
      <trkpt lat="48.48661" lon="-2.67723">
        <ele>6.6</ele>
        <time>2026-01-25T08:42:36Z</time>
      </trkpt>
      <trkpt lat="48.48666" lon="-2.67727">
        <ele>6.6</ele>
        <time>2026-01-25T08:42:37Z</time>
      </trkpt>
      <trkpt lat="48.48672" lon="-2.67732">
        <ele>6.6</ele>
        <time>2026-01-25T08:42:38Z</time>
      </trkpt>
      <trkpt lat="48.48677" lon="-2.67736">
        <ele>6.4</ele>
        <time>2026-01-25T08:42:39Z</time>
      </trkpt>
      <trkpt lat="48.48683" lon="-2.67741">
        <ele>6.4</ele>
        <time>2026-01-25T08:42:40Z</time>
      </trkpt>
      <trkpt lat="48.48688" lon="-2.67745">
        <ele>6.4</ele>
        <time>2026-01-25T08:42:41Z</time>
      </trkpt>
      <trkpt lat="48.48694" lon="-2.6775">
        <ele>6.8</ele>
        <time>2026-01-25T08:42:42Z</time>
      </trkpt>
      <trkpt lat="48.48699" lon="-2.67754">
        <ele>6.2</ele>
        <time>2026-01-25T08:42:43Z</time>
      </trkpt>
      <trkpt lat="48.48705" lon="-2.67759">
        <ele>6.2</ele>
        <time>2026-01-25T08:42:44Z</time>
      </trkpt>
      <trkpt lat="48.4871" lon="-2.67763">
        <ele>6.2</ele>
        <time>2026-01-25T08:42:45Z</time>
      </trkpt>
      <trkpt lat="48.48715" lon="-2.67767">
        <ele>6.2</ele>
        <time>2026-01-25T08:42:46Z</time>
      </trkpt>
      <trkpt lat="48.4872" lon="-2.67771">
        <ele>6.8</ele>
        <time>2026-01-25T08:42:47Z</time>
      </trkpt>
      <trkpt lat="48.48726" lon="-2.67776">
        <ele>6.8</ele>
        <time>2026-01-25T08:42:48Z</time>
      </trkpt>
      <trkpt lat="48.48731" lon="-2.67781">
        <ele>6.8</ele>
        <time>2026-01-25T08:42:49Z</time>
      </trkpt>
      <trkpt lat="48.48736" lon="-2.67785">
        <ele>6.6</ele>
        <time>2026-01-25T08:42:50Z</time>
      </trkpt>
      <trkpt lat="48.48741" lon="-2.67789">
        <ele>6.4</ele>
        <time>2026-01-25T08:42:51Z</time>
      </trkpt>
      <trkpt lat="48.48746" lon="-2.67794">
        <ele>6.4</ele>
        <time>2026-01-25T08:42:52Z</time>
      </trkpt>
      <trkpt lat="48.48751" lon="-2.67798">
        <ele>6.4</ele>
        <time>2026-01-25T08:42:53Z</time>
      </trkpt>
      <trkpt lat="48.48756" lon="-2.67802">
        <ele>6.2</ele>
        <time>2026-01-25T08:42:54Z</time>
      </trkpt>
      <trkpt lat="48.48762" lon="-2.67807">
        <ele>6</ele>
        <time>2026-01-25T08:42:55Z</time>
      </trkpt>
      <trkpt lat="48.48767" lon="-2.67811">
        <ele>6</ele>
        <time>2026-01-25T08:42:56Z</time>
      </trkpt>
      <trkpt lat="48.48772" lon="-2.67816">
        <ele>6</ele>
        <time>2026-01-25T08:42:57Z</time>
      </trkpt>
      <trkpt lat="48.48777" lon="-2.6782">
        <ele>6</ele>
        <time>2026-01-25T08:42:58Z</time>
      </trkpt>
      <trkpt lat="48.48783" lon="-2.67824">
        <ele>6</ele>
        <time>2026-01-25T08:42:59Z</time>
      </trkpt>
      <trkpt lat="48.48788" lon="-2.67828">
        <ele>6</ele>
        <time>2026-01-25T08:43:00Z</time>
      </trkpt>
      <trkpt lat="48.48793" lon="-2.67832">
        <ele>6</ele>
        <time>2026-01-25T08:43:01Z</time>
      </trkpt>
      <trkpt lat="48.48798" lon="-2.67837">
        <ele>6</ele>
        <time>2026-01-25T08:43:02Z</time>
      </trkpt>
      <trkpt lat="48.48802" lon="-2.67841">
        <ele>6.4</ele>
        <time>2026-01-25T08:43:03Z</time>
      </trkpt>
      <trkpt lat="48.48807" lon="-2.67844">
        <ele>6.4</ele>
        <time>2026-01-25T08:43:04Z</time>
      </trkpt>
      <trkpt lat="48.48812" lon="-2.67848">
        <ele>6.4</ele>
        <time>2026-01-25T08:43:05Z</time>
      </trkpt>
      <trkpt lat="48.48818" lon="-2.67851">
        <ele>6.4</ele>
        <time>2026-01-25T08:43:06Z</time>
      </trkpt>
      <trkpt lat="48.48823" lon="-2.67853">
        <ele>5.8</ele>
        <time>2026-01-25T08:43:07Z</time>
      </trkpt>
      <trkpt lat="48.48829" lon="-2.67856">
        <ele>5.8</ele>
        <time>2026-01-25T08:43:08Z</time>
      </trkpt>
      <trkpt lat="48.48834" lon="-2.6786">
        <ele>5.8</ele>
        <time>2026-01-25T08:43:09Z</time>
      </trkpt>
      <trkpt lat="48.48839" lon="-2.67864">
        <ele>6.4</ele>
        <time>2026-01-25T08:43:10Z</time>
      </trkpt>
      <trkpt lat="48.48844" lon="-2.67869">
        <ele>6</ele>
        <time>2026-01-25T08:43:11Z</time>
      </trkpt>
      <trkpt lat="48.48848" lon="-2.67874">
        <ele>6</ele>
        <time>2026-01-25T08:43:12Z</time>
      </trkpt>
      <trkpt lat="48.48852" lon="-2.6788">
        <ele>6</ele>
        <time>2026-01-25T08:43:13Z</time>
      </trkpt>
      <trkpt lat="48.48857" lon="-2.67886">
        <ele>6</ele>
        <time>2026-01-25T08:43:14Z</time>
      </trkpt>
      <trkpt lat="48.48862" lon="-2.67891">
        <ele>6.2</ele>
        <time>2026-01-25T08:43:15Z</time>
      </trkpt>
      <trkpt lat="48.48867" lon="-2.67896">
        <ele>6.2</ele>
        <time>2026-01-25T08:43:16Z</time>
      </trkpt>
      <trkpt lat="48.48872" lon="-2.679">
        <ele>6.2</ele>
        <time>2026-01-25T08:43:17Z</time>
      </trkpt>
      <trkpt lat="48.48877" lon="-2.67905">
        <ele>6.2</ele>
        <time>2026-01-25T08:43:18Z</time>
      </trkpt>
      <trkpt lat="48.48882" lon="-2.67909">
        <ele>6.6</ele>
        <time>2026-01-25T08:43:19Z</time>
      </trkpt>
      <trkpt lat="48.48887" lon="-2.67913">
        <ele>6.6</ele>
        <time>2026-01-25T08:43:20Z</time>
      </trkpt>
      <trkpt lat="48.48892" lon="-2.67918">
        <ele>6.6</ele>
        <time>2026-01-25T08:43:21Z</time>
      </trkpt>
      <trkpt lat="48.48897" lon="-2.67923">
        <ele>6.2</ele>
        <time>2026-01-25T08:43:22Z</time>
      </trkpt>
      <trkpt lat="48.48902" lon="-2.67927">
        <ele>5.4</ele>
        <time>2026-01-25T08:43:23Z</time>
      </trkpt>
      <trkpt lat="48.48907" lon="-2.67931">
        <ele>5.4</ele>
        <time>2026-01-25T08:43:24Z</time>
      </trkpt>
      <trkpt lat="48.48912" lon="-2.67935">
        <ele>5.4</ele>
        <time>2026-01-25T08:43:25Z</time>
      </trkpt>
      <trkpt lat="48.48917" lon="-2.6794">
        <ele>5.8</ele>
        <time>2026-01-25T08:43:26Z</time>
      </trkpt>
      <trkpt lat="48.48922" lon="-2.67944">
        <ele>5.6</ele>
        <time>2026-01-25T08:43:27Z</time>
      </trkpt>
      <trkpt lat="48.48927" lon="-2.67949">
        <ele>5.6</ele>
        <time>2026-01-25T08:43:28Z</time>
      </trkpt>
      <trkpt lat="48.48932" lon="-2.67953">
        <ele>5.6</ele>
        <time>2026-01-25T08:43:29Z</time>
      </trkpt>
      <trkpt lat="48.48937" lon="-2.67957">
        <ele>6</ele>
        <time>2026-01-25T08:43:30Z</time>
      </trkpt>
      <trkpt lat="48.48942" lon="-2.67962">
        <ele>5.6</ele>
        <time>2026-01-25T08:43:31Z</time>
      </trkpt>
      <trkpt lat="48.48947" lon="-2.67967">
        <ele>5.6</ele>
        <time>2026-01-25T08:43:32Z</time>
      </trkpt>
      <trkpt lat="48.48952" lon="-2.67971">
        <ele>5.6</ele>
        <time>2026-01-25T08:43:33Z</time>
      </trkpt>
      <trkpt lat="48.48956" lon="-2.67977">
        <ele>5.8</ele>
        <time>2026-01-25T08:43:34Z</time>
      </trkpt>
      <trkpt lat="48.48961" lon="-2.67982">
        <ele>5.8</ele>
        <time>2026-01-25T08:43:35Z</time>
      </trkpt>
      <trkpt lat="48.48965" lon="-2.67988">
        <ele>5.8</ele>
        <time>2026-01-25T08:43:36Z</time>
      </trkpt>
      <trkpt lat="48.48969" lon="-2.67994">
        <ele>5.8</ele>
        <time>2026-01-25T08:43:37Z</time>
      </trkpt>
      <trkpt lat="48.48973" lon="-2.68">
        <ele>6.4</ele>
        <time>2026-01-25T08:43:38Z</time>
      </trkpt>
      <trkpt lat="48.48977" lon="-2.68006">
        <ele>6</ele>
        <time>2026-01-25T08:43:39Z</time>
      </trkpt>
      <trkpt lat="48.48981" lon="-2.68012">
        <ele>6</ele>
        <time>2026-01-25T08:43:40Z</time>
      </trkpt>
      <trkpt lat="48.48984" lon="-2.68018">
        <ele>6</ele>
        <time>2026-01-25T08:43:41Z</time>
      </trkpt>
      <trkpt lat="48.48988" lon="-2.68025">
        <ele>6</ele>
        <time>2026-01-25T08:43:42Z</time>
      </trkpt>
      <trkpt lat="48.48991" lon="-2.68032">
        <ele>6.2</ele>
        <time>2026-01-25T08:43:43Z</time>
      </trkpt>
      <trkpt lat="48.48994" lon="-2.68039">
        <ele>6.2</ele>
        <time>2026-01-25T08:43:44Z</time>
      </trkpt>
      <trkpt lat="48.48998" lon="-2.68046">
        <ele>6.2</ele>
        <time>2026-01-25T08:43:45Z</time>
      </trkpt>
      <trkpt lat="48.49001" lon="-2.68053">
        <ele>6</ele>
        <time>2026-01-25T08:43:46Z</time>
      </trkpt>
      <trkpt lat="48.49004" lon="-2.6806">
        <ele>6.6</ele>
        <time>2026-01-25T08:43:47Z</time>
      </trkpt>
      <trkpt lat="48.49007" lon="-2.68067">
        <ele>6.6</ele>
        <time>2026-01-25T08:43:48Z</time>
      </trkpt>
      <trkpt lat="48.4901" lon="-2.68074">
        <ele>6.6</ele>
        <time>2026-01-25T08:43:49Z</time>
      </trkpt>
      <trkpt lat="48.49013" lon="-2.68081">
        <ele>6.6</ele>
        <time>2026-01-25T08:43:50Z</time>
      </trkpt>
      <trkpt lat="48.49017" lon="-2.68088">
        <ele>6</ele>
        <time>2026-01-25T08:43:51Z</time>
      </trkpt>
      <trkpt lat="48.4902" lon="-2.68095">
        <ele>6</ele>
        <time>2026-01-25T08:43:52Z</time>
      </trkpt>
      <trkpt lat="48.49023" lon="-2.68102">
        <ele>6</ele>
        <time>2026-01-25T08:43:53Z</time>
      </trkpt>
      <trkpt lat="48.49026" lon="-2.68109">
        <ele>6</ele>
        <time>2026-01-25T08:43:54Z</time>
      </trkpt>
      <trkpt lat="48.49029" lon="-2.68117">
        <ele>6.2</ele>
        <time>2026-01-25T08:43:55Z</time>
      </trkpt>
      <trkpt lat="48.49032" lon="-2.68124">
        <ele>6.2</ele>
        <time>2026-01-25T08:43:56Z</time>
      </trkpt>
      <trkpt lat="48.49035" lon="-2.68131">
        <ele>6.2</ele>
        <time>2026-01-25T08:43:57Z</time>
      </trkpt>
      <trkpt lat="48.49038" lon="-2.68139">
        <ele>5.8</ele>
        <time>2026-01-25T08:43:58Z</time>
      </trkpt>
      <trkpt lat="48.49042" lon="-2.68146">
        <ele>6.2</ele>
        <time>2026-01-25T08:43:59Z</time>
      </trkpt>
      <trkpt lat="48.49045" lon="-2.68153">
        <ele>6.2</ele>
        <time>2026-01-25T08:44:00Z</time>
      </trkpt>
      <trkpt lat="48.49048" lon="-2.6816">
        <ele>6.2</ele>
        <time>2026-01-25T08:44:01Z</time>
      </trkpt>
      <trkpt lat="48.49051" lon="-2.68168">
        <ele>5.4</ele>
        <time>2026-01-25T08:44:02Z</time>
      </trkpt>
      <trkpt lat="48.49054" lon="-2.68176">
        <ele>5.8</ele>
        <time>2026-01-25T08:44:03Z</time>
      </trkpt>
      <trkpt lat="48.49057" lon="-2.68183">
        <ele>5.8</ele>
        <time>2026-01-25T08:44:04Z</time>
      </trkpt>
      <trkpt lat="48.49061" lon="-2.68191">
        <ele>5.8</ele>
        <time>2026-01-25T08:44:05Z</time>
      </trkpt>
      <trkpt lat="48.49064" lon="-2.68198">
        <ele>5.4</ele>
        <time>2026-01-25T08:44:06Z</time>
      </trkpt>
      <trkpt lat="48.49067" lon="-2.68206">
        <ele>5.6</ele>
        <time>2026-01-25T08:44:07Z</time>
      </trkpt>
      <trkpt lat="48.4907" lon="-2.68214">
        <ele>5.6</ele>
        <time>2026-01-25T08:44:08Z</time>
      </trkpt>
      <trkpt lat="48.49074" lon="-2.68221">
        <ele>5.6</ele>
        <time>2026-01-25T08:44:09Z</time>
      </trkpt>
      <trkpt lat="48.49077" lon="-2.68229">
        <ele>5.4</ele>
        <time>2026-01-25T08:44:10Z</time>
      </trkpt>
      <trkpt lat="48.4908" lon="-2.68237">
        <ele>5.4</ele>
        <time>2026-01-25T08:44:11Z</time>
      </trkpt>
      <trkpt lat="48.49083" lon="-2.68244">
        <ele>5.4</ele>
        <time>2026-01-25T08:44:12Z</time>
      </trkpt>
      <trkpt lat="48.49086" lon="-2.68252">
        <ele>5.4</ele>
        <time>2026-01-25T08:44:13Z</time>
      </trkpt>
      <trkpt lat="48.49089" lon="-2.68259">
        <ele>5.4</ele>
        <time>2026-01-25T08:44:14Z</time>
      </trkpt>
      <trkpt lat="48.49092" lon="-2.68266">
        <ele>5.8</ele>
        <time>2026-01-25T08:44:15Z</time>
      </trkpt>
      <trkpt lat="48.49096" lon="-2.68274">
        <ele>5.8</ele>
        <time>2026-01-25T08:44:16Z</time>
      </trkpt>
      <trkpt lat="48.49099" lon="-2.68281">
        <ele>5.8</ele>
        <time>2026-01-25T08:44:17Z</time>
      </trkpt>
      <trkpt lat="48.49102" lon="-2.68288">
        <ele>5.8</ele>
        <time>2026-01-25T08:44:18Z</time>
      </trkpt>
      <trkpt lat="48.49105" lon="-2.68296">
        <ele>6.6</ele>
        <time>2026-01-25T08:44:19Z</time>
      </trkpt>
      <trkpt lat="48.49108" lon="-2.68303">
        <ele>6.6</ele>
        <time>2026-01-25T08:44:20Z</time>
      </trkpt>
      <trkpt lat="48.49112" lon="-2.6831">
        <ele>6.6</ele>
        <time>2026-01-25T08:44:21Z</time>
      </trkpt>
      <trkpt lat="48.49115" lon="-2.68318">
        <ele>5.6</ele>
        <time>2026-01-25T08:44:22Z</time>
      </trkpt>
      <trkpt lat="48.49118" lon="-2.68325">
        <ele>5.8</ele>
        <time>2026-01-25T08:44:23Z</time>
      </trkpt>
      <trkpt lat="48.49121" lon="-2.68332">
        <ele>5.8</ele>
        <time>2026-01-25T08:44:24Z</time>
      </trkpt>
      <trkpt lat="48.49124" lon="-2.68339">
        <ele>5.8</ele>
        <time>2026-01-25T08:44:25Z</time>
      </trkpt>
      <trkpt lat="48.49127" lon="-2.68346">
        <ele>5.8</ele>
        <time>2026-01-25T08:44:26Z</time>
      </trkpt>
      <trkpt lat="48.4913" lon="-2.68354">
        <ele>5.6</ele>
        <time>2026-01-25T08:44:27Z</time>
      </trkpt>
      <trkpt lat="48.49133" lon="-2.68361">
        <ele>5.6</ele>
        <time>2026-01-25T08:44:28Z</time>
      </trkpt>
      <trkpt lat="48.49136" lon="-2.68368">
        <ele>5.6</ele>
        <time>2026-01-25T08:44:29Z</time>
      </trkpt>
      <trkpt lat="48.49139" lon="-2.68376">
        <ele>5.6</ele>
        <time>2026-01-25T08:44:30Z</time>
      </trkpt>
      <trkpt lat="48.49142" lon="-2.68383">
        <ele>5.4</ele>
        <time>2026-01-25T08:44:31Z</time>
      </trkpt>
      <trkpt lat="48.49145" lon="-2.6839">
        <ele>5.4</ele>
        <time>2026-01-25T08:44:32Z</time>
      </trkpt>
      <trkpt lat="48.49148" lon="-2.68397">
        <ele>5.4</ele>
        <time>2026-01-25T08:44:33Z</time>
      </trkpt>
      <trkpt lat="48.49152" lon="-2.68404">
        <ele>5.8</ele>
        <time>2026-01-25T08:44:34Z</time>
      </trkpt>
      <trkpt lat="48.49155" lon="-2.6841">
        <ele>5.8</ele>
        <time>2026-01-25T08:44:35Z</time>
      </trkpt>
      <trkpt lat="48.49159" lon="-2.68416">
        <ele>5.8</ele>
        <time>2026-01-25T08:44:36Z</time>
      </trkpt>
      <trkpt lat="48.49163" lon="-2.68423">
        <ele>5.8</ele>
        <time>2026-01-25T08:44:37Z</time>
      </trkpt>
      <trkpt lat="48.49167" lon="-2.68429">
        <ele>5.8</ele>
        <time>2026-01-25T08:44:38Z</time>
      </trkpt>
      <trkpt lat="48.49171" lon="-2.68434">
        <ele>6</ele>
        <time>2026-01-25T08:44:39Z</time>
      </trkpt>
      <trkpt lat="48.49176" lon="-2.68439">
        <ele>6</ele>
        <time>2026-01-25T08:44:40Z</time>
      </trkpt>
      <trkpt lat="48.4918" lon="-2.68444">
        <ele>6</ele>
        <time>2026-01-25T08:44:41Z</time>
      </trkpt>
      <trkpt lat="48.49185" lon="-2.68449">
        <ele>6</ele>
        <time>2026-01-25T08:44:42Z</time>
      </trkpt>
      <trkpt lat="48.49189" lon="-2.68453">
        <ele>5.8</ele>
        <time>2026-01-25T08:44:43Z</time>
      </trkpt>
      <trkpt lat="48.49194" lon="-2.68458">
        <ele>5.8</ele>
        <time>2026-01-25T08:44:44Z</time>
      </trkpt>
      <trkpt lat="48.49198" lon="-2.68464">
        <ele>5.8</ele>
        <time>2026-01-25T08:44:45Z</time>
      </trkpt>
      <trkpt lat="48.49203" lon="-2.68468">
        <ele>5.6</ele>
        <time>2026-01-25T08:44:46Z</time>
      </trkpt>
      <trkpt lat="48.49207" lon="-2.68474">
        <ele>5.4</ele>
        <time>2026-01-25T08:44:47Z</time>
      </trkpt>
      <trkpt lat="48.49211" lon="-2.68479">
        <ele>5.4</ele>
        <time>2026-01-25T08:44:48Z</time>
      </trkpt>
      <trkpt lat="48.49216" lon="-2.68484">
        <ele>5.4</ele>
        <time>2026-01-25T08:44:49Z</time>
      </trkpt>
      <trkpt lat="48.4922" lon="-2.6849">
        <ele>5.4</ele>
        <time>2026-01-25T08:44:50Z</time>
      </trkpt>
      <trkpt lat="48.49224" lon="-2.68497">
        <ele>5.4</ele>
        <time>2026-01-25T08:44:51Z</time>
      </trkpt>
      <trkpt lat="48.49228" lon="-2.68503">
        <ele>5.4</ele>
        <time>2026-01-25T08:44:52Z</time>
      </trkpt>
      <trkpt lat="48.49231" lon="-2.68511">
        <ele>5.4</ele>
        <time>2026-01-25T08:44:53Z</time>
      </trkpt>
      <trkpt lat="48.49235" lon="-2.68518">
        <ele>5.4</ele>
        <time>2026-01-25T08:44:54Z</time>
      </trkpt>
      <trkpt lat="48.49238" lon="-2.68525">
        <ele>5</ele>
        <time>2026-01-25T08:44:55Z</time>
      </trkpt>
      <trkpt lat="48.49241" lon="-2.68532">
        <ele>5</ele>
        <time>2026-01-25T08:44:56Z</time>
      </trkpt>
      <trkpt lat="48.49244" lon="-2.6854">
        <ele>5</ele>
        <time>2026-01-25T08:44:57Z</time>
      </trkpt>
      <trkpt lat="48.49248" lon="-2.68548">
        <ele>5</ele>
        <time>2026-01-25T08:44:58Z</time>
      </trkpt>
      <trkpt lat="48.49251" lon="-2.68555">
        <ele>5</ele>
        <time>2026-01-25T08:44:59Z</time>
      </trkpt>
      <trkpt lat="48.49254" lon="-2.68563">
        <ele>5</ele>
        <time>2026-01-25T08:45:00Z</time>
      </trkpt>
      <trkpt lat="48.49258" lon="-2.6857">
        <ele>5</ele>
        <time>2026-01-25T08:45:01Z</time>
      </trkpt>
      <trkpt lat="48.49262" lon="-2.68577">
        <ele>5</ele>
        <time>2026-01-25T08:45:02Z</time>
      </trkpt>
      <trkpt lat="48.49265" lon="-2.68584">
        <ele>5.4</ele>
        <time>2026-01-25T08:45:03Z</time>
      </trkpt>
      <trkpt lat="48.49269" lon="-2.6859">
        <ele>5.4</ele>
        <time>2026-01-25T08:45:04Z</time>
      </trkpt>
      <trkpt lat="48.49273" lon="-2.68597">
        <ele>5.4</ele>
        <time>2026-01-25T08:45:05Z</time>
      </trkpt>
      <trkpt lat="48.49277" lon="-2.68603">
        <ele>5.8</ele>
        <time>2026-01-25T08:45:06Z</time>
      </trkpt>
      <trkpt lat="48.49281" lon="-2.68609">
        <ele>5.4</ele>
        <time>2026-01-25T08:45:07Z</time>
      </trkpt>
      <trkpt lat="48.49285" lon="-2.68615">
        <ele>5.4</ele>
        <time>2026-01-25T08:45:08Z</time>
      </trkpt>
      <trkpt lat="48.4929" lon="-2.6862">
        <ele>5.4</ele>
        <time>2026-01-25T08:45:09Z</time>
      </trkpt>
      <trkpt lat="48.49295" lon="-2.68626">
        <ele>5.6</ele>
        <time>2026-01-25T08:45:10Z</time>
      </trkpt>
      <trkpt lat="48.49299" lon="-2.6863">
        <ele>5.8</ele>
        <time>2026-01-25T08:45:11Z</time>
      </trkpt>
      <trkpt lat="48.49305" lon="-2.68634">
        <ele>5.8</ele>
        <time>2026-01-25T08:45:12Z</time>
      </trkpt>
      <trkpt lat="48.4931" lon="-2.68637">
        <ele>5.8</ele>
        <time>2026-01-25T08:45:13Z</time>
      </trkpt>
      <trkpt lat="48.49315" lon="-2.6864">
        <ele>5.8</ele>
        <time>2026-01-25T08:45:14Z</time>
      </trkpt>
      <trkpt lat="48.49321" lon="-2.68642">
        <ele>5.4</ele>
        <time>2026-01-25T08:45:15Z</time>
      </trkpt>
      <trkpt lat="48.49327" lon="-2.68644">
        <ele>5.4</ele>
        <time>2026-01-25T08:45:16Z</time>
      </trkpt>
      <trkpt lat="48.49333" lon="-2.68647">
        <ele>5.4</ele>
        <time>2026-01-25T08:45:17Z</time>
      </trkpt>
      <trkpt lat="48.49339" lon="-2.68649">
        <ele>5.4</ele>
        <time>2026-01-25T08:45:18Z</time>
      </trkpt>
      <trkpt lat="48.49345" lon="-2.68651">
        <ele>4.8</ele>
        <time>2026-01-25T08:45:19Z</time>
      </trkpt>
      <trkpt lat="48.49351" lon="-2.68653">
        <ele>4.8</ele>
        <time>2026-01-25T08:45:20Z</time>
      </trkpt>
      <trkpt lat="48.49357" lon="-2.68656">
        <ele>4.8</ele>
        <time>2026-01-25T08:45:21Z</time>
      </trkpt>
      <trkpt lat="48.49363" lon="-2.68658">
        <ele>4.8</ele>
        <time>2026-01-25T08:45:22Z</time>
      </trkpt>
      <trkpt lat="48.49369" lon="-2.68661">
        <ele>5.2</ele>
        <time>2026-01-25T08:45:23Z</time>
      </trkpt>
      <trkpt lat="48.49375" lon="-2.68663">
        <ele>5.2</ele>
        <time>2026-01-25T08:45:24Z</time>
      </trkpt>
      <trkpt lat="48.49381" lon="-2.68665">
        <ele>5.2</ele>
        <time>2026-01-25T08:45:25Z</time>
      </trkpt>
      <trkpt lat="48.49387" lon="-2.68668">
        <ele>5.2</ele>
        <time>2026-01-25T08:45:26Z</time>
      </trkpt>
      <trkpt lat="48.49393" lon="-2.68671">
        <ele>5.6</ele>
        <time>2026-01-25T08:45:27Z</time>
      </trkpt>
      <trkpt lat="48.49398" lon="-2.68674">
        <ele>5.6</ele>
        <time>2026-01-25T08:45:28Z</time>
      </trkpt>
      <trkpt lat="48.49404" lon="-2.68677">
        <ele>5.6</ele>
        <time>2026-01-25T08:45:29Z</time>
      </trkpt>
      <trkpt lat="48.4941" lon="-2.68679">
        <ele>5.4</ele>
        <time>2026-01-25T08:45:30Z</time>
      </trkpt>
      <trkpt lat="48.49416" lon="-2.68682">
        <ele>5</ele>
        <time>2026-01-25T08:45:31Z</time>
      </trkpt>
      <trkpt lat="48.49422" lon="-2.68685">
        <ele>5</ele>
        <time>2026-01-25T08:45:32Z</time>
      </trkpt>
      <trkpt lat="48.49428" lon="-2.68688">
        <ele>5</ele>
        <time>2026-01-25T08:45:33Z</time>
      </trkpt>
      <trkpt lat="48.49434" lon="-2.68691">
        <ele>4.8</ele>
        <time>2026-01-25T08:45:34Z</time>
      </trkpt>
      <trkpt lat="48.4944" lon="-2.68695">
        <ele>4.6</ele>
        <time>2026-01-25T08:45:35Z</time>
      </trkpt>
      <trkpt lat="48.49446" lon="-2.68698">
        <ele>4.6</ele>
        <time>2026-01-25T08:45:36Z</time>
      </trkpt>
      <trkpt lat="48.49452" lon="-2.68702">
        <ele>4.6</ele>
        <time>2026-01-25T08:45:37Z</time>
      </trkpt>
      <trkpt lat="48.49459" lon="-2.68705">
        <ele>4.6</ele>
        <time>2026-01-25T08:45:38Z</time>
      </trkpt>
      <trkpt lat="48.49465" lon="-2.68708">
        <ele>4.2</ele>
        <time>2026-01-25T08:45:39Z</time>
      </trkpt>
      <trkpt lat="48.49471" lon="-2.68712">
        <ele>4.2</ele>
        <time>2026-01-25T08:45:40Z</time>
      </trkpt>
      <trkpt lat="48.49477" lon="-2.68715">
        <ele>4.2</ele>
        <time>2026-01-25T08:45:41Z</time>
      </trkpt>
      <trkpt lat="48.49483" lon="-2.68718">
        <ele>4.2</ele>
        <time>2026-01-25T08:45:42Z</time>
      </trkpt>
      <trkpt lat="48.49489" lon="-2.68721">
        <ele>4.4</ele>
        <time>2026-01-25T08:45:43Z</time>
      </trkpt>
      <trkpt lat="48.49495" lon="-2.68725">
        <ele>4.4</ele>
        <time>2026-01-25T08:45:44Z</time>
      </trkpt>
      <trkpt lat="48.49501" lon="-2.68728">
        <ele>4.4</ele>
        <time>2026-01-25T08:45:45Z</time>
      </trkpt>
      <trkpt lat="48.49508" lon="-2.68731">
        <ele>4.4</ele>
        <time>2026-01-25T08:45:46Z</time>
      </trkpt>
      <trkpt lat="48.49514" lon="-2.68735">
        <ele>4.4</ele>
        <time>2026-01-25T08:45:47Z</time>
      </trkpt>
      <trkpt lat="48.4952" lon="-2.68738">
        <ele>4.4</ele>
        <time>2026-01-25T08:45:48Z</time>
      </trkpt>
      <trkpt lat="48.49526" lon="-2.68742">
        <ele>4.4</ele>
        <time>2026-01-25T08:45:49Z</time>
      </trkpt>
      <trkpt lat="48.49531" lon="-2.68745">
        <ele>4.4</ele>
        <time>2026-01-25T08:45:50Z</time>
      </trkpt>
      <trkpt lat="48.49537" lon="-2.68749">
        <ele>4.4</ele>
        <time>2026-01-25T08:45:51Z</time>
      </trkpt>
      <trkpt lat="48.49543" lon="-2.68752">
        <ele>4.4</ele>
        <time>2026-01-25T08:45:52Z</time>
      </trkpt>
      <trkpt lat="48.49549" lon="-2.68756">
        <ele>4.4</ele>
        <time>2026-01-25T08:45:53Z</time>
      </trkpt>
      <trkpt lat="48.49555" lon="-2.6876">
        <ele>4.4</ele>
        <time>2026-01-25T08:45:54Z</time>
      </trkpt>
      <trkpt lat="48.4956" lon="-2.68764">
        <ele>4.6</ele>
        <time>2026-01-25T08:45:55Z</time>
      </trkpt>
      <trkpt lat="48.49566" lon="-2.68768">
        <ele>4.6</ele>
        <time>2026-01-25T08:45:56Z</time>
      </trkpt>
      <trkpt lat="48.49572" lon="-2.68772">
        <ele>4.6</ele>
        <time>2026-01-25T08:45:57Z</time>
      </trkpt>
      <trkpt lat="48.49577" lon="-2.68777">
        <ele>4.6</ele>
        <time>2026-01-25T08:45:58Z</time>
      </trkpt>
      <trkpt lat="48.49583" lon="-2.68781">
        <ele>5</ele>
        <time>2026-01-25T08:45:59Z</time>
      </trkpt>
      <trkpt lat="48.49588" lon="-2.68786">
        <ele>5</ele>
        <time>2026-01-25T08:46:00Z</time>
      </trkpt>
      <trkpt lat="48.49594" lon="-2.6879">
        <ele>5</ele>
        <time>2026-01-25T08:46:01Z</time>
      </trkpt>
      <trkpt lat="48.49599" lon="-2.68795">
        <ele>4.6</ele>
        <time>2026-01-25T08:46:02Z</time>
      </trkpt>
      <trkpt lat="48.49605" lon="-2.688">
        <ele>4.4</ele>
        <time>2026-01-25T08:46:03Z</time>
      </trkpt>
      <trkpt lat="48.4961" lon="-2.68805">
        <ele>4.4</ele>
        <time>2026-01-25T08:46:04Z</time>
      </trkpt>
      <trkpt lat="48.49616" lon="-2.6881">
        <ele>4.4</ele>
        <time>2026-01-25T08:46:05Z</time>
      </trkpt>
      <trkpt lat="48.49621" lon="-2.68815">
        <ele>4.8</ele>
        <time>2026-01-25T08:46:06Z</time>
      </trkpt>
      <trkpt lat="48.49627" lon="-2.6882">
        <ele>4.8</ele>
        <time>2026-01-25T08:46:07Z</time>
      </trkpt>
      <trkpt lat="48.49632" lon="-2.68826">
        <ele>4.8</ele>
        <time>2026-01-25T08:46:08Z</time>
      </trkpt>
      <trkpt lat="48.49637" lon="-2.68831">
        <ele>4.8</ele>
        <time>2026-01-25T08:46:09Z</time>
      </trkpt>
      <trkpt lat="48.49642" lon="-2.68836">
        <ele>4.8</ele>
        <time>2026-01-25T08:46:10Z</time>
      </trkpt>
      <trkpt lat="48.49647" lon="-2.68842">
        <ele>4.8</ele>
        <time>2026-01-25T08:46:11Z</time>
      </trkpt>
      <trkpt lat="48.49653" lon="-2.68847">
        <ele>4.8</ele>
        <time>2026-01-25T08:46:12Z</time>
      </trkpt>
      <trkpt lat="48.49658" lon="-2.68852">
        <ele>4.8</ele>
        <time>2026-01-25T08:46:13Z</time>
      </trkpt>
      <trkpt lat="48.49663" lon="-2.68858">
        <ele>4.8</ele>
        <time>2026-01-25T08:46:14Z</time>
      </trkpt>
      <trkpt lat="48.49668" lon="-2.68863">
        <ele>4.8</ele>
        <time>2026-01-25T08:46:15Z</time>
      </trkpt>
      <trkpt lat="48.49673" lon="-2.68868">
        <ele>4.8</ele>
        <time>2026-01-25T08:46:16Z</time>
      </trkpt>
      <trkpt lat="48.49678" lon="-2.68873">
        <ele>4.8</ele>
        <time>2026-01-25T08:46:17Z</time>
      </trkpt>
      <trkpt lat="48.49683" lon="-2.68878">
        <ele>5.2</ele>
        <time>2026-01-25T08:46:18Z</time>
      </trkpt>
      <trkpt lat="48.49688" lon="-2.68884">
        <ele>5</ele>
        <time>2026-01-25T08:46:19Z</time>
      </trkpt>
      <trkpt lat="48.49693" lon="-2.68889">
        <ele>5</ele>
        <time>2026-01-25T08:46:20Z</time>
      </trkpt>
      <trkpt lat="48.49698" lon="-2.68894">
        <ele>5</ele>
        <time>2026-01-25T08:46:21Z</time>
      </trkpt>
      <trkpt lat="48.49703" lon="-2.689">
        <ele>5</ele>
        <time>2026-01-25T08:46:22Z</time>
      </trkpt>
      <trkpt lat="48.49709" lon="-2.68905">
        <ele>5</ele>
        <time>2026-01-25T08:46:23Z</time>
      </trkpt>
      <trkpt lat="48.49714" lon="-2.6891">
        <ele>5</ele>
        <time>2026-01-25T08:46:24Z</time>
      </trkpt>
      <trkpt lat="48.4972" lon="-2.68915">
        <ele>5</ele>
        <time>2026-01-25T08:46:25Z</time>
      </trkpt>
      <trkpt lat="48.49725" lon="-2.68919">
        <ele>5</ele>
        <time>2026-01-25T08:46:26Z</time>
      </trkpt>
      <trkpt lat="48.49731" lon="-2.68924">
        <ele>4.6</ele>
        <time>2026-01-25T08:46:27Z</time>
      </trkpt>
      <trkpt lat="48.49737" lon="-2.68928">
        <ele>4.6</ele>
        <time>2026-01-25T08:46:28Z</time>
      </trkpt>
      <trkpt lat="48.49742" lon="-2.68933">
        <ele>4.6</ele>
        <time>2026-01-25T08:46:29Z</time>
      </trkpt>
      <trkpt lat="48.49748" lon="-2.68937">
        <ele>4.2</ele>
        <time>2026-01-25T08:46:30Z</time>
      </trkpt>
      <trkpt lat="48.49754" lon="-2.68941">
        <ele>4.2</ele>
        <time>2026-01-25T08:46:31Z</time>
      </trkpt>
      <trkpt lat="48.49761" lon="-2.68945">
        <ele>4.2</ele>
        <time>2026-01-25T08:46:32Z</time>
      </trkpt>
      <trkpt lat="48.49767" lon="-2.68949">
        <ele>4.2</ele>
        <time>2026-01-25T08:46:33Z</time>
      </trkpt>
      <trkpt lat="48.49773" lon="-2.68953">
        <ele>3.6</ele>
        <time>2026-01-25T08:46:34Z</time>
      </trkpt>
      <trkpt lat="48.49779" lon="-2.68956">
        <ele>4.2</ele>
        <time>2026-01-25T08:46:35Z</time>
      </trkpt>
      <trkpt lat="48.49786" lon="-2.68959">
        <ele>4.2</ele>
        <time>2026-01-25T08:46:36Z</time>
      </trkpt>
      <trkpt lat="48.49792" lon="-2.68962">
        <ele>4.2</ele>
        <time>2026-01-25T08:46:37Z</time>
      </trkpt>
      <trkpt lat="48.49798" lon="-2.68966">
        <ele>4.2</ele>
        <time>2026-01-25T08:46:38Z</time>
      </trkpt>
      <trkpt lat="48.49805" lon="-2.68969">
        <ele>4</ele>
        <time>2026-01-25T08:46:39Z</time>
      </trkpt>
      <trkpt lat="48.49811" lon="-2.68973">
        <ele>4</ele>
        <time>2026-01-25T08:46:40Z</time>
      </trkpt>
      <trkpt lat="48.49817" lon="-2.68978">
        <ele>4</ele>
        <time>2026-01-25T08:46:41Z</time>
      </trkpt>
      <trkpt lat="48.49823" lon="-2.68982">
        <ele>4</ele>
        <time>2026-01-25T08:46:42Z</time>
      </trkpt>
      <trkpt lat="48.49829" lon="-2.68988">
        <ele>3.6</ele>
        <time>2026-01-25T08:46:43Z</time>
      </trkpt>
      <trkpt lat="48.49834" lon="-2.68993">
        <ele>3.6</ele>
        <time>2026-01-25T08:46:44Z</time>
      </trkpt>
      <trkpt lat="48.4984" lon="-2.68998">
        <ele>3.6</ele>
        <time>2026-01-25T08:46:45Z</time>
      </trkpt>
      <trkpt lat="48.49846" lon="-2.69004">
        <ele>3.6</ele>
        <time>2026-01-25T08:46:46Z</time>
      </trkpt>
      <trkpt lat="48.49851" lon="-2.69009">
        <ele>3.6</ele>
        <time>2026-01-25T08:46:47Z</time>
      </trkpt>
      <trkpt lat="48.49857" lon="-2.69015">
        <ele>3.6</ele>
        <time>2026-01-25T08:46:48Z</time>
      </trkpt>
      <trkpt lat="48.49862" lon="-2.69022">
        <ele>3.6</ele>
        <time>2026-01-25T08:46:49Z</time>
      </trkpt>
      <trkpt lat="48.49868" lon="-2.69028">
        <ele>3.2</ele>
        <time>2026-01-25T08:46:50Z</time>
      </trkpt>
      <trkpt lat="48.49873" lon="-2.69035">
        <ele>2.8</ele>
        <time>2026-01-25T08:46:51Z</time>
      </trkpt>
      <trkpt lat="48.49879" lon="-2.69041">
        <ele>2.8</ele>
        <time>2026-01-25T08:46:52Z</time>
      </trkpt>
      <trkpt lat="48.49884" lon="-2.69048">
        <ele>2.8</ele>
        <time>2026-01-25T08:46:53Z</time>
      </trkpt>
      <trkpt lat="48.4989" lon="-2.69054">
        <ele>2.8</ele>
        <time>2026-01-25T08:46:54Z</time>
      </trkpt>
      <trkpt lat="48.49895" lon="-2.69061">
        <ele>2.6</ele>
        <time>2026-01-25T08:46:55Z</time>
      </trkpt>
      <trkpt lat="48.49901" lon="-2.69067">
        <ele>2.6</ele>
        <time>2026-01-25T08:46:56Z</time>
      </trkpt>
      <trkpt lat="48.49906" lon="-2.69073">
        <ele>2.6</ele>
        <time>2026-01-25T08:46:57Z</time>
      </trkpt>
      <trkpt lat="48.49911" lon="-2.69079">
        <ele>2.6</ele>
        <time>2026-01-25T08:46:58Z</time>
      </trkpt>
      <trkpt lat="48.49917" lon="-2.69086">
        <ele>3.2</ele>
        <time>2026-01-25T08:46:59Z</time>
      </trkpt>
      <trkpt lat="48.49922" lon="-2.69092">
        <ele>3.2</ele>
        <time>2026-01-25T08:47:00Z</time>
      </trkpt>
      <trkpt lat="48.49927" lon="-2.69099">
        <ele>3.2</ele>
        <time>2026-01-25T08:47:01Z</time>
      </trkpt>
      <trkpt lat="48.49932" lon="-2.69105">
        <ele>3.2</ele>
        <time>2026-01-25T08:47:02Z</time>
      </trkpt>
      <trkpt lat="48.49937" lon="-2.69111">
        <ele>3.2</ele>
        <time>2026-01-25T08:47:03Z</time>
      </trkpt>
      <trkpt lat="48.49943" lon="-2.69117">
        <ele>3.2</ele>
        <time>2026-01-25T08:47:04Z</time>
      </trkpt>
      <trkpt lat="48.49948" lon="-2.69123">
        <ele>3.2</ele>
        <time>2026-01-25T08:47:05Z</time>
      </trkpt>
      <trkpt lat="48.49953" lon="-2.69129">
        <ele>3.2</ele>
        <time>2026-01-25T08:47:06Z</time>
      </trkpt>
      <trkpt lat="48.49958" lon="-2.69135">
        <ele>3.2</ele>
        <time>2026-01-25T08:47:07Z</time>
      </trkpt>
      <trkpt lat="48.49963" lon="-2.69142">
        <ele>3.2</ele>
        <time>2026-01-25T08:47:08Z</time>
      </trkpt>
      <trkpt lat="48.49968" lon="-2.69148">
        <ele>3.2</ele>
        <time>2026-01-25T08:47:09Z</time>
      </trkpt>
      <trkpt lat="48.49972" lon="-2.69155">
        <ele>3.6</ele>
        <time>2026-01-25T08:47:10Z</time>
      </trkpt>
      <trkpt lat="48.49977" lon="-2.69161">
        <ele>3.6</ele>
        <time>2026-01-25T08:47:11Z</time>
      </trkpt>
      <trkpt lat="48.49982" lon="-2.69168">
        <ele>3.6</ele>
        <time>2026-01-25T08:47:12Z</time>
      </trkpt>
      <trkpt lat="48.49986" lon="-2.69174">
        <ele>3.6</ele>
        <time>2026-01-25T08:47:13Z</time>
      </trkpt>
      <trkpt lat="48.49991" lon="-2.69181">
        <ele>3.6</ele>
        <time>2026-01-25T08:47:14Z</time>
      </trkpt>
      <trkpt lat="48.49996" lon="-2.69187">
        <ele>3.6</ele>
        <time>2026-01-25T08:47:15Z</time>
      </trkpt>
      <trkpt lat="48.50001" lon="-2.69192">
        <ele>3.6</ele>
        <time>2026-01-25T08:47:16Z</time>
      </trkpt>
      <trkpt lat="48.50007" lon="-2.69197">
        <ele>3.6</ele>
        <time>2026-01-25T08:47:17Z</time>
      </trkpt>
      <trkpt lat="48.50012" lon="-2.69202">
        <ele>3.6</ele>
        <time>2026-01-25T08:47:18Z</time>
      </trkpt>
      <trkpt lat="48.50017" lon="-2.69207">
        <ele>3.6</ele>
        <time>2026-01-25T08:47:19Z</time>
      </trkpt>
      <trkpt lat="48.50021" lon="-2.69212">
        <ele>3.6</ele>
        <time>2026-01-25T08:47:20Z</time>
      </trkpt>
      <trkpt lat="48.50026" lon="-2.69218">
        <ele>3.6</ele>
        <time>2026-01-25T08:47:21Z</time>
      </trkpt>
      <trkpt lat="48.50031" lon="-2.69223">
        <ele>3.6</ele>
        <time>2026-01-25T08:47:22Z</time>
      </trkpt>
      <trkpt lat="48.50035" lon="-2.69229">
        <ele>3.6</ele>
        <time>2026-01-25T08:47:23Z</time>
      </trkpt>
      <trkpt lat="48.5004" lon="-2.69234">
        <ele>3.6</ele>
        <time>2026-01-25T08:47:24Z</time>
      </trkpt>
      <trkpt lat="48.50045" lon="-2.6924">
        <ele>3.6</ele>
        <time>2026-01-25T08:47:25Z</time>
      </trkpt>
      <trkpt lat="48.50049" lon="-2.69245">
        <ele>3.6</ele>
        <time>2026-01-25T08:47:26Z</time>
      </trkpt>
      <trkpt lat="48.50054" lon="-2.69251">
        <ele>3.6</ele>
        <time>2026-01-25T08:47:27Z</time>
      </trkpt>
      <trkpt lat="48.50058" lon="-2.69256">
        <ele>3.6</ele>
        <time>2026-01-25T08:47:28Z</time>
      </trkpt>
      <trkpt lat="48.50063" lon="-2.69262">
        <ele>3.6</ele>
        <time>2026-01-25T08:47:29Z</time>
      </trkpt>
      <trkpt lat="48.50067" lon="-2.69267">
        <ele>3.6</ele>
        <time>2026-01-25T08:47:30Z</time>
      </trkpt>
      <trkpt lat="48.50072" lon="-2.69273">
        <ele>3.8</ele>
        <time>2026-01-25T08:47:31Z</time>
      </trkpt>
      <trkpt lat="48.50076" lon="-2.69278">
        <ele>3.8</ele>
        <time>2026-01-25T08:47:32Z</time>
      </trkpt>
      <trkpt lat="48.50081" lon="-2.69284">
        <ele>3.8</ele>
        <time>2026-01-25T08:47:33Z</time>
      </trkpt>
      <trkpt lat="48.50085" lon="-2.69289">
        <ele>4.2</ele>
        <time>2026-01-25T08:47:34Z</time>
      </trkpt>
      <trkpt lat="48.5009" lon="-2.69294">
        <ele>4.2</ele>
        <time>2026-01-25T08:47:35Z</time>
      </trkpt>
      <trkpt lat="48.50095" lon="-2.69299">
        <ele>4.2</ele>
        <time>2026-01-25T08:47:36Z</time>
      </trkpt>
      <trkpt lat="48.50099" lon="-2.69305">
        <ele>4.2</ele>
        <time>2026-01-25T08:47:37Z</time>
      </trkpt>
      <trkpt lat="48.50104" lon="-2.6931">
        <ele>4.2</ele>
        <time>2026-01-25T08:47:38Z</time>
      </trkpt>
      <trkpt lat="48.50108" lon="-2.69315">
        <ele>4.2</ele>
        <time>2026-01-25T08:47:39Z</time>
      </trkpt>
      <trkpt lat="48.50112" lon="-2.69321">
        <ele>4.2</ele>
        <time>2026-01-25T08:47:40Z</time>
      </trkpt>
      <trkpt lat="48.50117" lon="-2.69326">
        <ele>4.2</ele>
        <time>2026-01-25T08:47:41Z</time>
      </trkpt>
      <trkpt lat="48.50121" lon="-2.69331">
        <ele>4.2</ele>
        <time>2026-01-25T08:47:42Z</time>
      </trkpt>
      <trkpt lat="48.50126" lon="-2.69337">
        <ele>3.8</ele>
        <time>2026-01-25T08:47:43Z</time>
      </trkpt>
      <trkpt lat="48.50131" lon="-2.69342">
        <ele>3.8</ele>
        <time>2026-01-25T08:47:44Z</time>
      </trkpt>
      <trkpt lat="48.50135" lon="-2.69348">
        <ele>3.8</ele>
        <time>2026-01-25T08:47:45Z</time>
      </trkpt>
      <trkpt lat="48.5014" lon="-2.69353">
        <ele>4</ele>
        <time>2026-01-25T08:47:46Z</time>
      </trkpt>
      <trkpt lat="48.50145" lon="-2.69359">
        <ele>4</ele>
        <time>2026-01-25T08:47:47Z</time>
      </trkpt>
      <trkpt lat="48.50149" lon="-2.69365">
        <ele>4</ele>
        <time>2026-01-25T08:47:48Z</time>
      </trkpt>
      <trkpt lat="48.50154" lon="-2.69371">
        <ele>4</ele>
        <time>2026-01-25T08:47:49Z</time>
      </trkpt>
      <trkpt lat="48.50159" lon="-2.69377">
        <ele>4</ele>
        <time>2026-01-25T08:47:50Z</time>
      </trkpt>
      <trkpt lat="48.50163" lon="-2.69383">
        <ele>4</ele>
        <time>2026-01-25T08:47:51Z</time>
      </trkpt>
      <trkpt lat="48.50168" lon="-2.6939">
        <ele>4</ele>
        <time>2026-01-25T08:47:52Z</time>
      </trkpt>
      <trkpt lat="48.50173" lon="-2.69396">
        <ele>4</ele>
        <time>2026-01-25T08:47:53Z</time>
      </trkpt>
      <trkpt lat="48.50177" lon="-2.69402">
        <ele>4.6</ele>
        <time>2026-01-25T08:47:54Z</time>
      </trkpt>
      <trkpt lat="48.50182" lon="-2.69408">
        <ele>4.2</ele>
        <time>2026-01-25T08:47:55Z</time>
      </trkpt>
      <trkpt lat="48.50186" lon="-2.69414">
        <ele>4.2</ele>
        <time>2026-01-25T08:47:56Z</time>
      </trkpt>
      <trkpt lat="48.50191" lon="-2.6942">
        <ele>4.2</ele>
        <time>2026-01-25T08:47:57Z</time>
      </trkpt>
      <trkpt lat="48.50196" lon="-2.69424">
        <ele>4.6</ele>
        <time>2026-01-25T08:47:58Z</time>
      </trkpt>
      <trkpt lat="48.50201" lon="-2.6943">
        <ele>4.4</ele>
        <time>2026-01-25T08:47:59Z</time>
      </trkpt>
      <trkpt lat="48.50204" lon="-2.69437">
        <ele>4.4</ele>
        <time>2026-01-25T08:48:00Z</time>
      </trkpt>
      <trkpt lat="48.50208" lon="-2.69445">
        <ele>4.4</ele>
        <time>2026-01-25T08:48:01Z</time>
      </trkpt>
      <trkpt lat="48.50212" lon="-2.69451">
        <ele>4.4</ele>
        <time>2026-01-25T08:48:02Z</time>
      </trkpt>
      <trkpt lat="48.50217" lon="-2.69458">
        <ele>4</ele>
        <time>2026-01-25T08:48:03Z</time>
      </trkpt>
      <trkpt lat="48.50221" lon="-2.69465">
        <ele>4</ele>
        <time>2026-01-25T08:48:04Z</time>
      </trkpt>
      <trkpt lat="48.50226" lon="-2.69471">
        <ele>4</ele>
        <time>2026-01-25T08:48:05Z</time>
      </trkpt>
      <trkpt lat="48.50231" lon="-2.69478">
        <ele>3.6</ele>
        <time>2026-01-25T08:48:06Z</time>
      </trkpt>
      <trkpt lat="48.50235" lon="-2.69485">
        <ele>3.6</ele>
        <time>2026-01-25T08:48:07Z</time>
      </trkpt>
      <trkpt lat="48.5024" lon="-2.69491">
        <ele>3.6</ele>
        <time>2026-01-25T08:48:08Z</time>
      </trkpt>
      <trkpt lat="48.50245" lon="-2.69497">
        <ele>3.6</ele>
        <time>2026-01-25T08:48:09Z</time>
      </trkpt>
      <trkpt lat="48.50249" lon="-2.69504">
        <ele>3.6</ele>
        <time>2026-01-25T08:48:10Z</time>
      </trkpt>
      <trkpt lat="48.50254" lon="-2.69511">
        <ele>3.6</ele>
        <time>2026-01-25T08:48:11Z</time>
      </trkpt>
      <trkpt lat="48.50259" lon="-2.69518">
        <ele>3.6</ele>
        <time>2026-01-25T08:48:12Z</time>
      </trkpt>
      <trkpt lat="48.50264" lon="-2.69524">
        <ele>3.6</ele>
        <time>2026-01-25T08:48:13Z</time>
      </trkpt>
      <trkpt lat="48.50268" lon="-2.69531">
        <ele>3.4</ele>
        <time>2026-01-25T08:48:14Z</time>
      </trkpt>
      <trkpt lat="48.50273" lon="-2.69538">
        <ele>3.4</ele>
        <time>2026-01-25T08:48:15Z</time>
      </trkpt>
      <trkpt lat="48.50278" lon="-2.69545">
        <ele>3.4</ele>
        <time>2026-01-25T08:48:16Z</time>
      </trkpt>
      <trkpt lat="48.50282" lon="-2.69552">
        <ele>3.4</ele>
        <time>2026-01-25T08:48:17Z</time>
      </trkpt>
      <trkpt lat="48.50287" lon="-2.69559">
        <ele>3.4</ele>
        <time>2026-01-25T08:48:18Z</time>
      </trkpt>
      <trkpt lat="48.50292" lon="-2.69566">
        <ele>3.6</ele>
        <time>2026-01-25T08:48:19Z</time>
      </trkpt>
      <trkpt lat="48.50296" lon="-2.69572">
        <ele>3.6</ele>
        <time>2026-01-25T08:48:20Z</time>
      </trkpt>
      <trkpt lat="48.50301" lon="-2.69579">
        <ele>3.6</ele>
        <time>2026-01-25T08:48:21Z</time>
      </trkpt>
      <trkpt lat="48.50306" lon="-2.69585">
        <ele>3</ele>
        <time>2026-01-25T08:48:22Z</time>
      </trkpt>
      <trkpt lat="48.50311" lon="-2.69592">
        <ele>3</ele>
        <time>2026-01-25T08:48:23Z</time>
      </trkpt>
      <trkpt lat="48.50315" lon="-2.69599">
        <ele>3</ele>
        <time>2026-01-25T08:48:24Z</time>
      </trkpt>
      <trkpt lat="48.5032" lon="-2.69605">
        <ele>3</ele>
        <time>2026-01-25T08:48:25Z</time>
      </trkpt>
      <trkpt lat="48.50324" lon="-2.69612">
        <ele>3</ele>
        <time>2026-01-25T08:48:26Z</time>
      </trkpt>
      <trkpt lat="48.50329" lon="-2.69619">
        <ele>3.2</ele>
        <time>2026-01-25T08:48:27Z</time>
      </trkpt>
      <trkpt lat="48.50333" lon="-2.69625">
        <ele>3.2</ele>
        <time>2026-01-25T08:48:28Z</time>
      </trkpt>
      <trkpt lat="48.50338" lon="-2.69632">
        <ele>3.2</ele>
        <time>2026-01-25T08:48:29Z</time>
      </trkpt>
      <trkpt lat="48.50342" lon="-2.69638">
        <ele>3.2</ele>
        <time>2026-01-25T08:48:30Z</time>
      </trkpt>
      <trkpt lat="48.50347" lon="-2.69645">
        <ele>3.6</ele>
        <time>2026-01-25T08:48:31Z</time>
      </trkpt>
      <trkpt lat="48.50352" lon="-2.69651">
        <ele>3.6</ele>
        <time>2026-01-25T08:48:32Z</time>
      </trkpt>
      <trkpt lat="48.50356" lon="-2.69657">
        <ele>3.6</ele>
        <time>2026-01-25T08:48:33Z</time>
      </trkpt>
      <trkpt lat="48.50361" lon="-2.69664">
        <ele>3.6</ele>
        <time>2026-01-25T08:48:34Z</time>
      </trkpt>
      <trkpt lat="48.50365" lon="-2.6967">
        <ele>3.6</ele>
        <time>2026-01-25T08:48:35Z</time>
      </trkpt>
      <trkpt lat="48.5037" lon="-2.69676">
        <ele>3.6</ele>
        <time>2026-01-25T08:48:36Z</time>
      </trkpt>
      <trkpt lat="48.50374" lon="-2.69681">
        <ele>3.6</ele>
        <time>2026-01-25T08:48:37Z</time>
      </trkpt>
      <trkpt lat="48.50379" lon="-2.69687">
        <ele>3.8</ele>
        <time>2026-01-25T08:48:38Z</time>
      </trkpt>
      <trkpt lat="48.50383" lon="-2.69693">
        <ele>4.2</ele>
        <time>2026-01-25T08:48:39Z</time>
      </trkpt>
      <trkpt lat="48.50388" lon="-2.69698">
        <ele>4.2</ele>
        <time>2026-01-25T08:48:40Z</time>
      </trkpt>
      <trkpt lat="48.50392" lon="-2.69704">
        <ele>4.2</ele>
        <time>2026-01-25T08:48:41Z</time>
      </trkpt>
      <trkpt lat="48.50397" lon="-2.6971">
        <ele>4.2</ele>
        <time>2026-01-25T08:48:42Z</time>
      </trkpt>
      <trkpt lat="48.50401" lon="-2.69716">
        <ele>4</ele>
        <time>2026-01-25T08:48:43Z</time>
      </trkpt>
      <trkpt lat="48.50406" lon="-2.69721">
        <ele>4</ele>
        <time>2026-01-25T08:48:44Z</time>
      </trkpt>
      <trkpt lat="48.5041" lon="-2.69727">
        <ele>4</ele>
        <time>2026-01-25T08:48:45Z</time>
      </trkpt>
      <trkpt lat="48.50415" lon="-2.69732">
        <ele>4</ele>
        <time>2026-01-25T08:48:46Z</time>
      </trkpt>
      <trkpt lat="48.50419" lon="-2.69737">
        <ele>4.6</ele>
        <time>2026-01-25T08:48:47Z</time>
      </trkpt>
      <trkpt lat="48.50424" lon="-2.69742">
        <ele>4.6</ele>
        <time>2026-01-25T08:48:48Z</time>
      </trkpt>
      <trkpt lat="48.50428" lon="-2.69747">
        <ele>4.6</ele>
        <time>2026-01-25T08:48:49Z</time>
      </trkpt>
      <trkpt lat="48.50432" lon="-2.69753">
        <ele>4.6</ele>
        <time>2026-01-25T08:48:50Z</time>
      </trkpt>
      <trkpt lat="48.50434" lon="-2.6976">
        <ele>5</ele>
        <time>2026-01-25T08:48:51Z</time>
      </trkpt>
      <trkpt lat="48.50434" lon="-2.69767">
        <ele>5</ele>
        <time>2026-01-25T08:48:52Z</time>
      </trkpt>
      <trkpt lat="48.50432" lon="-2.69775">
        <ele>5</ele>
        <time>2026-01-25T08:48:53Z</time>
      </trkpt>
      <trkpt lat="48.5043" lon="-2.69782">
        <ele>4.6</ele>
        <time>2026-01-25T08:48:54Z</time>
      </trkpt>
      <trkpt lat="48.50428" lon="-2.69788">
        <ele>4.6</ele>
        <time>2026-01-25T08:48:55Z</time>
      </trkpt>
      <trkpt lat="48.50426" lon="-2.69795">
        <ele>4.6</ele>
        <time>2026-01-25T08:48:56Z</time>
      </trkpt>
      <trkpt lat="48.50425" lon="-2.69802">
        <ele>4.6</ele>
        <time>2026-01-25T08:48:57Z</time>
      </trkpt>
      <trkpt lat="48.50423" lon="-2.69809">
        <ele>4.6</ele>
        <time>2026-01-25T08:48:58Z</time>
      </trkpt>
      <trkpt lat="48.50421" lon="-2.69815">
        <ele>5.2</ele>
        <time>2026-01-25T08:48:59Z</time>
      </trkpt>
      <trkpt lat="48.50419" lon="-2.69822">
        <ele>5.2</ele>
        <time>2026-01-25T08:49:00Z</time>
      </trkpt>
      <trkpt lat="48.50417" lon="-2.69829">
        <ele>5.2</ele>
        <time>2026-01-25T08:49:01Z</time>
      </trkpt>
      <trkpt lat="48.50414" lon="-2.69835">
        <ele>5.6</ele>
        <time>2026-01-25T08:49:02Z</time>
      </trkpt>
      <trkpt lat="48.50412" lon="-2.69841">
        <ele>5.4</ele>
        <time>2026-01-25T08:49:03Z</time>
      </trkpt>
      <trkpt lat="48.50409" lon="-2.69847">
        <ele>5.4</ele>
        <time>2026-01-25T08:49:04Z</time>
      </trkpt>
      <trkpt lat="48.50407" lon="-2.69852">
        <ele>5.4</ele>
        <time>2026-01-25T08:49:05Z</time>
      </trkpt>
      <trkpt lat="48.50404" lon="-2.69857">
        <ele>6.4</ele>
        <time>2026-01-25T08:49:06Z</time>
      </trkpt>
      <trkpt lat="48.50402" lon="-2.69862">
        <ele>7</ele>
        <time>2026-01-25T08:49:07Z</time>
      </trkpt>
      <trkpt lat="48.504" lon="-2.69867">
        <ele>7</ele>
        <time>2026-01-25T08:49:08Z</time>
      </trkpt>
      <trkpt lat="48.50398" lon="-2.69872">
        <ele>7</ele>
        <time>2026-01-25T08:49:09Z</time>
      </trkpt>
      <trkpt lat="48.50395" lon="-2.69877">
        <ele>7</ele>
        <time>2026-01-25T08:49:10Z</time>
      </trkpt>
      <trkpt lat="48.50393" lon="-2.69882">
        <ele>7.6</ele>
        <time>2026-01-25T08:49:11Z</time>
      </trkpt>
      <trkpt lat="48.50391" lon="-2.69887">
        <ele>7.6</ele>
        <time>2026-01-25T08:49:12Z</time>
      </trkpt>
      <trkpt lat="48.50389" lon="-2.69893">
        <ele>7.6</ele>
        <time>2026-01-25T08:49:13Z</time>
      </trkpt>
      <trkpt lat="48.50387" lon="-2.69898">
        <ele>7.6</ele>
        <time>2026-01-25T08:49:14Z</time>
      </trkpt>
      <trkpt lat="48.50385" lon="-2.69903">
        <ele>7.8</ele>
        <time>2026-01-25T08:49:15Z</time>
      </trkpt>
      <trkpt lat="48.50383" lon="-2.69908">
        <ele>7.8</ele>
        <time>2026-01-25T08:49:16Z</time>
      </trkpt>
      <trkpt lat="48.50382" lon="-2.69913">
        <ele>7.8</ele>
        <time>2026-01-25T08:49:17Z</time>
      </trkpt>
      <trkpt lat="48.5038" lon="-2.69918">
        <ele>8.4</ele>
        <time>2026-01-25T08:49:18Z</time>
      </trkpt>
      <trkpt lat="48.5038" lon="-2.69923">
        <ele>8.6</ele>
        <time>2026-01-25T08:49:19Z</time>
      </trkpt>
      <trkpt lat="48.50379" lon="-2.69928">
        <ele>8.6</ele>
        <time>2026-01-25T08:49:20Z</time>
      </trkpt>
      <trkpt lat="48.50378" lon="-2.69933">
        <ele>8.6</ele>
        <time>2026-01-25T08:49:21Z</time>
      </trkpt>
      <trkpt lat="48.50378" lon="-2.69938">
        <ele>9.6</ele>
        <time>2026-01-25T08:49:22Z</time>
      </trkpt>
      <trkpt lat="48.50378" lon="-2.69942">
        <ele>9.8</ele>
        <time>2026-01-25T08:49:23Z</time>
      </trkpt>
      <trkpt lat="48.50379" lon="-2.69947">
        <ele>9.8</ele>
        <time>2026-01-25T08:49:24Z</time>
      </trkpt>
      <trkpt lat="48.50379" lon="-2.69952">
        <ele>9.8</ele>
        <time>2026-01-25T08:49:25Z</time>
      </trkpt>
      <trkpt lat="48.5038" lon="-2.69956">
        <ele>9.8</ele>
        <time>2026-01-25T08:49:26Z</time>
      </trkpt>
      <trkpt lat="48.50382" lon="-2.69961">
        <ele>10.6</ele>
        <time>2026-01-25T08:49:27Z</time>
      </trkpt>
      <trkpt lat="48.50383" lon="-2.69965">
        <ele>10.6</ele>
        <time>2026-01-25T08:49:28Z</time>
      </trkpt>
      <trkpt lat="48.50385" lon="-2.69969">
        <ele>10.6</ele>
        <time>2026-01-25T08:49:29Z</time>
      </trkpt>
      <trkpt lat="48.50388" lon="-2.69973">
        <ele>11.2</ele>
        <time>2026-01-25T08:49:30Z</time>
      </trkpt>
      <trkpt lat="48.5039" lon="-2.69977">
        <ele>11.6</ele>
        <time>2026-01-25T08:49:31Z</time>
      </trkpt>
      <trkpt lat="48.50393" lon="-2.6998">
        <ele>11.6</ele>
        <time>2026-01-25T08:49:32Z</time>
      </trkpt>
      <trkpt lat="48.50395" lon="-2.69983">
        <ele>11.6</ele>
        <time>2026-01-25T08:49:33Z</time>
      </trkpt>
      <trkpt lat="48.50398" lon="-2.69986">
        <ele>12.2</ele>
        <time>2026-01-25T08:49:34Z</time>
      </trkpt>
      <trkpt lat="48.50401" lon="-2.69989">
        <ele>12.2</ele>
        <time>2026-01-25T08:49:35Z</time>
      </trkpt>
      <trkpt lat="48.50404" lon="-2.69992">
        <ele>12.2</ele>
        <time>2026-01-25T08:49:36Z</time>
      </trkpt>
      <trkpt lat="48.50407" lon="-2.69996">
        <ele>12.2</ele>
        <time>2026-01-25T08:49:37Z</time>
      </trkpt>
      <trkpt lat="48.5041" lon="-2.69999">
        <ele>12.6</ele>
        <time>2026-01-25T08:49:38Z</time>
      </trkpt>
      <trkpt lat="48.50414" lon="-2.70002">
        <ele>12.8</ele>
        <time>2026-01-25T08:49:39Z</time>
      </trkpt>
      <trkpt lat="48.50417" lon="-2.70005">
        <ele>12.8</ele>
        <time>2026-01-25T08:49:40Z</time>
      </trkpt>
      <trkpt lat="48.5042" lon="-2.70008">
        <ele>12.8</ele>
        <time>2026-01-25T08:49:41Z</time>
      </trkpt>
      <trkpt lat="48.50423" lon="-2.70011">
        <ele>12.8</ele>
        <time>2026-01-25T08:49:42Z</time>
      </trkpt>
      <trkpt lat="48.50427" lon="-2.70015">
        <ele>12.4</ele>
        <time>2026-01-25T08:49:43Z</time>
      </trkpt>
      <trkpt lat="48.5043" lon="-2.70018">
        <ele>12.4</ele>
        <time>2026-01-25T08:49:44Z</time>
      </trkpt>
      <trkpt lat="48.50433" lon="-2.70021">
        <ele>12.4</ele>
        <time>2026-01-25T08:49:45Z</time>
      </trkpt>
      <trkpt lat="48.50437" lon="-2.70024">
        <ele>13</ele>
        <time>2026-01-25T08:49:46Z</time>
      </trkpt>
      <trkpt lat="48.5044" lon="-2.70027">
        <ele>13.6</ele>
        <time>2026-01-25T08:49:47Z</time>
      </trkpt>
      <trkpt lat="48.50444" lon="-2.70029">
        <ele>13.6</ele>
        <time>2026-01-25T08:49:48Z</time>
      </trkpt>
      <trkpt lat="48.50447" lon="-2.70032">
        <ele>13.6</ele>
        <time>2026-01-25T08:49:49Z</time>
      </trkpt>
      <trkpt lat="48.5045" lon="-2.70035">
        <ele>13.6</ele>
        <time>2026-01-25T08:49:50Z</time>
      </trkpt>
      <trkpt lat="48.50454" lon="-2.70038">
        <ele>14.4</ele>
        <time>2026-01-25T08:49:51Z</time>
      </trkpt>
      <trkpt lat="48.50457" lon="-2.70041">
        <ele>14.4</ele>
        <time>2026-01-25T08:49:52Z</time>
      </trkpt>
      <trkpt lat="48.50461" lon="-2.70044">
        <ele>14.4</ele>
        <time>2026-01-25T08:49:53Z</time>
      </trkpt>
      <trkpt lat="48.50464" lon="-2.70046">
        <ele>14.4</ele>
        <time>2026-01-25T08:49:54Z</time>
      </trkpt>
      <trkpt lat="48.50468" lon="-2.70049">
        <ele>14.4</ele>
        <time>2026-01-25T08:49:55Z</time>
      </trkpt>
      <trkpt lat="48.50471" lon="-2.70051">
        <ele>14.4</ele>
        <time>2026-01-25T08:49:56Z</time>
      </trkpt>
      <trkpt lat="48.50475" lon="-2.70053">
        <ele>14.4</ele>
        <time>2026-01-25T08:49:57Z</time>
      </trkpt>
      <trkpt lat="48.50478" lon="-2.70056">
        <ele>14.4</ele>
        <time>2026-01-25T08:49:58Z</time>
      </trkpt>
      <trkpt lat="48.50481" lon="-2.70058">
        <ele>14.8</ele>
        <time>2026-01-25T08:49:59Z</time>
      </trkpt>
      <trkpt lat="48.50485" lon="-2.70061">
        <ele>14.8</ele>
        <time>2026-01-25T08:50:00Z</time>
      </trkpt>
      <trkpt lat="48.50489" lon="-2.70063">
        <ele>14.8</ele>
        <time>2026-01-25T08:50:01Z</time>
      </trkpt>
      <trkpt lat="48.50492" lon="-2.70066">
        <ele>14.8</ele>
        <time>2026-01-25T08:50:02Z</time>
      </trkpt>
      <trkpt lat="48.50496" lon="-2.70068">
        <ele>15.2</ele>
        <time>2026-01-25T08:50:03Z</time>
      </trkpt>
      <trkpt lat="48.50499" lon="-2.70069">
        <ele>15.2</ele>
        <time>2026-01-25T08:50:04Z</time>
      </trkpt>
      <trkpt lat="48.50503" lon="-2.70071">
        <ele>15.2</ele>
        <time>2026-01-25T08:50:05Z</time>
      </trkpt>
      <trkpt lat="48.50506" lon="-2.70074">
        <ele>16.2</ele>
        <time>2026-01-25T08:50:06Z</time>
      </trkpt>
      <trkpt lat="48.50509" lon="-2.70076">
        <ele>16.8</ele>
        <time>2026-01-25T08:50:07Z</time>
      </trkpt>
      <trkpt lat="48.50512" lon="-2.70078">
        <ele>16.8</ele>
        <time>2026-01-25T08:50:08Z</time>
      </trkpt>
      <trkpt lat="48.50516" lon="-2.7008">
        <ele>16.8</ele>
        <time>2026-01-25T08:50:09Z</time>
      </trkpt>
      <trkpt lat="48.50519" lon="-2.70082">
        <ele>16.8</ele>
        <time>2026-01-25T08:50:10Z</time>
      </trkpt>
      <trkpt lat="48.50523" lon="-2.70084">
        <ele>17.4</ele>
        <time>2026-01-25T08:50:11Z</time>
      </trkpt>
      <trkpt lat="48.50526" lon="-2.70086">
        <ele>17.4</ele>
        <time>2026-01-25T08:50:12Z</time>
      </trkpt>
      <trkpt lat="48.50529" lon="-2.70088">
        <ele>17.4</ele>
        <time>2026-01-25T08:50:13Z</time>
      </trkpt>
      <trkpt lat="48.50533" lon="-2.7009">
        <ele>18.2</ele>
        <time>2026-01-25T08:50:14Z</time>
      </trkpt>
      <trkpt lat="48.50536" lon="-2.70091">
        <ele>18.6</ele>
        <time>2026-01-25T08:50:15Z</time>
      </trkpt>
      <trkpt lat="48.5054" lon="-2.70093">
        <ele>18.6</ele>
        <time>2026-01-25T08:50:16Z</time>
      </trkpt>
      <trkpt lat="48.50543" lon="-2.70095">
        <ele>18.6</ele>
        <time>2026-01-25T08:50:17Z</time>
      </trkpt>
      <trkpt lat="48.50546" lon="-2.70097">
        <ele>18.6</ele>
        <time>2026-01-25T08:50:18Z</time>
      </trkpt>
      <trkpt lat="48.5055" lon="-2.70099">
        <ele>19.2</ele>
        <time>2026-01-25T08:50:19Z</time>
      </trkpt>
      <trkpt lat="48.50553" lon="-2.70102">
        <ele>19.2</ele>
        <time>2026-01-25T08:50:20Z</time>
      </trkpt>
      <trkpt lat="48.50557" lon="-2.70104">
        <ele>19.2</ele>
        <time>2026-01-25T08:50:21Z</time>
      </trkpt>
      <trkpt lat="48.50561" lon="-2.70107">
        <ele>19.2</ele>
        <time>2026-01-25T08:50:22Z</time>
      </trkpt>
      <trkpt lat="48.50564" lon="-2.70109">
        <ele>19.8</ele>
        <time>2026-01-25T08:50:23Z</time>
      </trkpt>
      <trkpt lat="48.50568" lon="-2.70111">
        <ele>19.8</ele>
        <time>2026-01-25T08:50:24Z</time>
      </trkpt>
      <trkpt lat="48.50572" lon="-2.70114">
        <ele>19.8</ele>
        <time>2026-01-25T08:50:25Z</time>
      </trkpt>
      <trkpt lat="48.50576" lon="-2.70115">
        <ele>20.8</ele>
        <time>2026-01-25T08:50:26Z</time>
      </trkpt>
      <trkpt lat="48.50579" lon="-2.70117">
        <ele>20.8</ele>
        <time>2026-01-25T08:50:27Z</time>
      </trkpt>
      <trkpt lat="48.50582" lon="-2.70118">
        <ele>20.8</ele>
        <time>2026-01-25T08:50:28Z</time>
      </trkpt>
      <trkpt lat="48.50585" lon="-2.70119">
        <ele>20.8</ele>
        <time>2026-01-25T08:50:29Z</time>
      </trkpt>
      <trkpt lat="48.50588" lon="-2.70119">
        <ele>21.8</ele>
        <time>2026-01-25T08:50:30Z</time>
      </trkpt>
      <trkpt lat="48.5059" lon="-2.70119">
        <ele>21.8</ele>
        <time>2026-01-25T08:50:31Z</time>
      </trkpt>
      <trkpt lat="48.50593" lon="-2.7012">
        <ele>21.8</ele>
        <time>2026-01-25T08:50:32Z</time>
      </trkpt>
      <trkpt lat="48.50597" lon="-2.7012">
        <ele>21.8</ele>
        <time>2026-01-25T08:50:33Z</time>
      </trkpt>
      <trkpt lat="48.506" lon="-2.7012">
        <ele>22.6</ele>
        <time>2026-01-25T08:50:34Z</time>
      </trkpt>
      <trkpt lat="48.50603" lon="-2.70121">
        <ele>23</ele>
        <time>2026-01-25T08:50:35Z</time>
      </trkpt>
      <trkpt lat="48.50606" lon="-2.70122">
        <ele>23</ele>
        <time>2026-01-25T08:50:36Z</time>
      </trkpt>
      <trkpt lat="48.50609" lon="-2.70123">
        <ele>23</ele>
        <time>2026-01-25T08:50:37Z</time>
      </trkpt>
      <trkpt lat="48.50612" lon="-2.70124">
        <ele>24</ele>
        <time>2026-01-25T08:50:38Z</time>
      </trkpt>
      <trkpt lat="48.50615" lon="-2.70125">
        <ele>24.2</ele>
        <time>2026-01-25T08:50:39Z</time>
      </trkpt>
      <trkpt lat="48.50618" lon="-2.70126">
        <ele>24.2</ele>
        <time>2026-01-25T08:50:40Z</time>
      </trkpt>
      <trkpt lat="48.50621" lon="-2.70127">
        <ele>24.2</ele>
        <time>2026-01-25T08:50:41Z</time>
      </trkpt>
      <trkpt lat="48.50624" lon="-2.70129">
        <ele>24.8</ele>
        <time>2026-01-25T08:50:42Z</time>
      </trkpt>
      <trkpt lat="48.50627" lon="-2.7013">
        <ele>25</ele>
        <time>2026-01-25T08:50:43Z</time>
      </trkpt>
      <trkpt lat="48.50629" lon="-2.70131">
        <ele>25</ele>
        <time>2026-01-25T08:50:44Z</time>
      </trkpt>
      <trkpt lat="48.50632" lon="-2.70132">
        <ele>25</ele>
        <time>2026-01-25T08:50:45Z</time>
      </trkpt>
      <trkpt lat="48.50634" lon="-2.70133">
        <ele>25.8</ele>
        <time>2026-01-25T08:50:46Z</time>
      </trkpt>
      <trkpt lat="48.50637" lon="-2.70135">
        <ele>26.4</ele>
        <time>2026-01-25T08:50:47Z</time>
      </trkpt>
      <trkpt lat="48.50639" lon="-2.70136">
        <ele>26.4</ele>
        <time>2026-01-25T08:50:48Z</time>
      </trkpt>
      <trkpt lat="48.50642" lon="-2.70138">
        <ele>26.4</ele>
        <time>2026-01-25T08:50:49Z</time>
      </trkpt>
      <trkpt lat="48.50644" lon="-2.7014">
        <ele>27.2</ele>
        <time>2026-01-25T08:50:50Z</time>
      </trkpt>
      <trkpt lat="48.50646" lon="-2.70141">
        <ele>27.8</ele>
        <time>2026-01-25T08:50:51Z</time>
      </trkpt>
      <trkpt lat="48.50649" lon="-2.70143">
        <ele>27.8</ele>
        <time>2026-01-25T08:50:52Z</time>
      </trkpt>
      <trkpt lat="48.50651" lon="-2.70145">
        <ele>27.8</ele>
        <time>2026-01-25T08:50:53Z</time>
      </trkpt>
      <trkpt lat="48.50653" lon="-2.70146">
        <ele>28.4</ele>
        <time>2026-01-25T08:50:54Z</time>
      </trkpt>
      <trkpt lat="48.50655" lon="-2.70148">
        <ele>28.6</ele>
        <time>2026-01-25T08:50:55Z</time>
      </trkpt>
      <trkpt lat="48.50658" lon="-2.7015">
        <ele>28.6</ele>
        <time>2026-01-25T08:50:56Z</time>
      </trkpt>
      <trkpt lat="48.5066" lon="-2.70152">
        <ele>28.6</ele>
        <time>2026-01-25T08:50:57Z</time>
      </trkpt>
      <trkpt lat="48.50662" lon="-2.70154">
        <ele>29.4</ele>
        <time>2026-01-25T08:50:58Z</time>
      </trkpt>
      <trkpt lat="48.50664" lon="-2.70156">
        <ele>30</ele>
        <time>2026-01-25T08:50:59Z</time>
      </trkpt>
      <trkpt lat="48.50666" lon="-2.70157">
        <ele>30</ele>
        <time>2026-01-25T08:51:00Z</time>
      </trkpt>
      <trkpt lat="48.50668" lon="-2.7016">
        <ele>30</ele>
        <time>2026-01-25T08:51:01Z</time>
      </trkpt>
      <trkpt lat="48.5067" lon="-2.70162">
        <ele>30.8</ele>
        <time>2026-01-25T08:51:02Z</time>
      </trkpt>
      <trkpt lat="48.50672" lon="-2.70165">
        <ele>31.4</ele>
        <time>2026-01-25T08:51:03Z</time>
      </trkpt>
      <trkpt lat="48.50674" lon="-2.70167">
        <ele>31.4</ele>
        <time>2026-01-25T08:51:04Z</time>
      </trkpt>
      <trkpt lat="48.50676" lon="-2.70169">
        <ele>31.4</ele>
        <time>2026-01-25T08:51:05Z</time>
      </trkpt>
      <trkpt lat="48.50678" lon="-2.70172">
        <ele>32.2</ele>
        <time>2026-01-25T08:51:06Z</time>
      </trkpt>
      <trkpt lat="48.50679" lon="-2.70175">
        <ele>32.4</ele>
        <time>2026-01-25T08:51:07Z</time>
      </trkpt>
      <trkpt lat="48.50681" lon="-2.70178">
        <ele>32.4</ele>
        <time>2026-01-25T08:51:08Z</time>
      </trkpt>
      <trkpt lat="48.50682" lon="-2.70181">
        <ele>32.4</ele>
        <time>2026-01-25T08:51:09Z</time>
      </trkpt>
      <trkpt lat="48.50684" lon="-2.70184">
        <ele>33.4</ele>
        <time>2026-01-25T08:51:10Z</time>
      </trkpt>
      <trkpt lat="48.50685" lon="-2.70186">
        <ele>33.6</ele>
        <time>2026-01-25T08:51:11Z</time>
      </trkpt>
      <trkpt lat="48.50686" lon="-2.70189">
        <ele>33.6</ele>
        <time>2026-01-25T08:51:12Z</time>
      </trkpt>
      <trkpt lat="48.50687" lon="-2.70193">
        <ele>33.6</ele>
        <time>2026-01-25T08:51:13Z</time>
      </trkpt>
      <trkpt lat="48.50688" lon="-2.70196">
        <ele>34.4</ele>
        <time>2026-01-25T08:51:14Z</time>
      </trkpt>
      <trkpt lat="48.50689" lon="-2.70199">
        <ele>35</ele>
        <time>2026-01-25T08:51:15Z</time>
      </trkpt>
      <trkpt lat="48.5069" lon="-2.70202">
        <ele>35</ele>
        <time>2026-01-25T08:51:16Z</time>
      </trkpt>
      <trkpt lat="48.50691" lon="-2.70205">
        <ele>35</ele>
        <time>2026-01-25T08:51:17Z</time>
      </trkpt>
      <trkpt lat="48.50692" lon="-2.70208">
        <ele>35</ele>
        <time>2026-01-25T08:51:18Z</time>
      </trkpt>
      <trkpt lat="48.50692" lon="-2.70211">
        <ele>35.6</ele>
        <time>2026-01-25T08:51:19Z</time>
      </trkpt>
      <trkpt lat="48.50693" lon="-2.70215">
        <ele>35.6</ele>
        <time>2026-01-25T08:51:20Z</time>
      </trkpt>
      <trkpt lat="48.50693" lon="-2.70218">
        <ele>35.6</ele>
        <time>2026-01-25T08:51:21Z</time>
      </trkpt>
      <trkpt lat="48.50693" lon="-2.70221">
        <ele>36.2</ele>
        <time>2026-01-25T08:51:22Z</time>
      </trkpt>
      <trkpt lat="48.50693" lon="-2.70225">
        <ele>36.6</ele>
        <time>2026-01-25T08:51:23Z</time>
      </trkpt>
      <trkpt lat="48.50694" lon="-2.70228">
        <ele>36.6</ele>
        <time>2026-01-25T08:51:24Z</time>
      </trkpt>
      <trkpt lat="48.50693" lon="-2.70231">
        <ele>36.6</ele>
        <time>2026-01-25T08:51:25Z</time>
      </trkpt>
      <trkpt lat="48.50693" lon="-2.70235">
        <ele>37.2</ele>
        <time>2026-01-25T08:51:26Z</time>
      </trkpt>
      <trkpt lat="48.50693" lon="-2.70238">
        <ele>37.4</ele>
        <time>2026-01-25T08:51:27Z</time>
      </trkpt>
      <trkpt lat="48.50692" lon="-2.70242">
        <ele>37.4</ele>
        <time>2026-01-25T08:51:28Z</time>
      </trkpt>
      <trkpt lat="48.50692" lon="-2.70245">
        <ele>37.4</ele>
        <time>2026-01-25T08:51:29Z</time>
      </trkpt>
      <trkpt lat="48.50691" lon="-2.70248">
        <ele>38.4</ele>
        <time>2026-01-25T08:51:30Z</time>
      </trkpt>
      <trkpt lat="48.5069" lon="-2.70252">
        <ele>38.4</ele>
        <time>2026-01-25T08:51:31Z</time>
      </trkpt>
      <trkpt lat="48.50689" lon="-2.70254">
        <ele>38.4</ele>
        <time>2026-01-25T08:51:32Z</time>
      </trkpt>
      <trkpt lat="48.50688" lon="-2.70257">
        <ele>38.4</ele>
        <time>2026-01-25T08:51:33Z</time>
      </trkpt>
      <trkpt lat="48.50687" lon="-2.7026">
        <ele>39.4</ele>
        <time>2026-01-25T08:51:34Z</time>
      </trkpt>
      <trkpt lat="48.50686" lon="-2.70263">
        <ele>39.2</ele>
        <time>2026-01-25T08:51:35Z</time>
      </trkpt>
      <trkpt lat="48.50685" lon="-2.70265">
        <ele>39.2</ele>
        <time>2026-01-25T08:51:36Z</time>
      </trkpt>
      <trkpt lat="48.50683" lon="-2.70268">
        <ele>39.2</ele>
        <time>2026-01-25T08:51:37Z</time>
      </trkpt>
      <trkpt lat="48.50682" lon="-2.70271">
        <ele>39.8</ele>
        <time>2026-01-25T08:51:38Z</time>
      </trkpt>
      <trkpt lat="48.5068" lon="-2.70273">
        <ele>40.2</ele>
        <time>2026-01-25T08:51:39Z</time>
      </trkpt>
      <trkpt lat="48.50679" lon="-2.70276">
        <ele>40.2</ele>
        <time>2026-01-25T08:51:40Z</time>
      </trkpt>
      <trkpt lat="48.50677" lon="-2.70278">
        <ele>40.2</ele>
        <time>2026-01-25T08:51:41Z</time>
      </trkpt>
      <trkpt lat="48.50675" lon="-2.7028">
        <ele>41.2</ele>
        <time>2026-01-25T08:51:42Z</time>
      </trkpt>
      <trkpt lat="48.50673" lon="-2.70282">
        <ele>41.2</ele>
        <time>2026-01-25T08:51:43Z</time>
      </trkpt>
      <trkpt lat="48.50672" lon="-2.70285">
        <ele>41.2</ele>
        <time>2026-01-25T08:51:44Z</time>
      </trkpt>
      <trkpt lat="48.50669" lon="-2.70287">
        <ele>41.2</ele>
        <time>2026-01-25T08:51:45Z</time>
      </trkpt>
      <trkpt lat="48.50667" lon="-2.70289">
        <ele>41.4</ele>
        <time>2026-01-25T08:51:46Z</time>
      </trkpt>
      <trkpt lat="48.50665" lon="-2.70291">
        <ele>42.4</ele>
        <time>2026-01-25T08:51:47Z</time>
      </trkpt>
      <trkpt lat="48.50663" lon="-2.70293">
        <ele>42.4</ele>
        <time>2026-01-25T08:51:48Z</time>
      </trkpt>
      <trkpt lat="48.50661" lon="-2.70295">
        <ele>42.4</ele>
        <time>2026-01-25T08:51:49Z</time>
      </trkpt>
      <trkpt lat="48.50659" lon="-2.70296">
        <ele>42.4</ele>
        <time>2026-01-25T08:51:50Z</time>
      </trkpt>
      <trkpt lat="48.50657" lon="-2.70298">
        <ele>42.8</ele>
        <time>2026-01-25T08:51:51Z</time>
      </trkpt>
      <trkpt lat="48.50655" lon="-2.70301">
        <ele>42.8</ele>
        <time>2026-01-25T08:51:52Z</time>
      </trkpt>
      <trkpt lat="48.50653" lon="-2.70302">
        <ele>42.8</ele>
        <time>2026-01-25T08:51:53Z</time>
      </trkpt>
      <trkpt lat="48.50651" lon="-2.70305">
        <ele>43.8</ele>
        <time>2026-01-25T08:51:54Z</time>
      </trkpt>
      <trkpt lat="48.50649" lon="-2.70307">
        <ele>44</ele>
        <time>2026-01-25T08:51:55Z</time>
      </trkpt>
      <trkpt lat="48.50647" lon="-2.70309">
        <ele>44</ele>
        <time>2026-01-25T08:51:56Z</time>
      </trkpt>
      <trkpt lat="48.50645" lon="-2.70311">
        <ele>44</ele>
        <time>2026-01-25T08:51:57Z</time>
      </trkpt>
      <trkpt lat="48.50643" lon="-2.70313">
        <ele>44.2</ele>
        <time>2026-01-25T08:51:58Z</time>
      </trkpt>
      <trkpt lat="48.50641" lon="-2.70315">
        <ele>44.8</ele>
        <time>2026-01-25T08:51:59Z</time>
      </trkpt>
      <trkpt lat="48.50639" lon="-2.70317">
        <ele>44.8</ele>
        <time>2026-01-25T08:52:00Z</time>
      </trkpt>
      <trkpt lat="48.50637" lon="-2.70319">
        <ele>44.8</ele>
        <time>2026-01-25T08:52:01Z</time>
      </trkpt>
      <trkpt lat="48.50635" lon="-2.70321">
        <ele>45.4</ele>
        <time>2026-01-25T08:52:02Z</time>
      </trkpt>
      <trkpt lat="48.50633" lon="-2.70323">
        <ele>45.6</ele>
        <time>2026-01-25T08:52:03Z</time>
      </trkpt>
      <trkpt lat="48.50631" lon="-2.70325">
        <ele>45.6</ele>
        <time>2026-01-25T08:52:04Z</time>
      </trkpt>
      <trkpt lat="48.50629" lon="-2.70327">
        <ele>45.6</ele>
        <time>2026-01-25T08:52:05Z</time>
      </trkpt>
      <trkpt lat="48.50627" lon="-2.70329">
        <ele>46</ele>
        <time>2026-01-25T08:52:06Z</time>
      </trkpt>
      <trkpt lat="48.50625" lon="-2.70331">
        <ele>46.8</ele>
        <time>2026-01-25T08:52:07Z</time>
      </trkpt>
      <trkpt lat="48.50623" lon="-2.70333">
        <ele>46.8</ele>
        <time>2026-01-25T08:52:08Z</time>
      </trkpt>
      <trkpt lat="48.50621" lon="-2.70335">
        <ele>46.8</ele>
        <time>2026-01-25T08:52:09Z</time>
      </trkpt>
      <trkpt lat="48.50619" lon="-2.70337">
        <ele>46.8</ele>
        <time>2026-01-25T08:52:10Z</time>
      </trkpt>
      <trkpt lat="48.50617" lon="-2.70339">
        <ele>47.4</ele>
        <time>2026-01-25T08:52:11Z</time>
      </trkpt>
      <trkpt lat="48.50615" lon="-2.70341">
        <ele>47.4</ele>
        <time>2026-01-25T08:52:12Z</time>
      </trkpt>
      <trkpt lat="48.50612" lon="-2.70343">
        <ele>47.4</ele>
        <time>2026-01-25T08:52:13Z</time>
      </trkpt>
      <trkpt lat="48.5061" lon="-2.70345">
        <ele>47.8</ele>
        <time>2026-01-25T08:52:14Z</time>
      </trkpt>
      <trkpt lat="48.50608" lon="-2.70346">
        <ele>48</ele>
        <time>2026-01-25T08:52:15Z</time>
      </trkpt>
      <trkpt lat="48.50606" lon="-2.70348">
        <ele>48</ele>
        <time>2026-01-25T08:52:16Z</time>
      </trkpt>
      <trkpt lat="48.50604" lon="-2.7035">
        <ele>48</ele>
        <time>2026-01-25T08:52:17Z</time>
      </trkpt>
      <trkpt lat="48.50602" lon="-2.70352">
        <ele>48.8</ele>
        <time>2026-01-25T08:52:18Z</time>
      </trkpt>
      <trkpt lat="48.506" lon="-2.70354">
        <ele>48.8</ele>
        <time>2026-01-25T08:52:19Z</time>
      </trkpt>
      <trkpt lat="48.50598" lon="-2.70356">
        <ele>48.8</ele>
        <time>2026-01-25T08:52:20Z</time>
      </trkpt>
      <trkpt lat="48.50596" lon="-2.70359">
        <ele>48.8</ele>
        <time>2026-01-25T08:52:21Z</time>
      </trkpt>
      <trkpt lat="48.50594" lon="-2.70361">
        <ele>49.4</ele>
        <time>2026-01-25T08:52:22Z</time>
      </trkpt>
      <trkpt lat="48.50592" lon="-2.70363">
        <ele>49.6</ele>
        <time>2026-01-25T08:52:23Z</time>
      </trkpt>
      <trkpt lat="48.5059" lon="-2.70365">
        <ele>49.6</ele>
        <time>2026-01-25T08:52:24Z</time>
      </trkpt>
      <trkpt lat="48.50588" lon="-2.70367">
        <ele>49.6</ele>
        <time>2026-01-25T08:52:25Z</time>
      </trkpt>
      <trkpt lat="48.50586" lon="-2.70369">
        <ele>50.2</ele>
        <time>2026-01-25T08:52:26Z</time>
      </trkpt>
      <trkpt lat="48.50584" lon="-2.70371">
        <ele>50.4</ele>
        <time>2026-01-25T08:52:27Z</time>
      </trkpt>
      <trkpt lat="48.50582" lon="-2.70373">
        <ele>50.4</ele>
        <time>2026-01-25T08:52:28Z</time>
      </trkpt>
      <trkpt lat="48.5058" lon="-2.70375">
        <ele>50.4</ele>
        <time>2026-01-25T08:52:29Z</time>
      </trkpt>
      <trkpt lat="48.50578" lon="-2.70377">
        <ele>50.4</ele>
        <time>2026-01-25T08:52:30Z</time>
      </trkpt>
      <trkpt lat="48.50576" lon="-2.7038">
        <ele>50.4</ele>
        <time>2026-01-25T08:52:31Z</time>
      </trkpt>
      <trkpt lat="48.50574" lon="-2.70382">
        <ele>50.4</ele>
        <time>2026-01-25T08:52:32Z</time>
      </trkpt>
      <trkpt lat="48.50571" lon="-2.70383">
        <ele>50.4</ele>
        <time>2026-01-25T08:52:33Z</time>
      </trkpt>
      <trkpt lat="48.50569" lon="-2.70385">
        <ele>51.4</ele>
        <time>2026-01-25T08:52:34Z</time>
      </trkpt>
      <trkpt lat="48.50567" lon="-2.70388">
        <ele>51.6</ele>
        <time>2026-01-25T08:52:35Z</time>
      </trkpt>
      <trkpt lat="48.50565" lon="-2.7039">
        <ele>51.6</ele>
        <time>2026-01-25T08:52:36Z</time>
      </trkpt>
      <trkpt lat="48.50563" lon="-2.70392">
        <ele>51.6</ele>
        <time>2026-01-25T08:52:37Z</time>
      </trkpt>
      <trkpt lat="48.50561" lon="-2.70394">
        <ele>52</ele>
        <time>2026-01-25T08:52:38Z</time>
      </trkpt>
      <trkpt lat="48.50559" lon="-2.70396">
        <ele>52.2</ele>
        <time>2026-01-25T08:52:39Z</time>
      </trkpt>
      <trkpt lat="48.50557" lon="-2.70399">
        <ele>52.2</ele>
        <time>2026-01-25T08:52:40Z</time>
      </trkpt>
      <trkpt lat="48.50555" lon="-2.70401">
        <ele>52.2</ele>
        <time>2026-01-25T08:52:41Z</time>
      </trkpt>
      <trkpt lat="48.50553" lon="-2.70403">
        <ele>52.2</ele>
        <time>2026-01-25T08:52:42Z</time>
      </trkpt>
      <trkpt lat="48.50551" lon="-2.70405">
        <ele>52.8</ele>
        <time>2026-01-25T08:52:43Z</time>
      </trkpt>
      <trkpt lat="48.50549" lon="-2.70407">
        <ele>52.8</ele>
        <time>2026-01-25T08:52:44Z</time>
      </trkpt>
      <trkpt lat="48.50547" lon="-2.70409">
        <ele>52.8</ele>
        <time>2026-01-25T08:52:45Z</time>
      </trkpt>
      <trkpt lat="48.50545" lon="-2.70411">
        <ele>52.8</ele>
        <time>2026-01-25T08:52:46Z</time>
      </trkpt>
      <trkpt lat="48.50543" lon="-2.70414">
        <ele>53.6</ele>
        <time>2026-01-25T08:52:47Z</time>
      </trkpt>
      <trkpt lat="48.50542" lon="-2.70416">
        <ele>53.6</ele>
        <time>2026-01-25T08:52:48Z</time>
      </trkpt>
      <trkpt lat="48.5054" lon="-2.70418">
        <ele>53.6</ele>
        <time>2026-01-25T08:52:49Z</time>
      </trkpt>
      <trkpt lat="48.50538" lon="-2.7042">
        <ele>54.4</ele>
        <time>2026-01-25T08:52:50Z</time>
      </trkpt>
      <trkpt lat="48.50536" lon="-2.70423">
        <ele>54.6</ele>
        <time>2026-01-25T08:52:51Z</time>
      </trkpt>
      <trkpt lat="48.50534" lon="-2.70426">
        <ele>54.6</ele>
        <time>2026-01-25T08:52:52Z</time>
      </trkpt>
      <trkpt lat="48.50532" lon="-2.70428">
        <ele>54.6</ele>
        <time>2026-01-25T08:52:53Z</time>
      </trkpt>
      <trkpt lat="48.5053" lon="-2.70431">
        <ele>55.2</ele>
        <time>2026-01-25T08:52:54Z</time>
      </trkpt>
      <trkpt lat="48.50529" lon="-2.70434">
        <ele>55.4</ele>
        <time>2026-01-25T08:52:55Z</time>
      </trkpt>
      <trkpt lat="48.50527" lon="-2.70437">
        <ele>55.4</ele>
        <time>2026-01-25T08:52:56Z</time>
      </trkpt>
      <trkpt lat="48.50525" lon="-2.7044">
        <ele>55.4</ele>
        <time>2026-01-25T08:52:57Z</time>
      </trkpt>
      <trkpt lat="48.50523" lon="-2.70443">
        <ele>55.8</ele>
        <time>2026-01-25T08:52:58Z</time>
      </trkpt>
      <trkpt lat="48.50522" lon="-2.70446">
        <ele>56.2</ele>
        <time>2026-01-25T08:52:59Z</time>
      </trkpt>
      <trkpt lat="48.50521" lon="-2.7045">
        <ele>56.2</ele>
        <time>2026-01-25T08:53:00Z</time>
      </trkpt>
      <trkpt lat="48.50519" lon="-2.70453">
        <ele>56.2</ele>
        <time>2026-01-25T08:53:01Z</time>
      </trkpt>
      <trkpt lat="48.50518" lon="-2.70456">
        <ele>56.8</ele>
        <time>2026-01-25T08:53:02Z</time>
      </trkpt>
      <trkpt lat="48.50517" lon="-2.7046">
        <ele>56.8</ele>
        <time>2026-01-25T08:53:03Z</time>
      </trkpt>
      <trkpt lat="48.50515" lon="-2.70463">
        <ele>56.8</ele>
        <time>2026-01-25T08:53:04Z</time>
      </trkpt>
      <trkpt lat="48.50514" lon="-2.70466">
        <ele>56.8</ele>
        <time>2026-01-25T08:53:05Z</time>
      </trkpt>
      <trkpt lat="48.50512" lon="-2.70469">
        <ele>57.4</ele>
        <time>2026-01-25T08:53:06Z</time>
      </trkpt>
      <trkpt lat="48.50511" lon="-2.70473">
        <ele>57.6</ele>
        <time>2026-01-25T08:53:07Z</time>
      </trkpt>
      <trkpt lat="48.5051" lon="-2.70477">
        <ele>57.6</ele>
        <time>2026-01-25T08:53:08Z</time>
      </trkpt>
      <trkpt lat="48.50508" lon="-2.7048">
        <ele>57.6</ele>
        <time>2026-01-25T08:53:09Z</time>
      </trkpt>
      <trkpt lat="48.50507" lon="-2.70484">
        <ele>58.2</ele>
        <time>2026-01-25T08:53:10Z</time>
      </trkpt>
      <trkpt lat="48.50506" lon="-2.70488">
        <ele>58.6</ele>
        <time>2026-01-25T08:53:11Z</time>
      </trkpt>
      <trkpt lat="48.50505" lon="-2.70492">
        <ele>58.6</ele>
        <time>2026-01-25T08:53:12Z</time>
      </trkpt>
      <trkpt lat="48.50504" lon="-2.70496">
        <ele>58.6</ele>
        <time>2026-01-25T08:53:13Z</time>
      </trkpt>
      <trkpt lat="48.50502" lon="-2.705">
        <ele>58.6</ele>
        <time>2026-01-25T08:53:14Z</time>
      </trkpt>
      <trkpt lat="48.50501" lon="-2.70504">
        <ele>59</ele>
        <time>2026-01-25T08:53:15Z</time>
      </trkpt>
      <trkpt lat="48.505" lon="-2.70508">
        <ele>59</ele>
        <time>2026-01-25T08:53:16Z</time>
      </trkpt>
      <trkpt lat="48.50499" lon="-2.70513">
        <ele>59</ele>
        <time>2026-01-25T08:53:17Z</time>
      </trkpt>
      <trkpt lat="48.50498" lon="-2.70517">
        <ele>59.2</ele>
        <time>2026-01-25T08:53:18Z</time>
      </trkpt>
      <trkpt lat="48.50497" lon="-2.70522">
        <ele>59.6</ele>
        <time>2026-01-25T08:53:19Z</time>
      </trkpt>
      <trkpt lat="48.50496" lon="-2.70527">
        <ele>59.6</ele>
        <time>2026-01-25T08:53:20Z</time>
      </trkpt>
      <trkpt lat="48.50496" lon="-2.70531">
        <ele>59.6</ele>
        <time>2026-01-25T08:53:21Z</time>
      </trkpt>
      <trkpt lat="48.50495" lon="-2.70536">
        <ele>59.6</ele>
        <time>2026-01-25T08:53:22Z</time>
      </trkpt>
      <trkpt lat="48.50495" lon="-2.7054">
        <ele>60</ele>
        <time>2026-01-25T08:53:23Z</time>
      </trkpt>
      <trkpt lat="48.50494" lon="-2.70545">
        <ele>60</ele>
        <time>2026-01-25T08:53:24Z</time>
      </trkpt>
      <trkpt lat="48.50494" lon="-2.70549">
        <ele>60</ele>
        <time>2026-01-25T08:53:25Z</time>
      </trkpt>
      <trkpt lat="48.50493" lon="-2.70554">
        <ele>60.8</ele>
        <time>2026-01-25T08:53:26Z</time>
      </trkpt>
      <trkpt lat="48.50493" lon="-2.70558">
        <ele>61</ele>
        <time>2026-01-25T08:53:27Z</time>
      </trkpt>
      <trkpt lat="48.50492" lon="-2.70563">
        <ele>61</ele>
        <time>2026-01-25T08:53:28Z</time>
      </trkpt>
      <trkpt lat="48.50492" lon="-2.70567">
        <ele>61</ele>
        <time>2026-01-25T08:53:29Z</time>
      </trkpt>
      <trkpt lat="48.50491" lon="-2.70572">
        <ele>61.6</ele>
        <time>2026-01-25T08:53:30Z</time>
      </trkpt>
      <trkpt lat="48.50491" lon="-2.70576">
        <ele>61.8</ele>
        <time>2026-01-25T08:53:31Z</time>
      </trkpt>
      <trkpt lat="48.50491" lon="-2.70581">
        <ele>61.8</ele>
        <time>2026-01-25T08:53:32Z</time>
      </trkpt>
      <trkpt lat="48.50491" lon="-2.70585">
        <ele>61.8</ele>
        <time>2026-01-25T08:53:33Z</time>
      </trkpt>
      <trkpt lat="48.5049" lon="-2.7059">
        <ele>62.4</ele>
        <time>2026-01-25T08:53:34Z</time>
      </trkpt>
      <trkpt lat="48.5049" lon="-2.70594">
        <ele>62.6</ele>
        <time>2026-01-25T08:53:35Z</time>
      </trkpt>
      <trkpt lat="48.5049" lon="-2.70599">
        <ele>62.6</ele>
        <time>2026-01-25T08:53:36Z</time>
      </trkpt>
      <trkpt lat="48.5049" lon="-2.70603">
        <ele>62.6</ele>
        <time>2026-01-25T08:53:37Z</time>
      </trkpt>
      <trkpt lat="48.50489" lon="-2.70608">
        <ele>63.4</ele>
        <time>2026-01-25T08:53:38Z</time>
      </trkpt>
      <trkpt lat="48.50489" lon="-2.70612">
        <ele>63.4</ele>
        <time>2026-01-25T08:53:39Z</time>
      </trkpt>
      <trkpt lat="48.50489" lon="-2.70617">
        <ele>63.4</ele>
        <time>2026-01-25T08:53:40Z</time>
      </trkpt>
      <trkpt lat="48.50489" lon="-2.70622">
        <ele>63.4</ele>
        <time>2026-01-25T08:53:41Z</time>
      </trkpt>
      <trkpt lat="48.50488" lon="-2.70626">
        <ele>63.6</ele>
        <time>2026-01-25T08:53:42Z</time>
      </trkpt>
      <trkpt lat="48.50488" lon="-2.70631">
        <ele>63.6</ele>
        <time>2026-01-25T08:53:43Z</time>
      </trkpt>
      <trkpt lat="48.50488" lon="-2.70636">
        <ele>63.6</ele>
        <time>2026-01-25T08:53:44Z</time>
      </trkpt>
      <trkpt lat="48.50487" lon="-2.70641">
        <ele>63.6</ele>
        <time>2026-01-25T08:53:45Z</time>
      </trkpt>
      <trkpt lat="48.50487" lon="-2.70645">
        <ele>63.6</ele>
        <time>2026-01-25T08:53:46Z</time>
      </trkpt>
      <trkpt lat="48.50487" lon="-2.7065">
        <ele>64.2</ele>
        <time>2026-01-25T08:53:47Z</time>
      </trkpt>
      <trkpt lat="48.50486" lon="-2.70655">
        <ele>64.2</ele>
        <time>2026-01-25T08:53:48Z</time>
      </trkpt>
      <trkpt lat="48.50486" lon="-2.7066">
        <ele>64.2</ele>
        <time>2026-01-25T08:53:49Z</time>
      </trkpt>
      <trkpt lat="48.50486" lon="-2.70665">
        <ele>64.2</ele>
        <time>2026-01-25T08:53:50Z</time>
      </trkpt>
      <trkpt lat="48.50486" lon="-2.7067">
        <ele>65.4</ele>
        <time>2026-01-25T08:53:51Z</time>
      </trkpt>
      <trkpt lat="48.50485" lon="-2.70675">
        <ele>65.4</ele>
        <time>2026-01-25T08:53:52Z</time>
      </trkpt>
      <trkpt lat="48.50485" lon="-2.7068">
        <ele>65.4</ele>
        <time>2026-01-25T08:53:53Z</time>
      </trkpt>
      <trkpt lat="48.50485" lon="-2.70685">
        <ele>65.4</ele>
        <time>2026-01-25T08:53:54Z</time>
      </trkpt>
      <trkpt lat="48.50484" lon="-2.7069">
        <ele>65.6</ele>
        <time>2026-01-25T08:53:55Z</time>
      </trkpt>
      <trkpt lat="48.50484" lon="-2.70695">
        <ele>65.6</ele>
        <time>2026-01-25T08:53:56Z</time>
      </trkpt>
      <trkpt lat="48.50484" lon="-2.707">
        <ele>65.6</ele>
        <time>2026-01-25T08:53:57Z</time>
      </trkpt>
      <trkpt lat="48.50483" lon="-2.70705">
        <ele>65.6</ele>
        <time>2026-01-25T08:53:58Z</time>
      </trkpt>
      <trkpt lat="48.50483" lon="-2.7071">
        <ele>66</ele>
        <time>2026-01-25T08:53:59Z</time>
      </trkpt>
      <trkpt lat="48.50482" lon="-2.70715">
        <ele>66</ele>
        <time>2026-01-25T08:54:00Z</time>
      </trkpt>
      <trkpt lat="48.50482" lon="-2.7072">
        <ele>66</ele>
        <time>2026-01-25T08:54:01Z</time>
      </trkpt>
      <trkpt lat="48.50482" lon="-2.70725">
        <ele>66</ele>
        <time>2026-01-25T08:54:02Z</time>
      </trkpt>
      <trkpt lat="48.50481" lon="-2.7073">
        <ele>66.4</ele>
        <time>2026-01-25T08:54:03Z</time>
      </trkpt>
      <trkpt lat="48.50481" lon="-2.70735">
        <ele>66.4</ele>
        <time>2026-01-25T08:54:04Z</time>
      </trkpt>
      <trkpt lat="48.50481" lon="-2.7074">
        <ele>66.4</ele>
        <time>2026-01-25T08:54:05Z</time>
      </trkpt>
      <trkpt lat="48.50481" lon="-2.70745">
        <ele>66.8</ele>
        <time>2026-01-25T08:54:06Z</time>
      </trkpt>
      <trkpt lat="48.5048" lon="-2.7075">
        <ele>67.6</ele>
        <time>2026-01-25T08:54:07Z</time>
      </trkpt>
      <trkpt lat="48.5048" lon="-2.70755">
        <ele>67.6</ele>
        <time>2026-01-25T08:54:08Z</time>
      </trkpt>
      <trkpt lat="48.50479" lon="-2.7076">
        <ele>67.6</ele>
        <time>2026-01-25T08:54:09Z</time>
      </trkpt>
      <trkpt lat="48.50479" lon="-2.70764">
        <ele>67.6</ele>
        <time>2026-01-25T08:54:10Z</time>
      </trkpt>
      <trkpt lat="48.50479" lon="-2.70769">
        <ele>68</ele>
        <time>2026-01-25T08:54:11Z</time>
      </trkpt>
      <trkpt lat="48.50478" lon="-2.70774">
        <ele>68</ele>
        <time>2026-01-25T08:54:12Z</time>
      </trkpt>
      <trkpt lat="48.50477" lon="-2.70779">
        <ele>68</ele>
        <time>2026-01-25T08:54:13Z</time>
      </trkpt>
      <trkpt lat="48.50477" lon="-2.70784">
        <ele>68.4</ele>
        <time>2026-01-25T08:54:14Z</time>
      </trkpt>
      <trkpt lat="48.50476" lon="-2.70789">
        <ele>68.8</ele>
        <time>2026-01-25T08:54:15Z</time>
      </trkpt>
      <trkpt lat="48.50476" lon="-2.70793">
        <ele>68.8</ele>
        <time>2026-01-25T08:54:16Z</time>
      </trkpt>
      <trkpt lat="48.50475" lon="-2.70798">
        <ele>68.8</ele>
        <time>2026-01-25T08:54:17Z</time>
      </trkpt>
      <trkpt lat="48.50475" lon="-2.70803">
        <ele>69.2</ele>
        <time>2026-01-25T08:54:18Z</time>
      </trkpt>
      <trkpt lat="48.50475" lon="-2.70808">
        <ele>69.4</ele>
        <time>2026-01-25T08:54:19Z</time>
      </trkpt>
      <trkpt lat="48.50475" lon="-2.70812">
        <ele>69.4</ele>
        <time>2026-01-25T08:54:20Z</time>
      </trkpt>
      <trkpt lat="48.50475" lon="-2.70817">
        <ele>69.4</ele>
        <time>2026-01-25T08:54:21Z</time>
      </trkpt>
      <trkpt lat="48.50477" lon="-2.70821">
        <ele>69.4</ele>
        <time>2026-01-25T08:54:22Z</time>
      </trkpt>
      <trkpt lat="48.5048" lon="-2.70824">
        <ele>69.4</ele>
        <time>2026-01-25T08:54:23Z</time>
      </trkpt>
      <trkpt lat="48.50483" lon="-2.70826">
        <ele>69.4</ele>
        <time>2026-01-25T08:54:24Z</time>
      </trkpt>
      <trkpt lat="48.50487" lon="-2.70827">
        <ele>69.4</ele>
        <time>2026-01-25T08:54:25Z</time>
      </trkpt>
      <trkpt lat="48.50491" lon="-2.70827">
        <ele>69.4</ele>
        <time>2026-01-25T08:54:26Z</time>
      </trkpt>
      <trkpt lat="48.50496" lon="-2.70826">
        <ele>68.6</ele>
        <time>2026-01-25T08:54:27Z</time>
      </trkpt>
      <trkpt lat="48.505" lon="-2.70824">
        <ele>68.6</ele>
        <time>2026-01-25T08:54:28Z</time>
      </trkpt>
      <trkpt lat="48.50505" lon="-2.70823">
        <ele>68.6</ele>
        <time>2026-01-25T08:54:29Z</time>
      </trkpt>
      <trkpt lat="48.5051" lon="-2.70821">
        <ele>67.6</ele>
        <time>2026-01-25T08:54:30Z</time>
      </trkpt>
      <trkpt lat="48.50515" lon="-2.70818">
        <ele>67</ele>
        <time>2026-01-25T08:54:31Z</time>
      </trkpt>
      <trkpt lat="48.5052" lon="-2.70813">
        <ele>67</ele>
        <time>2026-01-25T08:54:32Z</time>
      </trkpt>
      <trkpt lat="48.50524" lon="-2.70807">
        <ele>67</ele>
        <time>2026-01-25T08:54:33Z</time>
      </trkpt>
      <trkpt lat="48.50527" lon="-2.708">
        <ele>66</ele>
        <time>2026-01-25T08:54:34Z</time>
      </trkpt>
      <trkpt lat="48.50531" lon="-2.70792">
        <ele>65.4</ele>
        <time>2026-01-25T08:54:35Z</time>
      </trkpt>
      <trkpt lat="48.50533" lon="-2.70785">
        <ele>65.4</ele>
        <time>2026-01-25T08:54:36Z</time>
      </trkpt>
      <trkpt lat="48.50535" lon="-2.70778">
        <ele>65.4</ele>
        <time>2026-01-25T08:54:37Z</time>
      </trkpt>
      <trkpt lat="48.50536" lon="-2.70771">
        <ele>65.4</ele>
        <time>2026-01-25T08:54:38Z</time>
      </trkpt>
      <trkpt lat="48.50537" lon="-2.70766">
        <ele>65.6</ele>
        <time>2026-01-25T08:54:39Z</time>
      </trkpt>
      <trkpt lat="48.50537" lon="-2.70762">
        <ele>65.6</ele>
        <time>2026-01-25T08:54:40Z</time>
      </trkpt>
      <trkpt lat="48.50539" lon="-2.70759">
        <ele>65.6</ele>
        <time>2026-01-25T08:54:41Z</time>
      </trkpt>
      <trkpt lat="48.50541" lon="-2.70759">
        <ele>65.6</ele>
        <time>2026-01-25T08:54:42Z</time>
      </trkpt>
      <trkpt lat="48.50541" lon="-2.70762">
        <ele>66.2</ele>
        <time>2026-01-25T08:54:43Z</time>
      </trkpt>
      <trkpt lat="48.5054" lon="-2.70765">
        <ele>66.2</ele>
        <time>2026-01-25T08:54:44Z</time>
      </trkpt>
      <trkpt lat="48.50539" lon="-2.70768">
        <ele>66.2</ele>
        <time>2026-01-25T08:54:45Z</time>
      </trkpt>
      <trkpt lat="48.50537" lon="-2.70772">
        <ele>66.2</ele>
        <time>2026-01-25T08:54:46Z</time>
      </trkpt>
      <trkpt lat="48.50535" lon="-2.70776">
        <ele>66</ele>
        <time>2026-01-25T08:54:47Z</time>
      </trkpt>
      <trkpt lat="48.50534" lon="-2.7078">
        <ele>66</ele>
        <time>2026-01-25T08:54:48Z</time>
      </trkpt>
      <trkpt lat="48.50533" lon="-2.70784">
        <ele>66</ele>
        <time>2026-01-25T08:54:49Z</time>
      </trkpt>
      <trkpt lat="48.50532" lon="-2.70789">
        <ele>66</ele>
        <time>2026-01-25T08:54:50Z</time>
      </trkpt>
      <trkpt lat="48.5053" lon="-2.70794">
        <ele>66.4</ele>
        <time>2026-01-25T08:54:51Z</time>
      </trkpt>
      <trkpt lat="48.50529" lon="-2.70798">
        <ele>66.4</ele>
        <time>2026-01-25T08:54:52Z</time>
      </trkpt>
      <trkpt lat="48.50527" lon="-2.70803">
        <ele>66.4</ele>
        <time>2026-01-25T08:54:53Z</time>
      </trkpt>
      <trkpt lat="48.50525" lon="-2.70807">
        <ele>67.4</ele>
        <time>2026-01-25T08:54:54Z</time>
      </trkpt>
      <trkpt lat="48.50522" lon="-2.70811">
        <ele>68.2</ele>
        <time>2026-01-25T08:54:55Z</time>
      </trkpt>
      <trkpt lat="48.5052" lon="-2.70815">
        <ele>68.2</ele>
        <time>2026-01-25T08:54:56Z</time>
      </trkpt>
      <trkpt lat="48.50517" lon="-2.70818">
        <ele>68.2</ele>
        <time>2026-01-25T08:54:57Z</time>
      </trkpt>
      <trkpt lat="48.50514" lon="-2.7082">
        <ele>68.2</ele>
        <time>2026-01-25T08:54:58Z</time>
      </trkpt>
      <trkpt lat="48.5051" lon="-2.70822">
        <ele>68.2</ele>
        <time>2026-01-25T08:54:59Z</time>
      </trkpt>
      <trkpt lat="48.50507" lon="-2.70824">
        <ele>68.2</ele>
        <time>2026-01-25T08:55:00Z</time>
      </trkpt>
      <trkpt lat="48.50504" lon="-2.70826">
        <ele>68.2</ele>
        <time>2026-01-25T08:55:01Z</time>
      </trkpt>
      <trkpt lat="48.505" lon="-2.70827">
        <ele>69</ele>
        <time>2026-01-25T08:55:02Z</time>
      </trkpt>
      <trkpt lat="48.50497" lon="-2.70828">
        <ele>69.2</ele>
        <time>2026-01-25T08:55:03Z</time>
      </trkpt>
      <trkpt lat="48.50494" lon="-2.70829">
        <ele>69.2</ele>
        <time>2026-01-25T08:55:04Z</time>
      </trkpt>
      <trkpt lat="48.5049" lon="-2.7083">
        <ele>69.2</ele>
        <time>2026-01-25T08:55:05Z</time>
      </trkpt>
      <trkpt lat="48.50487" lon="-2.70832">
        <ele>69.2</ele>
        <time>2026-01-25T08:55:06Z</time>
      </trkpt>
      <trkpt lat="48.50484" lon="-2.70833">
        <ele>69.4</ele>
        <time>2026-01-25T08:55:07Z</time>
      </trkpt>
      <trkpt lat="48.50481" lon="-2.70835">
        <ele>69.4</ele>
        <time>2026-01-25T08:55:08Z</time>
      </trkpt>
      <trkpt lat="48.50478" lon="-2.70837">
        <ele>69.4</ele>
        <time>2026-01-25T08:55:09Z</time>
      </trkpt>
      <trkpt lat="48.50475" lon="-2.70839">
        <ele>69.6</ele>
        <time>2026-01-25T08:55:10Z</time>
      </trkpt>
      <trkpt lat="48.50472" lon="-2.70842">
        <ele>70.4</ele>
        <time>2026-01-25T08:55:11Z</time>
      </trkpt>
      <trkpt lat="48.5047" lon="-2.70845">
        <ele>70.4</ele>
        <time>2026-01-25T08:55:12Z</time>
      </trkpt>
      <trkpt lat="48.50467" lon="-2.70848">
        <ele>70.4</ele>
        <time>2026-01-25T08:55:13Z</time>
      </trkpt>
      <trkpt lat="48.50465" lon="-2.70852">
        <ele>70.4</ele>
        <time>2026-01-25T08:55:14Z</time>
      </trkpt>
      <trkpt lat="48.50463" lon="-2.70856">
        <ele>71.2</ele>
        <time>2026-01-25T08:55:15Z</time>
      </trkpt>
      <trkpt lat="48.50461" lon="-2.7086">
        <ele>71.2</ele>
        <time>2026-01-25T08:55:16Z</time>
      </trkpt>
      <trkpt lat="48.50459" lon="-2.70864">
        <ele>71.2</ele>
        <time>2026-01-25T08:55:17Z</time>
      </trkpt>
      <trkpt lat="48.50457" lon="-2.70869">
        <ele>71.2</ele>
        <time>2026-01-25T08:55:18Z</time>
      </trkpt>
      <trkpt lat="48.50455" lon="-2.70873">
        <ele>71.6</ele>
        <time>2026-01-25T08:55:19Z</time>
      </trkpt>
      <trkpt lat="48.50454" lon="-2.70877">
        <ele>71.6</ele>
        <time>2026-01-25T08:55:20Z</time>
      </trkpt>
      <trkpt lat="48.50452" lon="-2.70881">
        <ele>71.6</ele>
        <time>2026-01-25T08:55:21Z</time>
      </trkpt>
      <trkpt lat="48.5045" lon="-2.70885">
        <ele>72.2</ele>
        <time>2026-01-25T08:55:22Z</time>
      </trkpt>
      <trkpt lat="48.50447" lon="-2.70889">
        <ele>72.4</ele>
        <time>2026-01-25T08:55:23Z</time>
      </trkpt>
      <trkpt lat="48.50445" lon="-2.70894">
        <ele>72.4</ele>
        <time>2026-01-25T08:55:24Z</time>
      </trkpt>
      <trkpt lat="48.50443" lon="-2.70898">
        <ele>72.4</ele>
        <time>2026-01-25T08:55:25Z</time>
      </trkpt>
      <trkpt lat="48.50441" lon="-2.70902">
        <ele>73.2</ele>
        <time>2026-01-25T08:55:26Z</time>
      </trkpt>
      <trkpt lat="48.50439" lon="-2.70905">
        <ele>73.2</ele>
        <time>2026-01-25T08:55:27Z</time>
      </trkpt>
      <trkpt lat="48.50437" lon="-2.70909">
        <ele>73.2</ele>
        <time>2026-01-25T08:55:28Z</time>
      </trkpt>
      <trkpt lat="48.50435" lon="-2.70913">
        <ele>73.2</ele>
        <time>2026-01-25T08:55:29Z</time>
      </trkpt>
      <trkpt lat="48.50433" lon="-2.70917">
        <ele>73.8</ele>
        <time>2026-01-25T08:55:30Z</time>
      </trkpt>
      <trkpt lat="48.50431" lon="-2.70921">
        <ele>74.2</ele>
        <time>2026-01-25T08:55:31Z</time>
      </trkpt>
      <trkpt lat="48.50429" lon="-2.70925">
        <ele>74.2</ele>
        <time>2026-01-25T08:55:32Z</time>
      </trkpt>
      <trkpt lat="48.50427" lon="-2.70929">
        <ele>74.2</ele>
        <time>2026-01-25T08:55:33Z</time>
      </trkpt>
      <trkpt lat="48.50425" lon="-2.70932">
        <ele>74.6</ele>
        <time>2026-01-25T08:55:34Z</time>
      </trkpt>
      <trkpt lat="48.50422" lon="-2.70936">
        <ele>75</ele>
        <time>2026-01-25T08:55:35Z</time>
      </trkpt>
      <trkpt lat="48.50421" lon="-2.7094">
        <ele>75</ele>
        <time>2026-01-25T08:55:36Z</time>
      </trkpt>
      <trkpt lat="48.50419" lon="-2.70944">
        <ele>75</ele>
        <time>2026-01-25T08:55:37Z</time>
      </trkpt>
      <trkpt lat="48.50416" lon="-2.70948">
        <ele>75.2</ele>
        <time>2026-01-25T08:55:38Z</time>
      </trkpt>
      <trkpt lat="48.50414" lon="-2.70952">
        <ele>75.4</ele>
        <time>2026-01-25T08:55:39Z</time>
      </trkpt>
      <trkpt lat="48.50412" lon="-2.70955">
        <ele>75.4</ele>
        <time>2026-01-25T08:55:40Z</time>
      </trkpt>
      <trkpt lat="48.5041" lon="-2.70959">
        <ele>75.4</ele>
        <time>2026-01-25T08:55:41Z</time>
      </trkpt>
      <trkpt lat="48.50408" lon="-2.70963">
        <ele>76.2</ele>
        <time>2026-01-25T08:55:42Z</time>
      </trkpt>
      <trkpt lat="48.50406" lon="-2.70967">
        <ele>76.6</ele>
        <time>2026-01-25T08:55:43Z</time>
      </trkpt>
      <trkpt lat="48.50404" lon="-2.70971">
        <ele>76.6</ele>
        <time>2026-01-25T08:55:44Z</time>
      </trkpt>
      <trkpt lat="48.50401" lon="-2.70975">
        <ele>76.6</ele>
        <time>2026-01-25T08:55:45Z</time>
      </trkpt>
      <trkpt lat="48.50399" lon="-2.70979">
        <ele>76.8</ele>
        <time>2026-01-25T08:55:46Z</time>
      </trkpt>
      <trkpt lat="48.50397" lon="-2.70983">
        <ele>77.2</ele>
        <time>2026-01-25T08:55:47Z</time>
      </trkpt>
      <trkpt lat="48.50395" lon="-2.70987">
        <ele>77.2</ele>
        <time>2026-01-25T08:55:48Z</time>
      </trkpt>
      <trkpt lat="48.50393" lon="-2.70991">
        <ele>77.2</ele>
        <time>2026-01-25T08:55:49Z</time>
      </trkpt>
      <trkpt lat="48.50391" lon="-2.70995">
        <ele>77.2</ele>
        <time>2026-01-25T08:55:50Z</time>
      </trkpt>
      <trkpt lat="48.50389" lon="-2.70999">
        <ele>78</ele>
        <time>2026-01-25T08:55:51Z</time>
      </trkpt>
      <trkpt lat="48.50386" lon="-2.71003">
        <ele>78</ele>
        <time>2026-01-25T08:55:52Z</time>
      </trkpt>
      <trkpt lat="48.50384" lon="-2.71007">
        <ele>78</ele>
        <time>2026-01-25T08:55:53Z</time>
      </trkpt>
      <trkpt lat="48.50382" lon="-2.7101">
        <ele>78.4</ele>
        <time>2026-01-25T08:55:54Z</time>
      </trkpt>
      <trkpt lat="48.5038" lon="-2.71014">
        <ele>78.8</ele>
        <time>2026-01-25T08:55:55Z</time>
      </trkpt>
      <trkpt lat="48.50378" lon="-2.71018">
        <ele>78.8</ele>
        <time>2026-01-25T08:55:56Z</time>
      </trkpt>
      <trkpt lat="48.50375" lon="-2.71022">
        <ele>78.8</ele>
        <time>2026-01-25T08:55:57Z</time>
      </trkpt>
      <trkpt lat="48.50373" lon="-2.71025">
        <ele>78.8</ele>
        <time>2026-01-25T08:55:58Z</time>
      </trkpt>
      <trkpt lat="48.5037" lon="-2.71029">
        <ele>79.4</ele>
        <time>2026-01-25T08:55:59Z</time>
      </trkpt>
      <trkpt lat="48.50368" lon="-2.71032">
        <ele>79.4</ele>
        <time>2026-01-25T08:56:00Z</time>
      </trkpt>
      <trkpt lat="48.50366" lon="-2.71035">
        <ele>79.4</ele>
        <time>2026-01-25T08:56:01Z</time>
      </trkpt>
      <trkpt lat="48.50363" lon="-2.71039">
        <ele>79.4</ele>
        <time>2026-01-25T08:56:02Z</time>
      </trkpt>
      <trkpt lat="48.50361" lon="-2.71042">
        <ele>79.6</ele>
        <time>2026-01-25T08:56:03Z</time>
      </trkpt>
      <trkpt lat="48.50358" lon="-2.71045">
        <ele>79.6</ele>
        <time>2026-01-25T08:56:04Z</time>
      </trkpt>
      <trkpt lat="48.50356" lon="-2.71049">
        <ele>79.6</ele>
        <time>2026-01-25T08:56:05Z</time>
      </trkpt>
      <trkpt lat="48.50353" lon="-2.71052">
        <ele>80.6</ele>
        <time>2026-01-25T08:56:06Z</time>
      </trkpt>
      <trkpt lat="48.5035" lon="-2.71055">
        <ele>80.6</ele>
        <time>2026-01-25T08:56:07Z</time>
      </trkpt>
      <trkpt lat="48.50348" lon="-2.71059">
        <ele>80.6</ele>
        <time>2026-01-25T08:56:08Z</time>
      </trkpt>
      <trkpt lat="48.50345" lon="-2.71062">
        <ele>80.6</ele>
        <time>2026-01-25T08:56:09Z</time>
      </trkpt>
      <trkpt lat="48.50342" lon="-2.71065">
        <ele>80.6</ele>
        <time>2026-01-25T08:56:10Z</time>
      </trkpt>
      <trkpt lat="48.50339" lon="-2.71067">
        <ele>81.6</ele>
        <time>2026-01-25T08:56:11Z</time>
      </trkpt>
      <trkpt lat="48.50336" lon="-2.7107">
        <ele>81.6</ele>
        <time>2026-01-25T08:56:12Z</time>
      </trkpt>
      <trkpt lat="48.50333" lon="-2.71072">
        <ele>81.6</ele>
        <time>2026-01-25T08:56:13Z</time>
      </trkpt>
      <trkpt lat="48.5033" lon="-2.71075">
        <ele>81.6</ele>
        <time>2026-01-25T08:56:14Z</time>
      </trkpt>
      <trkpt lat="48.50327" lon="-2.71077">
        <ele>81.4</ele>
        <time>2026-01-25T08:56:15Z</time>
      </trkpt>
      <trkpt lat="48.50323" lon="-2.71079">
        <ele>81.4</ele>
        <time>2026-01-25T08:56:16Z</time>
      </trkpt>
      <trkpt lat="48.5032" lon="-2.71082">
        <ele>81.4</ele>
        <time>2026-01-25T08:56:17Z</time>
      </trkpt>
      <trkpt lat="48.50317" lon="-2.71084">
        <ele>82.4</ele>
        <time>2026-01-25T08:56:18Z</time>
      </trkpt>
      <trkpt lat="48.50313" lon="-2.71086">
        <ele>82.4</ele>
        <time>2026-01-25T08:56:19Z</time>
      </trkpt>
      <trkpt lat="48.5031" lon="-2.71088">
        <ele>82.4</ele>
        <time>2026-01-25T08:56:20Z</time>
      </trkpt>
      <trkpt lat="48.50307" lon="-2.7109">
        <ele>82.4</ele>
        <time>2026-01-25T08:56:21Z</time>
      </trkpt>
      <trkpt lat="48.50304" lon="-2.71092">
        <ele>82.4</ele>
        <time>2026-01-25T08:56:22Z</time>
      </trkpt>
      <trkpt lat="48.50301" lon="-2.71095">
        <ele>82.6</ele>
        <time>2026-01-25T08:56:23Z</time>
      </trkpt>
      <trkpt lat="48.50298" lon="-2.71097">
        <ele>82.6</ele>
        <time>2026-01-25T08:56:24Z</time>
      </trkpt>
      <trkpt lat="48.50294" lon="-2.711">
        <ele>82.6</ele>
        <time>2026-01-25T08:56:25Z</time>
      </trkpt>
      <trkpt lat="48.50291" lon="-2.71102">
        <ele>82.6</ele>
        <time>2026-01-25T08:56:26Z</time>
      </trkpt>
      <trkpt lat="48.50287" lon="-2.71105">
        <ele>82.2</ele>
        <time>2026-01-25T08:56:27Z</time>
      </trkpt>
      <trkpt lat="48.50283" lon="-2.71107">
        <ele>82.2</ele>
        <time>2026-01-25T08:56:28Z</time>
      </trkpt>
      <trkpt lat="48.5028" lon="-2.7111">
        <ele>82.2</ele>
        <time>2026-01-25T08:56:29Z</time>
      </trkpt>
      <trkpt lat="48.50275" lon="-2.71114">
        <ele>82.2</ele>
        <time>2026-01-25T08:56:30Z</time>
      </trkpt>
      <trkpt lat="48.50271" lon="-2.71117">
        <ele>81.2</ele>
        <time>2026-01-25T08:56:31Z</time>
      </trkpt>
      <trkpt lat="48.50267" lon="-2.71121">
        <ele>81.2</ele>
        <time>2026-01-25T08:56:32Z</time>
      </trkpt>
      <trkpt lat="48.50263" lon="-2.71125">
        <ele>81.2</ele>
        <time>2026-01-25T08:56:33Z</time>
      </trkpt>
      <trkpt lat="48.50258" lon="-2.71129">
        <ele>80.4</ele>
        <time>2026-01-25T08:56:34Z</time>
      </trkpt>
      <trkpt lat="48.50254" lon="-2.71134">
        <ele>80.2</ele>
        <time>2026-01-25T08:56:35Z</time>
      </trkpt>
      <trkpt lat="48.5025" lon="-2.71138">
        <ele>80.2</ele>
        <time>2026-01-25T08:56:36Z</time>
      </trkpt>
      <trkpt lat="48.50246" lon="-2.71144">
        <ele>80.2</ele>
        <time>2026-01-25T08:56:37Z</time>
      </trkpt>
      <trkpt lat="48.50243" lon="-2.7115">
        <ele>80.2</ele>
        <time>2026-01-25T08:56:38Z</time>
      </trkpt>
      <trkpt lat="48.5024" lon="-2.71158">
        <ele>79.8</ele>
        <time>2026-01-25T08:56:39Z</time>
      </trkpt>
      <trkpt lat="48.5024" lon="-2.71166">
        <ele>79.8</ele>
        <time>2026-01-25T08:56:40Z</time>
      </trkpt>
      <trkpt lat="48.50242" lon="-2.71173">
        <ele>79.8</ele>
        <time>2026-01-25T08:56:41Z</time>
      </trkpt>
      <trkpt lat="48.50245" lon="-2.7118">
        <ele>79.8</ele>
        <time>2026-01-25T08:56:42Z</time>
      </trkpt>
      <trkpt lat="48.50249" lon="-2.71185">
        <ele>80.6</ele>
        <time>2026-01-25T08:56:43Z</time>
      </trkpt>
      <trkpt lat="48.50253" lon="-2.7119">
        <ele>80.6</ele>
        <time>2026-01-25T08:56:44Z</time>
      </trkpt>
      <trkpt lat="48.50258" lon="-2.71194">
        <ele>80.6</ele>
        <time>2026-01-25T08:56:45Z</time>
      </trkpt>
      <trkpt lat="48.50262" lon="-2.71198">
        <ele>80.6</ele>
        <time>2026-01-25T08:56:46Z</time>
      </trkpt>
      <trkpt lat="48.50267" lon="-2.71202">
        <ele>80.8</ele>
        <time>2026-01-25T08:56:47Z</time>
      </trkpt>
      <trkpt lat="48.50271" lon="-2.71207">
        <ele>80.8</ele>
        <time>2026-01-25T08:56:48Z</time>
      </trkpt>
      <trkpt lat="48.50276" lon="-2.71211">
        <ele>80.8</ele>
        <time>2026-01-25T08:56:49Z</time>
      </trkpt>
      <trkpt lat="48.5028" lon="-2.71217">
        <ele>81.2</ele>
        <time>2026-01-25T08:56:50Z</time>
      </trkpt>
      <trkpt lat="48.50284" lon="-2.71222">
        <ele>81.4</ele>
        <time>2026-01-25T08:56:51Z</time>
      </trkpt>
      <trkpt lat="48.50287" lon="-2.71228">
        <ele>81.4</ele>
        <time>2026-01-25T08:56:52Z</time>
      </trkpt>
      <trkpt lat="48.50291" lon="-2.71235">
        <ele>81.4</ele>
        <time>2026-01-25T08:56:53Z</time>
      </trkpt>
      <trkpt lat="48.50293" lon="-2.71241">
        <ele>81.4</ele>
        <time>2026-01-25T08:56:54Z</time>
      </trkpt>
      <trkpt lat="48.50296" lon="-2.71248">
        <ele>81</ele>
        <time>2026-01-25T08:56:55Z</time>
      </trkpt>
      <trkpt lat="48.50297" lon="-2.71256">
        <ele>81</ele>
        <time>2026-01-25T08:56:56Z</time>
      </trkpt>
      <trkpt lat="48.50299" lon="-2.71264">
        <ele>81</ele>
        <time>2026-01-25T08:56:57Z</time>
      </trkpt>
      <trkpt lat="48.503" lon="-2.71272">
        <ele>81.4</ele>
        <time>2026-01-25T08:56:58Z</time>
      </trkpt>
      <trkpt lat="48.503" lon="-2.7128">
        <ele>81.6</ele>
        <time>2026-01-25T08:56:59Z</time>
      </trkpt>
      <trkpt lat="48.50301" lon="-2.71288">
        <ele>81.6</ele>
        <time>2026-01-25T08:57:00Z</time>
      </trkpt>
      <trkpt lat="48.50301" lon="-2.71296">
        <ele>81.6</ele>
        <time>2026-01-25T08:57:01Z</time>
      </trkpt>
      <trkpt lat="48.50301" lon="-2.71304">
        <ele>81.6</ele>
        <time>2026-01-25T08:57:02Z</time>
      </trkpt>
      <trkpt lat="48.50302" lon="-2.71312">
        <ele>81.6</ele>
        <time>2026-01-25T08:57:03Z</time>
      </trkpt>
      <trkpt lat="48.50303" lon="-2.7132">
        <ele>81.4</ele>
        <time>2026-01-25T08:57:04Z</time>
      </trkpt>
      <trkpt lat="48.50303" lon="-2.71329">
        <ele>81.4</ele>
        <time>2026-01-25T08:57:05Z</time>
      </trkpt>
      <trkpt lat="48.50304" lon="-2.71337">
        <ele>81.8</ele>
        <time>2026-01-25T08:57:06Z</time>
      </trkpt>
      <trkpt lat="48.50305" lon="-2.71345">
        <ele>82</ele>
        <time>2026-01-25T08:57:07Z</time>
      </trkpt>
      <trkpt lat="48.50306" lon="-2.71352">
        <ele>82</ele>
        <time>2026-01-25T08:57:08Z</time>
      </trkpt>
      <trkpt lat="48.50308" lon="-2.7136">
        <ele>82</ele>
        <time>2026-01-25T08:57:09Z</time>
      </trkpt>
      <trkpt lat="48.50309" lon="-2.71368">
        <ele>82</ele>
        <time>2026-01-25T08:57:10Z</time>
      </trkpt>
      <trkpt lat="48.50311" lon="-2.71375">
        <ele>82.6</ele>
        <time>2026-01-25T08:57:11Z</time>
      </trkpt>
      <trkpt lat="48.50313" lon="-2.71383">
        <ele>82.6</ele>
        <time>2026-01-25T08:57:12Z</time>
      </trkpt>
      <trkpt lat="48.50314" lon="-2.71391">
        <ele>82.6</ele>
        <time>2026-01-25T08:57:13Z</time>
      </trkpt>
      <trkpt lat="48.50314" lon="-2.71399">
        <ele>82.6</ele>
        <time>2026-01-25T08:57:14Z</time>
      </trkpt>
      <trkpt lat="48.50315" lon="-2.71407">
        <ele>82.4</ele>
        <time>2026-01-25T08:57:15Z</time>
      </trkpt>
      <trkpt lat="48.50315" lon="-2.71415">
        <ele>82.4</ele>
        <time>2026-01-25T08:57:16Z</time>
      </trkpt>
      <trkpt lat="48.50314" lon="-2.71423">
        <ele>82.4</ele>
        <time>2026-01-25T08:57:17Z</time>
      </trkpt>
      <trkpt lat="48.50313" lon="-2.71431">
        <ele>82.4</ele>
        <time>2026-01-25T08:57:18Z</time>
      </trkpt>
      <trkpt lat="48.50312" lon="-2.7144">
        <ele>82.4</ele>
        <time>2026-01-25T08:57:19Z</time>
      </trkpt>
      <trkpt lat="48.50311" lon="-2.71448">
        <ele>82.4</ele>
        <time>2026-01-25T08:57:20Z</time>
      </trkpt>
      <trkpt lat="48.5031" lon="-2.71456">
        <ele>82.4</ele>
        <time>2026-01-25T08:57:21Z</time>
      </trkpt>
      <trkpt lat="48.5031" lon="-2.71464">
        <ele>82.4</ele>
        <time>2026-01-25T08:57:22Z</time>
      </trkpt>
      <trkpt lat="48.50309" lon="-2.71471">
        <ele>83</ele>
        <time>2026-01-25T08:57:23Z</time>
      </trkpt>
      <trkpt lat="48.50307" lon="-2.71479">
        <ele>83</ele>
        <time>2026-01-25T08:57:24Z</time>
      </trkpt>
      <trkpt lat="48.50306" lon="-2.71487">
        <ele>83</ele>
        <time>2026-01-25T08:57:25Z</time>
      </trkpt>
      <trkpt lat="48.50305" lon="-2.71494">
        <ele>83.6</ele>
        <time>2026-01-25T08:57:26Z</time>
      </trkpt>
      <trkpt lat="48.50305" lon="-2.71502">
        <ele>83.2</ele>
        <time>2026-01-25T08:57:27Z</time>
      </trkpt>
      <trkpt lat="48.50304" lon="-2.71509">
        <ele>83.2</ele>
        <time>2026-01-25T08:57:28Z</time>
      </trkpt>
      <trkpt lat="48.50304" lon="-2.71516">
        <ele>83.2</ele>
        <time>2026-01-25T08:57:29Z</time>
      </trkpt>
      <trkpt lat="48.50306" lon="-2.71522">
        <ele>83.6</ele>
        <time>2026-01-25T08:57:30Z</time>
      </trkpt>
      <trkpt lat="48.50308" lon="-2.71527">
        <ele>84</ele>
        <time>2026-01-25T08:57:31Z</time>
      </trkpt>
      <trkpt lat="48.50312" lon="-2.7153">
        <ele>84</ele>
        <time>2026-01-25T08:57:32Z</time>
      </trkpt>
      <trkpt lat="48.50317" lon="-2.71532">
        <ele>84</ele>
        <time>2026-01-25T08:57:33Z</time>
      </trkpt>
      <trkpt lat="48.50322" lon="-2.71532">
        <ele>84</ele>
        <time>2026-01-25T08:57:34Z</time>
      </trkpt>
      <trkpt lat="48.50327" lon="-2.71532">
        <ele>83.2</ele>
        <time>2026-01-25T08:57:35Z</time>
      </trkpt>
      <trkpt lat="48.50332" lon="-2.71532">
        <ele>83.2</ele>
        <time>2026-01-25T08:57:36Z</time>
      </trkpt>
      <trkpt lat="48.50338" lon="-2.71532">
        <ele>83.2</ele>
        <time>2026-01-25T08:57:37Z</time>
      </trkpt>
      <trkpt lat="48.50344" lon="-2.71532">
        <ele>83.2</ele>
        <time>2026-01-25T08:57:38Z</time>
      </trkpt>
      <trkpt lat="48.5035" lon="-2.71532">
        <ele>83.2</ele>
        <time>2026-01-25T08:57:39Z</time>
      </trkpt>
      <trkpt lat="48.50356" lon="-2.71532">
        <ele>83.2</ele>
        <time>2026-01-25T08:57:40Z</time>
      </trkpt>
      <trkpt lat="48.50362" lon="-2.71533">
        <ele>83.2</ele>
        <time>2026-01-25T08:57:41Z</time>
      </trkpt>
      <trkpt lat="48.50368" lon="-2.71533">
        <ele>82.6</ele>
        <time>2026-01-25T08:57:42Z</time>
      </trkpt>
      <trkpt lat="48.50374" lon="-2.71533">
        <ele>83</ele>
        <time>2026-01-25T08:57:43Z</time>
      </trkpt>
      <trkpt lat="48.5038" lon="-2.71533">
        <ele>83</ele>
        <time>2026-01-25T08:57:44Z</time>
      </trkpt>
      <trkpt lat="48.50386" lon="-2.71532">
        <ele>83</ele>
        <time>2026-01-25T08:57:45Z</time>
      </trkpt>
      <trkpt lat="48.50392" lon="-2.71532">
        <ele>83</ele>
        <time>2026-01-25T08:57:46Z</time>
      </trkpt>
      <trkpt lat="48.50398" lon="-2.71531">
        <ele>82.6</ele>
        <time>2026-01-25T08:57:47Z</time>
      </trkpt>
      <trkpt lat="48.50404" lon="-2.7153">
        <ele>82.6</ele>
        <time>2026-01-25T08:57:48Z</time>
      </trkpt>
      <trkpt lat="48.50411" lon="-2.71529">
        <ele>82.6</ele>
        <time>2026-01-25T08:57:49Z</time>
      </trkpt>
      <trkpt lat="48.50417" lon="-2.71529">
        <ele>82.6</ele>
        <time>2026-01-25T08:57:50Z</time>
      </trkpt>
      <trkpt lat="48.50423" lon="-2.71527">
        <ele>82.6</ele>
        <time>2026-01-25T08:57:51Z</time>
      </trkpt>
      <trkpt lat="48.50429" lon="-2.71526">
        <ele>82.6</ele>
        <time>2026-01-25T08:57:52Z</time>
      </trkpt>
      <trkpt lat="48.50436" lon="-2.71525">
        <ele>82.6</ele>
        <time>2026-01-25T08:57:53Z</time>
      </trkpt>
      <trkpt lat="48.50442" lon="-2.71523">
        <ele>82.6</ele>
        <time>2026-01-25T08:57:54Z</time>
      </trkpt>
      <trkpt lat="48.50448" lon="-2.71522">
        <ele>82.2</ele>
        <time>2026-01-25T08:57:55Z</time>
      </trkpt>
      <trkpt lat="48.50455" lon="-2.7152">
        <ele>82.2</ele>
        <time>2026-01-25T08:57:56Z</time>
      </trkpt>
      <trkpt lat="48.50461" lon="-2.71519">
        <ele>82.2</ele>
        <time>2026-01-25T08:57:57Z</time>
      </trkpt>
      <trkpt lat="48.50468" lon="-2.71517">
        <ele>81.2</ele>
        <time>2026-01-25T08:57:58Z</time>
      </trkpt>
      <trkpt lat="48.50474" lon="-2.71514">
        <ele>82.4</ele>
        <time>2026-01-25T08:57:59Z</time>
      </trkpt>
      <trkpt lat="48.50481" lon="-2.71512">
        <ele>82.4</ele>
        <time>2026-01-25T08:58:00Z</time>
      </trkpt>
      <trkpt lat="48.50487" lon="-2.7151">
        <ele>82.4</ele>
        <time>2026-01-25T08:58:01Z</time>
      </trkpt>
      <trkpt lat="48.50494" lon="-2.71508">
        <ele>82.4</ele>
        <time>2026-01-25T08:58:02Z</time>
      </trkpt>
      <trkpt lat="48.505" lon="-2.71506">
        <ele>82</ele>
        <time>2026-01-25T08:58:03Z</time>
      </trkpt>
      <trkpt lat="48.50507" lon="-2.71504">
        <ele>82</ele>
        <time>2026-01-25T08:58:04Z</time>
      </trkpt>
      <trkpt lat="48.50513" lon="-2.71502">
        <ele>82</ele>
        <time>2026-01-25T08:58:05Z</time>
      </trkpt>
      <trkpt lat="48.5052" lon="-2.715">
        <ele>82</ele>
        <time>2026-01-25T08:58:06Z</time>
      </trkpt>
      <trkpt lat="48.50527" lon="-2.71498">
        <ele>82</ele>
        <time>2026-01-25T08:58:07Z</time>
      </trkpt>
      <trkpt lat="48.50533" lon="-2.71496">
        <ele>82</ele>
        <time>2026-01-25T08:58:08Z</time>
      </trkpt>
      <trkpt lat="48.5054" lon="-2.71494">
        <ele>82</ele>
        <time>2026-01-25T08:58:09Z</time>
      </trkpt>
      <trkpt lat="48.50546" lon="-2.71493">
        <ele>82</ele>
        <time>2026-01-25T08:58:10Z</time>
      </trkpt>
      <trkpt lat="48.50553" lon="-2.71491">
        <ele>81.8</ele>
        <time>2026-01-25T08:58:11Z</time>
      </trkpt>
      <trkpt lat="48.50559" lon="-2.7149">
        <ele>81.8</ele>
        <time>2026-01-25T08:58:12Z</time>
      </trkpt>
      <trkpt lat="48.50566" lon="-2.7149">
        <ele>81.8</ele>
        <time>2026-01-25T08:58:13Z</time>
      </trkpt>
      <trkpt lat="48.50572" lon="-2.7149">
        <ele>81.6</ele>
        <time>2026-01-25T08:58:14Z</time>
      </trkpt>
      <trkpt lat="48.50578" lon="-2.7149">
        <ele>81</ele>
        <time>2026-01-25T08:58:15Z</time>
      </trkpt>
      <trkpt lat="48.50585" lon="-2.71491">
        <ele>81</ele>
        <time>2026-01-25T08:58:16Z</time>
      </trkpt>
      <trkpt lat="48.50591" lon="-2.71492">
        <ele>81</ele>
        <time>2026-01-25T08:58:17Z</time>
      </trkpt>
      <trkpt lat="48.50597" lon="-2.71493">
        <ele>81.4</ele>
        <time>2026-01-25T08:58:18Z</time>
      </trkpt>
      <trkpt lat="48.50604" lon="-2.71494">
        <ele>80.8</ele>
        <time>2026-01-25T08:58:19Z</time>
      </trkpt>
      <trkpt lat="48.5061" lon="-2.71495">
        <ele>80.8</ele>
        <time>2026-01-25T08:58:20Z</time>
      </trkpt>
      <trkpt lat="48.50617" lon="-2.71495">
        <ele>80.8</ele>
        <time>2026-01-25T08:58:21Z</time>
      </trkpt>
      <trkpt lat="48.50624" lon="-2.71496">
        <ele>79.8</ele>
        <time>2026-01-25T08:58:22Z</time>
      </trkpt>
      <trkpt lat="48.50631" lon="-2.71497">
        <ele>79</ele>
        <time>2026-01-25T08:58:23Z</time>
      </trkpt>
      <trkpt lat="48.50638" lon="-2.71498">
        <ele>79</ele>
        <time>2026-01-25T08:58:24Z</time>
      </trkpt>
      <trkpt lat="48.50645" lon="-2.71498">
        <ele>79</ele>
        <time>2026-01-25T08:58:25Z</time>
      </trkpt>
      <trkpt lat="48.50653" lon="-2.71499">
        <ele>78</ele>
        <time>2026-01-25T08:58:26Z</time>
      </trkpt>
      <trkpt lat="48.50661" lon="-2.71499">
        <ele>77.6</ele>
        <time>2026-01-25T08:58:27Z</time>
      </trkpt>
      <trkpt lat="48.50669" lon="-2.71497">
        <ele>77.6</ele>
        <time>2026-01-25T08:58:28Z</time>
      </trkpt>
      <trkpt lat="48.50677" lon="-2.71495">
        <ele>77.6</ele>
        <time>2026-01-25T08:58:29Z</time>
      </trkpt>
      <trkpt lat="48.50684" lon="-2.71491">
        <ele>77.6</ele>
        <time>2026-01-25T08:58:30Z</time>
      </trkpt>
      <trkpt lat="48.50692" lon="-2.71487">
        <ele>75.4</ele>
        <time>2026-01-25T08:58:31Z</time>
      </trkpt>
      <trkpt lat="48.507" lon="-2.71481">
        <ele>75.4</ele>
        <time>2026-01-25T08:58:32Z</time>
      </trkpt>
      <trkpt lat="48.50707" lon="-2.71475">
        <ele>75.4</ele>
        <time>2026-01-25T08:58:33Z</time>
      </trkpt>
      <trkpt lat="48.50714" lon="-2.71468">
        <ele>74.4</ele>
        <time>2026-01-25T08:58:34Z</time>
      </trkpt>
      <trkpt lat="48.50721" lon="-2.71462">
        <ele>73.6</ele>
        <time>2026-01-25T08:58:35Z</time>
      </trkpt>
      <trkpt lat="48.50727" lon="-2.71454">
        <ele>73.6</ele>
        <time>2026-01-25T08:58:36Z</time>
      </trkpt>
      <trkpt lat="48.50732" lon="-2.71447">
        <ele>73.6</ele>
        <time>2026-01-25T08:58:37Z</time>
      </trkpt>
      <trkpt lat="48.50736" lon="-2.71439">
        <ele>73.6</ele>
        <time>2026-01-25T08:58:38Z</time>
      </trkpt>
      <trkpt lat="48.50742" lon="-2.71431">
        <ele>72.8</ele>
        <time>2026-01-25T08:58:39Z</time>
      </trkpt>
      <trkpt lat="48.50747" lon="-2.71423">
        <ele>72.8</ele>
        <time>2026-01-25T08:58:40Z</time>
      </trkpt>
      <trkpt lat="48.50752" lon="-2.71415">
        <ele>72.8</ele>
        <time>2026-01-25T08:58:41Z</time>
      </trkpt>
      <trkpt lat="48.50757" lon="-2.71407">
        <ele>71.8</ele>
        <time>2026-01-25T08:58:42Z</time>
      </trkpt>
      <trkpt lat="48.50763" lon="-2.71399">
        <ele>72.4</ele>
        <time>2026-01-25T08:58:43Z</time>
      </trkpt>
      <trkpt lat="48.50768" lon="-2.7139">
        <ele>72.4</ele>
        <time>2026-01-25T08:58:44Z</time>
      </trkpt>
      <trkpt lat="48.50773" lon="-2.71381">
        <ele>72.4</ele>
        <time>2026-01-25T08:58:45Z</time>
      </trkpt>
      <trkpt lat="48.50778" lon="-2.71372">
        <ele>71.4</ele>
        <time>2026-01-25T08:58:46Z</time>
      </trkpt>
      <trkpt lat="48.50783" lon="-2.71362">
        <ele>70.2</ele>
        <time>2026-01-25T08:58:47Z</time>
      </trkpt>
      <trkpt lat="48.50787" lon="-2.71352">
        <ele>70.2</ele>
        <time>2026-01-25T08:58:48Z</time>
      </trkpt>
      <trkpt lat="48.50792" lon="-2.71342">
        <ele>70.2</ele>
        <time>2026-01-25T08:58:49Z</time>
      </trkpt>
      <trkpt lat="48.50796" lon="-2.71332">
        <ele>69.2</ele>
        <time>2026-01-25T08:58:50Z</time>
      </trkpt>
      <trkpt lat="48.508" lon="-2.71321">
        <ele>68.6</ele>
        <time>2026-01-25T08:58:51Z</time>
      </trkpt>
      <trkpt lat="48.50804" lon="-2.71309">
        <ele>68.6</ele>
        <time>2026-01-25T08:58:52Z</time>
      </trkpt>
      <trkpt lat="48.50808" lon="-2.71298">
        <ele>68.6</ele>
        <time>2026-01-25T08:58:53Z</time>
      </trkpt>
      <trkpt lat="48.50811" lon="-2.71286">
        <ele>68.6</ele>
        <time>2026-01-25T08:58:54Z</time>
      </trkpt>
      <trkpt lat="48.50814" lon="-2.71274">
        <ele>67.4</ele>
        <time>2026-01-25T08:58:55Z</time>
      </trkpt>
      <trkpt lat="48.50817" lon="-2.71262">
        <ele>67.4</ele>
        <time>2026-01-25T08:58:56Z</time>
      </trkpt>
      <trkpt lat="48.50819" lon="-2.7125">
        <ele>67.4</ele>
        <time>2026-01-25T08:58:57Z</time>
      </trkpt>
      <trkpt lat="48.50821" lon="-2.71237">
        <ele>66.4</ele>
        <time>2026-01-25T08:58:58Z</time>
      </trkpt>
      <trkpt lat="48.50823" lon="-2.71224">
        <ele>65.8</ele>
        <time>2026-01-25T08:58:59Z</time>
      </trkpt>
      <trkpt lat="48.50826" lon="-2.7121">
        <ele>65.8</ele>
        <time>2026-01-25T08:59:00Z</time>
      </trkpt>
      <trkpt lat="48.50828" lon="-2.71197">
        <ele>65.8</ele>
        <time>2026-01-25T08:59:01Z</time>
      </trkpt>
      <trkpt lat="48.5083" lon="-2.71184">
        <ele>64.8</ele>
        <time>2026-01-25T08:59:02Z</time>
      </trkpt>
      <trkpt lat="48.50832" lon="-2.7117">
        <ele>63</ele>
        <time>2026-01-25T08:59:03Z</time>
      </trkpt>
      <trkpt lat="48.50833" lon="-2.71157">
        <ele>63</ele>
        <time>2026-01-25T08:59:04Z</time>
      </trkpt>
      <trkpt lat="48.50835" lon="-2.71143">
        <ele>63</ele>
        <time>2026-01-25T08:59:05Z</time>
      </trkpt>
      <trkpt lat="48.50837" lon="-2.71128">
        <ele>62</ele>
        <time>2026-01-25T08:59:06Z</time>
      </trkpt>
      <trkpt lat="48.50839" lon="-2.71114">
        <ele>59.8</ele>
        <time>2026-01-25T08:59:07Z</time>
      </trkpt>
      <trkpt lat="48.50841" lon="-2.711">
        <ele>59.8</ele>
        <time>2026-01-25T08:59:08Z</time>
      </trkpt>
      <trkpt lat="48.50843" lon="-2.71085">
        <ele>59.8</ele>
        <time>2026-01-25T08:59:09Z</time>
      </trkpt>
      <trkpt lat="48.50845" lon="-2.71071">
        <ele>59.8</ele>
        <time>2026-01-25T08:59:10Z</time>
      </trkpt>
      <trkpt lat="48.50847" lon="-2.71056">
        <ele>57.2</ele>
        <time>2026-01-25T08:59:11Z</time>
      </trkpt>
      <trkpt lat="48.50849" lon="-2.71041">
        <ele>57.2</ele>
        <time>2026-01-25T08:59:12Z</time>
      </trkpt>
      <trkpt lat="48.50851" lon="-2.71026">
        <ele>57.2</ele>
        <time>2026-01-25T08:59:13Z</time>
      </trkpt>
      <trkpt lat="48.50852" lon="-2.71011">
        <ele>56.2</ele>
        <time>2026-01-25T08:59:14Z</time>
      </trkpt>
      <trkpt lat="48.50854" lon="-2.70996">
        <ele>54.4</ele>
        <time>2026-01-25T08:59:15Z</time>
      </trkpt>
      <trkpt lat="48.50856" lon="-2.70981">
        <ele>54.4</ele>
        <time>2026-01-25T08:59:16Z</time>
      </trkpt>
      <trkpt lat="48.50858" lon="-2.70966">
        <ele>54.4</ele>
        <time>2026-01-25T08:59:17Z</time>
      </trkpt>
      <trkpt lat="48.50861" lon="-2.7095">
        <ele>53.4</ele>
        <time>2026-01-25T08:59:18Z</time>
      </trkpt>
      <trkpt lat="48.50863" lon="-2.70935">
        <ele>52.2</ele>
        <time>2026-01-25T08:59:19Z</time>
      </trkpt>
      <trkpt lat="48.50866" lon="-2.7092">
        <ele>52.2</ele>
        <time>2026-01-25T08:59:20Z</time>
      </trkpt>
      <trkpt lat="48.50869" lon="-2.70905">
        <ele>52.2</ele>
        <time>2026-01-25T08:59:21Z</time>
      </trkpt>
      <trkpt lat="48.50872" lon="-2.7089">
        <ele>51.2</ele>
        <time>2026-01-25T08:59:22Z</time>
      </trkpt>
      <trkpt lat="48.50875" lon="-2.70875">
        <ele>50.6</ele>
        <time>2026-01-25T08:59:23Z</time>
      </trkpt>
      <trkpt lat="48.50878" lon="-2.7086">
        <ele>50.6</ele>
        <time>2026-01-25T08:59:24Z</time>
      </trkpt>
      <trkpt lat="48.50881" lon="-2.70846">
        <ele>50.6</ele>
        <time>2026-01-25T08:59:25Z</time>
      </trkpt>
      <trkpt lat="48.50884" lon="-2.70832">
        <ele>49.6</ele>
        <time>2026-01-25T08:59:26Z</time>
      </trkpt>
      <trkpt lat="48.50887" lon="-2.70818">
        <ele>47.6</ele>
        <time>2026-01-25T08:59:27Z</time>
      </trkpt>
      <trkpt lat="48.5089" lon="-2.70804">
        <ele>47.6</ele>
        <time>2026-01-25T08:59:28Z</time>
      </trkpt>
      <trkpt lat="48.50893" lon="-2.70792">
        <ele>47.6</ele>
        <time>2026-01-25T08:59:29Z</time>
      </trkpt>
      <trkpt lat="48.50897" lon="-2.70779">
        <ele>47.6</ele>
        <time>2026-01-25T08:59:30Z</time>
      </trkpt>
      <trkpt lat="48.509" lon="-2.70766">
        <ele>46.2</ele>
        <time>2026-01-25T08:59:31Z</time>
      </trkpt>
      <trkpt lat="48.50904" lon="-2.70753">
        <ele>46.2</ele>
        <time>2026-01-25T08:59:32Z</time>
      </trkpt>
      <trkpt lat="48.50907" lon="-2.7074">
        <ele>46.2</ele>
        <time>2026-01-25T08:59:33Z</time>
      </trkpt>
      <trkpt lat="48.5091" lon="-2.70726">
        <ele>45.2</ele>
        <time>2026-01-25T08:59:34Z</time>
      </trkpt>
      <trkpt lat="48.50913" lon="-2.70713">
        <ele>43.4</ele>
        <time>2026-01-25T08:59:35Z</time>
      </trkpt>
      <trkpt lat="48.50915" lon="-2.70699">
        <ele>43.4</ele>
        <time>2026-01-25T08:59:36Z</time>
      </trkpt>
      <trkpt lat="48.50917" lon="-2.70686">
        <ele>43.4</ele>
        <time>2026-01-25T08:59:37Z</time>
      </trkpt>
      <trkpt lat="48.50919" lon="-2.70672">
        <ele>43.4</ele>
        <time>2026-01-25T08:59:38Z</time>
      </trkpt>
      <trkpt lat="48.50921" lon="-2.70659">
        <ele>43.4</ele>
        <time>2026-01-25T08:59:39Z</time>
      </trkpt>
      <trkpt lat="48.50923" lon="-2.70645">
        <ele>43.4</ele>
        <time>2026-01-25T08:59:40Z</time>
      </trkpt>
      <trkpt lat="48.50924" lon="-2.70631">
        <ele>43.4</ele>
        <time>2026-01-25T08:59:41Z</time>
      </trkpt>
      <trkpt lat="48.50925" lon="-2.70617">
        <ele>42.4</ele>
        <time>2026-01-25T08:59:42Z</time>
      </trkpt>
      <trkpt lat="48.50926" lon="-2.70605">
        <ele>42.2</ele>
        <time>2026-01-25T08:59:43Z</time>
      </trkpt>
      <trkpt lat="48.50926" lon="-2.70593">
        <ele>42.2</ele>
        <time>2026-01-25T08:59:44Z</time>
      </trkpt>
      <trkpt lat="48.50927" lon="-2.70584">
        <ele>42.2</ele>
        <time>2026-01-25T08:59:45Z</time>
      </trkpt>
      <trkpt lat="48.50928" lon="-2.70575">
        <ele>42.8</ele>
        <time>2026-01-25T08:59:46Z</time>
      </trkpt>
      <trkpt lat="48.50929" lon="-2.70567">
        <ele>43</ele>
        <time>2026-01-25T08:59:47Z</time>
      </trkpt>
      <trkpt lat="48.50929" lon="-2.70561">
        <ele>43</ele>
        <time>2026-01-25T08:59:48Z</time>
      </trkpt>
      <trkpt lat="48.5093" lon="-2.70556">
        <ele>43</ele>
        <time>2026-01-25T08:59:49Z</time>
      </trkpt>
      <trkpt lat="48.5093" lon="-2.70552">
        <ele>43</ele>
        <time>2026-01-25T08:59:50Z</time>
      </trkpt>
      <trkpt lat="48.50931" lon="-2.7055">
        <ele>43.6</ele>
        <time>2026-01-25T08:59:51Z</time>
      </trkpt>
      <trkpt lat="48.50931" lon="-2.70548">
        <ele>43.6</ele>
        <time>2026-01-25T08:59:52Z</time>
      </trkpt>
      <trkpt lat="48.50932" lon="-2.70545">
        <ele>43.6</ele>
        <time>2026-01-25T08:59:53Z</time>
      </trkpt>
      <trkpt lat="48.50934" lon="-2.70544">
        <ele>43</ele>
        <time>2026-01-25T08:59:54Z</time>
      </trkpt>
      <trkpt lat="48.50938" lon="-2.70543">
        <ele>42.8</ele>
        <time>2026-01-25T08:59:55Z</time>
      </trkpt>
      <trkpt lat="48.50943" lon="-2.70543">
        <ele>42.8</ele>
        <time>2026-01-25T08:59:56Z</time>
      </trkpt>
      <trkpt lat="48.50947" lon="-2.70546">
        <ele>42.8</ele>
        <time>2026-01-25T08:59:57Z</time>
      </trkpt>
      <trkpt lat="48.50951" lon="-2.70549">
        <ele>42.4</ele>
        <time>2026-01-25T08:59:58Z</time>
      </trkpt>
      <trkpt lat="48.50955" lon="-2.70553">
        <ele>42.4</ele>
        <time>2026-01-25T08:59:59Z</time>
      </trkpt>
      <trkpt lat="48.5096" lon="-2.70556">
        <ele>42.4</ele>
        <time>2026-01-25T09:00:00Z</time>
      </trkpt>
      <trkpt lat="48.50965" lon="-2.70561">
        <ele>42.4</ele>
        <time>2026-01-25T09:00:01Z</time>
      </trkpt>
      <trkpt lat="48.5097" lon="-2.70565">
        <ele>41.8</ele>
        <time>2026-01-25T09:00:02Z</time>
      </trkpt>
      <trkpt lat="48.50975" lon="-2.7057">
        <ele>41.6</ele>
        <time>2026-01-25T09:00:03Z</time>
      </trkpt>
      <trkpt lat="48.50981" lon="-2.70575">
        <ele>41.6</ele>
        <time>2026-01-25T09:00:04Z</time>
      </trkpt>
      <trkpt lat="48.50986" lon="-2.7058">
        <ele>41.6</ele>
        <time>2026-01-25T09:00:05Z</time>
      </trkpt>
      <trkpt lat="48.50991" lon="-2.70585">
        <ele>41.6</ele>
        <time>2026-01-25T09:00:06Z</time>
      </trkpt>
      <trkpt lat="48.50996" lon="-2.7059">
        <ele>42.4</ele>
        <time>2026-01-25T09:00:07Z</time>
      </trkpt>
      <trkpt lat="48.51001" lon="-2.70595">
        <ele>42.4</ele>
        <time>2026-01-25T09:00:08Z</time>
      </trkpt>
      <trkpt lat="48.51005" lon="-2.70601">
        <ele>42.4</ele>
        <time>2026-01-25T09:00:09Z</time>
      </trkpt>
      <trkpt lat="48.5101" lon="-2.70607">
        <ele>41.8</ele>
        <time>2026-01-25T09:00:10Z</time>
      </trkpt>
      <trkpt lat="48.51015" lon="-2.70613">
        <ele>41.8</ele>
        <time>2026-01-25T09:00:11Z</time>
      </trkpt>
      <trkpt lat="48.5102" lon="-2.70619">
        <ele>41.8</ele>
        <time>2026-01-25T09:00:12Z</time>
      </trkpt>
      <trkpt lat="48.51024" lon="-2.70625">
        <ele>41.8</ele>
        <time>2026-01-25T09:00:13Z</time>
      </trkpt>
      <trkpt lat="48.51029" lon="-2.70631">
        <ele>41.8</ele>
        <time>2026-01-25T09:00:14Z</time>
      </trkpt>
      <trkpt lat="48.51032" lon="-2.70638">
        <ele>43.2</ele>
        <time>2026-01-25T09:00:15Z</time>
      </trkpt>
      <trkpt lat="48.51036" lon="-2.70644">
        <ele>43.2</ele>
        <time>2026-01-25T09:00:16Z</time>
      </trkpt>
      <trkpt lat="48.51039" lon="-2.70651">
        <ele>43.2</ele>
        <time>2026-01-25T09:00:17Z</time>
      </trkpt>
      <trkpt lat="48.51042" lon="-2.70657">
        <ele>43.2</ele>
        <time>2026-01-25T09:00:18Z</time>
      </trkpt>
      <trkpt lat="48.51046" lon="-2.70664">
        <ele>43.4</ele>
        <time>2026-01-25T09:00:19Z</time>
      </trkpt>
      <trkpt lat="48.51049" lon="-2.7067">
        <ele>43.4</ele>
        <time>2026-01-25T09:00:20Z</time>
      </trkpt>
      <trkpt lat="48.51053" lon="-2.70676">
        <ele>43.4</ele>
        <time>2026-01-25T09:00:21Z</time>
      </trkpt>
      <trkpt lat="48.51056" lon="-2.70683">
        <ele>44.4</ele>
        <time>2026-01-25T09:00:22Z</time>
      </trkpt>
      <trkpt lat="48.5106" lon="-2.70689">
        <ele>44.8</ele>
        <time>2026-01-25T09:00:23Z</time>
      </trkpt>
      <trkpt lat="48.51064" lon="-2.70696">
        <ele>44.8</ele>
        <time>2026-01-25T09:00:24Z</time>
      </trkpt>
      <trkpt lat="48.51068" lon="-2.70702">
        <ele>44.8</ele>
        <time>2026-01-25T09:00:25Z</time>
      </trkpt>
      <trkpt lat="48.51071" lon="-2.70709">
        <ele>44.8</ele>
        <time>2026-01-25T09:00:26Z</time>
      </trkpt>
      <trkpt lat="48.51075" lon="-2.70715">
        <ele>44.6</ele>
        <time>2026-01-25T09:00:27Z</time>
      </trkpt>
      <trkpt lat="48.5108" lon="-2.7072">
        <ele>44.6</ele>
        <time>2026-01-25T09:00:28Z</time>
      </trkpt>
      <trkpt lat="48.51085" lon="-2.70725">
        <ele>44.6</ele>
        <time>2026-01-25T09:00:29Z</time>
      </trkpt>
      <trkpt lat="48.5109" lon="-2.7073">
        <ele>43.6</ele>
        <time>2026-01-25T09:00:30Z</time>
      </trkpt>
      <trkpt lat="48.51095" lon="-2.70735">
        <ele>44.8</ele>
        <time>2026-01-25T09:00:31Z</time>
      </trkpt>
      <trkpt lat="48.51101" lon="-2.7074">
        <ele>44.8</ele>
        <time>2026-01-25T09:00:32Z</time>
      </trkpt>
      <trkpt lat="48.51106" lon="-2.70745">
        <ele>44.8</ele>
        <time>2026-01-25T09:00:33Z</time>
      </trkpt>
      <trkpt lat="48.51112" lon="-2.70749">
        <ele>44</ele>
        <time>2026-01-25T09:00:34Z</time>
      </trkpt>
      <trkpt lat="48.51118" lon="-2.70753">
        <ele>43.8</ele>
        <time>2026-01-25T09:00:35Z</time>
      </trkpt>
      <trkpt lat="48.51124" lon="-2.70756">
        <ele>43.8</ele>
        <time>2026-01-25T09:00:36Z</time>
      </trkpt>
      <trkpt lat="48.5113" lon="-2.7076">
        <ele>43.8</ele>
        <time>2026-01-25T09:00:37Z</time>
      </trkpt>
      <trkpt lat="48.51136" lon="-2.70764">
        <ele>43.8</ele>
        <time>2026-01-25T09:00:38Z</time>
      </trkpt>
      <trkpt lat="48.51142" lon="-2.70767">
        <ele>44.6</ele>
        <time>2026-01-25T09:00:39Z</time>
      </trkpt>
      <trkpt lat="48.51148" lon="-2.70771">
        <ele>44.6</ele>
        <time>2026-01-25T09:00:40Z</time>
      </trkpt>
      <trkpt lat="48.51154" lon="-2.70775">
        <ele>44.6</ele>
        <time>2026-01-25T09:00:41Z</time>
      </trkpt>
      <trkpt lat="48.51159" lon="-2.7078">
        <ele>44.2</ele>
        <time>2026-01-25T09:00:42Z</time>
      </trkpt>
      <trkpt lat="48.51164" lon="-2.70785">
        <ele>43.8</ele>
        <time>2026-01-25T09:00:43Z</time>
      </trkpt>
      <trkpt lat="48.5117" lon="-2.70789">
        <ele>43.8</ele>
        <time>2026-01-25T09:00:44Z</time>
      </trkpt>
      <trkpt lat="48.51176" lon="-2.70794">
        <ele>43.8</ele>
        <time>2026-01-25T09:00:45Z</time>
      </trkpt>
      <trkpt lat="48.51182" lon="-2.70799">
        <ele>44.6</ele>
        <time>2026-01-25T09:00:46Z</time>
      </trkpt>
      <trkpt lat="48.51187" lon="-2.70804">
        <ele>45</ele>
        <time>2026-01-25T09:00:47Z</time>
      </trkpt>
      <trkpt lat="48.51193" lon="-2.70809">
        <ele>45</ele>
        <time>2026-01-25T09:00:48Z</time>
      </trkpt>
      <trkpt lat="48.51198" lon="-2.70814">
        <ele>45</ele>
        <time>2026-01-25T09:00:49Z</time>
      </trkpt>
      <trkpt lat="48.51203" lon="-2.7082">
        <ele>45.2</ele>
        <time>2026-01-25T09:00:50Z</time>
      </trkpt>
      <trkpt lat="48.51208" lon="-2.70827">
        <ele>45</ele>
        <time>2026-01-25T09:00:51Z</time>
      </trkpt>
      <trkpt lat="48.51213" lon="-2.70833">
        <ele>45</ele>
        <time>2026-01-25T09:00:52Z</time>
      </trkpt>
      <trkpt lat="48.51218" lon="-2.70839">
        <ele>45</ele>
        <time>2026-01-25T09:00:53Z</time>
      </trkpt>
      <trkpt lat="48.51222" lon="-2.70845">
        <ele>45.2</ele>
        <time>2026-01-25T09:00:54Z</time>
      </trkpt>
      <trkpt lat="48.51227" lon="-2.70852">
        <ele>46.4</ele>
        <time>2026-01-25T09:00:55Z</time>
      </trkpt>
      <trkpt lat="48.51231" lon="-2.70858">
        <ele>46.4</ele>
        <time>2026-01-25T09:00:56Z</time>
      </trkpt>
      <trkpt lat="48.51236" lon="-2.70864">
        <ele>46.4</ele>
        <time>2026-01-25T09:00:57Z</time>
      </trkpt>
      <trkpt lat="48.5124" lon="-2.70869">
        <ele>46.6</ele>
        <time>2026-01-25T09:00:58Z</time>
      </trkpt>
      <trkpt lat="48.51245" lon="-2.70875">
        <ele>47</ele>
        <time>2026-01-25T09:00:59Z</time>
      </trkpt>
      <trkpt lat="48.51251" lon="-2.70879">
        <ele>47</ele>
        <time>2026-01-25T09:01:00Z</time>
      </trkpt>
      <trkpt lat="48.51256" lon="-2.70882">
        <ele>47</ele>
        <time>2026-01-25T09:01:01Z</time>
      </trkpt>
      <trkpt lat="48.51262" lon="-2.70884">
        <ele>47</ele>
        <time>2026-01-25T09:01:02Z</time>
      </trkpt>
      <trkpt lat="48.51268" lon="-2.70886">
        <ele>47.6</ele>
        <time>2026-01-25T09:01:03Z</time>
      </trkpt>
      <trkpt lat="48.51275" lon="-2.70886">
        <ele>47.6</ele>
        <time>2026-01-25T09:01:04Z</time>
      </trkpt>
      <trkpt lat="48.51282" lon="-2.70886">
        <ele>47.6</ele>
        <time>2026-01-25T09:01:05Z</time>
      </trkpt>
      <trkpt lat="48.5129" lon="-2.70887">
        <ele>47.2</ele>
        <time>2026-01-25T09:01:06Z</time>
      </trkpt>
      <trkpt lat="48.51297" lon="-2.70888">
        <ele>47.4</ele>
        <time>2026-01-25T09:01:07Z</time>
      </trkpt>
      <trkpt lat="48.51304" lon="-2.70889">
        <ele>47.4</ele>
        <time>2026-01-25T09:01:08Z</time>
      </trkpt>
      <trkpt lat="48.51311" lon="-2.7089">
        <ele>47.4</ele>
        <time>2026-01-25T09:01:09Z</time>
      </trkpt>
      <trkpt lat="48.51318" lon="-2.70891">
        <ele>48</ele>
        <time>2026-01-25T09:01:10Z</time>
      </trkpt>
      <trkpt lat="48.51326" lon="-2.70893">
        <ele>47.8</ele>
        <time>2026-01-25T09:01:11Z</time>
      </trkpt>
      <trkpt lat="48.51333" lon="-2.70895">
        <ele>47.8</ele>
        <time>2026-01-25T09:01:12Z</time>
      </trkpt>
      <trkpt lat="48.51339" lon="-2.70898">
        <ele>47.8</ele>
        <time>2026-01-25T09:01:13Z</time>
      </trkpt>
      <trkpt lat="48.51345" lon="-2.70903">
        <ele>47.8</ele>
        <time>2026-01-25T09:01:14Z</time>
      </trkpt>
      <trkpt lat="48.5135" lon="-2.70909">
        <ele>48</ele>
        <time>2026-01-25T09:01:15Z</time>
      </trkpt>
      <trkpt lat="48.51353" lon="-2.70918">
        <ele>48</ele>
        <time>2026-01-25T09:01:16Z</time>
      </trkpt>
      <trkpt lat="48.51355" lon="-2.70927">
        <ele>48</ele>
        <time>2026-01-25T09:01:17Z</time>
      </trkpt>
      <trkpt lat="48.51357" lon="-2.70936">
        <ele>48</ele>
        <time>2026-01-25T09:01:18Z</time>
      </trkpt>
      <trkpt lat="48.51358" lon="-2.70945">
        <ele>47.6</ele>
        <time>2026-01-25T09:01:19Z</time>
      </trkpt>
      <trkpt lat="48.51361" lon="-2.70954">
        <ele>47.6</ele>
        <time>2026-01-25T09:01:20Z</time>
      </trkpt>
      <trkpt lat="48.51364" lon="-2.70962">
        <ele>47.6</ele>
        <time>2026-01-25T09:01:21Z</time>
      </trkpt>
      <trkpt lat="48.51369" lon="-2.70969">
        <ele>47.6</ele>
        <time>2026-01-25T09:01:22Z</time>
      </trkpt>
      <trkpt lat="48.51375" lon="-2.70976">
        <ele>45.8</ele>
        <time>2026-01-25T09:01:23Z</time>
      </trkpt>
      <trkpt lat="48.51381" lon="-2.70982">
        <ele>45.8</ele>
        <time>2026-01-25T09:01:24Z</time>
      </trkpt>
      <trkpt lat="48.51388" lon="-2.70986">
        <ele>45.8</ele>
        <time>2026-01-25T09:01:25Z</time>
      </trkpt>
      <trkpt lat="48.51396" lon="-2.70989">
        <ele>44.8</ele>
        <time>2026-01-25T09:01:26Z</time>
      </trkpt>
      <trkpt lat="48.51403" lon="-2.70993">
        <ele>44</ele>
        <time>2026-01-25T09:01:27Z</time>
      </trkpt>
      <trkpt lat="48.51411" lon="-2.70996">
        <ele>44</ele>
        <time>2026-01-25T09:01:28Z</time>
      </trkpt>
      <trkpt lat="48.51418" lon="-2.70999">
        <ele>44</ele>
        <time>2026-01-25T09:01:29Z</time>
      </trkpt>
      <trkpt lat="48.51426" lon="-2.71003">
        <ele>44</ele>
        <time>2026-01-25T09:01:30Z</time>
      </trkpt>
      <trkpt lat="48.51433" lon="-2.71007">
        <ele>42.2</ele>
        <time>2026-01-25T09:01:31Z</time>
      </trkpt>
      <trkpt lat="48.51441" lon="-2.7101">
        <ele>42.2</ele>
        <time>2026-01-25T09:01:32Z</time>
      </trkpt>
      <trkpt lat="48.51449" lon="-2.71014">
        <ele>42.2</ele>
        <time>2026-01-25T09:01:33Z</time>
      </trkpt>
      <trkpt lat="48.51457" lon="-2.71019">
        <ele>41.2</ele>
        <time>2026-01-25T09:01:34Z</time>
      </trkpt>
      <trkpt lat="48.51464" lon="-2.71023">
        <ele>37.4</ele>
        <time>2026-01-25T09:01:35Z</time>
      </trkpt>
      <trkpt lat="48.51472" lon="-2.71027">
        <ele>37.4</ele>
        <time>2026-01-25T09:01:36Z</time>
      </trkpt>
      <trkpt lat="48.51479" lon="-2.7103">
        <ele>37.4</ele>
        <time>2026-01-25T09:01:37Z</time>
      </trkpt>
      <trkpt lat="48.51486" lon="-2.71034">
        <ele>36.4</ele>
        <time>2026-01-25T09:01:38Z</time>
      </trkpt>
      <trkpt lat="48.51494" lon="-2.71038">
        <ele>32</ele>
        <time>2026-01-25T09:01:39Z</time>
      </trkpt>
      <trkpt lat="48.51503" lon="-2.71041">
        <ele>32</ele>
        <time>2026-01-25T09:01:40Z</time>
      </trkpt>
      <trkpt lat="48.51513" lon="-2.71045">
        <ele>32</ele>
        <time>2026-01-25T09:01:41Z</time>
      </trkpt>
      <trkpt lat="48.51522" lon="-2.71049">
        <ele>31</ele>
        <time>2026-01-25T09:01:42Z</time>
      </trkpt>
      <trkpt lat="48.51531" lon="-2.71052">
        <ele>27.8</ele>
        <time>2026-01-25T09:01:43Z</time>
      </trkpt>
      <trkpt lat="48.5154" lon="-2.71055">
        <ele>27.8</ele>
        <time>2026-01-25T09:01:44Z</time>
      </trkpt>
      <trkpt lat="48.51548" lon="-2.71057">
        <ele>27.8</ele>
        <time>2026-01-25T09:01:45Z</time>
      </trkpt>
      <trkpt lat="48.51557" lon="-2.71059">
        <ele>26.8</ele>
        <time>2026-01-25T09:01:46Z</time>
      </trkpt>
      <trkpt lat="48.51566" lon="-2.7106">
        <ele>26</ele>
        <time>2026-01-25T09:01:47Z</time>
      </trkpt>
      <trkpt lat="48.51574" lon="-2.7106">
        <ele>26</ele>
        <time>2026-01-25T09:01:48Z</time>
      </trkpt>
      <trkpt lat="48.51582" lon="-2.71061">
        <ele>26</ele>
        <time>2026-01-25T09:01:49Z</time>
      </trkpt>
      <trkpt lat="48.5159" lon="-2.71061">
        <ele>25</ele>
        <time>2026-01-25T09:01:50Z</time>
      </trkpt>
      <trkpt lat="48.51597" lon="-2.71062">
        <ele>23.2</ele>
        <time>2026-01-25T09:01:51Z</time>
      </trkpt>
      <trkpt lat="48.51605" lon="-2.71062">
        <ele>23.2</ele>
        <time>2026-01-25T09:01:52Z</time>
      </trkpt>
      <trkpt lat="48.51613" lon="-2.71063">
        <ele>23.2</ele>
        <time>2026-01-25T09:01:53Z</time>
      </trkpt>
      <trkpt lat="48.51621" lon="-2.71064">
        <ele>22.2</ele>
        <time>2026-01-25T09:01:54Z</time>
      </trkpt>
      <trkpt lat="48.51629" lon="-2.71066">
        <ele>18.8</ele>
        <time>2026-01-25T09:01:55Z</time>
      </trkpt>
      <trkpt lat="48.51638" lon="-2.71069">
        <ele>18.8</ele>
        <time>2026-01-25T09:01:56Z</time>
      </trkpt>
      <trkpt lat="48.51647" lon="-2.71072">
        <ele>18.8</ele>
        <time>2026-01-25T09:01:57Z</time>
      </trkpt>
      <trkpt lat="48.51656" lon="-2.71076">
        <ele>17.8</ele>
        <time>2026-01-25T09:01:58Z</time>
      </trkpt>
      <trkpt lat="48.51665" lon="-2.71081">
        <ele>14</ele>
        <time>2026-01-25T09:01:59Z</time>
      </trkpt>
      <trkpt lat="48.51674" lon="-2.71087">
        <ele>14</ele>
        <time>2026-01-25T09:02:00Z</time>
      </trkpt>
      <trkpt lat="48.51684" lon="-2.71094">
        <ele>14</ele>
        <time>2026-01-25T09:02:01Z</time>
      </trkpt>
      <trkpt lat="48.51694" lon="-2.71101">
        <ele>13</ele>
        <time>2026-01-25T09:02:02Z</time>
      </trkpt>
      <trkpt lat="48.51703" lon="-2.7111">
        <ele>6</ele>
        <time>2026-01-25T09:02:03Z</time>
      </trkpt>
      <trkpt lat="48.51713" lon="-2.7112">
        <ele>6</ele>
        <time>2026-01-25T09:02:04Z</time>
      </trkpt>
      <trkpt lat="48.51722" lon="-2.71132">
        <ele>6</ele>
        <time>2026-01-25T09:02:05Z</time>
      </trkpt>
      <trkpt lat="48.51731" lon="-2.71145">
        <ele>5</ele>
        <time>2026-01-25T09:02:06Z</time>
      </trkpt>
      <trkpt lat="48.51739" lon="-2.7116">
        <ele>0.8</ele>
        <time>2026-01-25T09:02:07Z</time>
      </trkpt>
      <trkpt lat="48.51746" lon="-2.71175">
        <ele>0.8</ele>
        <time>2026-01-25T09:02:08Z</time>
      </trkpt>
      <trkpt lat="48.51752" lon="-2.71191">
        <ele>0.8</ele>
        <time>2026-01-25T09:02:09Z</time>
      </trkpt>
      <trkpt lat="48.51757" lon="-2.71207">
        <ele>0.8</ele>
        <time>2026-01-25T09:02:10Z</time>
      </trkpt>
      <trkpt lat="48.51761" lon="-2.71222">
        <ele>2.2</ele>
        <time>2026-01-25T09:02:11Z</time>
      </trkpt>
      <trkpt lat="48.51765" lon="-2.71238">
        <ele>2.2</ele>
        <time>2026-01-25T09:02:12Z</time>
      </trkpt>
      <trkpt lat="48.5177" lon="-2.71253">
        <ele>2.2</ele>
        <time>2026-01-25T09:02:13Z</time>
      </trkpt>
      <trkpt lat="48.51774" lon="-2.71268">
        <ele>2.2</ele>
        <time>2026-01-25T09:02:14Z</time>
      </trkpt>
      <trkpt lat="48.51778" lon="-2.71283">
        <ele>3</ele>
        <time>2026-01-25T09:02:15Z</time>
      </trkpt>
      <trkpt lat="48.51782" lon="-2.71297">
        <ele>3</ele>
        <time>2026-01-25T09:02:16Z</time>
      </trkpt>
      <trkpt lat="48.51787" lon="-2.71311">
        <ele>3</ele>
        <time>2026-01-25T09:02:17Z</time>
      </trkpt>
      <trkpt lat="48.51792" lon="-2.71324">
        <ele>3</ele>
        <time>2026-01-25T09:02:18Z</time>
      </trkpt>
      <trkpt lat="48.51796" lon="-2.71337">
        <ele>3.8</ele>
        <time>2026-01-25T09:02:19Z</time>
      </trkpt>
      <trkpt lat="48.51801" lon="-2.7135">
        <ele>3.8</ele>
        <time>2026-01-25T09:02:20Z</time>
      </trkpt>
      <trkpt lat="48.51806" lon="-2.71363">
        <ele>3.8</ele>
        <time>2026-01-25T09:02:21Z</time>
      </trkpt>
      <trkpt lat="48.5181" lon="-2.71376">
        <ele>3.8</ele>
        <time>2026-01-25T09:02:22Z</time>
      </trkpt>
      <trkpt lat="48.51815" lon="-2.71388">
        <ele>4.6</ele>
        <time>2026-01-25T09:02:23Z</time>
      </trkpt>
      <trkpt lat="48.51819" lon="-2.714">
        <ele>4.6</ele>
        <time>2026-01-25T09:02:24Z</time>
      </trkpt>
      <trkpt lat="48.51824" lon="-2.71412">
        <ele>4.6</ele>
        <time>2026-01-25T09:02:25Z</time>
      </trkpt>
      <trkpt lat="48.51828" lon="-2.71424">
        <ele>4.6</ele>
        <time>2026-01-25T09:02:26Z</time>
      </trkpt>
      <trkpt lat="48.51833" lon="-2.71435">
        <ele>4.6</ele>
        <time>2026-01-25T09:02:27Z</time>
      </trkpt>
      <trkpt lat="48.51837" lon="-2.71447">
        <ele>4.6</ele>
        <time>2026-01-25T09:02:28Z</time>
      </trkpt>
      <trkpt lat="48.51842" lon="-2.71458">
        <ele>4.6</ele>
        <time>2026-01-25T09:02:29Z</time>
      </trkpt>
      <trkpt lat="48.51846" lon="-2.7147">
        <ele>4.6</ele>
        <time>2026-01-25T09:02:30Z</time>
      </trkpt>
      <trkpt lat="48.5185" lon="-2.71482">
        <ele>5</ele>
        <time>2026-01-25T09:02:31Z</time>
      </trkpt>
      <trkpt lat="48.51855" lon="-2.71494">
        <ele>5</ele>
        <time>2026-01-25T09:02:32Z</time>
      </trkpt>
      <trkpt lat="48.51859" lon="-2.71505">
        <ele>5</ele>
        <time>2026-01-25T09:02:33Z</time>
      </trkpt>
      <trkpt lat="48.51864" lon="-2.71517">
        <ele>4.2</ele>
        <time>2026-01-25T09:02:34Z</time>
      </trkpt>
      <trkpt lat="48.51868" lon="-2.71529">
        <ele>3.8</ele>
        <time>2026-01-25T09:02:35Z</time>
      </trkpt>
      <trkpt lat="48.51873" lon="-2.7154">
        <ele>3.8</ele>
        <time>2026-01-25T09:02:36Z</time>
      </trkpt>
      <trkpt lat="48.51878" lon="-2.71552">
        <ele>3.8</ele>
        <time>2026-01-25T09:02:37Z</time>
      </trkpt>
      <trkpt lat="48.51882" lon="-2.71564">
        <ele>3.2</ele>
        <time>2026-01-25T09:02:38Z</time>
      </trkpt>
      <trkpt lat="48.51887" lon="-2.71575">
        <ele>3</ele>
        <time>2026-01-25T09:02:39Z</time>
      </trkpt>
      <trkpt lat="48.51891" lon="-2.71586">
        <ele>3</ele>
        <time>2026-01-25T09:02:40Z</time>
      </trkpt>
      <trkpt lat="48.51895" lon="-2.71598">
        <ele>3</ele>
        <time>2026-01-25T09:02:41Z</time>
      </trkpt>
      <trkpt lat="48.519" lon="-2.71609">
        <ele>3</ele>
        <time>2026-01-25T09:02:42Z</time>
      </trkpt>
      <trkpt lat="48.51905" lon="-2.7162">
        <ele>2.8</ele>
        <time>2026-01-25T09:02:43Z</time>
      </trkpt>
      <trkpt lat="48.5191" lon="-2.71631">
        <ele>2.8</ele>
        <time>2026-01-25T09:02:44Z</time>
      </trkpt>
      <trkpt lat="48.51915" lon="-2.71641">
        <ele>2.8</ele>
        <time>2026-01-25T09:02:45Z</time>
      </trkpt>
      <trkpt lat="48.5192" lon="-2.7165">
        <ele>2.8</ele>
        <time>2026-01-25T09:02:46Z</time>
      </trkpt>
      <trkpt lat="48.51926" lon="-2.71658">
        <ele>5.4</ele>
        <time>2026-01-25T09:02:47Z</time>
      </trkpt>
      <trkpt lat="48.51931" lon="-2.71665">
        <ele>5.4</ele>
        <time>2026-01-25T09:02:48Z</time>
      </trkpt>
      <trkpt lat="48.51935" lon="-2.71669">
        <ele>5.4</ele>
        <time>2026-01-25T09:02:49Z</time>
      </trkpt>
      <trkpt lat="48.51938" lon="-2.71672">
        <ele>6.4</ele>
        <time>2026-01-25T09:02:50Z</time>
      </trkpt>
      <trkpt lat="48.5194" lon="-2.71674">
        <ele>11</ele>
        <time>2026-01-25T09:02:51Z</time>
      </trkpt>
      <trkpt lat="48.51942" lon="-2.71675">
        <ele>11</ele>
        <time>2026-01-25T09:02:52Z</time>
      </trkpt>
      <trkpt lat="48.51944" lon="-2.71676">
        <ele>11</ele>
        <time>2026-01-25T09:02:53Z</time>
      </trkpt>
      <trkpt lat="48.51946" lon="-2.71677">
        <ele>12</ele>
        <time>2026-01-25T09:02:54Z</time>
      </trkpt>
      <trkpt lat="48.51948" lon="-2.71677">
        <ele>12.8</ele>
        <time>2026-01-25T09:02:55Z</time>
      </trkpt>
      <trkpt lat="48.51949" lon="-2.71678">
        <ele>12.8</ele>
        <time>2026-01-25T09:02:56Z</time>
      </trkpt>
      <trkpt lat="48.51951" lon="-2.71678">
        <ele>12.8</ele>
        <time>2026-01-25T09:02:57Z</time>
      </trkpt>
      <trkpt lat="48.51953" lon="-2.71679">
        <ele>13.8</ele>
        <time>2026-01-25T09:02:58Z</time>
      </trkpt>
      <trkpt lat="48.51954" lon="-2.71679">
        <ele>14.8</ele>
        <time>2026-01-25T09:02:59Z</time>
      </trkpt>
      <trkpt lat="48.51956" lon="-2.7168">
        <ele>14.8</ele>
        <time>2026-01-25T09:03:00Z</time>
      </trkpt>
      <trkpt lat="48.51957" lon="-2.7168">
        <ele>14.8</ele>
        <time>2026-01-25T09:03:01Z</time>
      </trkpt>
      <trkpt lat="48.51959" lon="-2.7168">
        <ele>15.8</ele>
        <time>2026-01-25T09:03:02Z</time>
      </trkpt>
      <trkpt lat="48.51961" lon="-2.71681">
        <ele>16.4</ele>
        <time>2026-01-25T09:03:03Z</time>
      </trkpt>
      <trkpt lat="48.51962" lon="-2.71681">
        <ele>16.4</ele>
        <time>2026-01-25T09:03:04Z</time>
      </trkpt>
      <trkpt lat="48.51964" lon="-2.71681">
        <ele>16.4</ele>
        <time>2026-01-25T09:03:05Z</time>
      </trkpt>
      <trkpt lat="48.51966" lon="-2.71681">
        <ele>17.4</ele>
        <time>2026-01-25T09:03:06Z</time>
      </trkpt>
      <trkpt lat="48.51967" lon="-2.71681">
        <ele>18.2</ele>
        <time>2026-01-25T09:03:07Z</time>
      </trkpt>
      <trkpt lat="48.51969" lon="-2.71681">
        <ele>18.2</ele>
        <time>2026-01-25T09:03:08Z</time>
      </trkpt>
      <trkpt lat="48.51971" lon="-2.71681">
        <ele>18.2</ele>
        <time>2026-01-25T09:03:09Z</time>
      </trkpt>
      <trkpt lat="48.51973" lon="-2.71681">
        <ele>19.2</ele>
        <time>2026-01-25T09:03:10Z</time>
      </trkpt>
      <trkpt lat="48.51974" lon="-2.71681">
        <ele>19.6</ele>
        <time>2026-01-25T09:03:11Z</time>
      </trkpt>
      <trkpt lat="48.51976" lon="-2.71682">
        <ele>19.6</ele>
        <time>2026-01-25T09:03:12Z</time>
      </trkpt>
      <trkpt lat="48.51977" lon="-2.71682">
        <ele>19.6</ele>
        <time>2026-01-25T09:03:13Z</time>
      </trkpt>
      <trkpt lat="48.51979" lon="-2.71683">
        <ele>20.6</ele>
        <time>2026-01-25T09:03:14Z</time>
      </trkpt>
      <trkpt lat="48.51981" lon="-2.71684">
        <ele>21.6</ele>
        <time>2026-01-25T09:03:15Z</time>
      </trkpt>
      <trkpt lat="48.51982" lon="-2.71684">
        <ele>21.6</ele>
        <time>2026-01-25T09:03:16Z</time>
      </trkpt>
      <trkpt lat="48.51984" lon="-2.71684">
        <ele>21.6</ele>
        <time>2026-01-25T09:03:17Z</time>
      </trkpt>
      <trkpt lat="48.51986" lon="-2.71684">
        <ele>22.4</ele>
        <time>2026-01-25T09:03:18Z</time>
      </trkpt>
      <trkpt lat="48.51987" lon="-2.71685">
        <ele>22.8</ele>
        <time>2026-01-25T09:03:19Z</time>
      </trkpt>
      <trkpt lat="48.51989" lon="-2.71685">
        <ele>22.8</ele>
        <time>2026-01-25T09:03:20Z</time>
      </trkpt>
      <trkpt lat="48.5199" lon="-2.71685">
        <ele>22.8</ele>
        <time>2026-01-25T09:03:21Z</time>
      </trkpt>
      <trkpt lat="48.51992" lon="-2.71686">
        <ele>23.8</ele>
        <time>2026-01-25T09:03:22Z</time>
      </trkpt>
      <trkpt lat="48.51994" lon="-2.71688">
        <ele>24.2</ele>
        <time>2026-01-25T09:03:23Z</time>
      </trkpt>
      <trkpt lat="48.51995" lon="-2.71689">
        <ele>24.2</ele>
        <time>2026-01-25T09:03:24Z</time>
      </trkpt>
      <trkpt lat="48.51997" lon="-2.71689">
        <ele>24.2</ele>
        <time>2026-01-25T09:03:25Z</time>
      </trkpt>
      <trkpt lat="48.51998" lon="-2.7169">
        <ele>25.2</ele>
        <time>2026-01-25T09:03:26Z</time>
      </trkpt>
      <trkpt lat="48.52001" lon="-2.71691">
        <ele>25.6</ele>
        <time>2026-01-25T09:03:27Z</time>
      </trkpt>
      <trkpt lat="48.52002" lon="-2.71691">
        <ele>25.6</ele>
        <time>2026-01-25T09:03:28Z</time>
      </trkpt>
      <trkpt lat="48.52004" lon="-2.71693">
        <ele>25.6</ele>
        <time>2026-01-25T09:03:29Z</time>
      </trkpt>
      <trkpt lat="48.52006" lon="-2.71694">
        <ele>26.6</ele>
        <time>2026-01-25T09:03:30Z</time>
      </trkpt>
      <trkpt lat="48.52008" lon="-2.71696">
        <ele>27.4</ele>
        <time>2026-01-25T09:03:31Z</time>
      </trkpt>
      <trkpt lat="48.52009" lon="-2.71698">
        <ele>27.4</ele>
        <time>2026-01-25T09:03:32Z</time>
      </trkpt>
      <trkpt lat="48.5201" lon="-2.717">
        <ele>27.4</ele>
        <time>2026-01-25T09:03:33Z</time>
      </trkpt>
      <trkpt lat="48.52012" lon="-2.71702">
        <ele>27.4</ele>
        <time>2026-01-25T09:03:34Z</time>
      </trkpt>
      <trkpt lat="48.52013" lon="-2.71704">
        <ele>28</ele>
        <time>2026-01-25T09:03:35Z</time>
      </trkpt>
      <trkpt lat="48.52015" lon="-2.71706">
        <ele>28</ele>
        <time>2026-01-25T09:03:36Z</time>
      </trkpt>
      <trkpt lat="48.52016" lon="-2.71708">
        <ele>28</ele>
        <time>2026-01-25T09:03:37Z</time>
      </trkpt>
      <trkpt lat="48.52018" lon="-2.7171">
        <ele>28.8</ele>
        <time>2026-01-25T09:03:38Z</time>
      </trkpt>
      <trkpt lat="48.52019" lon="-2.71712">
        <ele>29.2</ele>
        <time>2026-01-25T09:03:39Z</time>
      </trkpt>
      <trkpt lat="48.52021" lon="-2.71713">
        <ele>29.2</ele>
        <time>2026-01-25T09:03:40Z</time>
      </trkpt>
      <trkpt lat="48.52022" lon="-2.71715">
        <ele>29.2</ele>
        <time>2026-01-25T09:03:41Z</time>
      </trkpt>
      <trkpt lat="48.52024" lon="-2.71717">
        <ele>29.2</ele>
        <time>2026-01-25T09:03:42Z</time>
      </trkpt>
      <trkpt lat="48.52025" lon="-2.71719">
        <ele>29.6</ele>
        <time>2026-01-25T09:03:43Z</time>
      </trkpt>
      <trkpt lat="48.52027" lon="-2.71721">
        <ele>29.6</ele>
        <time>2026-01-25T09:03:44Z</time>
      </trkpt>
      <trkpt lat="48.52028" lon="-2.71723">
        <ele>29.6</ele>
        <time>2026-01-25T09:03:45Z</time>
      </trkpt>
      <trkpt lat="48.52029" lon="-2.71725">
        <ele>30.6</ele>
        <time>2026-01-25T09:03:46Z</time>
      </trkpt>
      <trkpt lat="48.52031" lon="-2.71728">
        <ele>31</ele>
        <time>2026-01-25T09:03:47Z</time>
      </trkpt>
      <trkpt lat="48.52032" lon="-2.7173">
        <ele>31</ele>
        <time>2026-01-25T09:03:48Z</time>
      </trkpt>
      <trkpt lat="48.52033" lon="-2.71732">
        <ele>31</ele>
        <time>2026-01-25T09:03:49Z</time>
      </trkpt>
      <trkpt lat="48.52035" lon="-2.71734">
        <ele>31.8</ele>
        <time>2026-01-25T09:03:50Z</time>
      </trkpt>
      <trkpt lat="48.52036" lon="-2.71736">
        <ele>31.8</ele>
        <time>2026-01-25T09:03:51Z</time>
      </trkpt>
      <trkpt lat="48.52038" lon="-2.71738">
        <ele>31.8</ele>
        <time>2026-01-25T09:03:52Z</time>
      </trkpt>
      <trkpt lat="48.52039" lon="-2.7174">
        <ele>31.8</ele>
        <time>2026-01-25T09:03:53Z</time>
      </trkpt>
      <trkpt lat="48.52041" lon="-2.71743">
        <ele>32.4</ele>
        <time>2026-01-25T09:03:54Z</time>
      </trkpt>
      <trkpt lat="48.52042" lon="-2.71745">
        <ele>33</ele>
        <time>2026-01-25T09:03:55Z</time>
      </trkpt>
      <trkpt lat="48.52043" lon="-2.71748">
        <ele>33</ele>
        <time>2026-01-25T09:03:56Z</time>
      </trkpt>
      <trkpt lat="48.52045" lon="-2.71751">
        <ele>33</ele>
        <time>2026-01-25T09:03:57Z</time>
      </trkpt>
      <trkpt lat="48.52046" lon="-2.71754">
        <ele>33</ele>
        <time>2026-01-25T09:03:58Z</time>
      </trkpt>
      <trkpt lat="48.52047" lon="-2.71756">
        <ele>33.2</ele>
        <time>2026-01-25T09:03:59Z</time>
      </trkpt>
      <trkpt lat="48.52049" lon="-2.71759">
        <ele>33.2</ele>
        <time>2026-01-25T09:04:00Z</time>
      </trkpt>
      <trkpt lat="48.5205" lon="-2.71762">
        <ele>33.2</ele>
        <time>2026-01-25T09:04:01Z</time>
      </trkpt>
      <trkpt lat="48.52052" lon="-2.71766">
        <ele>33</ele>
        <time>2026-01-25T09:04:02Z</time>
      </trkpt>
      <trkpt lat="48.52054" lon="-2.71769">
        <ele>33.2</ele>
        <time>2026-01-25T09:04:03Z</time>
      </trkpt>
      <trkpt lat="48.52055" lon="-2.71772">
        <ele>33.2</ele>
        <time>2026-01-25T09:04:04Z</time>
      </trkpt>
      <trkpt lat="48.52057" lon="-2.71776">
        <ele>33.2</ele>
        <time>2026-01-25T09:04:05Z</time>
      </trkpt>
      <trkpt lat="48.52059" lon="-2.7178">
        <ele>33.6</ele>
        <time>2026-01-25T09:04:06Z</time>
      </trkpt>
      <trkpt lat="48.5206" lon="-2.71784">
        <ele>33.6</ele>
        <time>2026-01-25T09:04:07Z</time>
      </trkpt>
      <trkpt lat="48.52062" lon="-2.71787">
        <ele>33.6</ele>
        <time>2026-01-25T09:04:08Z</time>
      </trkpt>
      <trkpt lat="48.52064" lon="-2.71791">
        <ele>33.6</ele>
        <time>2026-01-25T09:04:09Z</time>
      </trkpt>
      <trkpt lat="48.52066" lon="-2.71795">
        <ele>33.6</ele>
        <time>2026-01-25T09:04:10Z</time>
      </trkpt>
      <trkpt lat="48.52068" lon="-2.71799">
        <ele>34</ele>
        <time>2026-01-25T09:04:11Z</time>
      </trkpt>
      <trkpt lat="48.52069" lon="-2.71803">
        <ele>34</ele>
        <time>2026-01-25T09:04:12Z</time>
      </trkpt>
      <trkpt lat="48.52071" lon="-2.71806">
        <ele>34</ele>
        <time>2026-01-25T09:04:13Z</time>
      </trkpt>
      <trkpt lat="48.52073" lon="-2.7181">
        <ele>33.8</ele>
        <time>2026-01-25T09:04:14Z</time>
      </trkpt>
      <trkpt lat="48.52074" lon="-2.71814">
        <ele>34</ele>
        <time>2026-01-25T09:04:15Z</time>
      </trkpt>
      <trkpt lat="48.52076" lon="-2.71818">
        <ele>34</ele>
        <time>2026-01-25T09:04:16Z</time>
      </trkpt>
      <trkpt lat="48.52078" lon="-2.71821">
        <ele>34</ele>
        <time>2026-01-25T09:04:17Z</time>
      </trkpt>
      <trkpt lat="48.5208" lon="-2.71825">
        <ele>34.6</ele>
        <time>2026-01-25T09:04:18Z</time>
      </trkpt>
      <trkpt lat="48.52081" lon="-2.71829">
        <ele>34.8</ele>
        <time>2026-01-25T09:04:19Z</time>
      </trkpt>
      <trkpt lat="48.52083" lon="-2.71833">
        <ele>34.8</ele>
        <time>2026-01-25T09:04:20Z</time>
      </trkpt>
      <trkpt lat="48.52085" lon="-2.71836">
        <ele>34.8</ele>
        <time>2026-01-25T09:04:21Z</time>
      </trkpt>
      <trkpt lat="48.52087" lon="-2.7184">
        <ele>35.2</ele>
        <time>2026-01-25T09:04:22Z</time>
      </trkpt>
      <trkpt lat="48.52088" lon="-2.71844">
        <ele>35.6</ele>
        <time>2026-01-25T09:04:23Z</time>
      </trkpt>
      <trkpt lat="48.5209" lon="-2.71848">
        <ele>35.6</ele>
        <time>2026-01-25T09:04:24Z</time>
      </trkpt>
      <trkpt lat="48.52092" lon="-2.71852">
        <ele>35.6</ele>
        <time>2026-01-25T09:04:25Z</time>
      </trkpt>
      <trkpt lat="48.52093" lon="-2.71856">
        <ele>35.6</ele>
        <time>2026-01-25T09:04:26Z</time>
      </trkpt>
      <trkpt lat="48.52095" lon="-2.71859">
        <ele>36</ele>
        <time>2026-01-25T09:04:27Z</time>
      </trkpt>
      <trkpt lat="48.52097" lon="-2.71863">
        <ele>36</ele>
        <time>2026-01-25T09:04:28Z</time>
      </trkpt>
      <trkpt lat="48.52098" lon="-2.71867">
        <ele>36</ele>
        <time>2026-01-25T09:04:29Z</time>
      </trkpt>
      <trkpt lat="48.521" lon="-2.71871">
        <ele>36.8</ele>
        <time>2026-01-25T09:04:30Z</time>
      </trkpt>
      <trkpt lat="48.52101" lon="-2.71875">
        <ele>36.4</ele>
        <time>2026-01-25T09:04:31Z</time>
      </trkpt>
      <trkpt lat="48.52103" lon="-2.71879">
        <ele>36.4</ele>
        <time>2026-01-25T09:04:32Z</time>
      </trkpt>
      <trkpt lat="48.52105" lon="-2.71883">
        <ele>36.4</ele>
        <time>2026-01-25T09:04:33Z</time>
      </trkpt>
      <trkpt lat="48.52106" lon="-2.71887">
        <ele>37.4</ele>
        <time>2026-01-25T09:04:34Z</time>
      </trkpt>
      <trkpt lat="48.52108" lon="-2.7189">
        <ele>37.6</ele>
        <time>2026-01-25T09:04:35Z</time>
      </trkpt>
      <trkpt lat="48.5211" lon="-2.71894">
        <ele>37.6</ele>
        <time>2026-01-25T09:04:36Z</time>
      </trkpt>
      <trkpt lat="48.52111" lon="-2.71898">
        <ele>37.6</ele>
        <time>2026-01-25T09:04:37Z</time>
      </trkpt>
      <trkpt lat="48.52113" lon="-2.71902">
        <ele>37.6</ele>
        <time>2026-01-25T09:04:38Z</time>
      </trkpt>
      <trkpt lat="48.52114" lon="-2.71906">
        <ele>38.6</ele>
        <time>2026-01-25T09:04:39Z</time>
      </trkpt>
      <trkpt lat="48.52116" lon="-2.7191">
        <ele>38.6</ele>
        <time>2026-01-25T09:04:40Z</time>
      </trkpt>
      <trkpt lat="48.52117" lon="-2.71913">
        <ele>38.6</ele>
        <time>2026-01-25T09:04:41Z</time>
      </trkpt>
      <trkpt lat="48.52118" lon="-2.71917">
        <ele>39</ele>
        <time>2026-01-25T09:04:42Z</time>
      </trkpt>
      <trkpt lat="48.5212" lon="-2.71921">
        <ele>39.2</ele>
        <time>2026-01-25T09:04:43Z</time>
      </trkpt>
      <trkpt lat="48.52122" lon="-2.71925">
        <ele>39.2</ele>
        <time>2026-01-25T09:04:44Z</time>
      </trkpt>
      <trkpt lat="48.52123" lon="-2.71928">
        <ele>39.2</ele>
        <time>2026-01-25T09:04:45Z</time>
      </trkpt>
      <trkpt lat="48.52125" lon="-2.71932">
        <ele>39.4</ele>
        <time>2026-01-25T09:04:46Z</time>
      </trkpt>
      <trkpt lat="48.52126" lon="-2.71936">
        <ele>39.8</ele>
        <time>2026-01-25T09:04:47Z</time>
      </trkpt>
      <trkpt lat="48.52127" lon="-2.7194">
        <ele>39.8</ele>
        <time>2026-01-25T09:04:48Z</time>
      </trkpt>
      <trkpt lat="48.52129" lon="-2.71944">
        <ele>39.8</ele>
        <time>2026-01-25T09:04:49Z</time>
      </trkpt>
      <trkpt lat="48.5213" lon="-2.71948">
        <ele>40.6</ele>
        <time>2026-01-25T09:04:50Z</time>
      </trkpt>
      <trkpt lat="48.52131" lon="-2.71952">
        <ele>40.4</ele>
        <time>2026-01-25T09:04:51Z</time>
      </trkpt>
      <trkpt lat="48.52133" lon="-2.71955">
        <ele>40.4</ele>
        <time>2026-01-25T09:04:52Z</time>
      </trkpt>
      <trkpt lat="48.52134" lon="-2.71959">
        <ele>40.4</ele>
        <time>2026-01-25T09:04:53Z</time>
      </trkpt>
      <trkpt lat="48.52136" lon="-2.71963">
        <ele>41.2</ele>
        <time>2026-01-25T09:04:54Z</time>
      </trkpt>
      <trkpt lat="48.52137" lon="-2.71966">
        <ele>41.2</ele>
        <time>2026-01-25T09:04:55Z</time>
      </trkpt>
      <trkpt lat="48.52139" lon="-2.7197">
        <ele>41.2</ele>
        <time>2026-01-25T09:04:56Z</time>
      </trkpt>
      <trkpt lat="48.5214" lon="-2.71974">
        <ele>41.2</ele>
        <time>2026-01-25T09:04:57Z</time>
      </trkpt>
      <trkpt lat="48.52142" lon="-2.71977">
        <ele>42.2</ele>
        <time>2026-01-25T09:04:58Z</time>
      </trkpt>
      <trkpt lat="48.52143" lon="-2.71981">
        <ele>42.2</ele>
        <time>2026-01-25T09:04:59Z</time>
      </trkpt>
      <trkpt lat="48.52145" lon="-2.71984">
        <ele>42.2</ele>
        <time>2026-01-25T09:05:00Z</time>
      </trkpt>
      <trkpt lat="48.52147" lon="-2.71988">
        <ele>42.2</ele>
        <time>2026-01-25T09:05:01Z</time>
      </trkpt>
      <trkpt lat="48.5215" lon="-2.71991">
        <ele>42.8</ele>
        <time>2026-01-25T09:05:02Z</time>
      </trkpt>
      <trkpt lat="48.52152" lon="-2.71994">
        <ele>43.6</ele>
        <time>2026-01-25T09:05:03Z</time>
      </trkpt>
      <trkpt lat="48.52154" lon="-2.71997">
        <ele>43.6</ele>
        <time>2026-01-25T09:05:04Z</time>
      </trkpt>
      <trkpt lat="48.52156" lon="-2.72">
        <ele>43.6</ele>
        <time>2026-01-25T09:05:05Z</time>
      </trkpt>
      <trkpt lat="48.52159" lon="-2.72003">
        <ele>43.4</ele>
        <time>2026-01-25T09:05:06Z</time>
      </trkpt>
      <trkpt lat="48.52161" lon="-2.72005">
        <ele>43.8</ele>
        <time>2026-01-25T09:05:07Z</time>
      </trkpt>
      <trkpt lat="48.52164" lon="-2.72008">
        <ele>43.8</ele>
        <time>2026-01-25T09:05:08Z</time>
      </trkpt>
      <trkpt lat="48.52166" lon="-2.72011">
        <ele>43.8</ele>
        <time>2026-01-25T09:05:09Z</time>
      </trkpt>
      <trkpt lat="48.52169" lon="-2.72013">
        <ele>44.6</ele>
        <time>2026-01-25T09:05:10Z</time>
      </trkpt>
      <trkpt lat="48.52171" lon="-2.72016">
        <ele>44.2</ele>
        <time>2026-01-25T09:05:11Z</time>
      </trkpt>
      <trkpt lat="48.52174" lon="-2.72019">
        <ele>44.2</ele>
        <time>2026-01-25T09:05:12Z</time>
      </trkpt>
      <trkpt lat="48.52176" lon="-2.72022">
        <ele>44.2</ele>
        <time>2026-01-25T09:05:13Z</time>
      </trkpt>
      <trkpt lat="48.52179" lon="-2.72024">
        <ele>44.6</ele>
        <time>2026-01-25T09:05:14Z</time>
      </trkpt>
      <trkpt lat="48.52181" lon="-2.72027">
        <ele>45.4</ele>
        <time>2026-01-25T09:05:15Z</time>
      </trkpt>
      <trkpt lat="48.52184" lon="-2.72029">
        <ele>45.4</ele>
        <time>2026-01-25T09:05:16Z</time>
      </trkpt>
      <trkpt lat="48.52186" lon="-2.72031">
        <ele>45.4</ele>
        <time>2026-01-25T09:05:17Z</time>
      </trkpt>
      <trkpt lat="48.52189" lon="-2.72033">
        <ele>46.4</ele>
        <time>2026-01-25T09:05:18Z</time>
      </trkpt>
      <trkpt lat="48.52192" lon="-2.72036">
        <ele>46.8</ele>
        <time>2026-01-25T09:05:19Z</time>
      </trkpt>
      <trkpt lat="48.52195" lon="-2.72038">
        <ele>46.8</ele>
        <time>2026-01-25T09:05:20Z</time>
      </trkpt>
      <trkpt lat="48.52197" lon="-2.7204">
        <ele>46.8</ele>
        <time>2026-01-25T09:05:21Z</time>
      </trkpt>
      <trkpt lat="48.522" lon="-2.72042">
        <ele>47.8</ele>
        <time>2026-01-25T09:05:22Z</time>
      </trkpt>
      <trkpt lat="48.52203" lon="-2.72043">
        <ele>47.6</ele>
        <time>2026-01-25T09:05:23Z</time>
      </trkpt>
      <trkpt lat="48.52206" lon="-2.72045">
        <ele>47.6</ele>
        <time>2026-01-25T09:05:24Z</time>
      </trkpt>
      <trkpt lat="48.52209" lon="-2.72046">
        <ele>47.6</ele>
        <time>2026-01-25T09:05:25Z</time>
      </trkpt>
      <trkpt lat="48.52212" lon="-2.72047">
        <ele>48.6</ele>
        <time>2026-01-25T09:05:26Z</time>
      </trkpt>
      <trkpt lat="48.52214" lon="-2.72048">
        <ele>49.8</ele>
        <time>2026-01-25T09:05:27Z</time>
      </trkpt>
      <trkpt lat="48.52217" lon="-2.72049">
        <ele>49.8</ele>
        <time>2026-01-25T09:05:28Z</time>
      </trkpt>
      <trkpt lat="48.5222" lon="-2.7205">
        <ele>49.8</ele>
        <time>2026-01-25T09:05:29Z</time>
      </trkpt>
      <trkpt lat="48.52223" lon="-2.72051">
        <ele>49.8</ele>
        <time>2026-01-25T09:05:30Z</time>
      </trkpt>
      <trkpt lat="48.52226" lon="-2.72052">
        <ele>50.4</ele>
        <time>2026-01-25T09:05:31Z</time>
      </trkpt>
      <trkpt lat="48.52229" lon="-2.72052">
        <ele>50.4</ele>
        <time>2026-01-25T09:05:32Z</time>
      </trkpt>
      <trkpt lat="48.52232" lon="-2.72053">
        <ele>50.4</ele>
        <time>2026-01-25T09:05:33Z</time>
      </trkpt>
      <trkpt lat="48.52235" lon="-2.72054">
        <ele>51.2</ele>
        <time>2026-01-25T09:05:34Z</time>
      </trkpt>
      <trkpt lat="48.52238" lon="-2.72055">
        <ele>51.2</ele>
        <time>2026-01-25T09:05:35Z</time>
      </trkpt>
      <trkpt lat="48.52241" lon="-2.72056">
        <ele>51.2</ele>
        <time>2026-01-25T09:05:36Z</time>
      </trkpt>
      <trkpt lat="48.52244" lon="-2.72056">
        <ele>51.2</ele>
        <time>2026-01-25T09:05:37Z</time>
      </trkpt>
      <trkpt lat="48.52247" lon="-2.72058">
        <ele>51.4</ele>
        <time>2026-01-25T09:05:38Z</time>
      </trkpt>
      <trkpt lat="48.52251" lon="-2.72058">
        <ele>51.2</ele>
        <time>2026-01-25T09:05:39Z</time>
      </trkpt>
      <trkpt lat="48.52254" lon="-2.72059">
        <ele>51.2</ele>
        <time>2026-01-25T09:05:40Z</time>
      </trkpt>
      <trkpt lat="48.52257" lon="-2.7206">
        <ele>51.2</ele>
        <time>2026-01-25T09:05:41Z</time>
      </trkpt>
      <trkpt lat="48.52261" lon="-2.72062">
        <ele>51.2</ele>
        <time>2026-01-25T09:05:42Z</time>
      </trkpt>
      <trkpt lat="48.52264" lon="-2.72064">
        <ele>50.6</ele>
        <time>2026-01-25T09:05:43Z</time>
      </trkpt>
      <trkpt lat="48.52268" lon="-2.72065">
        <ele>50.6</ele>
        <time>2026-01-25T09:05:44Z</time>
      </trkpt>
      <trkpt lat="48.52271" lon="-2.72067">
        <ele>50.6</ele>
        <time>2026-01-25T09:05:45Z</time>
      </trkpt>
      <trkpt lat="48.52276" lon="-2.72069">
        <ele>50.6</ele>
        <time>2026-01-25T09:05:46Z</time>
      </trkpt>
      <trkpt lat="48.52279" lon="-2.72071">
        <ele>49.8</ele>
        <time>2026-01-25T09:05:47Z</time>
      </trkpt>
      <trkpt lat="48.52284" lon="-2.72073">
        <ele>49.8</ele>
        <time>2026-01-25T09:05:48Z</time>
      </trkpt>
      <trkpt lat="48.52288" lon="-2.72075">
        <ele>49.8</ele>
        <time>2026-01-25T09:05:49Z</time>
      </trkpt>
      <trkpt lat="48.52293" lon="-2.72077">
        <ele>49.8</ele>
        <time>2026-01-25T09:05:50Z</time>
      </trkpt>
      <trkpt lat="48.52299" lon="-2.7208">
        <ele>47.6</ele>
        <time>2026-01-25T09:05:51Z</time>
      </trkpt>
      <trkpt lat="48.52305" lon="-2.72083">
        <ele>47.6</ele>
        <time>2026-01-25T09:05:52Z</time>
      </trkpt>
      <trkpt lat="48.52311" lon="-2.72086">
        <ele>47.6</ele>
        <time>2026-01-25T09:05:53Z</time>
      </trkpt>
      <trkpt lat="48.52318" lon="-2.72089">
        <ele>46.6</ele>
        <time>2026-01-25T09:05:54Z</time>
      </trkpt>
      <trkpt lat="48.52325" lon="-2.72093">
        <ele>43.4</ele>
        <time>2026-01-25T09:05:55Z</time>
      </trkpt>
      <trkpt lat="48.52333" lon="-2.72097">
        <ele>43.4</ele>
        <time>2026-01-25T09:05:56Z</time>
      </trkpt>
      <trkpt lat="48.52341" lon="-2.72102">
        <ele>43.4</ele>
        <time>2026-01-25T09:05:57Z</time>
      </trkpt>
      <trkpt lat="48.52349" lon="-2.72107">
        <ele>42.4</ele>
        <time>2026-01-25T09:05:58Z</time>
      </trkpt>
      <trkpt lat="48.52357" lon="-2.72112">
        <ele>40</ele>
        <time>2026-01-25T09:05:59Z</time>
      </trkpt>
      <trkpt lat="48.52365" lon="-2.72117">
        <ele>40</ele>
        <time>2026-01-25T09:06:00Z</time>
      </trkpt>
      <trkpt lat="48.52373" lon="-2.72123">
        <ele>40</ele>
        <time>2026-01-25T09:06:01Z</time>
      </trkpt>
      <trkpt lat="48.52381" lon="-2.7213">
        <ele>40</ele>
        <time>2026-01-25T09:06:02Z</time>
      </trkpt>
      <trkpt lat="48.52388" lon="-2.72136">
        <ele>40.2</ele>
        <time>2026-01-25T09:06:03Z</time>
      </trkpt>
      <trkpt lat="48.52395" lon="-2.72142">
        <ele>40.2</ele>
        <time>2026-01-25T09:06:04Z</time>
      </trkpt>
      <trkpt lat="48.52403" lon="-2.72147">
        <ele>40.2</ele>
        <time>2026-01-25T09:06:05Z</time>
      </trkpt>
      <trkpt lat="48.5241" lon="-2.7215">
        <ele>40.2</ele>
        <time>2026-01-25T09:06:06Z</time>
      </trkpt>
      <trkpt lat="48.52418" lon="-2.72153">
        <ele>41</ele>
        <time>2026-01-25T09:06:07Z</time>
      </trkpt>
      <trkpt lat="48.52425" lon="-2.72155">
        <ele>41</ele>
        <time>2026-01-25T09:06:08Z</time>
      </trkpt>
      <trkpt lat="48.52432" lon="-2.72158">
        <ele>41</ele>
        <time>2026-01-25T09:06:09Z</time>
      </trkpt>
      <trkpt lat="48.52439" lon="-2.7216">
        <ele>40</ele>
        <time>2026-01-25T09:06:10Z</time>
      </trkpt>
      <trkpt lat="48.52447" lon="-2.72163">
        <ele>39.8</ele>
        <time>2026-01-25T09:06:11Z</time>
      </trkpt>
      <trkpt lat="48.52454" lon="-2.72165">
        <ele>39.8</ele>
        <time>2026-01-25T09:06:12Z</time>
      </trkpt>
      <trkpt lat="48.52461" lon="-2.72167">
        <ele>39.8</ele>
        <time>2026-01-25T09:06:13Z</time>
      </trkpt>
      <trkpt lat="48.52467" lon="-2.72169">
        <ele>39.4</ele>
        <time>2026-01-25T09:06:14Z</time>
      </trkpt>
      <trkpt lat="48.52472" lon="-2.7217">
        <ele>38.8</ele>
        <time>2026-01-25T09:06:15Z</time>
      </trkpt>
      <trkpt lat="48.52478" lon="-2.72171">
        <ele>38.8</ele>
        <time>2026-01-25T09:06:16Z</time>
      </trkpt>
      <trkpt lat="48.52484" lon="-2.72172">
        <ele>38.8</ele>
        <time>2026-01-25T09:06:17Z</time>
      </trkpt>
      <trkpt lat="48.52491" lon="-2.72173">
        <ele>37.8</ele>
        <time>2026-01-25T09:06:18Z</time>
      </trkpt>
      <trkpt lat="48.52497" lon="-2.72176">
        <ele>36.4</ele>
        <time>2026-01-25T09:06:19Z</time>
      </trkpt>
      <trkpt lat="48.52502" lon="-2.72182">
        <ele>36.4</ele>
        <time>2026-01-25T09:06:20Z</time>
      </trkpt>
      <trkpt lat="48.52509" lon="-2.72186">
        <ele>36.4</ele>
        <time>2026-01-25T09:06:21Z</time>
      </trkpt>
      <trkpt lat="48.52515" lon="-2.72191">
        <ele>36.4</ele>
        <time>2026-01-25T09:06:22Z</time>
      </trkpt>
      <trkpt lat="48.52522" lon="-2.72195">
        <ele>36</ele>
        <time>2026-01-25T09:06:23Z</time>
      </trkpt>
      <trkpt lat="48.52528" lon="-2.722">
        <ele>36</ele>
        <time>2026-01-25T09:06:24Z</time>
      </trkpt>
      <trkpt lat="48.52534" lon="-2.72206">
        <ele>36</ele>
        <time>2026-01-25T09:06:25Z</time>
      </trkpt>
      <trkpt lat="48.5254" lon="-2.72212">
        <ele>35.8</ele>
        <time>2026-01-25T09:06:26Z</time>
      </trkpt>
      <trkpt lat="48.52546" lon="-2.72218">
        <ele>36</ele>
        <time>2026-01-25T09:06:27Z</time>
      </trkpt>
      <trkpt lat="48.52552" lon="-2.72224">
        <ele>36</ele>
        <time>2026-01-25T09:06:28Z</time>
      </trkpt>
      <trkpt lat="48.52557" lon="-2.7223">
        <ele>36</ele>
        <time>2026-01-25T09:06:29Z</time>
      </trkpt>
      <trkpt lat="48.52563" lon="-2.72235">
        <ele>36</ele>
        <time>2026-01-25T09:06:30Z</time>
      </trkpt>
      <trkpt lat="48.52568" lon="-2.7224">
        <ele>37.8</ele>
        <time>2026-01-25T09:06:31Z</time>
      </trkpt>
      <trkpt lat="48.52572" lon="-2.72245">
        <ele>37.8</ele>
        <time>2026-01-25T09:06:32Z</time>
      </trkpt>
      <trkpt lat="48.52577" lon="-2.7225">
        <ele>37.8</ele>
        <time>2026-01-25T09:06:33Z</time>
      </trkpt>
      <trkpt lat="48.52581" lon="-2.72254">
        <ele>38.2</ele>
        <time>2026-01-25T09:06:34Z</time>
      </trkpt>
      <trkpt lat="48.52585" lon="-2.72259">
        <ele>38.8</ele>
        <time>2026-01-25T09:06:35Z</time>
      </trkpt>
      <trkpt lat="48.52589" lon="-2.72263">
        <ele>38.8</ele>
        <time>2026-01-25T09:06:36Z</time>
      </trkpt>
      <trkpt lat="48.52593" lon="-2.72267">
        <ele>38.8</ele>
        <time>2026-01-25T09:06:37Z</time>
      </trkpt>
      <trkpt lat="48.52597" lon="-2.72271">
        <ele>38.8</ele>
        <time>2026-01-25T09:06:38Z</time>
      </trkpt>
      <trkpt lat="48.526" lon="-2.72275">
        <ele>39.8</ele>
        <time>2026-01-25T09:06:39Z</time>
      </trkpt>
      <trkpt lat="48.52604" lon="-2.72279">
        <ele>39.8</ele>
        <time>2026-01-25T09:06:40Z</time>
      </trkpt>
      <trkpt lat="48.52608" lon="-2.72284">
        <ele>39.8</ele>
        <time>2026-01-25T09:06:41Z</time>
      </trkpt>
      <trkpt lat="48.52612" lon="-2.72288">
        <ele>39.8</ele>
        <time>2026-01-25T09:06:42Z</time>
      </trkpt>
      <trkpt lat="48.52615" lon="-2.72292">
        <ele>39.8</ele>
        <time>2026-01-25T09:06:43Z</time>
      </trkpt>
      <trkpt lat="48.52619" lon="-2.72296">
        <ele>39.8</ele>
        <time>2026-01-25T09:06:44Z</time>
      </trkpt>
      <trkpt lat="48.52623" lon="-2.723">
        <ele>39.8</ele>
        <time>2026-01-25T09:06:45Z</time>
      </trkpt>
      <trkpt lat="48.52627" lon="-2.72304">
        <ele>40.8</ele>
        <time>2026-01-25T09:06:46Z</time>
      </trkpt>
      <trkpt lat="48.52631" lon="-2.72308">
        <ele>40.8</ele>
        <time>2026-01-25T09:06:47Z</time>
      </trkpt>
      <trkpt lat="48.52635" lon="-2.72311">
        <ele>40.8</ele>
        <time>2026-01-25T09:06:48Z</time>
      </trkpt>
      <trkpt lat="48.52639" lon="-2.72315">
        <ele>40.8</ele>
        <time>2026-01-25T09:06:49Z</time>
      </trkpt>
      <trkpt lat="48.52643" lon="-2.72318">
        <ele>40.8</ele>
        <time>2026-01-25T09:06:50Z</time>
      </trkpt>
      <trkpt lat="48.52647" lon="-2.72322">
        <ele>41</ele>
        <time>2026-01-25T09:06:51Z</time>
      </trkpt>
      <trkpt lat="48.52651" lon="-2.72325">
        <ele>41</ele>
        <time>2026-01-25T09:06:52Z</time>
      </trkpt>
      <trkpt lat="48.52655" lon="-2.72329">
        <ele>41</ele>
        <time>2026-01-25T09:06:53Z</time>
      </trkpt>
      <trkpt lat="48.52659" lon="-2.72333">
        <ele>41</ele>
        <time>2026-01-25T09:06:54Z</time>
      </trkpt>
      <trkpt lat="48.52662" lon="-2.72337">
        <ele>42.4</ele>
        <time>2026-01-25T09:06:55Z</time>
      </trkpt>
      <trkpt lat="48.52666" lon="-2.72341">
        <ele>42.4</ele>
        <time>2026-01-25T09:06:56Z</time>
      </trkpt>
      <trkpt lat="48.52669" lon="-2.72346">
        <ele>42.4</ele>
        <time>2026-01-25T09:06:57Z</time>
      </trkpt>
      <trkpt lat="48.52671" lon="-2.72351">
        <ele>42.6</ele>
        <time>2026-01-25T09:06:58Z</time>
      </trkpt>
      <trkpt lat="48.52674" lon="-2.72356">
        <ele>43</ele>
        <time>2026-01-25T09:06:59Z</time>
      </trkpt>
      <trkpt lat="48.52677" lon="-2.72361">
        <ele>43</ele>
        <time>2026-01-25T09:07:00Z</time>
      </trkpt>
      <trkpt lat="48.5268" lon="-2.72366">
        <ele>43</ele>
        <time>2026-01-25T09:07:01Z</time>
      </trkpt>
      <trkpt lat="48.52683" lon="-2.72372">
        <ele>43</ele>
        <time>2026-01-25T09:07:02Z</time>
      </trkpt>
      <trkpt lat="48.52685" lon="-2.72377">
        <ele>44.6</ele>
        <time>2026-01-25T09:07:03Z</time>
      </trkpt>
      <trkpt lat="48.52688" lon="-2.72382">
        <ele>44.6</ele>
        <time>2026-01-25T09:07:04Z</time>
      </trkpt>
      <trkpt lat="48.5269" lon="-2.72388">
        <ele>44.6</ele>
        <time>2026-01-25T09:07:05Z</time>
      </trkpt>
      <trkpt lat="48.52693" lon="-2.72393">
        <ele>45.6</ele>
        <time>2026-01-25T09:07:06Z</time>
      </trkpt>
      <trkpt lat="48.52696" lon="-2.72399">
        <ele>46.2</ele>
        <time>2026-01-25T09:07:07Z</time>
      </trkpt>
      <trkpt lat="48.52698" lon="-2.72404">
        <ele>46.2</ele>
        <time>2026-01-25T09:07:08Z</time>
      </trkpt>
      <trkpt lat="48.52701" lon="-2.7241">
        <ele>46.2</ele>
        <time>2026-01-25T09:07:09Z</time>
      </trkpt>
      <trkpt lat="48.52703" lon="-2.72415">
        <ele>47</ele>
        <time>2026-01-25T09:07:10Z</time>
      </trkpt>
      <trkpt lat="48.52705" lon="-2.7242">
        <ele>47.4</ele>
        <time>2026-01-25T09:07:11Z</time>
      </trkpt>
      <trkpt lat="48.52708" lon="-2.72425">
        <ele>47.4</ele>
        <time>2026-01-25T09:07:12Z</time>
      </trkpt>
      <trkpt lat="48.5271" lon="-2.72429">
        <ele>47.4</ele>
        <time>2026-01-25T09:07:13Z</time>
      </trkpt>
      <trkpt lat="48.52712" lon="-2.72434">
        <ele>48</ele>
        <time>2026-01-25T09:07:14Z</time>
      </trkpt>
      <trkpt lat="48.52715" lon="-2.72439">
        <ele>48.4</ele>
        <time>2026-01-25T09:07:15Z</time>
      </trkpt>
      <trkpt lat="48.52717" lon="-2.72443">
        <ele>48.4</ele>
        <time>2026-01-25T09:07:16Z</time>
      </trkpt>
      <trkpt lat="48.52719" lon="-2.72448">
        <ele>48.4</ele>
        <time>2026-01-25T09:07:17Z</time>
      </trkpt>
      <trkpt lat="48.52721" lon="-2.72452">
        <ele>49.4</ele>
        <time>2026-01-25T09:07:18Z</time>
      </trkpt>
      <trkpt lat="48.52723" lon="-2.72455">
        <ele>49.8</ele>
        <time>2026-01-25T09:07:19Z</time>
      </trkpt>
      <trkpt lat="48.52726" lon="-2.72457">
        <ele>49.8</ele>
        <time>2026-01-25T09:07:20Z</time>
      </trkpt>
      <trkpt lat="48.52729" lon="-2.72457">
        <ele>49.8</ele>
        <time>2026-01-25T09:07:21Z</time>
      </trkpt>
      <trkpt lat="48.52732" lon="-2.72456">
        <ele>50.2</ele>
        <time>2026-01-25T09:07:22Z</time>
      </trkpt>
      <trkpt lat="48.52735" lon="-2.72453">
        <ele>50.4</ele>
        <time>2026-01-25T09:07:23Z</time>
      </trkpt>
      <trkpt lat="48.52738" lon="-2.72449">
        <ele>50.4</ele>
        <time>2026-01-25T09:07:24Z</time>
      </trkpt>
      <trkpt lat="48.5274" lon="-2.72445">
        <ele>50.4</ele>
        <time>2026-01-25T09:07:25Z</time>
      </trkpt>
      <trkpt lat="48.52744" lon="-2.72441">
        <ele>49.4</ele>
        <time>2026-01-25T09:07:26Z</time>
      </trkpt>
      <trkpt lat="48.52747" lon="-2.72437">
        <ele>50.2</ele>
        <time>2026-01-25T09:07:27Z</time>
      </trkpt>
      <trkpt lat="48.5275" lon="-2.72433">
        <ele>50.2</ele>
        <time>2026-01-25T09:07:28Z</time>
      </trkpt>
      <trkpt lat="48.52751" lon="-2.72429">
        <ele>50.2</ele>
        <time>2026-01-25T09:07:29Z</time>
      </trkpt>
      <trkpt lat="48.52753" lon="-2.72426">
        <ele>51.2</ele>
        <time>2026-01-25T09:07:30Z</time>
      </trkpt>
      <trkpt lat="48.52754" lon="-2.72425">
        <ele>52</ele>
        <time>2026-01-25T09:07:31Z</time>
      </trkpt>
      <trkpt lat="48.52755" lon="-2.72426">
        <ele>52</ele>
        <time>2026-01-25T09:07:32Z</time>
      </trkpt>
      <trkpt lat="48.52754" lon="-2.72428">
        <ele>52</ele>
        <time>2026-01-25T09:07:33Z</time>
      </trkpt>
      <trkpt lat="48.52753" lon="-2.72429">
        <ele>51.4</ele>
        <time>2026-01-25T09:07:34Z</time>
      </trkpt>
      <trkpt lat="48.52751" lon="-2.72431">
        <ele>51</ele>
        <time>2026-01-25T09:07:35Z</time>
      </trkpt>
      <trkpt lat="48.52749" lon="-2.72434">
        <ele>51</ele>
        <time>2026-01-25T09:07:36Z</time>
      </trkpt>
      <trkpt lat="48.52746" lon="-2.72438">
        <ele>51</ele>
        <time>2026-01-25T09:07:37Z</time>
      </trkpt>
      <trkpt lat="48.52742" lon="-2.72443">
        <ele>50</ele>
        <time>2026-01-25T09:07:38Z</time>
      </trkpt>
      <trkpt lat="48.52739" lon="-2.72448">
        <ele>49.2</ele>
        <time>2026-01-25T09:07:39Z</time>
      </trkpt>
      <trkpt lat="48.52735" lon="-2.72453">
        <ele>49.2</ele>
        <time>2026-01-25T09:07:40Z</time>
      </trkpt>
      <trkpt lat="48.52732" lon="-2.72458">
        <ele>49.2</ele>
        <time>2026-01-25T09:07:41Z</time>
      </trkpt>
      <trkpt lat="48.5273" lon="-2.72464">
        <ele>49.6</ele>
        <time>2026-01-25T09:07:42Z</time>
      </trkpt>
      <trkpt lat="48.52728" lon="-2.72469">
        <ele>49.6</ele>
        <time>2026-01-25T09:07:43Z</time>
      </trkpt>
      <trkpt lat="48.52726" lon="-2.72475">
        <ele>49.6</ele>
        <time>2026-01-25T09:07:44Z</time>
      </trkpt>
      <trkpt lat="48.52725" lon="-2.7248">
        <ele>49.6</ele>
        <time>2026-01-25T09:07:45Z</time>
      </trkpt>
      <trkpt lat="48.52725" lon="-2.72485">
        <ele>50.4</ele>
        <time>2026-01-25T09:07:46Z</time>
      </trkpt>
      <trkpt lat="48.52726" lon="-2.72489">
        <ele>51.2</ele>
        <time>2026-01-25T09:07:47Z</time>
      </trkpt>
      <trkpt lat="48.52728" lon="-2.72493">
        <ele>51.2</ele>
        <time>2026-01-25T09:07:48Z</time>
      </trkpt>
      <trkpt lat="48.5273" lon="-2.72497">
        <ele>51.2</ele>
        <time>2026-01-25T09:07:49Z</time>
      </trkpt>
      <trkpt lat="48.52732" lon="-2.72502">
        <ele>50.2</ele>
        <time>2026-01-25T09:07:50Z</time>
      </trkpt>
      <trkpt lat="48.52734" lon="-2.72507">
        <ele>49.6</ele>
        <time>2026-01-25T09:07:51Z</time>
      </trkpt>
      <trkpt lat="48.52736" lon="-2.72514">
        <ele>49.6</ele>
        <time>2026-01-25T09:07:52Z</time>
      </trkpt>
      <trkpt lat="48.52736" lon="-2.72521">
        <ele>49.6</ele>
        <time>2026-01-25T09:07:53Z</time>
      </trkpt>
      <trkpt lat="48.52737" lon="-2.72528">
        <ele>48.6</ele>
        <time>2026-01-25T09:07:54Z</time>
      </trkpt>
      <trkpt lat="48.52738" lon="-2.72535">
        <ele>46.6</ele>
        <time>2026-01-25T09:07:55Z</time>
      </trkpt>
      <trkpt lat="48.52738" lon="-2.72543">
        <ele>46.6</ele>
        <time>2026-01-25T09:07:56Z</time>
      </trkpt>
      <trkpt lat="48.52739" lon="-2.7255">
        <ele>46.6</ele>
        <time>2026-01-25T09:07:57Z</time>
      </trkpt>
      <trkpt lat="48.52739" lon="-2.72559">
        <ele>45.6</ele>
        <time>2026-01-25T09:07:58Z</time>
      </trkpt>
      <trkpt lat="48.52739" lon="-2.72569">
        <ele>40.4</ele>
        <time>2026-01-25T09:07:59Z</time>
      </trkpt>
      <trkpt lat="48.52738" lon="-2.72579">
        <ele>40.4</ele>
        <time>2026-01-25T09:08:00Z</time>
      </trkpt>
      <trkpt lat="48.52736" lon="-2.7259">
        <ele>40.4</ele>
        <time>2026-01-25T09:08:01Z</time>
      </trkpt>
      <trkpt lat="48.52734" lon="-2.72599">
        <ele>39.4</ele>
        <time>2026-01-25T09:08:02Z</time>
      </trkpt>
      <trkpt lat="48.52732" lon="-2.72609">
        <ele>36.8</ele>
        <time>2026-01-25T09:08:03Z</time>
      </trkpt>
      <trkpt lat="48.5273" lon="-2.72619">
        <ele>36.8</ele>
        <time>2026-01-25T09:08:04Z</time>
      </trkpt>
      <trkpt lat="48.52728" lon="-2.72629">
        <ele>36.8</ele>
        <time>2026-01-25T09:08:05Z</time>
      </trkpt>
      <trkpt lat="48.52726" lon="-2.72639">
        <ele>35.8</ele>
        <time>2026-01-25T09:08:06Z</time>
      </trkpt>
      <trkpt lat="48.52725" lon="-2.72649">
        <ele>31.8</ele>
        <time>2026-01-25T09:08:07Z</time>
      </trkpt>
      <trkpt lat="48.52725" lon="-2.72658">
        <ele>31.8</ele>
        <time>2026-01-25T09:08:08Z</time>
      </trkpt>
      <trkpt lat="48.52724" lon="-2.72666">
        <ele>31.8</ele>
        <time>2026-01-25T09:08:09Z</time>
      </trkpt>
      <trkpt lat="48.52724" lon="-2.72675">
        <ele>30.8</ele>
        <time>2026-01-25T09:08:10Z</time>
      </trkpt>
      <trkpt lat="48.52723" lon="-2.72684">
        <ele>29</ele>
        <time>2026-01-25T09:08:11Z</time>
      </trkpt>
      <trkpt lat="48.52723" lon="-2.72694">
        <ele>29</ele>
        <time>2026-01-25T09:08:12Z</time>
      </trkpt>
      <trkpt lat="48.52723" lon="-2.72703">
        <ele>29</ele>
        <time>2026-01-25T09:08:13Z</time>
      </trkpt>
      <trkpt lat="48.52723" lon="-2.72712">
        <ele>28</ele>
        <time>2026-01-25T09:08:14Z</time>
      </trkpt>
      <trkpt lat="48.52723" lon="-2.72721">
        <ele>25.6</ele>
        <time>2026-01-25T09:08:15Z</time>
      </trkpt>
      <trkpt lat="48.52723" lon="-2.72731">
        <ele>25.6</ele>
        <time>2026-01-25T09:08:16Z</time>
      </trkpt>
      <trkpt lat="48.52723" lon="-2.7274">
        <ele>25.6</ele>
        <time>2026-01-25T09:08:17Z</time>
      </trkpt>
      <trkpt lat="48.52723" lon="-2.7275">
        <ele>24.6</ele>
        <time>2026-01-25T09:08:18Z</time>
      </trkpt>
      <trkpt lat="48.52722" lon="-2.72758">
        <ele>21.4</ele>
        <time>2026-01-25T09:08:19Z</time>
      </trkpt>
      <trkpt lat="48.52722" lon="-2.72767">
        <ele>21.4</ele>
        <time>2026-01-25T09:08:20Z</time>
      </trkpt>
      <trkpt lat="48.52722" lon="-2.72776">
        <ele>21.4</ele>
        <time>2026-01-25T09:08:21Z</time>
      </trkpt>
      <trkpt lat="48.52722" lon="-2.72787">
        <ele>20.4</ele>
        <time>2026-01-25T09:08:22Z</time>
      </trkpt>
      <trkpt lat="48.52722" lon="-2.72798">
        <ele>18.4</ele>
        <time>2026-01-25T09:08:23Z</time>
      </trkpt>
      <trkpt lat="48.52722" lon="-2.72807">
        <ele>18.4</ele>
        <time>2026-01-25T09:08:24Z</time>
      </trkpt>
      <trkpt lat="48.52722" lon="-2.72817">
        <ele>18.4</ele>
        <time>2026-01-25T09:08:25Z</time>
      </trkpt>
      <trkpt lat="48.52722" lon="-2.72826">
        <ele>18.4</ele>
        <time>2026-01-25T09:08:26Z</time>
      </trkpt>
      <trkpt lat="48.52723" lon="-2.72835">
        <ele>17.2</ele>
        <time>2026-01-25T09:08:27Z</time>
      </trkpt>
      <trkpt lat="48.52724" lon="-2.72843">
        <ele>17.2</ele>
        <time>2026-01-25T09:08:28Z</time>
      </trkpt>
      <trkpt lat="48.52726" lon="-2.72851">
        <ele>17.2</ele>
        <time>2026-01-25T09:08:29Z</time>
      </trkpt>
      <trkpt lat="48.52729" lon="-2.72857">
        <ele>17.2</ele>
        <time>2026-01-25T09:08:30Z</time>
      </trkpt>
      <trkpt lat="48.52731" lon="-2.72863">
        <ele>17.2</ele>
        <time>2026-01-25T09:08:31Z</time>
      </trkpt>
      <trkpt lat="48.52733" lon="-2.72867">
        <ele>17.2</ele>
        <time>2026-01-25T09:08:32Z</time>
      </trkpt>
      <trkpt lat="48.52735" lon="-2.72873">
        <ele>17.2</ele>
        <time>2026-01-25T09:08:33Z</time>
      </trkpt>
      <trkpt lat="48.52736" lon="-2.72876">
        <ele>18</ele>
        <time>2026-01-25T09:08:34Z</time>
      </trkpt>
      <trkpt lat="48.52736" lon="-2.72879">
        <ele>18</ele>
        <time>2026-01-25T09:08:35Z</time>
      </trkpt>
      <trkpt lat="48.52737" lon="-2.72882">
        <ele>18</ele>
        <time>2026-01-25T09:09:09Z</time>
      </trkpt>
      <trkpt lat="48.52737" lon="-2.72886">
        <ele>17</ele>
        <time>2026-01-25T09:09:10Z</time>
      </trkpt>
      <trkpt lat="48.52738" lon="-2.72889">
        <ele>16.4</ele>
        <time>2026-01-25T09:09:11Z</time>
      </trkpt>
      <trkpt lat="48.52738" lon="-2.72896">
        <ele>16.4</ele>
        <time>2026-01-25T09:09:12Z</time>
      </trkpt>
      <trkpt lat="48.52739" lon="-2.72904">
        <ele>16.4</ele>
        <time>2026-01-25T09:09:13Z</time>
      </trkpt>
      <trkpt lat="48.5274" lon="-2.72914">
        <ele>15.4</ele>
        <time>2026-01-25T09:09:14Z</time>
      </trkpt>
      <trkpt lat="48.5274" lon="-2.72924">
        <ele>11.6</ele>
        <time>2026-01-25T09:09:15Z</time>
      </trkpt>
      <trkpt lat="48.52741" lon="-2.72935">
        <ele>11.6</ele>
        <time>2026-01-25T09:09:16Z</time>
      </trkpt>
      <trkpt lat="48.52741" lon="-2.72946">
        <ele>11.6</ele>
        <time>2026-01-25T09:09:17Z</time>
      </trkpt>
      <trkpt lat="48.52741" lon="-2.72958">
        <ele>10.6</ele>
        <time>2026-01-25T09:09:18Z</time>
      </trkpt>
      <trkpt lat="48.52741" lon="-2.7297">
        <ele>8.8</ele>
        <time>2026-01-25T09:09:19Z</time>
      </trkpt>
      <trkpt lat="48.52741" lon="-2.72981">
        <ele>8.8</ele>
        <time>2026-01-25T09:09:20Z</time>
      </trkpt>
      <trkpt lat="48.52741" lon="-2.72992">
        <ele>8.8</ele>
        <time>2026-01-25T09:09:21Z</time>
      </trkpt>
      <trkpt lat="48.52741" lon="-2.73003">
        <ele>8.8</ele>
        <time>2026-01-25T09:09:22Z</time>
      </trkpt>
      <trkpt lat="48.52742" lon="-2.73014">
        <ele>7.4</ele>
        <time>2026-01-25T09:09:23Z</time>
      </trkpt>
      <trkpt lat="48.52742" lon="-2.73025">
        <ele>7.4</ele>
        <time>2026-01-25T09:09:24Z</time>
      </trkpt>
      <trkpt lat="48.52743" lon="-2.73037">
        <ele>7.4</ele>
        <time>2026-01-25T09:09:25Z</time>
      </trkpt>
      <trkpt lat="48.52746" lon="-2.73049">
        <ele>6.4</ele>
        <time>2026-01-25T09:09:26Z</time>
      </trkpt>
      <trkpt lat="48.52748" lon="-2.73061">
        <ele>4.4</ele>
        <time>2026-01-25T09:09:27Z</time>
      </trkpt>
      <trkpt lat="48.52751" lon="-2.73072">
        <ele>4.4</ele>
        <time>2026-01-25T09:09:28Z</time>
      </trkpt>
      <trkpt lat="48.52755" lon="-2.73083">
        <ele>4.4</ele>
        <time>2026-01-25T09:09:29Z</time>
      </trkpt>
      <trkpt lat="48.52758" lon="-2.73092">
        <ele>4.4</ele>
        <time>2026-01-25T09:09:30Z</time>
      </trkpt>
      <trkpt lat="48.52762" lon="-2.73098">
        <ele>6.4</ele>
        <time>2026-01-25T09:09:31Z</time>
      </trkpt>
      <trkpt lat="48.52765" lon="-2.73101">
        <ele>6.4</ele>
        <time>2026-01-25T09:09:32Z</time>
      </trkpt>
      <trkpt lat="48.52769" lon="-2.73105">
        <ele>6.4</ele>
        <time>2026-01-25T09:09:33Z</time>
      </trkpt>
      <trkpt lat="48.52771" lon="-2.7311">
        <ele>5.8</ele>
        <time>2026-01-25T09:09:34Z</time>
      </trkpt>
      <trkpt lat="48.52773" lon="-2.73117">
        <ele>5.2</ele>
        <time>2026-01-25T09:09:35Z</time>
      </trkpt>
      <trkpt lat="48.52774" lon="-2.73125">
        <ele>5.2</ele>
        <time>2026-01-25T09:09:36Z</time>
      </trkpt>
      <trkpt lat="48.52774" lon="-2.73133">
        <ele>5.2</ele>
        <time>2026-01-25T09:09:37Z</time>
      </trkpt>
      <trkpt lat="48.52774" lon="-2.73141">
        <ele>4.8</ele>
        <time>2026-01-25T09:09:38Z</time>
      </trkpt>
      <trkpt lat="48.52774" lon="-2.7315">
        <ele>5</ele>
        <time>2026-01-25T09:09:39Z</time>
      </trkpt>
      <trkpt lat="48.52774" lon="-2.73159">
        <ele>5</ele>
        <time>2026-01-25T09:09:40Z</time>
      </trkpt>
      <trkpt lat="48.52774" lon="-2.73168">
        <ele>5</ele>
        <time>2026-01-25T09:09:41Z</time>
      </trkpt>
      <trkpt lat="48.52774" lon="-2.73177">
        <ele>4.4</ele>
        <time>2026-01-25T09:09:42Z</time>
      </trkpt>
      <trkpt lat="48.52774" lon="-2.73186">
        <ele>4.6</ele>
        <time>2026-01-25T09:09:43Z</time>
      </trkpt>
      <trkpt lat="48.52774" lon="-2.73195">
        <ele>4.6</ele>
        <time>2026-01-25T09:09:44Z</time>
      </trkpt>
      <trkpt lat="48.52775" lon="-2.73204">
        <ele>4.6</ele>
        <time>2026-01-25T09:09:45Z</time>
      </trkpt>
      <trkpt lat="48.52776" lon="-2.73213">
        <ele>4.6</ele>
        <time>2026-01-25T09:09:46Z</time>
      </trkpt>
      <trkpt lat="48.52776" lon="-2.73222">
        <ele>4.2</ele>
        <time>2026-01-25T09:09:47Z</time>
      </trkpt>
      <trkpt lat="48.52777" lon="-2.73232">
        <ele>4.2</ele>
        <time>2026-01-25T09:09:48Z</time>
      </trkpt>
      <trkpt lat="48.52778" lon="-2.73241">
        <ele>4.2</ele>
        <time>2026-01-25T09:09:49Z</time>
      </trkpt>
      <trkpt lat="48.52779" lon="-2.7325">
        <ele>4.2</ele>
        <time>2026-01-25T09:09:50Z</time>
      </trkpt>
      <trkpt lat="48.52781" lon="-2.73259">
        <ele>4.2</ele>
        <time>2026-01-25T09:09:51Z</time>
      </trkpt>
      <trkpt lat="48.52782" lon="-2.73268">
        <ele>4.2</ele>
        <time>2026-01-25T09:09:52Z</time>
      </trkpt>
      <trkpt lat="48.52783" lon="-2.73277">
        <ele>4.2</ele>
        <time>2026-01-25T09:09:53Z</time>
      </trkpt>
      <trkpt lat="48.52784" lon="-2.73286">
        <ele>4.2</ele>
        <time>2026-01-25T09:09:54Z</time>
      </trkpt>
      <trkpt lat="48.52785" lon="-2.73295">
        <ele>4</ele>
        <time>2026-01-25T09:09:55Z</time>
      </trkpt>
      <trkpt lat="48.52787" lon="-2.73305">
        <ele>4</ele>
        <time>2026-01-25T09:09:56Z</time>
      </trkpt>
      <trkpt lat="48.52787" lon="-2.73314">
        <ele>4</ele>
        <time>2026-01-25T09:09:57Z</time>
      </trkpt>
      <trkpt lat="48.52788" lon="-2.73323">
        <ele>3.8</ele>
        <time>2026-01-25T09:09:58Z</time>
      </trkpt>
      <trkpt lat="48.52789" lon="-2.73333">
        <ele>4.2</ele>
        <time>2026-01-25T09:09:59Z</time>
      </trkpt>
      <trkpt lat="48.52789" lon="-2.73342">
        <ele>4.2</ele>
        <time>2026-01-25T09:10:00Z</time>
      </trkpt>
      <trkpt lat="48.52789" lon="-2.73352">
        <ele>4.2</ele>
        <time>2026-01-25T09:10:01Z</time>
      </trkpt>
      <trkpt lat="48.52789" lon="-2.73361">
        <ele>3.2</ele>
        <time>2026-01-25T09:10:02Z</time>
      </trkpt>
      <trkpt lat="48.52789" lon="-2.73371">
        <ele>3.8</ele>
        <time>2026-01-25T09:10:03Z</time>
      </trkpt>
      <trkpt lat="48.52789" lon="-2.7338">
        <ele>3.8</ele>
        <time>2026-01-25T09:10:04Z</time>
      </trkpt>
      <trkpt lat="48.52788" lon="-2.7339">
        <ele>3.8</ele>
        <time>2026-01-25T09:10:05Z</time>
      </trkpt>
      <trkpt lat="48.52787" lon="-2.73399">
        <ele>3.8</ele>
        <time>2026-01-25T09:10:06Z</time>
      </trkpt>
      <trkpt lat="48.52787" lon="-2.73409">
        <ele>4.2</ele>
        <time>2026-01-25T09:10:07Z</time>
      </trkpt>
      <trkpt lat="48.52786" lon="-2.73419">
        <ele>4.2</ele>
        <time>2026-01-25T09:10:08Z</time>
      </trkpt>
      <trkpt lat="48.52786" lon="-2.73428">
        <ele>4.2</ele>
        <time>2026-01-25T09:10:09Z</time>
      </trkpt>
      <trkpt lat="48.52785" lon="-2.73438">
        <ele>4.2</ele>
        <time>2026-01-25T09:10:10Z</time>
      </trkpt>
      <trkpt lat="48.52783" lon="-2.73447">
        <ele>3.8</ele>
        <time>2026-01-25T09:10:11Z</time>
      </trkpt>
      <trkpt lat="48.52782" lon="-2.73457">
        <ele>3.8</ele>
        <time>2026-01-25T09:10:12Z</time>
      </trkpt>
      <trkpt lat="48.52781" lon="-2.73466">
        <ele>3.8</ele>
        <time>2026-01-25T09:10:13Z</time>
      </trkpt>
      <trkpt lat="48.52779" lon="-2.73476">
        <ele>3.2</ele>
        <time>2026-01-25T09:10:14Z</time>
      </trkpt>
      <trkpt lat="48.52778" lon="-2.73486">
        <ele>3.4</ele>
        <time>2026-01-25T09:10:15Z</time>
      </trkpt>
      <trkpt lat="48.52777" lon="-2.73495">
        <ele>3.4</ele>
        <time>2026-01-25T09:10:16Z</time>
      </trkpt>
      <trkpt lat="48.52776" lon="-2.73505">
        <ele>3.4</ele>
        <time>2026-01-25T09:10:17Z</time>
      </trkpt>
      <trkpt lat="48.52774" lon="-2.73515">
        <ele>3.4</ele>
        <time>2026-01-25T09:10:18Z</time>
      </trkpt>
      <trkpt lat="48.52772" lon="-2.73524">
        <ele>3.6</ele>
        <time>2026-01-25T09:10:19Z</time>
      </trkpt>
      <trkpt lat="48.52769" lon="-2.73533">
        <ele>3.6</ele>
        <time>2026-01-25T09:10:20Z</time>
      </trkpt>
      <trkpt lat="48.52766" lon="-2.73542">
        <ele>3.6</ele>
        <time>2026-01-25T09:10:21Z</time>
      </trkpt>
      <trkpt lat="48.52763" lon="-2.7355">
        <ele>3.2</ele>
        <time>2026-01-25T09:10:22Z</time>
      </trkpt>
      <trkpt lat="48.52759" lon="-2.73558">
        <ele>3.6</ele>
        <time>2026-01-25T09:10:23Z</time>
      </trkpt>
      <trkpt lat="48.52756" lon="-2.73566">
        <ele>3.6</ele>
        <time>2026-01-25T09:10:24Z</time>
      </trkpt>
      <trkpt lat="48.52752" lon="-2.73574">
        <ele>3.6</ele>
        <time>2026-01-25T09:10:25Z</time>
      </trkpt>
      <trkpt lat="48.52748" lon="-2.73581">
        <ele>3.2</ele>
        <time>2026-01-25T09:10:26Z</time>
      </trkpt>
      <trkpt lat="48.52744" lon="-2.73589">
        <ele>3</ele>
        <time>2026-01-25T09:10:27Z</time>
      </trkpt>
      <trkpt lat="48.5274" lon="-2.73596">
        <ele>3</ele>
        <time>2026-01-25T09:10:28Z</time>
      </trkpt>
      <trkpt lat="48.52736" lon="-2.73603">
        <ele>3</ele>
        <time>2026-01-25T09:10:29Z</time>
      </trkpt>
      <trkpt lat="48.52731" lon="-2.73609">
        <ele>3</ele>
        <time>2026-01-25T09:10:30Z</time>
      </trkpt>
      <trkpt lat="48.52727" lon="-2.73616">
        <ele>4</ele>
        <time>2026-01-25T09:10:31Z</time>
      </trkpt>
      <trkpt lat="48.52723" lon="-2.73622">
        <ele>4</ele>
        <time>2026-01-25T09:10:32Z</time>
      </trkpt>
      <trkpt lat="48.52718" lon="-2.73627">
        <ele>4</ele>
        <time>2026-01-25T09:10:33Z</time>
      </trkpt>
      <trkpt lat="48.52714" lon="-2.73632">
        <ele>4</ele>
        <time>2026-01-25T09:10:34Z</time>
      </trkpt>
      <trkpt lat="48.52708" lon="-2.73635">
        <ele>4.2</ele>
        <time>2026-01-25T09:10:35Z</time>
      </trkpt>
      <trkpt lat="48.52703" lon="-2.73636">
        <ele>4.2</ele>
        <time>2026-01-25T09:10:36Z</time>
      </trkpt>
      <trkpt lat="48.52697" lon="-2.73637">
        <ele>4.2</ele>
        <time>2026-01-25T09:10:37Z</time>
      </trkpt>
      <trkpt lat="48.52692" lon="-2.73638">
        <ele>4</ele>
        <time>2026-01-25T09:10:38Z</time>
      </trkpt>
      <trkpt lat="48.52686" lon="-2.7364">
        <ele>4.2</ele>
        <time>2026-01-25T09:10:39Z</time>
      </trkpt>
      <trkpt lat="48.5268" lon="-2.73642">
        <ele>4.2</ele>
        <time>2026-01-25T09:10:40Z</time>
      </trkpt>
      <trkpt lat="48.52675" lon="-2.73644">
        <ele>4.2</ele>
        <time>2026-01-25T09:10:41Z</time>
      </trkpt>
      <trkpt lat="48.52669" lon="-2.73647">
        <ele>4.2</ele>
        <time>2026-01-25T09:10:42Z</time>
      </trkpt>
      <trkpt lat="48.52663" lon="-2.7365">
        <ele>3.6</ele>
        <time>2026-01-25T09:10:43Z</time>
      </trkpt>
      <trkpt lat="48.52657" lon="-2.73654">
        <ele>3.6</ele>
        <time>2026-01-25T09:10:44Z</time>
      </trkpt>
      <trkpt lat="48.52651" lon="-2.73657">
        <ele>3.6</ele>
        <time>2026-01-25T09:10:45Z</time>
      </trkpt>
      <trkpt lat="48.52645" lon="-2.7366">
        <ele>3.4</ele>
        <time>2026-01-25T09:10:46Z</time>
      </trkpt>
      <trkpt lat="48.52639" lon="-2.73662">
        <ele>3</ele>
        <time>2026-01-25T09:10:47Z</time>
      </trkpt>
      <trkpt lat="48.52633" lon="-2.73665">
        <ele>3</ele>
        <time>2026-01-25T09:10:48Z</time>
      </trkpt>
      <trkpt lat="48.52627" lon="-2.73667">
        <ele>3</ele>
        <time>2026-01-25T09:10:49Z</time>
      </trkpt>
      <trkpt lat="48.52621" lon="-2.73669">
        <ele>3</ele>
        <time>2026-01-25T09:10:50Z</time>
      </trkpt>
      <trkpt lat="48.52615" lon="-2.73672">
        <ele>3.6</ele>
        <time>2026-01-25T09:10:51Z</time>
      </trkpt>
      <trkpt lat="48.52608" lon="-2.73673">
        <ele>3.6</ele>
        <time>2026-01-25T09:10:52Z</time>
      </trkpt>
      <trkpt lat="48.52602" lon="-2.73675">
        <ele>3.6</ele>
        <time>2026-01-25T09:10:53Z</time>
      </trkpt>
      <trkpt lat="48.52596" lon="-2.73677">
        <ele>2.8</ele>
        <time>2026-01-25T09:10:54Z</time>
      </trkpt>
      <trkpt lat="48.5259" lon="-2.73679">
        <ele>2.6</ele>
        <time>2026-01-25T09:10:55Z</time>
      </trkpt>
      <trkpt lat="48.52584" lon="-2.73681">
        <ele>2.6</ele>
        <time>2026-01-25T09:10:56Z</time>
      </trkpt>
      <trkpt lat="48.52578" lon="-2.73684">
        <ele>2.6</ele>
        <time>2026-01-25T09:10:57Z</time>
      </trkpt>
      <trkpt lat="48.52572" lon="-2.73687">
        <ele>3</ele>
        <time>2026-01-25T09:10:58Z</time>
      </trkpt>
      <trkpt lat="48.52567" lon="-2.73691">
        <ele>3.4</ele>
        <time>2026-01-25T09:10:59Z</time>
      </trkpt>
      <trkpt lat="48.52561" lon="-2.73694">
        <ele>3.4</ele>
        <time>2026-01-25T09:11:00Z</time>
      </trkpt>
      <trkpt lat="48.52556" lon="-2.73697">
        <ele>3.4</ele>
        <time>2026-01-25T09:11:01Z</time>
      </trkpt>
      <trkpt lat="48.52551" lon="-2.73702">
        <ele>3.4</ele>
        <time>2026-01-25T09:11:02Z</time>
      </trkpt>
      <trkpt lat="48.52545" lon="-2.73706">
        <ele>3</ele>
        <time>2026-01-25T09:11:03Z</time>
      </trkpt>
      <trkpt lat="48.5254" lon="-2.73711">
        <ele>3</ele>
        <time>2026-01-25T09:11:04Z</time>
      </trkpt>
      <trkpt lat="48.52535" lon="-2.73715">
        <ele>3</ele>
        <time>2026-01-25T09:11:05Z</time>
      </trkpt>
      <trkpt lat="48.5253" lon="-2.7372">
        <ele>3.4</ele>
        <time>2026-01-25T09:11:06Z</time>
      </trkpt>
      <trkpt lat="48.52526" lon="-2.73725">
        <ele>3.6</ele>
        <time>2026-01-25T09:11:07Z</time>
      </trkpt>
      <trkpt lat="48.52521" lon="-2.73731">
        <ele>3.6</ele>
        <time>2026-01-25T09:11:08Z</time>
      </trkpt>
      <trkpt lat="48.52517" lon="-2.73737">
        <ele>3.6</ele>
        <time>2026-01-25T09:11:09Z</time>
      </trkpt>
      <trkpt lat="48.52512" lon="-2.73743">
        <ele>3.2</ele>
        <time>2026-01-25T09:11:10Z</time>
      </trkpt>
      <trkpt lat="48.52508" lon="-2.73749">
        <ele>3.4</ele>
        <time>2026-01-25T09:11:11Z</time>
      </trkpt>
      <trkpt lat="48.52503" lon="-2.73756">
        <ele>3.4</ele>
        <time>2026-01-25T09:11:12Z</time>
      </trkpt>
      <trkpt lat="48.52499" lon="-2.73762">
        <ele>3.4</ele>
        <time>2026-01-25T09:11:13Z</time>
      </trkpt>
      <trkpt lat="48.52495" lon="-2.73769">
        <ele>3.4</ele>
        <time>2026-01-25T09:11:14Z</time>
      </trkpt>
      <trkpt lat="48.5249" lon="-2.73775">
        <ele>3.8</ele>
        <time>2026-01-25T09:11:15Z</time>
      </trkpt>
      <trkpt lat="48.52486" lon="-2.73781">
        <ele>3.8</ele>
        <time>2026-01-25T09:11:16Z</time>
      </trkpt>
      <trkpt lat="48.52482" lon="-2.73788">
        <ele>3.8</ele>
        <time>2026-01-25T09:11:17Z</time>
      </trkpt>
      <trkpt lat="48.52478" lon="-2.73794">
        <ele>3.8</ele>
        <time>2026-01-25T09:11:18Z</time>
      </trkpt>
      <trkpt lat="48.52474" lon="-2.73801">
        <ele>3.8</ele>
        <time>2026-01-25T09:11:19Z</time>
      </trkpt>
      <trkpt lat="48.5247" lon="-2.73808">
        <ele>3.8</ele>
        <time>2026-01-25T09:11:20Z</time>
      </trkpt>
      <trkpt lat="48.52467" lon="-2.73815">
        <ele>3.8</ele>
        <time>2026-01-25T09:11:21Z</time>
      </trkpt>
      <trkpt lat="48.52463" lon="-2.73823">
        <ele>3.8</ele>
        <time>2026-01-25T09:11:22Z</time>
      </trkpt>
      <trkpt lat="48.5246" lon="-2.7383">
        <ele>3.8</ele>
        <time>2026-01-25T09:11:23Z</time>
      </trkpt>
      <trkpt lat="48.52456" lon="-2.73838">
        <ele>3.8</ele>
        <time>2026-01-25T09:11:24Z</time>
      </trkpt>
      <trkpt lat="48.52452" lon="-2.73845">
        <ele>3.8</ele>
        <time>2026-01-25T09:11:25Z</time>
      </trkpt>
      <trkpt lat="48.52449" lon="-2.73853">
        <ele>3.8</ele>
        <time>2026-01-25T09:11:26Z</time>
      </trkpt>
      <trkpt lat="48.52446" lon="-2.7386">
        <ele>3.8</ele>
        <time>2026-01-25T09:11:27Z</time>
      </trkpt>
      <trkpt lat="48.52442" lon="-2.73868">
        <ele>3.8</ele>
        <time>2026-01-25T09:11:28Z</time>
      </trkpt>
      <trkpt lat="48.52439" lon="-2.73876">
        <ele>3.8</ele>
        <time>2026-01-25T09:11:29Z</time>
      </trkpt>
      <trkpt lat="48.52436" lon="-2.73883">
        <ele>4</ele>
        <time>2026-01-25T09:11:30Z</time>
      </trkpt>
      <trkpt lat="48.52433" lon="-2.73891">
        <ele>4.2</ele>
        <time>2026-01-25T09:11:31Z</time>
      </trkpt>
      <trkpt lat="48.52429" lon="-2.73899">
        <ele>4.2</ele>
        <time>2026-01-25T09:11:32Z</time>
      </trkpt>
      <trkpt lat="48.52426" lon="-2.73907">
        <ele>4.2</ele>
        <time>2026-01-25T09:11:33Z</time>
      </trkpt>
      <trkpt lat="48.52423" lon="-2.73916">
        <ele>3.8</ele>
        <time>2026-01-25T09:11:34Z</time>
      </trkpt>
      <trkpt lat="48.5242" lon="-2.73924">
        <ele>4</ele>
        <time>2026-01-25T09:11:35Z</time>
      </trkpt>
      <trkpt lat="48.52417" lon="-2.73932">
        <ele>4</ele>
        <time>2026-01-25T09:11:36Z</time>
      </trkpt>
      <trkpt lat="48.52415" lon="-2.73941">
        <ele>4</ele>
        <time>2026-01-25T09:11:37Z</time>
      </trkpt>
      <trkpt lat="48.52413" lon="-2.7395">
        <ele>4</ele>
        <time>2026-01-25T09:11:38Z</time>
      </trkpt>
      <trkpt lat="48.5241" lon="-2.73959">
        <ele>3.4</ele>
        <time>2026-01-25T09:11:39Z</time>
      </trkpt>
      <trkpt lat="48.52408" lon="-2.73968">
        <ele>3.4</ele>
        <time>2026-01-25T09:11:40Z</time>
      </trkpt>
      <trkpt lat="48.52406" lon="-2.73977">
        <ele>3.4</ele>
        <time>2026-01-25T09:11:41Z</time>
      </trkpt>
      <trkpt lat="48.52405" lon="-2.73986">
        <ele>3.8</ele>
        <time>2026-01-25T09:11:42Z</time>
      </trkpt>
      <trkpt lat="48.52403" lon="-2.73995">
        <ele>4</ele>
        <time>2026-01-25T09:11:43Z</time>
      </trkpt>
      <trkpt lat="48.52401" lon="-2.74004">
        <ele>4</ele>
        <time>2026-01-25T09:11:44Z</time>
      </trkpt>
      <trkpt lat="48.52399" lon="-2.74012">
        <ele>4</ele>
        <time>2026-01-25T09:11:45Z</time>
      </trkpt>
      <trkpt lat="48.52398" lon="-2.7402">
        <ele>4.4</ele>
        <time>2026-01-25T09:11:46Z</time>
      </trkpt>
      <trkpt lat="48.52398" lon="-2.74029">
        <ele>4.2</ele>
        <time>2026-01-25T09:11:47Z</time>
      </trkpt>
      <trkpt lat="48.524" lon="-2.74037">
        <ele>4.2</ele>
        <time>2026-01-25T09:11:48Z</time>
      </trkpt>
      <trkpt lat="48.52402" lon="-2.74044">
        <ele>4.2</ele>
        <time>2026-01-25T09:11:49Z</time>
      </trkpt>
      <trkpt lat="48.52405" lon="-2.74052">
        <ele>4.2</ele>
        <time>2026-01-25T09:11:50Z</time>
      </trkpt>
      <trkpt lat="48.52408" lon="-2.7406">
        <ele>3.8</ele>
        <time>2026-01-25T09:11:51Z</time>
      </trkpt>
      <trkpt lat="48.5241" lon="-2.74069">
        <ele>3.8</ele>
        <time>2026-01-25T09:11:52Z</time>
      </trkpt>
      <trkpt lat="48.52411" lon="-2.74077">
        <ele>3.8</ele>
        <time>2026-01-25T09:11:53Z</time>
      </trkpt>
      <trkpt lat="48.52412" lon="-2.74086">
        <ele>4.6</ele>
        <time>2026-01-25T09:11:54Z</time>
      </trkpt>
      <trkpt lat="48.52413" lon="-2.74095">
        <ele>4.4</ele>
        <time>2026-01-25T09:11:55Z</time>
      </trkpt>
      <trkpt lat="48.52413" lon="-2.74103">
        <ele>4.4</ele>
        <time>2026-01-25T09:11:56Z</time>
      </trkpt>
      <trkpt lat="48.52413" lon="-2.74112">
        <ele>4.4</ele>
        <time>2026-01-25T09:11:57Z</time>
      </trkpt>
      <trkpt lat="48.52414" lon="-2.7412">
        <ele>4.4</ele>
        <time>2026-01-25T09:11:58Z</time>
      </trkpt>
      <trkpt lat="48.52415" lon="-2.74129">
        <ele>4.2</ele>
        <time>2026-01-25T09:11:59Z</time>
      </trkpt>
      <trkpt lat="48.52417" lon="-2.74136">
        <ele>4.2</ele>
        <time>2026-01-25T09:12:00Z</time>
      </trkpt>
      <trkpt lat="48.52421" lon="-2.74143">
        <ele>4.2</ele>
        <time>2026-01-25T09:12:01Z</time>
      </trkpt>
      <trkpt lat="48.52426" lon="-2.74147">
        <ele>4.2</ele>
        <time>2026-01-25T09:12:02Z</time>
      </trkpt>
      <trkpt lat="48.52432" lon="-2.7415">
        <ele>4.2</ele>
        <time>2026-01-25T09:12:03Z</time>
      </trkpt>
      <trkpt lat="48.52437" lon="-2.74152">
        <ele>4.2</ele>
        <time>2026-01-25T09:12:04Z</time>
      </trkpt>
      <trkpt lat="48.52443" lon="-2.74155">
        <ele>4.2</ele>
        <time>2026-01-25T09:12:05Z</time>
      </trkpt>
      <trkpt lat="48.52449" lon="-2.74158">
        <ele>3.4</ele>
        <time>2026-01-25T09:12:06Z</time>
      </trkpt>
      <trkpt lat="48.52455" lon="-2.74161">
        <ele>3.8</ele>
        <time>2026-01-25T09:12:07Z</time>
      </trkpt>
      <trkpt lat="48.52461" lon="-2.74163">
        <ele>3.8</ele>
        <time>2026-01-25T09:12:08Z</time>
      </trkpt>
      <trkpt lat="48.52467" lon="-2.74165">
        <ele>3.8</ele>
        <time>2026-01-25T09:12:09Z</time>
      </trkpt>
      <trkpt lat="48.5247" lon="-2.74167">
        <ele>3.8</ele>
        <time>2026-01-25T09:12:10Z</time>
      </trkpt>
      <trkpt lat="48.52473" lon="-2.74168">
        <ele>5</ele>
        <time>2026-01-25T09:12:11Z</time>
      </trkpt>
      <trkpt lat="48.52476" lon="-2.74169">
        <ele>5</ele>
        <time>2026-01-25T09:12:12Z</time>
      </trkpt>
      <trkpt lat="48.52479" lon="-2.7417">
        <ele>5</ele>
        <time>2026-01-25T09:12:13Z</time>
      </trkpt>
      <trkpt lat="48.52482" lon="-2.74171">
        <ele>4.6</ele>
        <time>2026-01-25T09:12:14Z</time>
      </trkpt>
      <trkpt lat="48.52485" lon="-2.74172">
        <ele>4.6</ele>
        <time>2026-01-25T09:12:15Z</time>
      </trkpt>
      <trkpt lat="48.52488" lon="-2.74173">
        <ele>4.6</ele>
        <time>2026-01-25T09:12:16Z</time>
      </trkpt>
      <trkpt lat="48.52491" lon="-2.74174">
        <ele>4.6</ele>
        <time>2026-01-25T09:12:17Z</time>
      </trkpt>
      <trkpt lat="48.52494" lon="-2.74176">
        <ele>4.8</ele>
        <time>2026-01-25T09:12:18Z</time>
      </trkpt>
      <trkpt lat="48.52497" lon="-2.74177">
        <ele>4.8</ele>
        <time>2026-01-25T09:12:19Z</time>
      </trkpt>
      <trkpt lat="48.525" lon="-2.74178">
        <ele>4.8</ele>
        <time>2026-01-25T09:12:20Z</time>
      </trkpt>
      <trkpt lat="48.52502" lon="-2.74177">
        <ele>4.8</ele>
        <time>2026-01-25T09:12:21Z</time>
      </trkpt>
      <trkpt lat="48.52505" lon="-2.74175">
        <ele>4.8</ele>
        <time>2026-01-25T09:12:22Z</time>
      </trkpt>
      <trkpt lat="48.52507" lon="-2.74171">
        <ele>5.2</ele>
        <time>2026-01-25T09:12:23Z</time>
      </trkpt>
      <trkpt lat="48.52508" lon="-2.74166">
        <ele>5.2</ele>
        <time>2026-01-25T09:12:24Z</time>
      </trkpt>
      <trkpt lat="48.52509" lon="-2.7416">
        <ele>5.2</ele>
        <time>2026-01-25T09:12:25Z</time>
      </trkpt>
      <trkpt lat="48.52511" lon="-2.74154">
        <ele>4.8</ele>
        <time>2026-01-25T09:12:26Z</time>
      </trkpt>
      <trkpt lat="48.52512" lon="-2.74148">
        <ele>4.6</ele>
        <time>2026-01-25T09:12:27Z</time>
      </trkpt>
      <trkpt lat="48.52513" lon="-2.7414">
        <ele>4.6</ele>
        <time>2026-01-25T09:12:28Z</time>
      </trkpt>
      <trkpt lat="48.52515" lon="-2.74133">
        <ele>4.6</ele>
        <time>2026-01-25T09:12:29Z</time>
      </trkpt>
      <trkpt lat="48.52516" lon="-2.74125">
        <ele>4.2</ele>
        <time>2026-01-25T09:12:30Z</time>
      </trkpt>
      <trkpt lat="48.52517" lon="-2.74116">
        <ele>4.2</ele>
        <time>2026-01-25T09:12:31Z</time>
      </trkpt>
      <trkpt lat="48.52519" lon="-2.74108">
        <ele>4.2</ele>
        <time>2026-01-25T09:12:32Z</time>
      </trkpt>
      <trkpt lat="48.52521" lon="-2.741">
        <ele>4.2</ele>
        <time>2026-01-25T09:12:33Z</time>
      </trkpt>
      <trkpt lat="48.52524" lon="-2.74091">
        <ele>5</ele>
        <time>2026-01-25T09:12:34Z</time>
      </trkpt>
      <trkpt lat="48.52526" lon="-2.74083">
        <ele>4.4</ele>
        <time>2026-01-25T09:12:35Z</time>
      </trkpt>
      <trkpt lat="48.52529" lon="-2.74075">
        <ele>4.4</ele>
        <time>2026-01-25T09:12:36Z</time>
      </trkpt>
      <trkpt lat="48.52532" lon="-2.74067">
        <ele>4.4</ele>
        <time>2026-01-25T09:12:37Z</time>
      </trkpt>
      <trkpt lat="48.52535" lon="-2.74059">
        <ele>4.4</ele>
        <time>2026-01-25T09:12:38Z</time>
      </trkpt>
      <trkpt lat="48.52539" lon="-2.74051">
        <ele>4.2</ele>
        <time>2026-01-25T09:12:39Z</time>
      </trkpt>
      <trkpt lat="48.52542" lon="-2.74043">
        <ele>4.2</ele>
        <time>2026-01-25T09:12:40Z</time>
      </trkpt>
      <trkpt lat="48.52546" lon="-2.74034">
        <ele>4.2</ele>
        <time>2026-01-25T09:12:41Z</time>
      </trkpt>
      <trkpt lat="48.5255" lon="-2.74026">
        <ele>3.8</ele>
        <time>2026-01-25T09:12:42Z</time>
      </trkpt>
      <trkpt lat="48.52554" lon="-2.74018">
        <ele>3.6</ele>
        <time>2026-01-25T09:12:43Z</time>
      </trkpt>
      <trkpt lat="48.52557" lon="-2.74009">
        <ele>3.6</ele>
        <time>2026-01-25T09:12:44Z</time>
      </trkpt>
      <trkpt lat="48.52561" lon="-2.74001">
        <ele>3.6</ele>
        <time>2026-01-25T09:12:45Z</time>
      </trkpt>
      <trkpt lat="48.52565" lon="-2.73993">
        <ele>4.2</ele>
        <time>2026-01-25T09:12:46Z</time>
      </trkpt>
      <trkpt lat="48.52569" lon="-2.73985">
        <ele>4.2</ele>
        <time>2026-01-25T09:12:47Z</time>
      </trkpt>
      <trkpt lat="48.52574" lon="-2.73977">
        <ele>4.2</ele>
        <time>2026-01-25T09:12:48Z</time>
      </trkpt>
      <trkpt lat="48.52578" lon="-2.7397">
        <ele>4.2</ele>
        <time>2026-01-25T09:12:49Z</time>
      </trkpt>
      <trkpt lat="48.52583" lon="-2.73963">
        <ele>3.6</ele>
        <time>2026-01-25T09:12:50Z</time>
      </trkpt>
      <trkpt lat="48.52588" lon="-2.73956">
        <ele>3.8</ele>
        <time>2026-01-25T09:12:51Z</time>
      </trkpt>
      <trkpt lat="48.52594" lon="-2.7395">
        <ele>3.8</ele>
        <time>2026-01-25T09:12:52Z</time>
      </trkpt>
      <trkpt lat="48.52599" lon="-2.73944">
        <ele>3.8</ele>
        <time>2026-01-25T09:12:53Z</time>
      </trkpt>
      <trkpt lat="48.52605" lon="-2.73938">
        <ele>3.8</ele>
        <time>2026-01-25T09:12:54Z</time>
      </trkpt>
      <trkpt lat="48.5261" lon="-2.73933">
        <ele>3.4</ele>
        <time>2026-01-25T09:12:55Z</time>
      </trkpt>
      <trkpt lat="48.52617" lon="-2.73929">
        <ele>3.4</ele>
        <time>2026-01-25T09:12:56Z</time>
      </trkpt>
      <trkpt lat="48.52623" lon="-2.73925">
        <ele>3.4</ele>
        <time>2026-01-25T09:12:57Z</time>
      </trkpt>
      <trkpt lat="48.5263" lon="-2.73921">
        <ele>3.4</ele>
        <time>2026-01-25T09:12:58Z</time>
      </trkpt>
      <trkpt lat="48.52637" lon="-2.73917">
        <ele>3.2</ele>
        <time>2026-01-25T09:12:59Z</time>
      </trkpt>
      <trkpt lat="48.52643" lon="-2.73913">
        <ele>3.2</ele>
        <time>2026-01-25T09:13:00Z</time>
      </trkpt>
      <trkpt lat="48.5265" lon="-2.7391">
        <ele>3.2</ele>
        <time>2026-01-25T09:13:01Z</time>
      </trkpt>
      <trkpt lat="48.52656" lon="-2.73906">
        <ele>3.2</ele>
        <time>2026-01-25T09:13:02Z</time>
      </trkpt>
      <trkpt lat="48.52663" lon="-2.73903">
        <ele>3.4</ele>
        <time>2026-01-25T09:13:03Z</time>
      </trkpt>
      <trkpt lat="48.52669" lon="-2.739">
        <ele>3.4</ele>
        <time>2026-01-25T09:13:04Z</time>
      </trkpt>
      <trkpt lat="48.52675" lon="-2.73896">
        <ele>3.4</ele>
        <time>2026-01-25T09:13:05Z</time>
      </trkpt>
      <trkpt lat="48.52682" lon="-2.73892">
        <ele>3.4</ele>
        <time>2026-01-25T09:13:06Z</time>
      </trkpt>
      <trkpt lat="48.52688" lon="-2.73889">
        <ele>3.4</ele>
        <time>2026-01-25T09:13:07Z</time>
      </trkpt>
      <trkpt lat="48.52694" lon="-2.73885">
        <ele>3.4</ele>
        <time>2026-01-25T09:13:08Z</time>
      </trkpt>
      <trkpt lat="48.527" lon="-2.73882">
        <ele>3.4</ele>
        <time>2026-01-25T09:13:09Z</time>
      </trkpt>
      <trkpt lat="48.52705" lon="-2.73878">
        <ele>4.2</ele>
        <time>2026-01-25T09:13:10Z</time>
      </trkpt>
      <trkpt lat="48.52711" lon="-2.73874">
        <ele>4.2</ele>
        <time>2026-01-25T09:13:11Z</time>
      </trkpt>
      <trkpt lat="48.52717" lon="-2.7387">
        <ele>4.2</ele>
        <time>2026-01-25T09:13:12Z</time>
      </trkpt>
      <trkpt lat="48.52723" lon="-2.73867">
        <ele>4.2</ele>
        <time>2026-01-25T09:13:13Z</time>
      </trkpt>
      <trkpt lat="48.52728" lon="-2.73863">
        <ele>4.2</ele>
        <time>2026-01-25T09:13:14Z</time>
      </trkpt>
      <trkpt lat="48.52734" lon="-2.73859">
        <ele>4</ele>
        <time>2026-01-25T09:13:15Z</time>
      </trkpt>
      <trkpt lat="48.52739" lon="-2.73855">
        <ele>4</ele>
        <time>2026-01-25T09:13:16Z</time>
      </trkpt>
      <trkpt lat="48.52744" lon="-2.73851">
        <ele>4</ele>
        <time>2026-01-25T09:13:17Z</time>
      </trkpt>
      <trkpt lat="48.5275" lon="-2.73848">
        <ele>5</ele>
        <time>2026-01-25T09:13:18Z</time>
      </trkpt>
      <trkpt lat="48.52755" lon="-2.73844">
        <ele>4.8</ele>
        <time>2026-01-25T09:13:19Z</time>
      </trkpt>
      <trkpt lat="48.52761" lon="-2.7384">
        <ele>4.8</ele>
        <time>2026-01-25T09:13:20Z</time>
      </trkpt>
      <trkpt lat="48.52766" lon="-2.73837">
        <ele>4.8</ele>
        <time>2026-01-25T09:13:21Z</time>
      </trkpt>
      <trkpt lat="48.52771" lon="-2.73833">
        <ele>4.8</ele>
        <time>2026-01-25T09:13:22Z</time>
      </trkpt>
      <trkpt lat="48.52777" lon="-2.73829">
        <ele>4.8</ele>
        <time>2026-01-25T09:13:23Z</time>
      </trkpt>
      <trkpt lat="48.52782" lon="-2.73825">
        <ele>4.8</ele>
        <time>2026-01-25T09:13:24Z</time>
      </trkpt>
      <trkpt lat="48.52788" lon="-2.73822">
        <ele>4.8</ele>
        <time>2026-01-25T09:13:25Z</time>
      </trkpt>
      <trkpt lat="48.52793" lon="-2.73818">
        <ele>5</ele>
        <time>2026-01-25T09:13:26Z</time>
      </trkpt>
      <trkpt lat="48.52799" lon="-2.73814">
        <ele>4.6</ele>
        <time>2026-01-25T09:13:27Z</time>
      </trkpt>
      <trkpt lat="48.52804" lon="-2.7381">
        <ele>4.6</ele>
        <time>2026-01-25T09:13:28Z</time>
      </trkpt>
      <trkpt lat="48.5281" lon="-2.73806">
        <ele>4.6</ele>
        <time>2026-01-25T09:13:29Z</time>
      </trkpt>
      <trkpt lat="48.52815" lon="-2.73802">
        <ele>4.6</ele>
        <time>2026-01-25T09:13:30Z</time>
      </trkpt>
      <trkpt lat="48.52821" lon="-2.73798">
        <ele>4.4</ele>
        <time>2026-01-25T09:13:31Z</time>
      </trkpt>
      <trkpt lat="48.52826" lon="-2.73794">
        <ele>4.4</ele>
        <time>2026-01-25T09:13:32Z</time>
      </trkpt>
      <trkpt lat="48.52832" lon="-2.73789">
        <ele>4.4</ele>
        <time>2026-01-25T09:13:33Z</time>
      </trkpt>
      <trkpt lat="48.52837" lon="-2.73785">
        <ele>4.6</ele>
        <time>2026-01-25T09:13:34Z</time>
      </trkpt>
      <trkpt lat="48.52842" lon="-2.7378">
        <ele>5.2</ele>
        <time>2026-01-25T09:13:35Z</time>
      </trkpt>
      <trkpt lat="48.52847" lon="-2.73775">
        <ele>5.2</ele>
        <time>2026-01-25T09:13:36Z</time>
      </trkpt>
      <trkpt lat="48.52852" lon="-2.73769">
        <ele>5.2</ele>
        <time>2026-01-25T09:13:37Z</time>
      </trkpt>
      <trkpt lat="48.52857" lon="-2.73764">
        <ele>5.2</ele>
        <time>2026-01-25T09:13:38Z</time>
      </trkpt>
      <trkpt lat="48.52862" lon="-2.73758">
        <ele>5</ele>
        <time>2026-01-25T09:13:39Z</time>
      </trkpt>
      <trkpt lat="48.52867" lon="-2.73752">
        <ele>5</ele>
        <time>2026-01-25T09:13:40Z</time>
      </trkpt>
      <trkpt lat="48.52871" lon="-2.73745">
        <ele>5</ele>
        <time>2026-01-25T09:13:41Z</time>
      </trkpt>
      <trkpt lat="48.52876" lon="-2.73739">
        <ele>5</ele>
        <time>2026-01-25T09:13:42Z</time>
      </trkpt>
      <trkpt lat="48.5288" lon="-2.73732">
        <ele>5</ele>
        <time>2026-01-25T09:13:43Z</time>
      </trkpt>
      <trkpt lat="48.52884" lon="-2.73724">
        <ele>5</ele>
        <time>2026-01-25T09:13:44Z</time>
      </trkpt>
      <trkpt lat="48.52888" lon="-2.73716">
        <ele>5</ele>
        <time>2026-01-25T09:13:45Z</time>
      </trkpt>
      <trkpt lat="48.52891" lon="-2.73709">
        <ele>5</ele>
        <time>2026-01-25T09:13:46Z</time>
      </trkpt>
      <trkpt lat="48.52895" lon="-2.73701">
        <ele>5.2</ele>
        <time>2026-01-25T09:13:47Z</time>
      </trkpt>
      <trkpt lat="48.52898" lon="-2.73692">
        <ele>5.2</ele>
        <time>2026-01-25T09:13:48Z</time>
      </trkpt>
      <trkpt lat="48.52901" lon="-2.73684">
        <ele>5.2</ele>
        <time>2026-01-25T09:13:49Z</time>
      </trkpt>
      <trkpt lat="48.52905" lon="-2.73676">
        <ele>5.6</ele>
        <time>2026-01-25T09:13:50Z</time>
      </trkpt>
      <trkpt lat="48.52907" lon="-2.73667">
        <ele>5.4</ele>
        <time>2026-01-25T09:13:51Z</time>
      </trkpt>
      <trkpt lat="48.5291" lon="-2.73659">
        <ele>5.4</ele>
        <time>2026-01-25T09:13:52Z</time>
      </trkpt>
      <trkpt lat="48.52912" lon="-2.7365">
        <ele>5.4</ele>
        <time>2026-01-25T09:13:53Z</time>
      </trkpt>
      <trkpt lat="48.52914" lon="-2.7364">
        <ele>5.4</ele>
        <time>2026-01-25T09:13:54Z</time>
      </trkpt>
      <trkpt lat="48.52917" lon="-2.73631">
        <ele>5.2</ele>
        <time>2026-01-25T09:13:55Z</time>
      </trkpt>
      <trkpt lat="48.52919" lon="-2.73621">
        <ele>5.2</ele>
        <time>2026-01-25T09:13:56Z</time>
      </trkpt>
      <trkpt lat="48.52921" lon="-2.73612">
        <ele>5.2</ele>
        <time>2026-01-25T09:13:57Z</time>
      </trkpt>
      <trkpt lat="48.52922" lon="-2.73602">
        <ele>5</ele>
        <time>2026-01-25T09:13:58Z</time>
      </trkpt>
      <trkpt lat="48.52924" lon="-2.73592">
        <ele>4.8</ele>
        <time>2026-01-25T09:13:59Z</time>
      </trkpt>
      <trkpt lat="48.52925" lon="-2.73582">
        <ele>4.8</ele>
        <time>2026-01-25T09:14:00Z</time>
      </trkpt>
      <trkpt lat="48.52926" lon="-2.73572">
        <ele>4.8</ele>
        <time>2026-01-25T09:14:01Z</time>
      </trkpt>
      <trkpt lat="48.52928" lon="-2.73561">
        <ele>4.8</ele>
        <time>2026-01-25T09:14:02Z</time>
      </trkpt>
      <trkpt lat="48.52929" lon="-2.73551">
        <ele>5.2</ele>
        <time>2026-01-25T09:14:03Z</time>
      </trkpt>
      <trkpt lat="48.52931" lon="-2.73541">
        <ele>5.2</ele>
        <time>2026-01-25T09:14:04Z</time>
      </trkpt>
      <trkpt lat="48.52932" lon="-2.7353">
        <ele>5.2</ele>
        <time>2026-01-25T09:14:05Z</time>
      </trkpt>
      <trkpt lat="48.52934" lon="-2.7352">
        <ele>4.8</ele>
        <time>2026-01-25T09:14:06Z</time>
      </trkpt>
      <trkpt lat="48.52935" lon="-2.73509">
        <ele>4</ele>
        <time>2026-01-25T09:14:07Z</time>
      </trkpt>
      <trkpt lat="48.52937" lon="-2.73499">
        <ele>4</ele>
        <time>2026-01-25T09:14:08Z</time>
      </trkpt>
      <trkpt lat="48.52938" lon="-2.73489">
        <ele>4</ele>
        <time>2026-01-25T09:14:09Z</time>
      </trkpt>
      <trkpt lat="48.5294" lon="-2.73478">
        <ele>4</ele>
        <time>2026-01-25T09:14:10Z</time>
      </trkpt>
      <trkpt lat="48.52941" lon="-2.73468">
        <ele>3.6</ele>
        <time>2026-01-25T09:14:11Z</time>
      </trkpt>
      <trkpt lat="48.52943" lon="-2.73457">
        <ele>3.6</ele>
        <time>2026-01-25T09:14:12Z</time>
      </trkpt>
      <trkpt lat="48.52944" lon="-2.73446">
        <ele>3.6</ele>
        <time>2026-01-25T09:14:13Z</time>
      </trkpt>
      <trkpt lat="48.52945" lon="-2.73436">
        <ele>3.6</ele>
        <time>2026-01-25T09:14:14Z</time>
      </trkpt>
      <trkpt lat="48.52947" lon="-2.73425">
        <ele>4.6</ele>
        <time>2026-01-25T09:14:15Z</time>
      </trkpt>
      <trkpt lat="48.52948" lon="-2.73415">
        <ele>4.6</ele>
        <time>2026-01-25T09:14:16Z</time>
      </trkpt>
      <trkpt lat="48.52949" lon="-2.73404">
        <ele>4.6</ele>
        <time>2026-01-25T09:14:17Z</time>
      </trkpt>
      <trkpt lat="48.5295" lon="-2.73393">
        <ele>3.8</ele>
        <time>2026-01-25T09:14:18Z</time>
      </trkpt>
      <trkpt lat="48.52951" lon="-2.73383">
        <ele>4.2</ele>
        <time>2026-01-25T09:14:19Z</time>
      </trkpt>
      <trkpt lat="48.52952" lon="-2.73372">
        <ele>4.2</ele>
        <time>2026-01-25T09:14:20Z</time>
      </trkpt>
      <trkpt lat="48.52952" lon="-2.73361">
        <ele>4.2</ele>
        <time>2026-01-25T09:14:21Z</time>
      </trkpt>
      <trkpt lat="48.52953" lon="-2.7335">
        <ele>4.2</ele>
        <time>2026-01-25T09:14:22Z</time>
      </trkpt>
      <trkpt lat="48.52953" lon="-2.73339">
        <ele>4.2</ele>
        <time>2026-01-25T09:14:23Z</time>
      </trkpt>
      <trkpt lat="48.52952" lon="-2.73328">
        <ele>4.2</ele>
        <time>2026-01-25T09:14:24Z</time>
      </trkpt>
      <trkpt lat="48.52952" lon="-2.73317">
        <ele>4.2</ele>
        <time>2026-01-25T09:14:25Z</time>
      </trkpt>
      <trkpt lat="48.52951" lon="-2.73306">
        <ele>4.4</ele>
        <time>2026-01-25T09:14:26Z</time>
      </trkpt>
      <trkpt lat="48.52951" lon="-2.73295">
        <ele>4.4</ele>
        <time>2026-01-25T09:14:27Z</time>
      </trkpt>
      <trkpt lat="48.5295" lon="-2.73284">
        <ele>4.4</ele>
        <time>2026-01-25T09:14:28Z</time>
      </trkpt>
      <trkpt lat="48.52949" lon="-2.73273">
        <ele>4.4</ele>
        <time>2026-01-25T09:14:29Z</time>
      </trkpt>
      <trkpt lat="48.52948" lon="-2.73262">
        <ele>4</ele>
        <time>2026-01-25T09:14:30Z</time>
      </trkpt>
      <trkpt lat="48.52947" lon="-2.73251">
        <ele>4</ele>
        <time>2026-01-25T09:14:31Z</time>
      </trkpt>
      <trkpt lat="48.52946" lon="-2.7324">
        <ele>4</ele>
        <time>2026-01-25T09:14:32Z</time>
      </trkpt>
      <trkpt lat="48.52945" lon="-2.73229">
        <ele>4</ele>
        <time>2026-01-25T09:14:33Z</time>
      </trkpt>
      <trkpt lat="48.52943" lon="-2.73218">
        <ele>4</ele>
        <time>2026-01-25T09:14:34Z</time>
      </trkpt>
      <trkpt lat="48.52942" lon="-2.73206">
        <ele>4.2</ele>
        <time>2026-01-25T09:14:35Z</time>
      </trkpt>
      <trkpt lat="48.5294" lon="-2.73194">
        <ele>4.2</ele>
        <time>2026-01-25T09:14:36Z</time>
      </trkpt>
      <trkpt lat="48.52939" lon="-2.73183">
        <ele>4.2</ele>
        <time>2026-01-25T09:14:37Z</time>
      </trkpt>
      <trkpt lat="48.52939" lon="-2.73171">
        <ele>3.2</ele>
        <time>2026-01-25T09:14:38Z</time>
      </trkpt>
      <trkpt lat="48.52938" lon="-2.73158">
        <ele>3</ele>
        <time>2026-01-25T09:14:39Z</time>
      </trkpt>
      <trkpt lat="48.52939" lon="-2.73146">
        <ele>3</ele>
        <time>2026-01-25T09:14:40Z</time>
      </trkpt>
      <trkpt lat="48.52939" lon="-2.73134">
        <ele>3</ele>
        <time>2026-01-25T09:14:41Z</time>
      </trkpt>
      <trkpt lat="48.5294" lon="-2.73121">
        <ele>2</ele>
        <time>2026-01-25T09:14:42Z</time>
      </trkpt>
      <trkpt lat="48.52941" lon="-2.73109">
        <ele>2.4</ele>
        <time>2026-01-25T09:14:43Z</time>
      </trkpt>
      <trkpt lat="48.52942" lon="-2.73096">
        <ele>2.4</ele>
        <time>2026-01-25T09:14:44Z</time>
      </trkpt>
      <trkpt lat="48.52943" lon="-2.73084">
        <ele>2.4</ele>
        <time>2026-01-25T09:14:45Z</time>
      </trkpt>
      <trkpt lat="48.52945" lon="-2.73072">
        <ele>2.4</ele>
        <time>2026-01-25T09:14:46Z</time>
      </trkpt>
      <trkpt lat="48.52947" lon="-2.7306">
        <ele>2.4</ele>
        <time>2026-01-25T09:14:47Z</time>
      </trkpt>
      <trkpt lat="48.52949" lon="-2.73049">
        <ele>2.4</ele>
        <time>2026-01-25T09:14:48Z</time>
      </trkpt>
      <trkpt lat="48.52952" lon="-2.73037">
        <ele>2.4</ele>
        <time>2026-01-25T09:14:49Z</time>
      </trkpt>
      <trkpt lat="48.52955" lon="-2.73026">
        <ele>2.4</ele>
        <time>2026-01-25T09:14:50Z</time>
      </trkpt>
      <trkpt lat="48.52957" lon="-2.73015">
        <ele>2.4</ele>
        <time>2026-01-25T09:14:51Z</time>
      </trkpt>
      <trkpt lat="48.5296" lon="-2.73003">
        <ele>2.4</ele>
        <time>2026-01-25T09:14:52Z</time>
      </trkpt>
      <trkpt lat="48.52963" lon="-2.72992">
        <ele>2.4</ele>
        <time>2026-01-25T09:14:53Z</time>
      </trkpt>
      <trkpt lat="48.52966" lon="-2.72981">
        <ele>3</ele>
        <time>2026-01-25T09:14:54Z</time>
      </trkpt>
      <trkpt lat="48.52969" lon="-2.7297">
        <ele>3</ele>
        <time>2026-01-25T09:14:55Z</time>
      </trkpt>
      <trkpt lat="48.52971" lon="-2.72959">
        <ele>3</ele>
        <time>2026-01-25T09:14:56Z</time>
      </trkpt>
      <trkpt lat="48.52974" lon="-2.72948">
        <ele>3</ele>
        <time>2026-01-25T09:14:57Z</time>
      </trkpt>
      <trkpt lat="48.52977" lon="-2.72937">
        <ele>3</ele>
        <time>2026-01-25T09:14:58Z</time>
      </trkpt>
      <trkpt lat="48.5298" lon="-2.72926">
        <ele>3</ele>
        <time>2026-01-25T09:14:59Z</time>
      </trkpt>
      <trkpt lat="48.52982" lon="-2.72915">
        <ele>3</ele>
        <time>2026-01-25T09:15:00Z</time>
      </trkpt>
      <trkpt lat="48.52985" lon="-2.72903">
        <ele>3</ele>
        <time>2026-01-25T09:15:01Z</time>
      </trkpt>
      <trkpt lat="48.52987" lon="-2.72893">
        <ele>2.8</ele>
        <time>2026-01-25T09:15:02Z</time>
      </trkpt>
      <trkpt lat="48.52989" lon="-2.72881">
        <ele>2.4</ele>
        <time>2026-01-25T09:15:03Z</time>
      </trkpt>
      <trkpt lat="48.52991" lon="-2.72869">
        <ele>2.4</ele>
        <time>2026-01-25T09:15:04Z</time>
      </trkpt>
      <trkpt lat="48.52993" lon="-2.72857">
        <ele>2.4</ele>
        <time>2026-01-25T09:15:05Z</time>
      </trkpt>
      <trkpt lat="48.52994" lon="-2.72846">
        <ele>2.4</ele>
        <time>2026-01-25T09:15:06Z</time>
      </trkpt>
      <trkpt lat="48.52996" lon="-2.72834">
        <ele>3</ele>
        <time>2026-01-25T09:15:07Z</time>
      </trkpt>
      <trkpt lat="48.52997" lon="-2.72822">
        <ele>3</ele>
        <time>2026-01-25T09:15:08Z</time>
      </trkpt>
      <trkpt lat="48.52999" lon="-2.72811">
        <ele>3</ele>
        <time>2026-01-25T09:15:09Z</time>
      </trkpt>
      <trkpt lat="48.53" lon="-2.72799">
        <ele>3</ele>
        <time>2026-01-25T09:15:10Z</time>
      </trkpt>
      <trkpt lat="48.53002" lon="-2.72787">
        <ele>3</ele>
        <time>2026-01-25T09:15:11Z</time>
      </trkpt>
      <trkpt lat="48.53003" lon="-2.72776">
        <ele>3</ele>
        <time>2026-01-25T09:15:12Z</time>
      </trkpt>
      <trkpt lat="48.53005" lon="-2.72765">
        <ele>3</ele>
        <time>2026-01-25T09:15:13Z</time>
      </trkpt>
      <trkpt lat="48.53006" lon="-2.72754">
        <ele>3</ele>
        <time>2026-01-25T09:15:14Z</time>
      </trkpt>
      <trkpt lat="48.53008" lon="-2.72742">
        <ele>2.8</ele>
        <time>2026-01-25T09:15:15Z</time>
      </trkpt>
      <trkpt lat="48.53011" lon="-2.72731">
        <ele>2.8</ele>
        <time>2026-01-25T09:15:16Z</time>
      </trkpt>
      <trkpt lat="48.53014" lon="-2.72721">
        <ele>2.8</ele>
        <time>2026-01-25T09:15:17Z</time>
      </trkpt>
      <trkpt lat="48.53018" lon="-2.72711">
        <ele>2.8</ele>
        <time>2026-01-25T09:15:18Z</time>
      </trkpt>
      <trkpt lat="48.53021" lon="-2.72701">
        <ele>2.4</ele>
        <time>2026-01-25T09:15:19Z</time>
      </trkpt>
      <trkpt lat="48.53025" lon="-2.72691">
        <ele>2.4</ele>
        <time>2026-01-25T09:15:20Z</time>
      </trkpt>
      <trkpt lat="48.5303" lon="-2.72682">
        <ele>2.4</ele>
        <time>2026-01-25T09:15:21Z</time>
      </trkpt>
      <trkpt lat="48.53035" lon="-2.72674">
        <ele>2.6</ele>
        <time>2026-01-25T09:15:22Z</time>
      </trkpt>
      <trkpt lat="48.5304" lon="-2.72665">
        <ele>2.8</ele>
        <time>2026-01-25T09:15:23Z</time>
      </trkpt>
      <trkpt lat="48.53044" lon="-2.72656">
        <ele>2.8</ele>
        <time>2026-01-25T09:15:24Z</time>
      </trkpt>
      <trkpt lat="48.53049" lon="-2.72647">
        <ele>2.8</ele>
        <time>2026-01-25T09:15:25Z</time>
      </trkpt>
      <trkpt lat="48.53054" lon="-2.72638">
        <ele>2.8</ele>
        <time>2026-01-25T09:15:26Z</time>
      </trkpt>
      <trkpt lat="48.53059" lon="-2.72629">
        <ele>3</ele>
        <time>2026-01-25T09:15:27Z</time>
      </trkpt>
      <trkpt lat="48.53064" lon="-2.72621">
        <ele>3</ele>
        <time>2026-01-25T09:15:28Z</time>
      </trkpt>
      <trkpt lat="48.53069" lon="-2.72612">
        <ele>3</ele>
        <time>2026-01-25T09:15:29Z</time>
      </trkpt>
      <trkpt lat="48.53074" lon="-2.72603">
        <ele>3</ele>
        <time>2026-01-25T09:15:30Z</time>
      </trkpt>
      <trkpt lat="48.53079" lon="-2.72595">
        <ele>3.4</ele>
        <time>2026-01-25T09:15:31Z</time>
      </trkpt>
      <trkpt lat="48.53084" lon="-2.72586">
        <ele>3.4</ele>
        <time>2026-01-25T09:15:32Z</time>
      </trkpt>
      <trkpt lat="48.53089" lon="-2.72578">
        <ele>3.4</ele>
        <time>2026-01-25T09:15:33Z</time>
      </trkpt>
      <trkpt lat="48.53094" lon="-2.72569">
        <ele>3</ele>
        <time>2026-01-25T09:15:34Z</time>
      </trkpt>
      <trkpt lat="48.53099" lon="-2.7256">
        <ele>3</ele>
        <time>2026-01-25T09:15:35Z</time>
      </trkpt>
      <trkpt lat="48.53104" lon="-2.72551">
        <ele>3</ele>
        <time>2026-01-25T09:15:36Z</time>
      </trkpt>
      <trkpt lat="48.53109" lon="-2.72543">
        <ele>3</ele>
        <time>2026-01-25T09:15:37Z</time>
      </trkpt>
      <trkpt lat="48.53115" lon="-2.72535">
        <ele>3</ele>
        <time>2026-01-25T09:15:38Z</time>
      </trkpt>
      <trkpt lat="48.5312" lon="-2.72527">
        <ele>2.8</ele>
        <time>2026-01-25T09:15:39Z</time>
      </trkpt>
      <trkpt lat="48.53126" lon="-2.72519">
        <ele>2.8</ele>
        <time>2026-01-25T09:15:40Z</time>
      </trkpt>
      <trkpt lat="48.53132" lon="-2.72512">
        <ele>2.8</ele>
        <time>2026-01-25T09:15:41Z</time>
      </trkpt>
      <trkpt lat="48.53138" lon="-2.72504">
        <ele>3</ele>
        <time>2026-01-25T09:15:42Z</time>
      </trkpt>
      <trkpt lat="48.53144" lon="-2.72496">
        <ele>2.6</ele>
        <time>2026-01-25T09:15:43Z</time>
      </trkpt>
      <trkpt lat="48.5315" lon="-2.72489">
        <ele>2.6</ele>
        <time>2026-01-25T09:15:44Z</time>
      </trkpt>
      <trkpt lat="48.53156" lon="-2.72481">
        <ele>2.6</ele>
        <time>2026-01-25T09:15:45Z</time>
      </trkpt>
      <trkpt lat="48.53161" lon="-2.72474">
        <ele>3</ele>
        <time>2026-01-25T09:15:46Z</time>
      </trkpt>
      <trkpt lat="48.53167" lon="-2.72466">
        <ele>2.8</ele>
        <time>2026-01-25T09:15:47Z</time>
      </trkpt>
      <trkpt lat="48.53173" lon="-2.72459">
        <ele>2.8</ele>
        <time>2026-01-25T09:15:48Z</time>
      </trkpt>
      <trkpt lat="48.53179" lon="-2.72451">
        <ele>2.8</ele>
        <time>2026-01-25T09:15:49Z</time>
      </trkpt>
      <trkpt lat="48.53184" lon="-2.72444">
        <ele>3</ele>
        <time>2026-01-25T09:15:50Z</time>
      </trkpt>
      <trkpt lat="48.5319" lon="-2.72436">
        <ele>3.6</ele>
        <time>2026-01-25T09:15:51Z</time>
      </trkpt>
      <trkpt lat="48.53196" lon="-2.72429">
        <ele>3.6</ele>
        <time>2026-01-25T09:15:52Z</time>
      </trkpt>
      <trkpt lat="48.53201" lon="-2.72421">
        <ele>3.6</ele>
        <time>2026-01-25T09:15:53Z</time>
      </trkpt>
      <trkpt lat="48.53206" lon="-2.72414">
        <ele>4.6</ele>
        <time>2026-01-25T09:15:54Z</time>
      </trkpt>
      <trkpt lat="48.53212" lon="-2.72407">
        <ele>5.4</ele>
        <time>2026-01-25T09:15:55Z</time>
      </trkpt>
      <trkpt lat="48.53217" lon="-2.724">
        <ele>5.4</ele>
        <time>2026-01-25T09:15:56Z</time>
      </trkpt>
      <trkpt lat="48.53222" lon="-2.72393">
        <ele>5.4</ele>
        <time>2026-01-25T09:15:57Z</time>
      </trkpt>
      <trkpt lat="48.53227" lon="-2.72387">
        <ele>6.4</ele>
        <time>2026-01-25T09:15:58Z</time>
      </trkpt>
      <trkpt lat="48.53232" lon="-2.72381">
        <ele>6.4</ele>
        <time>2026-01-25T09:15:59Z</time>
      </trkpt>
      <trkpt lat="48.53237" lon="-2.72375">
        <ele>6.4</ele>
        <time>2026-01-25T09:16:00Z</time>
      </trkpt>
      <trkpt lat="48.53242" lon="-2.72369">
        <ele>6.4</ele>
        <time>2026-01-25T09:16:01Z</time>
      </trkpt>
      <trkpt lat="48.53246" lon="-2.72362">
        <ele>6.4</ele>
        <time>2026-01-25T09:16:02Z</time>
      </trkpt>
      <trkpt lat="48.53251" lon="-2.72356">
        <ele>7</ele>
        <time>2026-01-25T09:16:03Z</time>
      </trkpt>
      <trkpt lat="48.53256" lon="-2.7235">
        <ele>7</ele>
        <time>2026-01-25T09:16:04Z</time>
      </trkpt>
      <trkpt lat="48.53261" lon="-2.72344">
        <ele>7</ele>
        <time>2026-01-25T09:16:05Z</time>
      </trkpt>
      <trkpt lat="48.53266" lon="-2.72338">
        <ele>7</ele>
        <time>2026-01-25T09:16:06Z</time>
      </trkpt>
      <trkpt lat="48.5327" lon="-2.72332">
        <ele>7.8</ele>
        <time>2026-01-25T09:16:07Z</time>
      </trkpt>
      <trkpt lat="48.53275" lon="-2.72326">
        <ele>7.8</ele>
        <time>2026-01-25T09:16:08Z</time>
      </trkpt>
      <trkpt lat="48.5328" lon="-2.7232">
        <ele>7.8</ele>
        <time>2026-01-25T09:16:09Z</time>
      </trkpt>
      <trkpt lat="48.53285" lon="-2.72314">
        <ele>7.8</ele>
        <time>2026-01-25T09:16:10Z</time>
      </trkpt>
      <trkpt lat="48.5329" lon="-2.72307">
        <ele>7.8</ele>
        <time>2026-01-25T09:16:11Z</time>
      </trkpt>
      <trkpt lat="48.53294" lon="-2.723">
        <ele>7.8</ele>
        <time>2026-01-25T09:16:12Z</time>
      </trkpt>
      <trkpt lat="48.53298" lon="-2.72293">
        <ele>7.8</ele>
        <time>2026-01-25T09:16:13Z</time>
      </trkpt>
      <trkpt lat="48.53303" lon="-2.72286">
        <ele>8.4</ele>
        <time>2026-01-25T09:16:14Z</time>
      </trkpt>
      <trkpt lat="48.53307" lon="-2.72279">
        <ele>8.8</ele>
        <time>2026-01-25T09:16:15Z</time>
      </trkpt>
      <trkpt lat="48.53311" lon="-2.72273">
        <ele>8.8</ele>
        <time>2026-01-25T09:16:16Z</time>
      </trkpt>
      <trkpt lat="48.53315" lon="-2.72266">
        <ele>8.8</ele>
        <time>2026-01-25T09:16:17Z</time>
      </trkpt>
      <trkpt lat="48.53319" lon="-2.7226">
        <ele>9.8</ele>
        <time>2026-01-25T09:16:18Z</time>
      </trkpt>
      <trkpt lat="48.53323" lon="-2.72253">
        <ele>9.6</ele>
        <time>2026-01-25T09:16:19Z</time>
      </trkpt>
      <trkpt lat="48.53327" lon="-2.72247">
        <ele>9.6</ele>
        <time>2026-01-25T09:16:20Z</time>
      </trkpt>
      <trkpt lat="48.5333" lon="-2.72241">
        <ele>9.6</ele>
        <time>2026-01-25T09:16:21Z</time>
      </trkpt>
      <trkpt lat="48.53334" lon="-2.72235">
        <ele>10.6</ele>
        <time>2026-01-25T09:16:22Z</time>
      </trkpt>
      <trkpt lat="48.53338" lon="-2.72229">
        <ele>10.8</ele>
        <time>2026-01-25T09:16:23Z</time>
      </trkpt>
      <trkpt lat="48.53341" lon="-2.72224">
        <ele>10.8</ele>
        <time>2026-01-25T09:16:24Z</time>
      </trkpt>
      <trkpt lat="48.53345" lon="-2.72219">
        <ele>10.8</ele>
        <time>2026-01-25T09:16:25Z</time>
      </trkpt>
      <trkpt lat="48.53349" lon="-2.72213">
        <ele>11.4</ele>
        <time>2026-01-25T09:16:26Z</time>
      </trkpt>
      <trkpt lat="48.53353" lon="-2.72208">
        <ele>12</ele>
        <time>2026-01-25T09:16:27Z</time>
      </trkpt>
      <trkpt lat="48.53357" lon="-2.72203">
        <ele>12</ele>
        <time>2026-01-25T09:16:28Z</time>
      </trkpt>
      <trkpt lat="48.53361" lon="-2.72199">
        <ele>12</ele>
        <time>2026-01-25T09:16:29Z</time>
      </trkpt>
      <trkpt lat="48.53365" lon="-2.72194">
        <ele>12.6</ele>
        <time>2026-01-25T09:16:30Z</time>
      </trkpt>
      <trkpt lat="48.53369" lon="-2.7219">
        <ele>12.8</ele>
        <time>2026-01-25T09:16:31Z</time>
      </trkpt>
      <trkpt lat="48.53372" lon="-2.72187">
        <ele>12.8</ele>
        <time>2026-01-25T09:16:32Z</time>
      </trkpt>
      <trkpt lat="48.53376" lon="-2.72183">
        <ele>12.8</ele>
        <time>2026-01-25T09:16:33Z</time>
      </trkpt>
      <trkpt lat="48.53379" lon="-2.7218">
        <ele>13.8</ele>
        <time>2026-01-25T09:16:34Z</time>
      </trkpt>
      <trkpt lat="48.53382" lon="-2.72176">
        <ele>14.6</ele>
        <time>2026-01-25T09:16:35Z</time>
      </trkpt>
      <trkpt lat="48.53385" lon="-2.72173">
        <ele>14.6</ele>
        <time>2026-01-25T09:16:36Z</time>
      </trkpt>
      <trkpt lat="48.53388" lon="-2.72169">
        <ele>14.6</ele>
        <time>2026-01-25T09:16:37Z</time>
      </trkpt>
      <trkpt lat="48.53391" lon="-2.72166">
        <ele>15.6</ele>
        <time>2026-01-25T09:16:38Z</time>
      </trkpt>
      <trkpt lat="48.53394" lon="-2.72162">
        <ele>15.6</ele>
        <time>2026-01-25T09:16:39Z</time>
      </trkpt>
      <trkpt lat="48.53396" lon="-2.72159">
        <ele>15.6</ele>
        <time>2026-01-25T09:16:40Z</time>
      </trkpt>
      <trkpt lat="48.53399" lon="-2.72155">
        <ele>15.6</ele>
        <time>2026-01-25T09:16:41Z</time>
      </trkpt>
      <trkpt lat="48.53402" lon="-2.72152">
        <ele>16.2</ele>
        <time>2026-01-25T09:16:42Z</time>
      </trkpt>
      <trkpt lat="48.53405" lon="-2.72149">
        <ele>16.6</ele>
        <time>2026-01-25T09:16:43Z</time>
      </trkpt>
      <trkpt lat="48.53408" lon="-2.72146">
        <ele>16.6</ele>
        <time>2026-01-25T09:16:44Z</time>
      </trkpt>
      <trkpt lat="48.53411" lon="-2.72143">
        <ele>16.6</ele>
        <time>2026-01-25T09:16:45Z</time>
      </trkpt>
      <trkpt lat="48.53413" lon="-2.7214">
        <ele>17</ele>
        <time>2026-01-25T09:16:46Z</time>
      </trkpt>
      <trkpt lat="48.53416" lon="-2.72136">
        <ele>17.2</ele>
        <time>2026-01-25T09:16:47Z</time>
      </trkpt>
      <trkpt lat="48.53419" lon="-2.72133">
        <ele>17.2</ele>
        <time>2026-01-25T09:16:48Z</time>
      </trkpt>
      <trkpt lat="48.53422" lon="-2.7213">
        <ele>17.2</ele>
        <time>2026-01-25T09:16:49Z</time>
      </trkpt>
      <trkpt lat="48.53425" lon="-2.72127">
        <ele>17.8</ele>
        <time>2026-01-25T09:16:50Z</time>
      </trkpt>
      <trkpt lat="48.53428" lon="-2.72124">
        <ele>18.6</ele>
        <time>2026-01-25T09:16:51Z</time>
      </trkpt>
      <trkpt lat="48.53431" lon="-2.72121">
        <ele>18.6</ele>
        <time>2026-01-25T09:16:52Z</time>
      </trkpt>
      <trkpt lat="48.53434" lon="-2.72117">
        <ele>18.6</ele>
        <time>2026-01-25T09:16:53Z</time>
      </trkpt>
      <trkpt lat="48.53437" lon="-2.72114">
        <ele>18.6</ele>
        <time>2026-01-25T09:16:54Z</time>
      </trkpt>
      <trkpt lat="48.5344" lon="-2.72111">
        <ele>19.4</ele>
        <time>2026-01-25T09:16:55Z</time>
      </trkpt>
      <trkpt lat="48.53443" lon="-2.72108">
        <ele>19.4</ele>
        <time>2026-01-25T09:16:56Z</time>
      </trkpt>
      <trkpt lat="48.53446" lon="-2.72105">
        <ele>19.4</ele>
        <time>2026-01-25T09:16:57Z</time>
      </trkpt>
      <trkpt lat="48.53449" lon="-2.72101">
        <ele>19.4</ele>
        <time>2026-01-25T09:16:58Z</time>
      </trkpt>
      <trkpt lat="48.53452" lon="-2.72098">
        <ele>19.8</ele>
        <time>2026-01-25T09:16:59Z</time>
      </trkpt>
      <trkpt lat="48.53454" lon="-2.72095">
        <ele>19.8</ele>
        <time>2026-01-25T09:17:00Z</time>
      </trkpt>
      <trkpt lat="48.53457" lon="-2.72092">
        <ele>19.8</ele>
        <time>2026-01-25T09:17:01Z</time>
      </trkpt>
      <trkpt lat="48.5346" lon="-2.72088">
        <ele>20.6</ele>
        <time>2026-01-25T09:17:02Z</time>
      </trkpt>
      <trkpt lat="48.53462" lon="-2.72084">
        <ele>20.6</ele>
        <time>2026-01-25T09:17:03Z</time>
      </trkpt>
      <trkpt lat="48.53465" lon="-2.72081">
        <ele>20.6</ele>
        <time>2026-01-25T09:17:04Z</time>
      </trkpt>
      <trkpt lat="48.53468" lon="-2.72078">
        <ele>20.6</ele>
        <time>2026-01-25T09:17:05Z</time>
      </trkpt>
      <trkpt lat="48.53471" lon="-2.72075">
        <ele>21.4</ele>
        <time>2026-01-25T09:17:06Z</time>
      </trkpt>
      <trkpt lat="48.53474" lon="-2.72072">
        <ele>21.2</ele>
        <time>2026-01-25T09:17:07Z</time>
      </trkpt>
      <trkpt lat="48.53477" lon="-2.72069">
        <ele>21.2</ele>
        <time>2026-01-25T09:17:08Z</time>
      </trkpt>
      <trkpt lat="48.53479" lon="-2.72065">
        <ele>21.2</ele>
        <time>2026-01-25T09:17:09Z</time>
      </trkpt>
      <trkpt lat="48.53482" lon="-2.72062">
        <ele>22.2</ele>
        <time>2026-01-25T09:17:10Z</time>
      </trkpt>
      <trkpt lat="48.53485" lon="-2.72059">
        <ele>23.4</ele>
        <time>2026-01-25T09:17:11Z</time>
      </trkpt>
      <trkpt lat="48.53488" lon="-2.72056">
        <ele>23.4</ele>
        <time>2026-01-25T09:17:12Z</time>
      </trkpt>
      <trkpt lat="48.53491" lon="-2.72053">
        <ele>23.4</ele>
        <time>2026-01-25T09:17:13Z</time>
      </trkpt>
      <trkpt lat="48.53494" lon="-2.7205">
        <ele>23.4</ele>
        <time>2026-01-25T09:17:14Z</time>
      </trkpt>
      <trkpt lat="48.53496" lon="-2.72046">
        <ele>23.6</ele>
        <time>2026-01-25T09:17:15Z</time>
      </trkpt>
      <trkpt lat="48.53499" lon="-2.72043">
        <ele>23.6</ele>
        <time>2026-01-25T09:17:16Z</time>
      </trkpt>
      <trkpt lat="48.53502" lon="-2.7204">
        <ele>23.6</ele>
        <time>2026-01-25T09:17:17Z</time>
      </trkpt>
      <trkpt lat="48.53504" lon="-2.72036">
        <ele>24.6</ele>
        <time>2026-01-25T09:17:18Z</time>
      </trkpt>
      <trkpt lat="48.53507" lon="-2.72033">
        <ele>24.4</ele>
        <time>2026-01-25T09:17:19Z</time>
      </trkpt>
      <trkpt lat="48.5351" lon="-2.7203">
        <ele>24.4</ele>
        <time>2026-01-25T09:17:20Z</time>
      </trkpt>
      <trkpt lat="48.53513" lon="-2.72026">
        <ele>24.4</ele>
        <time>2026-01-25T09:17:21Z</time>
      </trkpt>
      <trkpt lat="48.53515" lon="-2.72023">
        <ele>25.4</ele>
        <time>2026-01-25T09:17:22Z</time>
      </trkpt>
      <trkpt lat="48.53518" lon="-2.72019">
        <ele>26</ele>
        <time>2026-01-25T09:17:23Z</time>
      </trkpt>
      <trkpt lat="48.53521" lon="-2.72015">
        <ele>26</ele>
        <time>2026-01-25T09:17:24Z</time>
      </trkpt>
      <trkpt lat="48.53523" lon="-2.72011">
        <ele>26</ele>
        <time>2026-01-25T09:17:25Z</time>
      </trkpt>
      <trkpt lat="48.53526" lon="-2.72007">
        <ele>26</ele>
        <time>2026-01-25T09:17:26Z</time>
      </trkpt>
      <trkpt lat="48.53529" lon="-2.72003">
        <ele>26.4</ele>
        <time>2026-01-25T09:17:27Z</time>
      </trkpt>
      <trkpt lat="48.53531" lon="-2.71998">
        <ele>26.4</ele>
        <time>2026-01-25T09:17:28Z</time>
      </trkpt>
      <trkpt lat="48.53534" lon="-2.71994">
        <ele>26.4</ele>
        <time>2026-01-25T09:17:29Z</time>
      </trkpt>
      <trkpt lat="48.53536" lon="-2.7199">
        <ele>27.4</ele>
        <time>2026-01-25T09:17:30Z</time>
      </trkpt>
      <trkpt lat="48.53539" lon="-2.71985">
        <ele>27.4</ele>
        <time>2026-01-25T09:17:31Z</time>
      </trkpt>
      <trkpt lat="48.53541" lon="-2.71981">
        <ele>27.4</ele>
        <time>2026-01-25T09:17:32Z</time>
      </trkpt>
      <trkpt lat="48.53544" lon="-2.71977">
        <ele>27.4</ele>
        <time>2026-01-25T09:17:33Z</time>
      </trkpt>
      <trkpt lat="48.53546" lon="-2.71973">
        <ele>28</ele>
        <time>2026-01-25T09:17:34Z</time>
      </trkpt>
      <trkpt lat="48.53549" lon="-2.71969">
        <ele>28.4</ele>
        <time>2026-01-25T09:17:35Z</time>
      </trkpt>
      <trkpt lat="48.53552" lon="-2.71966">
        <ele>28.4</ele>
        <time>2026-01-25T09:17:36Z</time>
      </trkpt>
      <trkpt lat="48.53555" lon="-2.71962">
        <ele>28.4</ele>
        <time>2026-01-25T09:17:37Z</time>
      </trkpt>
      <trkpt lat="48.53558" lon="-2.71959">
        <ele>28.4</ele>
        <time>2026-01-25T09:17:38Z</time>
      </trkpt>
      <trkpt lat="48.53561" lon="-2.71956">
        <ele>29</ele>
        <time>2026-01-25T09:17:39Z</time>
      </trkpt>
      <trkpt lat="48.53564" lon="-2.71953">
        <ele>29</ele>
        <time>2026-01-25T09:17:40Z</time>
      </trkpt>
      <trkpt lat="48.53567" lon="-2.7195">
        <ele>29</ele>
        <time>2026-01-25T09:17:41Z</time>
      </trkpt>
      <trkpt lat="48.5357" lon="-2.71947">
        <ele>29</ele>
        <time>2026-01-25T09:17:42Z</time>
      </trkpt>
      <trkpt lat="48.53573" lon="-2.71944">
        <ele>29.2</ele>
        <time>2026-01-25T09:17:43Z</time>
      </trkpt>
      <trkpt lat="48.53576" lon="-2.7194">
        <ele>29.2</ele>
        <time>2026-01-25T09:17:44Z</time>
      </trkpt>
      <trkpt lat="48.53578" lon="-2.71937">
        <ele>29.2</ele>
        <time>2026-01-25T09:17:45Z</time>
      </trkpt>
      <trkpt lat="48.53582" lon="-2.71934">
        <ele>29.6</ele>
        <time>2026-01-25T09:17:46Z</time>
      </trkpt>
      <trkpt lat="48.53584" lon="-2.71932">
        <ele>30</ele>
        <time>2026-01-25T09:17:47Z</time>
      </trkpt>
      <trkpt lat="48.53588" lon="-2.71929">
        <ele>30</ele>
        <time>2026-01-25T09:17:48Z</time>
      </trkpt>
      <trkpt lat="48.53591" lon="-2.71926">
        <ele>30</ele>
        <time>2026-01-25T09:17:49Z</time>
      </trkpt>
      <trkpt lat="48.53594" lon="-2.71924">
        <ele>31</ele>
        <time>2026-01-25T09:17:50Z</time>
      </trkpt>
      <trkpt lat="48.53597" lon="-2.71922">
        <ele>31.2</ele>
        <time>2026-01-25T09:17:51Z</time>
      </trkpt>
      <trkpt lat="48.536" lon="-2.7192">
        <ele>31.2</ele>
        <time>2026-01-25T09:17:52Z</time>
      </trkpt>
      <trkpt lat="48.53604" lon="-2.71918">
        <ele>31.2</ele>
        <time>2026-01-25T09:17:53Z</time>
      </trkpt>
      <trkpt lat="48.53607" lon="-2.71917">
        <ele>31.8</ele>
        <time>2026-01-25T09:17:54Z</time>
      </trkpt>
      <trkpt lat="48.53611" lon="-2.71916">
        <ele>31.6</ele>
        <time>2026-01-25T09:17:55Z</time>
      </trkpt>
      <trkpt lat="48.53614" lon="-2.71915">
        <ele>31.6</ele>
        <time>2026-01-25T09:17:56Z</time>
      </trkpt>
      <trkpt lat="48.53618" lon="-2.71914">
        <ele>31.6</ele>
        <time>2026-01-25T09:17:57Z</time>
      </trkpt>
      <trkpt lat="48.53621" lon="-2.71914">
        <ele>32.6</ele>
        <time>2026-01-25T09:17:58Z</time>
      </trkpt>
      <trkpt lat="48.53625" lon="-2.71914">
        <ele>32.4</ele>
        <time>2026-01-25T09:17:59Z</time>
      </trkpt>
      <trkpt lat="48.53628" lon="-2.71915">
        <ele>32.4</ele>
        <time>2026-01-25T09:18:00Z</time>
      </trkpt>
      <trkpt lat="48.53631" lon="-2.71916">
        <ele>32.4</ele>
        <time>2026-01-25T09:18:01Z</time>
      </trkpt>
      <trkpt lat="48.53635" lon="-2.71917">
        <ele>33.2</ele>
        <time>2026-01-25T09:18:02Z</time>
      </trkpt>
      <trkpt lat="48.53638" lon="-2.71918">
        <ele>33.4</ele>
        <time>2026-01-25T09:18:03Z</time>
      </trkpt>
      <trkpt lat="48.53641" lon="-2.7192">
        <ele>33.4</ele>
        <time>2026-01-25T09:18:04Z</time>
      </trkpt>
      <trkpt lat="48.53644" lon="-2.71922">
        <ele>33.4</ele>
        <time>2026-01-25T09:18:05Z</time>
      </trkpt>
      <trkpt lat="48.53647" lon="-2.71925">
        <ele>34.2</ele>
        <time>2026-01-25T09:18:06Z</time>
      </trkpt>
      <trkpt lat="48.5365" lon="-2.71927">
        <ele>34.2</ele>
        <time>2026-01-25T09:18:07Z</time>
      </trkpt>
      <trkpt lat="48.53653" lon="-2.7193">
        <ele>34.2</ele>
        <time>2026-01-25T09:18:08Z</time>
      </trkpt>
      <trkpt lat="48.53656" lon="-2.71933">
        <ele>34.2</ele>
        <time>2026-01-25T09:18:09Z</time>
      </trkpt>
      <trkpt lat="48.53659" lon="-2.71937">
        <ele>34.8</ele>
        <time>2026-01-25T09:18:10Z</time>
      </trkpt>
      <trkpt lat="48.53661" lon="-2.7194">
        <ele>35</ele>
        <time>2026-01-25T09:18:11Z</time>
      </trkpt>
      <trkpt lat="48.53664" lon="-2.71944">
        <ele>35</ele>
        <time>2026-01-25T09:18:12Z</time>
      </trkpt>
      <trkpt lat="48.53666" lon="-2.71948">
        <ele>35</ele>
        <time>2026-01-25T09:18:13Z</time>
      </trkpt>
      <trkpt lat="48.53668" lon="-2.71952">
        <ele>35.2</ele>
        <time>2026-01-25T09:18:14Z</time>
      </trkpt>
      <trkpt lat="48.53671" lon="-2.71956">
        <ele>35.6</ele>
        <time>2026-01-25T09:18:15Z</time>
      </trkpt>
      <trkpt lat="48.53673" lon="-2.7196">
        <ele>35.6</ele>
        <time>2026-01-25T09:18:16Z</time>
      </trkpt>
      <trkpt lat="48.53674" lon="-2.71964">
        <ele>35.6</ele>
        <time>2026-01-25T09:18:17Z</time>
      </trkpt>
      <trkpt lat="48.53676" lon="-2.71969">
        <ele>36</ele>
        <time>2026-01-25T09:18:18Z</time>
      </trkpt>
      <trkpt lat="48.53679" lon="-2.71973">
        <ele>36.6</ele>
        <time>2026-01-25T09:18:19Z</time>
      </trkpt>
      <trkpt lat="48.5368" lon="-2.71977">
        <ele>36.6</ele>
        <time>2026-01-25T09:18:20Z</time>
      </trkpt>
      <trkpt lat="48.53683" lon="-2.71982">
        <ele>36.6</ele>
        <time>2026-01-25T09:18:21Z</time>
      </trkpt>
      <trkpt lat="48.53684" lon="-2.71986">
        <ele>36.6</ele>
        <time>2026-01-25T09:18:22Z</time>
      </trkpt>
      <trkpt lat="48.53686" lon="-2.71991">
        <ele>37</ele>
        <time>2026-01-25T09:18:23Z</time>
      </trkpt>
      <trkpt lat="48.53688" lon="-2.71996">
        <ele>37</ele>
        <time>2026-01-25T09:18:24Z</time>
      </trkpt>
      <trkpt lat="48.53689" lon="-2.72">
        <ele>37</ele>
        <time>2026-01-25T09:18:25Z</time>
      </trkpt>
      <trkpt lat="48.53691" lon="-2.72005">
        <ele>37.6</ele>
        <time>2026-01-25T09:18:26Z</time>
      </trkpt>
      <trkpt lat="48.53693" lon="-2.72009">
        <ele>37.6</ele>
        <time>2026-01-25T09:18:27Z</time>
      </trkpt>
      <trkpt lat="48.53695" lon="-2.72014">
        <ele>37.6</ele>
        <time>2026-01-25T09:18:28Z</time>
      </trkpt>
      <trkpt lat="48.53697" lon="-2.72018">
        <ele>37.6</ele>
        <time>2026-01-25T09:18:29Z</time>
      </trkpt>
      <trkpt lat="48.53698" lon="-2.72022">
        <ele>38.6</ele>
        <time>2026-01-25T09:18:30Z</time>
      </trkpt>
      <trkpt lat="48.537" lon="-2.72027">
        <ele>38.8</ele>
        <time>2026-01-25T09:18:31Z</time>
      </trkpt>
      <trkpt lat="48.53702" lon="-2.72032">
        <ele>38.8</ele>
        <time>2026-01-25T09:18:32Z</time>
      </trkpt>
      <trkpt lat="48.53703" lon="-2.72036">
        <ele>38.8</ele>
        <time>2026-01-25T09:18:33Z</time>
      </trkpt>
      <trkpt lat="48.53705" lon="-2.7204">
        <ele>39.4</ele>
        <time>2026-01-25T09:18:34Z</time>
      </trkpt>
      <trkpt lat="48.53707" lon="-2.72045">
        <ele>40</ele>
        <time>2026-01-25T09:18:35Z</time>
      </trkpt>
      <trkpt lat="48.53709" lon="-2.72049">
        <ele>40</ele>
        <time>2026-01-25T09:18:36Z</time>
      </trkpt>
      <trkpt lat="48.53711" lon="-2.72053">
        <ele>40</ele>
        <time>2026-01-25T09:18:37Z</time>
      </trkpt>
      <trkpt lat="48.53713" lon="-2.72058">
        <ele>40.4</ele>
        <time>2026-01-25T09:18:38Z</time>
      </trkpt>
      <trkpt lat="48.53715" lon="-2.72063">
        <ele>40.8</ele>
        <time>2026-01-25T09:18:39Z</time>
      </trkpt>
      <trkpt lat="48.53716" lon="-2.72069">
        <ele>40.8</ele>
        <time>2026-01-25T09:18:40Z</time>
      </trkpt>
      <trkpt lat="48.53718" lon="-2.72074">
        <ele>40.8</ele>
        <time>2026-01-25T09:18:41Z</time>
      </trkpt>
      <trkpt lat="48.5372" lon="-2.72079">
        <ele>40.6</ele>
        <time>2026-01-25T09:18:42Z</time>
      </trkpt>
      <trkpt lat="48.53722" lon="-2.72084">
        <ele>40.8</ele>
        <time>2026-01-25T09:18:43Z</time>
      </trkpt>
      <trkpt lat="48.53724" lon="-2.72089">
        <ele>40.8</ele>
        <time>2026-01-25T09:18:44Z</time>
      </trkpt>
      <trkpt lat="48.53726" lon="-2.72095">
        <ele>40.8</ele>
        <time>2026-01-25T09:18:45Z</time>
      </trkpt>
      <trkpt lat="48.53728" lon="-2.72101">
        <ele>40.8</ele>
        <time>2026-01-25T09:18:46Z</time>
      </trkpt>
      <trkpt lat="48.5373" lon="-2.72107">
        <ele>40.8</ele>
        <time>2026-01-25T09:18:47Z</time>
      </trkpt>
      <trkpt lat="48.53732" lon="-2.72113">
        <ele>40.8</ele>
        <time>2026-01-25T09:18:48Z</time>
      </trkpt>
      <trkpt lat="48.53734" lon="-2.72119">
        <ele>40.8</ele>
        <time>2026-01-25T09:18:49Z</time>
      </trkpt>
      <trkpt lat="48.53737" lon="-2.72125">
        <ele>39.8</ele>
        <time>2026-01-25T09:18:50Z</time>
      </trkpt>
      <trkpt lat="48.53739" lon="-2.72132">
        <ele>39.4</ele>
        <time>2026-01-25T09:18:51Z</time>
      </trkpt>
      <trkpt lat="48.53742" lon="-2.72139">
        <ele>39.4</ele>
        <time>2026-01-25T09:18:52Z</time>
      </trkpt>
      <trkpt lat="48.53745" lon="-2.72146">
        <ele>39.4</ele>
        <time>2026-01-25T09:18:53Z</time>
      </trkpt>
      <trkpt lat="48.53748" lon="-2.72153">
        <ele>39.2</ele>
        <time>2026-01-25T09:18:54Z</time>
      </trkpt>
      <trkpt lat="48.5375" lon="-2.72161">
        <ele>38.2</ele>
        <time>2026-01-25T09:18:55Z</time>
      </trkpt>
      <trkpt lat="48.53753" lon="-2.72168">
        <ele>38.2</ele>
        <time>2026-01-25T09:18:56Z</time>
      </trkpt>
      <trkpt lat="48.53757" lon="-2.72176">
        <ele>38.2</ele>
        <time>2026-01-25T09:18:57Z</time>
      </trkpt>
      <trkpt lat="48.5376" lon="-2.72184">
        <ele>38.2</ele>
        <time>2026-01-25T09:18:58Z</time>
      </trkpt>
      <trkpt lat="48.53763" lon="-2.72191">
        <ele>36.8</ele>
        <time>2026-01-25T09:18:59Z</time>
      </trkpt>
      <trkpt lat="48.53767" lon="-2.72199">
        <ele>36.8</ele>
        <time>2026-01-25T09:19:00Z</time>
      </trkpt>
      <trkpt lat="48.53771" lon="-2.72206">
        <ele>36.8</ele>
        <time>2026-01-25T09:19:01Z</time>
      </trkpt>
      <trkpt lat="48.53776" lon="-2.72213">
        <ele>36.8</ele>
        <time>2026-01-25T09:19:02Z</time>
      </trkpt>
      <trkpt lat="48.5378" lon="-2.72221">
        <ele>36.6</ele>
        <time>2026-01-25T09:19:03Z</time>
      </trkpt>
      <trkpt lat="48.53784" lon="-2.72228">
        <ele>36.6</ele>
        <time>2026-01-25T09:19:04Z</time>
      </trkpt>
      <trkpt lat="48.53788" lon="-2.72235">
        <ele>36.6</ele>
        <time>2026-01-25T09:19:05Z</time>
      </trkpt>
      <trkpt lat="48.53793" lon="-2.72242">
        <ele>36.6</ele>
        <time>2026-01-25T09:19:06Z</time>
      </trkpt>
      <trkpt lat="48.53797" lon="-2.7225">
        <ele>36</ele>
        <time>2026-01-25T09:19:07Z</time>
      </trkpt>
      <trkpt lat="48.53801" lon="-2.72257">
        <ele>36</ele>
        <time>2026-01-25T09:19:08Z</time>
      </trkpt>
      <trkpt lat="48.53805" lon="-2.72264">
        <ele>36</ele>
        <time>2026-01-25T09:19:09Z</time>
      </trkpt>
      <trkpt lat="48.53809" lon="-2.72271">
        <ele>35.8</ele>
        <time>2026-01-25T09:19:10Z</time>
      </trkpt>
      <trkpt lat="48.53813" lon="-2.72278">
        <ele>35.6</ele>
        <time>2026-01-25T09:19:11Z</time>
      </trkpt>
      <trkpt lat="48.53817" lon="-2.72285">
        <ele>35.6</ele>
        <time>2026-01-25T09:19:12Z</time>
      </trkpt>
      <trkpt lat="48.53821" lon="-2.72293">
        <ele>35.6</ele>
        <time>2026-01-25T09:19:13Z</time>
      </trkpt>
      <trkpt lat="48.53825" lon="-2.723">
        <ele>35.6</ele>
        <time>2026-01-25T09:19:14Z</time>
      </trkpt>
      <trkpt lat="48.53829" lon="-2.72307">
        <ele>35.6</ele>
        <time>2026-01-25T09:19:15Z</time>
      </trkpt>
      <trkpt lat="48.53832" lon="-2.72315">
        <ele>35.6</ele>
        <time>2026-01-25T09:19:16Z</time>
      </trkpt>
      <trkpt lat="48.53836" lon="-2.72323">
        <ele>35.6</ele>
        <time>2026-01-25T09:19:17Z</time>
      </trkpt>
      <trkpt lat="48.53839" lon="-2.72331">
        <ele>35</ele>
        <time>2026-01-25T09:19:18Z</time>
      </trkpt>
      <trkpt lat="48.53842" lon="-2.7234">
        <ele>34.8</ele>
        <time>2026-01-25T09:19:19Z</time>
      </trkpt>
      <trkpt lat="48.53845" lon="-2.72348">
        <ele>34.8</ele>
        <time>2026-01-25T09:19:20Z</time>
      </trkpt>
      <trkpt lat="48.53848" lon="-2.72357">
        <ele>34.8</ele>
        <time>2026-01-25T09:19:21Z</time>
      </trkpt>
      <trkpt lat="48.53851" lon="-2.72365">
        <ele>35</ele>
        <time>2026-01-25T09:19:22Z</time>
      </trkpt>
      <trkpt lat="48.53854" lon="-2.72373">
        <ele>35.6</ele>
        <time>2026-01-25T09:19:23Z</time>
      </trkpt>
      <trkpt lat="48.53856" lon="-2.7238">
        <ele>35.6</ele>
        <time>2026-01-25T09:19:24Z</time>
      </trkpt>
      <trkpt lat="48.53858" lon="-2.72388">
        <ele>35.6</ele>
        <time>2026-01-25T09:19:25Z</time>
      </trkpt>
      <trkpt lat="48.53861" lon="-2.72395">
        <ele>36.6</ele>
        <time>2026-01-25T09:19:26Z</time>
      </trkpt>
      <trkpt lat="48.53863" lon="-2.72402">
        <ele>37.4</ele>
        <time>2026-01-25T09:19:27Z</time>
      </trkpt>
      <trkpt lat="48.53865" lon="-2.72408">
        <ele>37.4</ele>
        <time>2026-01-25T09:19:28Z</time>
      </trkpt>
      <trkpt lat="48.53867" lon="-2.72414">
        <ele>37.4</ele>
        <time>2026-01-25T09:19:29Z</time>
      </trkpt>
      <trkpt lat="48.53868" lon="-2.72419">
        <ele>38.4</ele>
        <time>2026-01-25T09:19:30Z</time>
      </trkpt>
      <trkpt lat="48.5387" lon="-2.72424">
        <ele>39.8</ele>
        <time>2026-01-25T09:19:31Z</time>
      </trkpt>
      <trkpt lat="48.53872" lon="-2.72428">
        <ele>39.8</ele>
        <time>2026-01-25T09:19:32Z</time>
      </trkpt>
      <trkpt lat="48.53874" lon="-2.72432">
        <ele>39.8</ele>
        <time>2026-01-25T09:19:33Z</time>
      </trkpt>
      <trkpt lat="48.53876" lon="-2.72437">
        <ele>40.2</ele>
        <time>2026-01-25T09:19:34Z</time>
      </trkpt>
      <trkpt lat="48.53878" lon="-2.72441">
        <ele>40.6</ele>
        <time>2026-01-25T09:19:35Z</time>
      </trkpt>
      <trkpt lat="48.5388" lon="-2.72446">
        <ele>40.6</ele>
        <time>2026-01-25T09:19:36Z</time>
      </trkpt>
      <trkpt lat="48.53883" lon="-2.7245">
        <ele>40.6</ele>
        <time>2026-01-25T09:19:37Z</time>
      </trkpt>
      <trkpt lat="48.53885" lon="-2.72454">
        <ele>41.6</ele>
        <time>2026-01-25T09:19:38Z</time>
      </trkpt>
      <trkpt lat="48.53887" lon="-2.72459">
        <ele>42.4</ele>
        <time>2026-01-25T09:19:39Z</time>
      </trkpt>
      <trkpt lat="48.53889" lon="-2.72463">
        <ele>42.4</ele>
        <time>2026-01-25T09:19:40Z</time>
      </trkpt>
      <trkpt lat="48.53891" lon="-2.72467">
        <ele>42.4</ele>
        <time>2026-01-25T09:19:41Z</time>
      </trkpt>
      <trkpt lat="48.53894" lon="-2.72471">
        <ele>42.4</ele>
        <time>2026-01-25T09:19:42Z</time>
      </trkpt>
      <trkpt lat="48.53896" lon="-2.72475">
        <ele>42.8</ele>
        <time>2026-01-25T09:19:43Z</time>
      </trkpt>
      <trkpt lat="48.53898" lon="-2.72479">
        <ele>42.8</ele>
        <time>2026-01-25T09:19:44Z</time>
      </trkpt>
      <trkpt lat="48.53901" lon="-2.72483">
        <ele>42.8</ele>
        <time>2026-01-25T09:19:45Z</time>
      </trkpt>
      <trkpt lat="48.53903" lon="-2.72487">
        <ele>43.8</ele>
        <time>2026-01-25T09:19:46Z</time>
      </trkpt>
      <trkpt lat="48.53906" lon="-2.72491">
        <ele>43.6</ele>
        <time>2026-01-25T09:19:47Z</time>
      </trkpt>
      <trkpt lat="48.53908" lon="-2.72495">
        <ele>43.6</ele>
        <time>2026-01-25T09:19:48Z</time>
      </trkpt>
      <trkpt lat="48.5391" lon="-2.72499">
        <ele>43.6</ele>
        <time>2026-01-25T09:19:49Z</time>
      </trkpt>
      <trkpt lat="48.53912" lon="-2.72503">
        <ele>44.2</ele>
        <time>2026-01-25T09:19:50Z</time>
      </trkpt>
      <trkpt lat="48.53915" lon="-2.72507">
        <ele>44.4</ele>
        <time>2026-01-25T09:19:51Z</time>
      </trkpt>
      <trkpt lat="48.53917" lon="-2.72511">
        <ele>44.4</ele>
        <time>2026-01-25T09:19:52Z</time>
      </trkpt>
      <trkpt lat="48.53919" lon="-2.72515">
        <ele>44.4</ele>
        <time>2026-01-25T09:19:53Z</time>
      </trkpt>
      <trkpt lat="48.53922" lon="-2.72519">
        <ele>44.8</ele>
        <time>2026-01-25T09:19:54Z</time>
      </trkpt>
      <trkpt lat="48.53924" lon="-2.72523">
        <ele>44.8</ele>
        <time>2026-01-25T09:19:55Z</time>
      </trkpt>
      <trkpt lat="48.53926" lon="-2.72527">
        <ele>44.8</ele>
        <time>2026-01-25T09:19:56Z</time>
      </trkpt>
      <trkpt lat="48.53929" lon="-2.72531">
        <ele>44.8</ele>
        <time>2026-01-25T09:19:57Z</time>
      </trkpt>
      <trkpt lat="48.53931" lon="-2.72535">
        <ele>45.4</ele>
        <time>2026-01-25T09:19:58Z</time>
      </trkpt>
      <trkpt lat="48.53934" lon="-2.72539">
        <ele>45.6</ele>
        <time>2026-01-25T09:19:59Z</time>
      </trkpt>
      <trkpt lat="48.53937" lon="-2.72544">
        <ele>45.6</ele>
        <time>2026-01-25T09:20:00Z</time>
      </trkpt>
      <trkpt lat="48.5394" lon="-2.72548">
        <ele>45.6</ele>
        <time>2026-01-25T09:20:01Z</time>
      </trkpt>
      <trkpt lat="48.53943" lon="-2.72552">
        <ele>45.6</ele>
        <time>2026-01-25T09:20:02Z</time>
      </trkpt>
      <trkpt lat="48.53945" lon="-2.72557">
        <ele>44.6</ele>
        <time>2026-01-25T09:20:03Z</time>
      </trkpt>
      <trkpt lat="48.53948" lon="-2.72562">
        <ele>44.6</ele>
        <time>2026-01-25T09:20:04Z</time>
      </trkpt>
      <trkpt lat="48.53951" lon="-2.72566">
        <ele>44.6</ele>
        <time>2026-01-25T09:20:05Z</time>
      </trkpt>
      <trkpt lat="48.53955" lon="-2.72571">
        <ele>44.8</ele>
        <time>2026-01-25T09:20:06Z</time>
      </trkpt>
      <trkpt lat="48.53958" lon="-2.72575">
        <ele>45.2</ele>
        <time>2026-01-25T09:20:07Z</time>
      </trkpt>
      <trkpt lat="48.53961" lon="-2.7258">
        <ele>45.2</ele>
        <time>2026-01-25T09:20:08Z</time>
      </trkpt>
      <trkpt lat="48.53965" lon="-2.72585">
        <ele>45.2</ele>
        <time>2026-01-25T09:20:09Z</time>
      </trkpt>
      <trkpt lat="48.53968" lon="-2.72589">
        <ele>45.4</ele>
        <time>2026-01-25T09:20:10Z</time>
      </trkpt>
      <trkpt lat="48.53971" lon="-2.72594">
        <ele>45.6</ele>
        <time>2026-01-25T09:20:11Z</time>
      </trkpt>
      <trkpt lat="48.53975" lon="-2.72598">
        <ele>45.6</ele>
        <time>2026-01-25T09:20:12Z</time>
      </trkpt>
      <trkpt lat="48.53978" lon="-2.72602">
        <ele>45.6</ele>
        <time>2026-01-25T09:20:13Z</time>
      </trkpt>
      <trkpt lat="48.53982" lon="-2.72607">
        <ele>45.8</ele>
        <time>2026-01-25T09:20:14Z</time>
      </trkpt>
      <trkpt lat="48.53986" lon="-2.72611">
        <ele>45.2</ele>
        <time>2026-01-25T09:20:15Z</time>
      </trkpt>
      <trkpt lat="48.53989" lon="-2.72615">
        <ele>45.2</ele>
        <time>2026-01-25T09:20:16Z</time>
      </trkpt>
      <trkpt lat="48.53993" lon="-2.7262">
        <ele>45.2</ele>
        <time>2026-01-25T09:20:17Z</time>
      </trkpt>
      <trkpt lat="48.53997" lon="-2.72624">
        <ele>46.2</ele>
        <time>2026-01-25T09:20:18Z</time>
      </trkpt>
      <trkpt lat="48.54001" lon="-2.72628">
        <ele>46.2</ele>
        <time>2026-01-25T09:20:19Z</time>
      </trkpt>
      <trkpt lat="48.54004" lon="-2.72632">
        <ele>46.2</ele>
        <time>2026-01-25T09:20:20Z</time>
      </trkpt>
      <trkpt lat="48.54008" lon="-2.72636">
        <ele>46.2</ele>
        <time>2026-01-25T09:20:21Z</time>
      </trkpt>
      <trkpt lat="48.54012" lon="-2.7264">
        <ele>46.2</ele>
        <time>2026-01-25T09:20:22Z</time>
      </trkpt>
      <trkpt lat="48.54016" lon="-2.72644">
        <ele>46.8</ele>
        <time>2026-01-25T09:20:23Z</time>
      </trkpt>
      <trkpt lat="48.5402" lon="-2.72648">
        <ele>46.8</ele>
        <time>2026-01-25T09:20:24Z</time>
      </trkpt>
      <trkpt lat="48.54024" lon="-2.72651">
        <ele>46.8</ele>
        <time>2026-01-25T09:20:25Z</time>
      </trkpt>
      <trkpt lat="48.54028" lon="-2.72655">
        <ele>46.8</ele>
        <time>2026-01-25T09:20:26Z</time>
      </trkpt>
      <trkpt lat="48.54032" lon="-2.72658">
        <ele>47.2</ele>
        <time>2026-01-25T09:20:27Z</time>
      </trkpt>
      <trkpt lat="48.54036" lon="-2.72662">
        <ele>47.2</ele>
        <time>2026-01-25T09:20:28Z</time>
      </trkpt>
      <trkpt lat="48.5404" lon="-2.72665">
        <ele>47.2</ele>
        <time>2026-01-25T09:20:29Z</time>
      </trkpt>
      <trkpt lat="48.54043" lon="-2.72667">
        <ele>48.2</ele>
        <time>2026-01-25T09:20:30Z</time>
      </trkpt>
      <trkpt lat="48.54046" lon="-2.7267">
        <ele>48.2</ele>
        <time>2026-01-25T09:20:31Z</time>
      </trkpt>
      <trkpt lat="48.5405" lon="-2.72672">
        <ele>48.2</ele>
        <time>2026-01-25T09:20:32Z</time>
      </trkpt>
      <trkpt lat="48.54053" lon="-2.72674">
        <ele>48.2</ele>
        <time>2026-01-25T09:20:33Z</time>
      </trkpt>
      <trkpt lat="48.54056" lon="-2.72676">
        <ele>49.2</ele>
        <time>2026-01-25T09:20:34Z</time>
      </trkpt>
      <trkpt lat="48.54059" lon="-2.72678">
        <ele>49.4</ele>
        <time>2026-01-25T09:20:35Z</time>
      </trkpt>
      <trkpt lat="48.54063" lon="-2.72681">
        <ele>49.4</ele>
        <time>2026-01-25T09:20:36Z</time>
      </trkpt>
      <trkpt lat="48.54066" lon="-2.72683">
        <ele>49.4</ele>
        <time>2026-01-25T09:20:37Z</time>
      </trkpt>
      <trkpt lat="48.54069" lon="-2.72685">
        <ele>50.4</ele>
        <time>2026-01-25T09:20:38Z</time>
      </trkpt>
      <trkpt lat="48.54072" lon="-2.72688">
        <ele>50.4</ele>
        <time>2026-01-25T09:20:39Z</time>
      </trkpt>
      <trkpt lat="48.54075" lon="-2.7269">
        <ele>50.4</ele>
        <time>2026-01-25T09:20:40Z</time>
      </trkpt>
      <trkpt lat="48.54078" lon="-2.72692">
        <ele>50.4</ele>
        <time>2026-01-25T09:20:41Z</time>
      </trkpt>
      <trkpt lat="48.54081" lon="-2.72695">
        <ele>51.4</ele>
        <time>2026-01-25T09:20:42Z</time>
      </trkpt>
      <trkpt lat="48.54084" lon="-2.72697">
        <ele>52</ele>
        <time>2026-01-25T09:20:43Z</time>
      </trkpt>
      <trkpt lat="48.54088" lon="-2.72699">
        <ele>52</ele>
        <time>2026-01-25T09:20:44Z</time>
      </trkpt>
      <trkpt lat="48.54091" lon="-2.72702">
        <ele>52</ele>
        <time>2026-01-25T09:20:45Z</time>
      </trkpt>
      <trkpt lat="48.54093" lon="-2.72705">
        <ele>52.6</ele>
        <time>2026-01-25T09:20:46Z</time>
      </trkpt>
      <trkpt lat="48.54096" lon="-2.72708">
        <ele>53</ele>
        <time>2026-01-25T09:20:47Z</time>
      </trkpt>
      <trkpt lat="48.54098" lon="-2.72711">
        <ele>53</ele>
        <time>2026-01-25T09:20:48Z</time>
      </trkpt>
      <trkpt lat="48.54101" lon="-2.72713">
        <ele>53</ele>
        <time>2026-01-25T09:20:49Z</time>
      </trkpt>
      <trkpt lat="48.54104" lon="-2.72716">
        <ele>54</ele>
        <time>2026-01-25T09:20:50Z</time>
      </trkpt>
      <trkpt lat="48.54107" lon="-2.72719">
        <ele>53.4</ele>
        <time>2026-01-25T09:20:51Z</time>
      </trkpt>
      <trkpt lat="48.5411" lon="-2.72722">
        <ele>53.4</ele>
        <time>2026-01-25T09:20:52Z</time>
      </trkpt>
      <trkpt lat="48.54113" lon="-2.72725">
        <ele>53.4</ele>
        <time>2026-01-25T09:20:53Z</time>
      </trkpt>
      <trkpt lat="48.54116" lon="-2.72728">
        <ele>54.4</ele>
        <time>2026-01-25T09:20:54Z</time>
      </trkpt>
      <trkpt lat="48.54119" lon="-2.72731">
        <ele>55.4</ele>
        <time>2026-01-25T09:20:55Z</time>
      </trkpt>
      <trkpt lat="48.54122" lon="-2.72734">
        <ele>55.4</ele>
        <time>2026-01-25T09:20:56Z</time>
      </trkpt>
      <trkpt lat="48.54124" lon="-2.72737">
        <ele>55.4</ele>
        <time>2026-01-25T09:20:57Z</time>
      </trkpt>
      <trkpt lat="48.54127" lon="-2.7274">
        <ele>56.2</ele>
        <time>2026-01-25T09:20:58Z</time>
      </trkpt>
      <trkpt lat="48.5413" lon="-2.72742">
        <ele>56.2</ele>
        <time>2026-01-25T09:20:59Z</time>
      </trkpt>
      <trkpt lat="48.54133" lon="-2.72744">
        <ele>56.2</ele>
        <time>2026-01-25T09:21:00Z</time>
      </trkpt>
      <trkpt lat="48.54137" lon="-2.72747">
        <ele>56.2</ele>
        <time>2026-01-25T09:21:01Z</time>
      </trkpt>
      <trkpt lat="48.5414" lon="-2.7275">
        <ele>56.2</ele>
        <time>2026-01-25T09:21:02Z</time>
      </trkpt>
      <trkpt lat="48.54144" lon="-2.72752">
        <ele>55.6</ele>
        <time>2026-01-25T09:21:03Z</time>
      </trkpt>
      <trkpt lat="48.54148" lon="-2.72755">
        <ele>55.6</ele>
        <time>2026-01-25T09:21:04Z</time>
      </trkpt>
      <trkpt lat="48.54153" lon="-2.72758">
        <ele>55.6</ele>
        <time>2026-01-25T09:21:05Z</time>
      </trkpt>
      <trkpt lat="48.54157" lon="-2.72761">
        <ele>54.8</ele>
        <time>2026-01-25T09:21:06Z</time>
      </trkpt>
      <trkpt lat="48.5416" lon="-2.72765">
        <ele>54.4</ele>
        <time>2026-01-25T09:21:07Z</time>
      </trkpt>
      <trkpt lat="48.54164" lon="-2.7277">
        <ele>54.4</ele>
        <time>2026-01-25T09:21:08Z</time>
      </trkpt>
      <trkpt lat="48.54168" lon="-2.72776">
        <ele>54.4</ele>
        <time>2026-01-25T09:21:09Z</time>
      </trkpt>
      <trkpt lat="48.54172" lon="-2.72782">
        <ele>54.4</ele>
        <time>2026-01-25T09:21:10Z</time>
      </trkpt>
      <trkpt lat="48.54175" lon="-2.72788">
        <ele>54</ele>
        <time>2026-01-25T09:21:11Z</time>
      </trkpt>
      <trkpt lat="48.54178" lon="-2.72794">
        <ele>54</ele>
        <time>2026-01-25T09:21:12Z</time>
      </trkpt>
      <trkpt lat="48.54181" lon="-2.72801">
        <ele>54</ele>
        <time>2026-01-25T09:21:13Z</time>
      </trkpt>
      <trkpt lat="48.54185" lon="-2.72807">
        <ele>53.4</ele>
        <time>2026-01-25T09:21:14Z</time>
      </trkpt>
      <trkpt lat="48.54188" lon="-2.72813">
        <ele>53</ele>
        <time>2026-01-25T09:21:15Z</time>
      </trkpt>
      <trkpt lat="48.5419" lon="-2.72819">
        <ele>53</ele>
        <time>2026-01-25T09:21:16Z</time>
      </trkpt>
      <trkpt lat="48.54193" lon="-2.72826">
        <ele>53</ele>
        <time>2026-01-25T09:21:17Z</time>
      </trkpt>
      <trkpt lat="48.54195" lon="-2.72833">
        <ele>53</ele>
        <time>2026-01-25T09:21:18Z</time>
      </trkpt>
      <trkpt lat="48.54197" lon="-2.7284">
        <ele>52.8</ele>
        <time>2026-01-25T09:21:19Z</time>
      </trkpt>
      <trkpt lat="48.54198" lon="-2.72848">
        <ele>52.8</ele>
        <time>2026-01-25T09:21:20Z</time>
      </trkpt>
      <trkpt lat="48.542" lon="-2.72857">
        <ele>52.8</ele>
        <time>2026-01-25T09:21:21Z</time>
      </trkpt>
      <trkpt lat="48.54202" lon="-2.72867">
        <ele>51.8</ele>
        <time>2026-01-25T09:21:22Z</time>
      </trkpt>
      <trkpt lat="48.54203" lon="-2.72877">
        <ele>49.4</ele>
        <time>2026-01-25T09:21:23Z</time>
      </trkpt>
      <trkpt lat="48.54204" lon="-2.72887">
        <ele>49.4</ele>
        <time>2026-01-25T09:21:24Z</time>
      </trkpt>
      <trkpt lat="48.54204" lon="-2.72898">
        <ele>49.4</ele>
        <time>2026-01-25T09:21:25Z</time>
      </trkpt>
      <trkpt lat="48.54203" lon="-2.7291">
        <ele>48.4</ele>
        <time>2026-01-25T09:21:26Z</time>
      </trkpt>
      <trkpt lat="48.54203" lon="-2.72921">
        <ele>48.4</ele>
        <time>2026-01-25T09:21:27Z</time>
      </trkpt>
      <trkpt lat="48.54203" lon="-2.72932">
        <ele>48.4</ele>
        <time>2026-01-25T09:21:28Z</time>
      </trkpt>
      <trkpt lat="48.54204" lon="-2.72943">
        <ele>48.4</ele>
        <time>2026-01-25T09:21:29Z</time>
      </trkpt>
      <trkpt lat="48.54204" lon="-2.72953">
        <ele>49.4</ele>
        <time>2026-01-25T09:21:30Z</time>
      </trkpt>
      <trkpt lat="48.54206" lon="-2.72962">
        <ele>51</ele>
        <time>2026-01-25T09:21:31Z</time>
      </trkpt>
      <trkpt lat="48.54207" lon="-2.72971">
        <ele>51</ele>
        <time>2026-01-25T09:21:32Z</time>
      </trkpt>
      <trkpt lat="48.54209" lon="-2.72979">
        <ele>51</ele>
        <time>2026-01-25T09:21:33Z</time>
      </trkpt>
      <trkpt lat="48.54212" lon="-2.72986">
        <ele>52</ele>
        <time>2026-01-25T09:21:34Z</time>
      </trkpt>
      <trkpt lat="48.54214" lon="-2.72992">
        <ele>52.6</ele>
        <time>2026-01-25T09:21:35Z</time>
      </trkpt>
      <trkpt lat="48.54217" lon="-2.72998">
        <ele>52.6</ele>
        <time>2026-01-25T09:21:36Z</time>
      </trkpt>
      <trkpt lat="48.5422" lon="-2.73003">
        <ele>52.6</ele>
        <time>2026-01-25T09:21:37Z</time>
      </trkpt>
      <trkpt lat="48.54223" lon="-2.73008">
        <ele>53.6</ele>
        <time>2026-01-25T09:21:38Z</time>
      </trkpt>
      <trkpt lat="48.54225" lon="-2.73013">
        <ele>53.8</ele>
        <time>2026-01-25T09:21:39Z</time>
      </trkpt>
      <trkpt lat="48.54227" lon="-2.73017">
        <ele>53.8</ele>
        <time>2026-01-25T09:21:40Z</time>
      </trkpt>
      <trkpt lat="48.5423" lon="-2.73022">
        <ele>53.8</ele>
        <time>2026-01-25T09:21:41Z</time>
      </trkpt>
      <trkpt lat="48.54232" lon="-2.73026">
        <ele>54.8</ele>
        <time>2026-01-25T09:21:42Z</time>
      </trkpt>
      <trkpt lat="48.54233" lon="-2.7303">
        <ele>55.4</ele>
        <time>2026-01-25T09:21:43Z</time>
      </trkpt>
      <trkpt lat="48.54235" lon="-2.73034">
        <ele>55.4</ele>
        <time>2026-01-25T09:21:44Z</time>
      </trkpt>
      <trkpt lat="48.54237" lon="-2.73038">
        <ele>55.4</ele>
        <time>2026-01-25T09:21:45Z</time>
      </trkpt>
      <trkpt lat="48.54239" lon="-2.73042">
        <ele>56.2</ele>
        <time>2026-01-25T09:21:46Z</time>
      </trkpt>
      <trkpt lat="48.54241" lon="-2.73046">
        <ele>56.4</ele>
        <time>2026-01-25T09:21:47Z</time>
      </trkpt>
      <trkpt lat="48.54243" lon="-2.7305">
        <ele>56.4</ele>
        <time>2026-01-25T09:21:48Z</time>
      </trkpt>
      <trkpt lat="48.54245" lon="-2.73054">
        <ele>56.4</ele>
        <time>2026-01-25T09:21:49Z</time>
      </trkpt>
      <trkpt lat="48.54247" lon="-2.73057">
        <ele>57.4</ele>
        <time>2026-01-25T09:21:50Z</time>
      </trkpt>
      <trkpt lat="48.54249" lon="-2.73061">
        <ele>56.2</ele>
        <time>2026-01-25T09:21:51Z</time>
      </trkpt>
      <trkpt lat="48.54251" lon="-2.73066">
        <ele>56.2</ele>
        <time>2026-01-25T09:21:52Z</time>
      </trkpt>
      <trkpt lat="48.54253" lon="-2.7307">
        <ele>56.2</ele>
        <time>2026-01-25T09:21:53Z</time>
      </trkpt>
      <trkpt lat="48.54255" lon="-2.73074">
        <ele>57.2</ele>
        <time>2026-01-25T09:21:54Z</time>
      </trkpt>
      <trkpt lat="48.54257" lon="-2.73078">
        <ele>57.2</ele>
        <time>2026-01-25T09:21:55Z</time>
      </trkpt>
      <trkpt lat="48.54259" lon="-2.73082">
        <ele>57.2</ele>
        <time>2026-01-25T09:21:56Z</time>
      </trkpt>
      <trkpt lat="48.54261" lon="-2.73087">
        <ele>57.2</ele>
        <time>2026-01-25T09:21:57Z</time>
      </trkpt>
      <trkpt lat="48.54263" lon="-2.73091">
        <ele>58.2</ele>
        <time>2026-01-25T09:21:58Z</time>
      </trkpt>
      <trkpt lat="48.54265" lon="-2.73096">
        <ele>58.6</ele>
        <time>2026-01-25T09:21:59Z</time>
      </trkpt>
      <trkpt lat="48.54267" lon="-2.731">
        <ele>58.6</ele>
        <time>2026-01-25T09:22:00Z</time>
      </trkpt>
      <trkpt lat="48.54268" lon="-2.73105">
        <ele>58.6</ele>
        <time>2026-01-25T09:22:01Z</time>
      </trkpt>
      <trkpt lat="48.5427" lon="-2.7311">
        <ele>59.4</ele>
        <time>2026-01-25T09:22:02Z</time>
      </trkpt>
      <trkpt lat="48.54272" lon="-2.73114">
        <ele>59.6</ele>
        <time>2026-01-25T09:22:03Z</time>
      </trkpt>
      <trkpt lat="48.54274" lon="-2.73119">
        <ele>59.6</ele>
        <time>2026-01-25T09:22:04Z</time>
      </trkpt>
      <trkpt lat="48.54275" lon="-2.73124">
        <ele>59.6</ele>
        <time>2026-01-25T09:22:05Z</time>
      </trkpt>
      <trkpt lat="48.54276" lon="-2.73129">
        <ele>60.6</ele>
        <time>2026-01-25T09:22:06Z</time>
      </trkpt>
      <trkpt lat="48.54278" lon="-2.73133">
        <ele>61.8</ele>
        <time>2026-01-25T09:22:07Z</time>
      </trkpt>
      <trkpt lat="48.54279" lon="-2.73138">
        <ele>61.8</ele>
        <time>2026-01-25T09:22:08Z</time>
      </trkpt>
      <trkpt lat="48.54279" lon="-2.73142">
        <ele>61.8</ele>
        <time>2026-01-25T09:22:09Z</time>
      </trkpt>
      <trkpt lat="48.5428" lon="-2.73147">
        <ele>61.8</ele>
        <time>2026-01-25T09:22:10Z</time>
      </trkpt>
      <trkpt lat="48.54281" lon="-2.73152">
        <ele>62.2</ele>
        <time>2026-01-25T09:22:11Z</time>
      </trkpt>
      <trkpt lat="48.54281" lon="-2.73157">
        <ele>62.2</ele>
        <time>2026-01-25T09:22:12Z</time>
      </trkpt>
      <trkpt lat="48.54281" lon="-2.73162">
        <ele>62.2</ele>
        <time>2026-01-25T09:22:13Z</time>
      </trkpt>
      <trkpt lat="48.54282" lon="-2.73167">
        <ele>63</ele>
        <time>2026-01-25T09:22:14Z</time>
      </trkpt>
      <trkpt lat="48.54282" lon="-2.73172">
        <ele>63.4</ele>
        <time>2026-01-25T09:22:15Z</time>
      </trkpt>
      <trkpt lat="48.54282" lon="-2.73177">
        <ele>63.4</ele>
        <time>2026-01-25T09:22:16Z</time>
      </trkpt>
      <trkpt lat="48.54282" lon="-2.73182">
        <ele>63.4</ele>
        <time>2026-01-25T09:22:17Z</time>
      </trkpt>
      <trkpt lat="48.54282" lon="-2.73187">
        <ele>63.8</ele>
        <time>2026-01-25T09:22:18Z</time>
      </trkpt>
      <trkpt lat="48.54282" lon="-2.73192">
        <ele>63.6</ele>
        <time>2026-01-25T09:22:19Z</time>
      </trkpt>
      <trkpt lat="48.54282" lon="-2.73197">
        <ele>63.6</ele>
        <time>2026-01-25T09:22:20Z</time>
      </trkpt>
      <trkpt lat="48.54282" lon="-2.73202">
        <ele>63.6</ele>
        <time>2026-01-25T09:22:21Z</time>
      </trkpt>
      <trkpt lat="48.54283" lon="-2.73207">
        <ele>64.6</ele>
        <time>2026-01-25T09:22:22Z</time>
      </trkpt>
      <trkpt lat="48.54283" lon="-2.73212">
        <ele>65</ele>
        <time>2026-01-25T09:22:23Z</time>
      </trkpt>
      <trkpt lat="48.54284" lon="-2.73217">
        <ele>65</ele>
        <time>2026-01-25T09:22:24Z</time>
      </trkpt>
      <trkpt lat="48.54286" lon="-2.73222">
        <ele>65</ele>
        <time>2026-01-25T09:22:25Z</time>
      </trkpt>
      <trkpt lat="48.54288" lon="-2.73227">
        <ele>65</ele>
        <time>2026-01-25T09:22:26Z</time>
      </trkpt>
      <trkpt lat="48.5429" lon="-2.73231">
        <ele>65.6</ele>
        <time>2026-01-25T09:22:27Z</time>
      </trkpt>
      <trkpt lat="48.54292" lon="-2.73236">
        <ele>65.6</ele>
        <time>2026-01-25T09:22:28Z</time>
      </trkpt>
      <trkpt lat="48.54294" lon="-2.7324">
        <ele>65.6</ele>
        <time>2026-01-25T09:22:29Z</time>
      </trkpt>
      <trkpt lat="48.54296" lon="-2.73243">
        <ele>65.6</ele>
        <time>2026-01-25T09:22:30Z</time>
      </trkpt>
      <trkpt lat="48.54298" lon="-2.73247">
        <ele>66.2</ele>
        <time>2026-01-25T09:22:31Z</time>
      </trkpt>
      <trkpt lat="48.543" lon="-2.73251">
        <ele>66.2</ele>
        <time>2026-01-25T09:22:32Z</time>
      </trkpt>
      <trkpt lat="48.54303" lon="-2.73254">
        <ele>66.2</ele>
        <time>2026-01-25T09:22:33Z</time>
      </trkpt>
      <trkpt lat="48.54305" lon="-2.73258">
        <ele>66.8</ele>
        <time>2026-01-25T09:22:34Z</time>
      </trkpt>
      <trkpt lat="48.54308" lon="-2.73261">
        <ele>66.8</ele>
        <time>2026-01-25T09:22:35Z</time>
      </trkpt>
      <trkpt lat="48.5431" lon="-2.73265">
        <ele>66.8</ele>
        <time>2026-01-25T09:22:36Z</time>
      </trkpt>
      <trkpt lat="48.54313" lon="-2.73269">
        <ele>66.8</ele>
        <time>2026-01-25T09:22:37Z</time>
      </trkpt>
      <trkpt lat="48.54315" lon="-2.73272">
        <ele>67.6</ele>
        <time>2026-01-25T09:22:38Z</time>
      </trkpt>
      <trkpt lat="48.54317" lon="-2.73276">
        <ele>67.4</ele>
        <time>2026-01-25T09:22:39Z</time>
      </trkpt>
      <trkpt lat="48.5432" lon="-2.7328">
        <ele>67.4</ele>
        <time>2026-01-25T09:22:40Z</time>
      </trkpt>
      <trkpt lat="48.54323" lon="-2.73283">
        <ele>67.4</ele>
        <time>2026-01-25T09:22:41Z</time>
      </trkpt>
      <trkpt lat="48.54325" lon="-2.73286">
        <ele>67.4</ele>
        <time>2026-01-25T09:22:42Z</time>
      </trkpt>
      <trkpt lat="48.54328" lon="-2.73289">
        <ele>68.4</ele>
        <time>2026-01-25T09:22:43Z</time>
      </trkpt>
      <trkpt lat="48.54331" lon="-2.73293">
        <ele>68.4</ele>
        <time>2026-01-25T09:22:44Z</time>
      </trkpt>
      <trkpt lat="48.54333" lon="-2.73296">
        <ele>68.4</ele>
        <time>2026-01-25T09:22:45Z</time>
      </trkpt>
      <trkpt lat="48.54336" lon="-2.73299">
        <ele>68.4</ele>
        <time>2026-01-25T09:22:46Z</time>
      </trkpt>
      <trkpt lat="48.54339" lon="-2.73302">
        <ele>68.8</ele>
        <time>2026-01-25T09:22:47Z</time>
      </trkpt>
      <trkpt lat="48.54342" lon="-2.73305">
        <ele>68.8</ele>
        <time>2026-01-25T09:22:48Z</time>
      </trkpt>
      <trkpt lat="48.54345" lon="-2.73308">
        <ele>68.8</ele>
        <time>2026-01-25T09:22:49Z</time>
      </trkpt>
      <trkpt lat="48.54348" lon="-2.73311">
        <ele>69.4</ele>
        <time>2026-01-25T09:22:50Z</time>
      </trkpt>
      <trkpt lat="48.5435" lon="-2.73314">
        <ele>70</ele>
        <time>2026-01-25T09:22:51Z</time>
      </trkpt>
      <trkpt lat="48.54353" lon="-2.73317">
        <ele>70</ele>
        <time>2026-01-25T09:22:52Z</time>
      </trkpt>
      <trkpt lat="48.54355" lon="-2.73321">
        <ele>70</ele>
        <time>2026-01-25T09:22:53Z</time>
      </trkpt>
      <trkpt lat="48.54358" lon="-2.73325">
        <ele>70</ele>
        <time>2026-01-25T09:22:54Z</time>
      </trkpt>
      <trkpt lat="48.5436" lon="-2.73328">
        <ele>70.6</ele>
        <time>2026-01-25T09:22:55Z</time>
      </trkpt>
      <trkpt lat="48.54362" lon="-2.73332">
        <ele>70.6</ele>
        <time>2026-01-25T09:22:56Z</time>
      </trkpt>
      <trkpt lat="48.54365" lon="-2.73336">
        <ele>70.6</ele>
        <time>2026-01-25T09:22:57Z</time>
      </trkpt>
      <trkpt lat="48.54367" lon="-2.7334">
        <ele>71.4</ele>
        <time>2026-01-25T09:22:58Z</time>
      </trkpt>
      <trkpt lat="48.54369" lon="-2.73343">
        <ele>71.8</ele>
        <time>2026-01-25T09:22:59Z</time>
      </trkpt>
      <trkpt lat="48.54371" lon="-2.73347">
        <ele>71.8</ele>
        <time>2026-01-25T09:23:00Z</time>
      </trkpt>
      <trkpt lat="48.54374" lon="-2.73351">
        <ele>71.8</ele>
        <time>2026-01-25T09:23:01Z</time>
      </trkpt>
      <trkpt lat="48.54376" lon="-2.73355">
        <ele>72.4</ele>
        <time>2026-01-25T09:23:02Z</time>
      </trkpt>
      <trkpt lat="48.54378" lon="-2.73359">
        <ele>72.8</ele>
        <time>2026-01-25T09:23:03Z</time>
      </trkpt>
      <trkpt lat="48.54381" lon="-2.73363">
        <ele>72.8</ele>
        <time>2026-01-25T09:23:04Z</time>
      </trkpt>
      <trkpt lat="48.54383" lon="-2.73366">
        <ele>72.8</ele>
        <time>2026-01-25T09:23:05Z</time>
      </trkpt>
      <trkpt lat="48.54386" lon="-2.7337">
        <ele>72.8</ele>
        <time>2026-01-25T09:23:06Z</time>
      </trkpt>
      <trkpt lat="48.54388" lon="-2.73374">
        <ele>73.8</ele>
        <time>2026-01-25T09:23:07Z</time>
      </trkpt>
      <trkpt lat="48.5439" lon="-2.73378">
        <ele>73.8</ele>
        <time>2026-01-25T09:23:08Z</time>
      </trkpt>
      <trkpt lat="48.54392" lon="-2.73381">
        <ele>73.8</ele>
        <time>2026-01-25T09:23:09Z</time>
      </trkpt>
      <trkpt lat="48.54395" lon="-2.73385">
        <ele>73.8</ele>
        <time>2026-01-25T09:23:10Z</time>
      </trkpt>
      <trkpt lat="48.54397" lon="-2.73389">
        <ele>74.8</ele>
        <time>2026-01-25T09:23:11Z</time>
      </trkpt>
      <trkpt lat="48.54399" lon="-2.73393">
        <ele>74.8</ele>
        <time>2026-01-25T09:23:12Z</time>
      </trkpt>
      <trkpt lat="48.54402" lon="-2.73397">
        <ele>74.8</ele>
        <time>2026-01-25T09:23:13Z</time>
      </trkpt>
      <trkpt lat="48.54404" lon="-2.73402">
        <ele>74.8</ele>
        <time>2026-01-25T09:23:14Z</time>
      </trkpt>
      <trkpt lat="48.54407" lon="-2.73406">
        <ele>74.8</ele>
        <time>2026-01-25T09:23:15Z</time>
      </trkpt>
      <trkpt lat="48.54409" lon="-2.73411">
        <ele>74.8</ele>
        <time>2026-01-25T09:23:16Z</time>
      </trkpt>
      <trkpt lat="48.54412" lon="-2.73416">
        <ele>74.8</ele>
        <time>2026-01-25T09:23:17Z</time>
      </trkpt>
      <trkpt lat="48.54414" lon="-2.7342">
        <ele>74.8</ele>
        <time>2026-01-25T09:23:18Z</time>
      </trkpt>
      <trkpt lat="48.54417" lon="-2.73425">
        <ele>75</ele>
        <time>2026-01-25T09:23:19Z</time>
      </trkpt>
      <trkpt lat="48.5442" lon="-2.7343">
        <ele>75</ele>
        <time>2026-01-25T09:23:20Z</time>
      </trkpt>
      <trkpt lat="48.54423" lon="-2.73435">
        <ele>75</ele>
        <time>2026-01-25T09:23:21Z</time>
      </trkpt>
      <trkpt lat="48.54426" lon="-2.73439">
        <ele>75</ele>
        <time>2026-01-25T09:23:22Z</time>
      </trkpt>
      <trkpt lat="48.54429" lon="-2.73444">
        <ele>75.2</ele>
        <time>2026-01-25T09:23:23Z</time>
      </trkpt>
      <trkpt lat="48.54431" lon="-2.73449">
        <ele>75.2</ele>
        <time>2026-01-25T09:23:24Z</time>
      </trkpt>
      <trkpt lat="48.54434" lon="-2.73453">
        <ele>75.2</ele>
        <time>2026-01-25T09:23:25Z</time>
      </trkpt>
      <trkpt lat="48.54438" lon="-2.73458">
        <ele>75.2</ele>
        <time>2026-01-25T09:23:26Z</time>
      </trkpt>
      <trkpt lat="48.54441" lon="-2.73462">
        <ele>75.2</ele>
        <time>2026-01-25T09:23:27Z</time>
      </trkpt>
      <trkpt lat="48.54444" lon="-2.73466">
        <ele>75.2</ele>
        <time>2026-01-25T09:23:28Z</time>
      </trkpt>
      <trkpt lat="48.54447" lon="-2.73471">
        <ele>75.2</ele>
        <time>2026-01-25T09:23:29Z</time>
      </trkpt>
      <trkpt lat="48.54451" lon="-2.73475">
        <ele>76</ele>
        <time>2026-01-25T09:23:30Z</time>
      </trkpt>
      <trkpt lat="48.54454" lon="-2.73479">
        <ele>76</ele>
        <time>2026-01-25T09:23:31Z</time>
      </trkpt>
      <trkpt lat="48.54458" lon="-2.73483">
        <ele>76</ele>
        <time>2026-01-25T09:23:32Z</time>
      </trkpt>
      <trkpt lat="48.54461" lon="-2.73487">
        <ele>76</ele>
        <time>2026-01-25T09:23:33Z</time>
      </trkpt>
      <trkpt lat="48.54465" lon="-2.73491">
        <ele>76</ele>
        <time>2026-01-25T09:23:34Z</time>
      </trkpt>
      <trkpt lat="48.54468" lon="-2.73496">
        <ele>76</ele>
        <time>2026-01-25T09:23:35Z</time>
      </trkpt>
      <trkpt lat="48.54472" lon="-2.735">
        <ele>76</ele>
        <time>2026-01-25T09:23:36Z</time>
      </trkpt>
      <trkpt lat="48.54475" lon="-2.73505">
        <ele>76</ele>
        <time>2026-01-25T09:23:37Z</time>
      </trkpt>
      <trkpt lat="48.54479" lon="-2.73509">
        <ele>76</ele>
        <time>2026-01-25T09:23:38Z</time>
      </trkpt>
      <trkpt lat="48.54483" lon="-2.73514">
        <ele>76</ele>
        <time>2026-01-25T09:23:39Z</time>
      </trkpt>
      <trkpt lat="48.54487" lon="-2.73518">
        <ele>76</ele>
        <time>2026-01-25T09:23:40Z</time>
      </trkpt>
      <trkpt lat="48.54491" lon="-2.73522">
        <ele>76</ele>
        <time>2026-01-25T09:23:41Z</time>
      </trkpt>
      <trkpt lat="48.54495" lon="-2.73526">
        <ele>75</ele>
        <time>2026-01-25T09:23:42Z</time>
      </trkpt>
      <trkpt lat="48.54499" lon="-2.73531">
        <ele>74.8</ele>
        <time>2026-01-25T09:23:43Z</time>
      </trkpt>
      <trkpt lat="48.54503" lon="-2.73536">
        <ele>74.8</ele>
        <time>2026-01-25T09:23:44Z</time>
      </trkpt>
      <trkpt lat="48.54508" lon="-2.73542">
        <ele>74.8</ele>
        <time>2026-01-25T09:23:45Z</time>
      </trkpt>
      <trkpt lat="48.54513" lon="-2.73547">
        <ele>73.8</ele>
        <time>2026-01-25T09:23:46Z</time>
      </trkpt>
      <trkpt lat="48.54518" lon="-2.73553">
        <ele>72.6</ele>
        <time>2026-01-25T09:23:47Z</time>
      </trkpt>
      <trkpt lat="48.54524" lon="-2.73559">
        <ele>72.6</ele>
        <time>2026-01-25T09:23:48Z</time>
      </trkpt>
      <trkpt lat="48.5453" lon="-2.73565">
        <ele>72.6</ele>
        <time>2026-01-25T09:23:49Z</time>
      </trkpt>
      <trkpt lat="48.54535" lon="-2.73571">
        <ele>72.4</ele>
        <time>2026-01-25T09:23:50Z</time>
      </trkpt>
      <trkpt lat="48.5454" lon="-2.73577">
        <ele>73</ele>
        <time>2026-01-25T09:23:51Z</time>
      </trkpt>
      <trkpt lat="48.54546" lon="-2.73583">
        <ele>73</ele>
        <time>2026-01-25T09:23:52Z</time>
      </trkpt>
      <trkpt lat="48.5455" lon="-2.73589">
        <ele>73</ele>
        <time>2026-01-25T09:23:53Z</time>
      </trkpt>
      <trkpt lat="48.54555" lon="-2.73594">
        <ele>74</ele>
        <time>2026-01-25T09:23:54Z</time>
      </trkpt>
      <trkpt lat="48.54559" lon="-2.73598">
        <ele>75.2</ele>
        <time>2026-01-25T09:23:55Z</time>
      </trkpt>
      <trkpt lat="48.54563" lon="-2.73603">
        <ele>75.2</ele>
        <time>2026-01-25T09:23:56Z</time>
      </trkpt>
      <trkpt lat="48.54567" lon="-2.73606">
        <ele>75.2</ele>
        <time>2026-01-25T09:23:57Z</time>
      </trkpt>
      <trkpt lat="48.54571" lon="-2.73611">
        <ele>75.4</ele>
        <time>2026-01-25T09:23:58Z</time>
      </trkpt>
      <trkpt lat="48.54575" lon="-2.73615">
        <ele>76.4</ele>
        <time>2026-01-25T09:23:59Z</time>
      </trkpt>
      <trkpt lat="48.54578" lon="-2.73619">
        <ele>76.4</ele>
        <time>2026-01-25T09:24:00Z</time>
      </trkpt>
      <trkpt lat="48.54583" lon="-2.73623">
        <ele>76.4</ele>
        <time>2026-01-25T09:24:01Z</time>
      </trkpt>
      <trkpt lat="48.54587" lon="-2.73627">
        <ele>76.6</ele>
        <time>2026-01-25T09:24:02Z</time>
      </trkpt>
      <trkpt lat="48.54591" lon="-2.73632">
        <ele>76.8</ele>
        <time>2026-01-25T09:24:03Z</time>
      </trkpt>
      <trkpt lat="48.54595" lon="-2.73635">
        <ele>76.8</ele>
        <time>2026-01-25T09:24:04Z</time>
      </trkpt>
      <trkpt lat="48.546" lon="-2.73636">
        <ele>76.8</ele>
        <time>2026-01-25T09:24:05Z</time>
      </trkpt>
      <trkpt lat="48.54605" lon="-2.73635">
        <ele>76.8</ele>
        <time>2026-01-25T09:24:06Z</time>
      </trkpt>
      <trkpt lat="48.54611" lon="-2.73632">
        <ele>76</ele>
        <time>2026-01-25T09:24:07Z</time>
      </trkpt>
      <trkpt lat="48.54615" lon="-2.73628">
        <ele>76</ele>
        <time>2026-01-25T09:24:08Z</time>
      </trkpt>
      <trkpt lat="48.54619" lon="-2.73622">
        <ele>76</ele>
        <time>2026-01-25T09:24:09Z</time>
      </trkpt>
      <trkpt lat="48.54623" lon="-2.73615">
        <ele>75.6</ele>
        <time>2026-01-25T09:24:10Z</time>
      </trkpt>
      <trkpt lat="48.54627" lon="-2.73608">
        <ele>75.6</ele>
        <time>2026-01-25T09:24:11Z</time>
      </trkpt>
      <trkpt lat="48.54631" lon="-2.73601">
        <ele>75.6</ele>
        <time>2026-01-25T09:24:12Z</time>
      </trkpt>
      <trkpt lat="48.54635" lon="-2.73594">
        <ele>75.6</ele>
        <time>2026-01-25T09:24:13Z</time>
      </trkpt>
      <trkpt lat="48.54639" lon="-2.73587">
        <ele>75.4</ele>
        <time>2026-01-25T09:24:14Z</time>
      </trkpt>
      <trkpt lat="48.54642" lon="-2.73579">
        <ele>75.6</ele>
        <time>2026-01-25T09:24:15Z</time>
      </trkpt>
      <trkpt lat="48.54646" lon="-2.73572">
        <ele>75.6</ele>
        <time>2026-01-25T09:24:16Z</time>
      </trkpt>
      <trkpt lat="48.54651" lon="-2.73564">
        <ele>75.6</ele>
        <time>2026-01-25T09:24:17Z</time>
      </trkpt>
      <trkpt lat="48.54655" lon="-2.73557">
        <ele>74.8</ele>
        <time>2026-01-25T09:24:18Z</time>
      </trkpt>
      <trkpt lat="48.54659" lon="-2.73549">
        <ele>74.8</ele>
        <time>2026-01-25T09:24:19Z</time>
      </trkpt>
      <trkpt lat="48.54663" lon="-2.73541">
        <ele>74.8</ele>
        <time>2026-01-25T09:24:20Z</time>
      </trkpt>
      <trkpt lat="48.54668" lon="-2.73534">
        <ele>74.8</ele>
        <time>2026-01-25T09:24:21Z</time>
      </trkpt>
      <trkpt lat="48.54672" lon="-2.73526">
        <ele>74.8</ele>
        <time>2026-01-25T09:24:22Z</time>
      </trkpt>
      <trkpt lat="48.54677" lon="-2.73518">
        <ele>74.2</ele>
        <time>2026-01-25T09:24:23Z</time>
      </trkpt>
      <trkpt lat="48.54682" lon="-2.7351">
        <ele>74.2</ele>
        <time>2026-01-25T09:24:24Z</time>
      </trkpt>
      <trkpt lat="48.54687" lon="-2.73501">
        <ele>74.2</ele>
        <time>2026-01-25T09:24:25Z</time>
      </trkpt>
      <trkpt lat="48.54692" lon="-2.73493">
        <ele>73.2</ele>
        <time>2026-01-25T09:24:26Z</time>
      </trkpt>
      <trkpt lat="48.54698" lon="-2.73484">
        <ele>72</ele>
        <time>2026-01-25T09:24:27Z</time>
      </trkpt>
      <trkpt lat="48.54703" lon="-2.73475">
        <ele>72</ele>
        <time>2026-01-25T09:24:28Z</time>
      </trkpt>
      <trkpt lat="48.54708" lon="-2.73465">
        <ele>72</ele>
        <time>2026-01-25T09:24:29Z</time>
      </trkpt>
      <trkpt lat="48.54714" lon="-2.73456">
        <ele>71</ele>
        <time>2026-01-25T09:24:30Z</time>
      </trkpt>
      <trkpt lat="48.54719" lon="-2.73446">
        <ele>72.4</ele>
        <time>2026-01-25T09:24:31Z</time>
      </trkpt>
      <trkpt lat="48.54724" lon="-2.73437">
        <ele>72.4</ele>
        <time>2026-01-25T09:24:32Z</time>
      </trkpt>
      <trkpt lat="48.54729" lon="-2.73428">
        <ele>72.4</ele>
        <time>2026-01-25T09:24:33Z</time>
      </trkpt>
      <trkpt lat="48.54734" lon="-2.7342">
        <ele>72.4</ele>
        <time>2026-01-25T09:24:34Z</time>
      </trkpt>
      <trkpt lat="48.54739" lon="-2.73411">
        <ele>71.8</ele>
        <time>2026-01-25T09:24:35Z</time>
      </trkpt>
      <trkpt lat="48.54743" lon="-2.73402">
        <ele>71.8</ele>
        <time>2026-01-25T09:24:36Z</time>
      </trkpt>
      <trkpt lat="48.54748" lon="-2.73392">
        <ele>71.8</ele>
        <time>2026-01-25T09:24:37Z</time>
      </trkpt>
      <trkpt lat="48.54752" lon="-2.73383">
        <ele>71.8</ele>
        <time>2026-01-25T09:24:38Z</time>
      </trkpt>
      <trkpt lat="48.54756" lon="-2.73374">
        <ele>71.6</ele>
        <time>2026-01-25T09:24:39Z</time>
      </trkpt>
      <trkpt lat="48.5476" lon="-2.73364">
        <ele>71.6</ele>
        <time>2026-01-25T09:24:40Z</time>
      </trkpt>
      <trkpt lat="48.54764" lon="-2.73354">
        <ele>71.6</ele>
        <time>2026-01-25T09:24:41Z</time>
      </trkpt>
      <trkpt lat="48.54768" lon="-2.73343">
        <ele>71.6</ele>
        <time>2026-01-25T09:24:42Z</time>
      </trkpt>
      <trkpt lat="48.54771" lon="-2.73333">
        <ele>71.4</ele>
        <time>2026-01-25T09:24:43Z</time>
      </trkpt>
      <trkpt lat="48.54773" lon="-2.73322">
        <ele>71.4</ele>
        <time>2026-01-25T09:24:44Z</time>
      </trkpt>
      <trkpt lat="48.54776" lon="-2.73312">
        <ele>71.4</ele>
        <time>2026-01-25T09:24:45Z</time>
      </trkpt>
      <trkpt lat="48.54779" lon="-2.73301">
        <ele>71.2</ele>
        <time>2026-01-25T09:24:46Z</time>
      </trkpt>
      <trkpt lat="48.54781" lon="-2.73291">
        <ele>71.6</ele>
        <time>2026-01-25T09:24:47Z</time>
      </trkpt>
      <trkpt lat="48.54783" lon="-2.7328">
        <ele>71.6</ele>
        <time>2026-01-25T09:24:48Z</time>
      </trkpt>
      <trkpt lat="48.54785" lon="-2.7327">
        <ele>71.6</ele>
        <time>2026-01-25T09:24:49Z</time>
      </trkpt>
      <trkpt lat="48.54786" lon="-2.7326">
        <ele>71.6</ele>
        <time>2026-01-25T09:24:50Z</time>
      </trkpt>
      <trkpt lat="48.54787" lon="-2.7325">
        <ele>72.2</ele>
        <time>2026-01-25T09:24:51Z</time>
      </trkpt>
      <trkpt lat="48.54789" lon="-2.73241">
        <ele>72.2</ele>
        <time>2026-01-25T09:24:52Z</time>
      </trkpt>
      <trkpt lat="48.5479" lon="-2.73234">
        <ele>72.2</ele>
        <time>2026-01-25T09:24:53Z</time>
      </trkpt>
      <trkpt lat="48.54792" lon="-2.73227">
        <ele>72.6</ele>
        <time>2026-01-25T09:24:54Z</time>
      </trkpt>
      <trkpt lat="48.54796" lon="-2.73223">
        <ele>73</ele>
        <time>2026-01-25T09:24:55Z</time>
      </trkpt>
      <trkpt lat="48.54801" lon="-2.73222">
        <ele>73</ele>
        <time>2026-01-25T09:24:56Z</time>
      </trkpt>
      <trkpt lat="48.54807" lon="-2.73223">
        <ele>73</ele>
        <time>2026-01-25T09:24:57Z</time>
      </trkpt>
      <trkpt lat="48.54812" lon="-2.73223">
        <ele>72.4</ele>
        <time>2026-01-25T09:24:58Z</time>
      </trkpt>
      <trkpt lat="48.54818" lon="-2.73224">
        <ele>72.2</ele>
        <time>2026-01-25T09:24:59Z</time>
      </trkpt>
      <trkpt lat="48.54824" lon="-2.73226">
        <ele>72.2</ele>
        <time>2026-01-25T09:25:00Z</time>
      </trkpt>
      <trkpt lat="48.5483" lon="-2.73227">
        <ele>72.2</ele>
        <time>2026-01-25T09:25:01Z</time>
      </trkpt>
      <trkpt lat="48.54836" lon="-2.73229">
        <ele>72.2</ele>
        <time>2026-01-25T09:25:02Z</time>
      </trkpt>
      <trkpt lat="48.54843" lon="-2.73232">
        <ele>71.8</ele>
        <time>2026-01-25T09:25:03Z</time>
      </trkpt>
      <trkpt lat="48.54849" lon="-2.73236">
        <ele>71.8</ele>
        <time>2026-01-25T09:25:04Z</time>
      </trkpt>
      <trkpt lat="48.54856" lon="-2.7324">
        <ele>71.8</ele>
        <time>2026-01-25T09:25:05Z</time>
      </trkpt>
      <trkpt lat="48.54862" lon="-2.73245">
        <ele>71.2</ele>
        <time>2026-01-25T09:25:06Z</time>
      </trkpt>
      <trkpt lat="48.54868" lon="-2.73251">
        <ele>71.2</ele>
        <time>2026-01-25T09:25:07Z</time>
      </trkpt>
      <trkpt lat="48.54874" lon="-2.73257">
        <ele>71.2</ele>
        <time>2026-01-25T09:25:08Z</time>
      </trkpt>
      <trkpt lat="48.54879" lon="-2.73264">
        <ele>71.2</ele>
        <time>2026-01-25T09:25:09Z</time>
      </trkpt>
      <trkpt lat="48.54885" lon="-2.73272">
        <ele>71.2</ele>
        <time>2026-01-25T09:25:10Z</time>
      </trkpt>
      <trkpt lat="48.5489" lon="-2.7328">
        <ele>71.2</ele>
        <time>2026-01-25T09:25:11Z</time>
      </trkpt>
      <trkpt lat="48.54895" lon="-2.73288">
        <ele>71.2</ele>
        <time>2026-01-25T09:25:12Z</time>
      </trkpt>
      <trkpt lat="48.549" lon="-2.73296">
        <ele>71.2</ele>
        <time>2026-01-25T09:25:13Z</time>
      </trkpt>
      <trkpt lat="48.54905" lon="-2.73304">
        <ele>71.2</ele>
        <time>2026-01-25T09:25:14Z</time>
      </trkpt>
      <trkpt lat="48.54911" lon="-2.73312">
        <ele>71</ele>
        <time>2026-01-25T09:25:15Z</time>
      </trkpt>
      <trkpt lat="48.54916" lon="-2.73319">
        <ele>71</ele>
        <time>2026-01-25T09:25:16Z</time>
      </trkpt>
      <trkpt lat="48.54922" lon="-2.73327">
        <ele>71</ele>
        <time>2026-01-25T09:25:17Z</time>
      </trkpt>
      <trkpt lat="48.54927" lon="-2.73334">
        <ele>71.6</ele>
        <time>2026-01-25T09:25:18Z</time>
      </trkpt>
      <trkpt lat="48.54933" lon="-2.73341">
        <ele>71.8</ele>
        <time>2026-01-25T09:25:19Z</time>
      </trkpt>
      <trkpt lat="48.54938" lon="-2.73347">
        <ele>71.8</ele>
        <time>2026-01-25T09:25:20Z</time>
      </trkpt>
      <trkpt lat="48.54944" lon="-2.73353">
        <ele>71.8</ele>
        <time>2026-01-25T09:25:21Z</time>
      </trkpt>
      <trkpt lat="48.54951" lon="-2.73359">
        <ele>71.2</ele>
        <time>2026-01-25T09:25:22Z</time>
      </trkpt>
      <trkpt lat="48.54958" lon="-2.73363">
        <ele>71.2</ele>
        <time>2026-01-25T09:25:23Z</time>
      </trkpt>
      <trkpt lat="48.54965" lon="-2.73365">
        <ele>71.2</ele>
        <time>2026-01-25T09:25:24Z</time>
      </trkpt>
      <trkpt lat="48.54972" lon="-2.73365">
        <ele>71.2</ele>
        <time>2026-01-25T09:25:25Z</time>
      </trkpt>
      <trkpt lat="48.5498" lon="-2.73364">
        <ele>71.2</ele>
        <time>2026-01-25T09:25:26Z</time>
      </trkpt>
      <trkpt lat="48.54987" lon="-2.7336">
        <ele>70.2</ele>
        <time>2026-01-25T09:25:27Z</time>
      </trkpt>
      <trkpt lat="48.54994" lon="-2.73353">
        <ele>70.2</ele>
        <time>2026-01-25T09:25:28Z</time>
      </trkpt>
      <trkpt lat="48.55" lon="-2.73345">
        <ele>70.2</ele>
        <time>2026-01-25T09:25:29Z</time>
      </trkpt>
      <trkpt lat="48.55006" lon="-2.73336">
        <ele>69.6</ele>
        <time>2026-01-25T09:25:30Z</time>
      </trkpt>
      <trkpt lat="48.5501" lon="-2.73326">
        <ele>69.2</ele>
        <time>2026-01-25T09:25:31Z</time>
      </trkpt>
      <trkpt lat="48.55015" lon="-2.73315">
        <ele>69.2</ele>
        <time>2026-01-25T09:25:32Z</time>
      </trkpt>
      <trkpt lat="48.55019" lon="-2.73304">
        <ele>69.2</ele>
        <time>2026-01-25T09:25:33Z</time>
      </trkpt>
      <trkpt lat="48.55024" lon="-2.73293">
        <ele>68.2</ele>
        <time>2026-01-25T09:25:34Z</time>
      </trkpt>
      <trkpt lat="48.55028" lon="-2.73282">
        <ele>67.6</ele>
        <time>2026-01-25T09:25:35Z</time>
      </trkpt>
      <trkpt lat="48.55033" lon="-2.73271">
        <ele>67.6</ele>
        <time>2026-01-25T09:25:36Z</time>
      </trkpt>
      <trkpt lat="48.55038" lon="-2.73261">
        <ele>67.6</ele>
        <time>2026-01-25T09:25:37Z</time>
      </trkpt>
      <trkpt lat="48.55043" lon="-2.7325">
        <ele>67.6</ele>
        <time>2026-01-25T09:25:38Z</time>
      </trkpt>
      <trkpt lat="48.5505" lon="-2.7324">
        <ele>66.6</ele>
        <time>2026-01-25T09:25:39Z</time>
      </trkpt>
      <trkpt lat="48.55056" lon="-2.73231">
        <ele>66.6</ele>
        <time>2026-01-25T09:25:40Z</time>
      </trkpt>
      <trkpt lat="48.55064" lon="-2.73224">
        <ele>66.6</ele>
        <time>2026-01-25T09:25:41Z</time>
      </trkpt>
      <trkpt lat="48.55072" lon="-2.73217">
        <ele>66.6</ele>
        <time>2026-01-25T09:25:42Z</time>
      </trkpt>
      <trkpt lat="48.5508" lon="-2.7321">
        <ele>64.2</ele>
        <time>2026-01-25T09:25:43Z</time>
      </trkpt>
      <trkpt lat="48.55089" lon="-2.73204">
        <ele>64.2</ele>
        <time>2026-01-25T09:25:44Z</time>
      </trkpt>
      <trkpt lat="48.55097" lon="-2.73197">
        <ele>64.2</ele>
        <time>2026-01-25T09:25:45Z</time>
      </trkpt>
      <trkpt lat="48.55106" lon="-2.73189">
        <ele>63.2</ele>
        <time>2026-01-25T09:25:46Z</time>
      </trkpt>
      <trkpt lat="48.55114" lon="-2.73182">
        <ele>61.4</ele>
        <time>2026-01-25T09:25:47Z</time>
      </trkpt>
      <trkpt lat="48.55123" lon="-2.73173">
        <ele>61.4</ele>
        <time>2026-01-25T09:25:48Z</time>
      </trkpt>
      <trkpt lat="48.55131" lon="-2.73165">
        <ele>61.4</ele>
        <time>2026-01-25T09:25:49Z</time>
      </trkpt>
      <trkpt lat="48.55139" lon="-2.73157">
        <ele>60.4</ele>
        <time>2026-01-25T09:25:50Z</time>
      </trkpt>
      <trkpt lat="48.55147" lon="-2.73148">
        <ele>58.2</ele>
        <time>2026-01-25T09:25:51Z</time>
      </trkpt>
      <trkpt lat="48.55155" lon="-2.73139">
        <ele>58.2</ele>
        <time>2026-01-25T09:25:52Z</time>
      </trkpt>
      <trkpt lat="48.55163" lon="-2.73129">
        <ele>58.2</ele>
        <time>2026-01-25T09:25:53Z</time>
      </trkpt>
      <trkpt lat="48.55172" lon="-2.73118">
        <ele>57.2</ele>
        <time>2026-01-25T09:25:54Z</time>
      </trkpt>
      <trkpt lat="48.55181" lon="-2.73108">
        <ele>51.8</ele>
        <time>2026-01-25T09:25:55Z</time>
      </trkpt>
      <trkpt lat="48.55189" lon="-2.73098">
        <ele>51.8</ele>
        <time>2026-01-25T09:25:56Z</time>
      </trkpt>
      <trkpt lat="48.55197" lon="-2.73088">
        <ele>51.8</ele>
        <time>2026-01-25T09:25:57Z</time>
      </trkpt>
      <trkpt lat="48.55205" lon="-2.73079">
        <ele>50.8</ele>
        <time>2026-01-25T09:25:58Z</time>
      </trkpt>
      <trkpt lat="48.55212" lon="-2.7307">
        <ele>46.4</ele>
        <time>2026-01-25T09:25:59Z</time>
      </trkpt>
      <trkpt lat="48.5522" lon="-2.7306">
        <ele>46.4</ele>
        <time>2026-01-25T09:26:00Z</time>
      </trkpt>
      <trkpt lat="48.55229" lon="-2.73049">
        <ele>46.4</ele>
        <time>2026-01-25T09:26:01Z</time>
      </trkpt>
      <trkpt lat="48.55238" lon="-2.73038">
        <ele>45.4</ele>
        <time>2026-01-25T09:26:02Z</time>
      </trkpt>
      <trkpt lat="48.55246" lon="-2.73028">
        <ele>41.6</ele>
        <time>2026-01-25T09:26:03Z</time>
      </trkpt>
      <trkpt lat="48.55255" lon="-2.73019">
        <ele>41.6</ele>
        <time>2026-01-25T09:26:04Z</time>
      </trkpt>
      <trkpt lat="48.55263" lon="-2.7301">
        <ele>41.6</ele>
        <time>2026-01-25T09:26:05Z</time>
      </trkpt>
      <trkpt lat="48.55272" lon="-2.73002">
        <ele>40.6</ele>
        <time>2026-01-25T09:26:06Z</time>
      </trkpt>
      <trkpt lat="48.55281" lon="-2.72995">
        <ele>36</ele>
        <time>2026-01-25T09:26:07Z</time>
      </trkpt>
      <trkpt lat="48.5529" lon="-2.72988">
        <ele>36</ele>
        <time>2026-01-25T09:26:08Z</time>
      </trkpt>
      <trkpt lat="48.55299" lon="-2.72981">
        <ele>36</ele>
        <time>2026-01-25T09:26:09Z</time>
      </trkpt>
      <trkpt lat="48.55309" lon="-2.72975">
        <ele>35</ele>
        <time>2026-01-25T09:26:10Z</time>
      </trkpt>
      <trkpt lat="48.55319" lon="-2.72969">
        <ele>30.6</ele>
        <time>2026-01-25T09:26:11Z</time>
      </trkpt>
      <trkpt lat="48.55329" lon="-2.72965">
        <ele>30.6</ele>
        <time>2026-01-25T09:26:12Z</time>
      </trkpt>
      <trkpt lat="48.55339" lon="-2.72962">
        <ele>30.6</ele>
        <time>2026-01-25T09:26:13Z</time>
      </trkpt>
      <trkpt lat="48.55349" lon="-2.72958">
        <ele>29.6</ele>
        <time>2026-01-25T09:26:14Z</time>
      </trkpt>
      <trkpt lat="48.55359" lon="-2.72955">
        <ele>23.8</ele>
        <time>2026-01-25T09:26:15Z</time>
      </trkpt>
      <trkpt lat="48.55371" lon="-2.72953">
        <ele>23.8</ele>
        <time>2026-01-25T09:26:16Z</time>
      </trkpt>
      <trkpt lat="48.55381" lon="-2.72952">
        <ele>23.8</ele>
        <time>2026-01-25T09:26:17Z</time>
      </trkpt>
      <trkpt lat="48.55392" lon="-2.72951">
        <ele>22.8</ele>
        <time>2026-01-25T09:26:18Z</time>
      </trkpt>
      <trkpt lat="48.55402" lon="-2.72949">
        <ele>19.2</ele>
        <time>2026-01-25T09:26:19Z</time>
      </trkpt>
      <trkpt lat="48.55412" lon="-2.72948">
        <ele>19.2</ele>
        <time>2026-01-25T09:26:20Z</time>
      </trkpt>
      <trkpt lat="48.5542" lon="-2.72945">
        <ele>19.2</ele>
        <time>2026-01-25T09:26:21Z</time>
      </trkpt>
      <trkpt lat="48.55429" lon="-2.72943">
        <ele>18.2</ele>
        <time>2026-01-25T09:26:22Z</time>
      </trkpt>
      <trkpt lat="48.55438" lon="-2.72941">
        <ele>16</ele>
        <time>2026-01-25T09:26:23Z</time>
      </trkpt>
      <trkpt lat="48.55446" lon="-2.72937">
        <ele>16</ele>
        <time>2026-01-25T09:26:24Z</time>
      </trkpt>
      <trkpt lat="48.55454" lon="-2.72931">
        <ele>16</ele>
        <time>2026-01-25T09:26:25Z</time>
      </trkpt>
      <trkpt lat="48.55461" lon="-2.72926">
        <ele>15</ele>
        <time>2026-01-25T09:26:26Z</time>
      </trkpt>
      <trkpt lat="48.55468" lon="-2.7292">
        <ele>12.6</ele>
        <time>2026-01-25T09:26:27Z</time>
      </trkpt>
      <trkpt lat="48.55475" lon="-2.72913">
        <ele>12.6</ele>
        <time>2026-01-25T09:26:28Z</time>
      </trkpt>
      <trkpt lat="48.55482" lon="-2.72904">
        <ele>12.6</ele>
        <time>2026-01-25T09:26:29Z</time>
      </trkpt>
      <trkpt lat="48.55489" lon="-2.72894">
        <ele>11.6</ele>
        <time>2026-01-25T09:26:30Z</time>
      </trkpt>
      <trkpt lat="48.55494" lon="-2.72883">
        <ele>8.4</ele>
        <time>2026-01-25T09:26:31Z</time>
      </trkpt>
      <trkpt lat="48.555" lon="-2.72873">
        <ele>8.4</ele>
        <time>2026-01-25T09:26:32Z</time>
      </trkpt>
      <trkpt lat="48.55506" lon="-2.72861">
        <ele>8.4</ele>
        <time>2026-01-25T09:26:33Z</time>
      </trkpt>
      <trkpt lat="48.5551" lon="-2.72849">
        <ele>7.4</ele>
        <time>2026-01-25T09:26:34Z</time>
      </trkpt>
      <trkpt lat="48.55514" lon="-2.72836">
        <ele>6.8</ele>
        <time>2026-01-25T09:26:35Z</time>
      </trkpt>
      <trkpt lat="48.55518" lon="-2.72823">
        <ele>6.8</ele>
        <time>2026-01-25T09:26:36Z</time>
      </trkpt>
      <trkpt lat="48.55521" lon="-2.7281">
        <ele>6.8</ele>
        <time>2026-01-25T09:26:37Z</time>
      </trkpt>
      <trkpt lat="48.55524" lon="-2.72796">
        <ele>6.2</ele>
        <time>2026-01-25T09:26:38Z</time>
      </trkpt>
      <trkpt lat="48.55527" lon="-2.72782">
        <ele>6.4</ele>
        <time>2026-01-25T09:26:39Z</time>
      </trkpt>
      <trkpt lat="48.55529" lon="-2.72768">
        <ele>6.4</ele>
        <time>2026-01-25T09:26:40Z</time>
      </trkpt>
      <trkpt lat="48.55532" lon="-2.72755">
        <ele>6.4</ele>
        <time>2026-01-25T09:26:41Z</time>
      </trkpt>
      <trkpt lat="48.55536" lon="-2.72742">
        <ele>6</ele>
        <time>2026-01-25T09:26:42Z</time>
      </trkpt>
      <trkpt lat="48.55541" lon="-2.7273">
        <ele>6.2</ele>
        <time>2026-01-25T09:26:43Z</time>
      </trkpt>
      <trkpt lat="48.55546" lon="-2.72719">
        <ele>6.2</ele>
        <time>2026-01-25T09:26:44Z</time>
      </trkpt>
      <trkpt lat="48.55553" lon="-2.7271">
        <ele>6.2</ele>
        <time>2026-01-25T09:26:45Z</time>
      </trkpt>
      <trkpt lat="48.5556" lon="-2.72702">
        <ele>5.8</ele>
        <time>2026-01-25T09:26:46Z</time>
      </trkpt>
      <trkpt lat="48.55568" lon="-2.72695">
        <ele>6.2</ele>
        <time>2026-01-25T09:26:47Z</time>
      </trkpt>
      <trkpt lat="48.55576" lon="-2.72689">
        <ele>6.2</ele>
        <time>2026-01-25T09:26:48Z</time>
      </trkpt>
      <trkpt lat="48.55584" lon="-2.72685">
        <ele>6.2</ele>
        <time>2026-01-25T09:26:49Z</time>
      </trkpt>
      <trkpt lat="48.55593" lon="-2.72681">
        <ele>6.2</ele>
        <time>2026-01-25T09:26:50Z</time>
      </trkpt>
      <trkpt lat="48.55601" lon="-2.72677">
        <ele>5.8</ele>
        <time>2026-01-25T09:26:51Z</time>
      </trkpt>
      <trkpt lat="48.55609" lon="-2.72673">
        <ele>5.8</ele>
        <time>2026-01-25T09:26:52Z</time>
      </trkpt>
      <trkpt lat="48.55616" lon="-2.72671">
        <ele>5.8</ele>
        <time>2026-01-25T09:26:53Z</time>
      </trkpt>
      <trkpt lat="48.55622" lon="-2.72669">
        <ele>6.8</ele>
        <time>2026-01-25T09:26:54Z</time>
      </trkpt>
      <trkpt lat="48.55627" lon="-2.72668">
        <ele>8.2</ele>
        <time>2026-01-25T09:26:55Z</time>
      </trkpt>
      <trkpt lat="48.55631" lon="-2.72667">
        <ele>8.2</ele>
        <time>2026-01-25T09:26:56Z</time>
      </trkpt>
      <trkpt lat="48.55635" lon="-2.72665">
        <ele>8.2</ele>
        <time>2026-01-25T09:26:57Z</time>
      </trkpt>
      <trkpt lat="48.55639" lon="-2.72664">
        <ele>8.2</ele>
        <time>2026-01-25T09:26:58Z</time>
      </trkpt>
      <trkpt lat="48.55643" lon="-2.72661">
        <ele>8.4</ele>
        <time>2026-01-25T09:26:59Z</time>
      </trkpt>
      <trkpt lat="48.55645" lon="-2.72656">
        <ele>8.4</ele>
        <time>2026-01-25T09:27:00Z</time>
      </trkpt>
      <trkpt lat="48.55648" lon="-2.72652">
        <ele>8.4</ele>
        <time>2026-01-25T09:27:01Z</time>
      </trkpt>
      <trkpt lat="48.5565" lon="-2.72646">
        <ele>7.4</ele>
        <time>2026-01-25T09:27:02Z</time>
      </trkpt>
      <trkpt lat="48.55652" lon="-2.72638">
        <ele>5.6</ele>
        <time>2026-01-25T09:27:03Z</time>
      </trkpt>
      <trkpt lat="48.55651" lon="-2.7263">
        <ele>5.6</ele>
        <time>2026-01-25T09:27:04Z</time>
      </trkpt>
      <trkpt lat="48.55651" lon="-2.72621">
        <ele>5.6</ele>
        <time>2026-01-25T09:27:05Z</time>
      </trkpt>
      <trkpt lat="48.55652" lon="-2.72612">
        <ele>4.6</ele>
        <time>2026-01-25T09:27:06Z</time>
      </trkpt>
      <trkpt lat="48.55653" lon="-2.72603">
        <ele>4</ele>
        <time>2026-01-25T09:27:07Z</time>
      </trkpt>
      <trkpt lat="48.55653" lon="-2.72594">
        <ele>4</ele>
        <time>2026-01-25T09:27:08Z</time>
      </trkpt>
      <trkpt lat="48.55653" lon="-2.72586">
        <ele>4</ele>
        <time>2026-01-25T09:27:09Z</time>
      </trkpt>
      <trkpt lat="48.55653" lon="-2.7258">
        <ele>5</ele>
        <time>2026-01-25T09:27:10Z</time>
      </trkpt>
      <trkpt lat="48.55655" lon="-2.72577">
        <ele>6.2</ele>
        <time>2026-01-25T09:27:11Z</time>
      </trkpt>
      <trkpt lat="48.55658" lon="-2.72577">
        <ele>6.2</ele>
        <time>2026-01-25T09:27:12Z</time>
      </trkpt>
      <trkpt lat="48.5566" lon="-2.72579">
        <ele>6.2</ele>
        <time>2026-01-25T09:27:13Z</time>
      </trkpt>
      <trkpt lat="48.55661" lon="-2.72581">
        <ele>5.6</ele>
        <time>2026-01-25T09:27:14Z</time>
      </trkpt>
      <trkpt lat="48.5566" lon="-2.72582">
        <ele>5.4</ele>
        <time>2026-01-25T09:27:15Z</time>
      </trkpt>
      <trkpt lat="48.5566" lon="-2.72582">
        <ele>5.4</ele>
        <time>2026-01-25T09:27:16Z</time>
      </trkpt>
      <trkpt lat="48.55661" lon="-2.72583">
        <ele>5</ele>
        <time>2026-01-25T09:29:20Z</time>
      </trkpt>
      <trkpt lat="48.55662" lon="-2.72585">
        <ele>5</ele>
        <time>2026-01-25T09:29:21Z</time>
      </trkpt>
      <trkpt lat="48.55662" lon="-2.72588">
        <ele>5</ele>
        <time>2026-01-25T09:29:22Z</time>
      </trkpt>
      <trkpt lat="48.55662" lon="-2.72591">
        <ele>4.8</ele>
        <time>2026-01-25T09:29:23Z</time>
      </trkpt>
      <trkpt lat="48.55661" lon="-2.72594">
        <ele>4.8</ele>
        <time>2026-01-25T09:29:24Z</time>
      </trkpt>
      <trkpt lat="48.55659" lon="-2.72597">
        <ele>4.8</ele>
        <time>2026-01-25T09:29:25Z</time>
      </trkpt>
      <trkpt lat="48.55657" lon="-2.72599">
        <ele>4.8</ele>
        <time>2026-01-25T09:29:26Z</time>
      </trkpt>
      <trkpt lat="48.55655" lon="-2.72601">
        <ele>5.2</ele>
        <time>2026-01-25T09:29:27Z</time>
      </trkpt>
      <trkpt lat="48.55653" lon="-2.72603">
        <ele>5.2</ele>
        <time>2026-01-25T09:29:28Z</time>
      </trkpt>
      <trkpt lat="48.55652" lon="-2.72606">
        <ele>5.2</ele>
        <time>2026-01-25T09:29:29Z</time>
      </trkpt>
      <trkpt lat="48.55652" lon="-2.7261">
        <ele>5</ele>
        <time>2026-01-25T09:29:30Z</time>
      </trkpt>
      <trkpt lat="48.55652" lon="-2.72614">
        <ele>5.4</ele>
        <time>2026-01-25T09:29:31Z</time>
      </trkpt>
      <trkpt lat="48.55651" lon="-2.72618">
        <ele>5.4</ele>
        <time>2026-01-25T09:29:32Z</time>
      </trkpt>
      <trkpt lat="48.55651" lon="-2.72622">
        <ele>5.4</ele>
        <time>2026-01-25T09:29:33Z</time>
      </trkpt>
      <trkpt lat="48.55651" lon="-2.72626">
        <ele>5.6</ele>
        <time>2026-01-25T09:29:34Z</time>
      </trkpt>
      <trkpt lat="48.55651" lon="-2.7263">
        <ele>5.8</ele>
        <time>2026-01-25T09:29:35Z</time>
      </trkpt>
      <trkpt lat="48.55651" lon="-2.72634">
        <ele>5.8</ele>
        <time>2026-01-25T09:29:36Z</time>
      </trkpt>
      <trkpt lat="48.55651" lon="-2.72638">
        <ele>5.8</ele>
        <time>2026-01-25T09:29:37Z</time>
      </trkpt>
      <trkpt lat="48.55651" lon="-2.72641">
        <ele>6.4</ele>
        <time>2026-01-25T09:29:38Z</time>
      </trkpt>
      <trkpt lat="48.55651" lon="-2.72645">
        <ele>7</ele>
        <time>2026-01-25T09:29:39Z</time>
      </trkpt>
      <trkpt lat="48.55651" lon="-2.72649">
        <ele>7</ele>
        <time>2026-01-25T09:29:40Z</time>
      </trkpt>
      <trkpt lat="48.5565" lon="-2.72652">
        <ele>7</ele>
        <time>2026-01-25T09:29:41Z</time>
      </trkpt>
      <trkpt lat="48.5565" lon="-2.72655">
        <ele>7</ele>
        <time>2026-01-25T09:29:42Z</time>
      </trkpt>
      <trkpt lat="48.5565" lon="-2.72658">
        <ele>8.2</ele>
        <time>2026-01-25T09:29:43Z</time>
      </trkpt>
      <trkpt lat="48.55649" lon="-2.72661">
        <ele>8.2</ele>
        <time>2026-01-25T09:29:44Z</time>
      </trkpt>
      <trkpt lat="48.55649" lon="-2.72664">
        <ele>8.2</ele>
        <time>2026-01-25T09:29:45Z</time>
      </trkpt>
      <trkpt lat="48.55649" lon="-2.72667">
        <ele>9.2</ele>
        <time>2026-01-25T09:29:46Z</time>
      </trkpt>
      <trkpt lat="48.5565" lon="-2.7267">
        <ele>9.2</ele>
        <time>2026-01-25T09:29:47Z</time>
      </trkpt>
      <trkpt lat="48.5565" lon="-2.72673">
        <ele>9.2</ele>
        <time>2026-01-25T09:29:48Z</time>
      </trkpt>
      <trkpt lat="48.5565" lon="-2.72676">
        <ele>9.2</ele>
        <time>2026-01-25T09:29:49Z</time>
      </trkpt>
      <trkpt lat="48.55651" lon="-2.72679">
        <ele>9.8</ele>
        <time>2026-01-25T09:29:50Z</time>
      </trkpt>
      <trkpt lat="48.55651" lon="-2.72682">
        <ele>10</ele>
        <time>2026-01-25T09:29:51Z</time>
      </trkpt>
      <trkpt lat="48.55652" lon="-2.72685">
        <ele>10</ele>
        <time>2026-01-25T09:29:52Z</time>
      </trkpt>
      <trkpt lat="48.55652" lon="-2.72688">
        <ele>10</ele>
        <time>2026-01-25T09:29:53Z</time>
      </trkpt>
      <trkpt lat="48.55652" lon="-2.72691">
        <ele>11</ele>
        <time>2026-01-25T09:29:54Z</time>
      </trkpt>
      <trkpt lat="48.55652" lon="-2.72694">
        <ele>11.2</ele>
        <time>2026-01-25T09:29:55Z</time>
      </trkpt>
      <trkpt lat="48.55652" lon="-2.72697">
        <ele>11.2</ele>
        <time>2026-01-25T09:29:56Z</time>
      </trkpt>
      <trkpt lat="48.55651" lon="-2.727">
        <ele>11.2</ele>
        <time>2026-01-25T09:29:57Z</time>
      </trkpt>
      <trkpt lat="48.55651" lon="-2.72702">
        <ele>12.2</ele>
        <time>2026-01-25T09:29:58Z</time>
      </trkpt>
      <trkpt lat="48.55651" lon="-2.72705">
        <ele>12.8</ele>
        <time>2026-01-25T09:29:59Z</time>
      </trkpt>
      <trkpt lat="48.55651" lon="-2.72708">
        <ele>12.8</ele>
        <time>2026-01-25T09:30:00Z</time>
      </trkpt>
      <trkpt lat="48.5565" lon="-2.7271">
        <ele>12.8</ele>
        <time>2026-01-25T09:30:01Z</time>
      </trkpt>
      <trkpt lat="48.5565" lon="-2.72713">
        <ele>13.8</ele>
        <time>2026-01-25T09:30:02Z</time>
      </trkpt>
      <trkpt lat="48.5565" lon="-2.72715">
        <ele>14.2</ele>
        <time>2026-01-25T09:30:03Z</time>
      </trkpt>
      <trkpt lat="48.5565" lon="-2.72718">
        <ele>14.2</ele>
        <time>2026-01-25T09:30:04Z</time>
      </trkpt>
      <trkpt lat="48.5565" lon="-2.7272">
        <ele>14.2</ele>
        <time>2026-01-25T09:30:05Z</time>
      </trkpt>
      <trkpt lat="48.5565" lon="-2.72723">
        <ele>14.8</ele>
        <time>2026-01-25T09:30:06Z</time>
      </trkpt>
      <trkpt lat="48.5565" lon="-2.72726">
        <ele>15</ele>
        <time>2026-01-25T09:30:07Z</time>
      </trkpt>
      <trkpt lat="48.55651" lon="-2.72729">
        <ele>15</ele>
        <time>2026-01-25T09:30:08Z</time>
      </trkpt>
      <trkpt lat="48.55651" lon="-2.72732">
        <ele>15</ele>
        <time>2026-01-25T09:30:09Z</time>
      </trkpt>
      <trkpt lat="48.55651" lon="-2.72734">
        <ele>15.8</ele>
        <time>2026-01-25T09:30:10Z</time>
      </trkpt>
      <trkpt lat="48.55651" lon="-2.72737">
        <ele>16.2</ele>
        <time>2026-01-25T09:30:11Z</time>
      </trkpt>
      <trkpt lat="48.55651" lon="-2.72739">
        <ele>16.2</ele>
        <time>2026-01-25T09:30:12Z</time>
      </trkpt>
      <trkpt lat="48.55651" lon="-2.72742">
        <ele>16.2</ele>
        <time>2026-01-25T09:30:13Z</time>
      </trkpt>
      <trkpt lat="48.55651" lon="-2.72745">
        <ele>17.2</ele>
        <time>2026-01-25T09:30:14Z</time>
      </trkpt>
      <trkpt lat="48.55651" lon="-2.72747">
        <ele>17.2</ele>
        <time>2026-01-25T09:30:15Z</time>
      </trkpt>
      <trkpt lat="48.55651" lon="-2.7275">
        <ele>17.2</ele>
        <time>2026-01-25T09:30:16Z</time>
      </trkpt>
      <trkpt lat="48.55651" lon="-2.72753">
        <ele>17.2</ele>
        <time>2026-01-25T09:30:17Z</time>
      </trkpt>
      <trkpt lat="48.55651" lon="-2.72755">
        <ele>18</ele>
        <time>2026-01-25T09:30:18Z</time>
      </trkpt>
      <trkpt lat="48.5565" lon="-2.72758">
        <ele>18.4</ele>
        <time>2026-01-25T09:30:19Z</time>
      </trkpt>
      <trkpt lat="48.5565" lon="-2.7276">
        <ele>18.4</ele>
        <time>2026-01-25T09:30:20Z</time>
      </trkpt>
      <trkpt lat="48.5565" lon="-2.72763">
        <ele>18.4</ele>
        <time>2026-01-25T09:30:21Z</time>
      </trkpt>
      <trkpt lat="48.5565" lon="-2.72765">
        <ele>19.2</ele>
        <time>2026-01-25T09:30:22Z</time>
      </trkpt>
      <trkpt lat="48.55651" lon="-2.72768">
        <ele>19.4</ele>
        <time>2026-01-25T09:30:23Z</time>
      </trkpt>
      <trkpt lat="48.55651" lon="-2.7277">
        <ele>19.4</ele>
        <time>2026-01-25T09:30:24Z</time>
      </trkpt>
      <trkpt lat="48.55651" lon="-2.72773">
        <ele>19.4</ele>
        <time>2026-01-25T09:30:25Z</time>
      </trkpt>
      <trkpt lat="48.55652" lon="-2.72775">
        <ele>20.2</ele>
        <time>2026-01-25T09:30:26Z</time>
      </trkpt>
      <trkpt lat="48.55652" lon="-2.72778">
        <ele>20.4</ele>
        <time>2026-01-25T09:30:27Z</time>
      </trkpt>
      <trkpt lat="48.55653" lon="-2.7278">
        <ele>20.4</ele>
        <time>2026-01-25T09:30:28Z</time>
      </trkpt>
      <trkpt lat="48.55653" lon="-2.72783">
        <ele>20.4</ele>
        <time>2026-01-25T09:30:29Z</time>
      </trkpt>
      <trkpt lat="48.55654" lon="-2.72785">
        <ele>21.2</ele>
        <time>2026-01-25T09:30:30Z</time>
      </trkpt>
      <trkpt lat="48.55656" lon="-2.72786">
        <ele>21.4</ele>
        <time>2026-01-25T09:30:31Z</time>
      </trkpt>
      <trkpt lat="48.55657" lon="-2.72789">
        <ele>21.4</ele>
        <time>2026-01-25T09:30:32Z</time>
      </trkpt>
      <trkpt lat="48.55658" lon="-2.72791">
        <ele>21.4</ele>
        <time>2026-01-25T09:30:33Z</time>
      </trkpt>
      <trkpt lat="48.55659" lon="-2.72793">
        <ele>21.4</ele>
        <time>2026-01-25T09:30:34Z</time>
      </trkpt>
      <trkpt lat="48.5566" lon="-2.72795">
        <ele>22</ele>
        <time>2026-01-25T09:30:35Z</time>
      </trkpt>
      <trkpt lat="48.55661" lon="-2.72797">
        <ele>22</ele>
        <time>2026-01-25T09:30:36Z</time>
      </trkpt>
      <trkpt lat="48.55662" lon="-2.72799">
        <ele>22</ele>
        <time>2026-01-25T09:30:37Z</time>
      </trkpt>
      <trkpt lat="48.55663" lon="-2.72801">
        <ele>22.8</ele>
        <time>2026-01-25T09:30:38Z</time>
      </trkpt>
      <trkpt lat="48.55664" lon="-2.72803">
        <ele>22.8</ele>
        <time>2026-01-25T09:30:39Z</time>
      </trkpt>
      <trkpt lat="48.55666" lon="-2.72805">
        <ele>22.8</ele>
        <time>2026-01-25T09:30:40Z</time>
      </trkpt>
      <trkpt lat="48.55667" lon="-2.72807">
        <ele>22.8</ele>
        <time>2026-01-25T09:30:41Z</time>
      </trkpt>
      <trkpt lat="48.55668" lon="-2.72809">
        <ele>23.8</ele>
        <time>2026-01-25T09:30:42Z</time>
      </trkpt>
      <trkpt lat="48.55669" lon="-2.72811">
        <ele>23.8</ele>
        <time>2026-01-25T09:30:43Z</time>
      </trkpt>
      <trkpt lat="48.5567" lon="-2.72813">
        <ele>23.8</ele>
        <time>2026-01-25T09:30:44Z</time>
      </trkpt>
      <trkpt lat="48.55671" lon="-2.72815">
        <ele>23.8</ele>
        <time>2026-01-25T09:30:45Z</time>
      </trkpt>
      <trkpt lat="48.55672" lon="-2.72817">
        <ele>24.8</ele>
        <time>2026-01-25T09:30:46Z</time>
      </trkpt>
      <trkpt lat="48.55673" lon="-2.72819">
        <ele>25</ele>
        <time>2026-01-25T09:30:47Z</time>
      </trkpt>
      <trkpt lat="48.55674" lon="-2.72821">
        <ele>25</ele>
        <time>2026-01-25T09:30:48Z</time>
      </trkpt>
      <trkpt lat="48.55676" lon="-2.72823">
        <ele>25</ele>
        <time>2026-01-25T09:30:49Z</time>
      </trkpt>
      <trkpt lat="48.55677" lon="-2.72825">
        <ele>25.4</ele>
        <time>2026-01-25T09:30:50Z</time>
      </trkpt>
      <trkpt lat="48.55678" lon="-2.72827">
        <ele>26.4</ele>
        <time>2026-01-25T09:30:51Z</time>
      </trkpt>
      <trkpt lat="48.55679" lon="-2.72828">
        <ele>26.4</ele>
        <time>2026-01-25T09:30:52Z</time>
      </trkpt>
      <trkpt lat="48.5568" lon="-2.7283">
        <ele>26.4</ele>
        <time>2026-01-25T09:30:53Z</time>
      </trkpt>
      <trkpt lat="48.55681" lon="-2.72832">
        <ele>26.8</ele>
        <time>2026-01-25T09:30:54Z</time>
      </trkpt>
      <trkpt lat="48.55682" lon="-2.72834">
        <ele>27</ele>
        <time>2026-01-25T09:30:55Z</time>
      </trkpt>
      <trkpt lat="48.55684" lon="-2.72836">
        <ele>27</ele>
        <time>2026-01-25T09:30:56Z</time>
      </trkpt>
      <trkpt lat="48.55685" lon="-2.72838">
        <ele>27</ele>
        <time>2026-01-25T09:30:57Z</time>
      </trkpt>
      <trkpt lat="48.55685" lon="-2.7284">
        <ele>27.6</ele>
        <time>2026-01-25T09:30:58Z</time>
      </trkpt>
      <trkpt lat="48.55686" lon="-2.72842">
        <ele>28</ele>
        <time>2026-01-25T09:30:59Z</time>
      </trkpt>
      <trkpt lat="48.55687" lon="-2.72844">
        <ele>28</ele>
        <time>2026-01-25T09:31:00Z</time>
      </trkpt>
      <trkpt lat="48.55688" lon="-2.72846">
        <ele>28</ele>
        <time>2026-01-25T09:31:01Z</time>
      </trkpt>
      <trkpt lat="48.55689" lon="-2.72848">
        <ele>28.6</ele>
        <time>2026-01-25T09:31:02Z</time>
      </trkpt>
      <trkpt lat="48.5569" lon="-2.72851">
        <ele>29.2</ele>
        <time>2026-01-25T09:31:03Z</time>
      </trkpt>
      <trkpt lat="48.55691" lon="-2.72853">
        <ele>29.2</ele>
        <time>2026-01-25T09:31:04Z</time>
      </trkpt>
      <trkpt lat="48.55692" lon="-2.72855">
        <ele>29.2</ele>
        <time>2026-01-25T09:31:05Z</time>
      </trkpt>
      <trkpt lat="48.55692" lon="-2.72857">
        <ele>29.2</ele>
        <time>2026-01-25T09:31:06Z</time>
      </trkpt>
      <trkpt lat="48.55693" lon="-2.72859">
        <ele>30.2</ele>
        <time>2026-01-25T09:31:07Z</time>
      </trkpt>
      <trkpt lat="48.55694" lon="-2.72862">
        <ele>30.2</ele>
        <time>2026-01-25T09:31:08Z</time>
      </trkpt>
      <trkpt lat="48.55695" lon="-2.72864">
        <ele>30.2</ele>
        <time>2026-01-25T09:31:09Z</time>
      </trkpt>
      <trkpt lat="48.55695" lon="-2.72866">
        <ele>30.2</ele>
        <time>2026-01-25T09:31:10Z</time>
      </trkpt>
      <trkpt lat="48.55696" lon="-2.72869">
        <ele>31.2</ele>
        <time>2026-01-25T09:31:11Z</time>
      </trkpt>
      <trkpt lat="48.55697" lon="-2.72871">
        <ele>31.2</ele>
        <time>2026-01-25T09:31:12Z</time>
      </trkpt>
      <trkpt lat="48.55698" lon="-2.72873">
        <ele>31.2</ele>
        <time>2026-01-25T09:31:13Z</time>
      </trkpt>
      <trkpt lat="48.55698" lon="-2.72875">
        <ele>32</ele>
        <time>2026-01-25T09:31:14Z</time>
      </trkpt>
      <trkpt lat="48.55699" lon="-2.72878">
        <ele>31.8</ele>
        <time>2026-01-25T09:31:15Z</time>
      </trkpt>
      <trkpt lat="48.557" lon="-2.72881">
        <ele>31.8</ele>
        <time>2026-01-25T09:31:16Z</time>
      </trkpt>
      <trkpt lat="48.557" lon="-2.72883">
        <ele>31.8</ele>
        <time>2026-01-25T09:31:17Z</time>
      </trkpt>
      <trkpt lat="48.557" lon="-2.72886">
        <ele>32.8</ele>
        <time>2026-01-25T09:31:18Z</time>
      </trkpt>
      <trkpt lat="48.55701" lon="-2.72888">
        <ele>32.8</ele>
        <time>2026-01-25T09:31:19Z</time>
      </trkpt>
      <trkpt lat="48.55701" lon="-2.72891">
        <ele>32.8</ele>
        <time>2026-01-25T09:31:20Z</time>
      </trkpt>
      <trkpt lat="48.55701" lon="-2.72893">
        <ele>32.8</ele>
        <time>2026-01-25T09:31:21Z</time>
      </trkpt>
      <trkpt lat="48.55701" lon="-2.72896">
        <ele>33.8</ele>
        <time>2026-01-25T09:31:22Z</time>
      </trkpt>
      <trkpt lat="48.55702" lon="-2.72899">
        <ele>34</ele>
        <time>2026-01-25T09:31:23Z</time>
      </trkpt>
      <trkpt lat="48.55702" lon="-2.72901">
        <ele>34</ele>
        <time>2026-01-25T09:31:24Z</time>
      </trkpt>
      <trkpt lat="48.55703" lon="-2.72904">
        <ele>34</ele>
        <time>2026-01-25T09:31:25Z</time>
      </trkpt>
      <trkpt lat="48.55703" lon="-2.72906">
        <ele>34.8</ele>
        <time>2026-01-25T09:31:26Z</time>
      </trkpt>
      <trkpt lat="48.55703" lon="-2.72909">
        <ele>35</ele>
        <time>2026-01-25T09:31:27Z</time>
      </trkpt>
      <trkpt lat="48.55704" lon="-2.72912">
        <ele>35</ele>
        <time>2026-01-25T09:31:28Z</time>
      </trkpt>
      <trkpt lat="48.55704" lon="-2.72914">
        <ele>35</ele>
        <time>2026-01-25T09:31:29Z</time>
      </trkpt>
      <trkpt lat="48.55704" lon="-2.72917">
        <ele>35.6</ele>
        <time>2026-01-25T09:31:30Z</time>
      </trkpt>
      <trkpt lat="48.55704" lon="-2.7292">
        <ele>35.8</ele>
        <time>2026-01-25T09:31:31Z</time>
      </trkpt>
      <trkpt lat="48.55704" lon="-2.72922">
        <ele>35.8</ele>
        <time>2026-01-25T09:31:32Z</time>
      </trkpt>
      <trkpt lat="48.55704" lon="-2.72925">
        <ele>35.8</ele>
        <time>2026-01-25T09:31:33Z</time>
      </trkpt>
      <trkpt lat="48.55704" lon="-2.72927">
        <ele>35.8</ele>
        <time>2026-01-25T09:31:34Z</time>
      </trkpt>
      <trkpt lat="48.55705" lon="-2.7293">
        <ele>37</ele>
        <time>2026-01-25T09:31:35Z</time>
      </trkpt>
      <trkpt lat="48.55705" lon="-2.72933">
        <ele>37</ele>
        <time>2026-01-25T09:31:36Z</time>
      </trkpt>
      <trkpt lat="48.55705" lon="-2.72935">
        <ele>37</ele>
        <time>2026-01-25T09:31:37Z</time>
      </trkpt>
      <trkpt lat="48.55705" lon="-2.72938">
        <ele>37.4</ele>
        <time>2026-01-25T09:31:38Z</time>
      </trkpt>
      <trkpt lat="48.55705" lon="-2.7294">
        <ele>37.8</ele>
        <time>2026-01-25T09:31:39Z</time>
      </trkpt>
      <trkpt lat="48.55705" lon="-2.72943">
        <ele>37.8</ele>
        <time>2026-01-25T09:31:40Z</time>
      </trkpt>
      <trkpt lat="48.55705" lon="-2.72946">
        <ele>37.8</ele>
        <time>2026-01-25T09:31:41Z</time>
      </trkpt>
      <trkpt lat="48.55706" lon="-2.72949">
        <ele>38</ele>
        <time>2026-01-25T09:31:42Z</time>
      </trkpt>
      <trkpt lat="48.55706" lon="-2.72951">
        <ele>38</ele>
        <time>2026-01-25T09:31:43Z</time>
      </trkpt>
      <trkpt lat="48.55706" lon="-2.72954">
        <ele>38</ele>
        <time>2026-01-25T09:31:44Z</time>
      </trkpt>
      <trkpt lat="48.55706" lon="-2.72957">
        <ele>38</ele>
        <time>2026-01-25T09:31:45Z</time>
      </trkpt>
      <trkpt lat="48.55706" lon="-2.72959">
        <ele>38.8</ele>
        <time>2026-01-25T09:31:46Z</time>
      </trkpt>
      <trkpt lat="48.55706" lon="-2.72962">
        <ele>39</ele>
        <time>2026-01-25T09:31:47Z</time>
      </trkpt>
      <trkpt lat="48.55706" lon="-2.72965">
        <ele>39</ele>
        <time>2026-01-25T09:31:48Z</time>
      </trkpt>
      <trkpt lat="48.55706" lon="-2.72968">
        <ele>39</ele>
        <time>2026-01-25T09:31:49Z</time>
      </trkpt>
      <trkpt lat="48.55707" lon="-2.7297">
        <ele>40</ele>
        <time>2026-01-25T09:31:50Z</time>
      </trkpt>
      <trkpt lat="48.55707" lon="-2.72973">
        <ele>40.4</ele>
        <time>2026-01-25T09:31:51Z</time>
      </trkpt>
      <trkpt lat="48.55707" lon="-2.72976">
        <ele>40.4</ele>
        <time>2026-01-25T09:31:52Z</time>
      </trkpt>
      <trkpt lat="48.55707" lon="-2.72978">
        <ele>40.4</ele>
        <time>2026-01-25T09:31:53Z</time>
      </trkpt>
      <trkpt lat="48.55708" lon="-2.72981">
        <ele>41.2</ele>
        <time>2026-01-25T09:31:54Z</time>
      </trkpt>
      <trkpt lat="48.55708" lon="-2.72984">
        <ele>41.4</ele>
        <time>2026-01-25T09:31:55Z</time>
      </trkpt>
      <trkpt lat="48.55708" lon="-2.72987">
        <ele>41.4</ele>
        <time>2026-01-25T09:31:56Z</time>
      </trkpt>
      <trkpt lat="48.55708" lon="-2.72989">
        <ele>41.4</ele>
        <time>2026-01-25T09:31:57Z</time>
      </trkpt>
      <trkpt lat="48.55708" lon="-2.72992">
        <ele>42</ele>
        <time>2026-01-25T09:31:58Z</time>
      </trkpt>
      <trkpt lat="48.55707" lon="-2.72995">
        <ele>42.2</ele>
        <time>2026-01-25T09:31:59Z</time>
      </trkpt>
      <trkpt lat="48.55708" lon="-2.72998">
        <ele>42.2</ele>
        <time>2026-01-25T09:32:00Z</time>
      </trkpt>
      <trkpt lat="48.55708" lon="-2.73001">
        <ele>42.2</ele>
        <time>2026-01-25T09:32:01Z</time>
      </trkpt>
      <trkpt lat="48.55708" lon="-2.73003">
        <ele>43.2</ele>
        <time>2026-01-25T09:32:02Z</time>
      </trkpt>
      <trkpt lat="48.55708" lon="-2.73006">
        <ele>43.6</ele>
        <time>2026-01-25T09:32:03Z</time>
      </trkpt>
      <trkpt lat="48.55708" lon="-2.73009">
        <ele>43.6</ele>
        <time>2026-01-25T09:32:04Z</time>
      </trkpt>
      <trkpt lat="48.55709" lon="-2.73011">
        <ele>43.6</ele>
        <time>2026-01-25T09:32:05Z</time>
      </trkpt>
      <trkpt lat="48.55709" lon="-2.73014">
        <ele>44.4</ele>
        <time>2026-01-25T09:32:06Z</time>
      </trkpt>
      <trkpt lat="48.55709" lon="-2.73017">
        <ele>44.6</ele>
        <time>2026-01-25T09:32:07Z</time>
      </trkpt>
      <trkpt lat="48.55709" lon="-2.73019">
        <ele>44.6</ele>
        <time>2026-01-25T09:32:08Z</time>
      </trkpt>
      <trkpt lat="48.5571" lon="-2.73022">
        <ele>44.6</ele>
        <time>2026-01-25T09:32:09Z</time>
      </trkpt>
      <trkpt lat="48.5571" lon="-2.73025">
        <ele>45.4</ele>
        <time>2026-01-25T09:32:10Z</time>
      </trkpt>
      <trkpt lat="48.5571" lon="-2.73028">
        <ele>45.2</ele>
        <time>2026-01-25T09:32:11Z</time>
      </trkpt>
      <trkpt lat="48.5571" lon="-2.73031">
        <ele>45.2</ele>
        <time>2026-01-25T09:32:12Z</time>
      </trkpt>
      <trkpt lat="48.5571" lon="-2.73034">
        <ele>45.2</ele>
        <time>2026-01-25T09:32:13Z</time>
      </trkpt>
      <trkpt lat="48.5571" lon="-2.73037">
        <ele>46</ele>
        <time>2026-01-25T09:32:14Z</time>
      </trkpt>
      <trkpt lat="48.5571" lon="-2.7304">
        <ele>46.4</ele>
        <time>2026-01-25T09:32:15Z</time>
      </trkpt>
      <trkpt lat="48.5571" lon="-2.73043">
        <ele>46.4</ele>
        <time>2026-01-25T09:32:16Z</time>
      </trkpt>
      <trkpt lat="48.5571" lon="-2.73047">
        <ele>46.4</ele>
        <time>2026-01-25T09:32:17Z</time>
      </trkpt>
      <trkpt lat="48.5571" lon="-2.7305">
        <ele>46.4</ele>
        <time>2026-01-25T09:32:18Z</time>
      </trkpt>
      <trkpt lat="48.5571" lon="-2.73053">
        <ele>46.8</ele>
        <time>2026-01-25T09:32:19Z</time>
      </trkpt>
      <trkpt lat="48.5571" lon="-2.73056">
        <ele>46.8</ele>
        <time>2026-01-25T09:32:20Z</time>
      </trkpt>
      <trkpt lat="48.5571" lon="-2.73059">
        <ele>46.8</ele>
        <time>2026-01-25T09:32:21Z</time>
      </trkpt>
      <trkpt lat="48.5571" lon="-2.73062">
        <ele>47</ele>
        <time>2026-01-25T09:32:22Z</time>
      </trkpt>
      <trkpt lat="48.5571" lon="-2.73066">
        <ele>47.6</ele>
        <time>2026-01-25T09:32:23Z</time>
      </trkpt>
      <trkpt lat="48.5571" lon="-2.73069">
        <ele>47.6</ele>
        <time>2026-01-25T09:32:24Z</time>
      </trkpt>
      <trkpt lat="48.5571" lon="-2.73073">
        <ele>47.6</ele>
        <time>2026-01-25T09:32:25Z</time>
      </trkpt>
      <trkpt lat="48.55711" lon="-2.73076">
        <ele>47.6</ele>
        <time>2026-01-25T09:32:26Z</time>
      </trkpt>
      <trkpt lat="48.55711" lon="-2.7308">
        <ele>47.8</ele>
        <time>2026-01-25T09:32:27Z</time>
      </trkpt>
      <trkpt lat="48.55711" lon="-2.73083">
        <ele>47.8</ele>
        <time>2026-01-25T09:32:28Z</time>
      </trkpt>
      <trkpt lat="48.55711" lon="-2.73086">
        <ele>47.8</ele>
        <time>2026-01-25T09:32:29Z</time>
      </trkpt>
      <trkpt lat="48.55711" lon="-2.7309">
        <ele>48.4</ele>
        <time>2026-01-25T09:32:30Z</time>
      </trkpt>
      <trkpt lat="48.55711" lon="-2.73093">
        <ele>48.8</ele>
        <time>2026-01-25T09:32:31Z</time>
      </trkpt>
      <trkpt lat="48.55711" lon="-2.73097">
        <ele>48.8</ele>
        <time>2026-01-25T09:32:32Z</time>
      </trkpt>
      <trkpt lat="48.55711" lon="-2.731">
        <ele>48.8</ele>
        <time>2026-01-25T09:32:33Z</time>
      </trkpt>
      <trkpt lat="48.55711" lon="-2.73104">
        <ele>48.8</ele>
        <time>2026-01-25T09:32:34Z</time>
      </trkpt>
      <trkpt lat="48.5571" lon="-2.73108">
        <ele>49.2</ele>
        <time>2026-01-25T09:32:35Z</time>
      </trkpt>
      <trkpt lat="48.5571" lon="-2.73112">
        <ele>49.2</ele>
        <time>2026-01-25T09:32:36Z</time>
      </trkpt>
      <trkpt lat="48.5571" lon="-2.73115">
        <ele>49.2</ele>
        <time>2026-01-25T09:32:37Z</time>
      </trkpt>
      <trkpt lat="48.55709" lon="-2.73119">
        <ele>49.6</ele>
        <time>2026-01-25T09:32:38Z</time>
      </trkpt>
      <trkpt lat="48.55709" lon="-2.73123">
        <ele>50</ele>
        <time>2026-01-25T09:32:39Z</time>
      </trkpt>
      <trkpt lat="48.55709" lon="-2.73127">
        <ele>50</ele>
        <time>2026-01-25T09:32:40Z</time>
      </trkpt>
      <trkpt lat="48.55708" lon="-2.73131">
        <ele>50</ele>
        <time>2026-01-25T09:32:41Z</time>
      </trkpt>
      <trkpt lat="48.55708" lon="-2.73134">
        <ele>50.6</ele>
        <time>2026-01-25T09:32:42Z</time>
      </trkpt>
      <trkpt lat="48.55707" lon="-2.73138">
        <ele>50.6</ele>
        <time>2026-01-25T09:32:43Z</time>
      </trkpt>
      <trkpt lat="48.55707" lon="-2.73142">
        <ele>50.6</ele>
        <time>2026-01-25T09:32:44Z</time>
      </trkpt>
      <trkpt lat="48.55706" lon="-2.73146">
        <ele>50.6</ele>
        <time>2026-01-25T09:32:45Z</time>
      </trkpt>
      <trkpt lat="48.55706" lon="-2.73149">
        <ele>50.6</ele>
        <time>2026-01-25T09:32:46Z</time>
      </trkpt>
      <trkpt lat="48.55705" lon="-2.73153">
        <ele>51.2</ele>
        <time>2026-01-25T09:32:47Z</time>
      </trkpt>
      <trkpt lat="48.55705" lon="-2.73157">
        <ele>51.2</ele>
        <time>2026-01-25T09:32:48Z</time>
      </trkpt>
      <trkpt lat="48.55705" lon="-2.73161">
        <ele>51.2</ele>
        <time>2026-01-25T09:32:49Z</time>
      </trkpt>
      <trkpt lat="48.55704" lon="-2.73165">
        <ele>51.2</ele>
        <time>2026-01-25T09:32:50Z</time>
      </trkpt>
      <trkpt lat="48.55703" lon="-2.73168">
        <ele>52</ele>
        <time>2026-01-25T09:32:51Z</time>
      </trkpt>
      <trkpt lat="48.55702" lon="-2.73172">
        <ele>52</ele>
        <time>2026-01-25T09:32:52Z</time>
      </trkpt>
      <trkpt lat="48.55702" lon="-2.73175">
        <ele>52</ele>
        <time>2026-01-25T09:32:53Z</time>
      </trkpt>
      <trkpt lat="48.55701" lon="-2.73179">
        <ele>52</ele>
        <time>2026-01-25T09:32:54Z</time>
      </trkpt>
      <trkpt lat="48.557" lon="-2.73183">
        <ele>52.2</ele>
        <time>2026-01-25T09:32:55Z</time>
      </trkpt>
      <trkpt lat="48.557" lon="-2.73187">
        <ele>52.2</ele>
        <time>2026-01-25T09:32:56Z</time>
      </trkpt>
      <trkpt lat="48.55699" lon="-2.73191">
        <ele>52.2</ele>
        <time>2026-01-25T09:32:57Z</time>
      </trkpt>
      <trkpt lat="48.55698" lon="-2.73195">
        <ele>53</ele>
        <time>2026-01-25T09:32:58Z</time>
      </trkpt>
      <trkpt lat="48.55698" lon="-2.73199">
        <ele>52.8</ele>
        <time>2026-01-25T09:32:59Z</time>
      </trkpt>
      <trkpt lat="48.55697" lon="-2.73203">
        <ele>52.8</ele>
        <time>2026-01-25T09:33:00Z</time>
      </trkpt>
      <trkpt lat="48.55696" lon="-2.73207">
        <ele>52.8</ele>
        <time>2026-01-25T09:33:01Z</time>
      </trkpt>
      <trkpt lat="48.55695" lon="-2.7321">
        <ele>53.8</ele>
        <time>2026-01-25T09:33:02Z</time>
      </trkpt>
      <trkpt lat="48.55694" lon="-2.73214">
        <ele>53.6</ele>
        <time>2026-01-25T09:33:03Z</time>
      </trkpt>
      <trkpt lat="48.55694" lon="-2.73218">
        <ele>53.6</ele>
        <time>2026-01-25T09:33:04Z</time>
      </trkpt>
      <trkpt lat="48.55693" lon="-2.73222">
        <ele>53.6</ele>
        <time>2026-01-25T09:33:05Z</time>
      </trkpt>
      <trkpt lat="48.55692" lon="-2.73226">
        <ele>54.4</ele>
        <time>2026-01-25T09:33:06Z</time>
      </trkpt>
      <trkpt lat="48.55691" lon="-2.73229">
        <ele>54.2</ele>
        <time>2026-01-25T09:33:07Z</time>
      </trkpt>
      <trkpt lat="48.5569" lon="-2.73233">
        <ele>54.2</ele>
        <time>2026-01-25T09:33:08Z</time>
      </trkpt>
      <trkpt lat="48.5569" lon="-2.73237">
        <ele>54.2</ele>
        <time>2026-01-25T09:33:09Z</time>
      </trkpt>
      <trkpt lat="48.55689" lon="-2.73241">
        <ele>54.6</ele>
        <time>2026-01-25T09:33:10Z</time>
      </trkpt>
      <trkpt lat="48.55688" lon="-2.73244">
        <ele>55.2</ele>
        <time>2026-01-25T09:33:11Z</time>
      </trkpt>
      <trkpt lat="48.55687" lon="-2.73248">
        <ele>55.2</ele>
        <time>2026-01-25T09:33:12Z</time>
      </trkpt>
      <trkpt lat="48.55687" lon="-2.73252">
        <ele>55.2</ele>
        <time>2026-01-25T09:33:13Z</time>
      </trkpt>
      <trkpt lat="48.55686" lon="-2.73256">
        <ele>55.2</ele>
        <time>2026-01-25T09:33:14Z</time>
      </trkpt>
      <trkpt lat="48.55685" lon="-2.7326">
        <ele>55.8</ele>
        <time>2026-01-25T09:33:15Z</time>
      </trkpt>
      <trkpt lat="48.55684" lon="-2.73264">
        <ele>55.8</ele>
        <time>2026-01-25T09:33:16Z</time>
      </trkpt>
      <trkpt lat="48.55683" lon="-2.73268">
        <ele>55.8</ele>
        <time>2026-01-25T09:33:17Z</time>
      </trkpt>
      <trkpt lat="48.55682" lon="-2.73272">
        <ele>55.8</ele>
        <time>2026-01-25T09:33:18Z</time>
      </trkpt>
      <trkpt lat="48.55681" lon="-2.73276">
        <ele>55.6</ele>
        <time>2026-01-25T09:33:19Z</time>
      </trkpt>
      <trkpt lat="48.5568" lon="-2.73281">
        <ele>55.6</ele>
        <time>2026-01-25T09:33:20Z</time>
      </trkpt>
      <trkpt lat="48.5568" lon="-2.73285">
        <ele>55.6</ele>
        <time>2026-01-25T09:33:21Z</time>
      </trkpt>
      <trkpt lat="48.55679" lon="-2.73289">
        <ele>56.6</ele>
        <time>2026-01-25T09:33:22Z</time>
      </trkpt>
      <trkpt lat="48.55678" lon="-2.73293">
        <ele>56.8</ele>
        <time>2026-01-25T09:33:23Z</time>
      </trkpt>
      <trkpt lat="48.55677" lon="-2.73297">
        <ele>56.8</ele>
        <time>2026-01-25T09:33:24Z</time>
      </trkpt>
      <trkpt lat="48.55676" lon="-2.73301">
        <ele>56.8</ele>
        <time>2026-01-25T09:33:25Z</time>
      </trkpt>
      <trkpt lat="48.55675" lon="-2.73305">
        <ele>57.6</ele>
        <time>2026-01-25T09:33:26Z</time>
      </trkpt>
      <trkpt lat="48.55674" lon="-2.7331">
        <ele>57.6</ele>
        <time>2026-01-25T09:33:27Z</time>
      </trkpt>
      <trkpt lat="48.55674" lon="-2.73314">
        <ele>57.6</ele>
        <time>2026-01-25T09:33:28Z</time>
      </trkpt>
      <trkpt lat="48.55673" lon="-2.73319">
        <ele>57.6</ele>
        <time>2026-01-25T09:33:29Z</time>
      </trkpt>
      <trkpt lat="48.55672" lon="-2.73323">
        <ele>58.6</ele>
        <time>2026-01-25T09:33:30Z</time>
      </trkpt>
      <trkpt lat="48.55671" lon="-2.73327">
        <ele>58.6</ele>
        <time>2026-01-25T09:33:31Z</time>
      </trkpt>
      <trkpt lat="48.5567" lon="-2.73332">
        <ele>58.6</ele>
        <time>2026-01-25T09:33:32Z</time>
      </trkpt>
      <trkpt lat="48.5567" lon="-2.73336">
        <ele>58.6</ele>
        <time>2026-01-25T09:33:33Z</time>
      </trkpt>
      <trkpt lat="48.55669" lon="-2.73341">
        <ele>58.6</ele>
        <time>2026-01-25T09:33:34Z</time>
      </trkpt>
      <trkpt lat="48.55668" lon="-2.73345">
        <ele>58.8</ele>
        <time>2026-01-25T09:33:35Z</time>
      </trkpt>
      <trkpt lat="48.55667" lon="-2.7335">
        <ele>58.8</ele>
        <time>2026-01-25T09:33:36Z</time>
      </trkpt>
      <trkpt lat="48.55666" lon="-2.73354">
        <ele>58.8</ele>
        <time>2026-01-25T09:33:37Z</time>
      </trkpt>
      <trkpt lat="48.55665" lon="-2.73359">
        <ele>58.8</ele>
        <time>2026-01-25T09:33:38Z</time>
      </trkpt>
      <trkpt lat="48.55664" lon="-2.73364">
        <ele>59.2</ele>
        <time>2026-01-25T09:33:39Z</time>
      </trkpt>
      <trkpt lat="48.55663" lon="-2.73369">
        <ele>59.2</ele>
        <time>2026-01-25T09:33:40Z</time>
      </trkpt>
      <trkpt lat="48.55663" lon="-2.73374">
        <ele>59.2</ele>
        <time>2026-01-25T09:33:41Z</time>
      </trkpt>
      <trkpt lat="48.55662" lon="-2.73379">
        <ele>59.2</ele>
        <time>2026-01-25T09:33:42Z</time>
      </trkpt>
      <trkpt lat="48.55661" lon="-2.73384">
        <ele>60</ele>
        <time>2026-01-25T09:33:43Z</time>
      </trkpt>
      <trkpt lat="48.5566" lon="-2.73389">
        <ele>60</ele>
        <time>2026-01-25T09:33:44Z</time>
      </trkpt>
      <trkpt lat="48.55659" lon="-2.73394">
        <ele>60</ele>
        <time>2026-01-25T09:33:45Z</time>
      </trkpt>
      <trkpt lat="48.55658" lon="-2.73399">
        <ele>60</ele>
        <time>2026-01-25T09:33:46Z</time>
      </trkpt>
      <trkpt lat="48.55657" lon="-2.73404">
        <ele>59.6</ele>
        <time>2026-01-25T09:33:47Z</time>
      </trkpt>
      <trkpt lat="48.55656" lon="-2.7341">
        <ele>59.6</ele>
        <time>2026-01-25T09:33:48Z</time>
      </trkpt>
      <trkpt lat="48.55655" lon="-2.73415">
        <ele>59.6</ele>
        <time>2026-01-25T09:33:49Z</time>
      </trkpt>
      <trkpt lat="48.55654" lon="-2.73421">
        <ele>59.6</ele>
        <time>2026-01-25T09:33:50Z</time>
      </trkpt>
      <trkpt lat="48.55653" lon="-2.73428">
        <ele>59</ele>
        <time>2026-01-25T09:33:51Z</time>
      </trkpt>
      <trkpt lat="48.55651" lon="-2.73434">
        <ele>59</ele>
        <time>2026-01-25T09:33:52Z</time>
      </trkpt>
      <trkpt lat="48.5565" lon="-2.73441">
        <ele>59</ele>
        <time>2026-01-25T09:33:53Z</time>
      </trkpt>
      <trkpt lat="48.55648" lon="-2.73449">
        <ele>58.2</ele>
        <time>2026-01-25T09:33:54Z</time>
      </trkpt>
      <trkpt lat="48.55645" lon="-2.73456">
        <ele>57.4</ele>
        <time>2026-01-25T09:33:55Z</time>
      </trkpt>
      <trkpt lat="48.55643" lon="-2.73464">
        <ele>57.4</ele>
        <time>2026-01-25T09:33:56Z</time>
      </trkpt>
      <trkpt lat="48.55641" lon="-2.73471">
        <ele>57.4</ele>
        <time>2026-01-25T09:33:57Z</time>
      </trkpt>
      <trkpt lat="48.55639" lon="-2.73479">
        <ele>57.2</ele>
        <time>2026-01-25T09:33:58Z</time>
      </trkpt>
      <trkpt lat="48.55638" lon="-2.73486">
        <ele>58.2</ele>
        <time>2026-01-25T09:33:59Z</time>
      </trkpt>
      <trkpt lat="48.55637" lon="-2.73494">
        <ele>58.2</ele>
        <time>2026-01-25T09:34:00Z</time>
      </trkpt>
      <trkpt lat="48.55638" lon="-2.73501">
        <ele>58.2</ele>
        <time>2026-01-25T09:34:01Z</time>
      </trkpt>
      <trkpt lat="48.55639" lon="-2.73507">
        <ele>58.2</ele>
        <time>2026-01-25T09:34:02Z</time>
      </trkpt>
      <trkpt lat="48.5564" lon="-2.73512">
        <ele>59.4</ele>
        <time>2026-01-25T09:34:03Z</time>
      </trkpt>
      <trkpt lat="48.55641" lon="-2.73517">
        <ele>59.4</ele>
        <time>2026-01-25T09:34:04Z</time>
      </trkpt>
      <trkpt lat="48.55642" lon="-2.73521">
        <ele>59.4</ele>
        <time>2026-01-25T09:34:05Z</time>
      </trkpt>
      <trkpt lat="48.55643" lon="-2.73524">
        <ele>60.4</ele>
        <time>2026-01-25T09:34:06Z</time>
      </trkpt>
      <trkpt lat="48.55644" lon="-2.73527">
        <ele>61.8</ele>
        <time>2026-01-25T09:34:07Z</time>
      </trkpt>
      <trkpt lat="48.55645" lon="-2.7353">
        <ele>61.8</ele>
        <time>2026-01-25T09:34:08Z</time>
      </trkpt>
      <trkpt lat="48.55647" lon="-2.73533">
        <ele>61.8</ele>
        <time>2026-01-25T09:34:09Z</time>
      </trkpt>
      <trkpt lat="48.55648" lon="-2.73537">
        <ele>61.8</ele>
        <time>2026-01-25T09:34:10Z</time>
      </trkpt>
      <trkpt lat="48.55649" lon="-2.7354">
        <ele>62</ele>
        <time>2026-01-25T09:34:11Z</time>
      </trkpt>
      <trkpt lat="48.5565" lon="-2.73543">
        <ele>62</ele>
        <time>2026-01-25T09:34:12Z</time>
      </trkpt>
      <trkpt lat="48.55651" lon="-2.73547">
        <ele>62</ele>
        <time>2026-01-25T09:34:13Z</time>
      </trkpt>
      <trkpt lat="48.55652" lon="-2.7355">
        <ele>62.8</ele>
        <time>2026-01-25T09:34:14Z</time>
      </trkpt>
      <trkpt lat="48.55653" lon="-2.73553">
        <ele>63</ele>
        <time>2026-01-25T09:34:15Z</time>
      </trkpt>
      <trkpt lat="48.55654" lon="-2.73557">
        <ele>63</ele>
        <time>2026-01-25T09:34:16Z</time>
      </trkpt>
      <trkpt lat="48.55655" lon="-2.7356">
        <ele>63</ele>
        <time>2026-01-25T09:34:17Z</time>
      </trkpt>
      <trkpt lat="48.55655" lon="-2.73564">
        <ele>64</ele>
        <time>2026-01-25T09:34:18Z</time>
      </trkpt>
      <trkpt lat="48.55656" lon="-2.73567">
        <ele>64</ele>
        <time>2026-01-25T09:34:19Z</time>
      </trkpt>
      <trkpt lat="48.55657" lon="-2.73571">
        <ele>64</ele>
        <time>2026-01-25T09:34:20Z</time>
      </trkpt>
      <trkpt lat="48.55657" lon="-2.73575">
        <ele>64</ele>
        <time>2026-01-25T09:34:21Z</time>
      </trkpt>
      <trkpt lat="48.55657" lon="-2.73578">
        <ele>65</ele>
        <time>2026-01-25T09:34:22Z</time>
      </trkpt>
      <trkpt lat="48.55657" lon="-2.73582">
        <ele>65.4</ele>
        <time>2026-01-25T09:34:23Z</time>
      </trkpt>
      <trkpt lat="48.55658" lon="-2.73586">
        <ele>65.4</ele>
        <time>2026-01-25T09:34:24Z</time>
      </trkpt>
      <trkpt lat="48.55658" lon="-2.7359">
        <ele>65.4</ele>
        <time>2026-01-25T09:34:25Z</time>
      </trkpt>
      <trkpt lat="48.55658" lon="-2.73593">
        <ele>65.4</ele>
        <time>2026-01-25T09:34:26Z</time>
      </trkpt>
      <trkpt lat="48.55658" lon="-2.73597">
        <ele>65.6</ele>
        <time>2026-01-25T09:34:27Z</time>
      </trkpt>
      <trkpt lat="48.55657" lon="-2.73601">
        <ele>65.6</ele>
        <time>2026-01-25T09:34:28Z</time>
      </trkpt>
      <trkpt lat="48.55657" lon="-2.73605">
        <ele>65.6</ele>
        <time>2026-01-25T09:34:29Z</time>
      </trkpt>
      <trkpt lat="48.55657" lon="-2.73609">
        <ele>66.6</ele>
        <time>2026-01-25T09:34:30Z</time>
      </trkpt>
      <trkpt lat="48.55657" lon="-2.73612">
        <ele>66.4</ele>
        <time>2026-01-25T09:34:31Z</time>
      </trkpt>
      <trkpt lat="48.55657" lon="-2.73616">
        <ele>66.4</ele>
        <time>2026-01-25T09:34:32Z</time>
      </trkpt>
      <trkpt lat="48.55657" lon="-2.7362">
        <ele>66.4</ele>
        <time>2026-01-25T09:34:33Z</time>
      </trkpt>
      <trkpt lat="48.55657" lon="-2.73623">
        <ele>67.4</ele>
        <time>2026-01-25T09:34:34Z</time>
      </trkpt>
      <trkpt lat="48.55657" lon="-2.73627">
        <ele>67.6</ele>
        <time>2026-01-25T09:34:35Z</time>
      </trkpt>
      <trkpt lat="48.55657" lon="-2.73631">
        <ele>67.6</ele>
        <time>2026-01-25T09:34:36Z</time>
      </trkpt>
      <trkpt lat="48.55657" lon="-2.73635">
        <ele>67.6</ele>
        <time>2026-01-25T09:34:37Z</time>
      </trkpt>
      <trkpt lat="48.55656" lon="-2.73639">
        <ele>67.6</ele>
        <time>2026-01-25T09:34:38Z</time>
      </trkpt>
      <trkpt lat="48.55656" lon="-2.73642">
        <ele>68.8</ele>
        <time>2026-01-25T09:34:39Z</time>
      </trkpt>
      <trkpt lat="48.55656" lon="-2.73646">
        <ele>68.8</ele>
        <time>2026-01-25T09:34:40Z</time>
      </trkpt>
      <trkpt lat="48.55655" lon="-2.73649">
        <ele>68.8</ele>
        <time>2026-01-25T09:34:41Z</time>
      </trkpt>
      <trkpt lat="48.55655" lon="-2.73653">
        <ele>69.8</ele>
        <time>2026-01-25T09:34:42Z</time>
      </trkpt>
      <trkpt lat="48.55655" lon="-2.73657">
        <ele>70</ele>
        <time>2026-01-25T09:34:43Z</time>
      </trkpt>
      <trkpt lat="48.55655" lon="-2.7366">
        <ele>70</ele>
        <time>2026-01-25T09:34:44Z</time>
      </trkpt>
      <trkpt lat="48.55655" lon="-2.73664">
        <ele>70</ele>
        <time>2026-01-25T09:34:45Z</time>
      </trkpt>
      <trkpt lat="48.55655" lon="-2.73668">
        <ele>70.6</ele>
        <time>2026-01-25T09:34:46Z</time>
      </trkpt>
      <trkpt lat="48.55654" lon="-2.73672">
        <ele>70.6</ele>
        <time>2026-01-25T09:34:47Z</time>
      </trkpt>
      <trkpt lat="48.55654" lon="-2.73676">
        <ele>70.6</ele>
        <time>2026-01-25T09:34:48Z</time>
      </trkpt>
      <trkpt lat="48.55653" lon="-2.73679">
        <ele>70.6</ele>
        <time>2026-01-25T09:34:49Z</time>
      </trkpt>
      <trkpt lat="48.55653" lon="-2.73683">
        <ele>71</ele>
        <time>2026-01-25T09:34:50Z</time>
      </trkpt>
      <trkpt lat="48.55652" lon="-2.73687">
        <ele>70.8</ele>
        <time>2026-01-25T09:34:51Z</time>
      </trkpt>
      <trkpt lat="48.55651" lon="-2.73692">
        <ele>70.8</ele>
        <time>2026-01-25T09:34:52Z</time>
      </trkpt>
      <trkpt lat="48.5565" lon="-2.73695">
        <ele>70.8</ele>
        <time>2026-01-25T09:34:53Z</time>
      </trkpt>
      <trkpt lat="48.55649" lon="-2.73699">
        <ele>71</ele>
        <time>2026-01-25T09:34:54Z</time>
      </trkpt>
      <trkpt lat="48.55648" lon="-2.73704">
        <ele>70.6</ele>
        <time>2026-01-25T09:34:55Z</time>
      </trkpt>
      <trkpt lat="48.55647" lon="-2.73709">
        <ele>70.6</ele>
        <time>2026-01-25T09:34:56Z</time>
      </trkpt>
      <trkpt lat="48.55646" lon="-2.73714">
        <ele>70.6</ele>
        <time>2026-01-25T09:34:57Z</time>
      </trkpt>
      <trkpt lat="48.55645" lon="-2.73719">
        <ele>70.6</ele>
        <time>2026-01-25T09:34:58Z</time>
      </trkpt>
      <trkpt lat="48.55643" lon="-2.73724">
        <ele>70.6</ele>
        <time>2026-01-25T09:34:59Z</time>
      </trkpt>
      <trkpt lat="48.55642" lon="-2.73729">
        <ele>70.6</ele>
        <time>2026-01-25T09:35:00Z</time>
      </trkpt>
      <trkpt lat="48.55641" lon="-2.73735">
        <ele>70.6</ele>
        <time>2026-01-25T09:35:01Z</time>
      </trkpt>
      <trkpt lat="48.5564" lon="-2.7374">
        <ele>71.2</ele>
        <time>2026-01-25T09:35:02Z</time>
      </trkpt>
      <trkpt lat="48.55638" lon="-2.73745">
        <ele>71.4</ele>
        <time>2026-01-25T09:35:03Z</time>
      </trkpt>
      <trkpt lat="48.55637" lon="-2.73751">
        <ele>71.4</ele>
        <time>2026-01-25T09:35:04Z</time>
      </trkpt>
      <trkpt lat="48.55636" lon="-2.73757">
        <ele>71.4</ele>
        <time>2026-01-25T09:35:05Z</time>
      </trkpt>
      <trkpt lat="48.55635" lon="-2.73763">
        <ele>71</ele>
        <time>2026-01-25T09:35:06Z</time>
      </trkpt>
      <trkpt lat="48.55634" lon="-2.73769">
        <ele>71.2</ele>
        <time>2026-01-25T09:35:07Z</time>
      </trkpt>
      <trkpt lat="48.55633" lon="-2.73774">
        <ele>71.2</ele>
        <time>2026-01-25T09:35:08Z</time>
      </trkpt>
      <trkpt lat="48.55632" lon="-2.7378">
        <ele>71.2</ele>
        <time>2026-01-25T09:35:09Z</time>
      </trkpt>
      <trkpt lat="48.5563" lon="-2.73786">
        <ele>71.2</ele>
        <time>2026-01-25T09:35:10Z</time>
      </trkpt>
      <trkpt lat="48.55629" lon="-2.73793">
        <ele>71.2</ele>
        <time>2026-01-25T09:35:11Z</time>
      </trkpt>
      <trkpt lat="48.55628" lon="-2.73799">
        <ele>71.2</ele>
        <time>2026-01-25T09:35:12Z</time>
      </trkpt>
      <trkpt lat="48.55626" lon="-2.73806">
        <ele>71.2</ele>
        <time>2026-01-25T09:35:13Z</time>
      </trkpt>
      <trkpt lat="48.55625" lon="-2.73813">
        <ele>71.4</ele>
        <time>2026-01-25T09:35:14Z</time>
      </trkpt>
      <trkpt lat="48.55623" lon="-2.73819">
        <ele>71.8</ele>
        <time>2026-01-25T09:35:15Z</time>
      </trkpt>
      <trkpt lat="48.55622" lon="-2.73826">
        <ele>71.8</ele>
        <time>2026-01-25T09:35:16Z</time>
      </trkpt>
      <trkpt lat="48.5562" lon="-2.73833">
        <ele>71.8</ele>
        <time>2026-01-25T09:35:17Z</time>
      </trkpt>
      <trkpt lat="48.55618" lon="-2.7384">
        <ele>71.8</ele>
        <time>2026-01-25T09:35:18Z</time>
      </trkpt>
      <trkpt lat="48.55616" lon="-2.73847">
        <ele>71.8</ele>
        <time>2026-01-25T09:35:19Z</time>
      </trkpt>
      <trkpt lat="48.55615" lon="-2.73854">
        <ele>71.8</ele>
        <time>2026-01-25T09:35:20Z</time>
      </trkpt>
      <trkpt lat="48.55613" lon="-2.7386">
        <ele>71.8</ele>
        <time>2026-01-25T09:35:21Z</time>
      </trkpt>
      <trkpt lat="48.55611" lon="-2.73867">
        <ele>71.8</ele>
        <time>2026-01-25T09:35:22Z</time>
      </trkpt>
      <trkpt lat="48.55609" lon="-2.73874">
        <ele>72.2</ele>
        <time>2026-01-25T09:35:23Z</time>
      </trkpt>
      <trkpt lat="48.55607" lon="-2.73881">
        <ele>72.2</ele>
        <time>2026-01-25T09:35:24Z</time>
      </trkpt>
      <trkpt lat="48.55605" lon="-2.73888">
        <ele>72.2</ele>
        <time>2026-01-25T09:35:25Z</time>
      </trkpt>
      <trkpt lat="48.55604" lon="-2.73895">
        <ele>72.2</ele>
        <time>2026-01-25T09:35:26Z</time>
      </trkpt>
      <trkpt lat="48.55602" lon="-2.73902">
        <ele>72.4</ele>
        <time>2026-01-25T09:35:27Z</time>
      </trkpt>
      <trkpt lat="48.556" lon="-2.73909">
        <ele>72.4</ele>
        <time>2026-01-25T09:35:28Z</time>
      </trkpt>
      <trkpt lat="48.55598" lon="-2.73916">
        <ele>72.4</ele>
        <time>2026-01-25T09:35:29Z</time>
      </trkpt>
      <trkpt lat="48.55597" lon="-2.73924">
        <ele>72</ele>
        <time>2026-01-25T09:35:30Z</time>
      </trkpt>
      <trkpt lat="48.55595" lon="-2.73931">
        <ele>71.8</ele>
        <time>2026-01-25T09:35:31Z</time>
      </trkpt>
      <trkpt lat="48.55594" lon="-2.73939">
        <ele>71.8</ele>
        <time>2026-01-25T09:35:32Z</time>
      </trkpt>
      <trkpt lat="48.55594" lon="-2.73947">
        <ele>71.8</ele>
        <time>2026-01-25T09:35:33Z</time>
      </trkpt>
      <trkpt lat="48.55594" lon="-2.73954">
        <ele>72</ele>
        <time>2026-01-25T09:35:34Z</time>
      </trkpt>
      <trkpt lat="48.55594" lon="-2.73962">
        <ele>72.2</ele>
        <time>2026-01-25T09:35:35Z</time>
      </trkpt>
      <trkpt lat="48.55595" lon="-2.7397">
        <ele>72.2</ele>
        <time>2026-01-25T09:35:36Z</time>
      </trkpt>
      <trkpt lat="48.55596" lon="-2.73977">
        <ele>72.2</ele>
        <time>2026-01-25T09:35:37Z</time>
      </trkpt>
      <trkpt lat="48.55598" lon="-2.73984">
        <ele>72.2</ele>
        <time>2026-01-25T09:35:38Z</time>
      </trkpt>
      <trkpt lat="48.556" lon="-2.73991">
        <ele>73</ele>
        <time>2026-01-25T09:35:39Z</time>
      </trkpt>
      <trkpt lat="48.55603" lon="-2.73997">
        <ele>73</ele>
        <time>2026-01-25T09:35:40Z</time>
      </trkpt>
      <trkpt lat="48.55606" lon="-2.74003">
        <ele>73</ele>
        <time>2026-01-25T09:35:41Z</time>
      </trkpt>
      <trkpt lat="48.5561" lon="-2.74008">
        <ele>73</ele>
        <time>2026-01-25T09:35:42Z</time>
      </trkpt>
      <trkpt lat="48.55614" lon="-2.74013">
        <ele>73.4</ele>
        <time>2026-01-25T09:35:43Z</time>
      </trkpt>
      <trkpt lat="48.55618" lon="-2.74017">
        <ele>73.4</ele>
        <time>2026-01-25T09:35:44Z</time>
      </trkpt>
      <trkpt lat="48.55622" lon="-2.74021">
        <ele>73.4</ele>
        <time>2026-01-25T09:35:45Z</time>
      </trkpt>
      <trkpt lat="48.55626" lon="-2.74025">
        <ele>73.4</ele>
        <time>2026-01-25T09:35:46Z</time>
      </trkpt>
      <trkpt lat="48.5563" lon="-2.74029">
        <ele>73.8</ele>
        <time>2026-01-25T09:35:47Z</time>
      </trkpt>
      <trkpt lat="48.55635" lon="-2.74032">
        <ele>73.8</ele>
        <time>2026-01-25T09:35:48Z</time>
      </trkpt>
      <trkpt lat="48.55639" lon="-2.74036">
        <ele>73.8</ele>
        <time>2026-01-25T09:35:49Z</time>
      </trkpt>
      <trkpt lat="48.55643" lon="-2.74039">
        <ele>73.8</ele>
        <time>2026-01-25T09:35:50Z</time>
      </trkpt>
      <trkpt lat="48.55647" lon="-2.74043">
        <ele>75.2</ele>
        <time>2026-01-25T09:35:51Z</time>
      </trkpt>
      <trkpt lat="48.55651" lon="-2.74046">
        <ele>75.2</ele>
        <time>2026-01-25T09:35:52Z</time>
      </trkpt>
      <trkpt lat="48.55655" lon="-2.7405">
        <ele>75.2</ele>
        <time>2026-01-25T09:35:53Z</time>
      </trkpt>
      <trkpt lat="48.55659" lon="-2.74054">
        <ele>75.2</ele>
        <time>2026-01-25T09:35:54Z</time>
      </trkpt>
      <trkpt lat="48.55663" lon="-2.74058">
        <ele>75.4</ele>
        <time>2026-01-25T09:35:55Z</time>
      </trkpt>
      <trkpt lat="48.55666" lon="-2.74062">
        <ele>75.4</ele>
        <time>2026-01-25T09:35:56Z</time>
      </trkpt>
      <trkpt lat="48.55669" lon="-2.74066">
        <ele>75.4</ele>
        <time>2026-01-25T09:35:57Z</time>
      </trkpt>
      <trkpt lat="48.55673" lon="-2.7407">
        <ele>75.4</ele>
        <time>2026-01-25T09:35:58Z</time>
      </trkpt>
      <trkpt lat="48.55676" lon="-2.74075">
        <ele>75.6</ele>
        <time>2026-01-25T09:35:59Z</time>
      </trkpt>
      <trkpt lat="48.55679" lon="-2.7408">
        <ele>75.6</ele>
        <time>2026-01-25T09:36:00Z</time>
      </trkpt>
      <trkpt lat="48.55681" lon="-2.74087">
        <ele>75.6</ele>
        <time>2026-01-25T09:36:01Z</time>
      </trkpt>
      <trkpt lat="48.55684" lon="-2.74093">
        <ele>76.6</ele>
        <time>2026-01-25T09:36:02Z</time>
      </trkpt>
      <trkpt lat="48.55686" lon="-2.741">
        <ele>76.6</ele>
        <time>2026-01-25T09:36:03Z</time>
      </trkpt>
      <trkpt lat="48.55688" lon="-2.74107">
        <ele>76.6</ele>
        <time>2026-01-25T09:36:04Z</time>
      </trkpt>
      <trkpt lat="48.5569" lon="-2.74114">
        <ele>76.6</ele>
        <time>2026-01-25T09:36:05Z</time>
      </trkpt>
      <trkpt lat="48.55691" lon="-2.74121">
        <ele>77.6</ele>
        <time>2026-01-25T09:36:06Z</time>
      </trkpt>
      <trkpt lat="48.55693" lon="-2.74128">
        <ele>79</ele>
        <time>2026-01-25T09:36:07Z</time>
      </trkpt>
      <trkpt lat="48.55695" lon="-2.74135">
        <ele>79</ele>
        <time>2026-01-25T09:36:08Z</time>
      </trkpt>
      <trkpt lat="48.55696" lon="-2.74142">
        <ele>79</ele>
        <time>2026-01-25T09:36:09Z</time>
      </trkpt>
      <trkpt lat="48.55698" lon="-2.74149">
        <ele>79</ele>
        <time>2026-01-25T09:36:10Z</time>
      </trkpt>
      <trkpt lat="48.557" lon="-2.74157">
        <ele>78.2</ele>
        <time>2026-01-25T09:36:11Z</time>
      </trkpt>
      <trkpt lat="48.55701" lon="-2.74165">
        <ele>78.2</ele>
        <time>2026-01-25T09:36:12Z</time>
      </trkpt>
      <trkpt lat="48.55702" lon="-2.74173">
        <ele>78.2</ele>
        <time>2026-01-25T09:36:13Z</time>
      </trkpt>
      <trkpt lat="48.55703" lon="-2.74181">
        <ele>78.2</ele>
        <time>2026-01-25T09:36:14Z</time>
      </trkpt>
      <trkpt lat="48.55703" lon="-2.7419">
        <ele>77.8</ele>
        <time>2026-01-25T09:36:15Z</time>
      </trkpt>
      <trkpt lat="48.55703" lon="-2.74199">
        <ele>77.8</ele>
        <time>2026-01-25T09:36:16Z</time>
      </trkpt>
      <trkpt lat="48.55702" lon="-2.74207">
        <ele>77.8</ele>
        <time>2026-01-25T09:36:17Z</time>
      </trkpt>
      <trkpt lat="48.55702" lon="-2.74216">
        <ele>77.8</ele>
        <time>2026-01-25T09:36:18Z</time>
      </trkpt>
      <trkpt lat="48.55701" lon="-2.74225">
        <ele>77.2</ele>
        <time>2026-01-25T09:36:19Z</time>
      </trkpt>
      <trkpt lat="48.557" lon="-2.74234">
        <ele>77.2</ele>
        <time>2026-01-25T09:36:20Z</time>
      </trkpt>
      <trkpt lat="48.55699" lon="-2.74243">
        <ele>77.2</ele>
        <time>2026-01-25T09:36:21Z</time>
      </trkpt>
      <trkpt lat="48.55698" lon="-2.74253">
        <ele>77.2</ele>
        <time>2026-01-25T09:36:22Z</time>
      </trkpt>
      <trkpt lat="48.55698" lon="-2.74262">
        <ele>76.6</ele>
        <time>2026-01-25T09:36:23Z</time>
      </trkpt>
      <trkpt lat="48.55697" lon="-2.74271">
        <ele>76.6</ele>
        <time>2026-01-25T09:36:24Z</time>
      </trkpt>
      <trkpt lat="48.55696" lon="-2.7428">
        <ele>76.6</ele>
        <time>2026-01-25T09:36:25Z</time>
      </trkpt>
      <trkpt lat="48.55695" lon="-2.74289">
        <ele>77.4</ele>
        <time>2026-01-25T09:36:26Z</time>
      </trkpt>
      <trkpt lat="48.55694" lon="-2.74298">
        <ele>77.8</ele>
        <time>2026-01-25T09:36:27Z</time>
      </trkpt>
      <trkpt lat="48.55693" lon="-2.74306">
        <ele>77.8</ele>
        <time>2026-01-25T09:36:28Z</time>
      </trkpt>
      <trkpt lat="48.55692" lon="-2.74315">
        <ele>77.8</ele>
        <time>2026-01-25T09:36:29Z</time>
      </trkpt>
      <trkpt lat="48.55692" lon="-2.74323">
        <ele>77.8</ele>
        <time>2026-01-25T09:36:30Z</time>
      </trkpt>
      <trkpt lat="48.55691" lon="-2.74332">
        <ele>78.2</ele>
        <time>2026-01-25T09:36:31Z</time>
      </trkpt>
      <trkpt lat="48.55689" lon="-2.74341">
        <ele>78.2</ele>
        <time>2026-01-25T09:36:32Z</time>
      </trkpt>
      <trkpt lat="48.55688" lon="-2.74349">
        <ele>78.2</ele>
        <time>2026-01-25T09:36:33Z</time>
      </trkpt>
      <trkpt lat="48.55687" lon="-2.74358">
        <ele>78.2</ele>
        <time>2026-01-25T09:36:34Z</time>
      </trkpt>
      <trkpt lat="48.55685" lon="-2.74366">
        <ele>78.8</ele>
        <time>2026-01-25T09:36:35Z</time>
      </trkpt>
      <trkpt lat="48.55684" lon="-2.74374">
        <ele>78.8</ele>
        <time>2026-01-25T09:36:36Z</time>
      </trkpt>
      <trkpt lat="48.55682" lon="-2.74383">
        <ele>78.8</ele>
        <time>2026-01-25T09:36:37Z</time>
      </trkpt>
      <trkpt lat="48.5568" lon="-2.74391">
        <ele>78.4</ele>
        <time>2026-01-25T09:36:38Z</time>
      </trkpt>
      <trkpt lat="48.55679" lon="-2.74399">
        <ele>78.4</ele>
        <time>2026-01-25T09:36:39Z</time>
      </trkpt>
      <trkpt lat="48.55678" lon="-2.74408">
        <ele>78.4</ele>
        <time>2026-01-25T09:36:40Z</time>
      </trkpt>
      <trkpt lat="48.55677" lon="-2.74416">
        <ele>78.4</ele>
        <time>2026-01-25T09:36:41Z</time>
      </trkpt>
      <trkpt lat="48.55676" lon="-2.74424">
        <ele>78.8</ele>
        <time>2026-01-25T09:36:42Z</time>
      </trkpt>
      <trkpt lat="48.55675" lon="-2.74432">
        <ele>79</ele>
        <time>2026-01-25T09:36:43Z</time>
      </trkpt>
      <trkpt lat="48.55674" lon="-2.7444">
        <ele>79</ele>
        <time>2026-01-25T09:36:44Z</time>
      </trkpt>
      <trkpt lat="48.55673" lon="-2.74448">
        <ele>79</ele>
        <time>2026-01-25T09:36:45Z</time>
      </trkpt>
      <trkpt lat="48.55672" lon="-2.74455">
        <ele>79</ele>
        <time>2026-01-25T09:36:46Z</time>
      </trkpt>
      <trkpt lat="48.55671" lon="-2.74463">
        <ele>79</ele>
        <time>2026-01-25T09:36:47Z</time>
      </trkpt>
      <trkpt lat="48.5567" lon="-2.74471">
        <ele>79</ele>
        <time>2026-01-25T09:36:48Z</time>
      </trkpt>
      <trkpt lat="48.55669" lon="-2.74478">
        <ele>79</ele>
        <time>2026-01-25T09:36:49Z</time>
      </trkpt>
      <trkpt lat="48.55668" lon="-2.74486">
        <ele>79.8</ele>
        <time>2026-01-25T09:36:50Z</time>
      </trkpt>
      <trkpt lat="48.55667" lon="-2.74494">
        <ele>80</ele>
        <time>2026-01-25T09:36:51Z</time>
      </trkpt>
      <trkpt lat="48.55666" lon="-2.74501">
        <ele>80</ele>
        <time>2026-01-25T09:36:52Z</time>
      </trkpt>
      <trkpt lat="48.55665" lon="-2.74509">
        <ele>80</ele>
        <time>2026-01-25T09:36:53Z</time>
      </trkpt>
      <trkpt lat="48.55664" lon="-2.74517">
        <ele>79.6</ele>
        <time>2026-01-25T09:36:54Z</time>
      </trkpt>
      <trkpt lat="48.55663" lon="-2.74525">
        <ele>79.4</ele>
        <time>2026-01-25T09:36:55Z</time>
      </trkpt>
      <trkpt lat="48.55662" lon="-2.74533">
        <ele>79.4</ele>
        <time>2026-01-25T09:36:56Z</time>
      </trkpt>
      <trkpt lat="48.5566" lon="-2.74541">
        <ele>79.4</ele>
        <time>2026-01-25T09:36:57Z</time>
      </trkpt>
      <trkpt lat="48.55658" lon="-2.74549">
        <ele>79.4</ele>
        <time>2026-01-25T09:36:58Z</time>
      </trkpt>
      <trkpt lat="48.55656" lon="-2.74557">
        <ele>80.2</ele>
        <time>2026-01-25T09:36:59Z</time>
      </trkpt>
      <trkpt lat="48.55654" lon="-2.74565">
        <ele>80.2</ele>
        <time>2026-01-25T09:37:00Z</time>
      </trkpt>
      <trkpt lat="48.55651" lon="-2.74572">
        <ele>80.2</ele>
        <time>2026-01-25T09:37:01Z</time>
      </trkpt>
      <trkpt lat="48.55649" lon="-2.7458">
        <ele>80.2</ele>
        <time>2026-01-25T09:37:02Z</time>
      </trkpt>
      <trkpt lat="48.55646" lon="-2.74587">
        <ele>80.8</ele>
        <time>2026-01-25T09:37:03Z</time>
      </trkpt>
      <trkpt lat="48.55644" lon="-2.74594">
        <ele>80.8</ele>
        <time>2026-01-25T09:37:04Z</time>
      </trkpt>
      <trkpt lat="48.55642" lon="-2.74601">
        <ele>80.8</ele>
        <time>2026-01-25T09:37:05Z</time>
      </trkpt>
      <trkpt lat="48.55639" lon="-2.74608">
        <ele>81.4</ele>
        <time>2026-01-25T09:37:06Z</time>
      </trkpt>
      <trkpt lat="48.55637" lon="-2.74616">
        <ele>81.2</ele>
        <time>2026-01-25T09:37:07Z</time>
      </trkpt>
      <trkpt lat="48.55635" lon="-2.74623">
        <ele>81.2</ele>
        <time>2026-01-25T09:37:08Z</time>
      </trkpt>
      <trkpt lat="48.55634" lon="-2.74631">
        <ele>81.2</ele>
        <time>2026-01-25T09:37:09Z</time>
      </trkpt>
      <trkpt lat="48.55632" lon="-2.74638">
        <ele>81.2</ele>
        <time>2026-01-25T09:37:10Z</time>
      </trkpt>
      <trkpt lat="48.55631" lon="-2.74646">
        <ele>81.6</ele>
        <time>2026-01-25T09:37:11Z</time>
      </trkpt>
      <trkpt lat="48.55629" lon="-2.74653">
        <ele>81.6</ele>
        <time>2026-01-25T09:37:12Z</time>
      </trkpt>
      <trkpt lat="48.55628" lon="-2.74661">
        <ele>81.6</ele>
        <time>2026-01-25T09:37:13Z</time>
      </trkpt>
      <trkpt lat="48.55627" lon="-2.74669">
        <ele>81.4</ele>
        <time>2026-01-25T09:37:14Z</time>
      </trkpt>
      <trkpt lat="48.55625" lon="-2.74676">
        <ele>81.8</ele>
        <time>2026-01-25T09:37:15Z</time>
      </trkpt>
      <trkpt lat="48.55623" lon="-2.74684">
        <ele>81.8</ele>
        <time>2026-01-25T09:37:16Z</time>
      </trkpt>
      <trkpt lat="48.55621" lon="-2.74691">
        <ele>81.8</ele>
        <time>2026-01-25T09:37:17Z</time>
      </trkpt>
      <trkpt lat="48.55619" lon="-2.74699">
        <ele>81.8</ele>
        <time>2026-01-25T09:37:18Z</time>
      </trkpt>
      <trkpt lat="48.55617" lon="-2.74706">
        <ele>82</ele>
        <time>2026-01-25T09:37:19Z</time>
      </trkpt>
      <trkpt lat="48.55615" lon="-2.74714">
        <ele>82</ele>
        <time>2026-01-25T09:37:20Z</time>
      </trkpt>
      <trkpt lat="48.55613" lon="-2.74722">
        <ele>82</ele>
        <time>2026-01-25T09:37:21Z</time>
      </trkpt>
      <trkpt lat="48.55611" lon="-2.74729">
        <ele>82</ele>
        <time>2026-01-25T09:37:22Z</time>
      </trkpt>
      <trkpt lat="48.5561" lon="-2.74737">
        <ele>82.2</ele>
        <time>2026-01-25T09:37:23Z</time>
      </trkpt>
      <trkpt lat="48.55608" lon="-2.74745">
        <ele>82.2</ele>
        <time>2026-01-25T09:37:24Z</time>
      </trkpt>
      <trkpt lat="48.55605" lon="-2.74753">
        <ele>82.2</ele>
        <time>2026-01-25T09:37:25Z</time>
      </trkpt>
      <trkpt lat="48.55603" lon="-2.7476">
        <ele>82.4</ele>
        <time>2026-01-25T09:37:26Z</time>
      </trkpt>
      <trkpt lat="48.55601" lon="-2.74768">
        <ele>82.8</ele>
        <time>2026-01-25T09:37:27Z</time>
      </trkpt>
      <trkpt lat="48.55599" lon="-2.74776">
        <ele>82.8</ele>
        <time>2026-01-25T09:37:28Z</time>
      </trkpt>
      <trkpt lat="48.55597" lon="-2.74783">
        <ele>82.8</ele>
        <time>2026-01-25T09:37:29Z</time>
      </trkpt>
      <trkpt lat="48.55595" lon="-2.74791">
        <ele>82.8</ele>
        <time>2026-01-25T09:37:30Z</time>
      </trkpt>
      <trkpt lat="48.55592" lon="-2.74798">
        <ele>83.2</ele>
        <time>2026-01-25T09:37:31Z</time>
      </trkpt>
      <trkpt lat="48.5559" lon="-2.74805">
        <ele>83.2</ele>
        <time>2026-01-25T09:37:32Z</time>
      </trkpt>
      <trkpt lat="48.55588" lon="-2.74813">
        <ele>83.2</ele>
        <time>2026-01-25T09:37:33Z</time>
      </trkpt>
      <trkpt lat="48.55586" lon="-2.7482">
        <ele>82.2</ele>
        <time>2026-01-25T09:37:34Z</time>
      </trkpt>
      <trkpt lat="48.55584" lon="-2.74828">
        <ele>82.4</ele>
        <time>2026-01-25T09:37:35Z</time>
      </trkpt>
      <trkpt lat="48.55582" lon="-2.74835">
        <ele>82.4</ele>
        <time>2026-01-25T09:37:36Z</time>
      </trkpt>
      <trkpt lat="48.55579" lon="-2.74842">
        <ele>82.4</ele>
        <time>2026-01-25T09:37:37Z</time>
      </trkpt>
      <trkpt lat="48.55577" lon="-2.7485">
        <ele>82.4</ele>
        <time>2026-01-25T09:37:38Z</time>
      </trkpt>
      <trkpt lat="48.55574" lon="-2.74857">
        <ele>82.6</ele>
        <time>2026-01-25T09:37:39Z</time>
      </trkpt>
      <trkpt lat="48.55572" lon="-2.74864">
        <ele>82.6</ele>
        <time>2026-01-25T09:37:40Z</time>
      </trkpt>
      <trkpt lat="48.5557" lon="-2.74872">
        <ele>82.6</ele>
        <time>2026-01-25T09:37:41Z</time>
      </trkpt>
      <trkpt lat="48.55568" lon="-2.74879">
        <ele>82.6</ele>
        <time>2026-01-25T09:37:42Z</time>
      </trkpt>
      <trkpt lat="48.55566" lon="-2.74886">
        <ele>83.2</ele>
        <time>2026-01-25T09:37:43Z</time>
      </trkpt>
      <trkpt lat="48.55563" lon="-2.74893">
        <ele>83.2</ele>
        <time>2026-01-25T09:37:44Z</time>
      </trkpt>
      <trkpt lat="48.55561" lon="-2.749">
        <ele>83.2</ele>
        <time>2026-01-25T09:37:45Z</time>
      </trkpt>
      <trkpt lat="48.55559" lon="-2.74908">
        <ele>83.2</ele>
        <time>2026-01-25T09:37:46Z</time>
      </trkpt>
      <trkpt lat="48.55557" lon="-2.74915">
        <ele>83</ele>
        <time>2026-01-25T09:37:47Z</time>
      </trkpt>
      <trkpt lat="48.55555" lon="-2.74923">
        <ele>83</ele>
        <time>2026-01-25T09:37:48Z</time>
      </trkpt>
      <trkpt lat="48.55552" lon="-2.7493">
        <ele>83</ele>
        <time>2026-01-25T09:37:49Z</time>
      </trkpt>
      <trkpt lat="48.5555" lon="-2.74937">
        <ele>83.6</ele>
        <time>2026-01-25T09:37:50Z</time>
      </trkpt>
      <trkpt lat="48.55547" lon="-2.74944">
        <ele>83.6</ele>
        <time>2026-01-25T09:37:51Z</time>
      </trkpt>
      <trkpt lat="48.55544" lon="-2.74952">
        <ele>83.6</ele>
        <time>2026-01-25T09:37:52Z</time>
      </trkpt>
      <trkpt lat="48.55541" lon="-2.74959">
        <ele>83.6</ele>
        <time>2026-01-25T09:37:53Z</time>
      </trkpt>
      <trkpt lat="48.55538" lon="-2.74966">
        <ele>83.6</ele>
        <time>2026-01-25T09:37:54Z</time>
      </trkpt>
      <trkpt lat="48.55536" lon="-2.74973">
        <ele>83.4</ele>
        <time>2026-01-25T09:37:55Z</time>
      </trkpt>
      <trkpt lat="48.55533" lon="-2.7498">
        <ele>83.4</ele>
        <time>2026-01-25T09:37:56Z</time>
      </trkpt>
      <trkpt lat="48.5553" lon="-2.74987">
        <ele>83.4</ele>
        <time>2026-01-25T09:37:57Z</time>
      </trkpt>
      <trkpt lat="48.55527" lon="-2.74994">
        <ele>83.4</ele>
        <time>2026-01-25T09:37:58Z</time>
      </trkpt>
      <trkpt lat="48.55524" lon="-2.75001">
        <ele>83.6</ele>
        <time>2026-01-25T09:37:59Z</time>
      </trkpt>
      <trkpt lat="48.5552" lon="-2.75008">
        <ele>83.6</ele>
        <time>2026-01-25T09:38:00Z</time>
      </trkpt>
      <trkpt lat="48.55517" lon="-2.75014">
        <ele>83.6</ele>
        <time>2026-01-25T09:38:01Z</time>
      </trkpt>
      <trkpt lat="48.55513" lon="-2.75021">
        <ele>83.4</ele>
        <time>2026-01-25T09:38:02Z</time>
      </trkpt>
      <trkpt lat="48.55509" lon="-2.75028">
        <ele>83</ele>
        <time>2026-01-25T09:38:03Z</time>
      </trkpt>
      <trkpt lat="48.55505" lon="-2.75034">
        <ele>83</ele>
        <time>2026-01-25T09:38:04Z</time>
      </trkpt>
      <trkpt lat="48.55501" lon="-2.75041">
        <ele>83</ele>
        <time>2026-01-25T09:38:05Z</time>
      </trkpt>
      <trkpt lat="48.55497" lon="-2.75048">
        <ele>83</ele>
        <time>2026-01-25T09:38:06Z</time>
      </trkpt>
      <trkpt lat="48.55492" lon="-2.75055">
        <ele>82.2</ele>
        <time>2026-01-25T09:38:07Z</time>
      </trkpt>
      <trkpt lat="48.55488" lon="-2.75062">
        <ele>82.2</ele>
        <time>2026-01-25T09:38:08Z</time>
      </trkpt>
      <trkpt lat="48.55484" lon="-2.75069">
        <ele>82.2</ele>
        <time>2026-01-25T09:38:09Z</time>
      </trkpt>
      <trkpt lat="48.5548" lon="-2.75076">
        <ele>82.6</ele>
        <time>2026-01-25T09:38:10Z</time>
      </trkpt>
      <trkpt lat="48.55476" lon="-2.75084">
        <ele>82.6</ele>
        <time>2026-01-25T09:38:11Z</time>
      </trkpt>
      <trkpt lat="48.55473" lon="-2.75092">
        <ele>82.6</ele>
        <time>2026-01-25T09:38:12Z</time>
      </trkpt>
      <trkpt lat="48.5547" lon="-2.751">
        <ele>82.6</ele>
        <time>2026-01-25T09:38:13Z</time>
      </trkpt>
      <trkpt lat="48.55467" lon="-2.75108">
        <ele>82.6</ele>
        <time>2026-01-25T09:38:14Z</time>
      </trkpt>
      <trkpt lat="48.55464" lon="-2.75116">
        <ele>83</ele>
        <time>2026-01-25T09:38:15Z</time>
      </trkpt>
      <trkpt lat="48.55461" lon="-2.75124">
        <ele>83</ele>
        <time>2026-01-25T09:38:16Z</time>
      </trkpt>
      <trkpt lat="48.55459" lon="-2.75132">
        <ele>83</ele>
        <time>2026-01-25T09:38:17Z</time>
      </trkpt>
      <trkpt lat="48.55456" lon="-2.7514">
        <ele>82.6</ele>
        <time>2026-01-25T09:38:18Z</time>
      </trkpt>
      <trkpt lat="48.55454" lon="-2.75149">
        <ele>82.6</ele>
        <time>2026-01-25T09:38:19Z</time>
      </trkpt>
      <trkpt lat="48.55452" lon="-2.75158">
        <ele>82.6</ele>
        <time>2026-01-25T09:38:20Z</time>
      </trkpt>
      <trkpt lat="48.5545" lon="-2.75166">
        <ele>82.6</ele>
        <time>2026-01-25T09:38:21Z</time>
      </trkpt>
      <trkpt lat="48.55448" lon="-2.75175">
        <ele>82.6</ele>
        <time>2026-01-25T09:38:22Z</time>
      </trkpt>
      <trkpt lat="48.55446" lon="-2.75184">
        <ele>82.4</ele>
        <time>2026-01-25T09:38:23Z</time>
      </trkpt>
      <trkpt lat="48.55445" lon="-2.75193">
        <ele>82.4</ele>
        <time>2026-01-25T09:38:24Z</time>
      </trkpt>
      <trkpt lat="48.55443" lon="-2.75202">
        <ele>82.4</ele>
        <time>2026-01-25T09:38:25Z</time>
      </trkpt>
      <trkpt lat="48.55441" lon="-2.75211">
        <ele>82.4</ele>
        <time>2026-01-25T09:38:26Z</time>
      </trkpt>
      <trkpt lat="48.55439" lon="-2.75219">
        <ele>83</ele>
        <time>2026-01-25T09:38:27Z</time>
      </trkpt>
      <trkpt lat="48.55437" lon="-2.75228">
        <ele>83</ele>
        <time>2026-01-25T09:38:28Z</time>
      </trkpt>
      <trkpt lat="48.55435" lon="-2.75237">
        <ele>83</ele>
        <time>2026-01-25T09:38:29Z</time>
      </trkpt>
      <trkpt lat="48.55432" lon="-2.75245">
        <ele>82.2</ele>
        <time>2026-01-25T09:38:30Z</time>
      </trkpt>
      <trkpt lat="48.55429" lon="-2.75253">
        <ele>82.6</ele>
        <time>2026-01-25T09:38:31Z</time>
      </trkpt>
      <trkpt lat="48.55425" lon="-2.75261">
        <ele>82.6</ele>
        <time>2026-01-25T09:38:32Z</time>
      </trkpt>
      <trkpt lat="48.55422" lon="-2.75269">
        <ele>82.6</ele>
        <time>2026-01-25T09:38:33Z</time>
      </trkpt>
      <trkpt lat="48.55419" lon="-2.75277">
        <ele>82.2</ele>
        <time>2026-01-25T09:38:34Z</time>
      </trkpt>
      <trkpt lat="48.55416" lon="-2.75285">
        <ele>81.8</ele>
        <time>2026-01-25T09:38:35Z</time>
      </trkpt>
      <trkpt lat="48.55413" lon="-2.75293">
        <ele>81.8</ele>
        <time>2026-01-25T09:38:36Z</time>
      </trkpt>
      <trkpt lat="48.5541" lon="-2.75301">
        <ele>81.8</ele>
        <time>2026-01-25T09:38:37Z</time>
      </trkpt>
      <trkpt lat="48.55406" lon="-2.75308">
        <ele>81.8</ele>
        <time>2026-01-25T09:38:38Z</time>
      </trkpt>
      <trkpt lat="48.55403" lon="-2.75316">
        <ele>82.2</ele>
        <time>2026-01-25T09:38:39Z</time>
      </trkpt>
      <trkpt lat="48.554" lon="-2.75324">
        <ele>82.2</ele>
        <time>2026-01-25T09:38:40Z</time>
      </trkpt>
      <trkpt lat="48.55397" lon="-2.75332">
        <ele>82.2</ele>
        <time>2026-01-25T09:38:41Z</time>
      </trkpt>
      <trkpt lat="48.55395" lon="-2.7534">
        <ele>82.2</ele>
        <time>2026-01-25T09:38:42Z</time>
      </trkpt>
      <trkpt lat="48.55392" lon="-2.75348">
        <ele>82.4</ele>
        <time>2026-01-25T09:38:43Z</time>
      </trkpt>
      <trkpt lat="48.5539" lon="-2.75356">
        <ele>82.4</ele>
        <time>2026-01-25T09:38:44Z</time>
      </trkpt>
      <trkpt lat="48.55388" lon="-2.75365">
        <ele>82.4</ele>
        <time>2026-01-25T09:38:45Z</time>
      </trkpt>
      <trkpt lat="48.55387" lon="-2.75374">
        <ele>82.4</ele>
        <time>2026-01-25T09:38:46Z</time>
      </trkpt>
      <trkpt lat="48.55385" lon="-2.75383">
        <ele>82.2</ele>
        <time>2026-01-25T09:38:47Z</time>
      </trkpt>
      <trkpt lat="48.55384" lon="-2.75392">
        <ele>82.2</ele>
        <time>2026-01-25T09:38:48Z</time>
      </trkpt>
      <trkpt lat="48.55383" lon="-2.75401">
        <ele>82.2</ele>
        <time>2026-01-25T09:38:49Z</time>
      </trkpt>
      <trkpt lat="48.55382" lon="-2.7541">
        <ele>82.2</ele>
        <time>2026-01-25T09:38:50Z</time>
      </trkpt>
      <trkpt lat="48.5538" lon="-2.75419">
        <ele>82</ele>
        <time>2026-01-25T09:38:51Z</time>
      </trkpt>
      <trkpt lat="48.55379" lon="-2.75429">
        <ele>82</ele>
        <time>2026-01-25T09:38:52Z</time>
      </trkpt>
      <trkpt lat="48.55377" lon="-2.75439">
        <ele>82</ele>
        <time>2026-01-25T09:38:53Z</time>
      </trkpt>
      <trkpt lat="48.55376" lon="-2.75449">
        <ele>81.4</ele>
        <time>2026-01-25T09:38:54Z</time>
      </trkpt>
      <trkpt lat="48.55375" lon="-2.75459">
        <ele>80.2</ele>
        <time>2026-01-25T09:38:55Z</time>
      </trkpt>
      <trkpt lat="48.55373" lon="-2.75469">
        <ele>80.2</ele>
        <time>2026-01-25T09:38:56Z</time>
      </trkpt>
      <trkpt lat="48.55372" lon="-2.75479">
        <ele>80.2</ele>
        <time>2026-01-25T09:38:57Z</time>
      </trkpt>
      <trkpt lat="48.55371" lon="-2.7549">
        <ele>80</ele>
        <time>2026-01-25T09:38:58Z</time>
      </trkpt>
      <trkpt lat="48.5537" lon="-2.75501">
        <ele>80</ele>
        <time>2026-01-25T09:38:59Z</time>
      </trkpt>
      <trkpt lat="48.55371" lon="-2.75511">
        <ele>80</ele>
        <time>2026-01-25T09:39:00Z</time>
      </trkpt>
      <trkpt lat="48.55372" lon="-2.75522">
        <ele>80</ele>
        <time>2026-01-25T09:39:01Z</time>
      </trkpt>
      <trkpt lat="48.55375" lon="-2.75532">
        <ele>80</ele>
        <time>2026-01-25T09:39:02Z</time>
      </trkpt>
      <trkpt lat="48.55378" lon="-2.75542">
        <ele>78.4</ele>
        <time>2026-01-25T09:39:03Z</time>
      </trkpt>
      <trkpt lat="48.55382" lon="-2.75552">
        <ele>78.4</ele>
        <time>2026-01-25T09:39:04Z</time>
      </trkpt>
      <trkpt lat="48.55387" lon="-2.75561">
        <ele>78.4</ele>
        <time>2026-01-25T09:39:05Z</time>
      </trkpt>
      <trkpt lat="48.55392" lon="-2.7557">
        <ele>78.4</ele>
        <time>2026-01-25T09:39:06Z</time>
      </trkpt>
      <trkpt lat="48.55397" lon="-2.75579">
        <ele>77.8</ele>
        <time>2026-01-25T09:39:07Z</time>
      </trkpt>
      <trkpt lat="48.55401" lon="-2.75589">
        <ele>77.8</ele>
        <time>2026-01-25T09:39:08Z</time>
      </trkpt>
      <trkpt lat="48.55406" lon="-2.756">
        <ele>77.8</ele>
        <time>2026-01-25T09:39:09Z</time>
      </trkpt>
      <trkpt lat="48.5541" lon="-2.7561">
        <ele>77.2</ele>
        <time>2026-01-25T09:39:10Z</time>
      </trkpt>
      <trkpt lat="48.55414" lon="-2.7562">
        <ele>77.2</ele>
        <time>2026-01-25T09:39:11Z</time>
      </trkpt>
      <trkpt lat="48.55417" lon="-2.7563">
        <ele>77.2</ele>
        <time>2026-01-25T09:39:12Z</time>
      </trkpt>
      <trkpt lat="48.55422" lon="-2.75639">
        <ele>77.2</ele>
        <time>2026-01-25T09:39:13Z</time>
      </trkpt>
      <trkpt lat="48.55427" lon="-2.75648">
        <ele>76.2</ele>
        <time>2026-01-25T09:39:14Z</time>
      </trkpt>
      <trkpt lat="48.55433" lon="-2.75655">
        <ele>76.6</ele>
        <time>2026-01-25T09:39:15Z</time>
      </trkpt>
      <trkpt lat="48.5544" lon="-2.7566">
        <ele>76.6</ele>
        <time>2026-01-25T09:39:16Z</time>
      </trkpt>
      <trkpt lat="48.55447" lon="-2.75661">
        <ele>76.6</ele>
        <time>2026-01-25T09:39:17Z</time>
      </trkpt>
      <trkpt lat="48.55453" lon="-2.75665">
        <ele>77.6</ele>
        <time>2026-01-25T09:39:18Z</time>
      </trkpt>
      <trkpt lat="48.55459" lon="-2.75669">
        <ele>79.6</ele>
        <time>2026-01-25T09:39:19Z</time>
      </trkpt>
      <trkpt lat="48.55463" lon="-2.75674">
        <ele>79.6</ele>
        <time>2026-01-25T09:39:20Z</time>
      </trkpt>
      <trkpt lat="48.55468" lon="-2.75678">
        <ele>79.6</ele>
        <time>2026-01-25T09:39:21Z</time>
      </trkpt>
      <trkpt lat="48.55472" lon="-2.75684">
        <ele>80.6</ele>
        <time>2026-01-25T09:39:22Z</time>
      </trkpt>
      <trkpt lat="48.55476" lon="-2.75691">
        <ele>80.6</ele>
        <time>2026-01-25T09:39:23Z</time>
      </trkpt>
      <trkpt lat="48.5548" lon="-2.75698">
        <ele>80.6</ele>
        <time>2026-01-25T09:39:24Z</time>
      </trkpt>
      <trkpt lat="48.55483" lon="-2.75705">
        <ele>80.6</ele>
        <time>2026-01-25T09:39:25Z</time>
      </trkpt>
      <trkpt lat="48.55486" lon="-2.75712">
        <ele>80.6</ele>
        <time>2026-01-25T09:39:26Z</time>
      </trkpt>
      <trkpt lat="48.55489" lon="-2.7572">
        <ele>80.8</ele>
        <time>2026-01-25T09:39:27Z</time>
      </trkpt>
      <trkpt lat="48.55491" lon="-2.75728">
        <ele>80.8</ele>
        <time>2026-01-25T09:39:28Z</time>
      </trkpt>
      <trkpt lat="48.55493" lon="-2.75737">
        <ele>80.8</ele>
        <time>2026-01-25T09:39:29Z</time>
      </trkpt>
      <trkpt lat="48.55495" lon="-2.75746">
        <ele>80.8</ele>
        <time>2026-01-25T09:39:30Z</time>
      </trkpt>
      <trkpt lat="48.55498" lon="-2.75755">
        <ele>80.8</ele>
        <time>2026-01-25T09:39:31Z</time>
      </trkpt>
      <trkpt lat="48.555" lon="-2.75764">
        <ele>80.8</ele>
        <time>2026-01-25T09:39:32Z</time>
      </trkpt>
      <trkpt lat="48.55502" lon="-2.75773">
        <ele>80.8</ele>
        <time>2026-01-25T09:39:33Z</time>
      </trkpt>
      <trkpt lat="48.55505" lon="-2.75782">
        <ele>80.8</ele>
        <time>2026-01-25T09:39:34Z</time>
      </trkpt>
      <trkpt lat="48.55507" lon="-2.75791">
        <ele>80.2</ele>
        <time>2026-01-25T09:39:35Z</time>
      </trkpt>
      <trkpt lat="48.55511" lon="-2.758">
        <ele>80.2</ele>
        <time>2026-01-25T09:39:36Z</time>
      </trkpt>
      <trkpt lat="48.55514" lon="-2.75808">
        <ele>80.2</ele>
        <time>2026-01-25T09:39:37Z</time>
      </trkpt>
      <trkpt lat="48.55518" lon="-2.75816">
        <ele>80.8</ele>
        <time>2026-01-25T09:39:38Z</time>
      </trkpt>
      <trkpt lat="48.55522" lon="-2.75824">
        <ele>80.8</ele>
        <time>2026-01-25T09:39:39Z</time>
      </trkpt>
      <trkpt lat="48.55526" lon="-2.75831">
        <ele>80.8</ele>
        <time>2026-01-25T09:39:40Z</time>
      </trkpt>
      <trkpt lat="48.5553" lon="-2.75839">
        <ele>80.8</ele>
        <time>2026-01-25T09:39:41Z</time>
      </trkpt>
      <trkpt lat="48.55534" lon="-2.75847">
        <ele>81.4</ele>
        <time>2026-01-25T09:39:42Z</time>
      </trkpt>
      <trkpt lat="48.55538" lon="-2.75854">
        <ele>82</ele>
        <time>2026-01-25T09:39:43Z</time>
      </trkpt>
      <trkpt lat="48.55541" lon="-2.75861">
        <ele>82</ele>
        <time>2026-01-25T09:39:44Z</time>
      </trkpt>
      <trkpt lat="48.55544" lon="-2.7587">
        <ele>82</ele>
        <time>2026-01-25T09:39:45Z</time>
      </trkpt>
      <trkpt lat="48.55546" lon="-2.75878">
        <ele>82</ele>
        <time>2026-01-25T09:39:46Z</time>
      </trkpt>
      <trkpt lat="48.55548" lon="-2.75886">
        <ele>82.2</ele>
        <time>2026-01-25T09:39:47Z</time>
      </trkpt>
      <trkpt lat="48.5555" lon="-2.75895">
        <ele>82.2</ele>
        <time>2026-01-25T09:39:48Z</time>
      </trkpt>
      <trkpt lat="48.55552" lon="-2.75904">
        <ele>82.2</ele>
        <time>2026-01-25T09:39:49Z</time>
      </trkpt>
      <trkpt lat="48.55554" lon="-2.75913">
        <ele>81.6</ele>
        <time>2026-01-25T09:39:50Z</time>
      </trkpt>
      <trkpt lat="48.55556" lon="-2.75922">
        <ele>82.6</ele>
        <time>2026-01-25T09:39:51Z</time>
      </trkpt>
      <trkpt lat="48.55559" lon="-2.75931">
        <ele>82.6</ele>
        <time>2026-01-25T09:39:52Z</time>
      </trkpt>
      <trkpt lat="48.55561" lon="-2.7594">
        <ele>82.6</ele>
        <time>2026-01-25T09:39:53Z</time>
      </trkpt>
      <trkpt lat="48.55564" lon="-2.75949">
        <ele>82.6</ele>
        <time>2026-01-25T09:39:54Z</time>
      </trkpt>
      <trkpt lat="48.55566" lon="-2.75957">
        <ele>82</ele>
        <time>2026-01-25T09:39:55Z</time>
      </trkpt>
      <trkpt lat="48.55569" lon="-2.75966">
        <ele>82</ele>
        <time>2026-01-25T09:39:56Z</time>
      </trkpt>
      <trkpt lat="48.55571" lon="-2.75975">
        <ele>82</ele>
        <time>2026-01-25T09:39:57Z</time>
      </trkpt>
      <trkpt lat="48.55573" lon="-2.75984">
        <ele>83</ele>
        <time>2026-01-25T09:39:58Z</time>
      </trkpt>
      <trkpt lat="48.55576" lon="-2.75992">
        <ele>82.8</ele>
        <time>2026-01-25T09:39:59Z</time>
      </trkpt>
      <trkpt lat="48.55579" lon="-2.76001">
        <ele>82.8</ele>
        <time>2026-01-25T09:40:00Z</time>
      </trkpt>
      <trkpt lat="48.55581" lon="-2.7601">
        <ele>82.8</ele>
        <time>2026-01-25T09:40:01Z</time>
      </trkpt>
      <trkpt lat="48.55584" lon="-2.76018">
        <ele>82.8</ele>
        <time>2026-01-25T09:40:02Z</time>
      </trkpt>
      <trkpt lat="48.55587" lon="-2.76026">
        <ele>83.2</ele>
        <time>2026-01-25T09:40:03Z</time>
      </trkpt>
      <trkpt lat="48.55591" lon="-2.76035">
        <ele>83.2</ele>
        <time>2026-01-25T09:40:04Z</time>
      </trkpt>
      <trkpt lat="48.55594" lon="-2.76043">
        <ele>83.2</ele>
        <time>2026-01-25T09:40:05Z</time>
      </trkpt>
      <trkpt lat="48.55598" lon="-2.76051">
        <ele>83.2</ele>
        <time>2026-01-25T09:40:06Z</time>
      </trkpt>
      <trkpt lat="48.55601" lon="-2.76059">
        <ele>82</ele>
        <time>2026-01-25T09:40:07Z</time>
      </trkpt>
      <trkpt lat="48.55605" lon="-2.76067">
        <ele>82</ele>
        <time>2026-01-25T09:40:08Z</time>
      </trkpt>
      <trkpt lat="48.55609" lon="-2.76075">
        <ele>82</ele>
        <time>2026-01-25T09:40:09Z</time>
      </trkpt>
      <trkpt lat="48.55613" lon="-2.76083">
        <ele>82.8</ele>
        <time>2026-01-25T09:40:10Z</time>
      </trkpt>
      <trkpt lat="48.55617" lon="-2.76091">
        <ele>83</ele>
        <time>2026-01-25T09:40:11Z</time>
      </trkpt>
      <trkpt lat="48.55621" lon="-2.76098">
        <ele>83</ele>
        <time>2026-01-25T09:40:12Z</time>
      </trkpt>
      <trkpt lat="48.55625" lon="-2.76106">
        <ele>83</ele>
        <time>2026-01-25T09:40:13Z</time>
      </trkpt>
      <trkpt lat="48.5563" lon="-2.76113">
        <ele>83</ele>
        <time>2026-01-25T09:40:14Z</time>
      </trkpt>
      <trkpt lat="48.55635" lon="-2.76121">
        <ele>82.2</ele>
        <time>2026-01-25T09:40:15Z</time>
      </trkpt>
      <trkpt lat="48.5564" lon="-2.76128">
        <ele>82.2</ele>
        <time>2026-01-25T09:40:16Z</time>
      </trkpt>
      <trkpt lat="48.55645" lon="-2.76135">
        <ele>82.2</ele>
        <time>2026-01-25T09:40:17Z</time>
      </trkpt>
      <trkpt lat="48.55651" lon="-2.76142">
        <ele>81.2</ele>
        <time>2026-01-25T09:40:18Z</time>
      </trkpt>
      <trkpt lat="48.55656" lon="-2.76149">
        <ele>80</ele>
        <time>2026-01-25T09:40:19Z</time>
      </trkpt>
      <trkpt lat="48.55662" lon="-2.76156">
        <ele>80</ele>
        <time>2026-01-25T09:40:20Z</time>
      </trkpt>
      <trkpt lat="48.55668" lon="-2.76163">
        <ele>80</ele>
        <time>2026-01-25T09:40:21Z</time>
      </trkpt>
      <trkpt lat="48.55673" lon="-2.7617">
        <ele>80</ele>
        <time>2026-01-25T09:40:22Z</time>
      </trkpt>
      <trkpt lat="48.55678" lon="-2.76179">
        <ele>79.8</ele>
        <time>2026-01-25T09:40:23Z</time>
      </trkpt>
      <trkpt lat="48.55681" lon="-2.76188">
        <ele>79.8</ele>
        <time>2026-01-25T09:40:24Z</time>
      </trkpt>
      <trkpt lat="48.55682" lon="-2.76199">
        <ele>79.8</ele>
        <time>2026-01-25T09:40:25Z</time>
      </trkpt>
      <trkpt lat="48.55682" lon="-2.7621">
        <ele>79.6</ele>
        <time>2026-01-25T09:40:26Z</time>
      </trkpt>
      <trkpt lat="48.55681" lon="-2.76221">
        <ele>79.2</ele>
        <time>2026-01-25T09:40:27Z</time>
      </trkpt>
      <trkpt lat="48.55678" lon="-2.76232">
        <ele>79.2</ele>
        <time>2026-01-25T09:40:28Z</time>
      </trkpt>
      <trkpt lat="48.55676" lon="-2.76242">
        <ele>79.2</ele>
        <time>2026-01-25T09:40:29Z</time>
      </trkpt>
      <trkpt lat="48.55673" lon="-2.76251">
        <ele>79.2</ele>
        <time>2026-01-25T09:40:30Z</time>
      </trkpt>
      <trkpt lat="48.5567" lon="-2.7626">
        <ele>80.2</ele>
        <time>2026-01-25T09:40:31Z</time>
      </trkpt>
      <trkpt lat="48.55667" lon="-2.76268">
        <ele>80.2</ele>
        <time>2026-01-25T09:40:32Z</time>
      </trkpt>
      <trkpt lat="48.55665" lon="-2.76275">
        <ele>80.2</ele>
        <time>2026-01-25T09:40:33Z</time>
      </trkpt>
      <trkpt lat="48.55662" lon="-2.76282">
        <ele>81.2</ele>
        <time>2026-01-25T09:40:34Z</time>
      </trkpt>
      <trkpt lat="48.5566" lon="-2.76289">
        <ele>81.4</ele>
        <time>2026-01-25T09:40:35Z</time>
      </trkpt>
      <trkpt lat="48.55658" lon="-2.76295">
        <ele>81.4</ele>
        <time>2026-01-25T09:40:36Z</time>
      </trkpt>
      <trkpt lat="48.55656" lon="-2.76302">
        <ele>81.4</ele>
        <time>2026-01-25T09:40:37Z</time>
      </trkpt>
      <trkpt lat="48.55654" lon="-2.76309">
        <ele>81.4</ele>
        <time>2026-01-25T09:40:38Z</time>
      </trkpt>
      <trkpt lat="48.55652" lon="-2.76317">
        <ele>81.2</ele>
        <time>2026-01-25T09:40:39Z</time>
      </trkpt>
      <trkpt lat="48.5565" lon="-2.76324">
        <ele>81.2</ele>
        <time>2026-01-25T09:40:40Z</time>
      </trkpt>
      <trkpt lat="48.55648" lon="-2.76332">
        <ele>81.2</ele>
        <time>2026-01-25T09:40:41Z</time>
      </trkpt>
      <trkpt lat="48.55645" lon="-2.76339">
        <ele>80.8</ele>
        <time>2026-01-25T09:40:42Z</time>
      </trkpt>
      <trkpt lat="48.55643" lon="-2.76347">
        <ele>80.8</ele>
        <time>2026-01-25T09:40:43Z</time>
      </trkpt>
      <trkpt lat="48.5564" lon="-2.76354">
        <ele>80.8</ele>
        <time>2026-01-25T09:40:44Z</time>
      </trkpt>
      <trkpt lat="48.55637" lon="-2.76362">
        <ele>80.8</ele>
        <time>2026-01-25T09:40:45Z</time>
      </trkpt>
      <trkpt lat="48.55634" lon="-2.7637">
        <ele>80.8</ele>
        <time>2026-01-25T09:40:46Z</time>
      </trkpt>
      <trkpt lat="48.55631" lon="-2.76378">
        <ele>80.8</ele>
        <time>2026-01-25T09:40:47Z</time>
      </trkpt>
      <trkpt lat="48.55628" lon="-2.76386">
        <ele>80.8</ele>
        <time>2026-01-25T09:40:48Z</time>
      </trkpt>
      <trkpt lat="48.55624" lon="-2.76394">
        <ele>80.8</ele>
        <time>2026-01-25T09:40:49Z</time>
      </trkpt>
      <trkpt lat="48.55621" lon="-2.76403">
        <ele>80.8</ele>
        <time>2026-01-25T09:40:50Z</time>
      </trkpt>
      <trkpt lat="48.55618" lon="-2.76411">
        <ele>80.6</ele>
        <time>2026-01-25T09:40:51Z</time>
      </trkpt>
      <trkpt lat="48.55615" lon="-2.7642">
        <ele>80.6</ele>
        <time>2026-01-25T09:40:52Z</time>
      </trkpt>
      <trkpt lat="48.55613" lon="-2.7643">
        <ele>80.6</ele>
        <time>2026-01-25T09:40:53Z</time>
      </trkpt>
      <trkpt lat="48.55613" lon="-2.76439">
        <ele>80.6</ele>
        <time>2026-01-25T09:40:54Z</time>
      </trkpt>
      <trkpt lat="48.55614" lon="-2.76448">
        <ele>80.8</ele>
        <time>2026-01-25T09:40:55Z</time>
      </trkpt>
      <trkpt lat="48.55617" lon="-2.76456">
        <ele>80.8</ele>
        <time>2026-01-25T09:40:56Z</time>
      </trkpt>
      <trkpt lat="48.55619" lon="-2.76461">
        <ele>80.8</ele>
        <time>2026-01-25T09:40:57Z</time>
      </trkpt>
      <trkpt lat="48.55621" lon="-2.76464">
        <ele>81.8</ele>
        <time>2026-01-25T09:40:58Z</time>
      </trkpt>
      <trkpt lat="48.55624" lon="-2.76467">
        <ele>83.4</ele>
        <time>2026-01-25T09:40:59Z</time>
      </trkpt>
      <trkpt lat="48.55626" lon="-2.76468">
        <ele>83.4</ele>
        <time>2026-01-25T09:41:00Z</time>
      </trkpt>
      <trkpt lat="48.55628" lon="-2.76466">
        <ele>83.4</ele>
        <time>2026-01-25T09:41:01Z</time>
      </trkpt>
      <trkpt lat="48.55631" lon="-2.76464">
        <ele>83.4</ele>
        <time>2026-01-25T09:41:02Z</time>
      </trkpt>
      <trkpt lat="48.55634" lon="-2.7646">
        <ele>81.8</ele>
        <time>2026-01-25T09:41:03Z</time>
      </trkpt>
      <trkpt lat="48.55637" lon="-2.76454">
        <ele>81.8</ele>
        <time>2026-01-25T09:41:04Z</time>
      </trkpt>
      <trkpt lat="48.55642" lon="-2.76446">
        <ele>81.8</ele>
        <time>2026-01-25T09:41:05Z</time>
      </trkpt>
      <trkpt lat="48.55647" lon="-2.76437">
        <ele>80.8</ele>
        <time>2026-01-25T09:41:06Z</time>
      </trkpt>
      <trkpt lat="48.55652" lon="-2.76427">
        <ele>76.8</ele>
        <time>2026-01-25T09:41:07Z</time>
      </trkpt>
      <trkpt lat="48.55658" lon="-2.76416">
        <ele>76.8</ele>
        <time>2026-01-25T09:41:08Z</time>
      </trkpt>
      <trkpt lat="48.55664" lon="-2.76405">
        <ele>76.8</ele>
        <time>2026-01-25T09:41:09Z</time>
      </trkpt>
      <trkpt lat="48.5567" lon="-2.76394">
        <ele>75.8</ele>
        <time>2026-01-25T09:41:10Z</time>
      </trkpt>
      <trkpt lat="48.55677" lon="-2.76381">
        <ele>71</ele>
        <time>2026-01-25T09:41:11Z</time>
      </trkpt>
      <trkpt lat="48.55685" lon="-2.76369">
        <ele>71</ele>
        <time>2026-01-25T09:41:12Z</time>
      </trkpt>
      <trkpt lat="48.55693" lon="-2.76356">
        <ele>71</ele>
        <time>2026-01-25T09:41:13Z</time>
      </trkpt>
      <trkpt lat="48.55702" lon="-2.76344">
        <ele>70</ele>
        <time>2026-01-25T09:41:14Z</time>
      </trkpt>
      <trkpt lat="48.55711" lon="-2.76331">
        <ele>67.4</ele>
        <time>2026-01-25T09:41:15Z</time>
      </trkpt>
      <trkpt lat="48.55718" lon="-2.76319">
        <ele>67.4</ele>
        <time>2026-01-25T09:41:16Z</time>
      </trkpt>
      <trkpt lat="48.55724" lon="-2.76307">
        <ele>67.4</ele>
        <time>2026-01-25T09:41:17Z</time>
      </trkpt>
      <trkpt lat="48.55731" lon="-2.76296">
        <ele>66.4</ele>
        <time>2026-01-25T09:41:18Z</time>
      </trkpt>
      <trkpt lat="48.55738" lon="-2.76284">
        <ele>66.4</ele>
        <time>2026-01-25T09:41:19Z</time>
      </trkpt>
      <trkpt lat="48.55745" lon="-2.76272">
        <ele>66.4</ele>
        <time>2026-01-25T09:41:20Z</time>
      </trkpt>
      <trkpt lat="48.55749" lon="-2.76263">
        <ele>66.4</ele>
        <time>2026-01-25T09:41:21Z</time>
      </trkpt>
      <trkpt lat="48.55751" lon="-2.76257">
        <ele>67.4</ele>
        <time>2026-01-25T09:41:22Z</time>
      </trkpt>
      <trkpt lat="48.55754" lon="-2.76251">
        <ele>67.6</ele>
        <time>2026-01-25T09:41:23Z</time>
      </trkpt>
      <trkpt lat="48.55756" lon="-2.76245">
        <ele>67.6</ele>
        <time>2026-01-25T09:41:24Z</time>
      </trkpt>
      <trkpt lat="48.55759" lon="-2.76238">
        <ele>67.6</ele>
        <time>2026-01-25T09:41:25Z</time>
      </trkpt>
      <trkpt lat="48.55763" lon="-2.7623">
        <ele>66.6</ele>
        <time>2026-01-25T09:41:26Z</time>
      </trkpt>
      <trkpt lat="48.55766" lon="-2.76222">
        <ele>65.2</ele>
        <time>2026-01-25T09:41:27Z</time>
      </trkpt>
      <trkpt lat="48.5577" lon="-2.76212">
        <ele>65.2</ele>
        <time>2026-01-25T09:41:28Z</time>
      </trkpt>
      <trkpt lat="48.55773" lon="-2.76202">
        <ele>65.2</ele>
        <time>2026-01-25T09:41:29Z</time>
      </trkpt>
      <trkpt lat="48.55777" lon="-2.76191">
        <ele>64.2</ele>
        <time>2026-01-25T09:41:30Z</time>
      </trkpt>
      <trkpt lat="48.5578" lon="-2.7618">
        <ele>61</ele>
        <time>2026-01-25T09:41:31Z</time>
      </trkpt>
      <trkpt lat="48.55784" lon="-2.76168">
        <ele>61</ele>
        <time>2026-01-25T09:41:32Z</time>
      </trkpt>
      <trkpt lat="48.55787" lon="-2.76156">
        <ele>61</ele>
        <time>2026-01-25T09:41:33Z</time>
      </trkpt>
      <trkpt lat="48.5579" lon="-2.76143">
        <ele>60</ele>
        <time>2026-01-25T09:41:34Z</time>
      </trkpt>
      <trkpt lat="48.55793" lon="-2.76131">
        <ele>57</ele>
        <time>2026-01-25T09:41:35Z</time>
      </trkpt>
      <trkpt lat="48.55797" lon="-2.76117">
        <ele>57</ele>
        <time>2026-01-25T09:41:36Z</time>
      </trkpt>
      <trkpt lat="48.558" lon="-2.76104">
        <ele>57</ele>
        <time>2026-01-25T09:41:37Z</time>
      </trkpt>
      <trkpt lat="48.55804" lon="-2.76089">
        <ele>56</ele>
        <time>2026-01-25T09:41:38Z</time>
      </trkpt>
      <trkpt lat="48.55808" lon="-2.76075">
        <ele>54</ele>
        <time>2026-01-25T09:41:39Z</time>
      </trkpt>
      <trkpt lat="48.55813" lon="-2.76061">
        <ele>54</ele>
        <time>2026-01-25T09:41:40Z</time>
      </trkpt>
      <trkpt lat="48.55818" lon="-2.76048">
        <ele>54</ele>
        <time>2026-01-25T09:41:41Z</time>
      </trkpt>
      <trkpt lat="48.55823" lon="-2.76034">
        <ele>53</ele>
        <time>2026-01-25T09:41:42Z</time>
      </trkpt>
      <trkpt lat="48.5583" lon="-2.7602">
        <ele>49.6</ele>
        <time>2026-01-25T09:41:43Z</time>
      </trkpt>
      <trkpt lat="48.55836" lon="-2.76006">
        <ele>49.6</ele>
        <time>2026-01-25T09:41:44Z</time>
      </trkpt>
      <trkpt lat="48.55843" lon="-2.75991">
        <ele>49.6</ele>
        <time>2026-01-25T09:41:45Z</time>
      </trkpt>
      <trkpt lat="48.55849" lon="-2.75976">
        <ele>48.6</ele>
        <time>2026-01-25T09:41:46Z</time>
      </trkpt>
      <trkpt lat="48.55856" lon="-2.75961">
        <ele>43.6</ele>
        <time>2026-01-25T09:41:47Z</time>
      </trkpt>
      <trkpt lat="48.55863" lon="-2.75945">
        <ele>43.6</ele>
        <time>2026-01-25T09:41:48Z</time>
      </trkpt>
      <trkpt lat="48.5587" lon="-2.7593">
        <ele>43.6</ele>
        <time>2026-01-25T09:41:49Z</time>
      </trkpt>
      <trkpt lat="48.55878" lon="-2.75915">
        <ele>42.6</ele>
        <time>2026-01-25T09:41:50Z</time>
      </trkpt>
      <trkpt lat="48.55886" lon="-2.75901">
        <ele>40.2</ele>
        <time>2026-01-25T09:41:51Z</time>
      </trkpt>
      <trkpt lat="48.55895" lon="-2.75888">
        <ele>40.2</ele>
        <time>2026-01-25T09:41:52Z</time>
      </trkpt>
      <trkpt lat="48.55904" lon="-2.75875">
        <ele>40.2</ele>
        <time>2026-01-25T09:41:53Z</time>
      </trkpt>
      <trkpt lat="48.55914" lon="-2.75864">
        <ele>39.2</ele>
        <time>2026-01-25T09:41:54Z</time>
      </trkpt>
      <trkpt lat="48.55925" lon="-2.75853">
        <ele>35.6</ele>
        <time>2026-01-25T09:41:55Z</time>
      </trkpt>
      <trkpt lat="48.55935" lon="-2.75842">
        <ele>35.6</ele>
        <time>2026-01-25T09:41:56Z</time>
      </trkpt>
      <trkpt lat="48.55944" lon="-2.75832">
        <ele>35.6</ele>
        <time>2026-01-25T09:41:57Z</time>
      </trkpt>
      <trkpt lat="48.55955" lon="-2.7582">
        <ele>34.6</ele>
        <time>2026-01-25T09:41:58Z</time>
      </trkpt>
      <trkpt lat="48.55966" lon="-2.75809">
        <ele>30.2</ele>
        <time>2026-01-25T09:41:59Z</time>
      </trkpt>
      <trkpt lat="48.55976" lon="-2.75799">
        <ele>30.2</ele>
        <time>2026-01-25T09:42:00Z</time>
      </trkpt>
      <trkpt lat="48.55986" lon="-2.75789">
        <ele>30.2</ele>
        <time>2026-01-25T09:42:01Z</time>
      </trkpt>
      <trkpt lat="48.55996" lon="-2.75779">
        <ele>29.2</ele>
        <time>2026-01-25T09:42:02Z</time>
      </trkpt>
      <trkpt lat="48.56006" lon="-2.75769">
        <ele>29.2</ele>
        <time>2026-01-25T09:42:03Z</time>
      </trkpt>
      <trkpt lat="48.56015" lon="-2.75759">
        <ele>26.6</ele>
        <time>2026-01-25T09:42:04Z</time>
      </trkpt>
      <trkpt lat="48.56023" lon="-2.7575">
        <ele>26.6</ele>
        <time>2026-01-25T09:42:05Z</time>
      </trkpt>
      <trkpt lat="48.5603" lon="-2.75742">
        <ele>27.4</ele>
        <time>2026-01-25T09:42:06Z</time>
      </trkpt>
      <trkpt lat="48.56034" lon="-2.75735">
        <ele>26.6</ele>
        <time>2026-01-25T09:42:07Z</time>
      </trkpt>
      <trkpt lat="48.5604" lon="-2.75728">
        <ele>26.6</ele>
        <time>2026-01-25T09:42:08Z</time>
      </trkpt>
      <trkpt lat="48.56048" lon="-2.75722">
        <ele>26.6</ele>
        <time>2026-01-25T09:42:09Z</time>
      </trkpt>
      <trkpt lat="48.56054" lon="-2.75715">
        <ele>25.6</ele>
        <time>2026-01-25T09:42:10Z</time>
      </trkpt>
      <trkpt lat="48.56061" lon="-2.75707">
        <ele>23.6</ele>
        <time>2026-01-25T09:42:11Z</time>
      </trkpt>
      <trkpt lat="48.56068" lon="-2.75701">
        <ele>23.6</ele>
        <time>2026-01-25T09:42:12Z</time>
      </trkpt>
      <trkpt lat="48.56074" lon="-2.75695">
        <ele>23.6</ele>
        <time>2026-01-25T09:42:13Z</time>
      </trkpt>
      <trkpt lat="48.56082" lon="-2.75688">
        <ele>22.6</ele>
        <time>2026-01-25T09:42:14Z</time>
      </trkpt>
      <trkpt lat="48.5609" lon="-2.75681">
        <ele>20.4</ele>
        <time>2026-01-25T09:42:15Z</time>
      </trkpt>
      <trkpt lat="48.56099" lon="-2.75674">
        <ele>20.4</ele>
        <time>2026-01-25T09:42:16Z</time>
      </trkpt>
      <trkpt lat="48.56109" lon="-2.75667">
        <ele>20.4</ele>
        <time>2026-01-25T09:42:17Z</time>
      </trkpt>
      <trkpt lat="48.56119" lon="-2.75661">
        <ele>19.4</ele>
        <time>2026-01-25T09:42:18Z</time>
      </trkpt>
      <trkpt lat="48.5613" lon="-2.75657">
        <ele>16.8</ele>
        <time>2026-01-25T09:42:19Z</time>
      </trkpt>
      <trkpt lat="48.56142" lon="-2.75652">
        <ele>16.8</ele>
        <time>2026-01-25T09:42:20Z</time>
      </trkpt>
      <trkpt lat="48.56153" lon="-2.75648">
        <ele>16.8</ele>
        <time>2026-01-25T09:42:21Z</time>
      </trkpt>
      <trkpt lat="48.56163" lon="-2.75645">
        <ele>15.8</ele>
        <time>2026-01-25T09:42:22Z</time>
      </trkpt>
      <trkpt lat="48.56173" lon="-2.75641">
        <ele>12.6</ele>
        <time>2026-01-25T09:42:23Z</time>
      </trkpt>
      <trkpt lat="48.56183" lon="-2.75637">
        <ele>12.6</ele>
        <time>2026-01-25T09:42:24Z</time>
      </trkpt>
      <trkpt lat="48.56193" lon="-2.75634">
        <ele>12.6</ele>
        <time>2026-01-25T09:42:25Z</time>
      </trkpt>
      <trkpt lat="48.56202" lon="-2.75631">
        <ele>12.6</ele>
        <time>2026-01-25T09:42:26Z</time>
      </trkpt>
      <trkpt lat="48.56211" lon="-2.75628">
        <ele>9.4</ele>
        <time>2026-01-25T09:42:27Z</time>
      </trkpt>
      <trkpt lat="48.5622" lon="-2.75625">
        <ele>9.4</ele>
        <time>2026-01-25T09:42:28Z</time>
      </trkpt>
      <trkpt lat="48.56229" lon="-2.75622">
        <ele>9.4</ele>
        <time>2026-01-25T09:42:29Z</time>
      </trkpt>
      <trkpt lat="48.56238" lon="-2.75619">
        <ele>8.8</ele>
        <time>2026-01-25T09:42:30Z</time>
      </trkpt>
      <trkpt lat="48.56247" lon="-2.75617">
        <ele>9.4</ele>
        <time>2026-01-25T09:42:31Z</time>
      </trkpt>
      <trkpt lat="48.56254" lon="-2.75615">
        <ele>9.4</ele>
        <time>2026-01-25T09:42:32Z</time>
      </trkpt>
      <trkpt lat="48.5626" lon="-2.75614">
        <ele>9.4</ele>
        <time>2026-01-25T09:42:33Z</time>
      </trkpt>
      <trkpt lat="48.56266" lon="-2.75613">
        <ele>9.4</ele>
        <time>2026-01-25T09:42:34Z</time>
      </trkpt>
      <trkpt lat="48.56272" lon="-2.75611">
        <ele>8.2</ele>
        <time>2026-01-25T09:42:35Z</time>
      </trkpt>
      <trkpt lat="48.56279" lon="-2.7561">
        <ele>8.2</ele>
        <time>2026-01-25T09:42:36Z</time>
      </trkpt>
      <trkpt lat="48.56286" lon="-2.75609">
        <ele>8.2</ele>
        <time>2026-01-25T09:42:37Z</time>
      </trkpt>
      <trkpt lat="48.56294" lon="-2.75607">
        <ele>8.2</ele>
        <time>2026-01-25T09:42:38Z</time>
      </trkpt>
      <trkpt lat="48.56301" lon="-2.75605">
        <ele>5.6</ele>
        <time>2026-01-25T09:42:39Z</time>
      </trkpt>
      <trkpt lat="48.56309" lon="-2.75604">
        <ele>5.6</ele>
        <time>2026-01-25T09:42:40Z</time>
      </trkpt>
      <trkpt lat="48.56314" lon="-2.75603">
        <ele>5.6</ele>
        <time>2026-01-25T09:42:41Z</time>
      </trkpt>
      <trkpt lat="48.56318" lon="-2.75602">
        <ele>6.6</ele>
        <time>2026-01-25T09:42:42Z</time>
      </trkpt>
      <trkpt lat="48.56321" lon="-2.75601">
        <ele>7.4</ele>
        <time>2026-01-25T09:42:43Z</time>
      </trkpt>
      <trkpt lat="48.56323" lon="-2.756">
        <ele>7.4</ele>
        <time>2026-01-25T09:42:44Z</time>
      </trkpt>
      <trkpt lat="48.56326" lon="-2.75599">
        <ele>7.4</ele>
        <time>2026-01-25T09:42:45Z</time>
      </trkpt>
      <trkpt lat="48.56329" lon="-2.75597">
        <ele>7.4</ele>
        <time>2026-01-25T09:42:46Z</time>
      </trkpt>
      <trkpt lat="48.56332" lon="-2.75596">
        <ele>6.6</ele>
        <time>2026-01-25T09:42:47Z</time>
      </trkpt>
      <trkpt lat="48.56335" lon="-2.75594">
        <ele>6.6</ele>
        <time>2026-01-25T09:42:48Z</time>
      </trkpt>
      <trkpt lat="48.56339" lon="-2.75593">
        <ele>6.6</ele>
        <time>2026-01-25T09:42:49Z</time>
      </trkpt>
      <trkpt lat="48.56343" lon="-2.75591">
        <ele>7</ele>
        <time>2026-01-25T09:42:50Z</time>
      </trkpt>
      <trkpt lat="48.56346" lon="-2.75589">
        <ele>7.2</ele>
        <time>2026-01-25T09:42:51Z</time>
      </trkpt>
      <trkpt lat="48.56349" lon="-2.75587">
        <ele>7.2</ele>
        <time>2026-01-25T09:42:52Z</time>
      </trkpt>
      <trkpt lat="48.56353" lon="-2.75585">
        <ele>7.2</ele>
        <time>2026-01-25T09:42:53Z</time>
      </trkpt>
      <trkpt lat="48.56356" lon="-2.75583">
        <ele>6.2</ele>
        <time>2026-01-25T09:42:54Z</time>
      </trkpt>
      <trkpt lat="48.5636" lon="-2.7558">
        <ele>5.6</ele>
        <time>2026-01-25T09:42:55Z</time>
      </trkpt>
      <trkpt lat="48.56364" lon="-2.75577">
        <ele>5.6</ele>
        <time>2026-01-25T09:42:56Z</time>
      </trkpt>
      <trkpt lat="48.56368" lon="-2.75574">
        <ele>5.6</ele>
        <time>2026-01-25T09:42:57Z</time>
      </trkpt>
      <trkpt lat="48.56371" lon="-2.75572">
        <ele>5.4</ele>
        <time>2026-01-25T09:42:58Z</time>
      </trkpt>
      <trkpt lat="48.56375" lon="-2.75572">
        <ele>5</ele>
        <time>2026-01-25T09:42:59Z</time>
      </trkpt>
      <trkpt lat="48.56378" lon="-2.75573">
        <ele>5</ele>
        <time>2026-01-25T09:43:00Z</time>
      </trkpt>
      <trkpt lat="48.56381" lon="-2.75574">
        <ele>5</ele>
        <time>2026-01-25T09:43:01Z</time>
      </trkpt>
      <trkpt lat="48.56384" lon="-2.75576">
        <ele>5</ele>
        <time>2026-01-25T09:43:02Z</time>
      </trkpt>
      <trkpt lat="48.56387" lon="-2.7558">
        <ele>5</ele>
        <time>2026-01-25T09:43:03Z</time>
      </trkpt>
      <trkpt lat="48.56387" lon="-2.75584">
        <ele>5</ele>
        <time>2026-01-25T09:43:04Z</time>
      </trkpt>
      <trkpt lat="48.56387" lon="-2.75588">
        <ele>5</ele>
        <time>2026-01-25T09:43:05Z</time>
      </trkpt>
      <trkpt lat="48.56388" lon="-2.75593">
        <ele>4.8</ele>
        <time>2026-01-25T09:43:06Z</time>
      </trkpt>
      <trkpt lat="48.56388" lon="-2.75598">
        <ele>5.4</ele>
        <time>2026-01-25T09:43:07Z</time>
      </trkpt>
      <trkpt lat="48.56389" lon="-2.75603">
        <ele>5.4</ele>
        <time>2026-01-25T09:43:08Z</time>
      </trkpt>
      <trkpt lat="48.56389" lon="-2.75609">
        <ele>5.4</ele>
        <time>2026-01-25T09:43:09Z</time>
      </trkpt>
      <trkpt lat="48.5639" lon="-2.75614">
        <ele>4.8</ele>
        <time>2026-01-25T09:43:10Z</time>
      </trkpt>
      <trkpt lat="48.5639" lon="-2.75619">
        <ele>4.8</ele>
        <time>2026-01-25T09:43:11Z</time>
      </trkpt>
      <trkpt lat="48.56392" lon="-2.75625">
        <ele>4.8</ele>
        <time>2026-01-25T09:43:12Z</time>
      </trkpt>
      <trkpt lat="48.56393" lon="-2.7563">
        <ele>4.8</ele>
        <time>2026-01-25T09:43:13Z</time>
      </trkpt>
      <trkpt lat="48.56395" lon="-2.75636">
        <ele>4.8</ele>
        <time>2026-01-25T09:43:14Z</time>
      </trkpt>
      <trkpt lat="48.56397" lon="-2.75642">
        <ele>3.8</ele>
        <time>2026-01-25T09:43:15Z</time>
      </trkpt>
      <trkpt lat="48.56399" lon="-2.75648">
        <ele>3.8</ele>
        <time>2026-01-25T09:43:16Z</time>
      </trkpt>
      <trkpt lat="48.56401" lon="-2.75654">
        <ele>3.8</ele>
        <time>2026-01-25T09:43:17Z</time>
      </trkpt>
      <trkpt lat="48.56402" lon="-2.7566">
        <ele>3.4</ele>
        <time>2026-01-25T09:43:18Z</time>
      </trkpt>
      <trkpt lat="48.56404" lon="-2.75666">
        <ele>3.4</ele>
        <time>2026-01-25T09:43:19Z</time>
      </trkpt>
      <trkpt lat="48.56406" lon="-2.75673">
        <ele>3.4</ele>
        <time>2026-01-25T09:43:20Z</time>
      </trkpt>
      <trkpt lat="48.56407" lon="-2.75679">
        <ele>3.4</ele>
        <time>2026-01-25T09:43:21Z</time>
      </trkpt>
      <trkpt lat="48.56409" lon="-2.75686">
        <ele>3.4</ele>
        <time>2026-01-25T09:43:22Z</time>
      </trkpt>
      <trkpt lat="48.56411" lon="-2.75693">
        <ele>3.4</ele>
        <time>2026-01-25T09:43:23Z</time>
      </trkpt>
      <trkpt lat="48.56413" lon="-2.757">
        <ele>3.4</ele>
        <time>2026-01-25T09:43:24Z</time>
      </trkpt>
      <trkpt lat="48.56415" lon="-2.75707">
        <ele>3.4</ele>
        <time>2026-01-25T09:43:25Z</time>
      </trkpt>
      <trkpt lat="48.56416" lon="-2.75714">
        <ele>3.4</ele>
        <time>2026-01-25T09:43:26Z</time>
      </trkpt>
      <trkpt lat="48.56418" lon="-2.75721">
        <ele>3.2</ele>
        <time>2026-01-25T09:43:27Z</time>
      </trkpt>
      <trkpt lat="48.56421" lon="-2.75728">
        <ele>3.2</ele>
        <time>2026-01-25T09:43:28Z</time>
      </trkpt>
      <trkpt lat="48.56423" lon="-2.75735">
        <ele>3.2</ele>
        <time>2026-01-25T09:43:29Z</time>
      </trkpt>
      <trkpt lat="48.56425" lon="-2.75743">
        <ele>4.2</ele>
        <time>2026-01-25T09:43:30Z</time>
      </trkpt>
      <trkpt lat="48.56427" lon="-2.7575">
        <ele>4</ele>
        <time>2026-01-25T09:43:31Z</time>
      </trkpt>
      <trkpt lat="48.56429" lon="-2.75757">
        <ele>4</ele>
        <time>2026-01-25T09:43:32Z</time>
      </trkpt>
      <trkpt lat="48.56432" lon="-2.75765">
        <ele>4</ele>
        <time>2026-01-25T09:43:33Z</time>
      </trkpt>
      <trkpt lat="48.56434" lon="-2.75773">
        <ele>3.6</ele>
        <time>2026-01-25T09:43:34Z</time>
      </trkpt>
      <trkpt lat="48.56437" lon="-2.75781">
        <ele>3</ele>
        <time>2026-01-25T09:43:35Z</time>
      </trkpt>
      <trkpt lat="48.56439" lon="-2.75789">
        <ele>3</ele>
        <time>2026-01-25T09:43:36Z</time>
      </trkpt>
      <trkpt lat="48.56441" lon="-2.75797">
        <ele>3</ele>
        <time>2026-01-25T09:43:37Z</time>
      </trkpt>
      <trkpt lat="48.56444" lon="-2.75805">
        <ele>3</ele>
        <time>2026-01-25T09:43:38Z</time>
      </trkpt>
      <trkpt lat="48.56446" lon="-2.75813">
        <ele>3</ele>
        <time>2026-01-25T09:43:39Z</time>
      </trkpt>
      <trkpt lat="48.56448" lon="-2.75821">
        <ele>3</ele>
        <time>2026-01-25T09:43:40Z</time>
      </trkpt>
      <trkpt lat="48.5645" lon="-2.75829">
        <ele>3</ele>
        <time>2026-01-25T09:43:41Z</time>
      </trkpt>
      <trkpt lat="48.56453" lon="-2.75837">
        <ele>2.8</ele>
        <time>2026-01-25T09:43:42Z</time>
      </trkpt>
      <trkpt lat="48.56455" lon="-2.75845">
        <ele>2.8</ele>
        <time>2026-01-25T09:43:43Z</time>
      </trkpt>
      <trkpt lat="48.56457" lon="-2.75853">
        <ele>2.8</ele>
        <time>2026-01-25T09:43:44Z</time>
      </trkpt>
      <trkpt lat="48.5646" lon="-2.75861">
        <ele>2.8</ele>
        <time>2026-01-25T09:43:45Z</time>
      </trkpt>
      <trkpt lat="48.56462" lon="-2.75868">
        <ele>2.8</ele>
        <time>2026-01-25T09:43:46Z</time>
      </trkpt>
      <trkpt lat="48.56465" lon="-2.75876">
        <ele>3.2</ele>
        <time>2026-01-25T09:43:47Z</time>
      </trkpt>
      <trkpt lat="48.56467" lon="-2.75883">
        <ele>3.2</ele>
        <time>2026-01-25T09:43:48Z</time>
      </trkpt>
      <trkpt lat="48.56469" lon="-2.75891">
        <ele>3.2</ele>
        <time>2026-01-25T09:43:49Z</time>
      </trkpt>
      <trkpt lat="48.56472" lon="-2.75898">
        <ele>2.6</ele>
        <time>2026-01-25T09:43:50Z</time>
      </trkpt>
      <trkpt lat="48.56474" lon="-2.75906">
        <ele>3.4</ele>
        <time>2026-01-25T09:43:51Z</time>
      </trkpt>
      <trkpt lat="48.56476" lon="-2.75913">
        <ele>3.4</ele>
        <time>2026-01-25T09:43:52Z</time>
      </trkpt>
      <trkpt lat="48.56479" lon="-2.7592">
        <ele>3.4</ele>
        <time>2026-01-25T09:43:53Z</time>
      </trkpt>
      <trkpt lat="48.56481" lon="-2.75928">
        <ele>3.6</ele>
        <time>2026-01-25T09:43:54Z</time>
      </trkpt>
      <trkpt lat="48.56483" lon="-2.75935">
        <ele>3.6</ele>
        <time>2026-01-25T09:43:55Z</time>
      </trkpt>
      <trkpt lat="48.56485" lon="-2.75942">
        <ele>3.6</ele>
        <time>2026-01-25T09:43:56Z</time>
      </trkpt>
      <trkpt lat="48.56487" lon="-2.75949">
        <ele>3.6</ele>
        <time>2026-01-25T09:43:57Z</time>
      </trkpt>
      <trkpt lat="48.5649" lon="-2.75955">
        <ele>4.2</ele>
        <time>2026-01-25T09:43:58Z</time>
      </trkpt>
      <trkpt lat="48.56492" lon="-2.75961">
        <ele>4.6</ele>
        <time>2026-01-25T09:43:59Z</time>
      </trkpt>
      <trkpt lat="48.56494" lon="-2.75967">
        <ele>4.6</ele>
        <time>2026-01-25T09:44:00Z</time>
      </trkpt>
      <trkpt lat="48.56496" lon="-2.75972">
        <ele>4.6</ele>
        <time>2026-01-25T09:44:01Z</time>
      </trkpt>
      <trkpt lat="48.56497" lon="-2.75976">
        <ele>4.6</ele>
        <time>2026-01-25T09:44:02Z</time>
      </trkpt>
      <trkpt lat="48.565" lon="-2.7598">
        <ele>4.6</ele>
        <time>2026-01-25T09:44:03Z</time>
      </trkpt>
      <trkpt lat="48.56503" lon="-2.75981">
        <ele>5</ele>
        <time>2026-01-25T09:44:04Z</time>
      </trkpt>
      <trkpt lat="48.56505" lon="-2.75982">
        <ele>5</ele>
        <time>2026-01-25T09:44:05Z</time>
      </trkpt>
      <trkpt lat="48.56506" lon="-2.75984">
        <ele>5</ele>
        <time>2026-01-25T09:44:06Z</time>
      </trkpt>
      <trkpt lat="48.56507" lon="-2.75988">
        <ele>5.8</ele>
        <time>2026-01-25T09:44:07Z</time>
      </trkpt>
      <trkpt lat="48.56509" lon="-2.75992">
        <ele>5.8</ele>
        <time>2026-01-25T09:44:08Z</time>
      </trkpt>
      <trkpt lat="48.5651" lon="-2.75997">
        <ele>5.8</ele>
        <time>2026-01-25T09:44:09Z</time>
      </trkpt>
      <trkpt lat="48.56512" lon="-2.76002">
        <ele>5.6</ele>
        <time>2026-01-25T09:44:10Z</time>
      </trkpt>
      <trkpt lat="48.56513" lon="-2.76006">
        <ele>5.6</ele>
        <time>2026-01-25T09:44:11Z</time>
      </trkpt>
      <trkpt lat="48.56515" lon="-2.76012">
        <ele>5.6</ele>
        <time>2026-01-25T09:44:12Z</time>
      </trkpt>
      <trkpt lat="48.56517" lon="-2.76017">
        <ele>5.6</ele>
        <time>2026-01-25T09:44:13Z</time>
      </trkpt>
      <trkpt lat="48.56518" lon="-2.76023">
        <ele>4.8</ele>
        <time>2026-01-25T09:44:14Z</time>
      </trkpt>
      <trkpt lat="48.5652" lon="-2.76028">
        <ele>4.6</ele>
        <time>2026-01-25T09:44:15Z</time>
      </trkpt>
      <trkpt lat="48.56522" lon="-2.76033">
        <ele>4.6</ele>
        <time>2026-01-25T09:44:16Z</time>
      </trkpt>
      <trkpt lat="48.56524" lon="-2.76039">
        <ele>4.6</ele>
        <time>2026-01-25T09:44:17Z</time>
      </trkpt>
      <trkpt lat="48.56526" lon="-2.76044">
        <ele>4.8</ele>
        <time>2026-01-25T09:44:18Z</time>
      </trkpt>
      <trkpt lat="48.56528" lon="-2.76048">
        <ele>5.2</ele>
        <time>2026-01-25T09:44:19Z</time>
      </trkpt>
      <trkpt lat="48.5653" lon="-2.76053">
        <ele>5.2</ele>
        <time>2026-01-25T09:44:20Z</time>
      </trkpt>
      <trkpt lat="48.56532" lon="-2.76058">
        <ele>5.2</ele>
        <time>2026-01-25T09:44:21Z</time>
      </trkpt>
      <trkpt lat="48.56534" lon="-2.76063">
        <ele>5.2</ele>
        <time>2026-01-25T09:44:22Z</time>
      </trkpt>
      <trkpt lat="48.56535" lon="-2.76068">
        <ele>5.2</ele>
        <time>2026-01-25T09:44:23Z</time>
      </trkpt>
      <trkpt lat="48.56537" lon="-2.76073">
        <ele>5.2</ele>
        <time>2026-01-25T09:44:24Z</time>
      </trkpt>
      <trkpt lat="48.56539" lon="-2.76077">
        <ele>5.2</ele>
        <time>2026-01-25T09:44:25Z</time>
      </trkpt>
      <trkpt lat="48.5654" lon="-2.76081">
        <ele>5.2</ele>
        <time>2026-01-25T09:44:26Z</time>
      </trkpt>
      <trkpt lat="48.56542" lon="-2.76085">
        <ele>5.4</ele>
        <time>2026-01-25T09:44:27Z</time>
      </trkpt>
      <trkpt lat="48.56543" lon="-2.76088">
        <ele>5.4</ele>
        <time>2026-01-25T09:44:28Z</time>
      </trkpt>
      <trkpt lat="48.56544" lon="-2.7609">
        <ele>5.4</ele>
        <time>2026-01-25T09:44:29Z</time>
      </trkpt>
      <trkpt lat="48.56545" lon="-2.76092">
        <ele>5.4</ele>
        <time>2026-01-25T09:44:30Z</time>
      </trkpt>
      <trkpt lat="48.56545" lon="-2.76093">
        <ele>5.4</ele>
        <time>2026-01-25T09:44:31Z</time>
      </trkpt>
      <trkpt lat="48.56545" lon="-2.76093">
        <ele>5.4</ele>
        <time>2026-01-25T09:44:32Z</time>
      </trkpt>
      <trkpt lat="48.56545" lon="-2.76099">
        <ele>4.8</ele>
        <time>2026-01-25T09:46:52Z</time>
      </trkpt>
      <trkpt lat="48.56545" lon="-2.76102">
        <ele>4.8</ele>
        <time>2026-01-25T09:46:53Z</time>
      </trkpt>
      <trkpt lat="48.56544" lon="-2.76104">
        <ele>5.4</ele>
        <time>2026-01-25T09:46:54Z</time>
      </trkpt>
      <trkpt lat="48.56544" lon="-2.76105">
        <ele>5.6</ele>
        <time>2026-01-25T09:46:55Z</time>
      </trkpt>
      <trkpt lat="48.56543" lon="-2.76107">
        <ele>5.6</ele>
        <time>2026-01-25T09:46:56Z</time>
      </trkpt>
      <trkpt lat="48.56542" lon="-2.76108">
        <ele>5.6</ele>
        <time>2026-01-25T09:46:57Z</time>
      </trkpt>
      <trkpt lat="48.56541" lon="-2.76109">
        <ele>5.4</ele>
        <time>2026-01-25T09:46:58Z</time>
      </trkpt>
      <trkpt lat="48.56538" lon="-2.76112">
        <ele>5.8</ele>
        <time>2026-01-25T09:46:59Z</time>
      </trkpt>
      <trkpt lat="48.56536" lon="-2.76114">
        <ele>5.8</ele>
        <time>2026-01-25T09:47:00Z</time>
      </trkpt>
      <trkpt lat="48.56533" lon="-2.76116">
        <ele>5.8</ele>
        <time>2026-01-25T09:47:01Z</time>
      </trkpt>
      <trkpt lat="48.56531" lon="-2.76118">
        <ele>5.8</ele>
        <time>2026-01-25T09:47:02Z</time>
      </trkpt>
      <trkpt lat="48.56529" lon="-2.7612">
        <ele>7</ele>
        <time>2026-01-25T09:47:03Z</time>
      </trkpt>
      <trkpt lat="48.56526" lon="-2.76123">
        <ele>7</ele>
        <time>2026-01-25T09:47:04Z</time>
      </trkpt>
      <trkpt lat="48.56524" lon="-2.76125">
        <ele>7</ele>
        <time>2026-01-25T09:47:05Z</time>
      </trkpt>
      <trkpt lat="48.56522" lon="-2.76127">
        <ele>7.6</ele>
        <time>2026-01-25T09:47:06Z</time>
      </trkpt>
      <trkpt lat="48.5652" lon="-2.7613">
        <ele>8</ele>
        <time>2026-01-25T09:47:07Z</time>
      </trkpt>
      <trkpt lat="48.56517" lon="-2.76131">
        <ele>8</ele>
        <time>2026-01-25T09:47:08Z</time>
      </trkpt>
      <trkpt lat="48.56515" lon="-2.76133">
        <ele>8</ele>
        <time>2026-01-25T09:47:09Z</time>
      </trkpt>
      <trkpt lat="48.56513" lon="-2.76135">
        <ele>9</ele>
        <time>2026-01-25T09:47:10Z</time>
      </trkpt>
      <trkpt lat="48.56511" lon="-2.76137">
        <ele>9.4</ele>
        <time>2026-01-25T09:47:11Z</time>
      </trkpt>
      <trkpt lat="48.56509" lon="-2.76139">
        <ele>9.4</ele>
        <time>2026-01-25T09:47:12Z</time>
      </trkpt>
      <trkpt lat="48.56507" lon="-2.7614">
        <ele>9.4</ele>
        <time>2026-01-25T09:47:13Z</time>
      </trkpt>
      <trkpt lat="48.56504" lon="-2.76142">
        <ele>10.4</ele>
        <time>2026-01-25T09:47:14Z</time>
      </trkpt>
      <trkpt lat="48.56503" lon="-2.76144">
        <ele>11.2</ele>
        <time>2026-01-25T09:47:15Z</time>
      </trkpt>
      <trkpt lat="48.56501" lon="-2.76147">
        <ele>11.2</ele>
        <time>2026-01-25T09:47:16Z</time>
      </trkpt>
      <trkpt lat="48.565" lon="-2.76149">
        <ele>11.2</ele>
        <time>2026-01-25T09:47:17Z</time>
      </trkpt>
      <trkpt lat="48.56499" lon="-2.76152">
        <ele>12.2</ele>
        <time>2026-01-25T09:47:18Z</time>
      </trkpt>
      <trkpt lat="48.56497" lon="-2.76155">
        <ele>12.6</ele>
        <time>2026-01-25T09:47:19Z</time>
      </trkpt>
      <trkpt lat="48.56497" lon="-2.76157">
        <ele>12.6</ele>
        <time>2026-01-25T09:47:20Z</time>
      </trkpt>
      <trkpt lat="48.56498" lon="-2.7616">
        <ele>12.6</ele>
        <time>2026-01-25T09:47:21Z</time>
      </trkpt>
      <trkpt lat="48.56498" lon="-2.76163">
        <ele>13.6</ele>
        <time>2026-01-25T09:47:22Z</time>
      </trkpt>
      <trkpt lat="48.56499" lon="-2.76165">
        <ele>13.8</ele>
        <time>2026-01-25T09:47:23Z</time>
      </trkpt>
      <trkpt lat="48.565" lon="-2.76168">
        <ele>13.8</ele>
        <time>2026-01-25T09:47:24Z</time>
      </trkpt>
      <trkpt lat="48.565" lon="-2.76171">
        <ele>13.8</ele>
        <time>2026-01-25T09:47:25Z</time>
      </trkpt>
      <trkpt lat="48.56501" lon="-2.76173">
        <ele>14.4</ele>
        <time>2026-01-25T09:47:26Z</time>
      </trkpt>
      <trkpt lat="48.56502" lon="-2.76176">
        <ele>14.8</ele>
        <time>2026-01-25T09:47:27Z</time>
      </trkpt>
      <trkpt lat="48.56502" lon="-2.76179">
        <ele>14.8</ele>
        <time>2026-01-25T09:47:28Z</time>
      </trkpt>
      <trkpt lat="48.56503" lon="-2.76181">
        <ele>14.8</ele>
        <time>2026-01-25T09:47:29Z</time>
      </trkpt>
      <trkpt lat="48.56503" lon="-2.76184">
        <ele>15.8</ele>
        <time>2026-01-25T09:47:30Z</time>
      </trkpt>
      <trkpt lat="48.56504" lon="-2.76187">
        <ele>15.8</ele>
        <time>2026-01-25T09:47:31Z</time>
      </trkpt>
      <trkpt lat="48.56505" lon="-2.7619">
        <ele>15.8</ele>
        <time>2026-01-25T09:47:32Z</time>
      </trkpt>
      <trkpt lat="48.56505" lon="-2.76193">
        <ele>15.8</ele>
        <time>2026-01-25T09:47:33Z</time>
      </trkpt>
      <trkpt lat="48.56506" lon="-2.76196">
        <ele>16.4</ele>
        <time>2026-01-25T09:47:34Z</time>
      </trkpt>
      <trkpt lat="48.56507" lon="-2.76199">
        <ele>16.6</ele>
        <time>2026-01-25T09:47:35Z</time>
      </trkpt>
      <trkpt lat="48.56508" lon="-2.76202">
        <ele>16.6</ele>
        <time>2026-01-25T09:47:36Z</time>
      </trkpt>
      <trkpt lat="48.56508" lon="-2.76205">
        <ele>16.6</ele>
        <time>2026-01-25T09:47:37Z</time>
      </trkpt>
      <trkpt lat="48.56509" lon="-2.76208">
        <ele>17</ele>
        <time>2026-01-25T09:47:38Z</time>
      </trkpt>
      <trkpt lat="48.5651" lon="-2.76211">
        <ele>17.6</ele>
        <time>2026-01-25T09:47:39Z</time>
      </trkpt>
      <trkpt lat="48.56511" lon="-2.76214">
        <ele>17.6</ele>
        <time>2026-01-25T09:47:40Z</time>
      </trkpt>
      <trkpt lat="48.56511" lon="-2.76216">
        <ele>17.6</ele>
        <time>2026-01-25T09:47:41Z</time>
      </trkpt>
      <trkpt lat="48.56512" lon="-2.76219">
        <ele>18</ele>
        <time>2026-01-25T09:47:42Z</time>
      </trkpt>
      <trkpt lat="48.56513" lon="-2.76222">
        <ele>18.6</ele>
        <time>2026-01-25T09:47:43Z</time>
      </trkpt>
      <trkpt lat="48.56514" lon="-2.76225">
        <ele>18.6</ele>
        <time>2026-01-25T09:47:44Z</time>
      </trkpt>
      <trkpt lat="48.56514" lon="-2.76228">
        <ele>18.6</ele>
        <time>2026-01-25T09:47:45Z</time>
      </trkpt>
      <trkpt lat="48.56515" lon="-2.76231">
        <ele>19.2</ele>
        <time>2026-01-25T09:47:46Z</time>
      </trkpt>
      <trkpt lat="48.56516" lon="-2.76234">
        <ele>19.2</ele>
        <time>2026-01-25T09:47:47Z</time>
      </trkpt>
      <trkpt lat="48.56517" lon="-2.76237">
        <ele>19.2</ele>
        <time>2026-01-25T09:47:48Z</time>
      </trkpt>
      <trkpt lat="48.56517" lon="-2.7624">
        <ele>19.2</ele>
        <time>2026-01-25T09:47:49Z</time>
      </trkpt>
      <trkpt lat="48.56518" lon="-2.76243">
        <ele>19.8</ele>
        <time>2026-01-25T09:47:50Z</time>
      </trkpt>
      <trkpt lat="48.56519" lon="-2.76245">
        <ele>20</ele>
        <time>2026-01-25T09:47:51Z</time>
      </trkpt>
      <trkpt lat="48.5652" lon="-2.76248">
        <ele>20</ele>
        <time>2026-01-25T09:47:52Z</time>
      </trkpt>
      <trkpt lat="48.56521" lon="-2.76251">
        <ele>20</ele>
        <time>2026-01-25T09:47:53Z</time>
      </trkpt>
      <trkpt lat="48.56522" lon="-2.76254">
        <ele>20.8</ele>
        <time>2026-01-25T09:47:54Z</time>
      </trkpt>
      <trkpt lat="48.56523" lon="-2.76257">
        <ele>20.8</ele>
        <time>2026-01-25T09:47:55Z</time>
      </trkpt>
      <trkpt lat="48.56524" lon="-2.76259">
        <ele>20.8</ele>
        <time>2026-01-25T09:47:56Z</time>
      </trkpt>
      <trkpt lat="48.56525" lon="-2.76262">
        <ele>20.8</ele>
        <time>2026-01-25T09:47:57Z</time>
      </trkpt>
      <trkpt lat="48.56525" lon="-2.76265">
        <ele>21.2</ele>
        <time>2026-01-25T09:47:58Z</time>
      </trkpt>
      <trkpt lat="48.56526" lon="-2.76268">
        <ele>21.6</ele>
        <time>2026-01-25T09:47:59Z</time>
      </trkpt>
      <trkpt lat="48.56527" lon="-2.76271">
        <ele>21.6</ele>
        <time>2026-01-25T09:48:00Z</time>
      </trkpt>
      <trkpt lat="48.56528" lon="-2.76274">
        <ele>21.6</ele>
        <time>2026-01-25T09:48:01Z</time>
      </trkpt>
      <trkpt lat="48.56529" lon="-2.76277">
        <ele>22.2</ele>
        <time>2026-01-25T09:48:02Z</time>
      </trkpt>
      <trkpt lat="48.5653" lon="-2.76279">
        <ele>22.6</ele>
        <time>2026-01-25T09:48:03Z</time>
      </trkpt>
      <trkpt lat="48.56531" lon="-2.76282">
        <ele>22.6</ele>
        <time>2026-01-25T09:48:04Z</time>
      </trkpt>
      <trkpt lat="48.56531" lon="-2.76285">
        <ele>22.6</ele>
        <time>2026-01-25T09:48:05Z</time>
      </trkpt>
      <trkpt lat="48.56532" lon="-2.76288">
        <ele>22.6</ele>
        <time>2026-01-25T09:48:06Z</time>
      </trkpt>
      <trkpt lat="48.56532" lon="-2.76291">
        <ele>23.4</ele>
        <time>2026-01-25T09:48:07Z</time>
      </trkpt>
      <trkpt lat="48.56532" lon="-2.76294">
        <ele>23.4</ele>
        <time>2026-01-25T09:48:08Z</time>
      </trkpt>
      <trkpt lat="48.56531" lon="-2.76297">
        <ele>23.4</ele>
        <time>2026-01-25T09:48:09Z</time>
      </trkpt>
      <trkpt lat="48.56531" lon="-2.763">
        <ele>23.4</ele>
        <time>2026-01-25T09:48:10Z</time>
      </trkpt>
      <trkpt lat="48.56529" lon="-2.76302">
        <ele>24.2</ele>
        <time>2026-01-25T09:48:11Z</time>
      </trkpt>
      <trkpt lat="48.56528" lon="-2.76304">
        <ele>24.2</ele>
        <time>2026-01-25T09:48:12Z</time>
      </trkpt>
      <trkpt lat="48.56526" lon="-2.76305">
        <ele>24.2</ele>
        <time>2026-01-25T09:48:13Z</time>
      </trkpt>
      <trkpt lat="48.56524" lon="-2.76305">
        <ele>24.8</ele>
        <time>2026-01-25T09:48:14Z</time>
      </trkpt>
      <trkpt lat="48.56523" lon="-2.76304">
        <ele>25</ele>
        <time>2026-01-25T09:48:15Z</time>
      </trkpt>
      <trkpt lat="48.56521" lon="-2.76304">
        <ele>25</ele>
        <time>2026-01-25T09:48:16Z</time>
      </trkpt>
      <trkpt lat="48.56519" lon="-2.76302">
        <ele>25</ele>
        <time>2026-01-25T09:48:17Z</time>
      </trkpt>
      <trkpt lat="48.56517" lon="-2.76301">
        <ele>25.8</ele>
        <time>2026-01-25T09:48:18Z</time>
      </trkpt>
      <trkpt lat="48.56515" lon="-2.763">
        <ele>26</ele>
        <time>2026-01-25T09:48:19Z</time>
      </trkpt>
      <trkpt lat="48.56514" lon="-2.76298">
        <ele>26</ele>
        <time>2026-01-25T09:48:20Z</time>
      </trkpt>
      <trkpt lat="48.56512" lon="-2.76297">
        <ele>26</ele>
        <time>2026-01-25T09:48:21Z</time>
      </trkpt>
      <trkpt lat="48.56511" lon="-2.76296">
        <ele>27</ele>
        <time>2026-01-25T09:48:22Z</time>
      </trkpt>
      <trkpt lat="48.56509" lon="-2.76295">
        <ele>27.6</ele>
        <time>2026-01-25T09:48:23Z</time>
      </trkpt>
      <trkpt lat="48.56507" lon="-2.76294">
        <ele>27.6</ele>
        <time>2026-01-25T09:48:24Z</time>
      </trkpt>
      <trkpt lat="48.56506" lon="-2.76293">
        <ele>27.6</ele>
        <time>2026-01-25T09:48:25Z</time>
      </trkpt>
      <trkpt lat="48.56504" lon="-2.76292">
        <ele>28.4</ele>
        <time>2026-01-25T09:48:26Z</time>
      </trkpt>
      <trkpt lat="48.56502" lon="-2.76291">
        <ele>28.6</ele>
        <time>2026-01-25T09:48:27Z</time>
      </trkpt>
      <trkpt lat="48.56501" lon="-2.7629">
        <ele>28.6</ele>
        <time>2026-01-25T09:48:28Z</time>
      </trkpt>
      <trkpt lat="48.56499" lon="-2.76289">
        <ele>28.6</ele>
        <time>2026-01-25T09:48:29Z</time>
      </trkpt>
      <trkpt lat="48.56497" lon="-2.76287">
        <ele>29.4</ele>
        <time>2026-01-25T09:48:30Z</time>
      </trkpt>
      <trkpt lat="48.56496" lon="-2.76287">
        <ele>29.2</ele>
        <time>2026-01-25T09:48:31Z</time>
      </trkpt>
      <trkpt lat="48.56494" lon="-2.76286">
        <ele>29.2</ele>
        <time>2026-01-25T09:48:32Z</time>
      </trkpt>
      <trkpt lat="48.56493" lon="-2.76285">
        <ele>29.2</ele>
        <time>2026-01-25T09:48:33Z</time>
      </trkpt>
      <trkpt lat="48.56491" lon="-2.76283">
        <ele>30.2</ele>
        <time>2026-01-25T09:48:34Z</time>
      </trkpt>
      <trkpt lat="48.56489" lon="-2.76282">
        <ele>30.4</ele>
        <time>2026-01-25T09:48:35Z</time>
      </trkpt>
      <trkpt lat="48.56488" lon="-2.76281">
        <ele>30.4</ele>
        <time>2026-01-25T09:48:36Z</time>
      </trkpt>
      <trkpt lat="48.56487" lon="-2.7628">
        <ele>30.4</ele>
        <time>2026-01-25T09:48:37Z</time>
      </trkpt>
      <trkpt lat="48.56485" lon="-2.76279">
        <ele>31.2</ele>
        <time>2026-01-25T09:48:38Z</time>
      </trkpt>
      <trkpt lat="48.56484" lon="-2.76279">
        <ele>31.6</ele>
        <time>2026-01-25T09:48:39Z</time>
      </trkpt>
      <trkpt lat="48.56482" lon="-2.76278">
        <ele>31.6</ele>
        <time>2026-01-25T09:48:40Z</time>
      </trkpt>
      <trkpt lat="48.56481" lon="-2.76277">
        <ele>31.6</ele>
        <time>2026-01-25T09:48:41Z</time>
      </trkpt>
      <trkpt lat="48.56479" lon="-2.76275">
        <ele>32</ele>
        <time>2026-01-25T09:48:42Z</time>
      </trkpt>
      <trkpt lat="48.56478" lon="-2.76274">
        <ele>32.4</ele>
        <time>2026-01-25T09:48:43Z</time>
      </trkpt>
      <trkpt lat="48.56476" lon="-2.76273">
        <ele>32.4</ele>
        <time>2026-01-25T09:48:44Z</time>
      </trkpt>
      <trkpt lat="48.56475" lon="-2.76271">
        <ele>32.4</ele>
        <time>2026-01-25T09:48:45Z</time>
      </trkpt>
      <trkpt lat="48.56473" lon="-2.76269">
        <ele>33.4</ele>
        <time>2026-01-25T09:48:46Z</time>
      </trkpt>
      <trkpt lat="48.56472" lon="-2.76268">
        <ele>34</ele>
        <time>2026-01-25T09:48:47Z</time>
      </trkpt>
      <trkpt lat="48.5647" lon="-2.76267">
        <ele>34</ele>
        <time>2026-01-25T09:48:48Z</time>
      </trkpt>
      <trkpt lat="48.56469" lon="-2.76266">
        <ele>34</ele>
        <time>2026-01-25T09:48:49Z</time>
      </trkpt>
      <trkpt lat="48.56467" lon="-2.76265">
        <ele>34.4</ele>
        <time>2026-01-25T09:48:50Z</time>
      </trkpt>
      <trkpt lat="48.56465" lon="-2.76264">
        <ele>34.8</ele>
        <time>2026-01-25T09:48:51Z</time>
      </trkpt>
      <trkpt lat="48.56463" lon="-2.76264">
        <ele>34.8</ele>
        <time>2026-01-25T09:48:52Z</time>
      </trkpt>
      <trkpt lat="48.56462" lon="-2.76263">
        <ele>34.8</ele>
        <time>2026-01-25T09:48:53Z</time>
      </trkpt>
      <trkpt lat="48.5646" lon="-2.76262">
        <ele>35.6</ele>
        <time>2026-01-25T09:48:54Z</time>
      </trkpt>
      <trkpt lat="48.56458" lon="-2.76262">
        <ele>35.8</ele>
        <time>2026-01-25T09:48:55Z</time>
      </trkpt>
      <trkpt lat="48.56457" lon="-2.76261">
        <ele>35.8</ele>
        <time>2026-01-25T09:48:56Z</time>
      </trkpt>
      <trkpt lat="48.56455" lon="-2.76259">
        <ele>35.8</ele>
        <time>2026-01-25T09:48:57Z</time>
      </trkpt>
      <trkpt lat="48.56454" lon="-2.76258">
        <ele>36.6</ele>
        <time>2026-01-25T09:48:58Z</time>
      </trkpt>
      <trkpt lat="48.56452" lon="-2.76257">
        <ele>36.8</ele>
        <time>2026-01-25T09:48:59Z</time>
      </trkpt>
      <trkpt lat="48.56451" lon="-2.76256">
        <ele>36.8</ele>
        <time>2026-01-25T09:49:00Z</time>
      </trkpt>
      <trkpt lat="48.56449" lon="-2.76254">
        <ele>36.8</ele>
        <time>2026-01-25T09:49:01Z</time>
      </trkpt>
      <trkpt lat="48.56448" lon="-2.76253">
        <ele>37.6</ele>
        <time>2026-01-25T09:49:02Z</time>
      </trkpt>
      <trkpt lat="48.56446" lon="-2.76252">
        <ele>38</ele>
        <time>2026-01-25T09:49:03Z</time>
      </trkpt>
      <trkpt lat="48.56445" lon="-2.7625">
        <ele>38</ele>
        <time>2026-01-25T09:49:04Z</time>
      </trkpt>
      <trkpt lat="48.56443" lon="-2.76249">
        <ele>38</ele>
        <time>2026-01-25T09:49:05Z</time>
      </trkpt>
      <trkpt lat="48.56442" lon="-2.76248">
        <ele>39</ele>
        <time>2026-01-25T09:49:06Z</time>
      </trkpt>
      <trkpt lat="48.5644" lon="-2.76247">
        <ele>39.2</ele>
        <time>2026-01-25T09:49:07Z</time>
      </trkpt>
      <trkpt lat="48.56439" lon="-2.76246">
        <ele>39.2</ele>
        <time>2026-01-25T09:49:08Z</time>
      </trkpt>
      <trkpt lat="48.56437" lon="-2.76245">
        <ele>39.2</ele>
        <time>2026-01-25T09:49:09Z</time>
      </trkpt>
      <trkpt lat="48.56435" lon="-2.76244">
        <ele>39.8</ele>
        <time>2026-01-25T09:49:10Z</time>
      </trkpt>
      <trkpt lat="48.56434" lon="-2.76243">
        <ele>40.4</ele>
        <time>2026-01-25T09:49:11Z</time>
      </trkpt>
      <trkpt lat="48.56432" lon="-2.76242">
        <ele>40.4</ele>
        <time>2026-01-25T09:49:12Z</time>
      </trkpt>
      <trkpt lat="48.56431" lon="-2.76241">
        <ele>40.4</ele>
        <time>2026-01-25T09:49:13Z</time>
      </trkpt>
      <trkpt lat="48.56429" lon="-2.76239">
        <ele>40.6</ele>
        <time>2026-01-25T09:49:14Z</time>
      </trkpt>
      <trkpt lat="48.56428" lon="-2.76238">
        <ele>41</ele>
        <time>2026-01-25T09:49:15Z</time>
      </trkpt>
      <trkpt lat="48.56426" lon="-2.76236">
        <ele>41</ele>
        <time>2026-01-25T09:49:16Z</time>
      </trkpt>
      <trkpt lat="48.56425" lon="-2.76235">
        <ele>41</ele>
        <time>2026-01-25T09:49:17Z</time>
      </trkpt>
      <trkpt lat="48.56424" lon="-2.76234">
        <ele>41.8</ele>
        <time>2026-01-25T09:49:18Z</time>
      </trkpt>
      <trkpt lat="48.56422" lon="-2.76233">
        <ele>42.2</ele>
        <time>2026-01-25T09:49:19Z</time>
      </trkpt>
      <trkpt lat="48.5642" lon="-2.76232">
        <ele>42.2</ele>
        <time>2026-01-25T09:49:20Z</time>
      </trkpt>
      <trkpt lat="48.56419" lon="-2.76232">
        <ele>42.2</ele>
        <time>2026-01-25T09:49:21Z</time>
      </trkpt>
      <trkpt lat="48.56417" lon="-2.76231">
        <ele>43</ele>
        <time>2026-01-25T09:49:22Z</time>
      </trkpt>
      <trkpt lat="48.56415" lon="-2.76231">
        <ele>43</ele>
        <time>2026-01-25T09:49:23Z</time>
      </trkpt>
      <trkpt lat="48.56414" lon="-2.7623">
        <ele>43</ele>
        <time>2026-01-25T09:49:24Z</time>
      </trkpt>
      <trkpt lat="48.56412" lon="-2.7623">
        <ele>43</ele>
        <time>2026-01-25T09:49:25Z</time>
      </trkpt>
      <trkpt lat="48.5641" lon="-2.7623">
        <ele>43.8</ele>
        <time>2026-01-25T09:49:26Z</time>
      </trkpt>
      <trkpt lat="48.56409" lon="-2.76231">
        <ele>44.2</ele>
        <time>2026-01-25T09:49:27Z</time>
      </trkpt>
      <trkpt lat="48.56407" lon="-2.76233">
        <ele>44.2</ele>
        <time>2026-01-25T09:49:28Z</time>
      </trkpt>
      <trkpt lat="48.56407" lon="-2.76235">
        <ele>44.2</ele>
        <time>2026-01-25T09:49:29Z</time>
      </trkpt>
      <trkpt lat="48.56406" lon="-2.76238">
        <ele>44.2</ele>
        <time>2026-01-25T09:49:30Z</time>
      </trkpt>
      <trkpt lat="48.56407" lon="-2.7624">
        <ele>44.8</ele>
        <time>2026-01-25T09:49:31Z</time>
      </trkpt>
      <trkpt lat="48.56407" lon="-2.76243">
        <ele>44.8</ele>
        <time>2026-01-25T09:49:32Z</time>
      </trkpt>
      <trkpt lat="48.56407" lon="-2.76246">
        <ele>44.8</ele>
        <time>2026-01-25T09:49:33Z</time>
      </trkpt>
      <trkpt lat="48.56408" lon="-2.76248">
        <ele>45.8</ele>
        <time>2026-01-25T09:49:34Z</time>
      </trkpt>
      <trkpt lat="48.56408" lon="-2.7625">
        <ele>45.6</ele>
        <time>2026-01-25T09:49:35Z</time>
      </trkpt>
      <trkpt lat="48.56409" lon="-2.76252">
        <ele>45.6</ele>
        <time>2026-01-25T09:49:36Z</time>
      </trkpt>
      <trkpt lat="48.56409" lon="-2.76254">
        <ele>45.6</ele>
        <time>2026-01-25T09:49:37Z</time>
      </trkpt>
      <trkpt lat="48.5641" lon="-2.76256">
        <ele>46.6</ele>
        <time>2026-01-25T09:49:38Z</time>
      </trkpt>
      <trkpt lat="48.5641" lon="-2.76258">
        <ele>46.8</ele>
        <time>2026-01-25T09:49:39Z</time>
      </trkpt>
      <trkpt lat="48.56411" lon="-2.7626">
        <ele>46.8</ele>
        <time>2026-01-25T09:49:40Z</time>
      </trkpt>
      <trkpt lat="48.56412" lon="-2.76262">
        <ele>46.8</ele>
        <time>2026-01-25T09:49:41Z</time>
      </trkpt>
      <trkpt lat="48.56412" lon="-2.76264">
        <ele>47.8</ele>
        <time>2026-01-25T09:49:42Z</time>
      </trkpt>
      <trkpt lat="48.56412" lon="-2.76266">
        <ele>48.2</ele>
        <time>2026-01-25T09:49:43Z</time>
      </trkpt>
      <trkpt lat="48.56413" lon="-2.76268">
        <ele>48.2</ele>
        <time>2026-01-25T09:49:44Z</time>
      </trkpt>
      <trkpt lat="48.56414" lon="-2.7627">
        <ele>48.2</ele>
        <time>2026-01-25T09:49:45Z</time>
      </trkpt>
      <trkpt lat="48.56414" lon="-2.76272">
        <ele>49</ele>
        <time>2026-01-25T09:49:46Z</time>
      </trkpt>
      <trkpt lat="48.56414" lon="-2.76274">
        <ele>49</ele>
        <time>2026-01-25T09:49:47Z</time>
      </trkpt>
      <trkpt lat="48.56415" lon="-2.76276">
        <ele>49</ele>
        <time>2026-01-25T09:49:48Z</time>
      </trkpt>
      <trkpt lat="48.56416" lon="-2.76278">
        <ele>49</ele>
        <time>2026-01-25T09:49:49Z</time>
      </trkpt>
      <trkpt lat="48.56416" lon="-2.7628">
        <ele>50</ele>
        <time>2026-01-25T09:49:50Z</time>
      </trkpt>
      <trkpt lat="48.56417" lon="-2.76282">
        <ele>50.6</ele>
        <time>2026-01-25T09:49:51Z</time>
      </trkpt>
      <trkpt lat="48.56417" lon="-2.76284">
        <ele>50.6</ele>
        <time>2026-01-25T09:49:52Z</time>
      </trkpt>
      <trkpt lat="48.56418" lon="-2.76286">
        <ele>50.6</ele>
        <time>2026-01-25T09:49:53Z</time>
      </trkpt>
      <trkpt lat="48.56418" lon="-2.76288">
        <ele>50.6</ele>
        <time>2026-01-25T09:49:54Z</time>
      </trkpt>
      <trkpt lat="48.56419" lon="-2.7629">
        <ele>51.4</ele>
        <time>2026-01-25T09:49:55Z</time>
      </trkpt>
      <trkpt lat="48.56419" lon="-2.76292">
        <ele>51.4</ele>
        <time>2026-01-25T09:49:56Z</time>
      </trkpt>
      <trkpt lat="48.56419" lon="-2.76294">
        <ele>51.4</ele>
        <time>2026-01-25T09:49:57Z</time>
      </trkpt>
      <trkpt lat="48.5642" lon="-2.76296">
        <ele>52.4</ele>
        <time>2026-01-25T09:49:58Z</time>
      </trkpt>
      <trkpt lat="48.5642" lon="-2.76298">
        <ele>53</ele>
        <time>2026-01-25T09:49:59Z</time>
      </trkpt>
      <trkpt lat="48.5642" lon="-2.76301">
        <ele>53</ele>
        <time>2026-01-25T09:50:00Z</time>
      </trkpt>
      <trkpt lat="48.5642" lon="-2.76303">
        <ele>53</ele>
        <time>2026-01-25T09:50:01Z</time>
      </trkpt>
      <trkpt lat="48.5642" lon="-2.76305">
        <ele>53.6</ele>
        <time>2026-01-25T09:50:02Z</time>
      </trkpt>
      <trkpt lat="48.56421" lon="-2.76307">
        <ele>54.2</ele>
        <time>2026-01-25T09:50:03Z</time>
      </trkpt>
      <trkpt lat="48.56422" lon="-2.76309">
        <ele>54.2</ele>
        <time>2026-01-25T09:50:04Z</time>
      </trkpt>
      <trkpt lat="48.56423" lon="-2.76311">
        <ele>54.2</ele>
        <time>2026-01-25T09:50:05Z</time>
      </trkpt>
      <trkpt lat="48.56423" lon="-2.76313">
        <ele>54.8</ele>
        <time>2026-01-25T09:50:06Z</time>
      </trkpt>
      <trkpt lat="48.56424" lon="-2.76316">
        <ele>55.2</ele>
        <time>2026-01-25T09:50:07Z</time>
      </trkpt>
      <trkpt lat="48.56423" lon="-2.76319">
        <ele>55.2</ele>
        <time>2026-01-25T09:50:08Z</time>
      </trkpt>
      <trkpt lat="48.56423" lon="-2.76322">
        <ele>55.2</ele>
        <time>2026-01-25T09:50:09Z</time>
      </trkpt>
      <trkpt lat="48.56423" lon="-2.76325">
        <ele>55.6</ele>
        <time>2026-01-25T09:50:10Z</time>
      </trkpt>
      <trkpt lat="48.56423" lon="-2.76328">
        <ele>56</ele>
        <time>2026-01-25T09:50:11Z</time>
      </trkpt>
      <trkpt lat="48.56422" lon="-2.76331">
        <ele>56</ele>
        <time>2026-01-25T09:50:12Z</time>
      </trkpt>
      <trkpt lat="48.56422" lon="-2.76334">
        <ele>56</ele>
        <time>2026-01-25T09:50:13Z</time>
      </trkpt>
      <trkpt lat="48.56421" lon="-2.76337">
        <ele>56</ele>
        <time>2026-01-25T09:50:14Z</time>
      </trkpt>
      <trkpt lat="48.56421" lon="-2.7634">
        <ele>56.8</ele>
        <time>2026-01-25T09:50:15Z</time>
      </trkpt>
      <trkpt lat="48.56421" lon="-2.76344">
        <ele>56.8</ele>
        <time>2026-01-25T09:50:16Z</time>
      </trkpt>
      <trkpt lat="48.56421" lon="-2.76347">
        <ele>56.8</ele>
        <time>2026-01-25T09:50:17Z</time>
      </trkpt>
      <trkpt lat="48.56421" lon="-2.76351">
        <ele>57</ele>
        <time>2026-01-25T09:50:18Z</time>
      </trkpt>
      <trkpt lat="48.5642" lon="-2.76354">
        <ele>56.8</ele>
        <time>2026-01-25T09:50:19Z</time>
      </trkpt>
      <trkpt lat="48.5642" lon="-2.76358">
        <ele>56.8</ele>
        <time>2026-01-25T09:50:20Z</time>
      </trkpt>
      <trkpt lat="48.56419" lon="-2.76361">
        <ele>56.8</ele>
        <time>2026-01-25T09:50:21Z</time>
      </trkpt>
      <trkpt lat="48.56418" lon="-2.76365">
        <ele>56.8</ele>
        <time>2026-01-25T09:50:22Z</time>
      </trkpt>
      <trkpt lat="48.56418" lon="-2.76368">
        <ele>57</ele>
        <time>2026-01-25T09:50:23Z</time>
      </trkpt>
      <trkpt lat="48.56417" lon="-2.76372">
        <ele>57</ele>
        <time>2026-01-25T09:50:24Z</time>
      </trkpt>
      <trkpt lat="48.56416" lon="-2.76376">
        <ele>57</ele>
        <time>2026-01-25T09:50:25Z</time>
      </trkpt>
      <trkpt lat="48.56415" lon="-2.76379">
        <ele>57.2</ele>
        <time>2026-01-25T09:50:26Z</time>
      </trkpt>
      <trkpt lat="48.56414" lon="-2.76383">
        <ele>57.2</ele>
        <time>2026-01-25T09:50:27Z</time>
      </trkpt>
      <trkpt lat="48.56413" lon="-2.76387">
        <ele>57.2</ele>
        <time>2026-01-25T09:50:28Z</time>
      </trkpt>
      <trkpt lat="48.56413" lon="-2.76391">
        <ele>57.2</ele>
        <time>2026-01-25T09:50:29Z</time>
      </trkpt>
      <trkpt lat="48.56412" lon="-2.76396">
        <ele>57.4</ele>
        <time>2026-01-25T09:50:30Z</time>
      </trkpt>
      <trkpt lat="48.56411" lon="-2.764">
        <ele>57.6</ele>
        <time>2026-01-25T09:50:31Z</time>
      </trkpt>
      <trkpt lat="48.5641" lon="-2.76404">
        <ele>57.6</ele>
        <time>2026-01-25T09:50:32Z</time>
      </trkpt>
      <trkpt lat="48.56409" lon="-2.76409">
        <ele>57.6</ele>
        <time>2026-01-25T09:50:33Z</time>
      </trkpt>
      <trkpt lat="48.56408" lon="-2.76413">
        <ele>57.6</ele>
        <time>2026-01-25T09:50:34Z</time>
      </trkpt>
      <trkpt lat="48.56407" lon="-2.76418">
        <ele>57.6</ele>
        <time>2026-01-25T09:50:35Z</time>
      </trkpt>
      <trkpt lat="48.56406" lon="-2.76422">
        <ele>57.6</ele>
        <time>2026-01-25T09:50:36Z</time>
      </trkpt>
      <trkpt lat="48.56405" lon="-2.76426">
        <ele>57.6</ele>
        <time>2026-01-25T09:50:37Z</time>
      </trkpt>
      <trkpt lat="48.56404" lon="-2.76431">
        <ele>57.8</ele>
        <time>2026-01-25T09:50:38Z</time>
      </trkpt>
      <trkpt lat="48.56404" lon="-2.76436">
        <ele>58.4</ele>
        <time>2026-01-25T09:50:39Z</time>
      </trkpt>
      <trkpt lat="48.56404" lon="-2.76441">
        <ele>58.4</ele>
        <time>2026-01-25T09:50:40Z</time>
      </trkpt>
      <trkpt lat="48.56404" lon="-2.76446">
        <ele>58.4</ele>
        <time>2026-01-25T09:50:41Z</time>
      </trkpt>
      <trkpt lat="48.56403" lon="-2.76451">
        <ele>58.4</ele>
        <time>2026-01-25T09:50:42Z</time>
      </trkpt>
      <trkpt lat="48.56404" lon="-2.76457">
        <ele>58.2</ele>
        <time>2026-01-25T09:50:43Z</time>
      </trkpt>
      <trkpt lat="48.56404" lon="-2.76462">
        <ele>58.2</ele>
        <time>2026-01-25T09:50:44Z</time>
      </trkpt>
      <trkpt lat="48.56405" lon="-2.76468">
        <ele>58.2</ele>
        <time>2026-01-25T09:50:45Z</time>
      </trkpt>
      <trkpt lat="48.56406" lon="-2.76473">
        <ele>58.2</ele>
        <time>2026-01-25T09:50:46Z</time>
      </trkpt>
      <trkpt lat="48.56409" lon="-2.76478">
        <ele>57.2</ele>
        <time>2026-01-25T09:50:47Z</time>
      </trkpt>
      <trkpt lat="48.56411" lon="-2.76483">
        <ele>57.2</ele>
        <time>2026-01-25T09:50:48Z</time>
      </trkpt>
      <trkpt lat="48.56414" lon="-2.76489">
        <ele>57.2</ele>
        <time>2026-01-25T09:50:49Z</time>
      </trkpt>
      <trkpt lat="48.56417" lon="-2.76494">
        <ele>57.2</ele>
        <time>2026-01-25T09:50:50Z</time>
      </trkpt>
      <trkpt lat="48.56421" lon="-2.76498">
        <ele>57.6</ele>
        <time>2026-01-25T09:50:51Z</time>
      </trkpt>
      <trkpt lat="48.56425" lon="-2.76502">
        <ele>57.6</ele>
        <time>2026-01-25T09:50:52Z</time>
      </trkpt>
      <trkpt lat="48.56429" lon="-2.76505">
        <ele>57.6</ele>
        <time>2026-01-25T09:50:53Z</time>
      </trkpt>
      <trkpt lat="48.56434" lon="-2.76507">
        <ele>57.6</ele>
        <time>2026-01-25T09:50:54Z</time>
      </trkpt>
      <trkpt lat="48.56439" lon="-2.76508">
        <ele>56.2</ele>
        <time>2026-01-25T09:50:55Z</time>
      </trkpt>
      <trkpt lat="48.56445" lon="-2.76508">
        <ele>56.2</ele>
        <time>2026-01-25T09:50:56Z</time>
      </trkpt>
      <trkpt lat="48.56452" lon="-2.76505">
        <ele>56.2</ele>
        <time>2026-01-25T09:50:57Z</time>
      </trkpt>
      <trkpt lat="48.56459" lon="-2.76499">
        <ele>55.2</ele>
        <time>2026-01-25T09:50:58Z</time>
      </trkpt>
      <trkpt lat="48.56467" lon="-2.76493">
        <ele>49.8</ele>
        <time>2026-01-25T09:50:59Z</time>
      </trkpt>
      <trkpt lat="48.56474" lon="-2.76486">
        <ele>49.8</ele>
        <time>2026-01-25T09:51:00Z</time>
      </trkpt>
      <trkpt lat="48.56481" lon="-2.76479">
        <ele>49.8</ele>
        <time>2026-01-25T09:51:01Z</time>
      </trkpt>
      <trkpt lat="48.56487" lon="-2.76474">
        <ele>48.8</ele>
        <time>2026-01-25T09:51:02Z</time>
      </trkpt>
      <trkpt lat="48.56493" lon="-2.76468">
        <ele>47.8</ele>
        <time>2026-01-25T09:51:03Z</time>
      </trkpt>
      <trkpt lat="48.565" lon="-2.76463">
        <ele>47.8</ele>
        <time>2026-01-25T09:51:04Z</time>
      </trkpt>
      <trkpt lat="48.56506" lon="-2.76459">
        <ele>47.8</ele>
        <time>2026-01-25T09:51:05Z</time>
      </trkpt>
      <trkpt lat="48.56513" lon="-2.76456">
        <ele>46.8</ele>
        <time>2026-01-25T09:51:06Z</time>
      </trkpt>
      <trkpt lat="48.56521" lon="-2.76455">
        <ele>43.2</ele>
        <time>2026-01-25T09:51:07Z</time>
      </trkpt>
      <trkpt lat="48.56529" lon="-2.76455">
        <ele>43.2</ele>
        <time>2026-01-25T09:51:08Z</time>
      </trkpt>
      <trkpt lat="48.56536" lon="-2.76456">
        <ele>43.2</ele>
        <time>2026-01-25T09:51:09Z</time>
      </trkpt>
      <trkpt lat="48.56543" lon="-2.76459">
        <ele>42.6</ele>
        <time>2026-01-25T09:51:10Z</time>
      </trkpt>
      <trkpt lat="48.5655" lon="-2.76462">
        <ele>42.4</ele>
        <time>2026-01-25T09:51:11Z</time>
      </trkpt>
      <trkpt lat="48.56556" lon="-2.76466">
        <ele>42.4</ele>
        <time>2026-01-25T09:51:12Z</time>
      </trkpt>
      <trkpt lat="48.5656" lon="-2.76469">
        <ele>42.4</ele>
        <time>2026-01-25T09:51:13Z</time>
      </trkpt>
      <trkpt lat="48.56565" lon="-2.76472">
        <ele>43.2</ele>
        <time>2026-01-25T09:51:14Z</time>
      </trkpt>
      <trkpt lat="48.56568" lon="-2.76475">
        <ele>42.8</ele>
        <time>2026-01-25T09:51:15Z</time>
      </trkpt>
      <trkpt lat="48.56572" lon="-2.76477">
        <ele>42.8</ele>
        <time>2026-01-25T09:51:16Z</time>
      </trkpt>
      <trkpt lat="48.56575" lon="-2.76481">
        <ele>42.8</ele>
        <time>2026-01-25T09:51:17Z</time>
      </trkpt>
      <trkpt lat="48.56576" lon="-2.76486">
        <ele>43.8</ele>
        <time>2026-01-25T09:51:18Z</time>
      </trkpt>
      <trkpt lat="48.56577" lon="-2.76491">
        <ele>44.6</ele>
        <time>2026-01-25T09:51:19Z</time>
      </trkpt>
      <trkpt lat="48.56578" lon="-2.76495">
        <ele>44.6</ele>
        <time>2026-01-25T09:51:20Z</time>
      </trkpt>
      <trkpt lat="48.56579" lon="-2.76499">
        <ele>44.6</ele>
        <time>2026-01-25T09:51:21Z</time>
      </trkpt>
      <trkpt lat="48.56581" lon="-2.76503">
        <ele>44.6</ele>
        <time>2026-01-25T09:51:22Z</time>
      </trkpt>
      <trkpt lat="48.56583" lon="-2.76506">
        <ele>45.2</ele>
        <time>2026-01-25T09:51:23Z</time>
      </trkpt>
      <trkpt lat="48.56585" lon="-2.7651">
        <ele>45.2</ele>
        <time>2026-01-25T09:51:24Z</time>
      </trkpt>
      <trkpt lat="48.56587" lon="-2.76514">
        <ele>45.2</ele>
        <time>2026-01-25T09:51:25Z</time>
      </trkpt>
      <trkpt lat="48.56589" lon="-2.76518">
        <ele>45.2</ele>
        <time>2026-01-25T09:51:26Z</time>
      </trkpt>
      <trkpt lat="48.56592" lon="-2.76522">
        <ele>45.4</ele>
        <time>2026-01-25T09:51:27Z</time>
      </trkpt>
      <trkpt lat="48.56594" lon="-2.76526">
        <ele>45.4</ele>
        <time>2026-01-25T09:51:28Z</time>
      </trkpt>
      <trkpt lat="48.56597" lon="-2.7653">
        <ele>45.4</ele>
        <time>2026-01-25T09:51:29Z</time>
      </trkpt>
      <trkpt lat="48.56599" lon="-2.76534">
        <ele>46</ele>
        <time>2026-01-25T09:51:30Z</time>
      </trkpt>
      <trkpt lat="48.56602" lon="-2.76538">
        <ele>46.4</ele>
        <time>2026-01-25T09:51:31Z</time>
      </trkpt>
      <trkpt lat="48.56604" lon="-2.76541">
        <ele>46.4</ele>
        <time>2026-01-25T09:51:32Z</time>
      </trkpt>
      <trkpt lat="48.56607" lon="-2.76544">
        <ele>46.4</ele>
        <time>2026-01-25T09:51:33Z</time>
      </trkpt>
      <trkpt lat="48.56609" lon="-2.76547">
        <ele>46.4</ele>
        <time>2026-01-25T09:51:34Z</time>
      </trkpt>
      <trkpt lat="48.56611" lon="-2.76552">
        <ele>46.8</ele>
        <time>2026-01-25T09:51:35Z</time>
      </trkpt>
      <trkpt lat="48.56611" lon="-2.76556">
        <ele>46.8</ele>
        <time>2026-01-25T09:51:36Z</time>
      </trkpt>
      <trkpt lat="48.56609" lon="-2.76557">
        <ele>46.8</ele>
        <time>2026-01-25T09:51:37Z</time>
      </trkpt>
      <trkpt lat="48.56607" lon="-2.76555">
        <ele>46.8</ele>
        <time>2026-01-25T09:51:38Z</time>
      </trkpt>
      <trkpt lat="48.56605" lon="-2.76551">
        <ele>46.2</ele>
        <time>2026-01-25T09:51:39Z</time>
      </trkpt>
      <trkpt lat="48.56604" lon="-2.76546">
        <ele>46.2</ele>
        <time>2026-01-25T09:51:40Z</time>
      </trkpt>
      <trkpt lat="48.56602" lon="-2.76542">
        <ele>46.2</ele>
        <time>2026-01-25T09:51:41Z</time>
      </trkpt>
      <trkpt lat="48.56601" lon="-2.76537">
        <ele>45.8</ele>
        <time>2026-01-25T09:51:42Z</time>
      </trkpt>
      <trkpt lat="48.56599" lon="-2.76532">
        <ele>45.6</ele>
        <time>2026-01-25T09:51:43Z</time>
      </trkpt>
      <trkpt lat="48.56597" lon="-2.76528">
        <ele>45.6</ele>
        <time>2026-01-25T09:51:44Z</time>
      </trkpt>
      <trkpt lat="48.56594" lon="-2.76524">
        <ele>45.6</ele>
        <time>2026-01-25T09:51:45Z</time>
      </trkpt>
      <trkpt lat="48.56591" lon="-2.76519">
        <ele>45.6</ele>
        <time>2026-01-25T09:51:46Z</time>
      </trkpt>
      <trkpt lat="48.56589" lon="-2.76514">
        <ele>44.2</ele>
        <time>2026-01-25T09:51:47Z</time>
      </trkpt>
      <trkpt lat="48.56586" lon="-2.7651">
        <ele>44.2</ele>
        <time>2026-01-25T09:51:48Z</time>
      </trkpt>
      <trkpt lat="48.56583" lon="-2.76505">
        <ele>44.2</ele>
        <time>2026-01-25T09:51:49Z</time>
      </trkpt>
      <trkpt lat="48.5658" lon="-2.76501">
        <ele>44.2</ele>
        <time>2026-01-25T09:51:50Z</time>
      </trkpt>
      <trkpt lat="48.56576" lon="-2.76497">
        <ele>43.6</ele>
        <time>2026-01-25T09:51:51Z</time>
      </trkpt>
      <trkpt lat="48.56573" lon="-2.76493">
        <ele>43.6</ele>
        <time>2026-01-25T09:51:52Z</time>
      </trkpt>
      <trkpt lat="48.5657" lon="-2.76489">
        <ele>43.6</ele>
        <time>2026-01-25T09:51:53Z</time>
      </trkpt>
      <trkpt lat="48.56567" lon="-2.76484">
        <ele>42.6</ele>
        <time>2026-01-25T09:51:54Z</time>
      </trkpt>
      <trkpt lat="48.56564" lon="-2.76478">
        <ele>42</ele>
        <time>2026-01-25T09:51:55Z</time>
      </trkpt>
      <trkpt lat="48.5656" lon="-2.76473">
        <ele>42</ele>
        <time>2026-01-25T09:51:56Z</time>
      </trkpt>
      <trkpt lat="48.56556" lon="-2.76469">
        <ele>42</ele>
        <time>2026-01-25T09:51:57Z</time>
      </trkpt>
      <trkpt lat="48.56552" lon="-2.76465">
        <ele>42</ele>
        <time>2026-01-25T09:51:58Z</time>
      </trkpt>
      <trkpt lat="48.56547" lon="-2.76463">
        <ele>42.2</ele>
        <time>2026-01-25T09:51:59Z</time>
      </trkpt>
      <trkpt lat="48.56543" lon="-2.76461">
        <ele>42.2</ele>
        <time>2026-01-25T09:52:00Z</time>
      </trkpt>
      <trkpt lat="48.56538" lon="-2.76461">
        <ele>42.2</ele>
        <time>2026-01-25T09:52:01Z</time>
      </trkpt>
      <trkpt lat="48.56534" lon="-2.7646">
        <ele>43</ele>
        <time>2026-01-25T09:52:02Z</time>
      </trkpt>
      <trkpt lat="48.56531" lon="-2.7646">
        <ele>44.2</ele>
        <time>2026-01-25T09:52:03Z</time>
      </trkpt>
      <trkpt lat="48.56528" lon="-2.7646">
        <ele>44.2</ele>
        <time>2026-01-25T09:52:04Z</time>
      </trkpt>
      <trkpt lat="48.56525" lon="-2.7646">
        <ele>44.2</ele>
        <time>2026-01-25T09:52:05Z</time>
      </trkpt>
      <trkpt lat="48.56523" lon="-2.7646">
        <ele>45.2</ele>
        <time>2026-01-25T09:52:06Z</time>
      </trkpt>
      <trkpt lat="48.56521" lon="-2.7646">
        <ele>45.8</ele>
        <time>2026-01-25T09:52:07Z</time>
      </trkpt>
      <trkpt lat="48.56519" lon="-2.76461">
        <ele>45.8</ele>
        <time>2026-01-25T09:52:08Z</time>
      </trkpt>
      <trkpt lat="48.56517" lon="-2.76461">
        <ele>45.8</ele>
        <time>2026-01-25T09:52:09Z</time>
      </trkpt>
      <trkpt lat="48.56514" lon="-2.76461">
        <ele>46.8</ele>
        <time>2026-01-25T09:52:10Z</time>
      </trkpt>
      <trkpt lat="48.56512" lon="-2.76462">
        <ele>47.2</ele>
        <time>2026-01-25T09:52:11Z</time>
      </trkpt>
      <trkpt lat="48.5651" lon="-2.76463">
        <ele>47.2</ele>
        <time>2026-01-25T09:52:12Z</time>
      </trkpt>
      <trkpt lat="48.56508" lon="-2.76464">
        <ele>47.2</ele>
        <time>2026-01-25T09:52:13Z</time>
      </trkpt>
      <trkpt lat="48.56506" lon="-2.76465">
        <ele>47.2</ele>
        <time>2026-01-25T09:52:14Z</time>
      </trkpt>
      <trkpt lat="48.56504" lon="-2.76466">
        <ele>47.8</ele>
        <time>2026-01-25T09:52:15Z</time>
      </trkpt>
      <trkpt lat="48.56502" lon="-2.76468">
        <ele>47.8</ele>
        <time>2026-01-25T09:52:16Z</time>
      </trkpt>
      <trkpt lat="48.565" lon="-2.76469">
        <ele>47.8</ele>
        <time>2026-01-25T09:52:17Z</time>
      </trkpt>
      <trkpt lat="48.56498" lon="-2.76471">
        <ele>48.8</ele>
        <time>2026-01-25T09:52:18Z</time>
      </trkpt>
      <trkpt lat="48.56496" lon="-2.76472">
        <ele>49.2</ele>
        <time>2026-01-25T09:52:19Z</time>
      </trkpt>
      <trkpt lat="48.56495" lon="-2.76474">
        <ele>49.2</ele>
        <time>2026-01-25T09:52:20Z</time>
      </trkpt>
      <trkpt lat="48.56493" lon="-2.76475">
        <ele>49.2</ele>
        <time>2026-01-25T09:52:21Z</time>
      </trkpt>
      <trkpt lat="48.56491" lon="-2.76477">
        <ele>49.2</ele>
        <time>2026-01-25T09:52:22Z</time>
      </trkpt>
      <trkpt lat="48.56489" lon="-2.76479">
        <ele>49.8</ele>
        <time>2026-01-25T09:52:23Z</time>
      </trkpt>
      <trkpt lat="48.56487" lon="-2.7648">
        <ele>49.8</ele>
        <time>2026-01-25T09:52:24Z</time>
      </trkpt>
      <trkpt lat="48.56486" lon="-2.76482">
        <ele>49.8</ele>
        <time>2026-01-25T09:52:25Z</time>
      </trkpt>
      <trkpt lat="48.56484" lon="-2.76483">
        <ele>50.8</ele>
        <time>2026-01-25T09:52:26Z</time>
      </trkpt>
      <trkpt lat="48.56482" lon="-2.76485">
        <ele>51.2</ele>
        <time>2026-01-25T09:52:27Z</time>
      </trkpt>
      <trkpt lat="48.5648" lon="-2.76486">
        <ele>51.2</ele>
        <time>2026-01-25T09:52:28Z</time>
      </trkpt>
      <trkpt lat="48.56478" lon="-2.76488">
        <ele>51.2</ele>
        <time>2026-01-25T09:52:29Z</time>
      </trkpt>
      <trkpt lat="48.56476" lon="-2.7649">
        <ele>51.2</ele>
        <time>2026-01-25T09:52:30Z</time>
      </trkpt>
      <trkpt lat="48.56475" lon="-2.76492">
        <ele>51.8</ele>
        <time>2026-01-25T09:52:31Z</time>
      </trkpt>
      <trkpt lat="48.56473" lon="-2.76494">
        <ele>51.8</ele>
        <time>2026-01-25T09:52:32Z</time>
      </trkpt>
      <trkpt lat="48.56472" lon="-2.76496">
        <ele>51.8</ele>
        <time>2026-01-25T09:52:33Z</time>
      </trkpt>
      <trkpt lat="48.5647" lon="-2.76497">
        <ele>52.8</ele>
        <time>2026-01-25T09:52:34Z</time>
      </trkpt>
      <trkpt lat="48.56468" lon="-2.76499">
        <ele>53.2</ele>
        <time>2026-01-25T09:52:35Z</time>
      </trkpt>
      <trkpt lat="48.56466" lon="-2.76501">
        <ele>53.2</ele>
        <time>2026-01-25T09:52:36Z</time>
      </trkpt>
      <trkpt lat="48.56465" lon="-2.76502">
        <ele>53.2</ele>
        <time>2026-01-25T09:52:37Z</time>
      </trkpt>
      <trkpt lat="48.56463" lon="-2.76504">
        <ele>54</ele>
        <time>2026-01-25T09:52:38Z</time>
      </trkpt>
      <trkpt lat="48.56461" lon="-2.76505">
        <ele>54.2</ele>
        <time>2026-01-25T09:52:39Z</time>
      </trkpt>
      <trkpt lat="48.56459" lon="-2.76507">
        <ele>54.2</ele>
        <time>2026-01-25T09:52:40Z</time>
      </trkpt>
      <trkpt lat="48.56457" lon="-2.76508">
        <ele>54.2</ele>
        <time>2026-01-25T09:52:41Z</time>
      </trkpt>
      <trkpt lat="48.56455" lon="-2.7651">
        <ele>55.2</ele>
        <time>2026-01-25T09:52:42Z</time>
      </trkpt>
      <trkpt lat="48.56452" lon="-2.7651">
        <ele>55.4</ele>
        <time>2026-01-25T09:52:43Z</time>
      </trkpt>
      <trkpt lat="48.5645" lon="-2.76511">
        <ele>55.4</ele>
        <time>2026-01-25T09:52:44Z</time>
      </trkpt>
      <trkpt lat="48.56448" lon="-2.76511">
        <ele>55.4</ele>
        <time>2026-01-25T09:52:45Z</time>
      </trkpt>
      <trkpt lat="48.56446" lon="-2.76512">
        <ele>56</ele>
        <time>2026-01-25T09:52:46Z</time>
      </trkpt>
      <trkpt lat="48.56444" lon="-2.76512">
        <ele>56.2</ele>
        <time>2026-01-25T09:52:47Z</time>
      </trkpt>
      <trkpt lat="48.56441" lon="-2.76512">
        <ele>56.2</ele>
        <time>2026-01-25T09:52:48Z</time>
      </trkpt>
      <trkpt lat="48.56439" lon="-2.76512">
        <ele>56.2</ele>
        <time>2026-01-25T09:52:49Z</time>
      </trkpt>
      <trkpt lat="48.56437" lon="-2.76512">
        <ele>57.2</ele>
        <time>2026-01-25T09:52:50Z</time>
      </trkpt>
      <trkpt lat="48.56435" lon="-2.76512">
        <ele>57.4</ele>
        <time>2026-01-25T09:52:51Z</time>
      </trkpt>
      <trkpt lat="48.56432" lon="-2.76511">
        <ele>57.4</ele>
        <time>2026-01-25T09:52:52Z</time>
      </trkpt>
      <trkpt lat="48.5643" lon="-2.76509">
        <ele>57.4</ele>
        <time>2026-01-25T09:52:53Z</time>
      </trkpt>
      <trkpt lat="48.56428" lon="-2.76508">
        <ele>57.8</ele>
        <time>2026-01-25T09:52:54Z</time>
      </trkpt>
      <trkpt lat="48.56425" lon="-2.76507">
        <ele>57.8</ele>
        <time>2026-01-25T09:52:55Z</time>
      </trkpt>
      <trkpt lat="48.56423" lon="-2.76505">
        <ele>57.8</ele>
        <time>2026-01-25T09:52:56Z</time>
      </trkpt>
      <trkpt lat="48.56421" lon="-2.76503">
        <ele>57.8</ele>
        <time>2026-01-25T09:52:57Z</time>
      </trkpt>
      <trkpt lat="48.56419" lon="-2.76501">
        <ele>57.8</ele>
        <time>2026-01-25T09:52:58Z</time>
      </trkpt>
      <trkpt lat="48.56416" lon="-2.76498">
        <ele>58</ele>
        <time>2026-01-25T09:52:59Z</time>
      </trkpt>
      <trkpt lat="48.56414" lon="-2.76495">
        <ele>58</ele>
        <time>2026-01-25T09:53:00Z</time>
      </trkpt>
      <trkpt lat="48.56412" lon="-2.76492">
        <ele>58</ele>
        <time>2026-01-25T09:53:01Z</time>
      </trkpt>
      <trkpt lat="48.5641" lon="-2.76488">
        <ele>58</ele>
        <time>2026-01-25T09:53:02Z</time>
      </trkpt>
      <trkpt lat="48.56408" lon="-2.76485">
        <ele>58.4</ele>
        <time>2026-01-25T09:53:03Z</time>
      </trkpt>
      <trkpt lat="48.56406" lon="-2.76481">
        <ele>58.4</ele>
        <time>2026-01-25T09:53:04Z</time>
      </trkpt>
      <trkpt lat="48.56405" lon="-2.76476">
        <ele>58.4</ele>
        <time>2026-01-25T09:53:05Z</time>
      </trkpt>
      <trkpt lat="48.56404" lon="-2.76472">
        <ele>58.8</ele>
        <time>2026-01-25T09:53:06Z</time>
      </trkpt>
      <trkpt lat="48.56403" lon="-2.76467">
        <ele>58.2</ele>
        <time>2026-01-25T09:53:07Z</time>
      </trkpt>
      <trkpt lat="48.56402" lon="-2.76461">
        <ele>58.2</ele>
        <time>2026-01-25T09:53:08Z</time>
      </trkpt>
      <trkpt lat="48.56402" lon="-2.76456">
        <ele>58.2</ele>
        <time>2026-01-25T09:53:09Z</time>
      </trkpt>
      <trkpt lat="48.56401" lon="-2.76452">
        <ele>58.6</ele>
        <time>2026-01-25T09:53:10Z</time>
      </trkpt>
      <trkpt lat="48.56401" lon="-2.76446">
        <ele>58.8</ele>
        <time>2026-01-25T09:53:11Z</time>
      </trkpt>
      <trkpt lat="48.56401" lon="-2.76442">
        <ele>58.8</ele>
        <time>2026-01-25T09:53:12Z</time>
      </trkpt>
      <trkpt lat="48.56402" lon="-2.76437">
        <ele>58.8</ele>
        <time>2026-01-25T09:53:13Z</time>
      </trkpt>
      <trkpt lat="48.56402" lon="-2.76432">
        <ele>58.2</ele>
        <time>2026-01-25T09:53:14Z</time>
      </trkpt>
      <trkpt lat="48.56403" lon="-2.76427">
        <ele>59</ele>
        <time>2026-01-25T09:53:15Z</time>
      </trkpt>
      <trkpt lat="48.56403" lon="-2.76422">
        <ele>59</ele>
        <time>2026-01-25T09:53:16Z</time>
      </trkpt>
      <trkpt lat="48.56404" lon="-2.76416">
        <ele>59</ele>
        <time>2026-01-25T09:53:17Z</time>
      </trkpt>
      <trkpt lat="48.56405" lon="-2.76411">
        <ele>58</ele>
        <time>2026-01-25T09:53:18Z</time>
      </trkpt>
      <trkpt lat="48.56407" lon="-2.76405">
        <ele>58.2</ele>
        <time>2026-01-25T09:53:19Z</time>
      </trkpt>
      <trkpt lat="48.56408" lon="-2.76399">
        <ele>58.2</ele>
        <time>2026-01-25T09:53:20Z</time>
      </trkpt>
      <trkpt lat="48.5641" lon="-2.76393">
        <ele>58.2</ele>
        <time>2026-01-25T09:53:21Z</time>
      </trkpt>
      <trkpt lat="48.56412" lon="-2.76387">
        <ele>58.2</ele>
        <time>2026-01-25T09:53:22Z</time>
      </trkpt>
      <trkpt lat="48.56413" lon="-2.7638">
        <ele>57</ele>
        <time>2026-01-25T09:53:23Z</time>
      </trkpt>
      <trkpt lat="48.56414" lon="-2.76373">
        <ele>57</ele>
        <time>2026-01-25T09:53:24Z</time>
      </trkpt>
      <trkpt lat="48.56416" lon="-2.76366">
        <ele>57</ele>
        <time>2026-01-25T09:53:25Z</time>
      </trkpt>
      <trkpt lat="48.56417" lon="-2.76358">
        <ele>56</ele>
        <time>2026-01-25T09:53:26Z</time>
      </trkpt>
      <trkpt lat="48.56419" lon="-2.76351">
        <ele>55.4</ele>
        <time>2026-01-25T09:53:27Z</time>
      </trkpt>
      <trkpt lat="48.5642" lon="-2.76343">
        <ele>55.4</ele>
        <time>2026-01-25T09:53:28Z</time>
      </trkpt>
      <trkpt lat="48.5642" lon="-2.76335">
        <ele>55.4</ele>
        <time>2026-01-25T09:53:29Z</time>
      </trkpt>
      <trkpt lat="48.56421" lon="-2.76326">
        <ele>54.4</ele>
        <time>2026-01-25T09:53:30Z</time>
      </trkpt>
      <trkpt lat="48.5642" lon="-2.76318">
        <ele>52.2</ele>
        <time>2026-01-25T09:53:31Z</time>
      </trkpt>
      <trkpt lat="48.5642" lon="-2.76309">
        <ele>52.2</ele>
        <time>2026-01-25T09:53:32Z</time>
      </trkpt>
      <trkpt lat="48.56418" lon="-2.76299">
        <ele>52.2</ele>
        <time>2026-01-25T09:53:33Z</time>
      </trkpt>
      <trkpt lat="48.56416" lon="-2.76289">
        <ele>51.2</ele>
        <time>2026-01-25T09:53:34Z</time>
      </trkpt>
      <trkpt lat="48.56413" lon="-2.7628">
        <ele>47.2</ele>
        <time>2026-01-25T09:53:35Z</time>
      </trkpt>
      <trkpt lat="48.5641" lon="-2.76271">
        <ele>47.2</ele>
        <time>2026-01-25T09:53:36Z</time>
      </trkpt>
      <trkpt lat="48.56407" lon="-2.76262">
        <ele>47.2</ele>
        <time>2026-01-25T09:53:37Z</time>
      </trkpt>
      <trkpt lat="48.56405" lon="-2.76253">
        <ele>46.2</ele>
        <time>2026-01-25T09:53:38Z</time>
      </trkpt>
      <trkpt lat="48.56404" lon="-2.76245">
        <ele>43.4</ele>
        <time>2026-01-25T09:53:39Z</time>
      </trkpt>
      <trkpt lat="48.56403" lon="-2.76237">
        <ele>43.4</ele>
        <time>2026-01-25T09:53:40Z</time>
      </trkpt>
      <trkpt lat="48.56403" lon="-2.7623">
        <ele>43.4</ele>
        <time>2026-01-25T09:53:41Z</time>
      </trkpt>
      <trkpt lat="48.56402" lon="-2.76223">
        <ele>44</ele>
        <time>2026-01-25T09:53:42Z</time>
      </trkpt>
      <trkpt lat="48.56401" lon="-2.76218">
        <ele>44</ele>
        <time>2026-01-25T09:53:43Z</time>
      </trkpt>
      <trkpt lat="48.564" lon="-2.76215">
        <ele>44</ele>
        <time>2026-01-25T09:53:44Z</time>
      </trkpt>
      <trkpt lat="48.564" lon="-2.76215">
        <ele>44</ele>
        <time>2026-01-25T09:53:45Z</time>
      </trkpt>
      <trkpt lat="48.564" lon="-2.76215">
        <ele>44.8</ele>
        <time>2026-01-25T09:53:46Z</time>
      </trkpt>
      <trkpt lat="48.56401" lon="-2.76216">
        <ele>44.6</ele>
        <time>2026-01-25T09:53:47Z</time>
      </trkpt>
      <trkpt lat="48.56401" lon="-2.76217">
        <ele>44.6</ele>
        <time>2026-01-25T09:53:48Z</time>
      </trkpt>
      <trkpt lat="48.56402" lon="-2.76218">
        <ele>44.6</ele>
        <time>2026-01-25T09:53:49Z</time>
      </trkpt>
      <trkpt lat="48.56404" lon="-2.7622">
        <ele>44.6</ele>
        <time>2026-01-25T09:53:50Z</time>
      </trkpt>
      <trkpt lat="48.56406" lon="-2.76221">
        <ele>43.6</ele>
        <time>2026-01-25T09:53:51Z</time>
      </trkpt>
      <trkpt lat="48.56408" lon="-2.76224">
        <ele>43.6</ele>
        <time>2026-01-25T09:53:52Z</time>
      </trkpt>
      <trkpt lat="48.56411" lon="-2.76226">
        <ele>43.6</ele>
        <time>2026-01-25T09:53:53Z</time>
      </trkpt>
      <trkpt lat="48.56415" lon="-2.76228">
        <ele>42.6</ele>
        <time>2026-01-25T09:53:54Z</time>
      </trkpt>
      <trkpt lat="48.56419" lon="-2.76231">
        <ele>41.4</ele>
        <time>2026-01-25T09:53:55Z</time>
      </trkpt>
      <trkpt lat="48.56424" lon="-2.76234">
        <ele>41.4</ele>
        <time>2026-01-25T09:53:56Z</time>
      </trkpt>
      <trkpt lat="48.56429" lon="-2.76237">
        <ele>41.4</ele>
        <time>2026-01-25T09:53:57Z</time>
      </trkpt>
      <trkpt lat="48.56435" lon="-2.76241">
        <ele>40.4</ele>
        <time>2026-01-25T09:53:58Z</time>
      </trkpt>
      <trkpt lat="48.5644" lon="-2.76244">
        <ele>37</ele>
        <time>2026-01-25T09:53:59Z</time>
      </trkpt>
      <trkpt lat="48.56445" lon="-2.76248">
        <ele>37</ele>
        <time>2026-01-25T09:54:00Z</time>
      </trkpt>
      <trkpt lat="48.5645" lon="-2.76252">
        <ele>37</ele>
        <time>2026-01-25T09:54:01Z</time>
      </trkpt>
      <trkpt lat="48.56457" lon="-2.76257">
        <ele>36</ele>
        <time>2026-01-25T09:54:02Z</time>
      </trkpt>
      <trkpt lat="48.56463" lon="-2.76261">
        <ele>32.2</ele>
        <time>2026-01-25T09:54:03Z</time>
      </trkpt>
      <trkpt lat="48.5647" lon="-2.76266">
        <ele>32.2</ele>
        <time>2026-01-25T09:54:04Z</time>
      </trkpt>
      <trkpt lat="48.56476" lon="-2.76271">
        <ele>32.2</ele>
        <time>2026-01-25T09:54:05Z</time>
      </trkpt>
      <trkpt lat="48.56483" lon="-2.76275">
        <ele>31.2</ele>
        <time>2026-01-25T09:54:06Z</time>
      </trkpt>
      <trkpt lat="48.56489" lon="-2.76279">
        <ele>28</ele>
        <time>2026-01-25T09:54:07Z</time>
      </trkpt>
      <trkpt lat="48.56495" lon="-2.76284">
        <ele>28</ele>
        <time>2026-01-25T09:54:08Z</time>
      </trkpt>
      <trkpt lat="48.56501" lon="-2.76288">
        <ele>28</ele>
        <time>2026-01-25T09:54:09Z</time>
      </trkpt>
      <trkpt lat="48.56507" lon="-2.76292">
        <ele>27</ele>
        <time>2026-01-25T09:54:10Z</time>
      </trkpt>
      <trkpt lat="48.56512" lon="-2.76296">
        <ele>24.8</ele>
        <time>2026-01-25T09:54:11Z</time>
      </trkpt>
      <trkpt lat="48.56516" lon="-2.76298">
        <ele>24.8</ele>
        <time>2026-01-25T09:54:12Z</time>
      </trkpt>
      <trkpt lat="48.5652" lon="-2.76299">
        <ele>24.8</ele>
        <time>2026-01-25T09:54:13Z</time>
      </trkpt>
      <trkpt lat="48.56523" lon="-2.76299">
        <ele>24.8</ele>
        <time>2026-01-25T09:54:14Z</time>
      </trkpt>
      <trkpt lat="48.56526" lon="-2.76295">
        <ele>23.4</ele>
        <time>2026-01-25T09:54:15Z</time>
      </trkpt>
      <trkpt lat="48.56527" lon="-2.76289">
        <ele>23.4</ele>
        <time>2026-01-25T09:54:16Z</time>
      </trkpt>
      <trkpt lat="48.56527" lon="-2.76283">
        <ele>23.4</ele>
        <time>2026-01-25T09:54:17Z</time>
      </trkpt>
      <trkpt lat="48.56525" lon="-2.76275">
        <ele>22.4</ele>
        <time>2026-01-25T09:54:18Z</time>
      </trkpt>
      <trkpt lat="48.56523" lon="-2.76267">
        <ele>19.4</ele>
        <time>2026-01-25T09:54:19Z</time>
      </trkpt>
      <trkpt lat="48.5652" lon="-2.76258">
        <ele>19.4</ele>
        <time>2026-01-25T09:54:20Z</time>
      </trkpt>
      <trkpt lat="48.56517" lon="-2.76249">
        <ele>19.4</ele>
        <time>2026-01-25T09:54:21Z</time>
      </trkpt>
      <trkpt lat="48.56514" lon="-2.76238">
        <ele>18.4</ele>
        <time>2026-01-25T09:54:22Z</time>
      </trkpt>
      <trkpt lat="48.56511" lon="-2.76227">
        <ele>16.2</ele>
        <time>2026-01-25T09:54:23Z</time>
      </trkpt>
      <trkpt lat="48.56508" lon="-2.76217">
        <ele>16.2</ele>
        <time>2026-01-25T09:54:24Z</time>
      </trkpt>
      <trkpt lat="48.56505" lon="-2.76207">
        <ele>16.2</ele>
        <time>2026-01-25T09:54:25Z</time>
      </trkpt>
      <trkpt lat="48.56503" lon="-2.76197">
        <ele>15.2</ele>
        <time>2026-01-25T09:54:26Z</time>
      </trkpt>
      <trkpt lat="48.56501" lon="-2.76189">
        <ele>12.8</ele>
        <time>2026-01-25T09:54:27Z</time>
      </trkpt>
      <trkpt lat="48.56499" lon="-2.76181">
        <ele>12.8</ele>
        <time>2026-01-25T09:54:28Z</time>
      </trkpt>
      <trkpt lat="48.56497" lon="-2.76173">
        <ele>12.8</ele>
        <time>2026-01-25T09:54:29Z</time>
      </trkpt>
      <trkpt lat="48.56495" lon="-2.76165">
        <ele>12.8</ele>
        <time>2026-01-25T09:54:30Z</time>
      </trkpt>
      <trkpt lat="48.56492" lon="-2.76157">
        <ele>9.2</ele>
        <time>2026-01-25T09:54:31Z</time>
      </trkpt>
      <trkpt lat="48.56489" lon="-2.76147">
        <ele>9.2</ele>
        <time>2026-01-25T09:54:32Z</time>
      </trkpt>
      <trkpt lat="48.56486" lon="-2.76137">
        <ele>9.2</ele>
        <time>2026-01-25T09:54:33Z</time>
      </trkpt>
      <trkpt lat="48.56483" lon="-2.76127">
        <ele>9.2</ele>
        <time>2026-01-25T09:54:34Z</time>
      </trkpt>
      <trkpt lat="48.5648" lon="-2.76116">
        <ele>6.6</ele>
        <time>2026-01-25T09:54:35Z</time>
      </trkpt>
      <trkpt lat="48.56476" lon="-2.76104">
        <ele>6.6</ele>
        <time>2026-01-25T09:54:36Z</time>
      </trkpt>
      <trkpt lat="48.56473" lon="-2.76093">
        <ele>6.6</ele>
        <time>2026-01-25T09:54:37Z</time>
      </trkpt>
      <trkpt lat="48.56469" lon="-2.7608">
        <ele>5.6</ele>
        <time>2026-01-25T09:54:38Z</time>
      </trkpt>
      <trkpt lat="48.56466" lon="-2.76068">
        <ele>3.4</ele>
        <time>2026-01-25T09:54:39Z</time>
      </trkpt>
      <trkpt lat="48.56462" lon="-2.76055">
        <ele>3.4</ele>
        <time>2026-01-25T09:54:40Z</time>
      </trkpt>
      <trkpt lat="48.56459" lon="-2.76042">
        <ele>3.4</ele>
        <time>2026-01-25T09:54:41Z</time>
      </trkpt>
      <trkpt lat="48.56455" lon="-2.7603">
        <ele>2.4</ele>
        <time>2026-01-25T09:54:42Z</time>
      </trkpt>
      <trkpt lat="48.56452" lon="-2.76018">
        <ele>1.2</ele>
        <time>2026-01-25T09:54:43Z</time>
      </trkpt>
      <trkpt lat="48.56448" lon="-2.76005">
        <ele>1.2</ele>
        <time>2026-01-25T09:54:44Z</time>
      </trkpt>
      <trkpt lat="48.56445" lon="-2.75994">
        <ele>1.2</ele>
        <time>2026-01-25T09:54:45Z</time>
      </trkpt>
      <trkpt lat="48.56442" lon="-2.75982">
        <ele>1.2</ele>
        <time>2026-01-25T09:54:46Z</time>
      </trkpt>
      <trkpt lat="48.56438" lon="-2.75971">
        <ele>1.4</ele>
        <time>2026-01-25T09:54:47Z</time>
      </trkpt>
      <trkpt lat="48.56435" lon="-2.7596">
        <ele>1.4</ele>
        <time>2026-01-25T09:54:48Z</time>
      </trkpt>
      <trkpt lat="48.56432" lon="-2.7595">
        <ele>1.4</ele>
        <time>2026-01-25T09:54:49Z</time>
      </trkpt>
      <trkpt lat="48.5643" lon="-2.75941">
        <ele>2.4</ele>
        <time>2026-01-25T09:54:50Z</time>
      </trkpt>
      <trkpt lat="48.56428" lon="-2.75934">
        <ele>3</ele>
        <time>2026-01-25T09:54:51Z</time>
      </trkpt>
      <trkpt lat="48.56425" lon="-2.75928">
        <ele>3</ele>
        <time>2026-01-25T09:54:52Z</time>
      </trkpt>
      <trkpt lat="48.56421" lon="-2.75924">
        <ele>3</ele>
        <time>2026-01-25T09:54:53Z</time>
      </trkpt>
      <trkpt lat="48.56417" lon="-2.75923">
        <ele>4</ele>
        <time>2026-01-25T09:54:54Z</time>
      </trkpt>
      <trkpt lat="48.56412" lon="-2.75924">
        <ele>4</ele>
        <time>2026-01-25T09:54:55Z</time>
      </trkpt>
      <trkpt lat="48.56408" lon="-2.75926">
        <ele>4</ele>
        <time>2026-01-25T09:54:56Z</time>
      </trkpt>
      <trkpt lat="48.56403" lon="-2.7593">
        <ele>4</ele>
        <time>2026-01-25T09:54:57Z</time>
      </trkpt>
      <trkpt lat="48.56398" lon="-2.75933">
        <ele>4</ele>
        <time>2026-01-25T09:54:58Z</time>
      </trkpt>
      <trkpt lat="48.56394" lon="-2.75937">
        <ele>4</ele>
        <time>2026-01-25T09:54:59Z</time>
      </trkpt>
      <trkpt lat="48.56389" lon="-2.7594">
        <ele>5</ele>
        <time>2026-01-25T09:55:00Z</time>
      </trkpt>
      <trkpt lat="48.56384" lon="-2.75941">
        <ele>5</ele>
        <time>2026-01-25T09:55:01Z</time>
      </trkpt>
      <trkpt lat="48.5638" lon="-2.7594">
        <ele>6</ele>
        <time>2026-01-25T09:55:02Z</time>
      </trkpt>
      <trkpt lat="48.56376" lon="-2.75935">
        <ele>5.8</ele>
        <time>2026-01-25T09:55:03Z</time>
      </trkpt>
      <trkpt lat="48.56374" lon="-2.75929">
        <ele>5.8</ele>
        <time>2026-01-25T09:55:04Z</time>
      </trkpt>
      <trkpt lat="48.56372" lon="-2.75922">
        <ele>5.8</ele>
        <time>2026-01-25T09:55:05Z</time>
      </trkpt>
      <trkpt lat="48.5637" lon="-2.75915">
        <ele>5.2</ele>
        <time>2026-01-25T09:55:06Z</time>
      </trkpt>
      <trkpt lat="48.56368" lon="-2.75908">
        <ele>5.4</ele>
        <time>2026-01-25T09:55:07Z</time>
      </trkpt>
      <trkpt lat="48.56366" lon="-2.75901">
        <ele>5.4</ele>
        <time>2026-01-25T09:55:08Z</time>
      </trkpt>
      <trkpt lat="48.56364" lon="-2.75893">
        <ele>5.4</ele>
        <time>2026-01-25T09:55:09Z</time>
      </trkpt>
      <trkpt lat="48.56362" lon="-2.75885">
        <ele>5</ele>
        <time>2026-01-25T09:55:10Z</time>
      </trkpt>
      <trkpt lat="48.56359" lon="-2.75877">
        <ele>4.6</ele>
        <time>2026-01-25T09:55:11Z</time>
      </trkpt>
      <trkpt lat="48.56357" lon="-2.7587">
        <ele>4.6</ele>
        <time>2026-01-25T09:55:12Z</time>
      </trkpt>
      <trkpt lat="48.56355" lon="-2.75862">
        <ele>4.6</ele>
        <time>2026-01-25T09:55:13Z</time>
      </trkpt>
      <trkpt lat="48.56353" lon="-2.75854">
        <ele>4.6</ele>
        <time>2026-01-25T09:55:14Z</time>
      </trkpt>
      <trkpt lat="48.5635" lon="-2.75846">
        <ele>4.8</ele>
        <time>2026-01-25T09:55:15Z</time>
      </trkpt>
      <trkpt lat="48.56348" lon="-2.75838">
        <ele>4.8</ele>
        <time>2026-01-25T09:55:16Z</time>
      </trkpt>
      <trkpt lat="48.56346" lon="-2.75831">
        <ele>4.8</ele>
        <time>2026-01-25T09:55:17Z</time>
      </trkpt>
      <trkpt lat="48.56343" lon="-2.75823">
        <ele>4.8</ele>
        <time>2026-01-25T09:55:18Z</time>
      </trkpt>
      <trkpt lat="48.56341" lon="-2.75815">
        <ele>4.8</ele>
        <time>2026-01-25T09:55:19Z</time>
      </trkpt>
      <trkpt lat="48.56339" lon="-2.75807">
        <ele>4.8</ele>
        <time>2026-01-25T09:55:20Z</time>
      </trkpt>
      <trkpt lat="48.56337" lon="-2.75799">
        <ele>4.8</ele>
        <time>2026-01-25T09:55:21Z</time>
      </trkpt>
      <trkpt lat="48.56335" lon="-2.75792">
        <ele>4.8</ele>
        <time>2026-01-25T09:55:22Z</time>
      </trkpt>
      <trkpt lat="48.56332" lon="-2.75786">
        <ele>5.8</ele>
        <time>2026-01-25T09:55:23Z</time>
      </trkpt>
      <trkpt lat="48.56329" lon="-2.75781">
        <ele>5.8</ele>
        <time>2026-01-25T09:55:24Z</time>
      </trkpt>
      <trkpt lat="48.56328" lon="-2.75774">
        <ele>5.8</ele>
        <time>2026-01-25T09:55:25Z</time>
      </trkpt>
      <trkpt lat="48.56327" lon="-2.75768">
        <ele>5.8</ele>
        <time>2026-01-25T09:55:26Z</time>
      </trkpt>
      <trkpt lat="48.56325" lon="-2.75761">
        <ele>5.8</ele>
        <time>2026-01-25T09:55:27Z</time>
      </trkpt>
      <trkpt lat="48.56323" lon="-2.75754">
        <ele>5.8</ele>
        <time>2026-01-25T09:55:28Z</time>
      </trkpt>
      <trkpt lat="48.56322" lon="-2.75747">
        <ele>5.8</ele>
        <time>2026-01-25T09:55:29Z</time>
      </trkpt>
      <trkpt lat="48.5632" lon="-2.75741">
        <ele>5.8</ele>
        <time>2026-01-25T09:55:30Z</time>
      </trkpt>
      <trkpt lat="48.56318" lon="-2.75734">
        <ele>5.8</ele>
        <time>2026-01-25T09:55:31Z</time>
      </trkpt>
      <trkpt lat="48.56316" lon="-2.75727">
        <ele>5.8</ele>
        <time>2026-01-25T09:55:32Z</time>
      </trkpt>
      <trkpt lat="48.56314" lon="-2.7572">
        <ele>5.8</ele>
        <time>2026-01-25T09:55:33Z</time>
      </trkpt>
      <trkpt lat="48.56312" lon="-2.75713">
        <ele>6.4</ele>
        <time>2026-01-25T09:55:34Z</time>
      </trkpt>
      <trkpt lat="48.5631" lon="-2.75706">
        <ele>6.8</ele>
        <time>2026-01-25T09:55:35Z</time>
      </trkpt>
      <trkpt lat="48.56308" lon="-2.75699">
        <ele>6.8</ele>
        <time>2026-01-25T09:55:36Z</time>
      </trkpt>
      <trkpt lat="48.56306" lon="-2.75692">
        <ele>6.8</ele>
        <time>2026-01-25T09:55:37Z</time>
      </trkpt>
      <trkpt lat="48.56303" lon="-2.75685">
        <ele>6.8</ele>
        <time>2026-01-25T09:55:38Z</time>
      </trkpt>
      <trkpt lat="48.56302" lon="-2.75679">
        <ele>6.8</ele>
        <time>2026-01-25T09:55:39Z</time>
      </trkpt>
      <trkpt lat="48.563" lon="-2.75672">
        <ele>6.8</ele>
        <time>2026-01-25T09:55:40Z</time>
      </trkpt>
      <trkpt lat="48.56298" lon="-2.75665">
        <ele>6.8</ele>
        <time>2026-01-25T09:55:41Z</time>
      </trkpt>
      <trkpt lat="48.56296" lon="-2.75659">
        <ele>6.8</ele>
        <time>2026-01-25T09:55:42Z</time>
      </trkpt>
      <trkpt lat="48.56294" lon="-2.75653">
        <ele>7.2</ele>
        <time>2026-01-25T09:55:43Z</time>
      </trkpt>
      <trkpt lat="48.56292" lon="-2.75646">
        <ele>7.2</ele>
        <time>2026-01-25T09:55:44Z</time>
      </trkpt>
      <trkpt lat="48.5629" lon="-2.7564">
        <ele>7.2</ele>
        <time>2026-01-25T09:55:45Z</time>
      </trkpt>
      <trkpt lat="48.56289" lon="-2.75634">
        <ele>7.2</ele>
        <time>2026-01-25T09:55:46Z</time>
      </trkpt>
      <trkpt lat="48.56287" lon="-2.75628">
        <ele>8.2</ele>
        <time>2026-01-25T09:55:47Z</time>
      </trkpt>
      <trkpt lat="48.56284" lon="-2.75624">
        <ele>8.2</ele>
        <time>2026-01-25T09:55:48Z</time>
      </trkpt>
      <trkpt lat="48.56281" lon="-2.75622">
        <ele>8.2</ele>
        <time>2026-01-25T09:55:49Z</time>
      </trkpt>
      <trkpt lat="48.56278" lon="-2.75622">
        <ele>9</ele>
        <time>2026-01-25T09:55:50Z</time>
      </trkpt>
      <trkpt lat="48.56274" lon="-2.75623">
        <ele>9</ele>
        <time>2026-01-25T09:55:51Z</time>
      </trkpt>
      <trkpt lat="48.56271" lon="-2.75624">
        <ele>9</ele>
        <time>2026-01-25T09:55:52Z</time>
      </trkpt>
      <trkpt lat="48.56267" lon="-2.75625">
        <ele>9</ele>
        <time>2026-01-25T09:55:53Z</time>
      </trkpt>
      <trkpt lat="48.56263" lon="-2.75626">
        <ele>9.8</ele>
        <time>2026-01-25T09:55:54Z</time>
      </trkpt>
      <trkpt lat="48.5626" lon="-2.75626">
        <ele>10.4</ele>
        <time>2026-01-25T09:55:55Z</time>
      </trkpt>
      <trkpt lat="48.56256" lon="-2.75627">
        <ele>10.4</ele>
        <time>2026-01-25T09:55:56Z</time>
      </trkpt>
      <trkpt lat="48.56253" lon="-2.75628">
        <ele>10.4</ele>
        <time>2026-01-25T09:55:57Z</time>
      </trkpt>
      <trkpt lat="48.56249" lon="-2.75628">
        <ele>11.4</ele>
        <time>2026-01-25T09:55:58Z</time>
      </trkpt>
      <trkpt lat="48.56246" lon="-2.75629">
        <ele>11.4</ele>
        <time>2026-01-25T09:55:59Z</time>
      </trkpt>
      <trkpt lat="48.56242" lon="-2.7563">
        <ele>11.2</ele>
        <time>2026-01-25T09:56:00Z</time>
      </trkpt>
      <trkpt lat="48.56239" lon="-2.75631">
        <ele>11.2</ele>
        <time>2026-01-25T09:56:01Z</time>
      </trkpt>
      <trkpt lat="48.56236" lon="-2.75631">
        <ele>11.2</ele>
        <time>2026-01-25T09:56:02Z</time>
      </trkpt>
      <trkpt lat="48.56232" lon="-2.75632">
        <ele>12.4</ele>
        <time>2026-01-25T09:56:03Z</time>
      </trkpt>
      <trkpt lat="48.56229" lon="-2.75633">
        <ele>12.4</ele>
        <time>2026-01-25T09:56:04Z</time>
      </trkpt>
      <trkpt lat="48.56226" lon="-2.75634">
        <ele>12.4</ele>
        <time>2026-01-25T09:56:05Z</time>
      </trkpt>
      <trkpt lat="48.56224" lon="-2.75636">
        <ele>12.4</ele>
        <time>2026-01-25T09:56:06Z</time>
      </trkpt>
      <trkpt lat="48.56222" lon="-2.75637">
        <ele>13.2</ele>
        <time>2026-01-25T09:56:07Z</time>
      </trkpt>
      <trkpt lat="48.5622" lon="-2.75639">
        <ele>13.2</ele>
        <time>2026-01-25T09:56:08Z</time>
      </trkpt>
      <trkpt lat="48.56218" lon="-2.7564">
        <ele>13.2</ele>
        <time>2026-01-25T09:56:09Z</time>
      </trkpt>
      <trkpt lat="48.56216" lon="-2.7564">
        <ele>13.2</ele>
        <time>2026-01-25T09:56:10Z</time>
      </trkpt>
      <trkpt lat="48.56214" lon="-2.75641">
        <ele>14</ele>
        <time>2026-01-25T09:56:11Z</time>
      </trkpt>
      <trkpt lat="48.56212" lon="-2.75641">
        <ele>14</ele>
        <time>2026-01-25T09:56:12Z</time>
      </trkpt>
      <trkpt lat="48.5621" lon="-2.75642">
        <ele>14</ele>
        <time>2026-01-25T09:56:13Z</time>
      </trkpt>
      <trkpt lat="48.5621" lon="-2.75642">
        <ele>14.4</ele>
        <time>2026-01-25T09:56:14Z</time>
      </trkpt>
      <trkpt lat="48.56209" lon="-2.75642">
        <ele>14.6</ele>
        <time>2026-01-25T09:56:15Z</time>
      </trkpt>
      <trkpt lat="48.56209" lon="-2.75642">
        <ele>14.6</ele>
        <time>2026-01-25T09:56:16Z</time>
      </trkpt>
      <trkpt lat="48.56207" lon="-2.75639">
        <ele>14.6</ele>
        <time>2026-01-25T09:57:19Z</time>
      </trkpt>
      <trkpt lat="48.56205" lon="-2.75639">
        <ele>14.6</ele>
        <time>2026-01-25T09:57:20Z</time>
      </trkpt>
      <trkpt lat="48.56203" lon="-2.75638">
        <ele>14.6</ele>
        <time>2026-01-25T09:57:21Z</time>
      </trkpt>
      <trkpt lat="48.562" lon="-2.75637">
        <ele>14.6</ele>
        <time>2026-01-25T09:57:22Z</time>
      </trkpt>
      <trkpt lat="48.56197" lon="-2.75636">
        <ele>15.6</ele>
        <time>2026-01-25T09:57:23Z</time>
      </trkpt>
      <trkpt lat="48.56194" lon="-2.75636">
        <ele>15.6</ele>
        <time>2026-01-25T09:57:24Z</time>
      </trkpt>
      <trkpt lat="48.56191" lon="-2.75636">
        <ele>15.6</ele>
        <time>2026-01-25T09:57:25Z</time>
      </trkpt>
      <trkpt lat="48.56188" lon="-2.75637">
        <ele>16</ele>
        <time>2026-01-25T09:57:26Z</time>
      </trkpt>
      <trkpt lat="48.56185" lon="-2.75638">
        <ele>16</ele>
        <time>2026-01-25T09:57:27Z</time>
      </trkpt>
      <trkpt lat="48.56182" lon="-2.75639">
        <ele>16</ele>
        <time>2026-01-25T09:57:28Z</time>
      </trkpt>
      <trkpt lat="48.56179" lon="-2.75639">
        <ele>16</ele>
        <time>2026-01-25T09:57:29Z</time>
      </trkpt>
      <trkpt lat="48.56177" lon="-2.7564">
        <ele>16.8</ele>
        <time>2026-01-25T09:57:30Z</time>
      </trkpt>
      <trkpt lat="48.56174" lon="-2.75641">
        <ele>17.4</ele>
        <time>2026-01-25T09:57:31Z</time>
      </trkpt>
      <trkpt lat="48.56172" lon="-2.75642">
        <ele>17.4</ele>
        <time>2026-01-25T09:57:32Z</time>
      </trkpt>
      <trkpt lat="48.56169" lon="-2.75643">
        <ele>17.4</ele>
        <time>2026-01-25T09:57:33Z</time>
      </trkpt>
      <trkpt lat="48.56167" lon="-2.75644">
        <ele>17.4</ele>
        <time>2026-01-25T09:57:34Z</time>
      </trkpt>
      <trkpt lat="48.56164" lon="-2.75644">
        <ele>18.2</ele>
        <time>2026-01-25T09:57:35Z</time>
      </trkpt>
      <trkpt lat="48.56162" lon="-2.75645">
        <ele>18.2</ele>
        <time>2026-01-25T09:57:36Z</time>
      </trkpt>
      <trkpt lat="48.56159" lon="-2.75646">
        <ele>18.2</ele>
        <time>2026-01-25T09:57:37Z</time>
      </trkpt>
      <trkpt lat="48.56157" lon="-2.75647">
        <ele>18.8</ele>
        <time>2026-01-25T09:57:38Z</time>
      </trkpt>
      <trkpt lat="48.56154" lon="-2.75648">
        <ele>19</ele>
        <time>2026-01-25T09:57:39Z</time>
      </trkpt>
      <trkpt lat="48.56152" lon="-2.75649">
        <ele>19</ele>
        <time>2026-01-25T09:57:40Z</time>
      </trkpt>
      <trkpt lat="48.56149" lon="-2.7565">
        <ele>19</ele>
        <time>2026-01-25T09:57:41Z</time>
      </trkpt>
      <trkpt lat="48.56147" lon="-2.75651">
        <ele>19.8</ele>
        <time>2026-01-25T09:57:42Z</time>
      </trkpt>
      <trkpt lat="48.56145" lon="-2.75653">
        <ele>20</ele>
        <time>2026-01-25T09:57:43Z</time>
      </trkpt>
      <trkpt lat="48.56142" lon="-2.75654">
        <ele>20</ele>
        <time>2026-01-25T09:57:44Z</time>
      </trkpt>
      <trkpt lat="48.5614" lon="-2.75655">
        <ele>20</ele>
        <time>2026-01-25T09:57:45Z</time>
      </trkpt>
      <trkpt lat="48.56137" lon="-2.75656">
        <ele>20</ele>
        <time>2026-01-25T09:57:46Z</time>
      </trkpt>
      <trkpt lat="48.56135" lon="-2.75657">
        <ele>19.8</ele>
        <time>2026-01-25T09:57:47Z</time>
      </trkpt>
      <trkpt lat="48.56133" lon="-2.75658">
        <ele>19.8</ele>
        <time>2026-01-25T09:57:48Z</time>
      </trkpt>
      <trkpt lat="48.56131" lon="-2.7566">
        <ele>19.8</ele>
        <time>2026-01-25T09:57:49Z</time>
      </trkpt>
      <trkpt lat="48.56128" lon="-2.75661">
        <ele>20.6</ele>
        <time>2026-01-25T09:57:50Z</time>
      </trkpt>
      <trkpt lat="48.56126" lon="-2.75663">
        <ele>21</ele>
        <time>2026-01-25T09:57:51Z</time>
      </trkpt>
      <trkpt lat="48.56124" lon="-2.75664">
        <ele>21</ele>
        <time>2026-01-25T09:57:52Z</time>
      </trkpt>
      <trkpt lat="48.56121" lon="-2.75665">
        <ele>21</ele>
        <time>2026-01-25T09:57:53Z</time>
      </trkpt>
      <trkpt lat="48.56119" lon="-2.75666">
        <ele>21.4</ele>
        <time>2026-01-25T09:57:54Z</time>
      </trkpt>
      <trkpt lat="48.56117" lon="-2.75667">
        <ele>21.8</ele>
        <time>2026-01-25T09:57:55Z</time>
      </trkpt>
      <trkpt lat="48.56115" lon="-2.75667">
        <ele>21.8</ele>
        <time>2026-01-25T09:57:56Z</time>
      </trkpt>
      <trkpt lat="48.56113" lon="-2.75668">
        <ele>21.8</ele>
        <time>2026-01-25T09:57:57Z</time>
      </trkpt>
      <trkpt lat="48.56111" lon="-2.75669">
        <ele>22.6</ele>
        <time>2026-01-25T09:57:58Z</time>
      </trkpt>
      <trkpt lat="48.56109" lon="-2.75671">
        <ele>23</ele>
        <time>2026-01-25T09:57:59Z</time>
      </trkpt>
      <trkpt lat="48.56107" lon="-2.75671">
        <ele>23</ele>
        <time>2026-01-25T09:58:00Z</time>
      </trkpt>
      <trkpt lat="48.56105" lon="-2.75671">
        <ele>23</ele>
        <time>2026-01-25T09:58:01Z</time>
      </trkpt>
      <trkpt lat="48.56103" lon="-2.75672">
        <ele>23.6</ele>
        <time>2026-01-25T09:58:02Z</time>
      </trkpt>
      <trkpt lat="48.56101" lon="-2.75673">
        <ele>23.8</ele>
        <time>2026-01-25T09:58:03Z</time>
      </trkpt>
      <trkpt lat="48.56099" lon="-2.75674">
        <ele>23.8</ele>
        <time>2026-01-25T09:58:04Z</time>
      </trkpt>
      <trkpt lat="48.56098" lon="-2.75675">
        <ele>23.8</ele>
        <time>2026-01-25T09:58:05Z</time>
      </trkpt>
      <trkpt lat="48.56096" lon="-2.75676">
        <ele>24.8</ele>
        <time>2026-01-25T09:58:06Z</time>
      </trkpt>
      <trkpt lat="48.56094" lon="-2.75678">
        <ele>24.8</ele>
        <time>2026-01-25T09:58:07Z</time>
      </trkpt>
      <trkpt lat="48.56093" lon="-2.75679">
        <ele>24.8</ele>
        <time>2026-01-25T09:58:08Z</time>
      </trkpt>
      <trkpt lat="48.56091" lon="-2.75681">
        <ele>24.8</ele>
        <time>2026-01-25T09:58:09Z</time>
      </trkpt>
      <trkpt lat="48.56089" lon="-2.75683">
        <ele>24.8</ele>
        <time>2026-01-25T09:58:10Z</time>
      </trkpt>
      <trkpt lat="48.56087" lon="-2.75685">
        <ele>25.4</ele>
        <time>2026-01-25T09:58:11Z</time>
      </trkpt>
      <trkpt lat="48.56085" lon="-2.75687">
        <ele>25.4</ele>
        <time>2026-01-25T09:58:12Z</time>
      </trkpt>
      <trkpt lat="48.56084" lon="-2.75689">
        <ele>25.4</ele>
        <time>2026-01-25T09:58:13Z</time>
      </trkpt>
      <trkpt lat="48.56082" lon="-2.75691">
        <ele>26</ele>
        <time>2026-01-25T09:58:14Z</time>
      </trkpt>
      <trkpt lat="48.56079" lon="-2.75693">
        <ele>26.2</ele>
        <time>2026-01-25T09:58:15Z</time>
      </trkpt>
      <trkpt lat="48.56077" lon="-2.75696">
        <ele>26.2</ele>
        <time>2026-01-25T09:58:16Z</time>
      </trkpt>
      <trkpt lat="48.56075" lon="-2.75698">
        <ele>26.2</ele>
        <time>2026-01-25T09:58:17Z</time>
      </trkpt>
      <trkpt lat="48.56073" lon="-2.757">
        <ele>27.2</ele>
        <time>2026-01-25T09:58:18Z</time>
      </trkpt>
      <trkpt lat="48.56071" lon="-2.757">
        <ele>28.4</ele>
        <time>2026-01-25T09:58:19Z</time>
      </trkpt>
      <trkpt lat="48.5607" lon="-2.75703">
        <ele>28.4</ele>
        <time>2026-01-25T09:58:20Z</time>
      </trkpt>
      <trkpt lat="48.56068" lon="-2.75705">
        <ele>28.4</ele>
        <time>2026-01-25T09:58:21Z</time>
      </trkpt>
      <trkpt lat="48.56067" lon="-2.75707">
        <ele>28.2</ele>
        <time>2026-01-25T09:58:22Z</time>
      </trkpt>
      <trkpt lat="48.56065" lon="-2.7571">
        <ele>28.6</ele>
        <time>2026-01-25T09:58:23Z</time>
      </trkpt>
      <trkpt lat="48.56063" lon="-2.75712">
        <ele>28.6</ele>
        <time>2026-01-25T09:58:24Z</time>
      </trkpt>
      <trkpt lat="48.56062" lon="-2.75714">
        <ele>28.6</ele>
        <time>2026-01-25T09:58:25Z</time>
      </trkpt>
      <trkpt lat="48.5606" lon="-2.75716">
        <ele>28.6</ele>
        <time>2026-01-25T09:58:26Z</time>
      </trkpt>
      <trkpt lat="48.56058" lon="-2.75718">
        <ele>29.2</ele>
        <time>2026-01-25T09:58:27Z</time>
      </trkpt>
      <trkpt lat="48.56056" lon="-2.7572">
        <ele>29.2</ele>
        <time>2026-01-25T09:58:28Z</time>
      </trkpt>
      <trkpt lat="48.56053" lon="-2.75723">
        <ele>29.2</ele>
        <time>2026-01-25T09:58:29Z</time>
      </trkpt>
      <trkpt lat="48.56051" lon="-2.75725">
        <ele>29.2</ele>
        <time>2026-01-25T09:58:30Z</time>
      </trkpt>
      <trkpt lat="48.56049" lon="-2.75726">
        <ele>29.8</ele>
        <time>2026-01-25T09:58:31Z</time>
      </trkpt>
      <trkpt lat="48.56046" lon="-2.75728">
        <ele>29.8</ele>
        <time>2026-01-25T09:58:32Z</time>
      </trkpt>
      <trkpt lat="48.56044" lon="-2.7573">
        <ele>29.8</ele>
        <time>2026-01-25T09:58:33Z</time>
      </trkpt>
      <trkpt lat="48.56042" lon="-2.75732">
        <ele>30.6</ele>
        <time>2026-01-25T09:58:34Z</time>
      </trkpt>
      <trkpt lat="48.56039" lon="-2.75735">
        <ele>30.6</ele>
        <time>2026-01-25T09:58:35Z</time>
      </trkpt>
      <trkpt lat="48.56038" lon="-2.75738">
        <ele>30.6</ele>
        <time>2026-01-25T09:58:36Z</time>
      </trkpt>
      <trkpt lat="48.56035" lon="-2.7574">
        <ele>30.6</ele>
        <time>2026-01-25T09:58:37Z</time>
      </trkpt>
      <trkpt lat="48.56033" lon="-2.75743">
        <ele>30.8</ele>
        <time>2026-01-25T09:58:38Z</time>
      </trkpt>
      <trkpt lat="48.56031" lon="-2.75745">
        <ele>30.8</ele>
        <time>2026-01-25T09:58:39Z</time>
      </trkpt>
      <trkpt lat="48.56029" lon="-2.75746">
        <ele>30.8</ele>
        <time>2026-01-25T09:58:40Z</time>
      </trkpt>
      <trkpt lat="48.56026" lon="-2.75748">
        <ele>30.8</ele>
        <time>2026-01-25T09:58:41Z</time>
      </trkpt>
      <trkpt lat="48.56024" lon="-2.7575">
        <ele>31.8</ele>
        <time>2026-01-25T09:58:42Z</time>
      </trkpt>
      <trkpt lat="48.56022" lon="-2.75752">
        <ele>32.2</ele>
        <time>2026-01-25T09:58:43Z</time>
      </trkpt>
      <trkpt lat="48.56021" lon="-2.75754">
        <ele>32.2</ele>
        <time>2026-01-25T09:58:44Z</time>
      </trkpt>
      <trkpt lat="48.56019" lon="-2.75755">
        <ele>32.2</ele>
        <time>2026-01-25T09:58:45Z</time>
      </trkpt>
      <trkpt lat="48.56016" lon="-2.75758">
        <ele>32.2</ele>
        <time>2026-01-25T09:58:46Z</time>
      </trkpt>
      <trkpt lat="48.56014" lon="-2.7576">
        <ele>32.8</ele>
        <time>2026-01-25T09:58:47Z</time>
      </trkpt>
      <trkpt lat="48.56012" lon="-2.75761">
        <ele>32.8</ele>
        <time>2026-01-25T09:58:48Z</time>
      </trkpt>
      <trkpt lat="48.5601" lon="-2.75764">
        <ele>32.8</ele>
        <time>2026-01-25T09:58:49Z</time>
      </trkpt>
      <trkpt lat="48.56008" lon="-2.75766">
        <ele>33.6</ele>
        <time>2026-01-25T09:58:50Z</time>
      </trkpt>
      <trkpt lat="48.56007" lon="-2.75767">
        <ele>33.8</ele>
        <time>2026-01-25T09:58:51Z</time>
      </trkpt>
      <trkpt lat="48.56005" lon="-2.75769">
        <ele>33.8</ele>
        <time>2026-01-25T09:58:52Z</time>
      </trkpt>
      <trkpt lat="48.56003" lon="-2.75771">
        <ele>33.8</ele>
        <time>2026-01-25T09:58:53Z</time>
      </trkpt>
      <trkpt lat="48.56001" lon="-2.75774">
        <ele>34.4</ele>
        <time>2026-01-25T09:58:54Z</time>
      </trkpt>
      <trkpt lat="48.55999" lon="-2.75774">
        <ele>34.6</ele>
        <time>2026-01-25T09:58:55Z</time>
      </trkpt>
      <trkpt lat="48.55997" lon="-2.75776">
        <ele>34.6</ele>
        <time>2026-01-25T09:58:56Z</time>
      </trkpt>
      <trkpt lat="48.55995" lon="-2.75777">
        <ele>34.6</ele>
        <time>2026-01-25T09:58:57Z</time>
      </trkpt>
      <trkpt lat="48.55993" lon="-2.75779">
        <ele>34.6</ele>
        <time>2026-01-25T09:58:58Z</time>
      </trkpt>
      <trkpt lat="48.55991" lon="-2.7578">
        <ele>35</ele>
        <time>2026-01-25T09:58:59Z</time>
      </trkpt>
      <trkpt lat="48.55989" lon="-2.75782">
        <ele>35</ele>
        <time>2026-01-25T09:59:00Z</time>
      </trkpt>
      <trkpt lat="48.55987" lon="-2.75783">
        <ele>35</ele>
        <time>2026-01-25T09:59:01Z</time>
      </trkpt>
      <trkpt lat="48.55985" lon="-2.75785">
        <ele>35.8</ele>
        <time>2026-01-25T09:59:02Z</time>
      </trkpt>
      <trkpt lat="48.55983" lon="-2.75787">
        <ele>35.8</ele>
        <time>2026-01-25T09:59:03Z</time>
      </trkpt>
      <trkpt lat="48.55981" lon="-2.75789">
        <ele>35.8</ele>
        <time>2026-01-25T09:59:04Z</time>
      </trkpt>
      <trkpt lat="48.55979" lon="-2.75791">
        <ele>35.8</ele>
        <time>2026-01-25T09:59:05Z</time>
      </trkpt>
      <trkpt lat="48.55976" lon="-2.75793">
        <ele>36.6</ele>
        <time>2026-01-25T09:59:06Z</time>
      </trkpt>
      <trkpt lat="48.55974" lon="-2.75796">
        <ele>37.2</ele>
        <time>2026-01-25T09:59:07Z</time>
      </trkpt>
      <trkpt lat="48.55972" lon="-2.75797">
        <ele>37.2</ele>
        <time>2026-01-25T09:59:08Z</time>
      </trkpt>
      <trkpt lat="48.5597" lon="-2.758">
        <ele>37.2</ele>
        <time>2026-01-25T09:59:09Z</time>
      </trkpt>
      <trkpt lat="48.55968" lon="-2.75803">
        <ele>37.2</ele>
        <time>2026-01-25T09:59:10Z</time>
      </trkpt>
      <trkpt lat="48.55966" lon="-2.75805">
        <ele>38</ele>
        <time>2026-01-25T09:59:11Z</time>
      </trkpt>
      <trkpt lat="48.55964" lon="-2.75807">
        <ele>38</ele>
        <time>2026-01-25T09:59:12Z</time>
      </trkpt>
      <trkpt lat="48.55962" lon="-2.7581">
        <ele>38</ele>
        <time>2026-01-25T09:59:13Z</time>
      </trkpt>
      <trkpt lat="48.5596" lon="-2.75812">
        <ele>38</ele>
        <time>2026-01-25T09:59:14Z</time>
      </trkpt>
      <trkpt lat="48.55958" lon="-2.75814">
        <ele>38.8</ele>
        <time>2026-01-25T09:59:15Z</time>
      </trkpt>
      <trkpt lat="48.55956" lon="-2.75815">
        <ele>38.8</ele>
        <time>2026-01-25T09:59:16Z</time>
      </trkpt>
      <trkpt lat="48.55954" lon="-2.75817">
        <ele>38.8</ele>
        <time>2026-01-25T09:59:17Z</time>
      </trkpt>
      <trkpt lat="48.55952" lon="-2.75819">
        <ele>39.6</ele>
        <time>2026-01-25T09:59:18Z</time>
      </trkpt>
      <trkpt lat="48.5595" lon="-2.75821">
        <ele>40</ele>
        <time>2026-01-25T09:59:19Z</time>
      </trkpt>
      <trkpt lat="48.55948" lon="-2.75823">
        <ele>40</ele>
        <time>2026-01-25T09:59:20Z</time>
      </trkpt>
      <trkpt lat="48.55945" lon="-2.75824">
        <ele>40</ele>
        <time>2026-01-25T09:59:21Z</time>
      </trkpt>
      <trkpt lat="48.55943" lon="-2.75826">
        <ele>40</ele>
        <time>2026-01-25T09:59:22Z</time>
      </trkpt>
      <trkpt lat="48.55941" lon="-2.75828">
        <ele>40.6</ele>
        <time>2026-01-25T09:59:23Z</time>
      </trkpt>
      <trkpt lat="48.55938" lon="-2.75831">
        <ele>40.6</ele>
        <time>2026-01-25T09:59:24Z</time>
      </trkpt>
      <trkpt lat="48.55936" lon="-2.75832">
        <ele>40.6</ele>
        <time>2026-01-25T09:59:25Z</time>
      </trkpt>
      <trkpt lat="48.55934" lon="-2.75835">
        <ele>40.6</ele>
        <time>2026-01-25T09:59:26Z</time>
      </trkpt>
      <trkpt lat="48.55932" lon="-2.75837">
        <ele>41.4</ele>
        <time>2026-01-25T09:59:27Z</time>
      </trkpt>
      <trkpt lat="48.5593" lon="-2.75842">
        <ele>41.4</ele>
        <time>2026-01-25T09:59:28Z</time>
      </trkpt>
      <trkpt lat="48.55927" lon="-2.75846">
        <ele>41.4</ele>
        <time>2026-01-25T09:59:29Z</time>
      </trkpt>
      <trkpt lat="48.55925" lon="-2.7585">
        <ele>41.4</ele>
        <time>2026-01-25T09:59:30Z</time>
      </trkpt>
      <trkpt lat="48.55923" lon="-2.75852">
        <ele>42</ele>
        <time>2026-01-25T09:59:31Z</time>
      </trkpt>
      <trkpt lat="48.55921" lon="-2.75854">
        <ele>42</ele>
        <time>2026-01-25T09:59:32Z</time>
      </trkpt>
      <trkpt lat="48.55919" lon="-2.75857">
        <ele>42</ele>
        <time>2026-01-25T09:59:33Z</time>
      </trkpt>
      <trkpt lat="48.55917" lon="-2.75859">
        <ele>42</ele>
        <time>2026-01-25T09:59:34Z</time>
      </trkpt>
      <trkpt lat="48.55915" lon="-2.75861">
        <ele>43</ele>
        <time>2026-01-25T09:59:35Z</time>
      </trkpt>
      <trkpt lat="48.55913" lon="-2.75864">
        <ele>43</ele>
        <time>2026-01-25T09:59:36Z</time>
      </trkpt>
      <trkpt lat="48.55911" lon="-2.75866">
        <ele>43</ele>
        <time>2026-01-25T09:59:37Z</time>
      </trkpt>
      <trkpt lat="48.55909" lon="-2.75869">
        <ele>43</ele>
        <time>2026-01-25T09:59:38Z</time>
      </trkpt>
      <trkpt lat="48.55908" lon="-2.75871">
        <ele>43.2</ele>
        <time>2026-01-25T09:59:39Z</time>
      </trkpt>
      <trkpt lat="48.55906" lon="-2.75874">
        <ele>43.2</ele>
        <time>2026-01-25T09:59:40Z</time>
      </trkpt>
      <trkpt lat="48.55904" lon="-2.75876">
        <ele>43.2</ele>
        <time>2026-01-25T09:59:41Z</time>
      </trkpt>
      <trkpt lat="48.55902" lon="-2.75878">
        <ele>43.8</ele>
        <time>2026-01-25T09:59:42Z</time>
      </trkpt>
      <trkpt lat="48.559" lon="-2.75881">
        <ele>44</ele>
        <time>2026-01-25T09:59:43Z</time>
      </trkpt>
      <trkpt lat="48.55898" lon="-2.75884">
        <ele>44</ele>
        <time>2026-01-25T09:59:44Z</time>
      </trkpt>
      <trkpt lat="48.55896" lon="-2.75887">
        <ele>44</ele>
        <time>2026-01-25T09:59:45Z</time>
      </trkpt>
      <trkpt lat="48.55895" lon="-2.75889">
        <ele>44.8</ele>
        <time>2026-01-25T09:59:46Z</time>
      </trkpt>
      <trkpt lat="48.55893" lon="-2.75892">
        <ele>45.6</ele>
        <time>2026-01-25T09:59:47Z</time>
      </trkpt>
      <trkpt lat="48.55891" lon="-2.75894">
        <ele>45.6</ele>
        <time>2026-01-25T09:59:48Z</time>
      </trkpt>
      <trkpt lat="48.5589" lon="-2.75897">
        <ele>45.6</ele>
        <time>2026-01-25T09:59:49Z</time>
      </trkpt>
      <trkpt lat="48.55888" lon="-2.75899">
        <ele>45.6</ele>
        <time>2026-01-25T09:59:50Z</time>
      </trkpt>
      <trkpt lat="48.55887" lon="-2.75903">
        <ele>46.6</ele>
        <time>2026-01-25T09:59:51Z</time>
      </trkpt>
      <trkpt lat="48.55885" lon="-2.75906">
        <ele>46.6</ele>
        <time>2026-01-25T09:59:52Z</time>
      </trkpt>
      <trkpt lat="48.55884" lon="-2.75908">
        <ele>46.6</ele>
        <time>2026-01-25T09:59:53Z</time>
      </trkpt>
      <trkpt lat="48.55883" lon="-2.7591">
        <ele>47</ele>
        <time>2026-01-25T09:59:54Z</time>
      </trkpt>
      <trkpt lat="48.55882" lon="-2.75914">
        <ele>47.6</ele>
        <time>2026-01-25T09:59:55Z</time>
      </trkpt>
      <trkpt lat="48.5588" lon="-2.75916">
        <ele>47.6</ele>
        <time>2026-01-25T09:59:56Z</time>
      </trkpt>
      <trkpt lat="48.55879" lon="-2.75919">
        <ele>47.6</ele>
        <time>2026-01-25T09:59:57Z</time>
      </trkpt>
      <trkpt lat="48.55877" lon="-2.75923">
        <ele>48.2</ele>
        <time>2026-01-25T09:59:58Z</time>
      </trkpt>
      <trkpt lat="48.55876" lon="-2.75925">
        <ele>48.2</ele>
        <time>2026-01-25T09:59:59Z</time>
      </trkpt>
      <trkpt lat="48.55874" lon="-2.75928">
        <ele>48.2</ele>
        <time>2026-01-25T10:00:00Z</time>
      </trkpt>
      <trkpt lat="48.55873" lon="-2.75932">
        <ele>48.2</ele>
        <time>2026-01-25T10:00:01Z</time>
      </trkpt>
      <trkpt lat="48.55872" lon="-2.75935">
        <ele>49</ele>
        <time>2026-01-25T10:00:02Z</time>
      </trkpt>
      <trkpt lat="48.5587" lon="-2.75939">
        <ele>49.2</ele>
        <time>2026-01-25T10:00:03Z</time>
      </trkpt>
      <trkpt lat="48.55869" lon="-2.75941">
        <ele>49.2</ele>
        <time>2026-01-25T10:00:04Z</time>
      </trkpt>
      <trkpt lat="48.55867" lon="-2.75945">
        <ele>49.2</ele>
        <time>2026-01-25T10:00:05Z</time>
      </trkpt>
      <trkpt lat="48.55866" lon="-2.75948">
        <ele>49.8</ele>
        <time>2026-01-25T10:00:06Z</time>
      </trkpt>
      <trkpt lat="48.55864" lon="-2.75951">
        <ele>50</ele>
        <time>2026-01-25T10:00:07Z</time>
      </trkpt>
      <trkpt lat="48.55863" lon="-2.75955">
        <ele>50</ele>
        <time>2026-01-25T10:00:08Z</time>
      </trkpt>
      <trkpt lat="48.55862" lon="-2.75958">
        <ele>50</ele>
        <time>2026-01-25T10:00:09Z</time>
      </trkpt>
      <trkpt lat="48.55861" lon="-2.75961">
        <ele>50.6</ele>
        <time>2026-01-25T10:00:10Z</time>
      </trkpt>
      <trkpt lat="48.55859" lon="-2.75964">
        <ele>50.6</ele>
        <time>2026-01-25T10:00:11Z</time>
      </trkpt>
      <trkpt lat="48.55858" lon="-2.75967">
        <ele>50.6</ele>
        <time>2026-01-25T10:00:12Z</time>
      </trkpt>
      <trkpt lat="48.55856" lon="-2.7597">
        <ele>50.6</ele>
        <time>2026-01-25T10:00:13Z</time>
      </trkpt>
      <trkpt lat="48.55855" lon="-2.75974">
        <ele>51.4</ele>
        <time>2026-01-25T10:00:14Z</time>
      </trkpt>
      <trkpt lat="48.55854" lon="-2.75977">
        <ele>51.6</ele>
        <time>2026-01-25T10:00:15Z</time>
      </trkpt>
      <trkpt lat="48.55852" lon="-2.7598">
        <ele>51.6</ele>
        <time>2026-01-25T10:00:16Z</time>
      </trkpt>
      <trkpt lat="48.55851" lon="-2.75983">
        <ele>51.6</ele>
        <time>2026-01-25T10:00:17Z</time>
      </trkpt>
      <trkpt lat="48.55849" lon="-2.75987">
        <ele>51.8</ele>
        <time>2026-01-25T10:00:18Z</time>
      </trkpt>
      <trkpt lat="48.55848" lon="-2.7599">
        <ele>52.4</ele>
        <time>2026-01-25T10:00:19Z</time>
      </trkpt>
      <trkpt lat="48.55846" lon="-2.75993">
        <ele>52.4</ele>
        <time>2026-01-25T10:00:20Z</time>
      </trkpt>
      <trkpt lat="48.55845" lon="-2.75996">
        <ele>52.4</ele>
        <time>2026-01-25T10:00:21Z</time>
      </trkpt>
      <trkpt lat="48.55843" lon="-2.75999">
        <ele>52.4</ele>
        <time>2026-01-25T10:00:22Z</time>
      </trkpt>
      <trkpt lat="48.55842" lon="-2.76002">
        <ele>53.2</ele>
        <time>2026-01-25T10:00:23Z</time>
      </trkpt>
      <trkpt lat="48.55841" lon="-2.76006">
        <ele>53.2</ele>
        <time>2026-01-25T10:00:24Z</time>
      </trkpt>
      <trkpt lat="48.5584" lon="-2.7601">
        <ele>53.2</ele>
        <time>2026-01-25T10:00:25Z</time>
      </trkpt>
      <trkpt lat="48.55839" lon="-2.76013">
        <ele>54</ele>
        <time>2026-01-25T10:00:26Z</time>
      </trkpt>
      <trkpt lat="48.55836" lon="-2.76016">
        <ele>54</ele>
        <time>2026-01-25T10:00:27Z</time>
      </trkpt>
      <trkpt lat="48.55835" lon="-2.76019">
        <ele>54</ele>
        <time>2026-01-25T10:00:28Z</time>
      </trkpt>
      <trkpt lat="48.55834" lon="-2.76022">
        <ele>54</ele>
        <time>2026-01-25T10:00:29Z</time>
      </trkpt>
      <trkpt lat="48.55833" lon="-2.76025">
        <ele>54</ele>
        <time>2026-01-25T10:00:30Z</time>
      </trkpt>
      <trkpt lat="48.55831" lon="-2.76028">
        <ele>54.6</ele>
        <time>2026-01-25T10:00:31Z</time>
      </trkpt>
      <trkpt lat="48.5583" lon="-2.76031">
        <ele>54.6</ele>
        <time>2026-01-25T10:00:32Z</time>
      </trkpt>
      <trkpt lat="48.55829" lon="-2.76034">
        <ele>54.6</ele>
        <time>2026-01-25T10:00:33Z</time>
      </trkpt>
      <trkpt lat="48.55827" lon="-2.76038">
        <ele>54.6</ele>
        <time>2026-01-25T10:00:34Z</time>
      </trkpt>
      <trkpt lat="48.55826" lon="-2.76041">
        <ele>55.2</ele>
        <time>2026-01-25T10:00:35Z</time>
      </trkpt>
      <trkpt lat="48.55825" lon="-2.76044">
        <ele>55.2</ele>
        <time>2026-01-25T10:00:36Z</time>
      </trkpt>
      <trkpt lat="48.55823" lon="-2.76047">
        <ele>55.2</ele>
        <time>2026-01-25T10:00:37Z</time>
      </trkpt>
      <trkpt lat="48.55822" lon="-2.76051">
        <ele>56</ele>
        <time>2026-01-25T10:00:38Z</time>
      </trkpt>
      <trkpt lat="48.55821" lon="-2.76054">
        <ele>56.4</ele>
        <time>2026-01-25T10:00:39Z</time>
      </trkpt>
      <trkpt lat="48.55819" lon="-2.76057">
        <ele>56.4</ele>
        <time>2026-01-25T10:00:40Z</time>
      </trkpt>
      <trkpt lat="48.55818" lon="-2.7606">
        <ele>56.4</ele>
        <time>2026-01-25T10:00:41Z</time>
      </trkpt>
      <trkpt lat="48.55817" lon="-2.76063">
        <ele>57.2</ele>
        <time>2026-01-25T10:00:42Z</time>
      </trkpt>
      <trkpt lat="48.55816" lon="-2.76066">
        <ele>57.2</ele>
        <time>2026-01-25T10:00:43Z</time>
      </trkpt>
      <trkpt lat="48.55815" lon="-2.76069">
        <ele>57.2</ele>
        <time>2026-01-25T10:00:44Z</time>
      </trkpt>
      <trkpt lat="48.55814" lon="-2.76073">
        <ele>57.2</ele>
        <time>2026-01-25T10:00:45Z</time>
      </trkpt>
      <trkpt lat="48.55813" lon="-2.76076">
        <ele>58.2</ele>
        <time>2026-01-25T10:00:46Z</time>
      </trkpt>
      <trkpt lat="48.55812" lon="-2.7608">
        <ele>58.4</ele>
        <time>2026-01-25T10:00:47Z</time>
      </trkpt>
      <trkpt lat="48.55811" lon="-2.76083">
        <ele>58.4</ele>
        <time>2026-01-25T10:00:48Z</time>
      </trkpt>
      <trkpt lat="48.5581" lon="-2.76086">
        <ele>58.4</ele>
        <time>2026-01-25T10:00:49Z</time>
      </trkpt>
      <trkpt lat="48.55809" lon="-2.76089">
        <ele>59.4</ele>
        <time>2026-01-25T10:00:50Z</time>
      </trkpt>
      <trkpt lat="48.55808" lon="-2.76092">
        <ele>59.4</ele>
        <time>2026-01-25T10:00:51Z</time>
      </trkpt>
      <trkpt lat="48.55806" lon="-2.76095">
        <ele>59.4</ele>
        <time>2026-01-25T10:00:52Z</time>
      </trkpt>
      <trkpt lat="48.55806" lon="-2.76098">
        <ele>59.4</ele>
        <time>2026-01-25T10:00:53Z</time>
      </trkpt>
      <trkpt lat="48.55805" lon="-2.76102">
        <ele>59.4</ele>
        <time>2026-01-25T10:00:54Z</time>
      </trkpt>
      <trkpt lat="48.55804" lon="-2.76104">
        <ele>60</ele>
        <time>2026-01-25T10:00:55Z</time>
      </trkpt>
      <trkpt lat="48.55803" lon="-2.76107">
        <ele>60</ele>
        <time>2026-01-25T10:00:56Z</time>
      </trkpt>
      <trkpt lat="48.55802" lon="-2.7611">
        <ele>60</ele>
        <time>2026-01-25T10:00:57Z</time>
      </trkpt>
      <trkpt lat="48.55802" lon="-2.76111">
        <ele>60.4</ele>
        <time>2026-01-25T10:00:58Z</time>
      </trkpt>
      <trkpt lat="48.55801" lon="-2.76115">
        <ele>60.6</ele>
        <time>2026-01-25T10:00:59Z</time>
      </trkpt>
      <trkpt lat="48.558" lon="-2.76118">
        <ele>60.6</ele>
        <time>2026-01-25T10:01:00Z</time>
      </trkpt>
      <trkpt lat="48.55799" lon="-2.76122">
        <ele>60.6</ele>
        <time>2026-01-25T10:01:01Z</time>
      </trkpt>
      <trkpt lat="48.55798" lon="-2.76126">
        <ele>61.4</ele>
        <time>2026-01-25T10:01:02Z</time>
      </trkpt>
      <trkpt lat="48.55798" lon="-2.7613">
        <ele>61.2</ele>
        <time>2026-01-25T10:01:03Z</time>
      </trkpt>
      <trkpt lat="48.55796" lon="-2.76134">
        <ele>61.2</ele>
        <time>2026-01-25T10:01:04Z</time>
      </trkpt>
      <trkpt lat="48.55796" lon="-2.76137">
        <ele>61.2</ele>
        <time>2026-01-25T10:01:05Z</time>
      </trkpt>
      <trkpt lat="48.55795" lon="-2.76141">
        <ele>61.6</ele>
        <time>2026-01-25T10:01:06Z</time>
      </trkpt>
      <trkpt lat="48.55794" lon="-2.76145">
        <ele>62.4</ele>
        <time>2026-01-25T10:01:07Z</time>
      </trkpt>
      <trkpt lat="48.55792" lon="-2.76148">
        <ele>62.4</ele>
        <time>2026-01-25T10:01:08Z</time>
      </trkpt>
      <trkpt lat="48.55792" lon="-2.76153">
        <ele>62.4</ele>
        <time>2026-01-25T10:01:09Z</time>
      </trkpt>
      <trkpt lat="48.55791" lon="-2.76157">
        <ele>63</ele>
        <time>2026-01-25T10:01:10Z</time>
      </trkpt>
      <trkpt lat="48.5579" lon="-2.76161">
        <ele>62.6</ele>
        <time>2026-01-25T10:01:11Z</time>
      </trkpt>
      <trkpt lat="48.55789" lon="-2.76165">
        <ele>62.6</ele>
        <time>2026-01-25T10:01:12Z</time>
      </trkpt>
      <trkpt lat="48.55788" lon="-2.76169">
        <ele>62.6</ele>
        <time>2026-01-25T10:01:13Z</time>
      </trkpt>
      <trkpt lat="48.55787" lon="-2.76174">
        <ele>63.6</ele>
        <time>2026-01-25T10:01:14Z</time>
      </trkpt>
      <trkpt lat="48.55786" lon="-2.76178">
        <ele>63.6</ele>
        <time>2026-01-25T10:01:15Z</time>
      </trkpt>
      <trkpt lat="48.55785" lon="-2.76182">
        <ele>63.6</ele>
        <time>2026-01-25T10:01:16Z</time>
      </trkpt>
      <trkpt lat="48.55784" lon="-2.76186">
        <ele>63.6</ele>
        <time>2026-01-25T10:01:17Z</time>
      </trkpt>
      <trkpt lat="48.55783" lon="-2.7619">
        <ele>63.6</ele>
        <time>2026-01-25T10:01:18Z</time>
      </trkpt>
      <trkpt lat="48.55782" lon="-2.76193">
        <ele>64.4</ele>
        <time>2026-01-25T10:01:19Z</time>
      </trkpt>
      <trkpt lat="48.5578" lon="-2.76197">
        <ele>64.4</ele>
        <time>2026-01-25T10:01:20Z</time>
      </trkpt>
      <trkpt lat="48.55779" lon="-2.762">
        <ele>64.4</ele>
        <time>2026-01-25T10:01:21Z</time>
      </trkpt>
      <trkpt lat="48.55778" lon="-2.76204">
        <ele>65</ele>
        <time>2026-01-25T10:01:22Z</time>
      </trkpt>
      <trkpt lat="48.55776" lon="-2.76207">
        <ele>65.4</ele>
        <time>2026-01-25T10:01:23Z</time>
      </trkpt>
      <trkpt lat="48.55775" lon="-2.7621">
        <ele>65.4</ele>
        <time>2026-01-25T10:01:24Z</time>
      </trkpt>
      <trkpt lat="48.55774" lon="-2.76214">
        <ele>65.4</ele>
        <time>2026-01-25T10:01:25Z</time>
      </trkpt>
      <trkpt lat="48.55773" lon="-2.76217">
        <ele>65.4</ele>
        <time>2026-01-25T10:01:26Z</time>
      </trkpt>
      <trkpt lat="48.55771" lon="-2.76221">
        <ele>66</ele>
        <time>2026-01-25T10:01:27Z</time>
      </trkpt>
      <trkpt lat="48.5577" lon="-2.76225">
        <ele>66</ele>
        <time>2026-01-25T10:01:28Z</time>
      </trkpt>
      <trkpt lat="48.55768" lon="-2.76228">
        <ele>66</ele>
        <time>2026-01-25T10:01:29Z</time>
      </trkpt>
      <trkpt lat="48.55767" lon="-2.76231">
        <ele>66.6</ele>
        <time>2026-01-25T10:01:30Z</time>
      </trkpt>
      <trkpt lat="48.55765" lon="-2.76235">
        <ele>66.6</ele>
        <time>2026-01-25T10:01:31Z</time>
      </trkpt>
      <trkpt lat="48.55763" lon="-2.76239">
        <ele>66.6</ele>
        <time>2026-01-25T10:01:32Z</time>
      </trkpt>
      <trkpt lat="48.55762" lon="-2.76242">
        <ele>66.6</ele>
        <time>2026-01-25T10:01:33Z</time>
      </trkpt>
      <trkpt lat="48.5576" lon="-2.76246">
        <ele>67.6</ele>
        <time>2026-01-25T10:01:34Z</time>
      </trkpt>
      <trkpt lat="48.55759" lon="-2.76249">
        <ele>67.6</ele>
        <time>2026-01-25T10:01:35Z</time>
      </trkpt>
      <trkpt lat="48.55757" lon="-2.76252">
        <ele>67.6</ele>
        <time>2026-01-25T10:01:36Z</time>
      </trkpt>
      <trkpt lat="48.55756" lon="-2.76255">
        <ele>67.6</ele>
        <time>2026-01-25T10:01:37Z</time>
      </trkpt>
      <trkpt lat="48.55754" lon="-2.76258">
        <ele>68</ele>
        <time>2026-01-25T10:01:38Z</time>
      </trkpt>
      <trkpt lat="48.55753" lon="-2.7626">
        <ele>68</ele>
        <time>2026-01-25T10:01:39Z</time>
      </trkpt>
      <trkpt lat="48.55751" lon="-2.76263">
        <ele>68</ele>
        <time>2026-01-25T10:01:40Z</time>
      </trkpt>
      <trkpt lat="48.5575" lon="-2.76266">
        <ele>68</ele>
        <time>2026-01-25T10:01:41Z</time>
      </trkpt>
      <trkpt lat="48.55748" lon="-2.76269">
        <ele>68.8</ele>
        <time>2026-01-25T10:01:42Z</time>
      </trkpt>
      <trkpt lat="48.55746" lon="-2.76272">
        <ele>69.4</ele>
        <time>2026-01-25T10:01:43Z</time>
      </trkpt>
      <trkpt lat="48.55744" lon="-2.76275">
        <ele>69.4</ele>
        <time>2026-01-25T10:01:44Z</time>
      </trkpt>
      <trkpt lat="48.55743" lon="-2.76279">
        <ele>69.4</ele>
        <time>2026-01-25T10:01:45Z</time>
      </trkpt>
      <trkpt lat="48.55741" lon="-2.76283">
        <ele>69.6</ele>
        <time>2026-01-25T10:01:46Z</time>
      </trkpt>
      <trkpt lat="48.5574" lon="-2.76286">
        <ele>69.6</ele>
        <time>2026-01-25T10:01:47Z</time>
      </trkpt>
      <trkpt lat="48.55738" lon="-2.76289">
        <ele>69.6</ele>
        <time>2026-01-25T10:01:48Z</time>
      </trkpt>
      <trkpt lat="48.55736" lon="-2.76292">
        <ele>69.6</ele>
        <time>2026-01-25T10:01:49Z</time>
      </trkpt>
      <trkpt lat="48.55734" lon="-2.76296">
        <ele>70.6</ele>
        <time>2026-01-25T10:01:50Z</time>
      </trkpt>
      <trkpt lat="48.55732" lon="-2.76299">
        <ele>70</ele>
        <time>2026-01-25T10:01:51Z</time>
      </trkpt>
      <trkpt lat="48.5573" lon="-2.76301">
        <ele>70</ele>
        <time>2026-01-25T10:01:52Z</time>
      </trkpt>
      <trkpt lat="48.55728" lon="-2.76303">
        <ele>70</ele>
        <time>2026-01-25T10:01:53Z</time>
      </trkpt>
      <trkpt lat="48.55726" lon="-2.76305">
        <ele>71</ele>
        <time>2026-01-25T10:01:54Z</time>
      </trkpt>
      <trkpt lat="48.55725" lon="-2.76307">
        <ele>71.2</ele>
        <time>2026-01-25T10:01:55Z</time>
      </trkpt>
      <trkpt lat="48.55723" lon="-2.76309">
        <ele>71.2</ele>
        <time>2026-01-25T10:01:56Z</time>
      </trkpt>
      <trkpt lat="48.55721" lon="-2.76312">
        <ele>71.2</ele>
        <time>2026-01-25T10:01:57Z</time>
      </trkpt>
      <trkpt lat="48.55719" lon="-2.76315">
        <ele>71.8</ele>
        <time>2026-01-25T10:01:58Z</time>
      </trkpt>
      <trkpt lat="48.55717" lon="-2.76318">
        <ele>72.4</ele>
        <time>2026-01-25T10:01:59Z</time>
      </trkpt>
      <trkpt lat="48.55715" lon="-2.7632">
        <ele>72.4</ele>
        <time>2026-01-25T10:02:00Z</time>
      </trkpt>
      <trkpt lat="48.55713" lon="-2.76324">
        <ele>72.4</ele>
        <time>2026-01-25T10:02:01Z</time>
      </trkpt>
      <trkpt lat="48.55711" lon="-2.76327">
        <ele>72.4</ele>
        <time>2026-01-25T10:02:02Z</time>
      </trkpt>
      <trkpt lat="48.55709" lon="-2.76331">
        <ele>73</ele>
        <time>2026-01-25T10:02:03Z</time>
      </trkpt>
      <trkpt lat="48.55707" lon="-2.76334">
        <ele>73</ele>
        <time>2026-01-25T10:02:04Z</time>
      </trkpt>
      <trkpt lat="48.55705" lon="-2.76337">
        <ele>73</ele>
        <time>2026-01-25T10:02:05Z</time>
      </trkpt>
      <trkpt lat="48.55703" lon="-2.7634">
        <ele>73</ele>
        <time>2026-01-25T10:02:06Z</time>
      </trkpt>
      <trkpt lat="48.55702" lon="-2.76343">
        <ele>73.6</ele>
        <time>2026-01-25T10:02:07Z</time>
      </trkpt>
      <trkpt lat="48.55699" lon="-2.76346">
        <ele>73.6</ele>
        <time>2026-01-25T10:02:08Z</time>
      </trkpt>
      <trkpt lat="48.55697" lon="-2.7635">
        <ele>73.6</ele>
        <time>2026-01-25T10:02:09Z</time>
      </trkpt>
      <trkpt lat="48.55696" lon="-2.76353">
        <ele>74.2</ele>
        <time>2026-01-25T10:02:10Z</time>
      </trkpt>
      <trkpt lat="48.55694" lon="-2.76356">
        <ele>74.4</ele>
        <time>2026-01-25T10:02:11Z</time>
      </trkpt>
      <trkpt lat="48.55692" lon="-2.76359">
        <ele>74.4</ele>
        <time>2026-01-25T10:02:12Z</time>
      </trkpt>
      <trkpt lat="48.5569" lon="-2.76361">
        <ele>74.4</ele>
        <time>2026-01-25T10:02:13Z</time>
      </trkpt>
      <trkpt lat="48.55688" lon="-2.76364">
        <ele>75.2</ele>
        <time>2026-01-25T10:02:14Z</time>
      </trkpt>
      <trkpt lat="48.55686" lon="-2.76367">
        <ele>75.4</ele>
        <time>2026-01-25T10:02:15Z</time>
      </trkpt>
      <trkpt lat="48.55684" lon="-2.7637">
        <ele>75.4</ele>
        <time>2026-01-25T10:02:16Z</time>
      </trkpt>
      <trkpt lat="48.55682" lon="-2.76373">
        <ele>75.4</ele>
        <time>2026-01-25T10:02:17Z</time>
      </trkpt>
      <trkpt lat="48.55681" lon="-2.76376">
        <ele>76</ele>
        <time>2026-01-25T10:02:18Z</time>
      </trkpt>
      <trkpt lat="48.55679" lon="-2.7638">
        <ele>76.4</ele>
        <time>2026-01-25T10:02:19Z</time>
      </trkpt>
      <trkpt lat="48.55677" lon="-2.76383">
        <ele>76.4</ele>
        <time>2026-01-25T10:02:20Z</time>
      </trkpt>
      <trkpt lat="48.55675" lon="-2.76386">
        <ele>76.4</ele>
        <time>2026-01-25T10:02:21Z</time>
      </trkpt>
      <trkpt lat="48.55673" lon="-2.7639">
        <ele>76.8</ele>
        <time>2026-01-25T10:02:22Z</time>
      </trkpt>
      <trkpt lat="48.55672" lon="-2.76393">
        <ele>77.2</ele>
        <time>2026-01-25T10:02:23Z</time>
      </trkpt>
      <trkpt lat="48.5567" lon="-2.76396">
        <ele>77.2</ele>
        <time>2026-01-25T10:02:24Z</time>
      </trkpt>
      <trkpt lat="48.55668" lon="-2.76398">
        <ele>77.2</ele>
        <time>2026-01-25T10:02:25Z</time>
      </trkpt>
      <trkpt lat="48.55667" lon="-2.76401">
        <ele>78</ele>
        <time>2026-01-25T10:02:26Z</time>
      </trkpt>
      <trkpt lat="48.55665" lon="-2.76404">
        <ele>77.8</ele>
        <time>2026-01-25T10:02:27Z</time>
      </trkpt>
      <trkpt lat="48.55663" lon="-2.76407">
        <ele>77.8</ele>
        <time>2026-01-25T10:02:28Z</time>
      </trkpt>
      <trkpt lat="48.55661" lon="-2.7641">
        <ele>77.8</ele>
        <time>2026-01-25T10:02:29Z</time>
      </trkpt>
      <trkpt lat="48.5566" lon="-2.76413">
        <ele>78.4</ele>
        <time>2026-01-25T10:02:30Z</time>
      </trkpt>
      <trkpt lat="48.55658" lon="-2.76416">
        <ele>78.6</ele>
        <time>2026-01-25T10:02:31Z</time>
      </trkpt>
      <trkpt lat="48.55656" lon="-2.76419">
        <ele>78.6</ele>
        <time>2026-01-25T10:02:32Z</time>
      </trkpt>
      <trkpt lat="48.55655" lon="-2.76423">
        <ele>78.6</ele>
        <time>2026-01-25T10:02:33Z</time>
      </trkpt>
      <trkpt lat="48.55653" lon="-2.76426">
        <ele>79.6</ele>
        <time>2026-01-25T10:02:34Z</time>
      </trkpt>
      <trkpt lat="48.55651" lon="-2.76429">
        <ele>79</ele>
        <time>2026-01-25T10:02:35Z</time>
      </trkpt>
      <trkpt lat="48.5565" lon="-2.76433">
        <ele>79</ele>
        <time>2026-01-25T10:02:36Z</time>
      </trkpt>
      <trkpt lat="48.55648" lon="-2.76436">
        <ele>79</ele>
        <time>2026-01-25T10:02:37Z</time>
      </trkpt>
      <trkpt lat="48.55646" lon="-2.76439">
        <ele>80</ele>
        <time>2026-01-25T10:02:38Z</time>
      </trkpt>
      <trkpt lat="48.55645" lon="-2.76442">
        <ele>80.8</ele>
        <time>2026-01-25T10:02:39Z</time>
      </trkpt>
      <trkpt lat="48.55643" lon="-2.76446">
        <ele>80.8</ele>
        <time>2026-01-25T10:02:40Z</time>
      </trkpt>
      <trkpt lat="48.55641" lon="-2.76449">
        <ele>80.8</ele>
        <time>2026-01-25T10:02:41Z</time>
      </trkpt>
      <trkpt lat="48.5564" lon="-2.76452">
        <ele>81.4</ele>
        <time>2026-01-25T10:02:42Z</time>
      </trkpt>
      <trkpt lat="48.55638" lon="-2.76455">
        <ele>81.6</ele>
        <time>2026-01-25T10:02:43Z</time>
      </trkpt>
      <trkpt lat="48.55636" lon="-2.76458">
        <ele>81.6</ele>
        <time>2026-01-25T10:02:44Z</time>
      </trkpt>
      <trkpt lat="48.55634" lon="-2.76461">
        <ele>81.6</ele>
        <time>2026-01-25T10:02:45Z</time>
      </trkpt>
      <trkpt lat="48.55633" lon="-2.76464">
        <ele>81.8</ele>
        <time>2026-01-25T10:02:46Z</time>
      </trkpt>
      <trkpt lat="48.55631" lon="-2.76467">
        <ele>82.2</ele>
        <time>2026-01-25T10:02:47Z</time>
      </trkpt>
      <trkpt lat="48.55629" lon="-2.76469">
        <ele>82.2</ele>
        <time>2026-01-25T10:02:48Z</time>
      </trkpt>
      <trkpt lat="48.55628" lon="-2.76472">
        <ele>82.2</ele>
        <time>2026-01-25T10:02:49Z</time>
      </trkpt>
      <trkpt lat="48.55626" lon="-2.76475">
        <ele>82.2</ele>
        <time>2026-01-25T10:02:50Z</time>
      </trkpt>
      <trkpt lat="48.55624" lon="-2.76478">
        <ele>82.8</ele>
        <time>2026-01-25T10:02:51Z</time>
      </trkpt>
      <trkpt lat="48.55623" lon="-2.76481">
        <ele>82.8</ele>
        <time>2026-01-25T10:02:52Z</time>
      </trkpt>
      <trkpt lat="48.55621" lon="-2.76483">
        <ele>82.8</ele>
        <time>2026-01-25T10:02:53Z</time>
      </trkpt>
      <trkpt lat="48.5562" lon="-2.76486">
        <ele>83.6</ele>
        <time>2026-01-25T10:02:54Z</time>
      </trkpt>
      <trkpt lat="48.55619" lon="-2.76488">
        <ele>83.8</ele>
        <time>2026-01-25T10:02:55Z</time>
      </trkpt>
      <trkpt lat="48.55619" lon="-2.7649">
        <ele>83.8</ele>
        <time>2026-01-25T10:02:56Z</time>
      </trkpt>
      <trkpt lat="48.55619" lon="-2.76492">
        <ele>83.8</ele>
        <time>2026-01-25T10:02:57Z</time>
      </trkpt>
      <trkpt lat="48.55619" lon="-2.76492">
        <ele>83.8</ele>
        <time>2026-01-25T10:02:58Z</time>
      </trkpt>
      <trkpt lat="48.55619" lon="-2.76503">
        <ele>83.8</ele>
        <time>2026-01-25T10:04:22Z</time>
      </trkpt>
      <trkpt lat="48.55618" lon="-2.76506">
        <ele>83.6</ele>
        <time>2026-01-25T10:04:23Z</time>
      </trkpt>
      <trkpt lat="48.55616" lon="-2.7651">
        <ele>83.6</ele>
        <time>2026-01-25T10:04:24Z</time>
      </trkpt>
      <trkpt lat="48.55615" lon="-2.76513">
        <ele>83.6</ele>
        <time>2026-01-25T10:04:25Z</time>
      </trkpt>
      <trkpt lat="48.55613" lon="-2.76517">
        <ele>83.8</ele>
        <time>2026-01-25T10:04:26Z</time>
      </trkpt>
      <trkpt lat="48.55612" lon="-2.7652">
        <ele>84.4</ele>
        <time>2026-01-25T10:04:27Z</time>
      </trkpt>
      <trkpt lat="48.5561" lon="-2.76524">
        <ele>84.4</ele>
        <time>2026-01-25T10:04:28Z</time>
      </trkpt>
      <trkpt lat="48.55608" lon="-2.76527">
        <ele>84.4</ele>
        <time>2026-01-25T10:04:29Z</time>
      </trkpt>
      <trkpt lat="48.55607" lon="-2.76531">
        <ele>84.4</ele>
        <time>2026-01-25T10:04:30Z</time>
      </trkpt>
      <trkpt lat="48.55605" lon="-2.76535">
        <ele>85</ele>
        <time>2026-01-25T10:04:31Z</time>
      </trkpt>
      <trkpt lat="48.55603" lon="-2.76539">
        <ele>85</ele>
        <time>2026-01-25T10:04:32Z</time>
      </trkpt>
      <trkpt lat="48.55601" lon="-2.76544">
        <ele>85</ele>
        <time>2026-01-25T10:04:33Z</time>
      </trkpt>
      <trkpt lat="48.55599" lon="-2.76548">
        <ele>85</ele>
        <time>2026-01-25T10:04:34Z</time>
      </trkpt>
      <trkpt lat="48.55598" lon="-2.76552">
        <ele>86.2</ele>
        <time>2026-01-25T10:04:35Z</time>
      </trkpt>
      <trkpt lat="48.55596" lon="-2.76556">
        <ele>86.2</ele>
        <time>2026-01-25T10:04:36Z</time>
      </trkpt>
      <trkpt lat="48.55595" lon="-2.7656">
        <ele>86.2</ele>
        <time>2026-01-25T10:04:37Z</time>
      </trkpt>
      <trkpt lat="48.55594" lon="-2.76565">
        <ele>87</ele>
        <time>2026-01-25T10:04:38Z</time>
      </trkpt>
      <trkpt lat="48.55592" lon="-2.76569">
        <ele>87</ele>
        <time>2026-01-25T10:04:39Z</time>
      </trkpt>
      <trkpt lat="48.5559" lon="-2.76573">
        <ele>87</ele>
        <time>2026-01-25T10:04:40Z</time>
      </trkpt>
      <trkpt lat="48.55589" lon="-2.76578">
        <ele>87</ele>
        <time>2026-01-25T10:04:41Z</time>
      </trkpt>
      <trkpt lat="48.55587" lon="-2.76582">
        <ele>87.2</ele>
        <time>2026-01-25T10:04:42Z</time>
      </trkpt>
      <trkpt lat="48.55585" lon="-2.76586">
        <ele>87.6</ele>
        <time>2026-01-25T10:04:43Z</time>
      </trkpt>
      <trkpt lat="48.55584" lon="-2.7659">
        <ele>87.6</ele>
        <time>2026-01-25T10:04:44Z</time>
      </trkpt>
      <trkpt lat="48.55582" lon="-2.76594">
        <ele>87.6</ele>
        <time>2026-01-25T10:04:45Z</time>
      </trkpt>
      <trkpt lat="48.5558" lon="-2.76599">
        <ele>87.6</ele>
        <time>2026-01-25T10:04:46Z</time>
      </trkpt>
      <trkpt lat="48.55578" lon="-2.76603">
        <ele>88.4</ele>
        <time>2026-01-25T10:04:47Z</time>
      </trkpt>
      <trkpt lat="48.55577" lon="-2.76607">
        <ele>88.4</ele>
        <time>2026-01-25T10:04:48Z</time>
      </trkpt>
      <trkpt lat="48.55575" lon="-2.76611">
        <ele>88.4</ele>
        <time>2026-01-25T10:04:49Z</time>
      </trkpt>
      <trkpt lat="48.55573" lon="-2.76615">
        <ele>88.2</ele>
        <time>2026-01-25T10:04:50Z</time>
      </trkpt>
      <trkpt lat="48.55572" lon="-2.7662">
        <ele>88.8</ele>
        <time>2026-01-25T10:04:51Z</time>
      </trkpt>
      <trkpt lat="48.5557" lon="-2.76624">
        <ele>88.8</ele>
        <time>2026-01-25T10:04:52Z</time>
      </trkpt>
      <trkpt lat="48.55569" lon="-2.76628">
        <ele>88.8</ele>
        <time>2026-01-25T10:04:53Z</time>
      </trkpt>
      <trkpt lat="48.55567" lon="-2.76633">
        <ele>89.4</ele>
        <time>2026-01-25T10:04:54Z</time>
      </trkpt>
      <trkpt lat="48.55566" lon="-2.76638">
        <ele>89.6</ele>
        <time>2026-01-25T10:04:55Z</time>
      </trkpt>
      <trkpt lat="48.55564" lon="-2.76642">
        <ele>89.6</ele>
        <time>2026-01-25T10:04:56Z</time>
      </trkpt>
      <trkpt lat="48.55563" lon="-2.76647">
        <ele>89.6</ele>
        <time>2026-01-25T10:04:57Z</time>
      </trkpt>
      <trkpt lat="48.55561" lon="-2.76651">
        <ele>90.4</ele>
        <time>2026-01-25T10:04:58Z</time>
      </trkpt>
      <trkpt lat="48.5556" lon="-2.76656">
        <ele>90.4</ele>
        <time>2026-01-25T10:04:59Z</time>
      </trkpt>
      <trkpt lat="48.55558" lon="-2.7666">
        <ele>90.4</ele>
        <time>2026-01-25T10:05:00Z</time>
      </trkpt>
      <trkpt lat="48.55557" lon="-2.76664">
        <ele>90.4</ele>
        <time>2026-01-25T10:05:01Z</time>
      </trkpt>
      <trkpt lat="48.55555" lon="-2.76668">
        <ele>91.4</ele>
        <time>2026-01-25T10:05:02Z</time>
      </trkpt>
      <trkpt lat="48.55554" lon="-2.76673">
        <ele>91.8</ele>
        <time>2026-01-25T10:05:03Z</time>
      </trkpt>
      <trkpt lat="48.55552" lon="-2.76677">
        <ele>91.8</ele>
        <time>2026-01-25T10:05:04Z</time>
      </trkpt>
      <trkpt lat="48.55551" lon="-2.76682">
        <ele>91.8</ele>
        <time>2026-01-25T10:05:05Z</time>
      </trkpt>
      <trkpt lat="48.55549" lon="-2.76686">
        <ele>91.8</ele>
        <time>2026-01-25T10:05:06Z</time>
      </trkpt>
      <trkpt lat="48.55548" lon="-2.7669">
        <ele>92.2</ele>
        <time>2026-01-25T10:05:07Z</time>
      </trkpt>
      <trkpt lat="48.55546" lon="-2.76695">
        <ele>92.2</ele>
        <time>2026-01-25T10:05:08Z</time>
      </trkpt>
      <trkpt lat="48.55545" lon="-2.76699">
        <ele>92.2</ele>
        <time>2026-01-25T10:05:09Z</time>
      </trkpt>
      <trkpt lat="48.55543" lon="-2.76704">
        <ele>92.2</ele>
        <time>2026-01-25T10:05:10Z</time>
      </trkpt>
      <trkpt lat="48.55542" lon="-2.76708">
        <ele>93</ele>
        <time>2026-01-25T10:05:11Z</time>
      </trkpt>
      <trkpt lat="48.5554" lon="-2.76713">
        <ele>93</ele>
        <time>2026-01-25T10:05:12Z</time>
      </trkpt>
      <trkpt lat="48.55538" lon="-2.76717">
        <ele>93</ele>
        <time>2026-01-25T10:05:13Z</time>
      </trkpt>
      <trkpt lat="48.55537" lon="-2.76722">
        <ele>93</ele>
        <time>2026-01-25T10:05:14Z</time>
      </trkpt>
      <trkpt lat="48.55536" lon="-2.76727">
        <ele>93.2</ele>
        <time>2026-01-25T10:05:15Z</time>
      </trkpt>
      <trkpt lat="48.55534" lon="-2.76731">
        <ele>93.2</ele>
        <time>2026-01-25T10:05:16Z</time>
      </trkpt>
      <trkpt lat="48.55532" lon="-2.76736">
        <ele>93.2</ele>
        <time>2026-01-25T10:05:17Z</time>
      </trkpt>
      <trkpt lat="48.55531" lon="-2.76741">
        <ele>93.2</ele>
        <time>2026-01-25T10:05:18Z</time>
      </trkpt>
      <trkpt lat="48.55529" lon="-2.76746">
        <ele>93.8</ele>
        <time>2026-01-25T10:05:19Z</time>
      </trkpt>
      <trkpt lat="48.55528" lon="-2.76752">
        <ele>93.8</ele>
        <time>2026-01-25T10:05:20Z</time>
      </trkpt>
      <trkpt lat="48.55526" lon="-2.76757">
        <ele>93.8</ele>
        <time>2026-01-25T10:05:21Z</time>
      </trkpt>
      <trkpt lat="48.55525" lon="-2.76763">
        <ele>93.8</ele>
        <time>2026-01-25T10:05:22Z</time>
      </trkpt>
      <trkpt lat="48.55523" lon="-2.76769">
        <ele>93.8</ele>
        <time>2026-01-25T10:05:23Z</time>
      </trkpt>
      <trkpt lat="48.55522" lon="-2.76775">
        <ele>93.8</ele>
        <time>2026-01-25T10:05:24Z</time>
      </trkpt>
      <trkpt lat="48.5552" lon="-2.76781">
        <ele>93.8</ele>
        <time>2026-01-25T10:05:25Z</time>
      </trkpt>
      <trkpt lat="48.55519" lon="-2.76786">
        <ele>93.8</ele>
        <time>2026-01-25T10:05:26Z</time>
      </trkpt>
      <trkpt lat="48.55517" lon="-2.76792">
        <ele>94.4</ele>
        <time>2026-01-25T10:05:27Z</time>
      </trkpt>
      <trkpt lat="48.55515" lon="-2.76798">
        <ele>94.4</ele>
        <time>2026-01-25T10:05:28Z</time>
      </trkpt>
      <trkpt lat="48.55513" lon="-2.76804">
        <ele>94.4</ele>
        <time>2026-01-25T10:05:29Z</time>
      </trkpt>
      <trkpt lat="48.55512" lon="-2.7681">
        <ele>94.4</ele>
        <time>2026-01-25T10:05:30Z</time>
      </trkpt>
      <trkpt lat="48.5551" lon="-2.76816">
        <ele>94.8</ele>
        <time>2026-01-25T10:05:31Z</time>
      </trkpt>
      <trkpt lat="48.55509" lon="-2.76822">
        <ele>94.8</ele>
        <time>2026-01-25T10:05:32Z</time>
      </trkpt>
      <trkpt lat="48.55507" lon="-2.76827">
        <ele>94.8</ele>
        <time>2026-01-25T10:05:33Z</time>
      </trkpt>
      <trkpt lat="48.55506" lon="-2.76833">
        <ele>94.8</ele>
        <time>2026-01-25T10:05:34Z</time>
      </trkpt>
      <trkpt lat="48.55504" lon="-2.76839">
        <ele>94.8</ele>
        <time>2026-01-25T10:05:35Z</time>
      </trkpt>
      <trkpt lat="48.55503" lon="-2.76844">
        <ele>94.8</ele>
        <time>2026-01-25T10:05:36Z</time>
      </trkpt>
      <trkpt lat="48.55501" lon="-2.7685">
        <ele>94.8</ele>
        <time>2026-01-25T10:05:37Z</time>
      </trkpt>
      <trkpt lat="48.55499" lon="-2.76856">
        <ele>94.8</ele>
        <time>2026-01-25T10:05:38Z</time>
      </trkpt>
      <trkpt lat="48.55498" lon="-2.76862">
        <ele>95</ele>
        <time>2026-01-25T10:05:39Z</time>
      </trkpt>
      <trkpt lat="48.55496" lon="-2.76867">
        <ele>95</ele>
        <time>2026-01-25T10:05:40Z</time>
      </trkpt>
      <trkpt lat="48.55495" lon="-2.76873">
        <ele>95</ele>
        <time>2026-01-25T10:05:41Z</time>
      </trkpt>
      <trkpt lat="48.55493" lon="-2.76879">
        <ele>95</ele>
        <time>2026-01-25T10:05:42Z</time>
      </trkpt>
      <trkpt lat="48.55492" lon="-2.76885">
        <ele>95</ele>
        <time>2026-01-25T10:05:43Z</time>
      </trkpt>
      <trkpt lat="48.5549" lon="-2.76891">
        <ele>95</ele>
        <time>2026-01-25T10:05:44Z</time>
      </trkpt>
      <trkpt lat="48.55489" lon="-2.76897">
        <ele>95</ele>
        <time>2026-01-25T10:05:45Z</time>
      </trkpt>
      <trkpt lat="48.55487" lon="-2.76903">
        <ele>95.4</ele>
        <time>2026-01-25T10:05:46Z</time>
      </trkpt>
      <trkpt lat="48.55485" lon="-2.76909">
        <ele>95.6</ele>
        <time>2026-01-25T10:05:47Z</time>
      </trkpt>
      <trkpt lat="48.55484" lon="-2.76915">
        <ele>95.6</ele>
        <time>2026-01-25T10:05:48Z</time>
      </trkpt>
      <trkpt lat="48.55482" lon="-2.76921">
        <ele>95.6</ele>
        <time>2026-01-25T10:05:49Z</time>
      </trkpt>
      <trkpt lat="48.55481" lon="-2.76927">
        <ele>96.4</ele>
        <time>2026-01-25T10:05:50Z</time>
      </trkpt>
      <trkpt lat="48.55479" lon="-2.76933">
        <ele>96.6</ele>
        <time>2026-01-25T10:05:51Z</time>
      </trkpt>
      <trkpt lat="48.55477" lon="-2.76939">
        <ele>96.6</ele>
        <time>2026-01-25T10:05:52Z</time>
      </trkpt>
      <trkpt lat="48.55475" lon="-2.76945">
        <ele>96.6</ele>
        <time>2026-01-25T10:05:53Z</time>
      </trkpt>
      <trkpt lat="48.55473" lon="-2.76951">
        <ele>96.6</ele>
        <time>2026-01-25T10:05:54Z</time>
      </trkpt>
      <trkpt lat="48.55471" lon="-2.76956">
        <ele>97</ele>
        <time>2026-01-25T10:05:55Z</time>
      </trkpt>
      <trkpt lat="48.55469" lon="-2.76962">
        <ele>97</ele>
        <time>2026-01-25T10:05:56Z</time>
      </trkpt>
      <trkpt lat="48.55468" lon="-2.76968">
        <ele>97</ele>
        <time>2026-01-25T10:05:57Z</time>
      </trkpt>
      <trkpt lat="48.55466" lon="-2.76973">
        <ele>97</ele>
        <time>2026-01-25T10:05:58Z</time>
      </trkpt>
      <trkpt lat="48.55464" lon="-2.76979">
        <ele>97</ele>
        <time>2026-01-25T10:05:59Z</time>
      </trkpt>
      <trkpt lat="48.55462" lon="-2.76984">
        <ele>97</ele>
        <time>2026-01-25T10:06:00Z</time>
      </trkpt>
      <trkpt lat="48.5546" lon="-2.7699">
        <ele>97</ele>
        <time>2026-01-25T10:06:01Z</time>
      </trkpt>
      <trkpt lat="48.55458" lon="-2.76996">
        <ele>97.8</ele>
        <time>2026-01-25T10:06:02Z</time>
      </trkpt>
      <trkpt lat="48.55456" lon="-2.77001">
        <ele>98.6</ele>
        <time>2026-01-25T10:06:03Z</time>
      </trkpt>
      <trkpt lat="48.55453" lon="-2.77007">
        <ele>98.6</ele>
        <time>2026-01-25T10:06:04Z</time>
      </trkpt>
      <trkpt lat="48.55451" lon="-2.77012">
        <ele>98.6</ele>
        <time>2026-01-25T10:06:05Z</time>
      </trkpt>
      <trkpt lat="48.55449" lon="-2.77017">
        <ele>98.6</ele>
        <time>2026-01-25T10:06:06Z</time>
      </trkpt>
      <trkpt lat="48.55446" lon="-2.77022">
        <ele>98.4</ele>
        <time>2026-01-25T10:06:07Z</time>
      </trkpt>
      <trkpt lat="48.55444" lon="-2.77027">
        <ele>98.4</ele>
        <time>2026-01-25T10:06:08Z</time>
      </trkpt>
      <trkpt lat="48.55441" lon="-2.77032">
        <ele>98.4</ele>
        <time>2026-01-25T10:06:09Z</time>
      </trkpt>
      <trkpt lat="48.55439" lon="-2.77037">
        <ele>98.4</ele>
        <time>2026-01-25T10:06:10Z</time>
      </trkpt>
      <trkpt lat="48.55436" lon="-2.77042">
        <ele>99</ele>
        <time>2026-01-25T10:06:11Z</time>
      </trkpt>
      <trkpt lat="48.55434" lon="-2.77046">
        <ele>99</ele>
        <time>2026-01-25T10:06:12Z</time>
      </trkpt>
      <trkpt lat="48.55431" lon="-2.77051">
        <ele>99</ele>
        <time>2026-01-25T10:06:13Z</time>
      </trkpt>
      <trkpt lat="48.55428" lon="-2.77056">
        <ele>98.8</ele>
        <time>2026-01-25T10:06:14Z</time>
      </trkpt>
      <trkpt lat="48.55426" lon="-2.7706">
        <ele>99.2</ele>
        <time>2026-01-25T10:06:15Z</time>
      </trkpt>
      <trkpt lat="48.55423" lon="-2.77065">
        <ele>99.2</ele>
        <time>2026-01-25T10:06:16Z</time>
      </trkpt>
      <trkpt lat="48.5542" lon="-2.77069">
        <ele>99.2</ele>
        <time>2026-01-25T10:06:17Z</time>
      </trkpt>
      <trkpt lat="48.55417" lon="-2.77073">
        <ele>99</ele>
        <time>2026-01-25T10:06:18Z</time>
      </trkpt>
      <trkpt lat="48.55414" lon="-2.77077">
        <ele>99.2</ele>
        <time>2026-01-25T10:06:19Z</time>
      </trkpt>
      <trkpt lat="48.55411" lon="-2.77081">
        <ele>99.2</ele>
        <time>2026-01-25T10:06:20Z</time>
      </trkpt>
      <trkpt lat="48.55408" lon="-2.77085">
        <ele>99.2</ele>
        <time>2026-01-25T10:06:21Z</time>
      </trkpt>
      <trkpt lat="48.55404" lon="-2.77088">
        <ele>100.2</ele>
        <time>2026-01-25T10:06:22Z</time>
      </trkpt>
      <trkpt lat="48.55402" lon="-2.77092">
        <ele>100.2</ele>
        <time>2026-01-25T10:06:23Z</time>
      </trkpt>
      <trkpt lat="48.55399" lon="-2.77096">
        <ele>100.2</ele>
        <time>2026-01-25T10:06:24Z</time>
      </trkpt>
      <trkpt lat="48.55396" lon="-2.77099">
        <ele>100.2</ele>
        <time>2026-01-25T10:06:25Z</time>
      </trkpt>
      <trkpt lat="48.55394" lon="-2.77103">
        <ele>101.2</ele>
        <time>2026-01-25T10:06:26Z</time>
      </trkpt>
      <trkpt lat="48.55392" lon="-2.77106">
        <ele>101.4</ele>
        <time>2026-01-25T10:06:27Z</time>
      </trkpt>
      <trkpt lat="48.5539" lon="-2.77108">
        <ele>101.4</ele>
        <time>2026-01-25T10:06:28Z</time>
      </trkpt>
      <trkpt lat="48.55388" lon="-2.77112">
        <ele>101.4</ele>
        <time>2026-01-25T10:06:29Z</time>
      </trkpt>
      <trkpt lat="48.55387" lon="-2.77113">
        <ele>102</ele>
        <time>2026-01-25T10:06:30Z</time>
      </trkpt>
      <trkpt lat="48.55385" lon="-2.77114">
        <ele>102</ele>
        <time>2026-01-25T10:06:31Z</time>
      </trkpt>
      <trkpt lat="48.55384" lon="-2.77116">
        <ele>102</ele>
        <time>2026-01-25T10:06:32Z</time>
      </trkpt>
      <trkpt lat="48.55383" lon="-2.77117">
        <ele>100.8</ele>
        <time>2026-01-25T10:07:27Z</time>
      </trkpt>
      <trkpt lat="48.55382" lon="-2.77119">
        <ele>100.8</ele>
        <time>2026-01-25T10:07:28Z</time>
      </trkpt>
      <trkpt lat="48.55378" lon="-2.77122">
        <ele>100.8</ele>
        <time>2026-01-25T10:07:29Z</time>
      </trkpt>
      <trkpt lat="48.55374" lon="-2.77125">
        <ele>100.4</ele>
        <time>2026-01-25T10:07:30Z</time>
      </trkpt>
      <trkpt lat="48.55371" lon="-2.77129">
        <ele>100</ele>
        <time>2026-01-25T10:07:31Z</time>
      </trkpt>
      <trkpt lat="48.55367" lon="-2.77132">
        <ele>100</ele>
        <time>2026-01-25T10:07:32Z</time>
      </trkpt>
      <trkpt lat="48.55363" lon="-2.77136">
        <ele>100</ele>
        <time>2026-01-25T10:07:33Z</time>
      </trkpt>
      <trkpt lat="48.55358" lon="-2.7714">
        <ele>100</ele>
        <time>2026-01-25T10:07:34Z</time>
      </trkpt>
      <trkpt lat="48.55354" lon="-2.77143">
        <ele>100.4</ele>
        <time>2026-01-25T10:07:35Z</time>
      </trkpt>
      <trkpt lat="48.55349" lon="-2.77147">
        <ele>100.4</ele>
        <time>2026-01-25T10:07:36Z</time>
      </trkpt>
      <trkpt lat="48.55344" lon="-2.77151">
        <ele>100.4</ele>
        <time>2026-01-25T10:07:37Z</time>
      </trkpt>
      <trkpt lat="48.55339" lon="-2.77154">
        <ele>100.4</ele>
        <time>2026-01-25T10:07:38Z</time>
      </trkpt>
      <trkpt lat="48.55334" lon="-2.77157">
        <ele>100.6</ele>
        <time>2026-01-25T10:07:39Z</time>
      </trkpt>
      <trkpt lat="48.55329" lon="-2.7716">
        <ele>100.6</ele>
        <time>2026-01-25T10:07:40Z</time>
      </trkpt>
      <trkpt lat="48.55324" lon="-2.77163">
        <ele>100.6</ele>
        <time>2026-01-25T10:07:41Z</time>
      </trkpt>
      <trkpt lat="48.55319" lon="-2.77166">
        <ele>100.2</ele>
        <time>2026-01-25T10:07:42Z</time>
      </trkpt>
      <trkpt lat="48.55313" lon="-2.77168">
        <ele>100.6</ele>
        <time>2026-01-25T10:07:43Z</time>
      </trkpt>
      <trkpt lat="48.55308" lon="-2.77171">
        <ele>100.6</ele>
        <time>2026-01-25T10:07:44Z</time>
      </trkpt>
      <trkpt lat="48.55303" lon="-2.77173">
        <ele>100.6</ele>
        <time>2026-01-25T10:07:45Z</time>
      </trkpt>
      <trkpt lat="48.55298" lon="-2.77176">
        <ele>100.6</ele>
        <time>2026-01-25T10:07:46Z</time>
      </trkpt>
      <trkpt lat="48.55292" lon="-2.77178">
        <ele>101.4</ele>
        <time>2026-01-25T10:07:47Z</time>
      </trkpt>
      <trkpt lat="48.55287" lon="-2.7718">
        <ele>101.4</ele>
        <time>2026-01-25T10:07:48Z</time>
      </trkpt>
      <trkpt lat="48.55282" lon="-2.77182">
        <ele>101.4</ele>
        <time>2026-01-25T10:07:49Z</time>
      </trkpt>
      <trkpt lat="48.55277" lon="-2.77184">
        <ele>101.4</ele>
        <time>2026-01-25T10:07:50Z</time>
      </trkpt>
      <trkpt lat="48.55272" lon="-2.77185">
        <ele>102</ele>
        <time>2026-01-25T10:07:51Z</time>
      </trkpt>
      <trkpt lat="48.55266" lon="-2.77187">
        <ele>102</ele>
        <time>2026-01-25T10:07:52Z</time>
      </trkpt>
      <trkpt lat="48.55261" lon="-2.77188">
        <ele>102</ele>
        <time>2026-01-25T10:07:53Z</time>
      </trkpt>
      <trkpt lat="48.55256" lon="-2.77189">
        <ele>102.2</ele>
        <time>2026-01-25T10:07:54Z</time>
      </trkpt>
      <trkpt lat="48.5525" lon="-2.7719">
        <ele>101.8</ele>
        <time>2026-01-25T10:07:55Z</time>
      </trkpt>
      <trkpt lat="48.55245" lon="-2.77191">
        <ele>101.8</ele>
        <time>2026-01-25T10:07:56Z</time>
      </trkpt>
      <trkpt lat="48.5524" lon="-2.77192">
        <ele>101.8</ele>
        <time>2026-01-25T10:07:57Z</time>
      </trkpt>
      <trkpt lat="48.55236" lon="-2.77193">
        <ele>101.8</ele>
        <time>2026-01-25T10:07:58Z</time>
      </trkpt>
      <trkpt lat="48.55232" lon="-2.77194">
        <ele>102.6</ele>
        <time>2026-01-25T10:07:59Z</time>
      </trkpt>
      <trkpt lat="48.55228" lon="-2.77195">
        <ele>102.6</ele>
        <time>2026-01-25T10:08:00Z</time>
      </trkpt>
      <trkpt lat="48.55224" lon="-2.77196">
        <ele>102.6</ele>
        <time>2026-01-25T10:08:01Z</time>
      </trkpt>
      <trkpt lat="48.5522" lon="-2.77196">
        <ele>102.6</ele>
        <time>2026-01-25T10:08:02Z</time>
      </trkpt>
      <trkpt lat="48.55215" lon="-2.77197">
        <ele>102.6</ele>
        <time>2026-01-25T10:08:03Z</time>
      </trkpt>
      <trkpt lat="48.55211" lon="-2.77198">
        <ele>102.6</ele>
        <time>2026-01-25T10:08:04Z</time>
      </trkpt>
      <trkpt lat="48.55209" lon="-2.77199">
        <ele>102.6</ele>
        <time>2026-01-25T10:08:05Z</time>
      </trkpt>
      <trkpt lat="48.55207" lon="-2.772">
        <ele>103.4</ele>
        <time>2026-01-25T10:08:06Z</time>
      </trkpt>
      <trkpt lat="48.55206" lon="-2.77201">
        <ele>103.4</ele>
        <time>2026-01-25T10:08:07Z</time>
      </trkpt>
      <trkpt lat="48.55206" lon="-2.77201">
        <ele>103.4</ele>
        <time>2026-01-25T10:08:08Z</time>
      </trkpt>
      <trkpt lat="48.55206" lon="-2.77202">
        <ele>103.4</ele>
        <time>2026-01-25T10:08:09Z</time>
      </trkpt>
      <trkpt lat="48.55205" lon="-2.77205">
        <ele>103.4</ele>
        <time>2026-01-25T10:08:10Z</time>
      </trkpt>
      <trkpt lat="48.55205" lon="-2.77208">
        <ele>103.8</ele>
        <time>2026-01-25T10:08:11Z</time>
      </trkpt>
      <trkpt lat="48.55203" lon="-2.77211">
        <ele>103.8</ele>
        <time>2026-01-25T10:08:12Z</time>
      </trkpt>
      <trkpt lat="48.55201" lon="-2.77212">
        <ele>103.8</ele>
        <time>2026-01-25T10:08:13Z</time>
      </trkpt>
      <trkpt lat="48.55197" lon="-2.77213">
        <ele>102.8</ele>
        <time>2026-01-25T10:08:14Z</time>
      </trkpt>
      <trkpt lat="48.55193" lon="-2.77215">
        <ele>102.4</ele>
        <time>2026-01-25T10:08:15Z</time>
      </trkpt>
      <trkpt lat="48.55188" lon="-2.77216">
        <ele>102.4</ele>
        <time>2026-01-25T10:08:16Z</time>
      </trkpt>
      <trkpt lat="48.55183" lon="-2.77217">
        <ele>102.4</ele>
        <time>2026-01-25T10:08:17Z</time>
      </trkpt>
      <trkpt lat="48.55177" lon="-2.77218">
        <ele>102</ele>
        <time>2026-01-25T10:08:18Z</time>
      </trkpt>
      <trkpt lat="48.55172" lon="-2.7722">
        <ele>101.2</ele>
        <time>2026-01-25T10:08:19Z</time>
      </trkpt>
      <trkpt lat="48.55166" lon="-2.77222">
        <ele>101.2</ele>
        <time>2026-01-25T10:08:20Z</time>
      </trkpt>
      <trkpt lat="48.5516" lon="-2.77223">
        <ele>101.2</ele>
        <time>2026-01-25T10:08:21Z</time>
      </trkpt>
      <trkpt lat="48.55154" lon="-2.77225">
        <ele>100.8</ele>
        <time>2026-01-25T10:08:22Z</time>
      </trkpt>
      <trkpt lat="48.55147" lon="-2.77226">
        <ele>100.8</ele>
        <time>2026-01-25T10:08:23Z</time>
      </trkpt>
      <trkpt lat="48.55141" lon="-2.77228">
        <ele>100.8</ele>
        <time>2026-01-25T10:08:24Z</time>
      </trkpt>
      <trkpt lat="48.55134" lon="-2.77229">
        <ele>100.8</ele>
        <time>2026-01-25T10:08:25Z</time>
      </trkpt>
      <trkpt lat="48.55127" lon="-2.77231">
        <ele>99.8</ele>
        <time>2026-01-25T10:08:26Z</time>
      </trkpt>
      <trkpt lat="48.5512" lon="-2.77233">
        <ele>99</ele>
        <time>2026-01-25T10:08:27Z</time>
      </trkpt>
      <trkpt lat="48.55113" lon="-2.77235">
        <ele>99</ele>
        <time>2026-01-25T10:08:28Z</time>
      </trkpt>
      <trkpt lat="48.55106" lon="-2.77237">
        <ele>99</ele>
        <time>2026-01-25T10:08:29Z</time>
      </trkpt>
      <trkpt lat="48.55099" lon="-2.77239">
        <ele>99</ele>
        <time>2026-01-25T10:08:30Z</time>
      </trkpt>
      <trkpt lat="48.55092" lon="-2.77241">
        <ele>98.2</ele>
        <time>2026-01-25T10:08:31Z</time>
      </trkpt>
      <trkpt lat="48.55085" lon="-2.77243">
        <ele>98.2</ele>
        <time>2026-01-25T10:08:32Z</time>
      </trkpt>
      <trkpt lat="48.55077" lon="-2.77245">
        <ele>98.2</ele>
        <time>2026-01-25T10:08:33Z</time>
      </trkpt>
      <trkpt lat="48.5507" lon="-2.77248">
        <ele>99.2</ele>
        <time>2026-01-25T10:08:34Z</time>
      </trkpt>
      <trkpt lat="48.55063" lon="-2.77251">
        <ele>99</ele>
        <time>2026-01-25T10:08:35Z</time>
      </trkpt>
      <trkpt lat="48.55057" lon="-2.77253">
        <ele>99</ele>
        <time>2026-01-25T10:08:36Z</time>
      </trkpt>
      <trkpt lat="48.5505" lon="-2.77255">
        <ele>99</ele>
        <time>2026-01-25T10:08:37Z</time>
      </trkpt>
      <trkpt lat="48.55044" lon="-2.77256">
        <ele>99.6</ele>
        <time>2026-01-25T10:08:38Z</time>
      </trkpt>
      <trkpt lat="48.55037" lon="-2.77258">
        <ele>100.2</ele>
        <time>2026-01-25T10:08:39Z</time>
      </trkpt>
      <trkpt lat="48.55031" lon="-2.77259">
        <ele>100.2</ele>
        <time>2026-01-25T10:08:40Z</time>
      </trkpt>
      <trkpt lat="48.55026" lon="-2.77261">
        <ele>100.2</ele>
        <time>2026-01-25T10:08:41Z</time>
      </trkpt>
      <trkpt lat="48.5502" lon="-2.77262">
        <ele>101</ele>
        <time>2026-01-25T10:08:42Z</time>
      </trkpt>
      <trkpt lat="48.55015" lon="-2.77264">
        <ele>101.4</ele>
        <time>2026-01-25T10:08:43Z</time>
      </trkpt>
      <trkpt lat="48.55009" lon="-2.77265">
        <ele>101.4</ele>
        <time>2026-01-25T10:08:44Z</time>
      </trkpt>
      <trkpt lat="48.55004" lon="-2.77267">
        <ele>101.4</ele>
        <time>2026-01-25T10:08:45Z</time>
      </trkpt>
      <trkpt lat="48.54999" lon="-2.77268">
        <ele>101.8</ele>
        <time>2026-01-25T10:08:46Z</time>
      </trkpt>
      <trkpt lat="48.54995" lon="-2.77269">
        <ele>102.6</ele>
        <time>2026-01-25T10:08:47Z</time>
      </trkpt>
      <trkpt lat="48.5499" lon="-2.77271">
        <ele>102.6</ele>
        <time>2026-01-25T10:08:48Z</time>
      </trkpt>
      <trkpt lat="48.54985" lon="-2.77272">
        <ele>102.6</ele>
        <time>2026-01-25T10:08:49Z</time>
      </trkpt>
      <trkpt lat="48.54981" lon="-2.77273">
        <ele>102.6</ele>
        <time>2026-01-25T10:08:50Z</time>
      </trkpt>
      <trkpt lat="48.54976" lon="-2.77275">
        <ele>102.6</ele>
        <time>2026-01-25T10:08:51Z</time>
      </trkpt>
      <trkpt lat="48.54971" lon="-2.77276">
        <ele>102.6</ele>
        <time>2026-01-25T10:08:52Z</time>
      </trkpt>
      <trkpt lat="48.54966" lon="-2.77277">
        <ele>102.6</ele>
        <time>2026-01-25T10:08:53Z</time>
      </trkpt>
      <trkpt lat="48.54961" lon="-2.77279">
        <ele>103.6</ele>
        <time>2026-01-25T10:08:54Z</time>
      </trkpt>
      <trkpt lat="48.54956" lon="-2.7728">
        <ele>103.6</ele>
        <time>2026-01-25T10:08:55Z</time>
      </trkpt>
      <trkpt lat="48.54952" lon="-2.77282">
        <ele>103.6</ele>
        <time>2026-01-25T10:08:56Z</time>
      </trkpt>
      <trkpt lat="48.54947" lon="-2.77283">
        <ele>103.6</ele>
        <time>2026-01-25T10:08:57Z</time>
      </trkpt>
      <trkpt lat="48.54942" lon="-2.77285">
        <ele>104.2</ele>
        <time>2026-01-25T10:08:58Z</time>
      </trkpt>
      <trkpt lat="48.54937" lon="-2.77286">
        <ele>104.2</ele>
        <time>2026-01-25T10:08:59Z</time>
      </trkpt>
      <trkpt lat="48.54932" lon="-2.77288">
        <ele>104.2</ele>
        <time>2026-01-25T10:09:00Z</time>
      </trkpt>
      <trkpt lat="48.54928" lon="-2.7729">
        <ele>104.2</ele>
        <time>2026-01-25T10:09:01Z</time>
      </trkpt>
      <trkpt lat="48.54923" lon="-2.77292">
        <ele>104.2</ele>
        <time>2026-01-25T10:09:02Z</time>
      </trkpt>
      <trkpt lat="48.54918" lon="-2.77293">
        <ele>104.4</ele>
        <time>2026-01-25T10:09:03Z</time>
      </trkpt>
      <trkpt lat="48.54913" lon="-2.77295">
        <ele>104.4</ele>
        <time>2026-01-25T10:09:04Z</time>
      </trkpt>
      <trkpt lat="48.54908" lon="-2.77296">
        <ele>104.4</ele>
        <time>2026-01-25T10:09:05Z</time>
      </trkpt>
      <trkpt lat="48.54903" lon="-2.77297">
        <ele>105.4</ele>
        <time>2026-01-25T10:09:06Z</time>
      </trkpt>
      <trkpt lat="48.54898" lon="-2.77298">
        <ele>104.8</ele>
        <time>2026-01-25T10:09:07Z</time>
      </trkpt>
      <trkpt lat="48.54893" lon="-2.773">
        <ele>104.8</ele>
        <time>2026-01-25T10:09:08Z</time>
      </trkpt>
      <trkpt lat="48.54889" lon="-2.77301">
        <ele>104.8</ele>
        <time>2026-01-25T10:09:09Z</time>
      </trkpt>
      <trkpt lat="48.54884" lon="-2.77303">
        <ele>104.8</ele>
        <time>2026-01-25T10:09:10Z</time>
      </trkpt>
      <trkpt lat="48.54878" lon="-2.77304">
        <ele>104.8</ele>
        <time>2026-01-25T10:09:11Z</time>
      </trkpt>
      <trkpt lat="48.54873" lon="-2.77304">
        <ele>104.8</ele>
        <time>2026-01-25T10:09:12Z</time>
      </trkpt>
      <trkpt lat="48.54868" lon="-2.77305">
        <ele>104.8</ele>
        <time>2026-01-25T10:09:13Z</time>
      </trkpt>
      <trkpt lat="48.54863" lon="-2.77305">
        <ele>104.8</ele>
        <time>2026-01-25T10:09:14Z</time>
      </trkpt>
      <trkpt lat="48.54858" lon="-2.77305">
        <ele>104.2</ele>
        <time>2026-01-25T10:09:15Z</time>
      </trkpt>
      <trkpt lat="48.54852" lon="-2.77305">
        <ele>104.2</ele>
        <time>2026-01-25T10:09:16Z</time>
      </trkpt>
      <trkpt lat="48.54847" lon="-2.77304">
        <ele>104.2</ele>
        <time>2026-01-25T10:09:17Z</time>
      </trkpt>
      <trkpt lat="48.54842" lon="-2.77304">
        <ele>104.2</ele>
        <time>2026-01-25T10:09:18Z</time>
      </trkpt>
      <trkpt lat="48.54836" lon="-2.77304">
        <ele>104.8</ele>
        <time>2026-01-25T10:09:19Z</time>
      </trkpt>
      <trkpt lat="48.54831" lon="-2.77303">
        <ele>104.8</ele>
        <time>2026-01-25T10:09:20Z</time>
      </trkpt>
      <trkpt lat="48.54825" lon="-2.77302">
        <ele>104.8</ele>
        <time>2026-01-25T10:09:21Z</time>
      </trkpt>
      <trkpt lat="48.54819" lon="-2.77301">
        <ele>104.8</ele>
        <time>2026-01-25T10:09:22Z</time>
      </trkpt>
      <trkpt lat="48.54813" lon="-2.77301">
        <ele>104.2</ele>
        <time>2026-01-25T10:09:23Z</time>
      </trkpt>
      <trkpt lat="48.54807" lon="-2.773">
        <ele>104.2</ele>
        <time>2026-01-25T10:09:24Z</time>
      </trkpt>
      <trkpt lat="48.54801" lon="-2.773">
        <ele>104.2</ele>
        <time>2026-01-25T10:09:25Z</time>
      </trkpt>
      <trkpt lat="48.54795" lon="-2.77299">
        <ele>103.2</ele>
        <time>2026-01-25T10:09:26Z</time>
      </trkpt>
      <trkpt lat="48.54788" lon="-2.77298">
        <ele>103.4</ele>
        <time>2026-01-25T10:09:27Z</time>
      </trkpt>
      <trkpt lat="48.54782" lon="-2.77297">
        <ele>103.4</ele>
        <time>2026-01-25T10:09:28Z</time>
      </trkpt>
      <trkpt lat="48.54775" lon="-2.77297">
        <ele>103.4</ele>
        <time>2026-01-25T10:09:29Z</time>
      </trkpt>
      <trkpt lat="48.54768" lon="-2.77296">
        <ele>102.6</ele>
        <time>2026-01-25T10:09:30Z</time>
      </trkpt>
      <trkpt lat="48.54761" lon="-2.77295">
        <ele>102.8</ele>
        <time>2026-01-25T10:09:31Z</time>
      </trkpt>
      <trkpt lat="48.54755" lon="-2.77294">
        <ele>102.8</ele>
        <time>2026-01-25T10:09:32Z</time>
      </trkpt>
      <trkpt lat="48.54748" lon="-2.77293">
        <ele>102.8</ele>
        <time>2026-01-25T10:09:33Z</time>
      </trkpt>
      <trkpt lat="48.54741" lon="-2.77292">
        <ele>101.8</ele>
        <time>2026-01-25T10:09:34Z</time>
      </trkpt>
      <trkpt lat="48.54734" lon="-2.77291">
        <ele>101.4</ele>
        <time>2026-01-25T10:09:35Z</time>
      </trkpt>
      <trkpt lat="48.54727" lon="-2.7729">
        <ele>101.4</ele>
        <time>2026-01-25T10:09:36Z</time>
      </trkpt>
      <trkpt lat="48.5472" lon="-2.77289">
        <ele>101.4</ele>
        <time>2026-01-25T10:09:37Z</time>
      </trkpt>
      <trkpt lat="48.54713" lon="-2.77288">
        <ele>101.4</ele>
        <time>2026-01-25T10:09:38Z</time>
      </trkpt>
      <trkpt lat="48.54706" lon="-2.77287">
        <ele>100.6</ele>
        <time>2026-01-25T10:09:39Z</time>
      </trkpt>
      <trkpt lat="48.54699" lon="-2.77286">
        <ele>100.6</ele>
        <time>2026-01-25T10:09:40Z</time>
      </trkpt>
      <trkpt lat="48.54692" lon="-2.77284">
        <ele>100.6</ele>
        <time>2026-01-25T10:09:41Z</time>
      </trkpt>
      <trkpt lat="48.54686" lon="-2.77283">
        <ele>100.6</ele>
        <time>2026-01-25T10:09:42Z</time>
      </trkpt>
      <trkpt lat="48.54679" lon="-2.77282">
        <ele>100.6</ele>
        <time>2026-01-25T10:09:43Z</time>
      </trkpt>
      <trkpt lat="48.54672" lon="-2.77281">
        <ele>100.6</ele>
        <time>2026-01-25T10:09:44Z</time>
      </trkpt>
      <trkpt lat="48.54665" lon="-2.7728">
        <ele>100.6</ele>
        <time>2026-01-25T10:09:45Z</time>
      </trkpt>
      <trkpt lat="48.54658" lon="-2.7728">
        <ele>100.6</ele>
        <time>2026-01-25T10:09:46Z</time>
      </trkpt>
      <trkpt lat="48.54651" lon="-2.7728">
        <ele>101</ele>
        <time>2026-01-25T10:09:47Z</time>
      </trkpt>
      <trkpt lat="48.54644" lon="-2.77283">
        <ele>101</ele>
        <time>2026-01-25T10:09:48Z</time>
      </trkpt>
      <trkpt lat="48.54637" lon="-2.77286">
        <ele>101</ele>
        <time>2026-01-25T10:09:49Z</time>
      </trkpt>
      <trkpt lat="48.54631" lon="-2.77289">
        <ele>101</ele>
        <time>2026-01-25T10:09:50Z</time>
      </trkpt>
      <trkpt lat="48.54625" lon="-2.7729">
        <ele>102</ele>
        <time>2026-01-25T10:09:51Z</time>
      </trkpt>
      <trkpt lat="48.54618" lon="-2.77288">
        <ele>102</ele>
        <time>2026-01-25T10:09:52Z</time>
      </trkpt>
      <trkpt lat="48.54613" lon="-2.77283">
        <ele>102</ele>
        <time>2026-01-25T10:09:53Z</time>
      </trkpt>
      <trkpt lat="48.54607" lon="-2.77279">
        <ele>102</ele>
        <time>2026-01-25T10:09:54Z</time>
      </trkpt>
      <trkpt lat="48.54601" lon="-2.77275">
        <ele>102.4</ele>
        <time>2026-01-25T10:09:55Z</time>
      </trkpt>
      <trkpt lat="48.54595" lon="-2.77273">
        <ele>102.4</ele>
        <time>2026-01-25T10:09:56Z</time>
      </trkpt>
      <trkpt lat="48.5459" lon="-2.77271">
        <ele>102.4</ele>
        <time>2026-01-25T10:09:57Z</time>
      </trkpt>
      <trkpt lat="48.54584" lon="-2.7727">
        <ele>103.4</ele>
        <time>2026-01-25T10:09:58Z</time>
      </trkpt>
      <trkpt lat="48.54578" lon="-2.77269">
        <ele>104</ele>
        <time>2026-01-25T10:09:59Z</time>
      </trkpt>
      <trkpt lat="48.54573" lon="-2.77268">
        <ele>104</ele>
        <time>2026-01-25T10:10:00Z</time>
      </trkpt>
      <trkpt lat="48.54567" lon="-2.77267">
        <ele>104</ele>
        <time>2026-01-25T10:10:01Z</time>
      </trkpt>
      <trkpt lat="48.54562" lon="-2.77267">
        <ele>104</ele>
        <time>2026-01-25T10:10:02Z</time>
      </trkpt>
      <trkpt lat="48.54557" lon="-2.77267">
        <ele>105</ele>
        <time>2026-01-25T10:10:03Z</time>
      </trkpt>
      <trkpt lat="48.54551" lon="-2.77266">
        <ele>105</ele>
        <time>2026-01-25T10:10:04Z</time>
      </trkpt>
      <trkpt lat="48.54546" lon="-2.77265">
        <ele>105</ele>
        <time>2026-01-25T10:10:05Z</time>
      </trkpt>
      <trkpt lat="48.54541" lon="-2.77264">
        <ele>105.6</ele>
        <time>2026-01-25T10:10:06Z</time>
      </trkpt>
      <trkpt lat="48.54535" lon="-2.77263">
        <ele>105.6</ele>
        <time>2026-01-25T10:10:07Z</time>
      </trkpt>
      <trkpt lat="48.5453" lon="-2.77263">
        <ele>105.6</ele>
        <time>2026-01-25T10:10:08Z</time>
      </trkpt>
      <trkpt lat="48.54525" lon="-2.77262">
        <ele>105.6</ele>
        <time>2026-01-25T10:10:09Z</time>
      </trkpt>
      <trkpt lat="48.54519" lon="-2.77261">
        <ele>106</ele>
        <time>2026-01-25T10:10:10Z</time>
      </trkpt>
      <trkpt lat="48.54514" lon="-2.7726">
        <ele>106.8</ele>
        <time>2026-01-25T10:10:11Z</time>
      </trkpt>
      <trkpt lat="48.54508" lon="-2.7726">
        <ele>106.8</ele>
        <time>2026-01-25T10:10:12Z</time>
      </trkpt>
      <trkpt lat="48.54503" lon="-2.77259">
        <ele>106.8</ele>
        <time>2026-01-25T10:10:13Z</time>
      </trkpt>
      <trkpt lat="48.54497" lon="-2.77258">
        <ele>107.8</ele>
        <time>2026-01-25T10:10:14Z</time>
      </trkpt>
      <trkpt lat="48.54492" lon="-2.77257">
        <ele>107.4</ele>
        <time>2026-01-25T10:10:15Z</time>
      </trkpt>
      <trkpt lat="48.54487" lon="-2.77257">
        <ele>107.4</ele>
        <time>2026-01-25T10:10:16Z</time>
      </trkpt>
      <trkpt lat="48.54481" lon="-2.77256">
        <ele>107.4</ele>
        <time>2026-01-25T10:10:17Z</time>
      </trkpt>
      <trkpt lat="48.54476" lon="-2.77255">
        <ele>107.2</ele>
        <time>2026-01-25T10:10:18Z</time>
      </trkpt>
      <trkpt lat="48.54472" lon="-2.77255">
        <ele>107</ele>
        <time>2026-01-25T10:10:19Z</time>
      </trkpt>
      <trkpt lat="48.54467" lon="-2.77254">
        <ele>107</ele>
        <time>2026-01-25T10:10:20Z</time>
      </trkpt>
      <trkpt lat="48.54463" lon="-2.77254">
        <ele>107</ele>
        <time>2026-01-25T10:10:21Z</time>
      </trkpt>
      <trkpt lat="48.54458" lon="-2.77254">
        <ele>107</ele>
        <time>2026-01-25T10:10:22Z</time>
      </trkpt>
      <trkpt lat="48.54454" lon="-2.77255">
        <ele>107</ele>
        <time>2026-01-25T10:10:23Z</time>
      </trkpt>
      <trkpt lat="48.54449" lon="-2.77255">
        <ele>107</ele>
        <time>2026-01-25T10:10:24Z</time>
      </trkpt>
      <trkpt lat="48.54445" lon="-2.77256">
        <ele>107</ele>
        <time>2026-01-25T10:10:25Z</time>
      </trkpt>
      <trkpt lat="48.5444" lon="-2.77257">
        <ele>107</ele>
        <time>2026-01-25T10:10:26Z</time>
      </trkpt>
      <trkpt lat="48.54435" lon="-2.7726">
        <ele>106.8</ele>
        <time>2026-01-25T10:10:27Z</time>
      </trkpt>
      <trkpt lat="48.54431" lon="-2.77262">
        <ele>106.8</ele>
        <time>2026-01-25T10:10:28Z</time>
      </trkpt>
      <trkpt lat="48.54426" lon="-2.77265">
        <ele>106.8</ele>
        <time>2026-01-25T10:10:29Z</time>
      </trkpt>
      <trkpt lat="48.54422" lon="-2.77267">
        <ele>106.8</ele>
        <time>2026-01-25T10:10:30Z</time>
      </trkpt>
      <trkpt lat="48.54417" lon="-2.77268">
        <ele>107</ele>
        <time>2026-01-25T10:10:31Z</time>
      </trkpt>
      <trkpt lat="48.54412" lon="-2.7727">
        <ele>107</ele>
        <time>2026-01-25T10:10:32Z</time>
      </trkpt>
      <trkpt lat="48.54407" lon="-2.77273">
        <ele>107</ele>
        <time>2026-01-25T10:10:33Z</time>
      </trkpt>
      <trkpt lat="48.54403" lon="-2.77277">
        <ele>106</ele>
        <time>2026-01-25T10:10:34Z</time>
      </trkpt>
      <trkpt lat="48.54399" lon="-2.77281">
        <ele>105</ele>
        <time>2026-01-25T10:10:35Z</time>
      </trkpt>
      <trkpt lat="48.54395" lon="-2.77286">
        <ele>105</ele>
        <time>2026-01-25T10:10:36Z</time>
      </trkpt>
      <trkpt lat="48.54391" lon="-2.7729">
        <ele>105</ele>
        <time>2026-01-25T10:10:37Z</time>
      </trkpt>
      <trkpt lat="48.54388" lon="-2.77295">
        <ele>106</ele>
        <time>2026-01-25T10:10:38Z</time>
      </trkpt>
      <trkpt lat="48.54387" lon="-2.77299">
        <ele>107.4</ele>
        <time>2026-01-25T10:10:39Z</time>
      </trkpt>
      <trkpt lat="48.54386" lon="-2.77301">
        <ele>107.4</ele>
        <time>2026-01-25T10:10:40Z</time>
      </trkpt>
      <trkpt lat="48.54386" lon="-2.77301">
        <ele>107.4</ele>
        <time>2026-01-25T10:10:41Z</time>
      </trkpt>
      <trkpt lat="48.54386" lon="-2.77301">
        <ele>108.4</ele>
        <time>2026-01-25T10:10:42Z</time>
      </trkpt>
      <trkpt lat="48.54382" lon="-2.77305">
        <ele>107.8</ele>
        <time>2026-01-25T10:12:05Z</time>
      </trkpt>
      <trkpt lat="48.5438" lon="-2.77306">
        <ele>107.6</ele>
        <time>2026-01-25T10:12:06Z</time>
      </trkpt>
      <trkpt lat="48.54378" lon="-2.77305">
        <ele>107.6</ele>
        <time>2026-01-25T10:12:07Z</time>
      </trkpt>
      <trkpt lat="48.54376" lon="-2.77302">
        <ele>107.6</ele>
        <time>2026-01-25T10:12:08Z</time>
      </trkpt>
      <trkpt lat="48.54377" lon="-2.77299">
        <ele>107.6</ele>
        <time>2026-01-25T10:12:09Z</time>
      </trkpt>
      <trkpt lat="48.54379" lon="-2.77295">
        <ele>107.6</ele>
        <time>2026-01-25T10:12:10Z</time>
      </trkpt>
      <trkpt lat="48.54382" lon="-2.77291">
        <ele>107.6</ele>
        <time>2026-01-25T10:12:11Z</time>
      </trkpt>
      <trkpt lat="48.54385" lon="-2.77287">
        <ele>107.6</ele>
        <time>2026-01-25T10:12:12Z</time>
      </trkpt>
      <trkpt lat="48.54389" lon="-2.77283">
        <ele>107.6</ele>
        <time>2026-01-25T10:12:13Z</time>
      </trkpt>
      <trkpt lat="48.54393" lon="-2.77277">
        <ele>107.4</ele>
        <time>2026-01-25T10:12:14Z</time>
      </trkpt>
      <trkpt lat="48.54397" lon="-2.77271">
        <ele>107.2</ele>
        <time>2026-01-25T10:12:15Z</time>
      </trkpt>
      <trkpt lat="48.54401" lon="-2.77265">
        <ele>107.2</ele>
        <time>2026-01-25T10:12:16Z</time>
      </trkpt>
      <trkpt lat="48.54404" lon="-2.77258">
        <ele>107.2</ele>
        <time>2026-01-25T10:12:17Z</time>
      </trkpt>
      <trkpt lat="48.54406" lon="-2.7725">
        <ele>107.2</ele>
        <time>2026-01-25T10:12:18Z</time>
      </trkpt>
      <trkpt lat="48.54409" lon="-2.77242">
        <ele>106.8</ele>
        <time>2026-01-25T10:12:19Z</time>
      </trkpt>
      <trkpt lat="48.54413" lon="-2.77234">
        <ele>106.8</ele>
        <time>2026-01-25T10:12:20Z</time>
      </trkpt>
      <trkpt lat="48.54418" lon="-2.77228">
        <ele>106.8</ele>
        <time>2026-01-25T10:12:21Z</time>
      </trkpt>
      <trkpt lat="48.54424" lon="-2.77226">
        <ele>107</ele>
        <time>2026-01-25T10:12:22Z</time>
      </trkpt>
      <trkpt lat="48.54429" lon="-2.77227">
        <ele>107.4</ele>
        <time>2026-01-25T10:12:23Z</time>
      </trkpt>
      <trkpt lat="48.54434" lon="-2.77231">
        <ele>107.4</ele>
        <time>2026-01-25T10:12:24Z</time>
      </trkpt>
      <trkpt lat="48.54439" lon="-2.77236">
        <ele>107.4</ele>
        <time>2026-01-25T10:12:25Z</time>
      </trkpt>
      <trkpt lat="48.54445" lon="-2.77239">
        <ele>107.4</ele>
        <time>2026-01-25T10:12:26Z</time>
      </trkpt>
      <trkpt lat="48.54451" lon="-2.77242">
        <ele>106.8</ele>
        <time>2026-01-25T10:12:27Z</time>
      </trkpt>
      <trkpt lat="48.54457" lon="-2.77244">
        <ele>106.8</ele>
        <time>2026-01-25T10:12:28Z</time>
      </trkpt>
      <trkpt lat="48.54463" lon="-2.77245">
        <ele>106.8</ele>
        <time>2026-01-25T10:12:29Z</time>
      </trkpt>
      <trkpt lat="48.5447" lon="-2.77246">
        <ele>106.8</ele>
        <time>2026-01-25T10:12:30Z</time>
      </trkpt>
      <trkpt lat="48.54476" lon="-2.77247">
        <ele>106.4</ele>
        <time>2026-01-25T10:12:31Z</time>
      </trkpt>
      <trkpt lat="48.54483" lon="-2.77247">
        <ele>106.4</ele>
        <time>2026-01-25T10:12:32Z</time>
      </trkpt>
      <trkpt lat="48.5449" lon="-2.77248">
        <ele>106.4</ele>
        <time>2026-01-25T10:12:33Z</time>
      </trkpt>
      <trkpt lat="48.54497" lon="-2.77249">
        <ele>106.8</ele>
        <time>2026-01-25T10:12:34Z</time>
      </trkpt>
      <trkpt lat="48.54504" lon="-2.77251">
        <ele>106</ele>
        <time>2026-01-25T10:12:35Z</time>
      </trkpt>
      <trkpt lat="48.54511" lon="-2.77252">
        <ele>106</ele>
        <time>2026-01-25T10:12:36Z</time>
      </trkpt>
      <trkpt lat="48.54518" lon="-2.77253">
        <ele>106</ele>
        <time>2026-01-25T10:12:37Z</time>
      </trkpt>
      <trkpt lat="48.54525" lon="-2.77254">
        <ele>106</ele>
        <time>2026-01-25T10:12:38Z</time>
      </trkpt>
      <trkpt lat="48.54533" lon="-2.77254">
        <ele>106.2</ele>
        <time>2026-01-25T10:12:39Z</time>
      </trkpt>
      <trkpt lat="48.5454" lon="-2.77255">
        <ele>106.2</ele>
        <time>2026-01-25T10:12:40Z</time>
      </trkpt>
      <trkpt lat="48.54548" lon="-2.77256">
        <ele>106.2</ele>
        <time>2026-01-25T10:12:41Z</time>
      </trkpt>
      <trkpt lat="48.54556" lon="-2.77257">
        <ele>105.2</ele>
        <time>2026-01-25T10:12:42Z</time>
      </trkpt>
      <trkpt lat="48.54564" lon="-2.77259">
        <ele>104.6</ele>
        <time>2026-01-25T10:12:43Z</time>
      </trkpt>
      <trkpt lat="48.54572" lon="-2.7726">
        <ele>104.6</ele>
        <time>2026-01-25T10:12:44Z</time>
      </trkpt>
      <trkpt lat="48.5458" lon="-2.77262">
        <ele>104.6</ele>
        <time>2026-01-25T10:12:45Z</time>
      </trkpt>
      <trkpt lat="48.54587" lon="-2.77264">
        <ele>104</ele>
        <time>2026-01-25T10:12:46Z</time>
      </trkpt>
      <trkpt lat="48.54594" lon="-2.77266">
        <ele>103.4</ele>
        <time>2026-01-25T10:12:47Z</time>
      </trkpt>
      <trkpt lat="48.54601" lon="-2.77268">
        <ele>103.4</ele>
        <time>2026-01-25T10:12:48Z</time>
      </trkpt>
      <trkpt lat="48.54608" lon="-2.77269">
        <ele>103.4</ele>
        <time>2026-01-25T10:12:49Z</time>
      </trkpt>
      <trkpt lat="48.54616" lon="-2.7727">
        <ele>103.4</ele>
        <time>2026-01-25T10:12:50Z</time>
      </trkpt>
      <trkpt lat="48.54623" lon="-2.77271">
        <ele>102.6</ele>
        <time>2026-01-25T10:12:51Z</time>
      </trkpt>
      <trkpt lat="48.54631" lon="-2.77272">
        <ele>102.6</ele>
        <time>2026-01-25T10:12:52Z</time>
      </trkpt>
      <trkpt lat="48.54639" lon="-2.77273">
        <ele>102.6</ele>
        <time>2026-01-25T10:12:53Z</time>
      </trkpt>
      <trkpt lat="48.54647" lon="-2.77273">
        <ele>102.6</ele>
        <time>2026-01-25T10:12:54Z</time>
      </trkpt>
      <trkpt lat="48.54655" lon="-2.77272">
        <ele>102.4</ele>
        <time>2026-01-25T10:12:55Z</time>
      </trkpt>
      <trkpt lat="48.54663" lon="-2.77272">
        <ele>102.4</ele>
        <time>2026-01-25T10:12:56Z</time>
      </trkpt>
      <trkpt lat="48.54671" lon="-2.77272">
        <ele>102.4</ele>
        <time>2026-01-25T10:12:57Z</time>
      </trkpt>
      <trkpt lat="48.54679" lon="-2.77273">
        <ele>102.4</ele>
        <time>2026-01-25T10:12:58Z</time>
      </trkpt>
      <trkpt lat="48.54687" lon="-2.77273">
        <ele>103.2</ele>
        <time>2026-01-25T10:12:59Z</time>
      </trkpt>
      <trkpt lat="48.54694" lon="-2.77274">
        <ele>103.2</ele>
        <time>2026-01-25T10:13:00Z</time>
      </trkpt>
      <trkpt lat="48.54702" lon="-2.77275">
        <ele>103.2</ele>
        <time>2026-01-25T10:13:01Z</time>
      </trkpt>
      <trkpt lat="48.54709" lon="-2.77276">
        <ele>103.2</ele>
        <time>2026-01-25T10:13:02Z</time>
      </trkpt>
      <trkpt lat="48.54716" lon="-2.77277">
        <ele>103.6</ele>
        <time>2026-01-25T10:13:03Z</time>
      </trkpt>
      <trkpt lat="48.54724" lon="-2.77278">
        <ele>103.6</ele>
        <time>2026-01-25T10:13:04Z</time>
      </trkpt>
      <trkpt lat="48.54731" lon="-2.77279">
        <ele>103.6</ele>
        <time>2026-01-25T10:13:05Z</time>
      </trkpt>
      <trkpt lat="48.54738" lon="-2.7728">
        <ele>103.6</ele>
        <time>2026-01-25T10:13:06Z</time>
      </trkpt>
      <trkpt lat="48.54745" lon="-2.77281">
        <ele>103.6</ele>
        <time>2026-01-25T10:13:07Z</time>
      </trkpt>
      <trkpt lat="48.54752" lon="-2.77282">
        <ele>103.6</ele>
        <time>2026-01-25T10:13:08Z</time>
      </trkpt>
      <trkpt lat="48.54759" lon="-2.77283">
        <ele>103.6</ele>
        <time>2026-01-25T10:13:09Z</time>
      </trkpt>
      <trkpt lat="48.54766" lon="-2.77284">
        <ele>104.4</ele>
        <time>2026-01-25T10:13:10Z</time>
      </trkpt>
      <trkpt lat="48.54774" lon="-2.77285">
        <ele>104.4</ele>
        <time>2026-01-25T10:13:11Z</time>
      </trkpt>
      <trkpt lat="48.54781" lon="-2.77286">
        <ele>104.4</ele>
        <time>2026-01-25T10:13:12Z</time>
      </trkpt>
      <trkpt lat="48.54788" lon="-2.77287">
        <ele>104.4</ele>
        <time>2026-01-25T10:13:13Z</time>
      </trkpt>
      <trkpt lat="48.54795" lon="-2.77288">
        <ele>104.6</ele>
        <time>2026-01-25T10:13:14Z</time>
      </trkpt>
      <trkpt lat="48.54802" lon="-2.77289">
        <ele>105.4</ele>
        <time>2026-01-25T10:13:15Z</time>
      </trkpt>
      <trkpt lat="48.54809" lon="-2.7729">
        <ele>105.4</ele>
        <time>2026-01-25T10:13:16Z</time>
      </trkpt>
      <trkpt lat="48.54816" lon="-2.77291">
        <ele>105.4</ele>
        <time>2026-01-25T10:13:17Z</time>
      </trkpt>
      <trkpt lat="48.54823" lon="-2.77292">
        <ele>105</ele>
        <time>2026-01-25T10:13:18Z</time>
      </trkpt>
      <trkpt lat="48.5483" lon="-2.77293">
        <ele>104.4</ele>
        <time>2026-01-25T10:13:19Z</time>
      </trkpt>
      <trkpt lat="48.54837" lon="-2.77293">
        <ele>104.4</ele>
        <time>2026-01-25T10:13:20Z</time>
      </trkpt>
      <trkpt lat="48.54844" lon="-2.77293">
        <ele>104.4</ele>
        <time>2026-01-25T10:13:21Z</time>
      </trkpt>
      <trkpt lat="48.54851" lon="-2.77293">
        <ele>104.4</ele>
        <time>2026-01-25T10:13:22Z</time>
      </trkpt>
      <trkpt lat="48.54858" lon="-2.77293">
        <ele>105</ele>
        <time>2026-01-25T10:13:23Z</time>
      </trkpt>
      <trkpt lat="48.54865" lon="-2.77292">
        <ele>105</ele>
        <time>2026-01-25T10:13:24Z</time>
      </trkpt>
      <trkpt lat="48.54873" lon="-2.77291">
        <ele>105</ele>
        <time>2026-01-25T10:13:25Z</time>
      </trkpt>
      <trkpt lat="48.5488" lon="-2.77289">
        <ele>105</ele>
        <time>2026-01-25T10:13:26Z</time>
      </trkpt>
      <trkpt lat="48.54887" lon="-2.77288">
        <ele>105.2</ele>
        <time>2026-01-25T10:13:27Z</time>
      </trkpt>
      <trkpt lat="48.54895" lon="-2.77286">
        <ele>105.2</ele>
        <time>2026-01-25T10:13:28Z</time>
      </trkpt>
      <trkpt lat="48.54902" lon="-2.77283">
        <ele>105.2</ele>
        <time>2026-01-25T10:13:29Z</time>
      </trkpt>
      <trkpt lat="48.5491" lon="-2.77281">
        <ele>105.2</ele>
        <time>2026-01-25T10:13:30Z</time>
      </trkpt>
      <trkpt lat="48.54918" lon="-2.77279">
        <ele>104.2</ele>
        <time>2026-01-25T10:13:31Z</time>
      </trkpt>
      <trkpt lat="48.54926" lon="-2.77277">
        <ele>104.2</ele>
        <time>2026-01-25T10:13:32Z</time>
      </trkpt>
      <trkpt lat="48.54934" lon="-2.77275">
        <ele>104.2</ele>
        <time>2026-01-25T10:13:33Z</time>
      </trkpt>
      <trkpt lat="48.54943" lon="-2.77272">
        <ele>104</ele>
        <time>2026-01-25T10:13:34Z</time>
      </trkpt>
      <trkpt lat="48.54952" lon="-2.7727">
        <ele>103</ele>
        <time>2026-01-25T10:13:35Z</time>
      </trkpt>
      <trkpt lat="48.54961" lon="-2.77267">
        <ele>103</ele>
        <time>2026-01-25T10:13:36Z</time>
      </trkpt>
      <trkpt lat="48.5497" lon="-2.77265">
        <ele>103</ele>
        <time>2026-01-25T10:13:37Z</time>
      </trkpt>
      <trkpt lat="48.5498" lon="-2.77262">
        <ele>102</ele>
        <time>2026-01-25T10:13:38Z</time>
      </trkpt>
      <trkpt lat="48.54989" lon="-2.7726">
        <ele>100.8</ele>
        <time>2026-01-25T10:13:39Z</time>
      </trkpt>
      <trkpt lat="48.54999" lon="-2.77257">
        <ele>100.8</ele>
        <time>2026-01-25T10:13:40Z</time>
      </trkpt>
      <trkpt lat="48.55009" lon="-2.77255">
        <ele>100.8</ele>
        <time>2026-01-25T10:13:41Z</time>
      </trkpt>
      <trkpt lat="48.55019" lon="-2.77252">
        <ele>99.8</ele>
        <time>2026-01-25T10:13:42Z</time>
      </trkpt>
      <trkpt lat="48.55029" lon="-2.77249">
        <ele>99</ele>
        <time>2026-01-25T10:13:43Z</time>
      </trkpt>
      <trkpt lat="48.55039" lon="-2.77246">
        <ele>99</ele>
        <time>2026-01-25T10:13:44Z</time>
      </trkpt>
      <trkpt lat="48.55049" lon="-2.77243">
        <ele>99</ele>
        <time>2026-01-25T10:13:45Z</time>
      </trkpt>
      <trkpt lat="48.55059" lon="-2.77239">
        <ele>98.4</ele>
        <time>2026-01-25T10:13:46Z</time>
      </trkpt>
      <trkpt lat="48.55068" lon="-2.77235">
        <ele>99</ele>
        <time>2026-01-25T10:13:47Z</time>
      </trkpt>
      <trkpt lat="48.55078" lon="-2.77233">
        <ele>99</ele>
        <time>2026-01-25T10:13:48Z</time>
      </trkpt>
      <trkpt lat="48.55088" lon="-2.77232">
        <ele>99</ele>
        <time>2026-01-25T10:13:49Z</time>
      </trkpt>
      <trkpt lat="48.55097" lon="-2.77229">
        <ele>98.2</ele>
        <time>2026-01-25T10:13:50Z</time>
      </trkpt>
      <trkpt lat="48.55106" lon="-2.77227">
        <ele>98.4</ele>
        <time>2026-01-25T10:13:51Z</time>
      </trkpt>
      <trkpt lat="48.55115" lon="-2.77225">
        <ele>98.4</ele>
        <time>2026-01-25T10:13:52Z</time>
      </trkpt>
      <trkpt lat="48.55124" lon="-2.77222">
        <ele>98.4</ele>
        <time>2026-01-25T10:13:53Z</time>
      </trkpt>
      <trkpt lat="48.55133" lon="-2.7722">
        <ele>98.4</ele>
        <time>2026-01-25T10:13:54Z</time>
      </trkpt>
      <trkpt lat="48.55141" lon="-2.77218">
        <ele>99.6</ele>
        <time>2026-01-25T10:13:55Z</time>
      </trkpt>
      <trkpt lat="48.55149" lon="-2.77216">
        <ele>99.6</ele>
        <time>2026-01-25T10:13:56Z</time>
      </trkpt>
      <trkpt lat="48.55157" lon="-2.77214">
        <ele>99.6</ele>
        <time>2026-01-25T10:13:57Z</time>
      </trkpt>
      <trkpt lat="48.55165" lon="-2.77212">
        <ele>100.6</ele>
        <time>2026-01-25T10:13:58Z</time>
      </trkpt>
      <trkpt lat="48.55173" lon="-2.7721">
        <ele>101</ele>
        <time>2026-01-25T10:13:59Z</time>
      </trkpt>
      <trkpt lat="48.5518" lon="-2.77208">
        <ele>101</ele>
        <time>2026-01-25T10:14:00Z</time>
      </trkpt>
      <trkpt lat="48.55188" lon="-2.77206">
        <ele>101</ele>
        <time>2026-01-25T10:14:01Z</time>
      </trkpt>
      <trkpt lat="48.55195" lon="-2.77204">
        <ele>102</ele>
        <time>2026-01-25T10:14:02Z</time>
      </trkpt>
      <trkpt lat="48.55203" lon="-2.77202">
        <ele>102</ele>
        <time>2026-01-25T10:14:03Z</time>
      </trkpt>
      <trkpt lat="48.5521" lon="-2.772">
        <ele>102</ele>
        <time>2026-01-25T10:14:04Z</time>
      </trkpt>
      <trkpt lat="48.55218" lon="-2.77198">
        <ele>102</ele>
        <time>2026-01-25T10:14:05Z</time>
      </trkpt>
      <trkpt lat="48.55225" lon="-2.77196">
        <ele>102</ele>
        <time>2026-01-25T10:14:06Z</time>
      </trkpt>
      <trkpt lat="48.55232" lon="-2.77193">
        <ele>102.4</ele>
        <time>2026-01-25T10:14:07Z</time>
      </trkpt>
      <trkpt lat="48.5524" lon="-2.77191">
        <ele>102.4</ele>
        <time>2026-01-25T10:14:08Z</time>
      </trkpt>
      <trkpt lat="48.55248" lon="-2.77189">
        <ele>102.4</ele>
        <time>2026-01-25T10:14:09Z</time>
      </trkpt>
      <trkpt lat="48.55255" lon="-2.77187">
        <ele>102.2</ele>
        <time>2026-01-25T10:14:10Z</time>
      </trkpt>
      <trkpt lat="48.55263" lon="-2.77185">
        <ele>101.6</ele>
        <time>2026-01-25T10:14:11Z</time>
      </trkpt>
      <trkpt lat="48.55271" lon="-2.77183">
        <ele>101.6</ele>
        <time>2026-01-25T10:14:12Z</time>
      </trkpt>
      <trkpt lat="48.55279" lon="-2.77181">
        <ele>101.6</ele>
        <time>2026-01-25T10:14:13Z</time>
      </trkpt>
      <trkpt lat="48.55286" lon="-2.77178">
        <ele>101.2</ele>
        <time>2026-01-25T10:14:14Z</time>
      </trkpt>
      <trkpt lat="48.55294" lon="-2.77175">
        <ele>100.6</ele>
        <time>2026-01-25T10:14:15Z</time>
      </trkpt>
      <trkpt lat="48.55302" lon="-2.77172">
        <ele>100.6</ele>
        <time>2026-01-25T10:14:16Z</time>
      </trkpt>
      <trkpt lat="48.5531" lon="-2.77169">
        <ele>100.6</ele>
        <time>2026-01-25T10:14:17Z</time>
      </trkpt>
      <trkpt lat="48.55318" lon="-2.77164">
        <ele>100.6</ele>
        <time>2026-01-25T10:14:18Z</time>
      </trkpt>
      <trkpt lat="48.55326" lon="-2.7716">
        <ele>100.2</ele>
        <time>2026-01-25T10:14:19Z</time>
      </trkpt>
      <trkpt lat="48.55334" lon="-2.77155">
        <ele>100.2</ele>
        <time>2026-01-25T10:14:20Z</time>
      </trkpt>
      <trkpt lat="48.55342" lon="-2.77151">
        <ele>100.2</ele>
        <time>2026-01-25T10:14:21Z</time>
      </trkpt>
      <trkpt lat="48.55349" lon="-2.77146">
        <ele>101.2</ele>
        <time>2026-01-25T10:14:22Z</time>
      </trkpt>
      <trkpt lat="48.55355" lon="-2.77141">
        <ele>101.4</ele>
        <time>2026-01-25T10:14:23Z</time>
      </trkpt>
      <trkpt lat="48.5536" lon="-2.77137">
        <ele>101.4</ele>
        <time>2026-01-25T10:14:24Z</time>
      </trkpt>
      <trkpt lat="48.55364" lon="-2.77134">
        <ele>101.4</ele>
        <time>2026-01-25T10:14:25Z</time>
      </trkpt>
      <trkpt lat="48.55368" lon="-2.7713">
        <ele>102</ele>
        <time>2026-01-25T10:14:26Z</time>
      </trkpt>
      <trkpt lat="48.55372" lon="-2.77127">
        <ele>102.8</ele>
        <time>2026-01-25T10:14:27Z</time>
      </trkpt>
      <trkpt lat="48.55375" lon="-2.77124">
        <ele>102.8</ele>
        <time>2026-01-25T10:14:28Z</time>
      </trkpt>
      <trkpt lat="48.55378" lon="-2.77121">
        <ele>102.8</ele>
        <time>2026-01-25T10:14:29Z</time>
      </trkpt>
      <trkpt lat="48.5538" lon="-2.77119">
        <ele>102</ele>
        <time>2026-01-25T10:14:30Z</time>
      </trkpt>
      <trkpt lat="48.55382" lon="-2.77117">
        <ele>102.2</ele>
        <time>2026-01-25T10:14:31Z</time>
      </trkpt>
      <trkpt lat="48.55384" lon="-2.77115">
        <ele>102.2</ele>
        <time>2026-01-25T10:14:32Z</time>
      </trkpt>
      <trkpt lat="48.55386" lon="-2.77114">
        <ele>102.2</ele>
        <time>2026-01-25T10:14:33Z</time>
      </trkpt>
      <trkpt lat="48.55387" lon="-2.77114">
        <ele>102.2</ele>
        <time>2026-01-25T10:14:34Z</time>
      </trkpt>
      <trkpt lat="48.55387" lon="-2.77114">
        <ele>102.2</ele>
        <time>2026-01-25T10:14:35Z</time>
      </trkpt>
      <trkpt lat="48.55387" lon="-2.77114">
        <ele>102.2</ele>
        <time>2026-01-25T10:14:36Z</time>
      </trkpt>
      <trkpt lat="48.55387" lon="-2.77114">
        <ele>102.2</ele>
        <time>2026-01-25T10:14:37Z</time>
      </trkpt>
      <trkpt lat="48.55388" lon="-2.77114">
        <ele>102.2</ele>
        <time>2026-01-25T10:14:38Z</time>
      </trkpt>
      <trkpt lat="48.5539" lon="-2.77114">
        <ele>102.2</ele>
        <time>2026-01-25T10:14:39Z</time>
      </trkpt>
      <trkpt lat="48.55392" lon="-2.77114">
        <ele>102.2</ele>
        <time>2026-01-25T10:14:40Z</time>
      </trkpt>
      <trkpt lat="48.55393" lon="-2.77113">
        <ele>102.2</ele>
        <time>2026-01-25T10:14:41Z</time>
      </trkpt>
      <trkpt lat="48.55394" lon="-2.77113">
        <ele>102.6</ele>
        <time>2026-01-25T10:14:42Z</time>
      </trkpt>
      <trkpt lat="48.55395" lon="-2.77112">
        <ele>102.6</ele>
        <time>2026-01-25T10:14:43Z</time>
      </trkpt>
      <trkpt lat="48.55395" lon="-2.77113">
        <ele>102.6</ele>
        <time>2026-01-25T10:14:44Z</time>
      </trkpt>
      <trkpt lat="48.55395" lon="-2.77113">
        <ele>102.6</ele>
        <time>2026-01-25T10:14:45Z</time>
      </trkpt>
      <trkpt lat="48.55397" lon="-2.77113">
        <ele>102.6</ele>
        <time>2026-01-25T10:14:46Z</time>
      </trkpt>
      <trkpt lat="48.55399" lon="-2.77115">
        <ele>102</ele>
        <time>2026-01-25T10:14:47Z</time>
      </trkpt>
      <trkpt lat="48.554" lon="-2.77117">
        <ele>102</ele>
        <time>2026-01-25T10:14:48Z</time>
      </trkpt>
      <trkpt lat="48.55401" lon="-2.7712">
        <ele>102</ele>
        <time>2026-01-25T10:14:49Z</time>
      </trkpt>
      <trkpt lat="48.55403" lon="-2.77123">
        <ele>102.4</ele>
        <time>2026-01-25T10:14:50Z</time>
      </trkpt>
      <trkpt lat="48.55406" lon="-2.77126">
        <ele>102.2</ele>
        <time>2026-01-25T10:14:51Z</time>
      </trkpt>
      <trkpt lat="48.55409" lon="-2.77127">
        <ele>102.2</ele>
        <time>2026-01-25T10:14:52Z</time>
      </trkpt>
      <trkpt lat="48.55412" lon="-2.77127">
        <ele>102.2</ele>
        <time>2026-01-25T10:14:53Z</time>
      </trkpt>
      <trkpt lat="48.55416" lon="-2.77128">
        <ele>102.6</ele>
        <time>2026-01-25T10:14:54Z</time>
      </trkpt>
      <trkpt lat="48.5542" lon="-2.77127">
        <ele>102.6</ele>
        <time>2026-01-25T10:14:55Z</time>
      </trkpt>
      <trkpt lat="48.55425" lon="-2.77126">
        <ele>102.6</ele>
        <time>2026-01-25T10:14:56Z</time>
      </trkpt>
      <trkpt lat="48.5543" lon="-2.77123">
        <ele>102.6</ele>
        <time>2026-01-25T10:14:57Z</time>
      </trkpt>
      <trkpt lat="48.55435" lon="-2.77121">
        <ele>102.6</ele>
        <time>2026-01-25T10:14:58Z</time>
      </trkpt>
      <trkpt lat="48.55441" lon="-2.77118">
        <ele>101.8</ele>
        <time>2026-01-25T10:14:59Z</time>
      </trkpt>
      <trkpt lat="48.55446" lon="-2.77115">
        <ele>101.8</ele>
        <time>2026-01-25T10:15:00Z</time>
      </trkpt>
      <trkpt lat="48.55452" lon="-2.77111">
        <ele>101.8</ele>
        <time>2026-01-25T10:15:01Z</time>
      </trkpt>
      <trkpt lat="48.55458" lon="-2.77106">
        <ele>100.8</ele>
        <time>2026-01-25T10:15:02Z</time>
      </trkpt>
      <trkpt lat="48.55464" lon="-2.77101">
        <ele>99.8</ele>
        <time>2026-01-25T10:15:03Z</time>
      </trkpt>
      <trkpt lat="48.55469" lon="-2.77095">
        <ele>99.8</ele>
        <time>2026-01-25T10:15:04Z</time>
      </trkpt>
      <trkpt lat="48.55476" lon="-2.77089">
        <ele>99.8</ele>
        <time>2026-01-25T10:15:05Z</time>
      </trkpt>
      <trkpt lat="48.55482" lon="-2.77082">
        <ele>99.8</ele>
        <time>2026-01-25T10:15:06Z</time>
      </trkpt>
      <trkpt lat="48.55488" lon="-2.77075">
        <ele>98.8</ele>
        <time>2026-01-25T10:15:07Z</time>
      </trkpt>
      <trkpt lat="48.55495" lon="-2.77068">
        <ele>98.8</ele>
        <time>2026-01-25T10:15:08Z</time>
      </trkpt>
      <trkpt lat="48.55502" lon="-2.77061">
        <ele>98.8</ele>
        <time>2026-01-25T10:15:09Z</time>
      </trkpt>
      <trkpt lat="48.55509" lon="-2.77054">
        <ele>97.8</ele>
        <time>2026-01-25T10:15:10Z</time>
      </trkpt>
      <trkpt lat="48.55516" lon="-2.77046">
        <ele>96.8</ele>
        <time>2026-01-25T10:15:11Z</time>
      </trkpt>
      <trkpt lat="48.55523" lon="-2.77038">
        <ele>96.8</ele>
        <time>2026-01-25T10:15:12Z</time>
      </trkpt>
      <trkpt lat="48.5553" lon="-2.7703">
        <ele>96.8</ele>
        <time>2026-01-25T10:15:13Z</time>
      </trkpt>
      <trkpt lat="48.55537" lon="-2.77022">
        <ele>95.8</ele>
        <time>2026-01-25T10:15:14Z</time>
      </trkpt>
      <trkpt lat="48.55545" lon="-2.77014">
        <ele>94.4</ele>
        <time>2026-01-25T10:15:15Z</time>
      </trkpt>
      <trkpt lat="48.55553" lon="-2.77006">
        <ele>94.4</ele>
        <time>2026-01-25T10:15:16Z</time>
      </trkpt>
      <trkpt lat="48.5556" lon="-2.76997">
        <ele>94.4</ele>
        <time>2026-01-25T10:15:17Z</time>
      </trkpt>
      <trkpt lat="48.55568" lon="-2.76989">
        <ele>93.4</ele>
        <time>2026-01-25T10:15:18Z</time>
      </trkpt>
      <trkpt lat="48.55577" lon="-2.7698">
        <ele>92.4</ele>
        <time>2026-01-25T10:15:19Z</time>
      </trkpt>
      <trkpt lat="48.55585" lon="-2.76972">
        <ele>92.4</ele>
        <time>2026-01-25T10:15:20Z</time>
      </trkpt>
      <trkpt lat="48.55594" lon="-2.76964">
        <ele>92.4</ele>
        <time>2026-01-25T10:15:21Z</time>
      </trkpt>
      <trkpt lat="48.55602" lon="-2.76957">
        <ele>91.6</ele>
        <time>2026-01-25T10:15:22Z</time>
      </trkpt>
      <trkpt lat="48.55611" lon="-2.7695">
        <ele>91</ele>
        <time>2026-01-25T10:15:23Z</time>
      </trkpt>
      <trkpt lat="48.55621" lon="-2.76944">
        <ele>91</ele>
        <time>2026-01-25T10:15:24Z</time>
      </trkpt>
      <trkpt lat="48.5563" lon="-2.7694">
        <ele>91</ele>
        <time>2026-01-25T10:15:25Z</time>
      </trkpt>
      <trkpt lat="48.5564" lon="-2.76936">
        <ele>90</ele>
        <time>2026-01-25T10:15:26Z</time>
      </trkpt>
      <trkpt lat="48.5565" lon="-2.76932">
        <ele>89.8</ele>
        <time>2026-01-25T10:15:27Z</time>
      </trkpt>
      <trkpt lat="48.5566" lon="-2.7693">
        <ele>89.8</ele>
        <time>2026-01-25T10:15:28Z</time>
      </trkpt>
      <trkpt lat="48.5567" lon="-2.76927">
        <ele>89.8</ele>
        <time>2026-01-25T10:15:29Z</time>
      </trkpt>
      <trkpt lat="48.5568" lon="-2.76925">
        <ele>88.8</ele>
        <time>2026-01-25T10:15:30Z</time>
      </trkpt>
      <trkpt lat="48.5569" lon="-2.76923">
        <ele>87.8</ele>
        <time>2026-01-25T10:15:31Z</time>
      </trkpt>
      <trkpt lat="48.557" lon="-2.76922">
        <ele>87.8</ele>
        <time>2026-01-25T10:15:32Z</time>
      </trkpt>
      <trkpt lat="48.5571" lon="-2.7692">
        <ele>87.8</ele>
        <time>2026-01-25T10:15:33Z</time>
      </trkpt>
      <trkpt lat="48.5572" lon="-2.76918">
        <ele>87.2</ele>
        <time>2026-01-25T10:15:34Z</time>
      </trkpt>
      <trkpt lat="48.5573" lon="-2.76917">
        <ele>86.6</ele>
        <time>2026-01-25T10:15:35Z</time>
      </trkpt>
      <trkpt lat="48.5574" lon="-2.76915">
        <ele>86.6</ele>
        <time>2026-01-25T10:15:36Z</time>
      </trkpt>
      <trkpt lat="48.5575" lon="-2.76913">
        <ele>86.6</ele>
        <time>2026-01-25T10:15:37Z</time>
      </trkpt>
      <trkpt lat="48.5576" lon="-2.76911">
        <ele>85.8</ele>
        <time>2026-01-25T10:15:38Z</time>
      </trkpt>
      <trkpt lat="48.55769" lon="-2.76909">
        <ele>86</ele>
        <time>2026-01-25T10:15:39Z</time>
      </trkpt>
      <trkpt lat="48.55779" lon="-2.76908">
        <ele>86</ele>
        <time>2026-01-25T10:15:40Z</time>
      </trkpt>
      <trkpt lat="48.55789" lon="-2.76906">
        <ele>86</ele>
        <time>2026-01-25T10:15:41Z</time>
      </trkpt>
      <trkpt lat="48.55798" lon="-2.76904">
        <ele>86</ele>
        <time>2026-01-25T10:15:42Z</time>
      </trkpt>
      <trkpt lat="48.55808" lon="-2.76902">
        <ele>84.2</ele>
        <time>2026-01-25T10:15:43Z</time>
      </trkpt>
      <trkpt lat="48.55817" lon="-2.769">
        <ele>84.2</ele>
        <time>2026-01-25T10:15:44Z</time>
      </trkpt>
      <trkpt lat="48.55826" lon="-2.76899">
        <ele>84.2</ele>
        <time>2026-01-25T10:15:45Z</time>
      </trkpt>
      <trkpt lat="48.55836" lon="-2.76897">
        <ele>84.2</ele>
        <time>2026-01-25T10:15:46Z</time>
      </trkpt>
      <trkpt lat="48.55845" lon="-2.76895">
        <ele>83.8</ele>
        <time>2026-01-25T10:15:47Z</time>
      </trkpt>
      <trkpt lat="48.55854" lon="-2.76893">
        <ele>83.8</ele>
        <time>2026-01-25T10:15:48Z</time>
      </trkpt>
      <trkpt lat="48.55864" lon="-2.76891">
        <ele>83.8</ele>
        <time>2026-01-25T10:15:49Z</time>
      </trkpt>
      <trkpt lat="48.55873" lon="-2.76889">
        <ele>83.8</ele>
        <time>2026-01-25T10:15:50Z</time>
      </trkpt>
      <trkpt lat="48.55882" lon="-2.76887">
        <ele>82.4</ele>
        <time>2026-01-25T10:15:51Z</time>
      </trkpt>
      <trkpt lat="48.55891" lon="-2.76885">
        <ele>82.4</ele>
        <time>2026-01-25T10:15:52Z</time>
      </trkpt>
      <trkpt lat="48.55901" lon="-2.76883">
        <ele>82.4</ele>
        <time>2026-01-25T10:15:53Z</time>
      </trkpt>
      <trkpt lat="48.5591" lon="-2.76882">
        <ele>82.4</ele>
        <time>2026-01-25T10:15:54Z</time>
      </trkpt>
      <trkpt lat="48.5592" lon="-2.7688">
        <ele>81.2</ele>
        <time>2026-01-25T10:15:55Z</time>
      </trkpt>
      <trkpt lat="48.55929" lon="-2.76878">
        <ele>81.2</ele>
        <time>2026-01-25T10:15:56Z</time>
      </trkpt>
      <trkpt lat="48.55939" lon="-2.76876">
        <ele>81.2</ele>
        <time>2026-01-25T10:15:57Z</time>
      </trkpt>
      <trkpt lat="48.55948" lon="-2.76874">
        <ele>80.2</ele>
        <time>2026-01-25T10:15:58Z</time>
      </trkpt>
      <trkpt lat="48.55958" lon="-2.76873">
        <ele>79.8</ele>
        <time>2026-01-25T10:15:59Z</time>
      </trkpt>
      <trkpt lat="48.55968" lon="-2.76871">
        <ele>79.8</ele>
        <time>2026-01-25T10:16:00Z</time>
      </trkpt>
      <trkpt lat="48.55978" lon="-2.7687">
        <ele>79.8</ele>
        <time>2026-01-25T10:16:01Z</time>
      </trkpt>
      <trkpt lat="48.55988" lon="-2.76869">
        <ele>78.8</ele>
        <time>2026-01-25T10:16:02Z</time>
      </trkpt>
      <trkpt lat="48.55998" lon="-2.76868">
        <ele>77</ele>
        <time>2026-01-25T10:16:03Z</time>
      </trkpt>
      <trkpt lat="48.56008" lon="-2.76868">
        <ele>77</ele>
        <time>2026-01-25T10:16:04Z</time>
      </trkpt>
      <trkpt lat="48.56017" lon="-2.76868">
        <ele>77</ele>
        <time>2026-01-25T10:16:05Z</time>
      </trkpt>
      <trkpt lat="48.56026" lon="-2.76869">
        <ele>76</ele>
        <time>2026-01-25T10:16:06Z</time>
      </trkpt>
      <trkpt lat="48.56036" lon="-2.7687">
        <ele>74.6</ele>
        <time>2026-01-25T10:16:07Z</time>
      </trkpt>
      <trkpt lat="48.56046" lon="-2.76871">
        <ele>74.6</ele>
        <time>2026-01-25T10:16:08Z</time>
      </trkpt>
      <trkpt lat="48.56055" lon="-2.76872">
        <ele>74.6</ele>
        <time>2026-01-25T10:16:09Z</time>
      </trkpt>
      <trkpt lat="48.56065" lon="-2.76873">
        <ele>74.6</ele>
        <time>2026-01-25T10:16:10Z</time>
      </trkpt>
      <trkpt lat="48.56076" lon="-2.76873">
        <ele>72.2</ele>
        <time>2026-01-25T10:16:11Z</time>
      </trkpt>
      <trkpt lat="48.56086" lon="-2.76874">
        <ele>72.2</ele>
        <time>2026-01-25T10:16:12Z</time>
      </trkpt>
      <trkpt lat="48.56096" lon="-2.76874">
        <ele>72.2</ele>
        <time>2026-01-25T10:16:13Z</time>
      </trkpt>
      <trkpt lat="48.56107" lon="-2.76874">
        <ele>71.2</ele>
        <time>2026-01-25T10:16:14Z</time>
      </trkpt>
      <trkpt lat="48.56118" lon="-2.76874">
        <ele>69.4</ele>
        <time>2026-01-25T10:16:15Z</time>
      </trkpt>
      <trkpt lat="48.56127" lon="-2.76874">
        <ele>69.4</ele>
        <time>2026-01-25T10:16:16Z</time>
      </trkpt>
      <trkpt lat="48.56137" lon="-2.76874">
        <ele>69.4</ele>
        <time>2026-01-25T10:16:17Z</time>
      </trkpt>
      <trkpt lat="48.56147" lon="-2.76873">
        <ele>69.4</ele>
        <time>2026-01-25T10:16:18Z</time>
      </trkpt>
      <trkpt lat="48.56156" lon="-2.76872">
        <ele>67.4</ele>
        <time>2026-01-25T10:16:19Z</time>
      </trkpt>
      <trkpt lat="48.56166" lon="-2.7687">
        <ele>67.4</ele>
        <time>2026-01-25T10:16:20Z</time>
      </trkpt>
      <trkpt lat="48.56176" lon="-2.76868">
        <ele>67.4</ele>
        <time>2026-01-25T10:16:21Z</time>
      </trkpt>
      <trkpt lat="48.56186" lon="-2.76866">
        <ele>66.4</ele>
        <time>2026-01-25T10:16:22Z</time>
      </trkpt>
      <trkpt lat="48.56195" lon="-2.76864">
        <ele>63.2</ele>
        <time>2026-01-25T10:16:23Z</time>
      </trkpt>
      <trkpt lat="48.56205" lon="-2.76863">
        <ele>63.2</ele>
        <time>2026-01-25T10:16:24Z</time>
      </trkpt>
      <trkpt lat="48.56214" lon="-2.76861">
        <ele>63.2</ele>
        <time>2026-01-25T10:16:25Z</time>
      </trkpt>
      <trkpt lat="48.56223" lon="-2.76859">
        <ele>63.2</ele>
        <time>2026-01-25T10:16:26Z</time>
      </trkpt>
      <trkpt lat="48.56233" lon="-2.76857">
        <ele>61</ele>
        <time>2026-01-25T10:16:27Z</time>
      </trkpt>
      <trkpt lat="48.56243" lon="-2.76855">
        <ele>61</ele>
        <time>2026-01-25T10:16:28Z</time>
      </trkpt>
      <trkpt lat="48.56254" lon="-2.76853">
        <ele>61</ele>
        <time>2026-01-25T10:16:29Z</time>
      </trkpt>
      <trkpt lat="48.56265" lon="-2.7685">
        <ele>60</ele>
        <time>2026-01-25T10:16:30Z</time>
      </trkpt>
      <trkpt lat="48.56276" lon="-2.76848">
        <ele>54.2</ele>
        <time>2026-01-25T10:16:31Z</time>
      </trkpt>
      <trkpt lat="48.56288" lon="-2.76846">
        <ele>54.2</ele>
        <time>2026-01-25T10:16:32Z</time>
      </trkpt>
      <trkpt lat="48.56299" lon="-2.76844">
        <ele>54.2</ele>
        <time>2026-01-25T10:16:33Z</time>
      </trkpt>
      <trkpt lat="48.56312" lon="-2.76841">
        <ele>53.2</ele>
        <time>2026-01-25T10:16:34Z</time>
      </trkpt>
      <trkpt lat="48.56324" lon="-2.76838">
        <ele>49.6</ele>
        <time>2026-01-25T10:16:35Z</time>
      </trkpt>
      <trkpt lat="48.56335" lon="-2.76836">
        <ele>49.6</ele>
        <time>2026-01-25T10:16:36Z</time>
      </trkpt>
      <trkpt lat="48.56345" lon="-2.76834">
        <ele>49.6</ele>
        <time>2026-01-25T10:16:37Z</time>
      </trkpt>
      <trkpt lat="48.56354" lon="-2.76833">
        <ele>49.4</ele>
        <time>2026-01-25T10:16:38Z</time>
      </trkpt>
      <trkpt lat="48.56363" lon="-2.76832">
        <ele>49.6</ele>
        <time>2026-01-25T10:16:39Z</time>
      </trkpt>
      <trkpt lat="48.56372" lon="-2.76832">
        <ele>49.6</ele>
        <time>2026-01-25T10:16:40Z</time>
      </trkpt>
      <trkpt lat="48.56381" lon="-2.76833">
        <ele>49.6</ele>
        <time>2026-01-25T10:16:41Z</time>
      </trkpt>
      <trkpt lat="48.56389" lon="-2.76835">
        <ele>48.6</ele>
        <time>2026-01-25T10:16:42Z</time>
      </trkpt>
      <trkpt lat="48.56397" lon="-2.76837">
        <ele>45.4</ele>
        <time>2026-01-25T10:16:43Z</time>
      </trkpt>
      <trkpt lat="48.56406" lon="-2.76839">
        <ele>45.4</ele>
        <time>2026-01-25T10:16:44Z</time>
      </trkpt>
      <trkpt lat="48.56415" lon="-2.76842">
        <ele>45.4</ele>
        <time>2026-01-25T10:16:45Z</time>
      </trkpt>
      <trkpt lat="48.56425" lon="-2.76845">
        <ele>44.4</ele>
        <time>2026-01-25T10:16:46Z</time>
      </trkpt>
      <trkpt lat="48.56436" lon="-2.76848">
        <ele>38</ele>
        <time>2026-01-25T10:16:47Z</time>
      </trkpt>
      <trkpt lat="48.56446" lon="-2.76851">
        <ele>38</ele>
        <time>2026-01-25T10:16:48Z</time>
      </trkpt>
      <trkpt lat="48.56458" lon="-2.76855">
        <ele>38</ele>
        <time>2026-01-25T10:16:49Z</time>
      </trkpt>
      <trkpt lat="48.56469" lon="-2.7686">
        <ele>37</ele>
        <time>2026-01-25T10:16:50Z</time>
      </trkpt>
      <trkpt lat="48.56481" lon="-2.76865">
        <ele>31.4</ele>
        <time>2026-01-25T10:16:51Z</time>
      </trkpt>
      <trkpt lat="48.56492" lon="-2.7687">
        <ele>31.4</ele>
        <time>2026-01-25T10:16:52Z</time>
      </trkpt>
      <trkpt lat="48.56503" lon="-2.76875">
        <ele>31.4</ele>
        <time>2026-01-25T10:16:53Z</time>
      </trkpt>
      <trkpt lat="48.56513" lon="-2.76881">
        <ele>30.4</ele>
        <time>2026-01-25T10:16:54Z</time>
      </trkpt>
      <trkpt lat="48.56522" lon="-2.76887">
        <ele>27.2</ele>
        <time>2026-01-25T10:16:55Z</time>
      </trkpt>
      <trkpt lat="48.56532" lon="-2.76894">
        <ele>27.2</ele>
        <time>2026-01-25T10:16:56Z</time>
      </trkpt>
      <trkpt lat="48.56542" lon="-2.76901">
        <ele>27.2</ele>
        <time>2026-01-25T10:16:57Z</time>
      </trkpt>
      <trkpt lat="48.56551" lon="-2.7691">
        <ele>26.2</ele>
        <time>2026-01-25T10:16:58Z</time>
      </trkpt>
      <trkpt lat="48.56561" lon="-2.7692">
        <ele>22.8</ele>
        <time>2026-01-25T10:16:59Z</time>
      </trkpt>
      <trkpt lat="48.5657" lon="-2.76931">
        <ele>22.8</ele>
        <time>2026-01-25T10:17:00Z</time>
      </trkpt>
      <trkpt lat="48.56579" lon="-2.76942">
        <ele>22.8</ele>
        <time>2026-01-25T10:17:01Z</time>
      </trkpt>
      <trkpt lat="48.56588" lon="-2.76954">
        <ele>21.8</ele>
        <time>2026-01-25T10:17:02Z</time>
      </trkpt>
      <trkpt lat="48.56597" lon="-2.76965">
        <ele>18.2</ele>
        <time>2026-01-25T10:17:03Z</time>
      </trkpt>
      <trkpt lat="48.56606" lon="-2.76977">
        <ele>18.2</ele>
        <time>2026-01-25T10:17:04Z</time>
      </trkpt>
      <trkpt lat="48.56616" lon="-2.7699">
        <ele>18.2</ele>
        <time>2026-01-25T10:17:05Z</time>
      </trkpt>
      <trkpt lat="48.56625" lon="-2.77002">
        <ele>17.2</ele>
        <time>2026-01-25T10:17:06Z</time>
      </trkpt>
      <trkpt lat="48.56633" lon="-2.77013">
        <ele>16.2</ele>
        <time>2026-01-25T10:17:07Z</time>
      </trkpt>
      <trkpt lat="48.56642" lon="-2.77024">
        <ele>16.2</ele>
        <time>2026-01-25T10:17:08Z</time>
      </trkpt>
      <trkpt lat="48.56651" lon="-2.77035">
        <ele>16.2</ele>
        <time>2026-01-25T10:17:09Z</time>
      </trkpt>
      <trkpt lat="48.56659" lon="-2.77044">
        <ele>16.2</ele>
        <time>2026-01-25T10:17:10Z</time>
      </trkpt>
      <trkpt lat="48.56667" lon="-2.77052">
        <ele>16.2</ele>
        <time>2026-01-25T10:17:11Z</time>
      </trkpt>
      <trkpt lat="48.56676" lon="-2.77059">
        <ele>16.2</ele>
        <time>2026-01-25T10:17:12Z</time>
      </trkpt>
      <trkpt lat="48.56684" lon="-2.77065">
        <ele>16.2</ele>
        <time>2026-01-25T10:17:13Z</time>
      </trkpt>
      <trkpt lat="48.56693" lon="-2.7707">
        <ele>15.2</ele>
        <time>2026-01-25T10:17:14Z</time>
      </trkpt>
      <trkpt lat="48.56702" lon="-2.77074">
        <ele>14.4</ele>
        <time>2026-01-25T10:17:15Z</time>
      </trkpt>
      <trkpt lat="48.56711" lon="-2.77077">
        <ele>14.4</ele>
        <time>2026-01-25T10:17:16Z</time>
      </trkpt>
      <trkpt lat="48.5672" lon="-2.77079">
        <ele>14.4</ele>
        <time>2026-01-25T10:17:17Z</time>
      </trkpt>
      <trkpt lat="48.56728" lon="-2.7708">
        <ele>13.4</ele>
        <time>2026-01-25T10:17:18Z</time>
      </trkpt>
      <trkpt lat="48.56738" lon="-2.7708">
        <ele>12.4</ele>
        <time>2026-01-25T10:17:19Z</time>
      </trkpt>
      <trkpt lat="48.56747" lon="-2.7708">
        <ele>12.4</ele>
        <time>2026-01-25T10:17:20Z</time>
      </trkpt>
      <trkpt lat="48.56756" lon="-2.77078">
        <ele>12.4</ele>
        <time>2026-01-25T10:17:21Z</time>
      </trkpt>
      <trkpt lat="48.56766" lon="-2.77077">
        <ele>11.4</ele>
        <time>2026-01-25T10:17:22Z</time>
      </trkpt>
      <trkpt lat="48.56775" lon="-2.77074">
        <ele>9.4</ele>
        <time>2026-01-25T10:17:23Z</time>
      </trkpt>
      <trkpt lat="48.56785" lon="-2.77071">
        <ele>9.4</ele>
        <time>2026-01-25T10:17:24Z</time>
      </trkpt>
      <trkpt lat="48.56795" lon="-2.77069">
        <ele>9.4</ele>
        <time>2026-01-25T10:17:25Z</time>
      </trkpt>
      <trkpt lat="48.56804" lon="-2.77066">
        <ele>8.4</ele>
        <time>2026-01-25T10:17:26Z</time>
      </trkpt>
      <trkpt lat="48.56813" lon="-2.77063">
        <ele>7.8</ele>
        <time>2026-01-25T10:17:27Z</time>
      </trkpt>
      <trkpt lat="48.56822" lon="-2.7706">
        <ele>7.8</ele>
        <time>2026-01-25T10:17:28Z</time>
      </trkpt>
      <trkpt lat="48.56829" lon="-2.77057">
        <ele>7.8</ele>
        <time>2026-01-25T10:17:29Z</time>
      </trkpt>
      <trkpt lat="48.56836" lon="-2.77055">
        <ele>8.8</ele>
        <time>2026-01-25T10:17:30Z</time>
      </trkpt>
      <trkpt lat="48.56843" lon="-2.77052">
        <ele>8</ele>
        <time>2026-01-25T10:17:31Z</time>
      </trkpt>
      <trkpt lat="48.5685" lon="-2.7705">
        <ele>8</ele>
        <time>2026-01-25T10:17:32Z</time>
      </trkpt>
      <trkpt lat="48.56856" lon="-2.77047">
        <ele>8</ele>
        <time>2026-01-25T10:17:33Z</time>
      </trkpt>
      <trkpt lat="48.56863" lon="-2.77042">
        <ele>8</ele>
        <time>2026-01-25T10:17:34Z</time>
      </trkpt>
      <trkpt lat="48.56868" lon="-2.77037">
        <ele>6.4</ele>
        <time>2026-01-25T10:17:35Z</time>
      </trkpt>
      <trkpt lat="48.56874" lon="-2.77032">
        <ele>6.4</ele>
        <time>2026-01-25T10:17:36Z</time>
      </trkpt>
      <trkpt lat="48.5688" lon="-2.77026">
        <ele>6.4</ele>
        <time>2026-01-25T10:17:37Z</time>
      </trkpt>
      <trkpt lat="48.56885" lon="-2.77021">
        <ele>5.8</ele>
        <time>2026-01-25T10:17:38Z</time>
      </trkpt>
      <trkpt lat="48.56889" lon="-2.77014">
        <ele>5.8</ele>
        <time>2026-01-25T10:17:39Z</time>
      </trkpt>
      <trkpt lat="48.56893" lon="-2.77007">
        <ele>5.8</ele>
        <time>2026-01-25T10:17:40Z</time>
      </trkpt>
      <trkpt lat="48.56898" lon="-2.77001">
        <ele>5.8</ele>
        <time>2026-01-25T10:17:41Z</time>
      </trkpt>
      <trkpt lat="48.56904" lon="-2.76994">
        <ele>4.8</ele>
        <time>2026-01-25T10:17:42Z</time>
      </trkpt>
      <trkpt lat="48.56909" lon="-2.76988">
        <ele>3.6</ele>
        <time>2026-01-25T10:17:43Z</time>
      </trkpt>
      <trkpt lat="48.56914" lon="-2.76982">
        <ele>3.6</ele>
        <time>2026-01-25T10:17:44Z</time>
      </trkpt>
      <trkpt lat="48.56919" lon="-2.76976">
        <ele>3.6</ele>
        <time>2026-01-25T10:17:45Z</time>
      </trkpt>
      <trkpt lat="48.56924" lon="-2.76971">
        <ele>3.6</ele>
        <time>2026-01-25T10:17:46Z</time>
      </trkpt>
      <trkpt lat="48.56928" lon="-2.76967">
        <ele>4.4</ele>
        <time>2026-01-25T10:17:47Z</time>
      </trkpt>
      <trkpt lat="48.56931" lon="-2.76963">
        <ele>4.4</ele>
        <time>2026-01-25T10:17:48Z</time>
      </trkpt>
      <trkpt lat="48.56934" lon="-2.7696">
        <ele>4.4</ele>
        <time>2026-01-25T10:17:49Z</time>
      </trkpt>
      <trkpt lat="48.56937" lon="-2.76958">
        <ele>4.8</ele>
        <time>2026-01-25T10:17:50Z</time>
      </trkpt>
      <trkpt lat="48.5694" lon="-2.76958">
        <ele>4.4</ele>
        <time>2026-01-25T10:17:51Z</time>
      </trkpt>
      <trkpt lat="48.56942" lon="-2.7696">
        <ele>4.4</ele>
        <time>2026-01-25T10:17:52Z</time>
      </trkpt>
      <trkpt lat="48.56945" lon="-2.76962">
        <ele>4.4</ele>
        <time>2026-01-25T10:17:53Z</time>
      </trkpt>
      <trkpt lat="48.56947" lon="-2.76965">
        <ele>5</ele>
        <time>2026-01-25T10:17:54Z</time>
      </trkpt>
      <trkpt lat="48.56947" lon="-2.76966">
        <ele>5</ele>
        <time>2026-01-25T10:17:55Z</time>
      </trkpt>
      <trkpt lat="48.56947" lon="-2.76966">
        <ele>5</ele>
        <time>2026-01-25T10:17:56Z</time>
      </trkpt>
      <trkpt lat="48.56947" lon="-2.76966">
        <ele>5</ele>
        <time>2026-01-25T10:17:57Z</time>
      </trkpt>
      <trkpt lat="48.56944" lon="-2.7696">
        <ele>5</ele>
        <time>2026-01-25T10:21:35Z</time>
      </trkpt>
      <trkpt lat="48.56942" lon="-2.7696">
        <ele>5</ele>
        <time>2026-01-25T10:21:36Z</time>
      </trkpt>
      <trkpt lat="48.5694" lon="-2.7696">
        <ele>5</ele>
        <time>2026-01-25T10:21:37Z</time>
      </trkpt>
      <trkpt lat="48.56937" lon="-2.7696">
        <ele>4.8</ele>
        <time>2026-01-25T10:21:38Z</time>
      </trkpt>
      <trkpt lat="48.56935" lon="-2.7696">
        <ele>4.8</ele>
        <time>2026-01-25T10:21:39Z</time>
      </trkpt>
      <trkpt lat="48.56932" lon="-2.76962">
        <ele>4.8</ele>
        <time>2026-01-25T10:21:40Z</time>
      </trkpt>
      <trkpt lat="48.5693" lon="-2.76965">
        <ele>4.8</ele>
        <time>2026-01-25T10:21:41Z</time>
      </trkpt>
      <trkpt lat="48.56927" lon="-2.76969">
        <ele>4.8</ele>
        <time>2026-01-25T10:21:42Z</time>
      </trkpt>
      <trkpt lat="48.56925" lon="-2.76973">
        <ele>4.8</ele>
        <time>2026-01-25T10:21:43Z</time>
      </trkpt>
      <trkpt lat="48.56923" lon="-2.76977">
        <ele>4.8</ele>
        <time>2026-01-25T10:21:44Z</time>
      </trkpt>
      <trkpt lat="48.5692" lon="-2.76981">
        <ele>4.8</ele>
        <time>2026-01-25T10:21:45Z</time>
      </trkpt>
      <trkpt lat="48.56917" lon="-2.76985">
        <ele>5.4</ele>
        <time>2026-01-25T10:21:46Z</time>
      </trkpt>
      <trkpt lat="48.56915" lon="-2.76989">
        <ele>5</ele>
        <time>2026-01-25T10:21:47Z</time>
      </trkpt>
      <trkpt lat="48.56912" lon="-2.76993">
        <ele>5</ele>
        <time>2026-01-25T10:21:48Z</time>
      </trkpt>
      <trkpt lat="48.56909" lon="-2.76996">
        <ele>5</ele>
        <time>2026-01-25T10:21:49Z</time>
      </trkpt>
      <trkpt lat="48.56906" lon="-2.76999">
        <ele>5.6</ele>
        <time>2026-01-25T10:21:50Z</time>
      </trkpt>
      <trkpt lat="48.56903" lon="-2.77002">
        <ele>5.8</ele>
        <time>2026-01-25T10:21:51Z</time>
      </trkpt>
      <trkpt lat="48.569" lon="-2.77006">
        <ele>5.8</ele>
        <time>2026-01-25T10:21:52Z</time>
      </trkpt>
      <trkpt lat="48.56897" lon="-2.77009">
        <ele>5.8</ele>
        <time>2026-01-25T10:21:53Z</time>
      </trkpt>
      <trkpt lat="48.56894" lon="-2.77012">
        <ele>6.6</ele>
        <time>2026-01-25T10:21:54Z</time>
      </trkpt>
      <trkpt lat="48.56892" lon="-2.77016">
        <ele>7</ele>
        <time>2026-01-25T10:21:55Z</time>
      </trkpt>
      <trkpt lat="48.56891" lon="-2.7702">
        <ele>7</ele>
        <time>2026-01-25T10:21:56Z</time>
      </trkpt>
      <trkpt lat="48.56889" lon="-2.77024">
        <ele>7</ele>
        <time>2026-01-25T10:21:57Z</time>
      </trkpt>
      <trkpt lat="48.56888" lon="-2.77029">
        <ele>7</ele>
        <time>2026-01-25T10:21:58Z</time>
      </trkpt>
      <trkpt lat="48.56888" lon="-2.77033">
        <ele>8.2</ele>
        <time>2026-01-25T10:21:59Z</time>
      </trkpt>
      <trkpt lat="48.56888" lon="-2.77039">
        <ele>8.2</ele>
        <time>2026-01-25T10:22:00Z</time>
      </trkpt>
      <trkpt lat="48.56888" lon="-2.77043">
        <ele>8.2</ele>
        <time>2026-01-25T10:22:01Z</time>
      </trkpt>
      <trkpt lat="48.56889" lon="-2.77048">
        <ele>8.2</ele>
        <time>2026-01-25T10:22:02Z</time>
      </trkpt>
      <trkpt lat="48.56889" lon="-2.77052">
        <ele>8.8</ele>
        <time>2026-01-25T10:22:03Z</time>
      </trkpt>
      <trkpt lat="48.5689" lon="-2.77056">
        <ele>8.8</ele>
        <time>2026-01-25T10:22:04Z</time>
      </trkpt>
      <trkpt lat="48.5689" lon="-2.7706">
        <ele>8.8</ele>
        <time>2026-01-25T10:22:05Z</time>
      </trkpt>
      <trkpt lat="48.56889" lon="-2.77065">
        <ele>9.6</ele>
        <time>2026-01-25T10:22:06Z</time>
      </trkpt>
      <trkpt lat="48.56889" lon="-2.77069">
        <ele>9.8</ele>
        <time>2026-01-25T10:22:07Z</time>
      </trkpt>
      <trkpt lat="48.56889" lon="-2.77073">
        <ele>9.8</ele>
        <time>2026-01-25T10:22:08Z</time>
      </trkpt>
      <trkpt lat="48.56889" lon="-2.77078">
        <ele>9.8</ele>
        <time>2026-01-25T10:22:09Z</time>
      </trkpt>
      <trkpt lat="48.56889" lon="-2.77082">
        <ele>9.8</ele>
        <time>2026-01-25T10:22:10Z</time>
      </trkpt>
      <trkpt lat="48.56889" lon="-2.77086">
        <ele>10.4</ele>
        <time>2026-01-25T10:22:11Z</time>
      </trkpt>
      <trkpt lat="48.56888" lon="-2.77091">
        <ele>10.4</ele>
        <time>2026-01-25T10:22:12Z</time>
      </trkpt>
      <trkpt lat="48.56888" lon="-2.77096">
        <ele>10.4</ele>
        <time>2026-01-25T10:22:13Z</time>
      </trkpt>
      <trkpt lat="48.56888" lon="-2.771">
        <ele>11.4</ele>
        <time>2026-01-25T10:22:14Z</time>
      </trkpt>
      <trkpt lat="48.56888" lon="-2.77104">
        <ele>12.2</ele>
        <time>2026-01-25T10:22:15Z</time>
      </trkpt>
      <trkpt lat="48.56888" lon="-2.77108">
        <ele>12.2</ele>
        <time>2026-01-25T10:22:16Z</time>
      </trkpt>
      <trkpt lat="48.56888" lon="-2.77112">
        <ele>12.2</ele>
        <time>2026-01-25T10:22:17Z</time>
      </trkpt>
      <trkpt lat="48.56889" lon="-2.77116">
        <ele>12.8</ele>
        <time>2026-01-25T10:22:18Z</time>
      </trkpt>
      <trkpt lat="48.5689" lon="-2.7712">
        <ele>13</ele>
        <time>2026-01-25T10:22:19Z</time>
      </trkpt>
      <trkpt lat="48.56891" lon="-2.77124">
        <ele>13</ele>
        <time>2026-01-25T10:22:20Z</time>
      </trkpt>
      <trkpt lat="48.56891" lon="-2.77128">
        <ele>13</ele>
        <time>2026-01-25T10:22:21Z</time>
      </trkpt>
      <trkpt lat="48.56892" lon="-2.77133">
        <ele>13.2</ele>
        <time>2026-01-25T10:22:22Z</time>
      </trkpt>
      <trkpt lat="48.56893" lon="-2.77137">
        <ele>13.6</ele>
        <time>2026-01-25T10:22:23Z</time>
      </trkpt>
      <trkpt lat="48.56893" lon="-2.77142">
        <ele>13.6</ele>
        <time>2026-01-25T10:22:24Z</time>
      </trkpt>
      <trkpt lat="48.56894" lon="-2.77147">
        <ele>13.6</ele>
        <time>2026-01-25T10:22:25Z</time>
      </trkpt>
      <trkpt lat="48.56894" lon="-2.77151">
        <ele>13.6</ele>
        <time>2026-01-25T10:22:26Z</time>
      </trkpt>
      <trkpt lat="48.56894" lon="-2.77157">
        <ele>13.8</ele>
        <time>2026-01-25T10:22:27Z</time>
      </trkpt>
      <trkpt lat="48.56895" lon="-2.77162">
        <ele>13.8</ele>
        <time>2026-01-25T10:22:28Z</time>
      </trkpt>
      <trkpt lat="48.56895" lon="-2.77168">
        <ele>13.8</ele>
        <time>2026-01-25T10:22:29Z</time>
      </trkpt>
      <trkpt lat="48.56895" lon="-2.77175">
        <ele>12.8</ele>
        <time>2026-01-25T10:22:30Z</time>
      </trkpt>
      <trkpt lat="48.56895" lon="-2.77182">
        <ele>11.8</ele>
        <time>2026-01-25T10:22:31Z</time>
      </trkpt>
      <trkpt lat="48.56895" lon="-2.77191">
        <ele>11.8</ele>
        <time>2026-01-25T10:22:32Z</time>
      </trkpt>
      <trkpt lat="48.56894" lon="-2.77199">
        <ele>11.8</ele>
        <time>2026-01-25T10:22:33Z</time>
      </trkpt>
      <trkpt lat="48.56892" lon="-2.77208">
        <ele>10.8</ele>
        <time>2026-01-25T10:22:34Z</time>
      </trkpt>
      <trkpt lat="48.5689" lon="-2.77216">
        <ele>9.4</ele>
        <time>2026-01-25T10:22:35Z</time>
      </trkpt>
      <trkpt lat="48.56886" lon="-2.77225">
        <ele>9.4</ele>
        <time>2026-01-25T10:22:36Z</time>
      </trkpt>
      <trkpt lat="48.56883" lon="-2.77234">
        <ele>9.4</ele>
        <time>2026-01-25T10:22:37Z</time>
      </trkpt>
      <trkpt lat="48.56878" lon="-2.77242">
        <ele>8.4</ele>
        <time>2026-01-25T10:22:38Z</time>
      </trkpt>
      <trkpt lat="48.56874" lon="-2.77251">
        <ele>7.4</ele>
        <time>2026-01-25T10:22:39Z</time>
      </trkpt>
      <trkpt lat="48.5687" lon="-2.7726">
        <ele>7.4</ele>
        <time>2026-01-25T10:22:40Z</time>
      </trkpt>
      <trkpt lat="48.56866" lon="-2.7727">
        <ele>7.4</ele>
        <time>2026-01-25T10:22:41Z</time>
      </trkpt>
      <trkpt lat="48.56863" lon="-2.7728">
        <ele>7.2</ele>
        <time>2026-01-25T10:22:42Z</time>
      </trkpt>
      <trkpt lat="48.56861" lon="-2.7729">
        <ele>7</ele>
        <time>2026-01-25T10:22:43Z</time>
      </trkpt>
      <trkpt lat="48.56858" lon="-2.77299">
        <ele>7</ele>
        <time>2026-01-25T10:22:44Z</time>
      </trkpt>
      <trkpt lat="48.56857" lon="-2.77309">
        <ele>7</ele>
        <time>2026-01-25T10:22:45Z</time>
      </trkpt>
      <trkpt lat="48.56856" lon="-2.77318">
        <ele>8</ele>
        <time>2026-01-25T10:22:46Z</time>
      </trkpt>
      <trkpt lat="48.56856" lon="-2.77328">
        <ele>6.4</ele>
        <time>2026-01-25T10:22:47Z</time>
      </trkpt>
      <trkpt lat="48.56858" lon="-2.77337">
        <ele>6.4</ele>
        <time>2026-01-25T10:22:48Z</time>
      </trkpt>
      <trkpt lat="48.56859" lon="-2.77344">
        <ele>6.4</ele>
        <time>2026-01-25T10:22:49Z</time>
      </trkpt>
      <trkpt lat="48.56861" lon="-2.77351">
        <ele>7.4</ele>
        <time>2026-01-25T10:22:50Z</time>
      </trkpt>
      <trkpt lat="48.56862" lon="-2.77356">
        <ele>11.2</ele>
        <time>2026-01-25T10:22:51Z</time>
      </trkpt>
      <trkpt lat="48.56863" lon="-2.77361">
        <ele>11.2</ele>
        <time>2026-01-25T10:22:52Z</time>
      </trkpt>
      <trkpt lat="48.56863" lon="-2.77365">
        <ele>11.2</ele>
        <time>2026-01-25T10:22:53Z</time>
      </trkpt>
      <trkpt lat="48.56864" lon="-2.7737">
        <ele>12</ele>
        <time>2026-01-25T10:22:54Z</time>
      </trkpt>
      <trkpt lat="48.56864" lon="-2.77374">
        <ele>12.2</ele>
        <time>2026-01-25T10:22:55Z</time>
      </trkpt>
      <trkpt lat="48.56865" lon="-2.77379">
        <ele>12.2</ele>
        <time>2026-01-25T10:22:56Z</time>
      </trkpt>
      <trkpt lat="48.56865" lon="-2.77383">
        <ele>12.2</ele>
        <time>2026-01-25T10:22:57Z</time>
      </trkpt>
      <trkpt lat="48.56866" lon="-2.77387">
        <ele>13.2</ele>
        <time>2026-01-25T10:22:58Z</time>
      </trkpt>
      <trkpt lat="48.56866" lon="-2.77391">
        <ele>13.4</ele>
        <time>2026-01-25T10:22:59Z</time>
      </trkpt>
      <trkpt lat="48.56866" lon="-2.77394">
        <ele>13.4</ele>
        <time>2026-01-25T10:23:00Z</time>
      </trkpt>
      <trkpt lat="48.56866" lon="-2.77398">
        <ele>13.4</ele>
        <time>2026-01-25T10:23:01Z</time>
      </trkpt>
      <trkpt lat="48.56866" lon="-2.77401">
        <ele>13.8</ele>
        <time>2026-01-25T10:23:02Z</time>
      </trkpt>
      <trkpt lat="48.56866" lon="-2.77405">
        <ele>14.2</ele>
        <time>2026-01-25T10:23:03Z</time>
      </trkpt>
      <trkpt lat="48.56867" lon="-2.77408">
        <ele>14.2</ele>
        <time>2026-01-25T10:23:04Z</time>
      </trkpt>
      <trkpt lat="48.56867" lon="-2.77411">
        <ele>14.2</ele>
        <time>2026-01-25T10:23:05Z</time>
      </trkpt>
      <trkpt lat="48.56867" lon="-2.77414">
        <ele>14.8</ele>
        <time>2026-01-25T10:23:06Z</time>
      </trkpt>
      <trkpt lat="48.56868" lon="-2.77417">
        <ele>15</ele>
        <time>2026-01-25T10:23:07Z</time>
      </trkpt>
      <trkpt lat="48.56867" lon="-2.7742">
        <ele>15</ele>
        <time>2026-01-25T10:23:08Z</time>
      </trkpt>
      <trkpt lat="48.56867" lon="-2.77424">
        <ele>15</ele>
        <time>2026-01-25T10:23:09Z</time>
      </trkpt>
      <trkpt lat="48.56867" lon="-2.77428">
        <ele>16</ele>
        <time>2026-01-25T10:23:10Z</time>
      </trkpt>
      <trkpt lat="48.56867" lon="-2.77431">
        <ele>16.4</ele>
        <time>2026-01-25T10:23:11Z</time>
      </trkpt>
      <trkpt lat="48.56867" lon="-2.77434">
        <ele>16.4</ele>
        <time>2026-01-25T10:23:12Z</time>
      </trkpt>
      <trkpt lat="48.56867" lon="-2.77437">
        <ele>16.4</ele>
        <time>2026-01-25T10:23:13Z</time>
      </trkpt>
      <trkpt lat="48.56867" lon="-2.7744">
        <ele>17.4</ele>
        <time>2026-01-25T10:23:14Z</time>
      </trkpt>
      <trkpt lat="48.56867" lon="-2.77443">
        <ele>18</ele>
        <time>2026-01-25T10:23:15Z</time>
      </trkpt>
      <trkpt lat="48.56868" lon="-2.77446">
        <ele>18</ele>
        <time>2026-01-25T10:23:16Z</time>
      </trkpt>
      <trkpt lat="48.56867" lon="-2.77449">
        <ele>18</ele>
        <time>2026-01-25T10:23:17Z</time>
      </trkpt>
      <trkpt lat="48.56868" lon="-2.77452">
        <ele>18.4</ele>
        <time>2026-01-25T10:23:18Z</time>
      </trkpt>
      <trkpt lat="48.56868" lon="-2.77456">
        <ele>18.6</ele>
        <time>2026-01-25T10:23:19Z</time>
      </trkpt>
      <trkpt lat="48.56868" lon="-2.77459">
        <ele>18.6</ele>
        <time>2026-01-25T10:23:20Z</time>
      </trkpt>
      <trkpt lat="48.56869" lon="-2.77462">
        <ele>18.6</ele>
        <time>2026-01-25T10:23:21Z</time>
      </trkpt>
      <trkpt lat="48.56869" lon="-2.77464">
        <ele>19.2</ele>
        <time>2026-01-25T10:23:22Z</time>
      </trkpt>
      <trkpt lat="48.56869" lon="-2.77466">
        <ele>19.4</ele>
        <time>2026-01-25T10:23:23Z</time>
      </trkpt>
      <trkpt lat="48.56868" lon="-2.77466">
        <ele>19.4</ele>
        <time>2026-01-25T10:23:24Z</time>
      </trkpt>
      <trkpt lat="48.56868" lon="-2.77466">
        <ele>19.4</ele>
        <time>2026-01-25T10:23:25Z</time>
      </trkpt>
      <trkpt lat="48.56865" lon="-2.77474">
        <ele>19.6</ele>
        <time>2026-01-25T10:24:04Z</time>
      </trkpt>
      <trkpt lat="48.56865" lon="-2.77477">
        <ele>19.6</ele>
        <time>2026-01-25T10:24:05Z</time>
      </trkpt>
      <trkpt lat="48.56865" lon="-2.77481">
        <ele>20</ele>
        <time>2026-01-25T10:24:06Z</time>
      </trkpt>
      <trkpt lat="48.56864" lon="-2.77484">
        <ele>20.2</ele>
        <time>2026-01-25T10:24:07Z</time>
      </trkpt>
      <trkpt lat="48.56863" lon="-2.77489">
        <ele>20.2</ele>
        <time>2026-01-25T10:24:08Z</time>
      </trkpt>
      <trkpt lat="48.56863" lon="-2.77494">
        <ele>20.2</ele>
        <time>2026-01-25T10:24:09Z</time>
      </trkpt>
      <trkpt lat="48.56863" lon="-2.77498">
        <ele>20.4</ele>
        <time>2026-01-25T10:24:10Z</time>
      </trkpt>
      <trkpt lat="48.56862" lon="-2.77503">
        <ele>20.6</ele>
        <time>2026-01-25T10:24:11Z</time>
      </trkpt>
      <trkpt lat="48.56861" lon="-2.77508">
        <ele>20.6</ele>
        <time>2026-01-25T10:24:12Z</time>
      </trkpt>
      <trkpt lat="48.56861" lon="-2.77513">
        <ele>20.6</ele>
        <time>2026-01-25T10:24:13Z</time>
      </trkpt>
      <trkpt lat="48.5686" lon="-2.77518">
        <ele>21.6</ele>
        <time>2026-01-25T10:24:14Z</time>
      </trkpt>
      <trkpt lat="48.5686" lon="-2.77522">
        <ele>21.8</ele>
        <time>2026-01-25T10:24:15Z</time>
      </trkpt>
      <trkpt lat="48.56859" lon="-2.77527">
        <ele>21.8</ele>
        <time>2026-01-25T10:24:16Z</time>
      </trkpt>
      <trkpt lat="48.56858" lon="-2.77531">
        <ele>21.8</ele>
        <time>2026-01-25T10:24:17Z</time>
      </trkpt>
      <trkpt lat="48.56858" lon="-2.77536">
        <ele>22.6</ele>
        <time>2026-01-25T10:24:18Z</time>
      </trkpt>
      <trkpt lat="48.56857" lon="-2.77541">
        <ele>22.6</ele>
        <time>2026-01-25T10:24:19Z</time>
      </trkpt>
      <trkpt lat="48.56857" lon="-2.77546">
        <ele>22.6</ele>
        <time>2026-01-25T10:24:20Z</time>
      </trkpt>
      <trkpt lat="48.56856" lon="-2.77551">
        <ele>22.6</ele>
        <time>2026-01-25T10:24:21Z</time>
      </trkpt>
      <trkpt lat="48.56856" lon="-2.77555">
        <ele>23.4</ele>
        <time>2026-01-25T10:24:22Z</time>
      </trkpt>
      <trkpt lat="48.56855" lon="-2.77559">
        <ele>23.4</ele>
        <time>2026-01-25T10:24:23Z</time>
      </trkpt>
      <trkpt lat="48.56855" lon="-2.77564">
        <ele>23.4</ele>
        <time>2026-01-25T10:24:24Z</time>
      </trkpt>
      <trkpt lat="48.56854" lon="-2.77569">
        <ele>23.4</ele>
        <time>2026-01-25T10:24:25Z</time>
      </trkpt>
      <trkpt lat="48.56854" lon="-2.77573">
        <ele>23.4</ele>
        <time>2026-01-25T10:24:26Z</time>
      </trkpt>
      <trkpt lat="48.56853" lon="-2.77577">
        <ele>24.2</ele>
        <time>2026-01-25T10:24:27Z</time>
      </trkpt>
      <trkpt lat="48.56852" lon="-2.77582">
        <ele>24.2</ele>
        <time>2026-01-25T10:24:28Z</time>
      </trkpt>
      <trkpt lat="48.56852" lon="-2.77586">
        <ele>24.2</ele>
        <time>2026-01-25T10:24:29Z</time>
      </trkpt>
      <trkpt lat="48.56851" lon="-2.7759">
        <ele>25</ele>
        <time>2026-01-25T10:24:30Z</time>
      </trkpt>
      <trkpt lat="48.5685" lon="-2.77595">
        <ele>25.2</ele>
        <time>2026-01-25T10:24:31Z</time>
      </trkpt>
      <trkpt lat="48.56849" lon="-2.77599">
        <ele>25.2</ele>
        <time>2026-01-25T10:24:32Z</time>
      </trkpt>
      <trkpt lat="48.56848" lon="-2.77604">
        <ele>25.2</ele>
        <time>2026-01-25T10:24:33Z</time>
      </trkpt>
      <trkpt lat="48.56848" lon="-2.77608">
        <ele>25.2</ele>
        <time>2026-01-25T10:24:34Z</time>
      </trkpt>
      <trkpt lat="48.56847" lon="-2.77613">
        <ele>25.4</ele>
        <time>2026-01-25T10:24:35Z</time>
      </trkpt>
      <trkpt lat="48.56846" lon="-2.77618">
        <ele>25.4</ele>
        <time>2026-01-25T10:24:36Z</time>
      </trkpt>
      <trkpt lat="48.56845" lon="-2.77622">
        <ele>25.4</ele>
        <time>2026-01-25T10:24:37Z</time>
      </trkpt>
      <trkpt lat="48.56844" lon="-2.77627">
        <ele>26</ele>
        <time>2026-01-25T10:24:38Z</time>
      </trkpt>
      <trkpt lat="48.56844" lon="-2.77631">
        <ele>25.4</ele>
        <time>2026-01-25T10:24:39Z</time>
      </trkpt>
      <trkpt lat="48.56843" lon="-2.77635">
        <ele>25.4</ele>
        <time>2026-01-25T10:24:40Z</time>
      </trkpt>
      <trkpt lat="48.56842" lon="-2.77639">
        <ele>25.4</ele>
        <time>2026-01-25T10:24:41Z</time>
      </trkpt>
      <trkpt lat="48.56841" lon="-2.77644">
        <ele>26.4</ele>
        <time>2026-01-25T10:24:42Z</time>
      </trkpt>
      <trkpt lat="48.5684" lon="-2.77648">
        <ele>27.2</ele>
        <time>2026-01-25T10:24:43Z</time>
      </trkpt>
      <trkpt lat="48.5684" lon="-2.77653">
        <ele>27.2</ele>
        <time>2026-01-25T10:24:44Z</time>
      </trkpt>
      <trkpt lat="48.56839" lon="-2.77657">
        <ele>27.2</ele>
        <time>2026-01-25T10:24:45Z</time>
      </trkpt>
      <trkpt lat="48.56838" lon="-2.77661">
        <ele>27.8</ele>
        <time>2026-01-25T10:24:46Z</time>
      </trkpt>
      <trkpt lat="48.56838" lon="-2.77665">
        <ele>28</ele>
        <time>2026-01-25T10:24:47Z</time>
      </trkpt>
      <trkpt lat="48.56838" lon="-2.77669">
        <ele>28</ele>
        <time>2026-01-25T10:24:48Z</time>
      </trkpt>
      <trkpt lat="48.56837" lon="-2.77673">
        <ele>28</ele>
        <time>2026-01-25T10:24:49Z</time>
      </trkpt>
      <trkpt lat="48.56837" lon="-2.77678">
        <ele>28</ele>
        <time>2026-01-25T10:24:50Z</time>
      </trkpt>
      <trkpt lat="48.56836" lon="-2.77682">
        <ele>28.4</ele>
        <time>2026-01-25T10:24:51Z</time>
      </trkpt>
      <trkpt lat="48.56835" lon="-2.77686">
        <ele>28.4</ele>
        <time>2026-01-25T10:24:52Z</time>
      </trkpt>
      <trkpt lat="48.56834" lon="-2.77691">
        <ele>28.4</ele>
        <time>2026-01-25T10:24:53Z</time>
      </trkpt>
      <trkpt lat="48.56834" lon="-2.77695">
        <ele>29</ele>
        <time>2026-01-25T10:24:54Z</time>
      </trkpt>
      <trkpt lat="48.56833" lon="-2.777">
        <ele>29</ele>
        <time>2026-01-25T10:24:55Z</time>
      </trkpt>
      <trkpt lat="48.56833" lon="-2.77704">
        <ele>29</ele>
        <time>2026-01-25T10:24:56Z</time>
      </trkpt>
      <trkpt lat="48.56833" lon="-2.77708">
        <ele>29</ele>
        <time>2026-01-25T10:24:57Z</time>
      </trkpt>
      <trkpt lat="48.56832" lon="-2.77713">
        <ele>29.8</ele>
        <time>2026-01-25T10:24:58Z</time>
      </trkpt>
      <trkpt lat="48.56831" lon="-2.77718">
        <ele>30</ele>
        <time>2026-01-25T10:24:59Z</time>
      </trkpt>
      <trkpt lat="48.56831" lon="-2.77722">
        <ele>30</ele>
        <time>2026-01-25T10:25:00Z</time>
      </trkpt>
      <trkpt lat="48.5683" lon="-2.77727">
        <ele>30</ele>
        <time>2026-01-25T10:25:01Z</time>
      </trkpt>
      <trkpt lat="48.56829" lon="-2.77732">
        <ele>30.6</ele>
        <time>2026-01-25T10:25:02Z</time>
      </trkpt>
      <trkpt lat="48.56829" lon="-2.77737">
        <ele>30.6</ele>
        <time>2026-01-25T10:25:03Z</time>
      </trkpt>
      <trkpt lat="48.56829" lon="-2.77741">
        <ele>30.6</ele>
        <time>2026-01-25T10:25:04Z</time>
      </trkpt>
      <trkpt lat="48.56829" lon="-2.77746">
        <ele>30.6</ele>
        <time>2026-01-25T10:25:05Z</time>
      </trkpt>
      <trkpt lat="48.56829" lon="-2.7775">
        <ele>31.2</ele>
        <time>2026-01-25T10:25:06Z</time>
      </trkpt>
      <trkpt lat="48.56829" lon="-2.77754">
        <ele>31.6</ele>
        <time>2026-01-25T10:25:07Z</time>
      </trkpt>
      <trkpt lat="48.56829" lon="-2.77759">
        <ele>31.6</ele>
        <time>2026-01-25T10:25:08Z</time>
      </trkpt>
      <trkpt lat="48.5683" lon="-2.77763">
        <ele>31.6</ele>
        <time>2026-01-25T10:25:09Z</time>
      </trkpt>
      <trkpt lat="48.56831" lon="-2.77768">
        <ele>32</ele>
        <time>2026-01-25T10:25:10Z</time>
      </trkpt>
      <trkpt lat="48.56831" lon="-2.77772">
        <ele>32</ele>
        <time>2026-01-25T10:25:11Z</time>
      </trkpt>
      <trkpt lat="48.56833" lon="-2.77775">
        <ele>32</ele>
        <time>2026-01-25T10:25:12Z</time>
      </trkpt>
      <trkpt lat="48.56834" lon="-2.77779">
        <ele>32</ele>
        <time>2026-01-25T10:25:13Z</time>
      </trkpt>
      <trkpt lat="48.56835" lon="-2.77782">
        <ele>32</ele>
        <time>2026-01-25T10:25:14Z</time>
      </trkpt>
      <trkpt lat="48.56836" lon="-2.77787">
        <ele>32.4</ele>
        <time>2026-01-25T10:25:15Z</time>
      </trkpt>
      <trkpt lat="48.56836" lon="-2.77792">
        <ele>32.4</ele>
        <time>2026-01-25T10:25:16Z</time>
      </trkpt>
      <trkpt lat="48.56837" lon="-2.77796">
        <ele>32.4</ele>
        <time>2026-01-25T10:25:17Z</time>
      </trkpt>
      <trkpt lat="48.56838" lon="-2.778">
        <ele>33</ele>
        <time>2026-01-25T10:25:18Z</time>
      </trkpt>
      <trkpt lat="48.56839" lon="-2.77804">
        <ele>33.6</ele>
        <time>2026-01-25T10:25:19Z</time>
      </trkpt>
      <trkpt lat="48.5684" lon="-2.77809">
        <ele>33.6</ele>
        <time>2026-01-25T10:25:20Z</time>
      </trkpt>
      <trkpt lat="48.56841" lon="-2.77814">
        <ele>33.6</ele>
        <time>2026-01-25T10:25:21Z</time>
      </trkpt>
      <trkpt lat="48.56841" lon="-2.77819">
        <ele>33.6</ele>
        <time>2026-01-25T10:25:22Z</time>
      </trkpt>
      <trkpt lat="48.56842" lon="-2.77823">
        <ele>34</ele>
        <time>2026-01-25T10:25:23Z</time>
      </trkpt>
      <trkpt lat="48.56843" lon="-2.77828">
        <ele>34</ele>
        <time>2026-01-25T10:25:24Z</time>
      </trkpt>
      <trkpt lat="48.56844" lon="-2.77832">
        <ele>34</ele>
        <time>2026-01-25T10:25:25Z</time>
      </trkpt>
      <trkpt lat="48.56845" lon="-2.77837">
        <ele>34</ele>
        <time>2026-01-25T10:25:26Z</time>
      </trkpt>
      <trkpt lat="48.56846" lon="-2.77842">
        <ele>35</ele>
        <time>2026-01-25T10:25:27Z</time>
      </trkpt>
      <trkpt lat="48.56846" lon="-2.77847">
        <ele>35</ele>
        <time>2026-01-25T10:25:28Z</time>
      </trkpt>
      <trkpt lat="48.56847" lon="-2.77852">
        <ele>35</ele>
        <time>2026-01-25T10:25:29Z</time>
      </trkpt>
      <trkpt lat="48.56848" lon="-2.77856">
        <ele>35.8</ele>
        <time>2026-01-25T10:25:30Z</time>
      </trkpt>
      <trkpt lat="48.56849" lon="-2.77861">
        <ele>35.6</ele>
        <time>2026-01-25T10:25:31Z</time>
      </trkpt>
      <trkpt lat="48.5685" lon="-2.77865">
        <ele>35.6</ele>
        <time>2026-01-25T10:25:32Z</time>
      </trkpt>
      <trkpt lat="48.56852" lon="-2.7787">
        <ele>35.6</ele>
        <time>2026-01-25T10:25:33Z</time>
      </trkpt>
      <trkpt lat="48.56853" lon="-2.77874">
        <ele>36.2</ele>
        <time>2026-01-25T10:25:34Z</time>
      </trkpt>
      <trkpt lat="48.56854" lon="-2.77877">
        <ele>36.2</ele>
        <time>2026-01-25T10:25:35Z</time>
      </trkpt>
      <trkpt lat="48.56856" lon="-2.77881">
        <ele>36.2</ele>
        <time>2026-01-25T10:25:36Z</time>
      </trkpt>
      <trkpt lat="48.56857" lon="-2.77886">
        <ele>36.2</ele>
        <time>2026-01-25T10:25:37Z</time>
      </trkpt>
      <trkpt lat="48.56858" lon="-2.7789">
        <ele>36.8</ele>
        <time>2026-01-25T10:25:38Z</time>
      </trkpt>
      <trkpt lat="48.56859" lon="-2.77894">
        <ele>37</ele>
        <time>2026-01-25T10:25:39Z</time>
      </trkpt>
      <trkpt lat="48.56859" lon="-2.77899">
        <ele>37</ele>
        <time>2026-01-25T10:25:40Z</time>
      </trkpt>
      <trkpt lat="48.5686" lon="-2.77903">
        <ele>37</ele>
        <time>2026-01-25T10:25:41Z</time>
      </trkpt>
      <trkpt lat="48.5686" lon="-2.77908">
        <ele>37.6</ele>
        <time>2026-01-25T10:25:42Z</time>
      </trkpt>
      <trkpt lat="48.56861" lon="-2.77913">
        <ele>37.8</ele>
        <time>2026-01-25T10:25:43Z</time>
      </trkpt>
      <trkpt lat="48.56861" lon="-2.77918">
        <ele>37.8</ele>
        <time>2026-01-25T10:25:44Z</time>
      </trkpt>
      <trkpt lat="48.56862" lon="-2.77923">
        <ele>37.8</ele>
        <time>2026-01-25T10:25:45Z</time>
      </trkpt>
      <trkpt lat="48.56862" lon="-2.77928">
        <ele>38.4</ele>
        <time>2026-01-25T10:25:46Z</time>
      </trkpt>
      <trkpt lat="48.56862" lon="-2.77933">
        <ele>38.4</ele>
        <time>2026-01-25T10:25:47Z</time>
      </trkpt>
      <trkpt lat="48.56862" lon="-2.77938">
        <ele>38.4</ele>
        <time>2026-01-25T10:25:48Z</time>
      </trkpt>
      <trkpt lat="48.56862" lon="-2.77943">
        <ele>38.4</ele>
        <time>2026-01-25T10:25:49Z</time>
      </trkpt>
      <trkpt lat="48.56862" lon="-2.77948">
        <ele>38.4</ele>
        <time>2026-01-25T10:25:50Z</time>
      </trkpt>
      <trkpt lat="48.56862" lon="-2.77953">
        <ele>39.4</ele>
        <time>2026-01-25T10:25:51Z</time>
      </trkpt>
      <trkpt lat="48.56862" lon="-2.77958">
        <ele>39.4</ele>
        <time>2026-01-25T10:25:52Z</time>
      </trkpt>
      <trkpt lat="48.56863" lon="-2.77963">
        <ele>39.4</ele>
        <time>2026-01-25T10:25:53Z</time>
      </trkpt>
      <trkpt lat="48.56863" lon="-2.77968">
        <ele>39.4</ele>
        <time>2026-01-25T10:25:54Z</time>
      </trkpt>
      <trkpt lat="48.56863" lon="-2.77972">
        <ele>39.8</ele>
        <time>2026-01-25T10:25:55Z</time>
      </trkpt>
      <trkpt lat="48.56863" lon="-2.77976">
        <ele>39.8</ele>
        <time>2026-01-25T10:25:56Z</time>
      </trkpt>
      <trkpt lat="48.56864" lon="-2.77979">
        <ele>39.8</ele>
        <time>2026-01-25T10:25:57Z</time>
      </trkpt>
      <trkpt lat="48.56864" lon="-2.77984">
        <ele>40.6</ele>
        <time>2026-01-25T10:25:58Z</time>
      </trkpt>
      <trkpt lat="48.56865" lon="-2.77988">
        <ele>41</ele>
        <time>2026-01-25T10:25:59Z</time>
      </trkpt>
      <trkpt lat="48.56865" lon="-2.77992">
        <ele>41</ele>
        <time>2026-01-25T10:26:00Z</time>
      </trkpt>
      <trkpt lat="48.56864" lon="-2.77997">
        <ele>41</ele>
        <time>2026-01-25T10:26:01Z</time>
      </trkpt>
      <trkpt lat="48.56864" lon="-2.78002">
        <ele>41</ele>
        <time>2026-01-25T10:26:02Z</time>
      </trkpt>
      <trkpt lat="48.56864" lon="-2.78006">
        <ele>41.6</ele>
        <time>2026-01-25T10:26:03Z</time>
      </trkpt>
      <trkpt lat="48.56864" lon="-2.7801">
        <ele>41.6</ele>
        <time>2026-01-25T10:26:04Z</time>
      </trkpt>
      <trkpt lat="48.56864" lon="-2.78014">
        <ele>41.6</ele>
        <time>2026-01-25T10:26:05Z</time>
      </trkpt>
      <trkpt lat="48.56864" lon="-2.78019">
        <ele>41.6</ele>
        <time>2026-01-25T10:26:06Z</time>
      </trkpt>
      <trkpt lat="48.56865" lon="-2.78023">
        <ele>42</ele>
        <time>2026-01-25T10:26:07Z</time>
      </trkpt>
      <trkpt lat="48.56865" lon="-2.78028">
        <ele>42</ele>
        <time>2026-01-25T10:26:08Z</time>
      </trkpt>
      <trkpt lat="48.56866" lon="-2.78032">
        <ele>42</ele>
        <time>2026-01-25T10:26:09Z</time>
      </trkpt>
      <trkpt lat="48.56866" lon="-2.78036">
        <ele>42.6</ele>
        <time>2026-01-25T10:26:10Z</time>
      </trkpt>
      <trkpt lat="48.56866" lon="-2.78039">
        <ele>42.8</ele>
        <time>2026-01-25T10:26:11Z</time>
      </trkpt>
      <trkpt lat="48.56867" lon="-2.78043">
        <ele>42.8</ele>
        <time>2026-01-25T10:26:12Z</time>
      </trkpt>
      <trkpt lat="48.56868" lon="-2.78047">
        <ele>42.8</ele>
        <time>2026-01-25T10:26:13Z</time>
      </trkpt>
      <trkpt lat="48.56868" lon="-2.78052">
        <ele>43.4</ele>
        <time>2026-01-25T10:26:14Z</time>
      </trkpt>
      <trkpt lat="48.56868" lon="-2.78057">
        <ele>44</ele>
        <time>2026-01-25T10:26:15Z</time>
      </trkpt>
      <trkpt lat="48.56869" lon="-2.78062">
        <ele>44</ele>
        <time>2026-01-25T10:26:16Z</time>
      </trkpt>
      <trkpt lat="48.56869" lon="-2.78066">
        <ele>44</ele>
        <time>2026-01-25T10:26:17Z</time>
      </trkpt>
      <trkpt lat="48.56869" lon="-2.78071">
        <ele>44</ele>
        <time>2026-01-25T10:26:18Z</time>
      </trkpt>
      <trkpt lat="48.5687" lon="-2.78074">
        <ele>44.4</ele>
        <time>2026-01-25T10:26:19Z</time>
      </trkpt>
      <trkpt lat="48.56871" lon="-2.78078">
        <ele>44.4</ele>
        <time>2026-01-25T10:26:20Z</time>
      </trkpt>
      <trkpt lat="48.56872" lon="-2.78082">
        <ele>44.4</ele>
        <time>2026-01-25T10:26:21Z</time>
      </trkpt>
      <trkpt lat="48.56873" lon="-2.78087">
        <ele>45.4</ele>
        <time>2026-01-25T10:26:22Z</time>
      </trkpt>
      <trkpt lat="48.56874" lon="-2.78091">
        <ele>45.6</ele>
        <time>2026-01-25T10:26:23Z</time>
      </trkpt>
      <trkpt lat="48.56875" lon="-2.78096">
        <ele>45.6</ele>
        <time>2026-01-25T10:26:24Z</time>
      </trkpt>
      <trkpt lat="48.56875" lon="-2.78101">
        <ele>45.6</ele>
        <time>2026-01-25T10:26:25Z</time>
      </trkpt>
      <trkpt lat="48.56876" lon="-2.78106">
        <ele>46.4</ele>
        <time>2026-01-25T10:26:26Z</time>
      </trkpt>
      <trkpt lat="48.56876" lon="-2.78112">
        <ele>46.4</ele>
        <time>2026-01-25T10:26:27Z</time>
      </trkpt>
      <trkpt lat="48.56877" lon="-2.78118">
        <ele>46.4</ele>
        <time>2026-01-25T10:26:28Z</time>
      </trkpt>
      <trkpt lat="48.56877" lon="-2.78123">
        <ele>46.4</ele>
        <time>2026-01-25T10:26:29Z</time>
      </trkpt>
      <trkpt lat="48.56877" lon="-2.78129">
        <ele>46.4</ele>
        <time>2026-01-25T10:26:30Z</time>
      </trkpt>
      <trkpt lat="48.56877" lon="-2.78135">
        <ele>46.8</ele>
        <time>2026-01-25T10:26:31Z</time>
      </trkpt>
      <trkpt lat="48.56877" lon="-2.78141">
        <ele>46.8</ele>
        <time>2026-01-25T10:26:32Z</time>
      </trkpt>
      <trkpt lat="48.56877" lon="-2.78145">
        <ele>46.8</ele>
        <time>2026-01-25T10:26:33Z</time>
      </trkpt>
      <trkpt lat="48.56877" lon="-2.7815">
        <ele>47.2</ele>
        <time>2026-01-25T10:26:34Z</time>
      </trkpt>
      <trkpt lat="48.56877" lon="-2.78155">
        <ele>47.6</ele>
        <time>2026-01-25T10:26:35Z</time>
      </trkpt>
      <trkpt lat="48.56878" lon="-2.7816">
        <ele>47.6</ele>
        <time>2026-01-25T10:26:36Z</time>
      </trkpt>
      <trkpt lat="48.56878" lon="-2.78165">
        <ele>47.6</ele>
        <time>2026-01-25T10:26:37Z</time>
      </trkpt>
      <trkpt lat="48.56878" lon="-2.7817">
        <ele>47.6</ele>
        <time>2026-01-25T10:26:38Z</time>
      </trkpt>
      <trkpt lat="48.56878" lon="-2.78175">
        <ele>48</ele>
        <time>2026-01-25T10:26:39Z</time>
      </trkpt>
      <trkpt lat="48.56878" lon="-2.7818">
        <ele>48</ele>
        <time>2026-01-25T10:26:40Z</time>
      </trkpt>
      <trkpt lat="48.56879" lon="-2.78185">
        <ele>48</ele>
        <time>2026-01-25T10:26:41Z</time>
      </trkpt>
      <trkpt lat="48.56879" lon="-2.78189">
        <ele>48.6</ele>
        <time>2026-01-25T10:26:42Z</time>
      </trkpt>
      <trkpt lat="48.56879" lon="-2.78194">
        <ele>48.6</ele>
        <time>2026-01-25T10:26:43Z</time>
      </trkpt>
      <trkpt lat="48.56879" lon="-2.78198">
        <ele>48.6</ele>
        <time>2026-01-25T10:26:44Z</time>
      </trkpt>
      <trkpt lat="48.56879" lon="-2.78203">
        <ele>48.6</ele>
        <time>2026-01-25T10:26:45Z</time>
      </trkpt>
      <trkpt lat="48.56879" lon="-2.78208">
        <ele>49.4</ele>
        <time>2026-01-25T10:26:46Z</time>
      </trkpt>
      <trkpt lat="48.56879" lon="-2.78212">
        <ele>49.4</ele>
        <time>2026-01-25T10:26:47Z</time>
      </trkpt>
      <trkpt lat="48.56879" lon="-2.78217">
        <ele>49.4</ele>
        <time>2026-01-25T10:26:48Z</time>
      </trkpt>
      <trkpt lat="48.56879" lon="-2.78222">
        <ele>49.4</ele>
        <time>2026-01-25T10:26:49Z</time>
      </trkpt>
      <trkpt lat="48.56879" lon="-2.78228">
        <ele>49.8</ele>
        <time>2026-01-25T10:26:50Z</time>
      </trkpt>
      <trkpt lat="48.56878" lon="-2.78232">
        <ele>49.8</ele>
        <time>2026-01-25T10:26:51Z</time>
      </trkpt>
      <trkpt lat="48.56878" lon="-2.78237">
        <ele>49.8</ele>
        <time>2026-01-25T10:26:52Z</time>
      </trkpt>
      <trkpt lat="48.56877" lon="-2.78241">
        <ele>49.8</ele>
        <time>2026-01-25T10:26:53Z</time>
      </trkpt>
      <trkpt lat="48.56877" lon="-2.78244">
        <ele>50.2</ele>
        <time>2026-01-25T10:26:54Z</time>
      </trkpt>
      <trkpt lat="48.56877" lon="-2.78248">
        <ele>50.4</ele>
        <time>2026-01-25T10:26:55Z</time>
      </trkpt>
      <trkpt lat="48.56876" lon="-2.78254">
        <ele>50.4</ele>
        <time>2026-01-25T10:26:56Z</time>
      </trkpt>
      <trkpt lat="48.56876" lon="-2.78258">
        <ele>50.4</ele>
        <time>2026-01-25T10:26:57Z</time>
      </trkpt>
      <trkpt lat="48.56875" lon="-2.78262">
        <ele>51</ele>
        <time>2026-01-25T10:26:58Z</time>
      </trkpt>
      <trkpt lat="48.56874" lon="-2.78267">
        <ele>51.2</ele>
        <time>2026-01-25T10:26:59Z</time>
      </trkpt>
      <trkpt lat="48.56873" lon="-2.78271">
        <ele>51.2</ele>
        <time>2026-01-25T10:27:00Z</time>
      </trkpt>
      <trkpt lat="48.56872" lon="-2.78275">
        <ele>51.2</ele>
        <time>2026-01-25T10:27:01Z</time>
      </trkpt>
      <trkpt lat="48.56871" lon="-2.7828">
        <ele>51.8</ele>
        <time>2026-01-25T10:27:02Z</time>
      </trkpt>
      <trkpt lat="48.5687" lon="-2.78284">
        <ele>52</ele>
        <time>2026-01-25T10:27:03Z</time>
      </trkpt>
      <trkpt lat="48.5687" lon="-2.78289">
        <ele>52</ele>
        <time>2026-01-25T10:27:04Z</time>
      </trkpt>
      <trkpt lat="48.56869" lon="-2.78294">
        <ele>52</ele>
        <time>2026-01-25T10:27:05Z</time>
      </trkpt>
      <trkpt lat="48.56868" lon="-2.78298">
        <ele>52</ele>
        <time>2026-01-25T10:27:06Z</time>
      </trkpt>
      <trkpt lat="48.56867" lon="-2.78303">
        <ele>52.6</ele>
        <time>2026-01-25T10:27:07Z</time>
      </trkpt>
      <trkpt lat="48.56867" lon="-2.78308">
        <ele>52.6</ele>
        <time>2026-01-25T10:27:08Z</time>
      </trkpt>
      <trkpt lat="48.56867" lon="-2.78312">
        <ele>52.6</ele>
        <time>2026-01-25T10:27:09Z</time>
      </trkpt>
      <trkpt lat="48.56866" lon="-2.78317">
        <ele>52.8</ele>
        <time>2026-01-25T10:27:10Z</time>
      </trkpt>
      <trkpt lat="48.56866" lon="-2.78321">
        <ele>53.4</ele>
        <time>2026-01-25T10:27:11Z</time>
      </trkpt>
      <trkpt lat="48.56866" lon="-2.78326">
        <ele>53.4</ele>
        <time>2026-01-25T10:27:12Z</time>
      </trkpt>
      <trkpt lat="48.56865" lon="-2.78331">
        <ele>53.4</ele>
        <time>2026-01-25T10:27:13Z</time>
      </trkpt>
      <trkpt lat="48.56865" lon="-2.78335">
        <ele>54</ele>
        <time>2026-01-25T10:27:14Z</time>
      </trkpt>
      <trkpt lat="48.56865" lon="-2.7834">
        <ele>54.4</ele>
        <time>2026-01-25T10:27:15Z</time>
      </trkpt>
      <trkpt lat="48.56864" lon="-2.78342">
        <ele>54.4</ele>
        <time>2026-01-25T10:27:16Z</time>
      </trkpt>
      <trkpt lat="48.56863" lon="-2.78346">
        <ele>54.4</ele>
        <time>2026-01-25T10:27:17Z</time>
      </trkpt>
      <trkpt lat="48.56862" lon="-2.7835">
        <ele>54.4</ele>
        <time>2026-01-25T10:27:18Z</time>
      </trkpt>
      <trkpt lat="48.56862" lon="-2.78356">
        <ele>54.4</ele>
        <time>2026-01-25T10:27:19Z</time>
      </trkpt>
      <trkpt lat="48.56861" lon="-2.78362">
        <ele>54.4</ele>
        <time>2026-01-25T10:27:20Z</time>
      </trkpt>
      <trkpt lat="48.56859" lon="-2.78367">
        <ele>54.4</ele>
        <time>2026-01-25T10:27:21Z</time>
      </trkpt>
      <trkpt lat="48.56858" lon="-2.78373">
        <ele>55.2</ele>
        <time>2026-01-25T10:27:22Z</time>
      </trkpt>
      <trkpt lat="48.56857" lon="-2.78379">
        <ele>55.2</ele>
        <time>2026-01-25T10:27:23Z</time>
      </trkpt>
      <trkpt lat="48.56856" lon="-2.78385">
        <ele>55.2</ele>
        <time>2026-01-25T10:27:24Z</time>
      </trkpt>
      <trkpt lat="48.56856" lon="-2.78389">
        <ele>55.2</ele>
        <time>2026-01-25T10:27:25Z</time>
      </trkpt>
      <trkpt lat="48.56853" lon="-2.78393">
        <ele>56.2</ele>
        <time>2026-01-25T10:27:26Z</time>
      </trkpt>
      <trkpt lat="48.56852" lon="-2.78398">
        <ele>56.2</ele>
        <time>2026-01-25T10:27:27Z</time>
      </trkpt>
      <trkpt lat="48.56852" lon="-2.78401">
        <ele>56.2</ele>
        <time>2026-01-25T10:27:28Z</time>
      </trkpt>
      <trkpt lat="48.5685" lon="-2.78407">
        <ele>56.2</ele>
        <time>2026-01-25T10:27:29Z</time>
      </trkpt>
      <trkpt lat="48.5685" lon="-2.78411">
        <ele>57</ele>
        <time>2026-01-25T10:27:30Z</time>
      </trkpt>
      <trkpt lat="48.56849" lon="-2.78414">
        <ele>57</ele>
        <time>2026-01-25T10:27:31Z</time>
      </trkpt>
      <trkpt lat="48.56848" lon="-2.78418">
        <ele>57</ele>
        <time>2026-01-25T10:27:32Z</time>
      </trkpt>
      <trkpt lat="48.56847" lon="-2.78422">
        <ele>57</ele>
        <time>2026-01-25T10:27:33Z</time>
      </trkpt>
      <trkpt lat="48.56845" lon="-2.78425">
        <ele>57.6</ele>
        <time>2026-01-25T10:27:34Z</time>
      </trkpt>
      <trkpt lat="48.56844" lon="-2.78429">
        <ele>58</ele>
        <time>2026-01-25T10:27:35Z</time>
      </trkpt>
      <trkpt lat="48.56843" lon="-2.78434">
        <ele>58</ele>
        <time>2026-01-25T10:27:36Z</time>
      </trkpt>
      <trkpt lat="48.56842" lon="-2.7844">
        <ele>58</ele>
        <time>2026-01-25T10:27:37Z</time>
      </trkpt>
      <trkpt lat="48.5684" lon="-2.78446">
        <ele>58.2</ele>
        <time>2026-01-25T10:27:38Z</time>
      </trkpt>
      <trkpt lat="48.56839" lon="-2.78451">
        <ele>58.2</ele>
        <time>2026-01-25T10:27:39Z</time>
      </trkpt>
      <trkpt lat="48.56838" lon="-2.78455">
        <ele>58.2</ele>
        <time>2026-01-25T10:27:40Z</time>
      </trkpt>
      <trkpt lat="48.56837" lon="-2.78462">
        <ele>58.2</ele>
        <time>2026-01-25T10:27:41Z</time>
      </trkpt>
      <trkpt lat="48.56836" lon="-2.78467">
        <ele>59</ele>
        <time>2026-01-25T10:27:42Z</time>
      </trkpt>
      <trkpt lat="48.56834" lon="-2.78472">
        <ele>58.8</ele>
        <time>2026-01-25T10:27:43Z</time>
      </trkpt>
      <trkpt lat="48.56834" lon="-2.78477">
        <ele>58.8</ele>
        <time>2026-01-25T10:27:44Z</time>
      </trkpt>
      <trkpt lat="48.56833" lon="-2.78482">
        <ele>58.8</ele>
        <time>2026-01-25T10:27:45Z</time>
      </trkpt>
      <trkpt lat="48.56833" lon="-2.78487">
        <ele>59.8</ele>
        <time>2026-01-25T10:27:46Z</time>
      </trkpt>
      <trkpt lat="48.56833" lon="-2.78492">
        <ele>60</ele>
        <time>2026-01-25T10:27:47Z</time>
      </trkpt>
      <trkpt lat="48.56833" lon="-2.78496">
        <ele>60</ele>
        <time>2026-01-25T10:27:48Z</time>
      </trkpt>
      <trkpt lat="48.56833" lon="-2.78501">
        <ele>60</ele>
        <time>2026-01-25T10:27:49Z</time>
      </trkpt>
      <trkpt lat="48.56833" lon="-2.78505">
        <ele>60</ele>
        <time>2026-01-25T10:27:50Z</time>
      </trkpt>
      <trkpt lat="48.56833" lon="-2.78509">
        <ele>61</ele>
        <time>2026-01-25T10:27:51Z</time>
      </trkpt>
      <trkpt lat="48.56834" lon="-2.78514">
        <ele>61</ele>
        <time>2026-01-25T10:27:52Z</time>
      </trkpt>
      <trkpt lat="48.56835" lon="-2.78517">
        <ele>61</ele>
        <time>2026-01-25T10:27:53Z</time>
      </trkpt>
      <trkpt lat="48.56836" lon="-2.78521">
        <ele>61.2</ele>
        <time>2026-01-25T10:27:54Z</time>
      </trkpt>
      <trkpt lat="48.56838" lon="-2.78526">
        <ele>61.8</ele>
        <time>2026-01-25T10:27:55Z</time>
      </trkpt>
      <trkpt lat="48.56839" lon="-2.78532">
        <ele>61.8</ele>
        <time>2026-01-25T10:27:56Z</time>
      </trkpt>
      <trkpt lat="48.5684" lon="-2.78537">
        <ele>61.8</ele>
        <time>2026-01-25T10:27:57Z</time>
      </trkpt>
      <trkpt lat="48.56842" lon="-2.78542">
        <ele>61.8</ele>
        <time>2026-01-25T10:27:58Z</time>
      </trkpt>
      <trkpt lat="48.56843" lon="-2.78547">
        <ele>62.4</ele>
        <time>2026-01-25T10:27:59Z</time>
      </trkpt>
      <trkpt lat="48.56845" lon="-2.78552">
        <ele>62.4</ele>
        <time>2026-01-25T10:28:00Z</time>
      </trkpt>
      <trkpt lat="48.56847" lon="-2.78555">
        <ele>62.4</ele>
        <time>2026-01-25T10:28:01Z</time>
      </trkpt>
      <trkpt lat="48.5685" lon="-2.78558">
        <ele>63</ele>
        <time>2026-01-25T10:28:02Z</time>
      </trkpt>
      <trkpt lat="48.56852" lon="-2.78561">
        <ele>63</ele>
        <time>2026-01-25T10:28:03Z</time>
      </trkpt>
      <trkpt lat="48.56854" lon="-2.78565">
        <ele>63</ele>
        <time>2026-01-25T10:28:04Z</time>
      </trkpt>
      <trkpt lat="48.56856" lon="-2.78571">
        <ele>63</ele>
        <time>2026-01-25T10:28:05Z</time>
      </trkpt>
      <trkpt lat="48.56857" lon="-2.78576">
        <ele>64</ele>
        <time>2026-01-25T10:28:06Z</time>
      </trkpt>
      <trkpt lat="48.56859" lon="-2.78581">
        <ele>64.2</ele>
        <time>2026-01-25T10:28:07Z</time>
      </trkpt>
      <trkpt lat="48.56861" lon="-2.78586">
        <ele>64.2</ele>
        <time>2026-01-25T10:28:08Z</time>
      </trkpt>
      <trkpt lat="48.56863" lon="-2.78591">
        <ele>64.2</ele>
        <time>2026-01-25T10:28:09Z</time>
      </trkpt>
      <trkpt lat="48.56864" lon="-2.78595">
        <ele>65</ele>
        <time>2026-01-25T10:28:10Z</time>
      </trkpt>
      <trkpt lat="48.56867" lon="-2.78599">
        <ele>64.8</ele>
        <time>2026-01-25T10:28:11Z</time>
      </trkpt>
      <trkpt lat="48.56868" lon="-2.78603">
        <ele>64.8</ele>
        <time>2026-01-25T10:28:12Z</time>
      </trkpt>
      <trkpt lat="48.5687" lon="-2.78609">
        <ele>64.8</ele>
        <time>2026-01-25T10:28:13Z</time>
      </trkpt>
      <trkpt lat="48.56872" lon="-2.78614">
        <ele>65.2</ele>
        <time>2026-01-25T10:28:14Z</time>
      </trkpt>
      <trkpt lat="48.56873" lon="-2.78619">
        <ele>65.4</ele>
        <time>2026-01-25T10:28:15Z</time>
      </trkpt>
      <trkpt lat="48.56875" lon="-2.78623">
        <ele>65.4</ele>
        <time>2026-01-25T10:28:16Z</time>
      </trkpt>
      <trkpt lat="48.56876" lon="-2.78627">
        <ele>65.4</ele>
        <time>2026-01-25T10:28:17Z</time>
      </trkpt>
      <trkpt lat="48.56877" lon="-2.78631">
        <ele>66.4</ele>
        <time>2026-01-25T10:28:18Z</time>
      </trkpt>
      <trkpt lat="48.56879" lon="-2.78636">
        <ele>66.2</ele>
        <time>2026-01-25T10:28:19Z</time>
      </trkpt>
      <trkpt lat="48.56881" lon="-2.7864">
        <ele>66.2</ele>
        <time>2026-01-25T10:28:20Z</time>
      </trkpt>
      <trkpt lat="48.56882" lon="-2.78644">
        <ele>66.2</ele>
        <time>2026-01-25T10:28:21Z</time>
      </trkpt>
      <trkpt lat="48.56885" lon="-2.78648">
        <ele>66.6</ele>
        <time>2026-01-25T10:28:22Z</time>
      </trkpt>
      <trkpt lat="48.56887" lon="-2.78651">
        <ele>67.6</ele>
        <time>2026-01-25T10:28:23Z</time>
      </trkpt>
      <trkpt lat="48.56889" lon="-2.78654">
        <ele>67.6</ele>
        <time>2026-01-25T10:28:24Z</time>
      </trkpt>
      <trkpt lat="48.56891" lon="-2.78657">
        <ele>67.6</ele>
        <time>2026-01-25T10:28:25Z</time>
      </trkpt>
      <trkpt lat="48.56894" lon="-2.78661">
        <ele>68.2</ele>
        <time>2026-01-25T10:28:26Z</time>
      </trkpt>
      <trkpt lat="48.56896" lon="-2.78663">
        <ele>68.2</ele>
        <time>2026-01-25T10:28:27Z</time>
      </trkpt>
      <trkpt lat="48.56899" lon="-2.78665">
        <ele>68.2</ele>
        <time>2026-01-25T10:28:28Z</time>
      </trkpt>
      <trkpt lat="48.56901" lon="-2.78668">
        <ele>68.2</ele>
        <time>2026-01-25T10:28:29Z</time>
      </trkpt>
      <trkpt lat="48.56903" lon="-2.78672">
        <ele>68.6</ele>
        <time>2026-01-25T10:28:30Z</time>
      </trkpt>
      <trkpt lat="48.56905" lon="-2.78675">
        <ele>68.8</ele>
        <time>2026-01-25T10:28:31Z</time>
      </trkpt>
      <trkpt lat="48.56908" lon="-2.78677">
        <ele>68.8</ele>
        <time>2026-01-25T10:28:32Z</time>
      </trkpt>
      <trkpt lat="48.5691" lon="-2.78679">
        <ele>68.8</ele>
        <time>2026-01-25T10:28:33Z</time>
      </trkpt>
      <trkpt lat="48.56912" lon="-2.78683">
        <ele>68.8</ele>
        <time>2026-01-25T10:28:34Z</time>
      </trkpt>
      <trkpt lat="48.56914" lon="-2.78687">
        <ele>69.4</ele>
        <time>2026-01-25T10:28:35Z</time>
      </trkpt>
      <trkpt lat="48.56917" lon="-2.78691">
        <ele>69.4</ele>
        <time>2026-01-25T10:28:36Z</time>
      </trkpt>
      <trkpt lat="48.56919" lon="-2.78694">
        <ele>69.4</ele>
        <time>2026-01-25T10:28:37Z</time>
      </trkpt>
      <trkpt lat="48.56921" lon="-2.78698">
        <ele>69.4</ele>
        <time>2026-01-25T10:28:38Z</time>
      </trkpt>
      <trkpt lat="48.56923" lon="-2.78703">
        <ele>70</ele>
        <time>2026-01-25T10:28:39Z</time>
      </trkpt>
      <trkpt lat="48.56926" lon="-2.78707">
        <ele>70</ele>
        <time>2026-01-25T10:28:40Z</time>
      </trkpt>
      <trkpt lat="48.56928" lon="-2.78711">
        <ele>70</ele>
        <time>2026-01-25T10:28:41Z</time>
      </trkpt>
      <trkpt lat="48.5693" lon="-2.78713">
        <ele>70.6</ele>
        <time>2026-01-25T10:28:42Z</time>
      </trkpt>
      <trkpt lat="48.56933" lon="-2.78717">
        <ele>70.6</ele>
        <time>2026-01-25T10:28:43Z</time>
      </trkpt>
      <trkpt lat="48.56936" lon="-2.7872">
        <ele>70.6</ele>
        <time>2026-01-25T10:28:44Z</time>
      </trkpt>
      <trkpt lat="48.56938" lon="-2.78724">
        <ele>70.6</ele>
        <time>2026-01-25T10:28:45Z</time>
      </trkpt>
      <trkpt lat="48.56941" lon="-2.78729">
        <ele>71.2</ele>
        <time>2026-01-25T10:28:46Z</time>
      </trkpt>
      <trkpt lat="48.56944" lon="-2.78734">
        <ele>71.6</ele>
        <time>2026-01-25T10:28:47Z</time>
      </trkpt>
      <trkpt lat="48.56946" lon="-2.78739">
        <ele>71.6</ele>
        <time>2026-01-25T10:28:48Z</time>
      </trkpt>
      <trkpt lat="48.56949" lon="-2.78743">
        <ele>71.6</ele>
        <time>2026-01-25T10:28:49Z</time>
      </trkpt>
      <trkpt lat="48.56952" lon="-2.78747">
        <ele>72</ele>
        <time>2026-01-25T10:28:50Z</time>
      </trkpt>
      <trkpt lat="48.56954" lon="-2.78751">
        <ele>71.8</ele>
        <time>2026-01-25T10:28:51Z</time>
      </trkpt>
      <trkpt lat="48.56957" lon="-2.78754">
        <ele>71.8</ele>
        <time>2026-01-25T10:28:52Z</time>
      </trkpt>
      <trkpt lat="48.5696" lon="-2.78757">
        <ele>71.8</ele>
        <time>2026-01-25T10:28:53Z</time>
      </trkpt>
      <trkpt lat="48.56963" lon="-2.7876">
        <ele>72.8</ele>
        <time>2026-01-25T10:28:54Z</time>
      </trkpt>
      <trkpt lat="48.56965" lon="-2.78763">
        <ele>72.6</ele>
        <time>2026-01-25T10:28:55Z</time>
      </trkpt>
      <trkpt lat="48.56967" lon="-2.78767">
        <ele>72.6</ele>
        <time>2026-01-25T10:28:56Z</time>
      </trkpt>
      <trkpt lat="48.56969" lon="-2.78771">
        <ele>72.6</ele>
        <time>2026-01-25T10:28:57Z</time>
      </trkpt>
      <trkpt lat="48.56971" lon="-2.78774">
        <ele>73.6</ele>
        <time>2026-01-25T10:28:58Z</time>
      </trkpt>
      <trkpt lat="48.56973" lon="-2.78777">
        <ele>73.4</ele>
        <time>2026-01-25T10:28:59Z</time>
      </trkpt>
      <trkpt lat="48.56975" lon="-2.7878">
        <ele>73.4</ele>
        <time>2026-01-25T10:29:00Z</time>
      </trkpt>
      <trkpt lat="48.56978" lon="-2.78784">
        <ele>73.4</ele>
        <time>2026-01-25T10:29:01Z</time>
      </trkpt>
      <trkpt lat="48.5698" lon="-2.78787">
        <ele>74.4</ele>
        <time>2026-01-25T10:29:02Z</time>
      </trkpt>
      <trkpt lat="48.56982" lon="-2.78791">
        <ele>74.4</ele>
        <time>2026-01-25T10:29:03Z</time>
      </trkpt>
      <trkpt lat="48.56984" lon="-2.78795">
        <ele>74.4</ele>
        <time>2026-01-25T10:29:04Z</time>
      </trkpt>
      <trkpt lat="48.56986" lon="-2.78799">
        <ele>74.4</ele>
        <time>2026-01-25T10:29:05Z</time>
      </trkpt>
      <trkpt lat="48.56988" lon="-2.78803">
        <ele>75</ele>
        <time>2026-01-25T10:29:06Z</time>
      </trkpt>
      <trkpt lat="48.5699" lon="-2.78807">
        <ele>75.4</ele>
        <time>2026-01-25T10:29:07Z</time>
      </trkpt>
      <trkpt lat="48.56992" lon="-2.7881">
        <ele>75.4</ele>
        <time>2026-01-25T10:29:08Z</time>
      </trkpt>
      <trkpt lat="48.56995" lon="-2.78814">
        <ele>75.4</ele>
        <time>2026-01-25T10:29:09Z</time>
      </trkpt>
      <trkpt lat="48.56997" lon="-2.78817">
        <ele>75.8</ele>
        <time>2026-01-25T10:29:10Z</time>
      </trkpt>
      <trkpt lat="48.56999" lon="-2.78821">
        <ele>76</ele>
        <time>2026-01-25T10:29:11Z</time>
      </trkpt>
      <trkpt lat="48.57002" lon="-2.78825">
        <ele>76</ele>
        <time>2026-01-25T10:29:12Z</time>
      </trkpt>
      <trkpt lat="48.57005" lon="-2.78828">
        <ele>76</ele>
        <time>2026-01-25T10:29:13Z</time>
      </trkpt>
      <trkpt lat="48.57008" lon="-2.78831">
        <ele>77</ele>
        <time>2026-01-25T10:29:14Z</time>
      </trkpt>
      <trkpt lat="48.57011" lon="-2.78834">
        <ele>77.4</ele>
        <time>2026-01-25T10:29:15Z</time>
      </trkpt>
      <trkpt lat="48.57014" lon="-2.78837">
        <ele>77.4</ele>
        <time>2026-01-25T10:29:16Z</time>
      </trkpt>
      <trkpt lat="48.57017" lon="-2.7884">
        <ele>77.4</ele>
        <time>2026-01-25T10:29:17Z</time>
      </trkpt>
      <trkpt lat="48.5702" lon="-2.78843">
        <ele>78.4</ele>
        <time>2026-01-25T10:29:18Z</time>
      </trkpt>
      <trkpt lat="48.57023" lon="-2.78847">
        <ele>78.2</ele>
        <time>2026-01-25T10:29:19Z</time>
      </trkpt>
      <trkpt lat="48.57025" lon="-2.7885">
        <ele>78.2</ele>
        <time>2026-01-25T10:29:20Z</time>
      </trkpt>
      <trkpt lat="48.57028" lon="-2.78852">
        <ele>78.2</ele>
        <time>2026-01-25T10:29:21Z</time>
      </trkpt>
      <trkpt lat="48.57031" lon="-2.78854">
        <ele>79</ele>
        <time>2026-01-25T10:29:22Z</time>
      </trkpt>
      <trkpt lat="48.57034" lon="-2.78857">
        <ele>79.2</ele>
        <time>2026-01-25T10:29:23Z</time>
      </trkpt>
      <trkpt lat="48.57038" lon="-2.7886">
        <ele>79.2</ele>
        <time>2026-01-25T10:29:24Z</time>
      </trkpt>
      <trkpt lat="48.57041" lon="-2.78864">
        <ele>79.2</ele>
        <time>2026-01-25T10:29:25Z</time>
      </trkpt>
      <trkpt lat="48.57044" lon="-2.78867">
        <ele>79.8</ele>
        <time>2026-01-25T10:29:26Z</time>
      </trkpt>
      <trkpt lat="48.57047" lon="-2.78871">
        <ele>80</ele>
        <time>2026-01-25T10:29:27Z</time>
      </trkpt>
      <trkpt lat="48.5705" lon="-2.78874">
        <ele>80</ele>
        <time>2026-01-25T10:29:28Z</time>
      </trkpt>
      <trkpt lat="48.57053" lon="-2.78878">
        <ele>80</ele>
        <time>2026-01-25T10:29:29Z</time>
      </trkpt>
      <trkpt lat="48.57055" lon="-2.78882">
        <ele>80</ele>
        <time>2026-01-25T10:29:30Z</time>
      </trkpt>
      <trkpt lat="48.57058" lon="-2.78886">
        <ele>80.8</ele>
        <time>2026-01-25T10:29:31Z</time>
      </trkpt>
      <trkpt lat="48.5706" lon="-2.7889">
        <ele>80.8</ele>
        <time>2026-01-25T10:29:32Z</time>
      </trkpt>
      <trkpt lat="48.57062" lon="-2.78895">
        <ele>80.8</ele>
        <time>2026-01-25T10:29:33Z</time>
      </trkpt>
      <trkpt lat="48.57064" lon="-2.789">
        <ele>80.8</ele>
        <time>2026-01-25T10:29:34Z</time>
      </trkpt>
      <trkpt lat="48.57065" lon="-2.78906">
        <ele>81</ele>
        <time>2026-01-25T10:29:35Z</time>
      </trkpt>
      <trkpt lat="48.57067" lon="-2.78911">
        <ele>81</ele>
        <time>2026-01-25T10:29:36Z</time>
      </trkpt>
      <trkpt lat="48.57068" lon="-2.78916">
        <ele>81</ele>
        <time>2026-01-25T10:29:37Z</time>
      </trkpt>
      <trkpt lat="48.57068" lon="-2.78922">
        <ele>81</ele>
        <time>2026-01-25T10:29:38Z</time>
      </trkpt>
      <trkpt lat="48.57069" lon="-2.78928">
        <ele>81.4</ele>
        <time>2026-01-25T10:29:39Z</time>
      </trkpt>
      <trkpt lat="48.5707" lon="-2.78933">
        <ele>81.4</ele>
        <time>2026-01-25T10:29:40Z</time>
      </trkpt>
      <trkpt lat="48.57071" lon="-2.78939">
        <ele>81.4</ele>
        <time>2026-01-25T10:29:41Z</time>
      </trkpt>
      <trkpt lat="48.57071" lon="-2.78945">
        <ele>81.4</ele>
        <time>2026-01-25T10:29:42Z</time>
      </trkpt>
      <trkpt lat="48.57072" lon="-2.78951">
        <ele>81.6</ele>
        <time>2026-01-25T10:29:43Z</time>
      </trkpt>
      <trkpt lat="48.57073" lon="-2.78957">
        <ele>81.6</ele>
        <time>2026-01-25T10:29:44Z</time>
      </trkpt>
      <trkpt lat="48.57074" lon="-2.78964">
        <ele>81.6</ele>
        <time>2026-01-25T10:29:45Z</time>
      </trkpt>
      <trkpt lat="48.57075" lon="-2.7897">
        <ele>81.4</ele>
        <time>2026-01-25T10:29:46Z</time>
      </trkpt>
      <trkpt lat="48.57077" lon="-2.78977">
        <ele>81.2</ele>
        <time>2026-01-25T10:29:47Z</time>
      </trkpt>
      <trkpt lat="48.57078" lon="-2.78984">
        <ele>81.2</ele>
        <time>2026-01-25T10:29:48Z</time>
      </trkpt>
      <trkpt lat="48.5708" lon="-2.78991">
        <ele>81.2</ele>
        <time>2026-01-25T10:29:49Z</time>
      </trkpt>
      <trkpt lat="48.57081" lon="-2.78997">
        <ele>81.2</ele>
        <time>2026-01-25T10:29:50Z</time>
      </trkpt>
      <trkpt lat="48.57084" lon="-2.79004">
        <ele>80.8</ele>
        <time>2026-01-25T10:29:51Z</time>
      </trkpt>
      <trkpt lat="48.57086" lon="-2.7901">
        <ele>80.8</ele>
        <time>2026-01-25T10:29:52Z</time>
      </trkpt>
      <trkpt lat="48.57089" lon="-2.79016">
        <ele>80.8</ele>
        <time>2026-01-25T10:29:53Z</time>
      </trkpt>
      <trkpt lat="48.57093" lon="-2.79022">
        <ele>80</ele>
        <time>2026-01-25T10:29:54Z</time>
      </trkpt>
      <trkpt lat="48.57097" lon="-2.79028">
        <ele>80</ele>
        <time>2026-01-25T10:29:55Z</time>
      </trkpt>
      <trkpt lat="48.57101" lon="-2.79034">
        <ele>80</ele>
        <time>2026-01-25T10:29:56Z</time>
      </trkpt>
      <trkpt lat="48.57106" lon="-2.7904">
        <ele>80</ele>
        <time>2026-01-25T10:29:57Z</time>
      </trkpt>
      <trkpt lat="48.5711" lon="-2.79046">
        <ele>79</ele>
        <time>2026-01-25T10:29:58Z</time>
      </trkpt>
      <trkpt lat="48.57114" lon="-2.79052">
        <ele>79.6</ele>
        <time>2026-01-25T10:29:59Z</time>
      </trkpt>
      <trkpt lat="48.57118" lon="-2.79059">
        <ele>79.6</ele>
        <time>2026-01-25T10:30:00Z</time>
      </trkpt>
      <trkpt lat="48.57121" lon="-2.79067">
        <ele>79.6</ele>
        <time>2026-01-25T10:30:01Z</time>
      </trkpt>
      <trkpt lat="48.57124" lon="-2.79074">
        <ele>79.6</ele>
        <time>2026-01-25T10:30:02Z</time>
      </trkpt>
      <trkpt lat="48.57127" lon="-2.79081">
        <ele>80.8</ele>
        <time>2026-01-25T10:30:03Z</time>
      </trkpt>
      <trkpt lat="48.5713" lon="-2.79088">
        <ele>80.8</ele>
        <time>2026-01-25T10:30:04Z</time>
      </trkpt>
      <trkpt lat="48.57132" lon="-2.79095">
        <ele>80.8</ele>
        <time>2026-01-25T10:30:05Z</time>
      </trkpt>
      <trkpt lat="48.57134" lon="-2.79101">
        <ele>81.8</ele>
        <time>2026-01-25T10:30:06Z</time>
      </trkpt>
      <trkpt lat="48.57136" lon="-2.79108">
        <ele>81.8</ele>
        <time>2026-01-25T10:30:07Z</time>
      </trkpt>
      <trkpt lat="48.57139" lon="-2.79115">
        <ele>81.8</ele>
        <time>2026-01-25T10:30:08Z</time>
      </trkpt>
      <trkpt lat="48.57141" lon="-2.79122">
        <ele>81.8</ele>
        <time>2026-01-25T10:30:09Z</time>
      </trkpt>
      <trkpt lat="48.57144" lon="-2.79129">
        <ele>81.8</ele>
        <time>2026-01-25T10:30:10Z</time>
      </trkpt>
      <trkpt lat="48.57146" lon="-2.79136">
        <ele>82.2</ele>
        <time>2026-01-25T10:30:11Z</time>
      </trkpt>
      <trkpt lat="48.57149" lon="-2.79143">
        <ele>82.2</ele>
        <time>2026-01-25T10:30:12Z</time>
      </trkpt>
      <trkpt lat="48.57152" lon="-2.79149">
        <ele>82.2</ele>
        <time>2026-01-25T10:30:13Z</time>
      </trkpt>
      <trkpt lat="48.57155" lon="-2.79156">
        <ele>82.2</ele>
        <time>2026-01-25T10:30:14Z</time>
      </trkpt>
      <trkpt lat="48.57158" lon="-2.79162">
        <ele>82.6</ele>
        <time>2026-01-25T10:30:15Z</time>
      </trkpt>
      <trkpt lat="48.57161" lon="-2.79169">
        <ele>82.6</ele>
        <time>2026-01-25T10:30:16Z</time>
      </trkpt>
      <trkpt lat="48.57165" lon="-2.79175">
        <ele>82.6</ele>
        <time>2026-01-25T10:30:17Z</time>
      </trkpt>
      <trkpt lat="48.57168" lon="-2.79181">
        <ele>82.6</ele>
        <time>2026-01-25T10:30:18Z</time>
      </trkpt>
      <trkpt lat="48.57171" lon="-2.79187">
        <ele>82.8</ele>
        <time>2026-01-25T10:30:19Z</time>
      </trkpt>
      <trkpt lat="48.57175" lon="-2.79193">
        <ele>82.8</ele>
        <time>2026-01-25T10:30:20Z</time>
      </trkpt>
      <trkpt lat="48.57178" lon="-2.79198">
        <ele>82.8</ele>
        <time>2026-01-25T10:30:21Z</time>
      </trkpt>
      <trkpt lat="48.57182" lon="-2.79203">
        <ele>83.4</ele>
        <time>2026-01-25T10:30:22Z</time>
      </trkpt>
      <trkpt lat="48.57186" lon="-2.79208">
        <ele>83.8</ele>
        <time>2026-01-25T10:30:23Z</time>
      </trkpt>
      <trkpt lat="48.57189" lon="-2.79213">
        <ele>83.8</ele>
        <time>2026-01-25T10:30:24Z</time>
      </trkpt>
      <trkpt lat="48.57193" lon="-2.79218">
        <ele>83.8</ele>
        <time>2026-01-25T10:30:25Z</time>
      </trkpt>
      <trkpt lat="48.57196" lon="-2.79223">
        <ele>84</ele>
        <time>2026-01-25T10:30:26Z</time>
      </trkpt>
      <trkpt lat="48.572" lon="-2.79227">
        <ele>84.4</ele>
        <time>2026-01-25T10:30:27Z</time>
      </trkpt>
      <trkpt lat="48.57203" lon="-2.79232">
        <ele>84.4</ele>
        <time>2026-01-25T10:30:28Z</time>
      </trkpt>
      <trkpt lat="48.57207" lon="-2.79237">
        <ele>84.4</ele>
        <time>2026-01-25T10:30:29Z</time>
      </trkpt>
      <trkpt lat="48.57211" lon="-2.79242">
        <ele>85.4</ele>
        <time>2026-01-25T10:30:30Z</time>
      </trkpt>
      <trkpt lat="48.57215" lon="-2.79247">
        <ele>85.6</ele>
        <time>2026-01-25T10:30:31Z</time>
      </trkpt>
      <trkpt lat="48.57218" lon="-2.79252">
        <ele>85.6</ele>
        <time>2026-01-25T10:30:32Z</time>
      </trkpt>
      <trkpt lat="48.57222" lon="-2.79258">
        <ele>85.6</ele>
        <time>2026-01-25T10:30:33Z</time>
      </trkpt>
      <trkpt lat="48.57226" lon="-2.79264">
        <ele>85.6</ele>
        <time>2026-01-25T10:30:34Z</time>
      </trkpt>
      <trkpt lat="48.5723" lon="-2.7927">
        <ele>85.8</ele>
        <time>2026-01-25T10:30:35Z</time>
      </trkpt>
      <trkpt lat="48.57234" lon="-2.79276">
        <ele>85.8</ele>
        <time>2026-01-25T10:30:36Z</time>
      </trkpt>
      <trkpt lat="48.57237" lon="-2.79282">
        <ele>85.8</ele>
        <time>2026-01-25T10:30:37Z</time>
      </trkpt>
      <trkpt lat="48.57241" lon="-2.79288">
        <ele>86.8</ele>
        <time>2026-01-25T10:30:38Z</time>
      </trkpt>
      <trkpt lat="48.57245" lon="-2.79294">
        <ele>87.2</ele>
        <time>2026-01-25T10:30:39Z</time>
      </trkpt>
      <trkpt lat="48.57249" lon="-2.793">
        <ele>87.2</ele>
        <time>2026-01-25T10:30:40Z</time>
      </trkpt>
      <trkpt lat="48.57252" lon="-2.79305">
        <ele>87.2</ele>
        <time>2026-01-25T10:30:41Z</time>
      </trkpt>
      <trkpt lat="48.57256" lon="-2.79311">
        <ele>87.2</ele>
        <time>2026-01-25T10:30:42Z</time>
      </trkpt>
      <trkpt lat="48.5726" lon="-2.79317">
        <ele>87.4</ele>
        <time>2026-01-25T10:30:43Z</time>
      </trkpt>
      <trkpt lat="48.57263" lon="-2.79323">
        <ele>87.4</ele>
        <time>2026-01-25T10:30:44Z</time>
      </trkpt>
      <trkpt lat="48.57267" lon="-2.79329">
        <ele>87.4</ele>
        <time>2026-01-25T10:30:45Z</time>
      </trkpt>
      <trkpt lat="48.5727" lon="-2.79335">
        <ele>88</ele>
        <time>2026-01-25T10:30:46Z</time>
      </trkpt>
      <trkpt lat="48.57273" lon="-2.79341">
        <ele>88.6</ele>
        <time>2026-01-25T10:30:47Z</time>
      </trkpt>
      <trkpt lat="48.57276" lon="-2.79347">
        <ele>88.6</ele>
        <time>2026-01-25T10:30:48Z</time>
      </trkpt>
      <trkpt lat="48.57278" lon="-2.79354">
        <ele>88.6</ele>
        <time>2026-01-25T10:30:49Z</time>
      </trkpt>
      <trkpt lat="48.5728" lon="-2.79361">
        <ele>88.6</ele>
        <time>2026-01-25T10:30:50Z</time>
      </trkpt>
      <trkpt lat="48.57282" lon="-2.79369">
        <ele>88</ele>
        <time>2026-01-25T10:30:51Z</time>
      </trkpt>
      <trkpt lat="48.57284" lon="-2.79377">
        <ele>88</ele>
        <time>2026-01-25T10:30:52Z</time>
      </trkpt>
      <trkpt lat="48.57285" lon="-2.79386">
        <ele>88</ele>
        <time>2026-01-25T10:30:53Z</time>
      </trkpt>
      <trkpt lat="48.57286" lon="-2.79394">
        <ele>87.4</ele>
        <time>2026-01-25T10:30:54Z</time>
      </trkpt>
      <trkpt lat="48.57287" lon="-2.79403">
        <ele>87.4</ele>
        <time>2026-01-25T10:30:55Z</time>
      </trkpt>
      <trkpt lat="48.57287" lon="-2.79411">
        <ele>87.4</ele>
        <time>2026-01-25T10:30:56Z</time>
      </trkpt>
      <trkpt lat="48.57288" lon="-2.7942">
        <ele>87.4</ele>
        <time>2026-01-25T10:30:57Z</time>
      </trkpt>
      <trkpt lat="48.57289" lon="-2.79429">
        <ele>87.4</ele>
        <time>2026-01-25T10:30:58Z</time>
      </trkpt>
      <trkpt lat="48.5729" lon="-2.79438">
        <ele>87.4</ele>
        <time>2026-01-25T10:30:59Z</time>
      </trkpt>
      <trkpt lat="48.57291" lon="-2.79447">
        <ele>87.4</ele>
        <time>2026-01-25T10:31:00Z</time>
      </trkpt>
      <trkpt lat="48.57292" lon="-2.79456">
        <ele>87.4</ele>
        <time>2026-01-25T10:31:01Z</time>
      </trkpt>
      <trkpt lat="48.57293" lon="-2.79465">
        <ele>87.4</ele>
        <time>2026-01-25T10:31:02Z</time>
      </trkpt>
      <trkpt lat="48.57294" lon="-2.79474">
        <ele>86.8</ele>
        <time>2026-01-25T10:31:03Z</time>
      </trkpt>
      <trkpt lat="48.57295" lon="-2.79483">
        <ele>86.8</ele>
        <time>2026-01-25T10:31:04Z</time>
      </trkpt>
      <trkpt lat="48.57296" lon="-2.79492">
        <ele>86.8</ele>
        <time>2026-01-25T10:31:05Z</time>
      </trkpt>
      <trkpt lat="48.57297" lon="-2.79501">
        <ele>86.8</ele>
        <time>2026-01-25T10:31:06Z</time>
      </trkpt>
      <trkpt lat="48.57298" lon="-2.7951">
        <ele>87</ele>
        <time>2026-01-25T10:31:07Z</time>
      </trkpt>
      <trkpt lat="48.57299" lon="-2.79519">
        <ele>87</ele>
        <time>2026-01-25T10:31:08Z</time>
      </trkpt>
      <trkpt lat="48.573" lon="-2.79528">
        <ele>87</ele>
        <time>2026-01-25T10:31:09Z</time>
      </trkpt>
      <trkpt lat="48.57301" lon="-2.79537">
        <ele>87</ele>
        <time>2026-01-25T10:31:10Z</time>
      </trkpt>
      <trkpt lat="48.57302" lon="-2.79547">
        <ele>87</ele>
        <time>2026-01-25T10:31:11Z</time>
      </trkpt>
      <trkpt lat="48.57303" lon="-2.79556">
        <ele>87</ele>
        <time>2026-01-25T10:31:12Z</time>
      </trkpt>
      <trkpt lat="48.57304" lon="-2.79565">
        <ele>87</ele>
        <time>2026-01-25T10:31:13Z</time>
      </trkpt>
      <trkpt lat="48.57304" lon="-2.79574">
        <ele>87.2</ele>
        <time>2026-01-25T10:31:14Z</time>
      </trkpt>
      <trkpt lat="48.57305" lon="-2.79584">
        <ele>87.6</ele>
        <time>2026-01-25T10:31:15Z</time>
      </trkpt>
      <trkpt lat="48.57305" lon="-2.79593">
        <ele>87.6</ele>
        <time>2026-01-25T10:31:16Z</time>
      </trkpt>
      <trkpt lat="48.57305" lon="-2.79603">
        <ele>87.6</ele>
        <time>2026-01-25T10:31:17Z</time>
      </trkpt>
      <trkpt lat="48.57305" lon="-2.79612">
        <ele>87.6</ele>
        <time>2026-01-25T10:31:18Z</time>
      </trkpt>
      <trkpt lat="48.57305" lon="-2.79621">
        <ele>88</ele>
        <time>2026-01-25T10:31:19Z</time>
      </trkpt>
      <trkpt lat="48.57304" lon="-2.79631">
        <ele>88</ele>
        <time>2026-01-25T10:31:20Z</time>
      </trkpt>
      <trkpt lat="48.57304" lon="-2.7964">
        <ele>88</ele>
        <time>2026-01-25T10:31:21Z</time>
      </trkpt>
      <trkpt lat="48.57303" lon="-2.7965">
        <ele>88</ele>
        <time>2026-01-25T10:31:22Z</time>
      </trkpt>
      <trkpt lat="48.57302" lon="-2.7966">
        <ele>88.2</ele>
        <time>2026-01-25T10:31:23Z</time>
      </trkpt>
      <trkpt lat="48.57302" lon="-2.79669">
        <ele>88.2</ele>
        <time>2026-01-25T10:31:24Z</time>
      </trkpt>
      <trkpt lat="48.57301" lon="-2.79678">
        <ele>88.2</ele>
        <time>2026-01-25T10:31:25Z</time>
      </trkpt>
      <trkpt lat="48.573" lon="-2.79687">
        <ele>87.6</ele>
        <time>2026-01-25T10:31:26Z</time>
      </trkpt>
      <trkpt lat="48.573" lon="-2.79696">
        <ele>89</ele>
        <time>2026-01-25T10:31:27Z</time>
      </trkpt>
      <trkpt lat="48.57299" lon="-2.79706">
        <ele>89</ele>
        <time>2026-01-25T10:31:28Z</time>
      </trkpt>
      <trkpt lat="48.57299" lon="-2.79716">
        <ele>89</ele>
        <time>2026-01-25T10:31:29Z</time>
      </trkpt>
      <trkpt lat="48.57298" lon="-2.79726">
        <ele>88.4</ele>
        <time>2026-01-25T10:31:30Z</time>
      </trkpt>
      <trkpt lat="48.57297" lon="-2.79736">
        <ele>88.2</ele>
        <time>2026-01-25T10:31:31Z</time>
      </trkpt>
      <trkpt lat="48.57297" lon="-2.79746">
        <ele>88.2</ele>
        <time>2026-01-25T10:31:32Z</time>
      </trkpt>
      <trkpt lat="48.57296" lon="-2.79756">
        <ele>88.2</ele>
        <time>2026-01-25T10:31:33Z</time>
      </trkpt>
      <trkpt lat="48.57296" lon="-2.79766">
        <ele>88.6</ele>
        <time>2026-01-25T10:31:34Z</time>
      </trkpt>
      <trkpt lat="48.57295" lon="-2.79776">
        <ele>89.2</ele>
        <time>2026-01-25T10:31:35Z</time>
      </trkpt>
      <trkpt lat="48.57295" lon="-2.79785">
        <ele>89.2</ele>
        <time>2026-01-25T10:31:36Z</time>
      </trkpt>
      <trkpt lat="48.57294" lon="-2.79794">
        <ele>89.2</ele>
        <time>2026-01-25T10:31:37Z</time>
      </trkpt>
      <trkpt lat="48.57293" lon="-2.79803">
        <ele>89.2</ele>
        <time>2026-01-25T10:31:38Z</time>
      </trkpt>
      <trkpt lat="48.57292" lon="-2.79813">
        <ele>88.2</ele>
        <time>2026-01-25T10:31:39Z</time>
      </trkpt>
      <trkpt lat="48.57291" lon="-2.79823">
        <ele>88.2</ele>
        <time>2026-01-25T10:31:40Z</time>
      </trkpt>
      <trkpt lat="48.5729" lon="-2.79833">
        <ele>88.2</ele>
        <time>2026-01-25T10:31:41Z</time>
      </trkpt>
      <trkpt lat="48.57289" lon="-2.79843">
        <ele>88.2</ele>
        <time>2026-01-25T10:31:42Z</time>
      </trkpt>
      <trkpt lat="48.57288" lon="-2.79854">
        <ele>86.6</ele>
        <time>2026-01-25T10:31:43Z</time>
      </trkpt>
      <trkpt lat="48.57287" lon="-2.79865">
        <ele>86.6</ele>
        <time>2026-01-25T10:31:44Z</time>
      </trkpt>
      <trkpt lat="48.57286" lon="-2.79875">
        <ele>86.6</ele>
        <time>2026-01-25T10:31:45Z</time>
      </trkpt>
      <trkpt lat="48.57285" lon="-2.79887">
        <ele>85.6</ele>
        <time>2026-01-25T10:31:46Z</time>
      </trkpt>
      <trkpt lat="48.57283" lon="-2.79898">
        <ele>84</ele>
        <time>2026-01-25T10:31:47Z</time>
      </trkpt>
      <trkpt lat="48.57282" lon="-2.7991">
        <ele>84</ele>
        <time>2026-01-25T10:31:48Z</time>
      </trkpt>
      <trkpt lat="48.5728" lon="-2.79921">
        <ele>84</ele>
        <time>2026-01-25T10:31:49Z</time>
      </trkpt>
      <trkpt lat="48.57278" lon="-2.79933">
        <ele>83</ele>
        <time>2026-01-25T10:31:50Z</time>
      </trkpt>
      <trkpt lat="48.57276" lon="-2.79946">
        <ele>82.4</ele>
        <time>2026-01-25T10:31:51Z</time>
      </trkpt>
      <trkpt lat="48.57273" lon="-2.79958">
        <ele>82.4</ele>
        <time>2026-01-25T10:31:52Z</time>
      </trkpt>
      <trkpt lat="48.57271" lon="-2.7997">
        <ele>82.4</ele>
        <time>2026-01-25T10:31:53Z</time>
      </trkpt>
      <trkpt lat="48.57269" lon="-2.79983">
        <ele>81.4</ele>
        <time>2026-01-25T10:31:54Z</time>
      </trkpt>
      <trkpt lat="48.57266" lon="-2.79995">
        <ele>79.2</ele>
        <time>2026-01-25T10:31:55Z</time>
      </trkpt>
      <trkpt lat="48.57263" lon="-2.80007">
        <ele>79.2</ele>
        <time>2026-01-25T10:31:56Z</time>
      </trkpt>
      <trkpt lat="48.57261" lon="-2.80019">
        <ele>79.2</ele>
        <time>2026-01-25T10:31:57Z</time>
      </trkpt>
      <trkpt lat="48.57258" lon="-2.80032">
        <ele>79.2</ele>
        <time>2026-01-25T10:31:58Z</time>
      </trkpt>
      <trkpt lat="48.57255" lon="-2.80045">
        <ele>77.2</ele>
        <time>2026-01-25T10:31:59Z</time>
      </trkpt>
      <trkpt lat="48.57253" lon="-2.80058">
        <ele>77.2</ele>
        <time>2026-01-25T10:32:00Z</time>
      </trkpt>
      <trkpt lat="48.5725" lon="-2.80071">
        <ele>77.2</ele>
        <time>2026-01-25T10:32:01Z</time>
      </trkpt>
      <trkpt lat="48.57248" lon="-2.80085">
        <ele>76.6</ele>
        <time>2026-01-25T10:32:02Z</time>
      </trkpt>
      <trkpt lat="48.57245" lon="-2.80098">
        <ele>77.2</ele>
        <time>2026-01-25T10:32:03Z</time>
      </trkpt>
      <trkpt lat="48.57243" lon="-2.80111">
        <ele>77.2</ele>
        <time>2026-01-25T10:32:04Z</time>
      </trkpt>
      <trkpt lat="48.57241" lon="-2.80124">
        <ele>77.2</ele>
        <time>2026-01-25T10:32:05Z</time>
      </trkpt>
      <trkpt lat="48.57239" lon="-2.80137">
        <ele>76.2</ele>
        <time>2026-01-25T10:32:06Z</time>
      </trkpt>
      <trkpt lat="48.57237" lon="-2.80149">
        <ele>76</ele>
        <time>2026-01-25T10:32:07Z</time>
      </trkpt>
      <trkpt lat="48.57235" lon="-2.80162">
        <ele>76</ele>
        <time>2026-01-25T10:32:08Z</time>
      </trkpt>
      <trkpt lat="48.57232" lon="-2.80174">
        <ele>76</ele>
        <time>2026-01-25T10:32:09Z</time>
      </trkpt>
      <trkpt lat="48.57229" lon="-2.80185">
        <ele>75.2</ele>
        <time>2026-01-25T10:32:10Z</time>
      </trkpt>
      <trkpt lat="48.57226" lon="-2.80197">
        <ele>74.8</ele>
        <time>2026-01-25T10:32:11Z</time>
      </trkpt>
      <trkpt lat="48.57222" lon="-2.80208">
        <ele>74.8</ele>
        <time>2026-01-25T10:32:12Z</time>
      </trkpt>
      <trkpt lat="48.57219" lon="-2.80219">
        <ele>74.8</ele>
        <time>2026-01-25T10:32:13Z</time>
      </trkpt>
      <trkpt lat="48.57215" lon="-2.8023">
        <ele>74.8</ele>
        <time>2026-01-25T10:32:14Z</time>
      </trkpt>
      <trkpt lat="48.57211" lon="-2.8024">
        <ele>74.8</ele>
        <time>2026-01-25T10:32:15Z</time>
      </trkpt>
      <trkpt lat="48.57207" lon="-2.8025">
        <ele>74.8</ele>
        <time>2026-01-25T10:32:16Z</time>
      </trkpt>
      <trkpt lat="48.57203" lon="-2.8026">
        <ele>74.8</ele>
        <time>2026-01-25T10:32:17Z</time>
      </trkpt>
      <trkpt lat="48.57199" lon="-2.80269">
        <ele>75.2</ele>
        <time>2026-01-25T10:32:18Z</time>
      </trkpt>
      <trkpt lat="48.57195" lon="-2.80279">
        <ele>75.6</ele>
        <time>2026-01-25T10:32:19Z</time>
      </trkpt>
      <trkpt lat="48.57191" lon="-2.80288">
        <ele>75.6</ele>
        <time>2026-01-25T10:32:20Z</time>
      </trkpt>
      <trkpt lat="48.57187" lon="-2.80297">
        <ele>75.6</ele>
        <time>2026-01-25T10:32:21Z</time>
      </trkpt>
      <trkpt lat="48.57184" lon="-2.80307">
        <ele>75.6</ele>
        <time>2026-01-25T10:32:22Z</time>
      </trkpt>
      <trkpt lat="48.5718" lon="-2.80316">
        <ele>76</ele>
        <time>2026-01-25T10:32:23Z</time>
      </trkpt>
      <trkpt lat="48.57177" lon="-2.80325">
        <ele>76</ele>
        <time>2026-01-25T10:32:24Z</time>
      </trkpt>
      <trkpt lat="48.57174" lon="-2.80334">
        <ele>76</ele>
        <time>2026-01-25T10:32:25Z</time>
      </trkpt>
      <trkpt lat="48.57172" lon="-2.80343">
        <ele>76</ele>
        <time>2026-01-25T10:32:26Z</time>
      </trkpt>
      <trkpt lat="48.57169" lon="-2.80353">
        <ele>76.8</ele>
        <time>2026-01-25T10:32:27Z</time>
      </trkpt>
      <trkpt lat="48.57168" lon="-2.80362">
        <ele>76.8</ele>
        <time>2026-01-25T10:32:28Z</time>
      </trkpt>
      <trkpt lat="48.57166" lon="-2.80372">
        <ele>76.8</ele>
        <time>2026-01-25T10:32:29Z</time>
      </trkpt>
      <trkpt lat="48.57165" lon="-2.80381">
        <ele>77.4</ele>
        <time>2026-01-25T10:32:30Z</time>
      </trkpt>
      <trkpt lat="48.57163" lon="-2.8039">
        <ele>77.2</ele>
        <time>2026-01-25T10:32:31Z</time>
      </trkpt>
      <trkpt lat="48.57162" lon="-2.804">
        <ele>77.2</ele>
        <time>2026-01-25T10:32:32Z</time>
      </trkpt>
      <trkpt lat="48.5716" lon="-2.80409">
        <ele>77.2</ele>
        <time>2026-01-25T10:32:33Z</time>
      </trkpt>
      <trkpt lat="48.57158" lon="-2.80418">
        <ele>77.4</ele>
        <time>2026-01-25T10:32:34Z</time>
      </trkpt>
      <trkpt lat="48.57157" lon="-2.80427">
        <ele>77.4</ele>
        <time>2026-01-25T10:32:35Z</time>
      </trkpt>
      <trkpt lat="48.57155" lon="-2.80436">
        <ele>77.4</ele>
        <time>2026-01-25T10:32:36Z</time>
      </trkpt>
      <trkpt lat="48.57154" lon="-2.80445">
        <ele>77.4</ele>
        <time>2026-01-25T10:32:37Z</time>
      </trkpt>
      <trkpt lat="48.57153" lon="-2.80454">
        <ele>77.8</ele>
        <time>2026-01-25T10:32:38Z</time>
      </trkpt>
      <trkpt lat="48.57151" lon="-2.80463">
        <ele>78.4</ele>
        <time>2026-01-25T10:32:39Z</time>
      </trkpt>
      <trkpt lat="48.5715" lon="-2.80472">
        <ele>78.4</ele>
        <time>2026-01-25T10:32:40Z</time>
      </trkpt>
      <trkpt lat="48.57148" lon="-2.80481">
        <ele>78.4</ele>
        <time>2026-01-25T10:32:41Z</time>
      </trkpt>
      <trkpt lat="48.57147" lon="-2.8049">
        <ele>78.4</ele>
        <time>2026-01-25T10:32:42Z</time>
      </trkpt>
      <trkpt lat="48.57146" lon="-2.805">
        <ele>79</ele>
        <time>2026-01-25T10:32:43Z</time>
      </trkpt>
      <trkpt lat="48.57144" lon="-2.80509">
        <ele>79</ele>
        <time>2026-01-25T10:32:44Z</time>
      </trkpt>
      <trkpt lat="48.57143" lon="-2.80518">
        <ele>79</ele>
        <time>2026-01-25T10:32:45Z</time>
      </trkpt>
      <trkpt lat="48.57142" lon="-2.80527">
        <ele>79</ele>
        <time>2026-01-25T10:32:46Z</time>
      </trkpt>
      <trkpt lat="48.57141" lon="-2.80537">
        <ele>78.4</ele>
        <time>2026-01-25T10:32:47Z</time>
      </trkpt>
      <trkpt lat="48.57141" lon="-2.80546">
        <ele>78.4</ele>
        <time>2026-01-25T10:32:48Z</time>
      </trkpt>
      <trkpt lat="48.5714" lon="-2.80556">
        <ele>78.4</ele>
        <time>2026-01-25T10:32:49Z</time>
      </trkpt>
      <trkpt lat="48.57139" lon="-2.80566">
        <ele>78.4</ele>
        <time>2026-01-25T10:32:50Z</time>
      </trkpt>
      <trkpt lat="48.57138" lon="-2.80576">
        <ele>77.2</ele>
        <time>2026-01-25T10:32:51Z</time>
      </trkpt>
      <trkpt lat="48.57138" lon="-2.80587">
        <ele>77.2</ele>
        <time>2026-01-25T10:32:52Z</time>
      </trkpt>
      <trkpt lat="48.57138" lon="-2.80598">
        <ele>77.2</ele>
        <time>2026-01-25T10:32:53Z</time>
      </trkpt>
      <trkpt lat="48.57138" lon="-2.8061">
        <ele>76.2</ele>
        <time>2026-01-25T10:32:54Z</time>
      </trkpt>
      <trkpt lat="48.57138" lon="-2.80623">
        <ele>73.2</ele>
        <time>2026-01-25T10:32:55Z</time>
      </trkpt>
      <trkpt lat="48.57139" lon="-2.80636">
        <ele>73.2</ele>
        <time>2026-01-25T10:32:56Z</time>
      </trkpt>
      <trkpt lat="48.57139" lon="-2.80648">
        <ele>73.2</ele>
        <time>2026-01-25T10:32:57Z</time>
      </trkpt>
      <trkpt lat="48.5714" lon="-2.80661">
        <ele>72.2</ele>
        <time>2026-01-25T10:32:58Z</time>
      </trkpt>
      <trkpt lat="48.57141" lon="-2.80674">
        <ele>71.4</ele>
        <time>2026-01-25T10:32:59Z</time>
      </trkpt>
      <trkpt lat="48.57141" lon="-2.80686">
        <ele>71.4</ele>
        <time>2026-01-25T10:33:00Z</time>
      </trkpt>
      <trkpt lat="48.57143" lon="-2.80699">
        <ele>71.4</ele>
        <time>2026-01-25T10:33:01Z</time>
      </trkpt>
      <trkpt lat="48.57144" lon="-2.8071">
        <ele>71.4</ele>
        <time>2026-01-25T10:33:02Z</time>
      </trkpt>
      <trkpt lat="48.57146" lon="-2.80722">
        <ele>72.8</ele>
        <time>2026-01-25T10:33:03Z</time>
      </trkpt>
      <trkpt lat="48.57148" lon="-2.80734">
        <ele>72.8</ele>
        <time>2026-01-25T10:33:04Z</time>
      </trkpt>
      <trkpt lat="48.5715" lon="-2.80745">
        <ele>72.8</ele>
        <time>2026-01-25T10:33:05Z</time>
      </trkpt>
      <trkpt lat="48.57152" lon="-2.80756">
        <ele>73.6</ele>
        <time>2026-01-25T10:33:06Z</time>
      </trkpt>
      <trkpt lat="48.57154" lon="-2.80767">
        <ele>73.4</ele>
        <time>2026-01-25T10:33:07Z</time>
      </trkpt>
      <trkpt lat="48.57155" lon="-2.80778">
        <ele>73.4</ele>
        <time>2026-01-25T10:33:08Z</time>
      </trkpt>
      <trkpt lat="48.57156" lon="-2.80788">
        <ele>73.4</ele>
        <time>2026-01-25T10:33:09Z</time>
      </trkpt>
      <trkpt lat="48.57157" lon="-2.80798">
        <ele>74.4</ele>
        <time>2026-01-25T10:33:10Z</time>
      </trkpt>
      <trkpt lat="48.57157" lon="-2.80807">
        <ele>75.6</ele>
        <time>2026-01-25T10:33:11Z</time>
      </trkpt>
      <trkpt lat="48.57157" lon="-2.80817">
        <ele>75.6</ele>
        <time>2026-01-25T10:33:12Z</time>
      </trkpt>
      <trkpt lat="48.57157" lon="-2.80826">
        <ele>75.6</ele>
        <time>2026-01-25T10:33:13Z</time>
      </trkpt>
      <trkpt lat="48.57157" lon="-2.80834">
        <ele>76.6</ele>
        <time>2026-01-25T10:33:14Z</time>
      </trkpt>
      <trkpt lat="48.57157" lon="-2.80843">
        <ele>77.4</ele>
        <time>2026-01-25T10:33:15Z</time>
      </trkpt>
      <trkpt lat="48.57157" lon="-2.80851">
        <ele>77.4</ele>
        <time>2026-01-25T10:33:16Z</time>
      </trkpt>
      <trkpt lat="48.57157" lon="-2.80858">
        <ele>77.4</ele>
        <time>2026-01-25T10:33:17Z</time>
      </trkpt>
      <trkpt lat="48.57156" lon="-2.80865">
        <ele>78.2</ele>
        <time>2026-01-25T10:33:18Z</time>
      </trkpt>
      <trkpt lat="48.57156" lon="-2.80873">
        <ele>79</ele>
        <time>2026-01-25T10:33:19Z</time>
      </trkpt>
      <trkpt lat="48.57156" lon="-2.8088">
        <ele>79</ele>
        <time>2026-01-25T10:33:20Z</time>
      </trkpt>
      <trkpt lat="48.57155" lon="-2.80886">
        <ele>79</ele>
        <time>2026-01-25T10:33:21Z</time>
      </trkpt>
      <trkpt lat="48.57155" lon="-2.80893">
        <ele>79.4</ele>
        <time>2026-01-25T10:33:22Z</time>
      </trkpt>
      <trkpt lat="48.57155" lon="-2.80899">
        <ele>79.6</ele>
        <time>2026-01-25T10:33:23Z</time>
      </trkpt>
      <trkpt lat="48.57155" lon="-2.80906">
        <ele>79.6</ele>
        <time>2026-01-25T10:33:24Z</time>
      </trkpt>
      <trkpt lat="48.57155" lon="-2.80912">
        <ele>79.6</ele>
        <time>2026-01-25T10:33:25Z</time>
      </trkpt>
      <trkpt lat="48.57155" lon="-2.80919">
        <ele>80.6</ele>
        <time>2026-01-25T10:33:26Z</time>
      </trkpt>
      <trkpt lat="48.57155" lon="-2.80926">
        <ele>80.6</ele>
        <time>2026-01-25T10:33:27Z</time>
      </trkpt>
      <trkpt lat="48.57155" lon="-2.80932">
        <ele>80.6</ele>
        <time>2026-01-25T10:33:28Z</time>
      </trkpt>
      <trkpt lat="48.57157" lon="-2.80939">
        <ele>80.6</ele>
        <time>2026-01-25T10:33:29Z</time>
      </trkpt>
      <trkpt lat="48.57159" lon="-2.80945">
        <ele>80.8</ele>
        <time>2026-01-25T10:33:30Z</time>
      </trkpt>
      <trkpt lat="48.57163" lon="-2.8095">
        <ele>80.8</ele>
        <time>2026-01-25T10:33:31Z</time>
      </trkpt>
      <trkpt lat="48.57167" lon="-2.80953">
        <ele>80.8</ele>
        <time>2026-01-25T10:33:32Z</time>
      </trkpt>
      <trkpt lat="48.57172" lon="-2.80956">
        <ele>80.8</ele>
        <time>2026-01-25T10:33:33Z</time>
      </trkpt>
      <trkpt lat="48.57177" lon="-2.80958">
        <ele>81.4</ele>
        <time>2026-01-25T10:33:34Z</time>
      </trkpt>
      <trkpt lat="48.57182" lon="-2.8096">
        <ele>81.2</ele>
        <time>2026-01-25T10:33:35Z</time>
      </trkpt>
      <trkpt lat="48.57187" lon="-2.80962">
        <ele>81.2</ele>
        <time>2026-01-25T10:33:36Z</time>
      </trkpt>
      <trkpt lat="48.57193" lon="-2.80964">
        <ele>81.2</ele>
        <time>2026-01-25T10:33:37Z</time>
      </trkpt>
      <trkpt lat="48.57199" lon="-2.80967">
        <ele>80.2</ele>
        <time>2026-01-25T10:33:38Z</time>
      </trkpt>
      <trkpt lat="48.57205" lon="-2.80969">
        <ele>79.2</ele>
        <time>2026-01-25T10:33:39Z</time>
      </trkpt>
      <trkpt lat="48.57211" lon="-2.80972">
        <ele>79.2</ele>
        <time>2026-01-25T10:33:40Z</time>
      </trkpt>
      <trkpt lat="48.57217" lon="-2.80975">
        <ele>79.2</ele>
        <time>2026-01-25T10:33:41Z</time>
      </trkpt>
      <trkpt lat="48.57224" lon="-2.80978">
        <ele>78.8</ele>
        <time>2026-01-25T10:33:42Z</time>
      </trkpt>
      <trkpt lat="48.5723" lon="-2.80982">
        <ele>79</ele>
        <time>2026-01-25T10:33:43Z</time>
      </trkpt>
      <trkpt lat="48.57236" lon="-2.80986">
        <ele>79</ele>
        <time>2026-01-25T10:33:44Z</time>
      </trkpt>
      <trkpt lat="48.57241" lon="-2.8099">
        <ele>79</ele>
        <time>2026-01-25T10:33:45Z</time>
      </trkpt>
      <trkpt lat="48.57247" lon="-2.80994">
        <ele>79</ele>
        <time>2026-01-25T10:33:46Z</time>
      </trkpt>
      <trkpt lat="48.57252" lon="-2.80997">
        <ele>80</ele>
        <time>2026-01-25T10:33:47Z</time>
      </trkpt>
      <trkpt lat="48.57258" lon="-2.81">
        <ele>80</ele>
        <time>2026-01-25T10:33:48Z</time>
      </trkpt>
      <trkpt lat="48.57263" lon="-2.81002">
        <ele>80</ele>
        <time>2026-01-25T10:33:49Z</time>
      </trkpt>
      <trkpt lat="48.57268" lon="-2.81003">
        <ele>80</ele>
        <time>2026-01-25T10:33:50Z</time>
      </trkpt>
      <trkpt lat="48.57272" lon="-2.81004">
        <ele>80.8</ele>
        <time>2026-01-25T10:33:51Z</time>
      </trkpt>
      <trkpt lat="48.57277" lon="-2.81008">
        <ele>80.8</ele>
        <time>2026-01-25T10:33:52Z</time>
      </trkpt>
      <trkpt lat="48.57279" lon="-2.81014">
        <ele>80.8</ele>
        <time>2026-01-25T10:33:53Z</time>
      </trkpt>
      <trkpt lat="48.57278" lon="-2.81021">
        <ele>80.8</ele>
        <time>2026-01-25T10:33:54Z</time>
      </trkpt>
      <trkpt lat="48.57275" lon="-2.81026">
        <ele>80.8</ele>
        <time>2026-01-25T10:33:55Z</time>
      </trkpt>
      <trkpt lat="48.57272" lon="-2.81031">
        <ele>80.8</ele>
        <time>2026-01-25T10:33:56Z</time>
      </trkpt>
      <trkpt lat="48.5727" lon="-2.81037">
        <ele>80.8</ele>
        <time>2026-01-25T10:33:57Z</time>
      </trkpt>
      <trkpt lat="48.57268" lon="-2.81043">
        <ele>80.8</ele>
        <time>2026-01-25T10:33:58Z</time>
      </trkpt>
      <trkpt lat="48.57266" lon="-2.81049">
        <ele>80.8</ele>
        <time>2026-01-25T10:33:59Z</time>
      </trkpt>
      <trkpt lat="48.57264" lon="-2.81055">
        <ele>80.8</ele>
        <time>2026-01-25T10:34:00Z</time>
      </trkpt>
      <trkpt lat="48.57262" lon="-2.81062">
        <ele>80.8</ele>
        <time>2026-01-25T10:34:01Z</time>
      </trkpt>
      <trkpt lat="48.57261" lon="-2.81069">
        <ele>81.6</ele>
        <time>2026-01-25T10:34:02Z</time>
      </trkpt>
      <trkpt lat="48.5726" lon="-2.81076">
        <ele>82</ele>
        <time>2026-01-25T10:34:03Z</time>
      </trkpt>
      <trkpt lat="48.57259" lon="-2.81082">
        <ele>82</ele>
        <time>2026-01-25T10:34:04Z</time>
      </trkpt>
      <trkpt lat="48.57258" lon="-2.81087">
        <ele>82</ele>
        <time>2026-01-25T10:34:05Z</time>
      </trkpt>
      <trkpt lat="48.57258" lon="-2.81088">
        <ele>83</ele>
        <time>2026-01-25T10:34:06Z</time>
      </trkpt>
      <trkpt lat="48.57258" lon="-2.81088">
        <ele>83.8</ele>
        <time>2026-01-25T10:34:07Z</time>
      </trkpt>
      <trkpt lat="48.57258" lon="-2.81088">
        <ele>83.8</ele>
        <time>2026-01-25T10:34:08Z</time>
      </trkpt>
      <trkpt lat="48.57257" lon="-2.81089">
        <ele>83</ele>
        <time>2026-01-25T10:34:51Z</time>
      </trkpt>
      <trkpt lat="48.57256" lon="-2.81093">
        <ele>83</ele>
        <time>2026-01-25T10:34:52Z</time>
      </trkpt>
      <trkpt lat="48.57255" lon="-2.81097">
        <ele>83</ele>
        <time>2026-01-25T10:34:53Z</time>
      </trkpt>
      <trkpt lat="48.57254" lon="-2.81102">
        <ele>83</ele>
        <time>2026-01-25T10:34:54Z</time>
      </trkpt>
      <trkpt lat="48.57253" lon="-2.81107">
        <ele>83.2</ele>
        <time>2026-01-25T10:34:55Z</time>
      </trkpt>
      <trkpt lat="48.57252" lon="-2.81114">
        <ele>83.2</ele>
        <time>2026-01-25T10:34:56Z</time>
      </trkpt>
      <trkpt lat="48.5725" lon="-2.8112">
        <ele>83.2</ele>
        <time>2026-01-25T10:34:57Z</time>
      </trkpt>
      <trkpt lat="48.57249" lon="-2.81127">
        <ele>83.2</ele>
        <time>2026-01-25T10:34:58Z</time>
      </trkpt>
      <trkpt lat="48.57247" lon="-2.81134">
        <ele>83.4</ele>
        <time>2026-01-25T10:34:59Z</time>
      </trkpt>
      <trkpt lat="48.57246" lon="-2.81141">
        <ele>83.4</ele>
        <time>2026-01-25T10:35:00Z</time>
      </trkpt>
      <trkpt lat="48.57244" lon="-2.81148">
        <ele>83.4</ele>
        <time>2026-01-25T10:35:01Z</time>
      </trkpt>
      <trkpt lat="48.57243" lon="-2.81155">
        <ele>84</ele>
        <time>2026-01-25T10:35:02Z</time>
      </trkpt>
      <trkpt lat="48.57241" lon="-2.81161">
        <ele>83.2</ele>
        <time>2026-01-25T10:35:03Z</time>
      </trkpt>
      <trkpt lat="48.57239" lon="-2.81168">
        <ele>83.2</ele>
        <time>2026-01-25T10:35:04Z</time>
      </trkpt>
      <trkpt lat="48.57238" lon="-2.81174">
        <ele>83.2</ele>
        <time>2026-01-25T10:35:05Z</time>
      </trkpt>
      <trkpt lat="48.57236" lon="-2.8118">
        <ele>84.2</ele>
        <time>2026-01-25T10:35:06Z</time>
      </trkpt>
      <trkpt lat="48.57235" lon="-2.81186">
        <ele>85.6</ele>
        <time>2026-01-25T10:35:07Z</time>
      </trkpt>
      <trkpt lat="48.57233" lon="-2.81193">
        <ele>85.6</ele>
        <time>2026-01-25T10:35:08Z</time>
      </trkpt>
      <trkpt lat="48.57231" lon="-2.81199">
        <ele>85.6</ele>
        <time>2026-01-25T10:35:09Z</time>
      </trkpt>
      <trkpt lat="48.5723" lon="-2.81206">
        <ele>85.6</ele>
        <time>2026-01-25T10:35:10Z</time>
      </trkpt>
      <trkpt lat="48.57228" lon="-2.81212">
        <ele>86</ele>
        <time>2026-01-25T10:35:11Z</time>
      </trkpt>
      <trkpt lat="48.57227" lon="-2.81218">
        <ele>86</ele>
        <time>2026-01-25T10:35:12Z</time>
      </trkpt>
      <trkpt lat="48.57225" lon="-2.81225">
        <ele>86</ele>
        <time>2026-01-25T10:35:13Z</time>
      </trkpt>
      <trkpt lat="48.57223" lon="-2.81231">
        <ele>86.6</ele>
        <time>2026-01-25T10:35:14Z</time>
      </trkpt>
      <trkpt lat="48.57222" lon="-2.81237">
        <ele>86.6</ele>
        <time>2026-01-25T10:35:15Z</time>
      </trkpt>
      <trkpt lat="48.5722" lon="-2.81243">
        <ele>86.6</ele>
        <time>2026-01-25T10:35:16Z</time>
      </trkpt>
      <trkpt lat="48.57218" lon="-2.81249">
        <ele>86.6</ele>
        <time>2026-01-25T10:35:17Z</time>
      </trkpt>
      <trkpt lat="48.57216" lon="-2.81256">
        <ele>87.2</ele>
        <time>2026-01-25T10:35:18Z</time>
      </trkpt>
      <trkpt lat="48.57214" lon="-2.81261">
        <ele>87.4</ele>
        <time>2026-01-25T10:35:19Z</time>
      </trkpt>
      <trkpt lat="48.57211" lon="-2.81267">
        <ele>87.4</ele>
        <time>2026-01-25T10:35:20Z</time>
      </trkpt>
      <trkpt lat="48.57209" lon="-2.81273">
        <ele>87.4</ele>
        <time>2026-01-25T10:35:21Z</time>
      </trkpt>
      <trkpt lat="48.57207" lon="-2.81279">
        <ele>87.4</ele>
        <time>2026-01-25T10:35:22Z</time>
      </trkpt>
      <trkpt lat="48.57205" lon="-2.81284">
        <ele>88</ele>
        <time>2026-01-25T10:35:23Z</time>
      </trkpt>
      <trkpt lat="48.57202" lon="-2.81289">
        <ele>88</ele>
        <time>2026-01-25T10:35:24Z</time>
      </trkpt>
      <trkpt lat="48.572" lon="-2.81294">
        <ele>88</ele>
        <time>2026-01-25T10:35:25Z</time>
      </trkpt>
      <trkpt lat="48.57198" lon="-2.81299">
        <ele>89</ele>
        <time>2026-01-25T10:35:26Z</time>
      </trkpt>
      <trkpt lat="48.57196" lon="-2.81303">
        <ele>89.2</ele>
        <time>2026-01-25T10:35:27Z</time>
      </trkpt>
      <trkpt lat="48.57194" lon="-2.81307">
        <ele>89.2</ele>
        <time>2026-01-25T10:35:28Z</time>
      </trkpt>
      <trkpt lat="48.57192" lon="-2.81311">
        <ele>89.2</ele>
        <time>2026-01-25T10:35:29Z</time>
      </trkpt>
      <trkpt lat="48.5719" lon="-2.81315">
        <ele>90</ele>
        <time>2026-01-25T10:35:30Z</time>
      </trkpt>
      <trkpt lat="48.57188" lon="-2.8132">
        <ele>90.2</ele>
        <time>2026-01-25T10:35:31Z</time>
      </trkpt>
      <trkpt lat="48.57187" lon="-2.81324">
        <ele>90.2</ele>
        <time>2026-01-25T10:35:32Z</time>
      </trkpt>
      <trkpt lat="48.57185" lon="-2.81328">
        <ele>90.2</ele>
        <time>2026-01-25T10:35:33Z</time>
      </trkpt>
      <trkpt lat="48.57183" lon="-2.81333">
        <ele>90.6</ele>
        <time>2026-01-25T10:35:34Z</time>
      </trkpt>
      <trkpt lat="48.57181" lon="-2.81337">
        <ele>91.2</ele>
        <time>2026-01-25T10:35:35Z</time>
      </trkpt>
      <trkpt lat="48.5718" lon="-2.81341">
        <ele>91.2</ele>
        <time>2026-01-25T10:35:36Z</time>
      </trkpt>
      <trkpt lat="48.57178" lon="-2.81346">
        <ele>91.2</ele>
        <time>2026-01-25T10:35:37Z</time>
      </trkpt>
      <trkpt lat="48.57177" lon="-2.8135">
        <ele>92.2</ele>
        <time>2026-01-25T10:35:38Z</time>
      </trkpt>
      <trkpt lat="48.57177" lon="-2.81354">
        <ele>92.6</ele>
        <time>2026-01-25T10:35:39Z</time>
      </trkpt>
      <trkpt lat="48.57177" lon="-2.81359">
        <ele>92.6</ele>
        <time>2026-01-25T10:35:40Z</time>
      </trkpt>
      <trkpt lat="48.57177" lon="-2.81363">
        <ele>92.6</ele>
        <time>2026-01-25T10:35:41Z</time>
      </trkpt>
      <trkpt lat="48.57177" lon="-2.81368">
        <ele>93.6</ele>
        <time>2026-01-25T10:35:42Z</time>
      </trkpt>
      <trkpt lat="48.57178" lon="-2.81373">
        <ele>94</ele>
        <time>2026-01-25T10:35:43Z</time>
      </trkpt>
      <trkpt lat="48.57179" lon="-2.81377">
        <ele>94</ele>
        <time>2026-01-25T10:35:44Z</time>
      </trkpt>
      <trkpt lat="48.5718" lon="-2.81382">
        <ele>94</ele>
        <time>2026-01-25T10:35:45Z</time>
      </trkpt>
      <trkpt lat="48.57181" lon="-2.81387">
        <ele>94.8</ele>
        <time>2026-01-25T10:35:46Z</time>
      </trkpt>
      <trkpt lat="48.57182" lon="-2.81391">
        <ele>95.4</ele>
        <time>2026-01-25T10:35:47Z</time>
      </trkpt>
      <trkpt lat="48.57183" lon="-2.81396">
        <ele>95.4</ele>
        <time>2026-01-25T10:35:48Z</time>
      </trkpt>
      <trkpt lat="48.57185" lon="-2.814">
        <ele>95.4</ele>
        <time>2026-01-25T10:35:49Z</time>
      </trkpt>
      <trkpt lat="48.57187" lon="-2.81405">
        <ele>94.4</ele>
        <time>2026-01-25T10:35:50Z</time>
      </trkpt>
      <trkpt lat="48.5719" lon="-2.8141">
        <ele>93.8</ele>
        <time>2026-01-25T10:35:51Z</time>
      </trkpt>
      <trkpt lat="48.57193" lon="-2.81415">
        <ele>93.8</ele>
        <time>2026-01-25T10:35:52Z</time>
      </trkpt>
      <trkpt lat="48.57196" lon="-2.8142">
        <ele>93.8</ele>
        <time>2026-01-25T10:35:53Z</time>
      </trkpt>
      <trkpt lat="48.572" lon="-2.81425">
        <ele>93.8</ele>
        <time>2026-01-25T10:35:54Z</time>
      </trkpt>
      <trkpt lat="48.57204" lon="-2.81429">
        <ele>93.8</ele>
        <time>2026-01-25T10:35:55Z</time>
      </trkpt>
      <trkpt lat="48.57207" lon="-2.81434">
        <ele>93.8</ele>
        <time>2026-01-25T10:35:56Z</time>
      </trkpt>
      <trkpt lat="48.57211" lon="-2.81438">
        <ele>93.8</ele>
        <time>2026-01-25T10:35:57Z</time>
      </trkpt>
      <trkpt lat="48.57215" lon="-2.81443">
        <ele>93.2</ele>
        <time>2026-01-25T10:35:58Z</time>
      </trkpt>
      <trkpt lat="48.57219" lon="-2.81448">
        <ele>93.8</ele>
        <time>2026-01-25T10:35:59Z</time>
      </trkpt>
      <trkpt lat="48.57223" lon="-2.81452">
        <ele>93.8</ele>
        <time>2026-01-25T10:36:00Z</time>
      </trkpt>
      <trkpt lat="48.57227" lon="-2.81457">
        <ele>93.8</ele>
        <time>2026-01-25T10:36:01Z</time>
      </trkpt>
      <trkpt lat="48.57231" lon="-2.81462">
        <ele>93.8</ele>
        <time>2026-01-25T10:36:02Z</time>
      </trkpt>
      <trkpt lat="48.57235" lon="-2.81467">
        <ele>93.8</ele>
        <time>2026-01-25T10:36:03Z</time>
      </trkpt>
      <trkpt lat="48.57239" lon="-2.81472">
        <ele>93.8</ele>
        <time>2026-01-25T10:36:04Z</time>
      </trkpt>
      <trkpt lat="48.57243" lon="-2.81476">
        <ele>93.8</ele>
        <time>2026-01-25T10:36:05Z</time>
      </trkpt>
      <trkpt lat="48.57248" lon="-2.81479">
        <ele>93.8</ele>
        <time>2026-01-25T10:36:06Z</time>
      </trkpt>
      <trkpt lat="48.57253" lon="-2.81481">
        <ele>94</ele>
        <time>2026-01-25T10:36:07Z</time>
      </trkpt>
      <trkpt lat="48.57257" lon="-2.81481">
        <ele>94</ele>
        <time>2026-01-25T10:36:08Z</time>
      </trkpt>
      <trkpt lat="48.57262" lon="-2.81482">
        <ele>94</ele>
        <time>2026-01-25T10:36:09Z</time>
      </trkpt>
      <trkpt lat="48.57266" lon="-2.81485">
        <ele>94</ele>
        <time>2026-01-25T10:36:10Z</time>
      </trkpt>
      <trkpt lat="48.57268" lon="-2.81491">
        <ele>93.8</ele>
        <time>2026-01-25T10:36:11Z</time>
      </trkpt>
      <trkpt lat="48.57267" lon="-2.81496">
        <ele>93.8</ele>
        <time>2026-01-25T10:36:12Z</time>
      </trkpt>
      <trkpt lat="48.57266" lon="-2.81497">
        <ele>93.8</ele>
        <time>2026-01-25T10:36:13Z</time>
      </trkpt>
      <trkpt lat="48.57265" lon="-2.81499">
        <ele>94.8</ele>
        <time>2026-01-25T10:36:14Z</time>
      </trkpt>
      <trkpt lat="48.57263" lon="-2.81501">
        <ele>94.8</ele>
        <time>2026-01-25T10:36:15Z</time>
      </trkpt>
      <trkpt lat="48.57261" lon="-2.81504">
        <ele>94.8</ele>
        <time>2026-01-25T10:36:16Z</time>
      </trkpt>
      <trkpt lat="48.57258" lon="-2.81507">
        <ele>94.8</ele>
        <time>2026-01-25T10:36:17Z</time>
      </trkpt>
      <trkpt lat="48.57255" lon="-2.81512">
        <ele>94</ele>
        <time>2026-01-25T10:36:18Z</time>
      </trkpt>
      <trkpt lat="48.57253" lon="-2.81517">
        <ele>94.4</ele>
        <time>2026-01-25T10:36:19Z</time>
      </trkpt>
      <trkpt lat="48.5725" lon="-2.81522">
        <ele>94.4</ele>
        <time>2026-01-25T10:36:20Z</time>
      </trkpt>
      <trkpt lat="48.57247" lon="-2.81528">
        <ele>94.4</ele>
        <time>2026-01-25T10:36:21Z</time>
      </trkpt>
      <trkpt lat="48.57244" lon="-2.81534">
        <ele>93.4</ele>
        <time>2026-01-25T10:36:22Z</time>
      </trkpt>
      <trkpt lat="48.5724" lon="-2.8154">
        <ele>93.4</ele>
        <time>2026-01-25T10:36:23Z</time>
      </trkpt>
      <trkpt lat="48.57237" lon="-2.81546">
        <ele>93.4</ele>
        <time>2026-01-25T10:36:24Z</time>
      </trkpt>
      <trkpt lat="48.57233" lon="-2.81552">
        <ele>93.4</ele>
        <time>2026-01-25T10:36:25Z</time>
      </trkpt>
      <trkpt lat="48.5723" lon="-2.81558">
        <ele>93.4</ele>
        <time>2026-01-25T10:36:26Z</time>
      </trkpt>
      <trkpt lat="48.57226" lon="-2.81564">
        <ele>94</ele>
        <time>2026-01-25T10:36:27Z</time>
      </trkpt>
      <trkpt lat="48.57223" lon="-2.81569">
        <ele>94</ele>
        <time>2026-01-25T10:36:28Z</time>
      </trkpt>
      <trkpt lat="48.57219" lon="-2.81575">
        <ele>94</ele>
        <time>2026-01-25T10:36:29Z</time>
      </trkpt>
      <trkpt lat="48.57216" lon="-2.81581">
        <ele>93.4</ele>
        <time>2026-01-25T10:36:30Z</time>
      </trkpt>
      <trkpt lat="48.57213" lon="-2.81587">
        <ele>93.2</ele>
        <time>2026-01-25T10:36:31Z</time>
      </trkpt>
      <trkpt lat="48.57209" lon="-2.81592">
        <ele>93.2</ele>
        <time>2026-01-25T10:36:32Z</time>
      </trkpt>
      <trkpt lat="48.57205" lon="-2.81598">
        <ele>93.2</ele>
        <time>2026-01-25T10:36:33Z</time>
      </trkpt>
      <trkpt lat="48.57201" lon="-2.81603">
        <ele>94.2</ele>
        <time>2026-01-25T10:36:34Z</time>
      </trkpt>
      <trkpt lat="48.57197" lon="-2.81608">
        <ele>94.2</ele>
        <time>2026-01-25T10:36:35Z</time>
      </trkpt>
      <trkpt lat="48.57194" lon="-2.81614">
        <ele>94.2</ele>
        <time>2026-01-25T10:36:36Z</time>
      </trkpt>
      <trkpt lat="48.57191" lon="-2.81619">
        <ele>94.2</ele>
        <time>2026-01-25T10:36:37Z</time>
      </trkpt>
      <trkpt lat="48.57188" lon="-2.81625">
        <ele>94.2</ele>
        <time>2026-01-25T10:36:38Z</time>
      </trkpt>
      <trkpt lat="48.57184" lon="-2.8163">
        <ele>94.6</ele>
        <time>2026-01-25T10:36:39Z</time>
      </trkpt>
      <trkpt lat="48.57181" lon="-2.81636">
        <ele>94.6</ele>
        <time>2026-01-25T10:36:40Z</time>
      </trkpt>
      <trkpt lat="48.57177" lon="-2.81641">
        <ele>94.6</ele>
        <time>2026-01-25T10:36:41Z</time>
      </trkpt>
      <trkpt lat="48.57174" lon="-2.81646">
        <ele>95.6</ele>
        <time>2026-01-25T10:36:42Z</time>
      </trkpt>
      <trkpt lat="48.57171" lon="-2.81652">
        <ele>96.2</ele>
        <time>2026-01-25T10:36:43Z</time>
      </trkpt>
      <trkpt lat="48.57167" lon="-2.81657">
        <ele>96.2</ele>
        <time>2026-01-25T10:36:44Z</time>
      </trkpt>
      <trkpt lat="48.57164" lon="-2.81662">
        <ele>96.2</ele>
        <time>2026-01-25T10:36:45Z</time>
      </trkpt>
      <trkpt lat="48.57161" lon="-2.81667">
        <ele>96.8</ele>
        <time>2026-01-25T10:36:46Z</time>
      </trkpt>
      <trkpt lat="48.57158" lon="-2.81672">
        <ele>97.2</ele>
        <time>2026-01-25T10:36:47Z</time>
      </trkpt>
      <trkpt lat="48.57155" lon="-2.81677">
        <ele>97.2</ele>
        <time>2026-01-25T10:36:48Z</time>
      </trkpt>
      <trkpt lat="48.57153" lon="-2.81682">
        <ele>97.2</ele>
        <time>2026-01-25T10:36:49Z</time>
      </trkpt>
      <trkpt lat="48.5715" lon="-2.81688">
        <ele>97.8</ele>
        <time>2026-01-25T10:36:50Z</time>
      </trkpt>
      <trkpt lat="48.57148" lon="-2.81694">
        <ele>97.8</ele>
        <time>2026-01-25T10:36:51Z</time>
      </trkpt>
      <trkpt lat="48.57146" lon="-2.817">
        <ele>97.8</ele>
        <time>2026-01-25T10:36:52Z</time>
      </trkpt>
      <trkpt lat="48.57144" lon="-2.81706">
        <ele>97.8</ele>
        <time>2026-01-25T10:36:53Z</time>
      </trkpt>
      <trkpt lat="48.57141" lon="-2.81712">
        <ele>98</ele>
        <time>2026-01-25T10:36:54Z</time>
      </trkpt>
      <trkpt lat="48.57139" lon="-2.81719">
        <ele>98</ele>
        <time>2026-01-25T10:36:55Z</time>
      </trkpt>
      <trkpt lat="48.57136" lon="-2.81726">
        <ele>98</ele>
        <time>2026-01-25T10:36:56Z</time>
      </trkpt>
      <trkpt lat="48.57133" lon="-2.81731">
        <ele>98</ele>
        <time>2026-01-25T10:36:57Z</time>
      </trkpt>
      <trkpt lat="48.5713" lon="-2.81736">
        <ele>98.4</ele>
        <time>2026-01-25T10:36:58Z</time>
      </trkpt>
      <trkpt lat="48.57126" lon="-2.81742">
        <ele>99.4</ele>
        <time>2026-01-25T10:36:59Z</time>
      </trkpt>
      <trkpt lat="48.57122" lon="-2.81746">
        <ele>99.4</ele>
        <time>2026-01-25T10:37:00Z</time>
      </trkpt>
      <trkpt lat="48.57119" lon="-2.81751">
        <ele>99.4</ele>
        <time>2026-01-25T10:37:01Z</time>
      </trkpt>
      <trkpt lat="48.57116" lon="-2.81755">
        <ele>99.4</ele>
        <time>2026-01-25T10:37:02Z</time>
      </trkpt>
      <trkpt lat="48.57113" lon="-2.8176">
        <ele>100.2</ele>
        <time>2026-01-25T10:37:03Z</time>
      </trkpt>
      <trkpt lat="48.57111" lon="-2.81764">
        <ele>100.2</ele>
        <time>2026-01-25T10:37:04Z</time>
      </trkpt>
      <trkpt lat="48.57109" lon="-2.8177">
        <ele>100.2</ele>
        <time>2026-01-25T10:37:05Z</time>
      </trkpt>
      <trkpt lat="48.57107" lon="-2.81775">
        <ele>99.6</ele>
        <time>2026-01-25T10:37:06Z</time>
      </trkpt>
      <trkpt lat="48.57106" lon="-2.81779">
        <ele>99.2</ele>
        <time>2026-01-25T10:37:07Z</time>
      </trkpt>
      <trkpt lat="48.57104" lon="-2.81784">
        <ele>99.2</ele>
        <time>2026-01-25T10:37:08Z</time>
      </trkpt>
      <trkpt lat="48.57102" lon="-2.81789">
        <ele>99.2</ele>
        <time>2026-01-25T10:37:09Z</time>
      </trkpt>
      <trkpt lat="48.57101" lon="-2.81795">
        <ele>99.2</ele>
        <time>2026-01-25T10:37:10Z</time>
      </trkpt>
      <trkpt lat="48.57099" lon="-2.81801">
        <ele>99</ele>
        <time>2026-01-25T10:37:11Z</time>
      </trkpt>
      <trkpt lat="48.57098" lon="-2.81807">
        <ele>99</ele>
        <time>2026-01-25T10:37:12Z</time>
      </trkpt>
      <trkpt lat="48.57096" lon="-2.81812">
        <ele>99</ele>
        <time>2026-01-25T10:37:13Z</time>
      </trkpt>
      <trkpt lat="48.57094" lon="-2.81817">
        <ele>99</ele>
        <time>2026-01-25T10:37:14Z</time>
      </trkpt>
      <trkpt lat="48.57091" lon="-2.81821">
        <ele>99</ele>
        <time>2026-01-25T10:37:15Z</time>
      </trkpt>
      <trkpt lat="48.57088" lon="-2.81824">
        <ele>99</ele>
        <time>2026-01-25T10:37:16Z</time>
      </trkpt>
      <trkpt lat="48.57084" lon="-2.81826">
        <ele>99</ele>
        <time>2026-01-25T10:37:17Z</time>
      </trkpt>
      <trkpt lat="48.5708" lon="-2.81826">
        <ele>99</ele>
        <time>2026-01-25T10:37:18Z</time>
      </trkpt>
      <trkpt lat="48.57077" lon="-2.81825">
        <ele>100</ele>
        <time>2026-01-25T10:37:19Z</time>
      </trkpt>
      <trkpt lat="48.57074" lon="-2.81823">
        <ele>100</ele>
        <time>2026-01-25T10:37:20Z</time>
      </trkpt>
      <trkpt lat="48.57071" lon="-2.81822">
        <ele>100</ele>
        <time>2026-01-25T10:37:21Z</time>
      </trkpt>
      <trkpt lat="48.57067" lon="-2.81821">
        <ele>100.2</ele>
        <time>2026-01-25T10:37:22Z</time>
      </trkpt>
      <trkpt lat="48.57064" lon="-2.81821">
        <ele>100.8</ele>
        <time>2026-01-25T10:37:23Z</time>
      </trkpt>
      <trkpt lat="48.57061" lon="-2.81821">
        <ele>100.8</ele>
        <time>2026-01-25T10:37:24Z</time>
      </trkpt>
      <trkpt lat="48.57057" lon="-2.81822">
        <ele>100.8</ele>
        <time>2026-01-25T10:37:25Z</time>
      </trkpt>
      <trkpt lat="48.57053" lon="-2.81823">
        <ele>100</ele>
        <time>2026-01-25T10:37:26Z</time>
      </trkpt>
      <trkpt lat="48.57049" lon="-2.81824">
        <ele>99.8</ele>
        <time>2026-01-25T10:37:27Z</time>
      </trkpt>
      <trkpt lat="48.57045" lon="-2.81825">
        <ele>99.8</ele>
        <time>2026-01-25T10:37:28Z</time>
      </trkpt>
      <trkpt lat="48.5704" lon="-2.81825">
        <ele>99.8</ele>
        <time>2026-01-25T10:37:29Z</time>
      </trkpt>
      <trkpt lat="48.57036" lon="-2.81825">
        <ele>99.8</ele>
        <time>2026-01-25T10:37:30Z</time>
      </trkpt>
      <trkpt lat="48.57033" lon="-2.81824">
        <ele>100.2</ele>
        <time>2026-01-25T10:37:31Z</time>
      </trkpt>
      <trkpt lat="48.5703" lon="-2.81821">
        <ele>100.2</ele>
        <time>2026-01-25T10:37:32Z</time>
      </trkpt>
      <trkpt lat="48.57026" lon="-2.81819">
        <ele>100.2</ele>
        <time>2026-01-25T10:37:33Z</time>
      </trkpt>
      <trkpt lat="48.57022" lon="-2.81815">
        <ele>100.8</ele>
        <time>2026-01-25T10:37:34Z</time>
      </trkpt>
      <trkpt lat="48.57019" lon="-2.81812">
        <ele>100.2</ele>
        <time>2026-01-25T10:37:35Z</time>
      </trkpt>
      <trkpt lat="48.57015" lon="-2.81809">
        <ele>100.2</ele>
        <time>2026-01-25T10:37:36Z</time>
      </trkpt>
      <trkpt lat="48.57011" lon="-2.81806">
        <ele>100.2</ele>
        <time>2026-01-25T10:37:37Z</time>
      </trkpt>
      <trkpt lat="48.57007" lon="-2.81803">
        <ele>101.2</ele>
        <time>2026-01-25T10:37:38Z</time>
      </trkpt>
      <trkpt lat="48.57003" lon="-2.81799">
        <ele>101.6</ele>
        <time>2026-01-25T10:37:39Z</time>
      </trkpt>
      <trkpt lat="48.57" lon="-2.81796">
        <ele>101.6</ele>
        <time>2026-01-25T10:37:40Z</time>
      </trkpt>
      <trkpt lat="48.56996" lon="-2.81791">
        <ele>101.6</ele>
        <time>2026-01-25T10:37:41Z</time>
      </trkpt>
      <trkpt lat="48.56993" lon="-2.81787">
        <ele>101</ele>
        <time>2026-01-25T10:37:42Z</time>
      </trkpt>
      <trkpt lat="48.56989" lon="-2.81783">
        <ele>101.4</ele>
        <time>2026-01-25T10:37:43Z</time>
      </trkpt>
      <trkpt lat="48.56985" lon="-2.81778">
        <ele>101.4</ele>
        <time>2026-01-25T10:37:44Z</time>
      </trkpt>
      <trkpt lat="48.56981" lon="-2.81774">
        <ele>101.4</ele>
        <time>2026-01-25T10:37:45Z</time>
      </trkpt>
      <trkpt lat="48.56978" lon="-2.81769">
        <ele>101.4</ele>
        <time>2026-01-25T10:37:46Z</time>
      </trkpt>
      <trkpt lat="48.56974" lon="-2.81764">
        <ele>101.6</ele>
        <time>2026-01-25T10:37:47Z</time>
      </trkpt>
      <trkpt lat="48.5697" lon="-2.8176">
        <ele>101.6</ele>
        <time>2026-01-25T10:37:48Z</time>
      </trkpt>
      <trkpt lat="48.56966" lon="-2.81755">
        <ele>101.6</ele>
        <time>2026-01-25T10:37:49Z</time>
      </trkpt>
      <trkpt lat="48.56962" lon="-2.81751">
        <ele>102.4</ele>
        <time>2026-01-25T10:37:50Z</time>
      </trkpt>
      <trkpt lat="48.56959" lon="-2.81746">
        <ele>102</ele>
        <time>2026-01-25T10:37:51Z</time>
      </trkpt>
      <trkpt lat="48.56956" lon="-2.81742">
        <ele>102</ele>
        <time>2026-01-25T10:37:52Z</time>
      </trkpt>
      <trkpt lat="48.56953" lon="-2.81742">
        <ele>102</ele>
        <time>2026-01-25T10:37:53Z</time>
      </trkpt>
      <trkpt lat="48.56951" lon="-2.81743">
        <ele>102</ele>
        <time>2026-01-25T10:37:54Z</time>
      </trkpt>
      <trkpt lat="48.56948" lon="-2.81746">
        <ele>101.8</ele>
        <time>2026-01-25T10:37:55Z</time>
      </trkpt>
      <trkpt lat="48.56945" lon="-2.8175">
        <ele>101.8</ele>
        <time>2026-01-25T10:37:56Z</time>
      </trkpt>
      <trkpt lat="48.56943" lon="-2.81754">
        <ele>101.8</ele>
        <time>2026-01-25T10:37:57Z</time>
      </trkpt>
      <trkpt lat="48.56941" lon="-2.81759">
        <ele>101.8</ele>
        <time>2026-01-25T10:37:58Z</time>
      </trkpt>
      <trkpt lat="48.56939" lon="-2.81764">
        <ele>102</ele>
        <time>2026-01-25T10:37:59Z</time>
      </trkpt>
      <trkpt lat="48.5694" lon="-2.81769">
        <ele>102</ele>
        <time>2026-01-25T10:38:00Z</time>
      </trkpt>
      <trkpt lat="48.56941" lon="-2.81773">
        <ele>102</ele>
        <time>2026-01-25T10:38:01Z</time>
      </trkpt>
      <trkpt lat="48.56943" lon="-2.81776">
        <ele>103</ele>
        <time>2026-01-25T10:38:02Z</time>
      </trkpt>
      <trkpt lat="48.56945" lon="-2.81779">
        <ele>103</ele>
        <time>2026-01-25T10:38:03Z</time>
      </trkpt>
      <trkpt lat="48.56947" lon="-2.81782">
        <ele>103</ele>
        <time>2026-01-25T10:38:04Z</time>
      </trkpt>
      <trkpt lat="48.56947" lon="-2.81787">
        <ele>103</ele>
        <time>2026-01-25T10:38:05Z</time>
      </trkpt>
      <trkpt lat="48.56945" lon="-2.81793">
        <ele>102</ele>
        <time>2026-01-25T10:38:06Z</time>
      </trkpt>
      <trkpt lat="48.56943" lon="-2.81797">
        <ele>101.4</ele>
        <time>2026-01-25T10:38:07Z</time>
      </trkpt>
      <trkpt lat="48.56939" lon="-2.818">
        <ele>101.4</ele>
        <time>2026-01-25T10:38:08Z</time>
      </trkpt>
      <trkpt lat="48.56934" lon="-2.81803">
        <ele>101.4</ele>
        <time>2026-01-25T10:38:09Z</time>
      </trkpt>
      <trkpt lat="48.56929" lon="-2.81804">
        <ele>101.4</ele>
        <time>2026-01-25T10:38:10Z</time>
      </trkpt>
      <trkpt lat="48.56924" lon="-2.81806">
        <ele>101.6</ele>
        <time>2026-01-25T10:38:11Z</time>
      </trkpt>
      <trkpt lat="48.56919" lon="-2.81808">
        <ele>101.6</ele>
        <time>2026-01-25T10:38:12Z</time>
      </trkpt>
      <trkpt lat="48.56914" lon="-2.8181">
        <ele>101.6</ele>
        <time>2026-01-25T10:38:13Z</time>
      </trkpt>
      <trkpt lat="48.56909" lon="-2.81812">
        <ele>101.2</ele>
        <time>2026-01-25T10:38:14Z</time>
      </trkpt>
      <trkpt lat="48.56904" lon="-2.81814">
        <ele>101.4</ele>
        <time>2026-01-25T10:38:15Z</time>
      </trkpt>
      <trkpt lat="48.56899" lon="-2.81815">
        <ele>101.4</ele>
        <time>2026-01-25T10:38:16Z</time>
      </trkpt>
      <trkpt lat="48.56894" lon="-2.81817">
        <ele>101.4</ele>
        <time>2026-01-25T10:38:17Z</time>
      </trkpt>
      <trkpt lat="48.56889" lon="-2.81817">
        <ele>102.2</ele>
        <time>2026-01-25T10:38:18Z</time>
      </trkpt>
      <trkpt lat="48.56883" lon="-2.81818">
        <ele>102.6</ele>
        <time>2026-01-25T10:38:19Z</time>
      </trkpt>
      <trkpt lat="48.56878" lon="-2.81819">
        <ele>102.6</ele>
        <time>2026-01-25T10:38:20Z</time>
      </trkpt>
      <trkpt lat="48.56873" lon="-2.8182">
        <ele>102.6</ele>
        <time>2026-01-25T10:38:21Z</time>
      </trkpt>
      <trkpt lat="48.56868" lon="-2.81821">
        <ele>103.4</ele>
        <time>2026-01-25T10:38:22Z</time>
      </trkpt>
      <trkpt lat="48.56862" lon="-2.81822">
        <ele>103.2</ele>
        <time>2026-01-25T10:38:23Z</time>
      </trkpt>
      <trkpt lat="48.56857" lon="-2.81823">
        <ele>103.2</ele>
        <time>2026-01-25T10:38:24Z</time>
      </trkpt>
      <trkpt lat="48.56852" lon="-2.81824">
        <ele>103.2</ele>
        <time>2026-01-25T10:38:25Z</time>
      </trkpt>
      <trkpt lat="48.56847" lon="-2.81826">
        <ele>103.2</ele>
        <time>2026-01-25T10:38:26Z</time>
      </trkpt>
      <trkpt lat="48.56842" lon="-2.81828">
        <ele>103.8</ele>
        <time>2026-01-25T10:38:27Z</time>
      </trkpt>
      <trkpt lat="48.56836" lon="-2.81831">
        <ele>103.8</ele>
        <time>2026-01-25T10:38:28Z</time>
      </trkpt>
      <trkpt lat="48.56831" lon="-2.81834">
        <ele>103.8</ele>
        <time>2026-01-25T10:38:29Z</time>
      </trkpt>
      <trkpt lat="48.56827" lon="-2.81838">
        <ele>103.8</ele>
        <time>2026-01-25T10:38:30Z</time>
      </trkpt>
      <trkpt lat="48.56823" lon="-2.81844">
        <ele>103.6</ele>
        <time>2026-01-25T10:38:31Z</time>
      </trkpt>
      <trkpt lat="48.5682" lon="-2.8185">
        <ele>103.6</ele>
        <time>2026-01-25T10:38:32Z</time>
      </trkpt>
      <trkpt lat="48.56816" lon="-2.81857">
        <ele>103.6</ele>
        <time>2026-01-25T10:38:33Z</time>
      </trkpt>
      <trkpt lat="48.56813" lon="-2.81864">
        <ele>103.2</ele>
        <time>2026-01-25T10:38:34Z</time>
      </trkpt>
      <trkpt lat="48.56809" lon="-2.81872">
        <ele>102</ele>
        <time>2026-01-25T10:38:35Z</time>
      </trkpt>
      <trkpt lat="48.56805" lon="-2.81879">
        <ele>102</ele>
        <time>2026-01-25T10:38:36Z</time>
      </trkpt>
      <trkpt lat="48.56801" lon="-2.81887">
        <ele>102</ele>
        <time>2026-01-25T10:38:37Z</time>
      </trkpt>
      <trkpt lat="48.56798" lon="-2.81895">
        <ele>101</ele>
        <time>2026-01-25T10:38:38Z</time>
      </trkpt>
      <trkpt lat="48.56794" lon="-2.81904">
        <ele>100.4</ele>
        <time>2026-01-25T10:38:39Z</time>
      </trkpt>
      <trkpt lat="48.5679" lon="-2.81912">
        <ele>100.4</ele>
        <time>2026-01-25T10:38:40Z</time>
      </trkpt>
      <trkpt lat="48.56786" lon="-2.81921">
        <ele>100.4</ele>
        <time>2026-01-25T10:38:41Z</time>
      </trkpt>
      <trkpt lat="48.56783" lon="-2.8193">
        <ele>100.4</ele>
        <time>2026-01-25T10:38:42Z</time>
      </trkpt>
      <trkpt lat="48.56779" lon="-2.81938">
        <ele>100</ele>
        <time>2026-01-25T10:38:43Z</time>
      </trkpt>
      <trkpt lat="48.56775" lon="-2.81947">
        <ele>100</ele>
        <time>2026-01-25T10:38:44Z</time>
      </trkpt>
      <trkpt lat="48.56771" lon="-2.81956">
        <ele>100</ele>
        <time>2026-01-25T10:38:45Z</time>
      </trkpt>
      <trkpt lat="48.56768" lon="-2.81965">
        <ele>99.2</ele>
        <time>2026-01-25T10:38:46Z</time>
      </trkpt>
      <trkpt lat="48.56765" lon="-2.81974">
        <ele>99</ele>
        <time>2026-01-25T10:38:47Z</time>
      </trkpt>
      <trkpt lat="48.56762" lon="-2.81983">
        <ele>99</ele>
        <time>2026-01-25T10:38:48Z</time>
      </trkpt>
      <trkpt lat="48.56758" lon="-2.81991">
        <ele>99</ele>
        <time>2026-01-25T10:38:49Z</time>
      </trkpt>
      <trkpt lat="48.56755" lon="-2.81999">
        <ele>99</ele>
        <time>2026-01-25T10:38:50Z</time>
      </trkpt>
      <trkpt lat="48.56752" lon="-2.82007">
        <ele>100.2</ele>
        <time>2026-01-25T10:38:51Z</time>
      </trkpt>
      <trkpt lat="48.56748" lon="-2.82014">
        <ele>100.2</ele>
        <time>2026-01-25T10:38:52Z</time>
      </trkpt>
      <trkpt lat="48.56745" lon="-2.82021">
        <ele>100.2</ele>
        <time>2026-01-25T10:38:53Z</time>
      </trkpt>
      <trkpt lat="48.56742" lon="-2.82026">
        <ele>101.2</ele>
        <time>2026-01-25T10:38:54Z</time>
      </trkpt>
      <trkpt lat="48.56739" lon="-2.82028">
        <ele>104</ele>
        <time>2026-01-25T10:38:55Z</time>
      </trkpt>
      <trkpt lat="48.56738" lon="-2.82026">
        <ele>104</ele>
        <time>2026-01-25T10:38:56Z</time>
      </trkpt>
      <trkpt lat="48.56738" lon="-2.82022">
        <ele>104</ele>
        <time>2026-01-25T10:38:57Z</time>
      </trkpt>
      <trkpt lat="48.5674" lon="-2.82019">
        <ele>104</ele>
        <time>2026-01-25T10:38:58Z</time>
      </trkpt>
      <trkpt lat="48.56741" lon="-2.82015">
        <ele>103.6</ele>
        <time>2026-01-25T10:38:59Z</time>
      </trkpt>
      <trkpt lat="48.56743" lon="-2.82011">
        <ele>103.6</ele>
        <time>2026-01-25T10:39:00Z</time>
      </trkpt>
      <trkpt lat="48.56745" lon="-2.82006">
        <ele>103.6</ele>
        <time>2026-01-25T10:39:01Z</time>
      </trkpt>
      <trkpt lat="48.56748" lon="-2.82001">
        <ele>103</ele>
        <time>2026-01-25T10:39:02Z</time>
      </trkpt>
      <trkpt lat="48.56751" lon="-2.81995">
        <ele>101.4</ele>
        <time>2026-01-25T10:39:03Z</time>
      </trkpt>
      <trkpt lat="48.56754" lon="-2.81988">
        <ele>101.4</ele>
        <time>2026-01-25T10:39:04Z</time>
      </trkpt>
      <trkpt lat="48.56756" lon="-2.8198">
        <ele>101.4</ele>
        <time>2026-01-25T10:39:05Z</time>
      </trkpt>
      <trkpt lat="48.56758" lon="-2.81971">
        <ele>102.2</ele>
        <time>2026-01-25T10:39:06Z</time>
      </trkpt>
      <trkpt lat="48.56761" lon="-2.81965">
        <ele>101.8</ele>
        <time>2026-01-25T10:39:07Z</time>
      </trkpt>
      <trkpt lat="48.56763" lon="-2.81958">
        <ele>101.8</ele>
        <time>2026-01-25T10:39:08Z</time>
      </trkpt>
      <trkpt lat="48.56763" lon="-2.81953">
        <ele>101.8</ele>
        <time>2026-01-25T10:39:09Z</time>
      </trkpt>
      <trkpt lat="48.56767" lon="-2.81944">
        <ele>101.8</ele>
        <time>2026-01-25T10:39:10Z</time>
      </trkpt>
      <trkpt lat="48.5677" lon="-2.81935">
        <ele>102</ele>
        <time>2026-01-25T10:39:11Z</time>
      </trkpt>
      <trkpt lat="48.56774" lon="-2.81928">
        <ele>102</ele>
        <time>2026-01-25T10:39:12Z</time>
      </trkpt>
      <trkpt lat="48.56777" lon="-2.8192">
        <ele>102</ele>
        <time>2026-01-25T10:39:13Z</time>
      </trkpt>
      <trkpt lat="48.56781" lon="-2.81913">
        <ele>102</ele>
        <time>2026-01-25T10:39:14Z</time>
      </trkpt>
      <trkpt lat="48.56784" lon="-2.81907">
        <ele>102.8</ele>
        <time>2026-01-25T10:39:15Z</time>
      </trkpt>
      <trkpt lat="48.56787" lon="-2.81901">
        <ele>102.8</ele>
        <time>2026-01-25T10:39:16Z</time>
      </trkpt>
      <trkpt lat="48.56789" lon="-2.81894">
        <ele>102.8</ele>
        <time>2026-01-25T10:39:17Z</time>
      </trkpt>
      <trkpt lat="48.56792" lon="-2.81889">
        <ele>103.8</ele>
        <time>2026-01-25T10:39:18Z</time>
      </trkpt>
      <trkpt lat="48.56794" lon="-2.81884">
        <ele>104.8</ele>
        <time>2026-01-25T10:39:19Z</time>
      </trkpt>
      <trkpt lat="48.56795" lon="-2.81878">
        <ele>104.8</ele>
        <time>2026-01-25T10:39:20Z</time>
      </trkpt>
      <trkpt lat="48.56794" lon="-2.81873">
        <ele>104.8</ele>
        <time>2026-01-25T10:39:21Z</time>
      </trkpt>
      <trkpt lat="48.56792" lon="-2.8187">
        <ele>105.4</ele>
        <time>2026-01-25T10:39:22Z</time>
      </trkpt>
      <trkpt lat="48.5679" lon="-2.8187">
        <ele>105.4</ele>
        <time>2026-01-25T10:39:23Z</time>
      </trkpt>
      <trkpt lat="48.56788" lon="-2.81871">
        <ele>105.4</ele>
        <time>2026-01-25T10:39:24Z</time>
      </trkpt>
      <trkpt lat="48.56787" lon="-2.81873">
        <ele>105.4</ele>
        <time>2026-01-25T10:39:25Z</time>
      </trkpt>
      <trkpt lat="48.56786" lon="-2.81874">
        <ele>105.8</ele>
        <time>2026-01-25T10:39:26Z</time>
      </trkpt>
      <trkpt lat="48.56785" lon="-2.81874">
        <ele>106.2</ele>
        <time>2026-01-25T10:39:27Z</time>
      </trkpt>
      <trkpt lat="48.56784" lon="-2.81872">
        <ele>106.2</ele>
        <time>2026-01-25T10:39:28Z</time>
      </trkpt>
      <trkpt lat="48.56785" lon="-2.8187">
        <ele>106.2</ele>
        <time>2026-01-25T10:39:29Z</time>
      </trkpt>
      <trkpt lat="48.56787" lon="-2.81869">
        <ele>106.2</ele>
        <time>2026-01-25T10:39:30Z</time>
      </trkpt>
      <trkpt lat="48.5679" lon="-2.81869">
        <ele>105.6</ele>
        <time>2026-01-25T10:39:31Z</time>
      </trkpt>
      <trkpt lat="48.56793" lon="-2.81869">
        <ele>105.6</ele>
        <time>2026-01-25T10:39:32Z</time>
      </trkpt>
      <trkpt lat="48.56796" lon="-2.81871">
        <ele>105.6</ele>
        <time>2026-01-25T10:39:33Z</time>
      </trkpt>
      <trkpt lat="48.56798" lon="-2.81875">
        <ele>104.6</ele>
        <time>2026-01-25T10:39:34Z</time>
      </trkpt>
      <trkpt lat="48.56799" lon="-2.8188">
        <ele>103.6</ele>
        <time>2026-01-25T10:39:35Z</time>
      </trkpt>
      <trkpt lat="48.56798" lon="-2.81887">
        <ele>103.6</ele>
        <time>2026-01-25T10:39:36Z</time>
      </trkpt>
      <trkpt lat="48.56795" lon="-2.81893">
        <ele>103.6</ele>
        <time>2026-01-25T10:39:37Z</time>
      </trkpt>
      <trkpt lat="48.56792" lon="-2.819">
        <ele>102.6</ele>
        <time>2026-01-25T10:39:38Z</time>
      </trkpt>
      <trkpt lat="48.56789" lon="-2.81908">
        <ele>101</ele>
        <time>2026-01-25T10:39:39Z</time>
      </trkpt>
      <trkpt lat="48.56786" lon="-2.81915">
        <ele>101</ele>
        <time>2026-01-25T10:39:40Z</time>
      </trkpt>
      <trkpt lat="48.56782" lon="-2.81923">
        <ele>101</ele>
        <time>2026-01-25T10:39:41Z</time>
      </trkpt>
      <trkpt lat="48.56779" lon="-2.81931">
        <ele>101</ele>
        <time>2026-01-25T10:39:42Z</time>
      </trkpt>
      <trkpt lat="48.56775" lon="-2.8194">
        <ele>100.2</ele>
        <time>2026-01-25T10:39:43Z</time>
      </trkpt>
      <trkpt lat="48.56772" lon="-2.81949">
        <ele>100.2</ele>
        <time>2026-01-25T10:39:44Z</time>
      </trkpt>
      <trkpt lat="48.56768" lon="-2.81958">
        <ele>100.2</ele>
        <time>2026-01-25T10:39:45Z</time>
      </trkpt>
      <trkpt lat="48.56765" lon="-2.81966">
        <ele>100.2</ele>
        <time>2026-01-25T10:39:46Z</time>
      </trkpt>
      <trkpt lat="48.56763" lon="-2.81975">
        <ele>99.4</ele>
        <time>2026-01-25T10:39:47Z</time>
      </trkpt>
      <trkpt lat="48.56763" lon="-2.81986">
        <ele>99.4</ele>
        <time>2026-01-25T10:39:48Z</time>
      </trkpt>
      <trkpt lat="48.5676" lon="-2.81992">
        <ele>99.4</ele>
        <time>2026-01-25T10:39:49Z</time>
      </trkpt>
      <trkpt lat="48.56756" lon="-2.82">
        <ele>100</ele>
        <time>2026-01-25T10:39:50Z</time>
      </trkpt>
      <trkpt lat="48.56752" lon="-2.82007">
        <ele>100.2</ele>
        <time>2026-01-25T10:39:51Z</time>
      </trkpt>
      <trkpt lat="48.56749" lon="-2.82015">
        <ele>100.2</ele>
        <time>2026-01-25T10:39:52Z</time>
      </trkpt>
      <trkpt lat="48.56745" lon="-2.82022">
        <ele>100.2</ele>
        <time>2026-01-25T10:39:53Z</time>
      </trkpt>
      <trkpt lat="48.56741" lon="-2.8203">
        <ele>101</ele>
        <time>2026-01-25T10:39:54Z</time>
      </trkpt>
      <trkpt lat="48.56738" lon="-2.82037">
        <ele>101.8</ele>
        <time>2026-01-25T10:39:55Z</time>
      </trkpt>
      <trkpt lat="48.56735" lon="-2.82044">
        <ele>101.8</ele>
        <time>2026-01-25T10:39:56Z</time>
      </trkpt>
      <trkpt lat="48.56732" lon="-2.82051">
        <ele>101.8</ele>
        <time>2026-01-25T10:39:57Z</time>
      </trkpt>
      <trkpt lat="48.56729" lon="-2.82058">
        <ele>102</ele>
        <time>2026-01-25T10:39:58Z</time>
      </trkpt>
      <trkpt lat="48.56726" lon="-2.82064">
        <ele>101.4</ele>
        <time>2026-01-25T10:39:59Z</time>
      </trkpt>
      <trkpt lat="48.56723" lon="-2.8207">
        <ele>101.4</ele>
        <time>2026-01-25T10:40:00Z</time>
      </trkpt>
      <trkpt lat="48.5672" lon="-2.82076">
        <ele>101.4</ele>
        <time>2026-01-25T10:40:01Z</time>
      </trkpt>
      <trkpt lat="48.56717" lon="-2.82082">
        <ele>102.4</ele>
        <time>2026-01-25T10:40:02Z</time>
      </trkpt>
      <trkpt lat="48.56714" lon="-2.82088">
        <ele>103.8</ele>
        <time>2026-01-25T10:40:03Z</time>
      </trkpt>
      <trkpt lat="48.56712" lon="-2.82094">
        <ele>103.8</ele>
        <time>2026-01-25T10:40:04Z</time>
      </trkpt>
      <trkpt lat="48.5671" lon="-2.821">
        <ele>103.8</ele>
        <time>2026-01-25T10:40:05Z</time>
      </trkpt>
      <trkpt lat="48.56707" lon="-2.82106">
        <ele>103.8</ele>
        <time>2026-01-25T10:40:06Z</time>
      </trkpt>
      <trkpt lat="48.56705" lon="-2.82112">
        <ele>103.6</ele>
        <time>2026-01-25T10:40:07Z</time>
      </trkpt>
      <trkpt lat="48.56702" lon="-2.82118">
        <ele>103.6</ele>
        <time>2026-01-25T10:40:08Z</time>
      </trkpt>
      <trkpt lat="48.56699" lon="-2.82124">
        <ele>103.6</ele>
        <time>2026-01-25T10:40:09Z</time>
      </trkpt>
      <trkpt lat="48.56696" lon="-2.8213">
        <ele>103.6</ele>
        <time>2026-01-25T10:40:10Z</time>
      </trkpt>
      <trkpt lat="48.56694" lon="-2.82136">
        <ele>104.2</ele>
        <time>2026-01-25T10:40:11Z</time>
      </trkpt>
      <trkpt lat="48.56691" lon="-2.82142">
        <ele>104.2</ele>
        <time>2026-01-25T10:40:12Z</time>
      </trkpt>
      <trkpt lat="48.56688" lon="-2.82148">
        <ele>104.2</ele>
        <time>2026-01-25T10:40:13Z</time>
      </trkpt>
      <trkpt lat="48.56685" lon="-2.82154">
        <ele>104.2</ele>
        <time>2026-01-25T10:40:14Z</time>
      </trkpt>
      <trkpt lat="48.56683" lon="-2.82161">
        <ele>105.2</ele>
        <time>2026-01-25T10:40:15Z</time>
      </trkpt>
      <trkpt lat="48.5668" lon="-2.82167">
        <ele>105.2</ele>
        <time>2026-01-25T10:40:16Z</time>
      </trkpt>
      <trkpt lat="48.56678" lon="-2.82173">
        <ele>105.2</ele>
        <time>2026-01-25T10:40:17Z</time>
      </trkpt>
      <trkpt lat="48.56675" lon="-2.82179">
        <ele>105.2</ele>
        <time>2026-01-25T10:40:18Z</time>
      </trkpt>
      <trkpt lat="48.56672" lon="-2.82184">
        <ele>105.4</ele>
        <time>2026-01-25T10:40:19Z</time>
      </trkpt>
      <trkpt lat="48.5667" lon="-2.8219">
        <ele>105.4</ele>
        <time>2026-01-25T10:40:20Z</time>
      </trkpt>
      <trkpt lat="48.56667" lon="-2.82196">
        <ele>105.4</ele>
        <time>2026-01-25T10:40:21Z</time>
      </trkpt>
      <trkpt lat="48.56665" lon="-2.82202">
        <ele>105.4</ele>
        <time>2026-01-25T10:40:22Z</time>
      </trkpt>
      <trkpt lat="48.56662" lon="-2.82208">
        <ele>106.6</ele>
        <time>2026-01-25T10:40:23Z</time>
      </trkpt>
      <trkpt lat="48.5666" lon="-2.82214">
        <ele>106.6</ele>
        <time>2026-01-25T10:40:24Z</time>
      </trkpt>
      <trkpt lat="48.56657" lon="-2.82219">
        <ele>106.6</ele>
        <time>2026-01-25T10:40:25Z</time>
      </trkpt>
      <trkpt lat="48.56655" lon="-2.82224">
        <ele>107.6</ele>
        <time>2026-01-25T10:40:26Z</time>
      </trkpt>
      <trkpt lat="48.56653" lon="-2.82229">
        <ele>108</ele>
        <time>2026-01-25T10:40:27Z</time>
      </trkpt>
      <trkpt lat="48.56651" lon="-2.82234">
        <ele>108</ele>
        <time>2026-01-25T10:40:28Z</time>
      </trkpt>
      <trkpt lat="48.56648" lon="-2.82236">
        <ele>108</ele>
        <time>2026-01-25T10:40:29Z</time>
      </trkpt>
      <trkpt lat="48.56645" lon="-2.82237">
        <ele>108</ele>
        <time>2026-01-25T10:40:30Z</time>
      </trkpt>
      <trkpt lat="48.5664" lon="-2.82237">
        <ele>108.4</ele>
        <time>2026-01-25T10:40:31Z</time>
      </trkpt>
      <trkpt lat="48.56636" lon="-2.82236">
        <ele>108.4</ele>
        <time>2026-01-25T10:40:32Z</time>
      </trkpt>
      <trkpt lat="48.56632" lon="-2.82234">
        <ele>108.4</ele>
        <time>2026-01-25T10:40:33Z</time>
      </trkpt>
      <trkpt lat="48.56628" lon="-2.82231">
        <ele>109.4</ele>
        <time>2026-01-25T10:40:34Z</time>
      </trkpt>
      <trkpt lat="48.56623" lon="-2.82228">
        <ele>108.6</ele>
        <time>2026-01-25T10:40:35Z</time>
      </trkpt>
      <trkpt lat="48.56619" lon="-2.82225">
        <ele>108.6</ele>
        <time>2026-01-25T10:40:36Z</time>
      </trkpt>
      <trkpt lat="48.56615" lon="-2.82221">
        <ele>108.6</ele>
        <time>2026-01-25T10:40:37Z</time>
      </trkpt>
      <trkpt lat="48.5661" lon="-2.82218">
        <ele>108.6</ele>
        <time>2026-01-25T10:40:38Z</time>
      </trkpt>
      <trkpt lat="48.56606" lon="-2.82215">
        <ele>108.6</ele>
        <time>2026-01-25T10:40:39Z</time>
      </trkpt>
      <trkpt lat="48.56601" lon="-2.82211">
        <ele>108.6</ele>
        <time>2026-01-25T10:40:40Z</time>
      </trkpt>
      <trkpt lat="48.56597" lon="-2.82207">
        <ele>108.6</ele>
        <time>2026-01-25T10:40:41Z</time>
      </trkpt>
      <trkpt lat="48.56593" lon="-2.82204">
        <ele>108.6</ele>
        <time>2026-01-25T10:40:42Z</time>
      </trkpt>
      <trkpt lat="48.56588" lon="-2.822">
        <ele>109.6</ele>
        <time>2026-01-25T10:40:43Z</time>
      </trkpt>
      <trkpt lat="48.56583" lon="-2.82196">
        <ele>109.6</ele>
        <time>2026-01-25T10:40:44Z</time>
      </trkpt>
      <trkpt lat="48.56579" lon="-2.82192">
        <ele>109.6</ele>
        <time>2026-01-25T10:40:45Z</time>
      </trkpt>
      <trkpt lat="48.56574" lon="-2.82188">
        <ele>109.4</ele>
        <time>2026-01-25T10:40:46Z</time>
      </trkpt>
      <trkpt lat="48.56569" lon="-2.82185">
        <ele>108.8</ele>
        <time>2026-01-25T10:40:47Z</time>
      </trkpt>
      <trkpt lat="48.56565" lon="-2.82181">
        <ele>108.8</ele>
        <time>2026-01-25T10:40:48Z</time>
      </trkpt>
      <trkpt lat="48.5656" lon="-2.82177">
        <ele>108.8</ele>
        <time>2026-01-25T10:40:49Z</time>
      </trkpt>
      <trkpt lat="48.56555" lon="-2.82173">
        <ele>109.4</ele>
        <time>2026-01-25T10:40:50Z</time>
      </trkpt>
      <trkpt lat="48.5655" lon="-2.8217">
        <ele>109.4</ele>
        <time>2026-01-25T10:40:51Z</time>
      </trkpt>
      <trkpt lat="48.56546" lon="-2.82166">
        <ele>109.4</ele>
        <time>2026-01-25T10:40:52Z</time>
      </trkpt>
      <trkpt lat="48.56541" lon="-2.82162">
        <ele>109.4</ele>
        <time>2026-01-25T10:40:53Z</time>
      </trkpt>
      <trkpt lat="48.56537" lon="-2.82159">
        <ele>110.2</ele>
        <time>2026-01-25T10:40:54Z</time>
      </trkpt>
      <trkpt lat="48.56532" lon="-2.82155">
        <ele>110</ele>
        <time>2026-01-25T10:40:55Z</time>
      </trkpt>
      <trkpt lat="48.56527" lon="-2.82152">
        <ele>110</ele>
        <time>2026-01-25T10:40:56Z</time>
      </trkpt>
      <trkpt lat="48.56523" lon="-2.82148">
        <ele>110</ele>
        <time>2026-01-25T10:40:57Z</time>
      </trkpt>
      <trkpt lat="48.56519" lon="-2.82144">
        <ele>110</ele>
        <time>2026-01-25T10:40:58Z</time>
      </trkpt>
      <trkpt lat="48.56516" lon="-2.82138">
        <ele>110.6</ele>
        <time>2026-01-25T10:40:59Z</time>
      </trkpt>
      <trkpt lat="48.56515" lon="-2.82132">
        <ele>110.6</ele>
        <time>2026-01-25T10:41:00Z</time>
      </trkpt>
      <trkpt lat="48.56513" lon="-2.82126">
        <ele>110.6</ele>
        <time>2026-01-25T10:41:01Z</time>
      </trkpt>
      <trkpt lat="48.5651" lon="-2.8212">
        <ele>111</ele>
        <time>2026-01-25T10:41:02Z</time>
      </trkpt>
      <trkpt lat="48.56507" lon="-2.82113">
        <ele>110.6</ele>
        <time>2026-01-25T10:41:03Z</time>
      </trkpt>
      <trkpt lat="48.56504" lon="-2.82107">
        <ele>110.6</ele>
        <time>2026-01-25T10:41:04Z</time>
      </trkpt>
      <trkpt lat="48.56502" lon="-2.821">
        <ele>110.6</ele>
        <time>2026-01-25T10:41:05Z</time>
      </trkpt>
      <trkpt lat="48.56498" lon="-2.82093">
        <ele>110</ele>
        <time>2026-01-25T10:41:06Z</time>
      </trkpt>
      <trkpt lat="48.56494" lon="-2.82088">
        <ele>109.6</ele>
        <time>2026-01-25T10:41:07Z</time>
      </trkpt>
      <trkpt lat="48.56489" lon="-2.82085">
        <ele>109.6</ele>
        <time>2026-01-25T10:41:08Z</time>
      </trkpt>
      <trkpt lat="48.56483" lon="-2.82085">
        <ele>109.6</ele>
        <time>2026-01-25T10:41:09Z</time>
      </trkpt>
      <trkpt lat="48.56477" lon="-2.82085">
        <ele>108.6</ele>
        <time>2026-01-25T10:41:10Z</time>
      </trkpt>
      <trkpt lat="48.56471" lon="-2.82085">
        <ele>108.2</ele>
        <time>2026-01-25T10:41:11Z</time>
      </trkpt>
      <trkpt lat="48.56465" lon="-2.82086">
        <ele>108.2</ele>
        <time>2026-01-25T10:41:12Z</time>
      </trkpt>
      <trkpt lat="48.56459" lon="-2.82088">
        <ele>108.2</ele>
        <time>2026-01-25T10:41:13Z</time>
      </trkpt>
      <trkpt lat="48.56453" lon="-2.82089">
        <ele>108.2</ele>
        <time>2026-01-25T10:41:14Z</time>
      </trkpt>
      <trkpt lat="48.56447" lon="-2.82092">
        <ele>108.4</ele>
        <time>2026-01-25T10:41:15Z</time>
      </trkpt>
      <trkpt lat="48.56441" lon="-2.82094">
        <ele>108.4</ele>
        <time>2026-01-25T10:41:16Z</time>
      </trkpt>
      <trkpt lat="48.56435" lon="-2.82097">
        <ele>108.4</ele>
        <time>2026-01-25T10:41:17Z</time>
      </trkpt>
      <trkpt lat="48.5643" lon="-2.82101">
        <ele>108.8</ele>
        <time>2026-01-25T10:41:18Z</time>
      </trkpt>
      <trkpt lat="48.56424" lon="-2.82104">
        <ele>108.6</ele>
        <time>2026-01-25T10:41:19Z</time>
      </trkpt>
      <trkpt lat="48.56419" lon="-2.82108">
        <ele>108.6</ele>
        <time>2026-01-25T10:41:20Z</time>
      </trkpt>
      <trkpt lat="48.56413" lon="-2.82111">
        <ele>108.6</ele>
        <time>2026-01-25T10:41:21Z</time>
      </trkpt>
      <trkpt lat="48.56408" lon="-2.82115">
        <ele>109.2</ele>
        <time>2026-01-25T10:41:22Z</time>
      </trkpt>
      <trkpt lat="48.56403" lon="-2.82118">
        <ele>109.8</ele>
        <time>2026-01-25T10:41:23Z</time>
      </trkpt>
      <trkpt lat="48.56397" lon="-2.82121">
        <ele>109.8</ele>
        <time>2026-01-25T10:41:24Z</time>
      </trkpt>
      <trkpt lat="48.56392" lon="-2.82124">
        <ele>109.8</ele>
        <time>2026-01-25T10:41:25Z</time>
      </trkpt>
      <trkpt lat="48.56386" lon="-2.82128">
        <ele>110.2</ele>
        <time>2026-01-25T10:41:26Z</time>
      </trkpt>
      <trkpt lat="48.56381" lon="-2.82131">
        <ele>110.2</ele>
        <time>2026-01-25T10:41:27Z</time>
      </trkpt>
      <trkpt lat="48.56375" lon="-2.82135">
        <ele>110.2</ele>
        <time>2026-01-25T10:41:28Z</time>
      </trkpt>
      <trkpt lat="48.5637" lon="-2.82139">
        <ele>110.2</ele>
        <time>2026-01-25T10:41:29Z</time>
      </trkpt>
      <trkpt lat="48.56364" lon="-2.82143">
        <ele>109.4</ele>
        <time>2026-01-25T10:41:30Z</time>
      </trkpt>
      <trkpt lat="48.56358" lon="-2.82147">
        <ele>109.4</ele>
        <time>2026-01-25T10:41:31Z</time>
      </trkpt>
      <trkpt lat="48.56353" lon="-2.82151">
        <ele>109.4</ele>
        <time>2026-01-25T10:41:32Z</time>
      </trkpt>
      <trkpt lat="48.56347" lon="-2.82156">
        <ele>109.4</ele>
        <time>2026-01-25T10:41:33Z</time>
      </trkpt>
      <trkpt lat="48.56342" lon="-2.8216">
        <ele>110</ele>
        <time>2026-01-25T10:41:34Z</time>
      </trkpt>
      <trkpt lat="48.56337" lon="-2.82164">
        <ele>109.6</ele>
        <time>2026-01-25T10:41:35Z</time>
      </trkpt>
      <trkpt lat="48.56331" lon="-2.82169">
        <ele>109.6</ele>
        <time>2026-01-25T10:41:36Z</time>
      </trkpt>
      <trkpt lat="48.56326" lon="-2.82174">
        <ele>109.6</ele>
        <time>2026-01-25T10:41:37Z</time>
      </trkpt>
      <trkpt lat="48.5632" lon="-2.82178">
        <ele>110.2</ele>
        <time>2026-01-25T10:41:38Z</time>
      </trkpt>
      <trkpt lat="48.56315" lon="-2.82183">
        <ele>110</ele>
        <time>2026-01-25T10:41:39Z</time>
      </trkpt>
      <trkpt lat="48.56309" lon="-2.82187">
        <ele>110</ele>
        <time>2026-01-25T10:41:40Z</time>
      </trkpt>
      <trkpt lat="48.56304" lon="-2.82192">
        <ele>110</ele>
        <time>2026-01-25T10:41:41Z</time>
      </trkpt>
      <trkpt lat="48.56298" lon="-2.82197">
        <ele>110</ele>
        <time>2026-01-25T10:41:42Z</time>
      </trkpt>
      <trkpt lat="48.56292" lon="-2.82202">
        <ele>109.4</ele>
        <time>2026-01-25T10:41:43Z</time>
      </trkpt>
      <trkpt lat="48.56286" lon="-2.82206">
        <ele>109.4</ele>
        <time>2026-01-25T10:41:44Z</time>
      </trkpt>
      <trkpt lat="48.5628" lon="-2.82208">
        <ele>109.4</ele>
        <time>2026-01-25T10:41:45Z</time>
      </trkpt>
      <trkpt lat="48.56273" lon="-2.82208">
        <ele>109.4</ele>
        <time>2026-01-25T10:41:46Z</time>
      </trkpt>
      <trkpt lat="48.56267" lon="-2.82205">
        <ele>109.8</ele>
        <time>2026-01-25T10:41:47Z</time>
      </trkpt>
      <trkpt lat="48.56261" lon="-2.822">
        <ele>109.8</ele>
        <time>2026-01-25T10:41:48Z</time>
      </trkpt>
      <trkpt lat="48.56256" lon="-2.82195">
        <ele>109.8</ele>
        <time>2026-01-25T10:41:49Z</time>
      </trkpt>
      <trkpt lat="48.5625" lon="-2.82189">
        <ele>110.2</ele>
        <time>2026-01-25T10:41:50Z</time>
      </trkpt>
      <trkpt lat="48.56245" lon="-2.82184">
        <ele>109.6</ele>
        <time>2026-01-25T10:41:51Z</time>
      </trkpt>
      <trkpt lat="48.56239" lon="-2.8218">
        <ele>109.6</ele>
        <time>2026-01-25T10:41:52Z</time>
      </trkpt>
      <trkpt lat="48.56233" lon="-2.82177">
        <ele>109.6</ele>
        <time>2026-01-25T10:41:53Z</time>
      </trkpt>
      <trkpt lat="48.56227" lon="-2.82174">
        <ele>109.6</ele>
        <time>2026-01-25T10:41:54Z</time>
      </trkpt>
      <trkpt lat="48.5622" lon="-2.82173">
        <ele>109.2</ele>
        <time>2026-01-25T10:41:55Z</time>
      </trkpt>
      <trkpt lat="48.56214" lon="-2.82172">
        <ele>109.2</ele>
        <time>2026-01-25T10:41:56Z</time>
      </trkpt>
      <trkpt lat="48.56207" lon="-2.82173">
        <ele>109.2</ele>
        <time>2026-01-25T10:41:57Z</time>
      </trkpt>
      <trkpt lat="48.56201" lon="-2.82174">
        <ele>110</ele>
        <time>2026-01-25T10:41:58Z</time>
      </trkpt>
      <trkpt lat="48.56195" lon="-2.82176">
        <ele>109.4</ele>
        <time>2026-01-25T10:41:59Z</time>
      </trkpt>
      <trkpt lat="48.56188" lon="-2.82179">
        <ele>109.4</ele>
        <time>2026-01-25T10:42:00Z</time>
      </trkpt>
      <trkpt lat="48.56183" lon="-2.82184">
        <ele>109.4</ele>
        <time>2026-01-25T10:42:01Z</time>
      </trkpt>
      <trkpt lat="48.56178" lon="-2.82191">
        <ele>110</ele>
        <time>2026-01-25T10:42:02Z</time>
      </trkpt>
      <trkpt lat="48.56174" lon="-2.82199">
        <ele>109.4</ele>
        <time>2026-01-25T10:42:03Z</time>
      </trkpt>
      <trkpt lat="48.56171" lon="-2.82207">
        <ele>109.4</ele>
        <time>2026-01-25T10:42:04Z</time>
      </trkpt>
      <trkpt lat="48.56167" lon="-2.82214">
        <ele>109.4</ele>
        <time>2026-01-25T10:42:05Z</time>
      </trkpt>
      <trkpt lat="48.56163" lon="-2.82222">
        <ele>109.8</ele>
        <time>2026-01-25T10:42:06Z</time>
      </trkpt>
      <trkpt lat="48.56159" lon="-2.8223">
        <ele>109.4</ele>
        <time>2026-01-25T10:42:07Z</time>
      </trkpt>
      <trkpt lat="48.56155" lon="-2.82237">
        <ele>109.4</ele>
        <time>2026-01-25T10:42:08Z</time>
      </trkpt>
      <trkpt lat="48.56151" lon="-2.82245">
        <ele>109.4</ele>
        <time>2026-01-25T10:42:09Z</time>
      </trkpt>
      <trkpt lat="48.56147" lon="-2.82252">
        <ele>108.6</ele>
        <time>2026-01-25T10:42:10Z</time>
      </trkpt>
      <trkpt lat="48.56143" lon="-2.82258">
        <ele>110.2</ele>
        <time>2026-01-25T10:42:11Z</time>
      </trkpt>
      <trkpt lat="48.56139" lon="-2.82265">
        <ele>110.2</ele>
        <time>2026-01-25T10:42:12Z</time>
      </trkpt>
      <trkpt lat="48.56134" lon="-2.82271">
        <ele>110.2</ele>
        <time>2026-01-25T10:42:13Z</time>
      </trkpt>
      <trkpt lat="48.56129" lon="-2.82277">
        <ele>110.2</ele>
        <time>2026-01-25T10:42:14Z</time>
      </trkpt>
      <trkpt lat="48.56124" lon="-2.82283">
        <ele>109.8</ele>
        <time>2026-01-25T10:42:15Z</time>
      </trkpt>
      <trkpt lat="48.56119" lon="-2.82288">
        <ele>109.8</ele>
        <time>2026-01-25T10:42:16Z</time>
      </trkpt>
      <trkpt lat="48.56114" lon="-2.82293">
        <ele>109.8</ele>
        <time>2026-01-25T10:42:17Z</time>
      </trkpt>
      <trkpt lat="48.56109" lon="-2.82298">
        <ele>110.2</ele>
        <time>2026-01-25T10:42:18Z</time>
      </trkpt>
      <trkpt lat="48.56103" lon="-2.82303">
        <ele>110.4</ele>
        <time>2026-01-25T10:42:19Z</time>
      </trkpt>
      <trkpt lat="48.56098" lon="-2.82307">
        <ele>110.4</ele>
        <time>2026-01-25T10:42:20Z</time>
      </trkpt>
      <trkpt lat="48.56093" lon="-2.82312">
        <ele>110.4</ele>
        <time>2026-01-25T10:42:21Z</time>
      </trkpt>
      <trkpt lat="48.56088" lon="-2.82317">
        <ele>110.4</ele>
        <time>2026-01-25T10:42:22Z</time>
      </trkpt>
      <trkpt lat="48.56083" lon="-2.82321">
        <ele>111</ele>
        <time>2026-01-25T10:42:23Z</time>
      </trkpt>
      <trkpt lat="48.56079" lon="-2.82325">
        <ele>111</ele>
        <time>2026-01-25T10:42:24Z</time>
      </trkpt>
      <trkpt lat="48.56074" lon="-2.82329">
        <ele>111</ele>
        <time>2026-01-25T10:42:25Z</time>
      </trkpt>
      <trkpt lat="48.56069" lon="-2.82333">
        <ele>111.6</ele>
        <time>2026-01-25T10:42:26Z</time>
      </trkpt>
      <trkpt lat="48.56064" lon="-2.82337">
        <ele>111.8</ele>
        <time>2026-01-25T10:42:27Z</time>
      </trkpt>
      <trkpt lat="48.5606" lon="-2.82341">
        <ele>111.8</ele>
        <time>2026-01-25T10:42:28Z</time>
      </trkpt>
      <trkpt lat="48.56055" lon="-2.82346">
        <ele>111.8</ele>
        <time>2026-01-25T10:42:29Z</time>
      </trkpt>
      <trkpt lat="48.5605" lon="-2.8235">
        <ele>112</ele>
        <time>2026-01-25T10:42:30Z</time>
      </trkpt>
      <trkpt lat="48.56046" lon="-2.82355">
        <ele>112.4</ele>
        <time>2026-01-25T10:42:31Z</time>
      </trkpt>
      <trkpt lat="48.56041" lon="-2.8236">
        <ele>112.4</ele>
        <time>2026-01-25T10:42:32Z</time>
      </trkpt>
      <trkpt lat="48.56036" lon="-2.82364">
        <ele>112.4</ele>
        <time>2026-01-25T10:42:33Z</time>
      </trkpt>
      <trkpt lat="48.56031" lon="-2.82369">
        <ele>112.2</ele>
        <time>2026-01-25T10:42:34Z</time>
      </trkpt>
      <trkpt lat="48.56027" lon="-2.82373">
        <ele>112.6</ele>
        <time>2026-01-25T10:42:35Z</time>
      </trkpt>
      <trkpt lat="48.56022" lon="-2.82378">
        <ele>112.6</ele>
        <time>2026-01-25T10:42:36Z</time>
      </trkpt>
      <trkpt lat="48.56017" lon="-2.82382">
        <ele>112.6</ele>
        <time>2026-01-25T10:42:37Z</time>
      </trkpt>
      <trkpt lat="48.56012" lon="-2.82387">
        <ele>112.6</ele>
        <time>2026-01-25T10:42:38Z</time>
      </trkpt>
      <trkpt lat="48.56007" lon="-2.82391">
        <ele>111.8</ele>
        <time>2026-01-25T10:42:39Z</time>
      </trkpt>
      <trkpt lat="48.56002" lon="-2.82396">
        <ele>111.8</ele>
        <time>2026-01-25T10:42:40Z</time>
      </trkpt>
      <trkpt lat="48.55998" lon="-2.824">
        <ele>111.8</ele>
        <time>2026-01-25T10:42:41Z</time>
      </trkpt>
      <trkpt lat="48.55993" lon="-2.82405">
        <ele>111.8</ele>
        <time>2026-01-25T10:42:42Z</time>
      </trkpt>
      <trkpt lat="48.55989" lon="-2.8241">
        <ele>112.2</ele>
        <time>2026-01-25T10:42:43Z</time>
      </trkpt>
      <trkpt lat="48.55985" lon="-2.82414">
        <ele>112.2</ele>
        <time>2026-01-25T10:42:44Z</time>
      </trkpt>
      <trkpt lat="48.5598" lon="-2.82419">
        <ele>112.2</ele>
        <time>2026-01-25T10:42:45Z</time>
      </trkpt>
      <trkpt lat="48.55976" lon="-2.82424">
        <ele>112.2</ele>
        <time>2026-01-25T10:42:46Z</time>
      </trkpt>
      <trkpt lat="48.55972" lon="-2.82429">
        <ele>112.6</ele>
        <time>2026-01-25T10:42:47Z</time>
      </trkpt>
      <trkpt lat="48.55967" lon="-2.82434">
        <ele>112.6</ele>
        <time>2026-01-25T10:42:48Z</time>
      </trkpt>
      <trkpt lat="48.55963" lon="-2.82439">
        <ele>112.6</ele>
        <time>2026-01-25T10:42:49Z</time>
      </trkpt>
      <trkpt lat="48.55959" lon="-2.82444">
        <ele>112.6</ele>
        <time>2026-01-25T10:42:50Z</time>
      </trkpt>
      <trkpt lat="48.55954" lon="-2.82448">
        <ele>112.8</ele>
        <time>2026-01-25T10:42:51Z</time>
      </trkpt>
      <trkpt lat="48.5595" lon="-2.82453">
        <ele>112.8</ele>
        <time>2026-01-25T10:42:52Z</time>
      </trkpt>
      <trkpt lat="48.55945" lon="-2.82457">
        <ele>112.8</ele>
        <time>2026-01-25T10:42:53Z</time>
      </trkpt>
      <trkpt lat="48.55941" lon="-2.82461">
        <ele>113</ele>
        <time>2026-01-25T10:42:54Z</time>
      </trkpt>
      <trkpt lat="48.55937" lon="-2.82466">
        <ele>114</ele>
        <time>2026-01-25T10:42:55Z</time>
      </trkpt>
      <trkpt lat="48.55933" lon="-2.82471">
        <ele>114</ele>
        <time>2026-01-25T10:42:56Z</time>
      </trkpt>
      <trkpt lat="48.55929" lon="-2.82476">
        <ele>114</ele>
        <time>2026-01-25T10:42:57Z</time>
      </trkpt>
      <trkpt lat="48.55925" lon="-2.82481">
        <ele>114</ele>
        <time>2026-01-25T10:42:58Z</time>
      </trkpt>
      <trkpt lat="48.55921" lon="-2.82486">
        <ele>114</ele>
        <time>2026-01-25T10:42:59Z</time>
      </trkpt>
      <trkpt lat="48.55917" lon="-2.82492">
        <ele>114</ele>
        <time>2026-01-25T10:43:00Z</time>
      </trkpt>
      <trkpt lat="48.55913" lon="-2.82497">
        <ele>114</ele>
        <time>2026-01-25T10:43:01Z</time>
      </trkpt>
      <trkpt lat="48.55909" lon="-2.82502">
        <ele>115</ele>
        <time>2026-01-25T10:43:02Z</time>
      </trkpt>
      <trkpt lat="48.55905" lon="-2.82508">
        <ele>115.4</ele>
        <time>2026-01-25T10:43:03Z</time>
      </trkpt>
      <trkpt lat="48.55901" lon="-2.82514">
        <ele>115.4</ele>
        <time>2026-01-25T10:43:04Z</time>
      </trkpt>
      <trkpt lat="48.55897" lon="-2.82519">
        <ele>115.4</ele>
        <time>2026-01-25T10:43:05Z</time>
      </trkpt>
      <trkpt lat="48.55893" lon="-2.82525">
        <ele>115.4</ele>
        <time>2026-01-25T10:43:06Z</time>
      </trkpt>
      <trkpt lat="48.55889" lon="-2.8253">
        <ele>115.2</ele>
        <time>2026-01-25T10:43:07Z</time>
      </trkpt>
      <trkpt lat="48.55885" lon="-2.82536">
        <ele>115.2</ele>
        <time>2026-01-25T10:43:08Z</time>
      </trkpt>
      <trkpt lat="48.5588" lon="-2.82541">
        <ele>115.2</ele>
        <time>2026-01-25T10:43:09Z</time>
      </trkpt>
      <trkpt lat="48.55876" lon="-2.82545">
        <ele>116</ele>
        <time>2026-01-25T10:43:10Z</time>
      </trkpt>
      <trkpt lat="48.55871" lon="-2.8255">
        <ele>116</ele>
        <time>2026-01-25T10:43:11Z</time>
      </trkpt>
      <trkpt lat="48.55866" lon="-2.82554">
        <ele>116</ele>
        <time>2026-01-25T10:43:12Z</time>
      </trkpt>
      <trkpt lat="48.55861" lon="-2.82558">
        <ele>116</ele>
        <time>2026-01-25T10:43:13Z</time>
      </trkpt>
      <trkpt lat="48.55856" lon="-2.82561">
        <ele>116</ele>
        <time>2026-01-25T10:43:14Z</time>
      </trkpt>
      <trkpt lat="48.5585" lon="-2.82564">
        <ele>115.4</ele>
        <time>2026-01-25T10:43:15Z</time>
      </trkpt>
      <trkpt lat="48.55845" lon="-2.82566">
        <ele>115.4</ele>
        <time>2026-01-25T10:43:16Z</time>
      </trkpt>
      <trkpt lat="48.5584" lon="-2.82569">
        <ele>115.4</ele>
        <time>2026-01-25T10:43:17Z</time>
      </trkpt>
      <trkpt lat="48.55834" lon="-2.82572">
        <ele>116.2</ele>
        <time>2026-01-25T10:43:18Z</time>
      </trkpt>
      <trkpt lat="48.55829" lon="-2.82575">
        <ele>115.8</ele>
        <time>2026-01-25T10:43:19Z</time>
      </trkpt>
      <trkpt lat="48.55824" lon="-2.82577">
        <ele>115.8</ele>
        <time>2026-01-25T10:43:20Z</time>
      </trkpt>
      <trkpt lat="48.55818" lon="-2.8258">
        <ele>115.8</ele>
        <time>2026-01-25T10:43:21Z</time>
      </trkpt>
      <trkpt lat="48.55813" lon="-2.82584">
        <ele>115.8</ele>
        <time>2026-01-25T10:43:22Z</time>
      </trkpt>
      <trkpt lat="48.55808" lon="-2.82587">
        <ele>116.6</ele>
        <time>2026-01-25T10:43:23Z</time>
      </trkpt>
      <trkpt lat="48.55803" lon="-2.8259">
        <ele>116.6</ele>
        <time>2026-01-25T10:43:24Z</time>
      </trkpt>
      <trkpt lat="48.55797" lon="-2.82593">
        <ele>116.6</ele>
        <time>2026-01-25T10:43:25Z</time>
      </trkpt>
      <trkpt lat="48.55792" lon="-2.82597">
        <ele>116.6</ele>
        <time>2026-01-25T10:43:26Z</time>
      </trkpt>
      <trkpt lat="48.55787" lon="-2.82602">
        <ele>116.2</ele>
        <time>2026-01-25T10:43:27Z</time>
      </trkpt>
      <trkpt lat="48.55782" lon="-2.82606">
        <ele>116.2</ele>
        <time>2026-01-25T10:43:28Z</time>
      </trkpt>
      <trkpt lat="48.55777" lon="-2.82611">
        <ele>116.2</ele>
        <time>2026-01-25T10:43:29Z</time>
      </trkpt>
      <trkpt lat="48.55772" lon="-2.82615">
        <ele>116.8</ele>
        <time>2026-01-25T10:43:30Z</time>
      </trkpt>
      <trkpt lat="48.55767" lon="-2.8262">
        <ele>117.2</ele>
        <time>2026-01-25T10:43:31Z</time>
      </trkpt>
      <trkpt lat="48.55762" lon="-2.82625">
        <ele>117.2</ele>
        <time>2026-01-25T10:43:32Z</time>
      </trkpt>
      <trkpt lat="48.55757" lon="-2.82629">
        <ele>117.2</ele>
        <time>2026-01-25T10:43:33Z</time>
      </trkpt>
      <trkpt lat="48.55752" lon="-2.82634">
        <ele>117.2</ele>
        <time>2026-01-25T10:43:34Z</time>
      </trkpt>
      <trkpt lat="48.55747" lon="-2.82638">
        <ele>117.2</ele>
        <time>2026-01-25T10:43:35Z</time>
      </trkpt>
      <trkpt lat="48.55742" lon="-2.82642">
        <ele>117.2</ele>
        <time>2026-01-25T10:43:36Z</time>
      </trkpt>
      <trkpt lat="48.55737" lon="-2.82646">
        <ele>117.2</ele>
        <time>2026-01-25T10:43:37Z</time>
      </trkpt>
      <trkpt lat="48.55732" lon="-2.8265">
        <ele>117.2</ele>
        <time>2026-01-25T10:43:38Z</time>
      </trkpt>
      <trkpt lat="48.55726" lon="-2.82654">
        <ele>116.6</ele>
        <time>2026-01-25T10:43:39Z</time>
      </trkpt>
      <trkpt lat="48.55721" lon="-2.82659">
        <ele>116.6</ele>
        <time>2026-01-25T10:43:40Z</time>
      </trkpt>
      <trkpt lat="48.55715" lon="-2.82663">
        <ele>116.6</ele>
        <time>2026-01-25T10:43:41Z</time>
      </trkpt>
      <trkpt lat="48.5571" lon="-2.82667">
        <ele>116.6</ele>
        <time>2026-01-25T10:43:42Z</time>
      </trkpt>
      <trkpt lat="48.55704" lon="-2.82671">
        <ele>116.6</ele>
        <time>2026-01-25T10:43:43Z</time>
      </trkpt>
      <trkpt lat="48.55698" lon="-2.82674">
        <ele>116.6</ele>
        <time>2026-01-25T10:43:44Z</time>
      </trkpt>
      <trkpt lat="48.55692" lon="-2.82677">
        <ele>116.6</ele>
        <time>2026-01-25T10:43:45Z</time>
      </trkpt>
      <trkpt lat="48.55686" lon="-2.82681">
        <ele>116.6</ele>
        <time>2026-01-25T10:43:46Z</time>
      </trkpt>
      <trkpt lat="48.5568" lon="-2.82684">
        <ele>116.2</ele>
        <time>2026-01-25T10:43:47Z</time>
      </trkpt>
      <trkpt lat="48.55675" lon="-2.82687">
        <ele>116.2</ele>
        <time>2026-01-25T10:43:48Z</time>
      </trkpt>
      <trkpt lat="48.55669" lon="-2.8269">
        <ele>116.2</ele>
        <time>2026-01-25T10:43:49Z</time>
      </trkpt>
      <trkpt lat="48.55663" lon="-2.82693">
        <ele>116.2</ele>
        <time>2026-01-25T10:43:50Z</time>
      </trkpt>
      <trkpt lat="48.55657" lon="-2.82697">
        <ele>116.6</ele>
        <time>2026-01-25T10:43:51Z</time>
      </trkpt>
      <trkpt lat="48.55651" lon="-2.827">
        <ele>116.6</ele>
        <time>2026-01-25T10:43:52Z</time>
      </trkpt>
      <trkpt lat="48.55645" lon="-2.82704">
        <ele>116.6</ele>
        <time>2026-01-25T10:43:53Z</time>
      </trkpt>
      <trkpt lat="48.55639" lon="-2.82708">
        <ele>115.6</ele>
        <time>2026-01-25T10:43:54Z</time>
      </trkpt>
      <trkpt lat="48.55634" lon="-2.82711">
        <ele>115.2</ele>
        <time>2026-01-25T10:43:55Z</time>
      </trkpt>
      <trkpt lat="48.55628" lon="-2.82715">
        <ele>115.2</ele>
        <time>2026-01-25T10:43:56Z</time>
      </trkpt>
      <trkpt lat="48.55622" lon="-2.8272">
        <ele>115.2</ele>
        <time>2026-01-25T10:43:57Z</time>
      </trkpt>
      <trkpt lat="48.55617" lon="-2.82724">
        <ele>115.2</ele>
        <time>2026-01-25T10:43:58Z</time>
      </trkpt>
      <trkpt lat="48.55611" lon="-2.82728">
        <ele>114.8</ele>
        <time>2026-01-25T10:43:59Z</time>
      </trkpt>
      <trkpt lat="48.55605" lon="-2.82733">
        <ele>114.8</ele>
        <time>2026-01-25T10:44:00Z</time>
      </trkpt>
      <trkpt lat="48.556" lon="-2.82737">
        <ele>114.8</ele>
        <time>2026-01-25T10:44:01Z</time>
      </trkpt>
      <trkpt lat="48.55594" lon="-2.82742">
        <ele>114.8</ele>
        <time>2026-01-25T10:44:02Z</time>
      </trkpt>
      <trkpt lat="48.55589" lon="-2.82746">
        <ele>114.2</ele>
        <time>2026-01-25T10:44:03Z</time>
      </trkpt>
      <trkpt lat="48.55583" lon="-2.82751">
        <ele>114.2</ele>
        <time>2026-01-25T10:44:04Z</time>
      </trkpt>
      <trkpt lat="48.55577" lon="-2.82755">
        <ele>114.2</ele>
        <time>2026-01-25T10:44:05Z</time>
      </trkpt>
      <trkpt lat="48.55572" lon="-2.82759">
        <ele>114.2</ele>
        <time>2026-01-25T10:44:06Z</time>
      </trkpt>
      <trkpt lat="48.55566" lon="-2.82763">
        <ele>115.6</ele>
        <time>2026-01-25T10:44:07Z</time>
      </trkpt>
      <trkpt lat="48.5556" lon="-2.82766">
        <ele>115.6</ele>
        <time>2026-01-25T10:44:08Z</time>
      </trkpt>
      <trkpt lat="48.55554" lon="-2.82768">
        <ele>115.6</ele>
        <time>2026-01-25T10:44:09Z</time>
      </trkpt>
      <trkpt lat="48.55547" lon="-2.82768">
        <ele>114.8</ele>
        <time>2026-01-25T10:44:10Z</time>
      </trkpt>
      <trkpt lat="48.55541" lon="-2.82768">
        <ele>115.4</ele>
        <time>2026-01-25T10:44:11Z</time>
      </trkpt>
      <trkpt lat="48.55535" lon="-2.82766">
        <ele>115.4</ele>
        <time>2026-01-25T10:44:12Z</time>
      </trkpt>
      <trkpt lat="48.55529" lon="-2.82762">
        <ele>115.4</ele>
        <time>2026-01-25T10:44:13Z</time>
      </trkpt>
      <trkpt lat="48.55523" lon="-2.82759">
        <ele>116</ele>
        <time>2026-01-25T10:44:14Z</time>
      </trkpt>
      <trkpt lat="48.55517" lon="-2.82755">
        <ele>115.8</ele>
        <time>2026-01-25T10:44:15Z</time>
      </trkpt>
      <trkpt lat="48.55511" lon="-2.82751">
        <ele>115.8</ele>
        <time>2026-01-25T10:44:16Z</time>
      </trkpt>
      <trkpt lat="48.55505" lon="-2.82747">
        <ele>115.8</ele>
        <time>2026-01-25T10:44:17Z</time>
      </trkpt>
      <trkpt lat="48.55499" lon="-2.82743">
        <ele>115.6</ele>
        <time>2026-01-25T10:44:18Z</time>
      </trkpt>
      <trkpt lat="48.55493" lon="-2.82739">
        <ele>115.4</ele>
        <time>2026-01-25T10:44:19Z</time>
      </trkpt>
      <trkpt lat="48.55487" lon="-2.82735">
        <ele>115.4</ele>
        <time>2026-01-25T10:44:20Z</time>
      </trkpt>
      <trkpt lat="48.5548" lon="-2.82732">
        <ele>115.4</ele>
        <time>2026-01-25T10:44:21Z</time>
      </trkpt>
      <trkpt lat="48.55474" lon="-2.82728">
        <ele>115.4</ele>
        <time>2026-01-25T10:44:22Z</time>
      </trkpt>
      <trkpt lat="48.55468" lon="-2.82725">
        <ele>114.8</ele>
        <time>2026-01-25T10:44:23Z</time>
      </trkpt>
      <trkpt lat="48.55461" lon="-2.82721">
        <ele>114.8</ele>
        <time>2026-01-25T10:44:24Z</time>
      </trkpt>
      <trkpt lat="48.55455" lon="-2.82718">
        <ele>114.8</ele>
        <time>2026-01-25T10:44:25Z</time>
      </trkpt>
      <trkpt lat="48.55448" lon="-2.82715">
        <ele>114.8</ele>
        <time>2026-01-25T10:44:26Z</time>
      </trkpt>
      <trkpt lat="48.55441" lon="-2.82712">
        <ele>115</ele>
        <time>2026-01-25T10:44:27Z</time>
      </trkpt>
      <trkpt lat="48.55435" lon="-2.82709">
        <ele>115</ele>
        <time>2026-01-25T10:44:28Z</time>
      </trkpt>
      <trkpt lat="48.55429" lon="-2.82706">
        <ele>115</ele>
        <time>2026-01-25T10:44:29Z</time>
      </trkpt>
      <trkpt lat="48.55422" lon="-2.82704">
        <ele>115.4</ele>
        <time>2026-01-25T10:44:30Z</time>
      </trkpt>
      <trkpt lat="48.55416" lon="-2.82701">
        <ele>114.6</ele>
        <time>2026-01-25T10:44:31Z</time>
      </trkpt>
      <trkpt lat="48.5541" lon="-2.82699">
        <ele>114.6</ele>
        <time>2026-01-25T10:44:32Z</time>
      </trkpt>
      <trkpt lat="48.55404" lon="-2.82696">
        <ele>114.6</ele>
        <time>2026-01-25T10:44:33Z</time>
      </trkpt>
      <trkpt lat="48.55398" lon="-2.82694">
        <ele>115.6</ele>
        <time>2026-01-25T10:44:34Z</time>
      </trkpt>
      <trkpt lat="48.55392" lon="-2.82691">
        <ele>115.6</ele>
        <time>2026-01-25T10:44:35Z</time>
      </trkpt>
      <trkpt lat="48.55386" lon="-2.82688">
        <ele>115.6</ele>
        <time>2026-01-25T10:44:36Z</time>
      </trkpt>
      <trkpt lat="48.5538" lon="-2.82685">
        <ele>115.6</ele>
        <time>2026-01-25T10:44:37Z</time>
      </trkpt>
      <trkpt lat="48.55375" lon="-2.82683">
        <ele>116.4</ele>
        <time>2026-01-25T10:44:38Z</time>
      </trkpt>
      <trkpt lat="48.55369" lon="-2.8268">
        <ele>116</ele>
        <time>2026-01-25T10:44:39Z</time>
      </trkpt>
      <trkpt lat="48.55363" lon="-2.82678">
        <ele>116</ele>
        <time>2026-01-25T10:44:40Z</time>
      </trkpt>
      <trkpt lat="48.55357" lon="-2.82675">
        <ele>116</ele>
        <time>2026-01-25T10:44:41Z</time>
      </trkpt>
      <trkpt lat="48.55352" lon="-2.82673">
        <ele>116</ele>
        <time>2026-01-25T10:44:42Z</time>
      </trkpt>
      <trkpt lat="48.55346" lon="-2.8267">
        <ele>116.6</ele>
        <time>2026-01-25T10:44:43Z</time>
      </trkpt>
      <trkpt lat="48.5534" lon="-2.82668">
        <ele>116.6</ele>
        <time>2026-01-25T10:44:44Z</time>
      </trkpt>
      <trkpt lat="48.55334" lon="-2.82665">
        <ele>116.6</ele>
        <time>2026-01-25T10:44:45Z</time>
      </trkpt>
      <trkpt lat="48.55329" lon="-2.82663">
        <ele>116.6</ele>
        <time>2026-01-25T10:44:46Z</time>
      </trkpt>
      <trkpt lat="48.55323" lon="-2.8266">
        <ele>116.8</ele>
        <time>2026-01-25T10:44:47Z</time>
      </trkpt>
      <trkpt lat="48.55317" lon="-2.82658">
        <ele>116.8</ele>
        <time>2026-01-25T10:44:48Z</time>
      </trkpt>
      <trkpt lat="48.55311" lon="-2.82656">
        <ele>116.8</ele>
        <time>2026-01-25T10:44:49Z</time>
      </trkpt>
      <trkpt lat="48.55305" lon="-2.82654">
        <ele>116.8</ele>
        <time>2026-01-25T10:44:50Z</time>
      </trkpt>
      <trkpt lat="48.55299" lon="-2.82653">
        <ele>117.4</ele>
        <time>2026-01-25T10:44:51Z</time>
      </trkpt>
      <trkpt lat="48.55294" lon="-2.82651">
        <ele>117.4</ele>
        <time>2026-01-25T10:44:52Z</time>
      </trkpt>
      <trkpt lat="48.55288" lon="-2.8265">
        <ele>117.4</ele>
        <time>2026-01-25T10:44:53Z</time>
      </trkpt>
      <trkpt lat="48.55282" lon="-2.82649">
        <ele>116.4</ele>
        <time>2026-01-25T10:44:54Z</time>
      </trkpt>
      <trkpt lat="48.55276" lon="-2.82649">
        <ele>117.2</ele>
        <time>2026-01-25T10:44:55Z</time>
      </trkpt>
      <trkpt lat="48.5527" lon="-2.82648">
        <ele>117.2</ele>
        <time>2026-01-25T10:44:56Z</time>
      </trkpt>
      <trkpt lat="48.55265" lon="-2.82648">
        <ele>117.2</ele>
        <time>2026-01-25T10:44:57Z</time>
      </trkpt>
      <trkpt lat="48.55259" lon="-2.82648">
        <ele>117.2</ele>
        <time>2026-01-25T10:44:58Z</time>
      </trkpt>
      <trkpt lat="48.55254" lon="-2.82648">
        <ele>118</ele>
        <time>2026-01-25T10:44:59Z</time>
      </trkpt>
      <trkpt lat="48.55248" lon="-2.82648">
        <ele>118</ele>
        <time>2026-01-25T10:45:00Z</time>
      </trkpt>
      <trkpt lat="48.55243" lon="-2.82648">
        <ele>118</ele>
        <time>2026-01-25T10:45:01Z</time>
      </trkpt>
      <trkpt lat="48.55237" lon="-2.82648">
        <ele>118</ele>
        <time>2026-01-25T10:45:02Z</time>
      </trkpt>
      <trkpt lat="48.55232" lon="-2.82649">
        <ele>118.6</ele>
        <time>2026-01-25T10:45:03Z</time>
      </trkpt>
      <trkpt lat="48.55226" lon="-2.82649">
        <ele>118.6</ele>
        <time>2026-01-25T10:45:04Z</time>
      </trkpt>
      <trkpt lat="48.55221" lon="-2.8265">
        <ele>118.6</ele>
        <time>2026-01-25T10:45:05Z</time>
      </trkpt>
      <trkpt lat="48.55216" lon="-2.8265">
        <ele>119</ele>
        <time>2026-01-25T10:45:06Z</time>
      </trkpt>
      <trkpt lat="48.5521" lon="-2.8265">
        <ele>119.2</ele>
        <time>2026-01-25T10:45:07Z</time>
      </trkpt>
      <trkpt lat="48.55204" lon="-2.8265">
        <ele>119.2</ele>
        <time>2026-01-25T10:45:08Z</time>
      </trkpt>
      <trkpt lat="48.55198" lon="-2.82651">
        <ele>119.2</ele>
        <time>2026-01-25T10:45:09Z</time>
      </trkpt>
      <trkpt lat="48.55192" lon="-2.82651">
        <ele>119.2</ele>
        <time>2026-01-25T10:45:10Z</time>
      </trkpt>
      <trkpt lat="48.55187" lon="-2.82651">
        <ele>120</ele>
        <time>2026-01-25T10:45:11Z</time>
      </trkpt>
      <trkpt lat="48.55181" lon="-2.82651">
        <ele>120</ele>
        <time>2026-01-25T10:45:12Z</time>
      </trkpt>
      <trkpt lat="48.55176" lon="-2.82651">
        <ele>120</ele>
        <time>2026-01-25T10:45:13Z</time>
      </trkpt>
      <trkpt lat="48.5517" lon="-2.82651">
        <ele>120</ele>
        <time>2026-01-25T10:45:14Z</time>
      </trkpt>
      <trkpt lat="48.55165" lon="-2.82651">
        <ele>121.2</ele>
        <time>2026-01-25T10:45:15Z</time>
      </trkpt>
      <trkpt lat="48.5516" lon="-2.82651">
        <ele>121.2</ele>
        <time>2026-01-25T10:45:16Z</time>
      </trkpt>
      <trkpt lat="48.55155" lon="-2.82651">
        <ele>121.2</ele>
        <time>2026-01-25T10:45:17Z</time>
      </trkpt>
      <trkpt lat="48.55151" lon="-2.82651">
        <ele>121.2</ele>
        <time>2026-01-25T10:45:18Z</time>
      </trkpt>
      <trkpt lat="48.55146" lon="-2.82651">
        <ele>122.2</ele>
        <time>2026-01-25T10:45:19Z</time>
      </trkpt>
      <trkpt lat="48.55141" lon="-2.82652">
        <ele>122.2</ele>
        <time>2026-01-25T10:45:20Z</time>
      </trkpt>
      <trkpt lat="48.55136" lon="-2.82652">
        <ele>122.2</ele>
        <time>2026-01-25T10:45:21Z</time>
      </trkpt>
      <trkpt lat="48.55131" lon="-2.82652">
        <ele>122.2</ele>
        <time>2026-01-25T10:45:22Z</time>
      </trkpt>
      <trkpt lat="48.55125" lon="-2.82652">
        <ele>122</ele>
        <time>2026-01-25T10:45:23Z</time>
      </trkpt>
      <trkpt lat="48.5512" lon="-2.82652">
        <ele>122</ele>
        <time>2026-01-25T10:45:24Z</time>
      </trkpt>
      <trkpt lat="48.55116" lon="-2.82652">
        <ele>122</ele>
        <time>2026-01-25T10:45:25Z</time>
      </trkpt>
      <trkpt lat="48.55111" lon="-2.82652">
        <ele>122.6</ele>
        <time>2026-01-25T10:45:26Z</time>
      </trkpt>
      <trkpt lat="48.55106" lon="-2.82652">
        <ele>123</ele>
        <time>2026-01-25T10:45:27Z</time>
      </trkpt>
      <trkpt lat="48.55101" lon="-2.82652">
        <ele>123</ele>
        <time>2026-01-25T10:45:28Z</time>
      </trkpt>
      <trkpt lat="48.55097" lon="-2.82652">
        <ele>123</ele>
        <time>2026-01-25T10:45:29Z</time>
      </trkpt>
      <trkpt lat="48.55092" lon="-2.82653">
        <ele>122.4</ele>
        <time>2026-01-25T10:45:30Z</time>
      </trkpt>
      <trkpt lat="48.55087" lon="-2.82653">
        <ele>122.8</ele>
        <time>2026-01-25T10:45:31Z</time>
      </trkpt>
      <trkpt lat="48.55082" lon="-2.82653">
        <ele>122.8</ele>
        <time>2026-01-25T10:45:32Z</time>
      </trkpt>
      <trkpt lat="48.55077" lon="-2.82653">
        <ele>122.8</ele>
        <time>2026-01-25T10:45:33Z</time>
      </trkpt>
      <trkpt lat="48.55072" lon="-2.82654">
        <ele>122.8</ele>
        <time>2026-01-25T10:45:34Z</time>
      </trkpt>
      <trkpt lat="48.55067" lon="-2.82654">
        <ele>123.6</ele>
        <time>2026-01-25T10:45:35Z</time>
      </trkpt>
      <trkpt lat="48.55063" lon="-2.82654">
        <ele>123.6</ele>
        <time>2026-01-25T10:45:36Z</time>
      </trkpt>
      <trkpt lat="48.55058" lon="-2.82654">
        <ele>123.6</ele>
        <time>2026-01-25T10:45:37Z</time>
      </trkpt>
      <trkpt lat="48.55053" lon="-2.82654">
        <ele>124</ele>
        <time>2026-01-25T10:45:38Z</time>
      </trkpt>
      <trkpt lat="48.55048" lon="-2.82654">
        <ele>123.6</ele>
        <time>2026-01-25T10:45:39Z</time>
      </trkpt>
      <trkpt lat="48.55043" lon="-2.82653">
        <ele>123.6</ele>
        <time>2026-01-25T10:45:40Z</time>
      </trkpt>
      <trkpt lat="48.55039" lon="-2.82652">
        <ele>123.6</ele>
        <time>2026-01-25T10:45:41Z</time>
      </trkpt>
      <trkpt lat="48.55034" lon="-2.82651">
        <ele>124</ele>
        <time>2026-01-25T10:45:42Z</time>
      </trkpt>
      <trkpt lat="48.55029" lon="-2.8265">
        <ele>124.4</ele>
        <time>2026-01-25T10:45:43Z</time>
      </trkpt>
      <trkpt lat="48.55024" lon="-2.82649">
        <ele>124.4</ele>
        <time>2026-01-25T10:45:44Z</time>
      </trkpt>
      <trkpt lat="48.5502" lon="-2.82647">
        <ele>124.4</ele>
        <time>2026-01-25T10:45:45Z</time>
      </trkpt>
      <trkpt lat="48.55015" lon="-2.82644">
        <ele>124.8</ele>
        <time>2026-01-25T10:45:46Z</time>
      </trkpt>
      <trkpt lat="48.5501" lon="-2.82642">
        <ele>125.2</ele>
        <time>2026-01-25T10:45:47Z</time>
      </trkpt>
      <trkpt lat="48.55006" lon="-2.8264">
        <ele>125.2</ele>
        <time>2026-01-25T10:45:48Z</time>
      </trkpt>
      <trkpt lat="48.55002" lon="-2.82638">
        <ele>125.2</ele>
        <time>2026-01-25T10:45:49Z</time>
      </trkpt>
      <trkpt lat="48.54997" lon="-2.82636">
        <ele>125.2</ele>
        <time>2026-01-25T10:45:50Z</time>
      </trkpt>
      <trkpt lat="48.54992" lon="-2.82634">
        <ele>126.4</ele>
        <time>2026-01-25T10:45:51Z</time>
      </trkpt>
      <trkpt lat="48.54988" lon="-2.82632">
        <ele>126.4</ele>
        <time>2026-01-25T10:45:52Z</time>
      </trkpt>
      <trkpt lat="48.54983" lon="-2.8263">
        <ele>126.4</ele>
        <time>2026-01-25T10:45:53Z</time>
      </trkpt>
      <trkpt lat="48.54978" lon="-2.82628">
        <ele>127</ele>
        <time>2026-01-25T10:45:54Z</time>
      </trkpt>
      <trkpt lat="48.54973" lon="-2.82625">
        <ele>127.4</ele>
        <time>2026-01-25T10:45:55Z</time>
      </trkpt>
      <trkpt lat="48.54968" lon="-2.82622">
        <ele>127.4</ele>
        <time>2026-01-25T10:45:56Z</time>
      </trkpt>
      <trkpt lat="48.54963" lon="-2.8262">
        <ele>127.4</ele>
        <time>2026-01-25T10:45:57Z</time>
      </trkpt>
      <trkpt lat="48.54958" lon="-2.82618">
        <ele>127.8</ele>
        <time>2026-01-25T10:45:58Z</time>
      </trkpt>
      <trkpt lat="48.54953" lon="-2.82615">
        <ele>127.8</ele>
        <time>2026-01-25T10:45:59Z</time>
      </trkpt>
      <trkpt lat="48.54948" lon="-2.82613">
        <ele>127.8</ele>
        <time>2026-01-25T10:46:00Z</time>
      </trkpt>
      <trkpt lat="48.54944" lon="-2.82611">
        <ele>127.8</ele>
        <time>2026-01-25T10:46:01Z</time>
      </trkpt>
      <trkpt lat="48.54939" lon="-2.82609">
        <ele>128.6</ele>
        <time>2026-01-25T10:46:02Z</time>
      </trkpt>
      <trkpt lat="48.54935" lon="-2.82607">
        <ele>128.6</ele>
        <time>2026-01-25T10:46:03Z</time>
      </trkpt>
      <trkpt lat="48.5493" lon="-2.82606">
        <ele>128.6</ele>
        <time>2026-01-25T10:46:04Z</time>
      </trkpt>
      <trkpt lat="48.54925" lon="-2.82604">
        <ele>128.6</ele>
        <time>2026-01-25T10:46:05Z</time>
      </trkpt>
      <trkpt lat="48.54921" lon="-2.82602">
        <ele>128.6</ele>
        <time>2026-01-25T10:46:06Z</time>
      </trkpt>
      <trkpt lat="48.54916" lon="-2.82601">
        <ele>128.2</ele>
        <time>2026-01-25T10:46:07Z</time>
      </trkpt>
      <trkpt lat="48.54911" lon="-2.82599">
        <ele>128.2</ele>
        <time>2026-01-25T10:46:08Z</time>
      </trkpt>
      <trkpt lat="48.54906" lon="-2.82597">
        <ele>128.2</ele>
        <time>2026-01-25T10:46:09Z</time>
      </trkpt>
      <trkpt lat="48.54901" lon="-2.82595">
        <ele>128.2</ele>
        <time>2026-01-25T10:46:10Z</time>
      </trkpt>
      <trkpt lat="48.54896" lon="-2.82594">
        <ele>128</ele>
        <time>2026-01-25T10:46:11Z</time>
      </trkpt>
      <trkpt lat="48.54891" lon="-2.82591">
        <ele>128</ele>
        <time>2026-01-25T10:46:12Z</time>
      </trkpt>
      <trkpt lat="48.54886" lon="-2.82589">
        <ele>128</ele>
        <time>2026-01-25T10:46:13Z</time>
      </trkpt>
      <trkpt lat="48.54881" lon="-2.82587">
        <ele>128</ele>
        <time>2026-01-25T10:46:14Z</time>
      </trkpt>
      <trkpt lat="48.54876" lon="-2.82585">
        <ele>128.2</ele>
        <time>2026-01-25T10:46:15Z</time>
      </trkpt>
      <trkpt lat="48.5487" lon="-2.82583">
        <ele>128.2</ele>
        <time>2026-01-25T10:46:16Z</time>
      </trkpt>
      <trkpt lat="48.54865" lon="-2.82581">
        <ele>128.2</ele>
        <time>2026-01-25T10:46:17Z</time>
      </trkpt>
      <trkpt lat="48.5486" lon="-2.82579">
        <ele>127.6</ele>
        <time>2026-01-25T10:46:18Z</time>
      </trkpt>
      <trkpt lat="48.54854" lon="-2.82577">
        <ele>128.4</ele>
        <time>2026-01-25T10:46:19Z</time>
      </trkpt>
      <trkpt lat="48.54849" lon="-2.82575">
        <ele>128.4</ele>
        <time>2026-01-25T10:46:20Z</time>
      </trkpt>
      <trkpt lat="48.54843" lon="-2.82572">
        <ele>128.4</ele>
        <time>2026-01-25T10:46:21Z</time>
      </trkpt>
      <trkpt lat="48.54838" lon="-2.8257">
        <ele>128.4</ele>
        <time>2026-01-25T10:46:22Z</time>
      </trkpt>
      <trkpt lat="48.54832" lon="-2.82567">
        <ele>128</ele>
        <time>2026-01-25T10:46:23Z</time>
      </trkpt>
      <trkpt lat="48.54826" lon="-2.82566">
        <ele>128</ele>
        <time>2026-01-25T10:46:24Z</time>
      </trkpt>
      <trkpt lat="48.5482" lon="-2.82564">
        <ele>128</ele>
        <time>2026-01-25T10:46:25Z</time>
      </trkpt>
      <trkpt lat="48.54814" lon="-2.82562">
        <ele>127.8</ele>
        <time>2026-01-25T10:46:26Z</time>
      </trkpt>
      <trkpt lat="48.54808" lon="-2.8256">
        <ele>127.8</ele>
        <time>2026-01-25T10:46:27Z</time>
      </trkpt>
      <trkpt lat="48.54802" lon="-2.82558">
        <ele>127.8</ele>
        <time>2026-01-25T10:46:28Z</time>
      </trkpt>
      <trkpt lat="48.54796" lon="-2.82556">
        <ele>127.8</ele>
        <time>2026-01-25T10:46:29Z</time>
      </trkpt>
      <trkpt lat="48.5479" lon="-2.82554">
        <ele>127.2</ele>
        <time>2026-01-25T10:46:30Z</time>
      </trkpt>
      <trkpt lat="48.54784" lon="-2.82552">
        <ele>127.4</ele>
        <time>2026-01-25T10:46:31Z</time>
      </trkpt>
      <trkpt lat="48.54778" lon="-2.82549">
        <ele>127.4</ele>
        <time>2026-01-25T10:46:32Z</time>
      </trkpt>
      <trkpt lat="48.54772" lon="-2.82547">
        <ele>127.4</ele>
        <time>2026-01-25T10:46:33Z</time>
      </trkpt>
      <trkpt lat="48.54766" lon="-2.82545">
        <ele>127.4</ele>
        <time>2026-01-25T10:46:34Z</time>
      </trkpt>
      <trkpt lat="48.5476" lon="-2.82543">
        <ele>126.8</ele>
        <time>2026-01-25T10:46:35Z</time>
      </trkpt>
      <trkpt lat="48.54754" lon="-2.82541">
        <ele>126.8</ele>
        <time>2026-01-25T10:46:36Z</time>
      </trkpt>
      <trkpt lat="48.54748" lon="-2.82539">
        <ele>126.8</ele>
        <time>2026-01-25T10:46:37Z</time>
      </trkpt>
      <trkpt lat="48.54742" lon="-2.82537">
        <ele>126.8</ele>
        <time>2026-01-25T10:46:38Z</time>
      </trkpt>
      <trkpt lat="48.54736" lon="-2.82534">
        <ele>127.2</ele>
        <time>2026-01-25T10:46:39Z</time>
      </trkpt>
      <trkpt lat="48.54729" lon="-2.82532">
        <ele>127.2</ele>
        <time>2026-01-25T10:46:40Z</time>
      </trkpt>
      <trkpt lat="48.54723" lon="-2.8253">
        <ele>127.2</ele>
        <time>2026-01-25T10:46:41Z</time>
      </trkpt>
      <trkpt lat="48.54717" lon="-2.82528">
        <ele>126.6</ele>
        <time>2026-01-25T10:46:42Z</time>
      </trkpt>
      <trkpt lat="48.54711" lon="-2.82526">
        <ele>126</ele>
        <time>2026-01-25T10:46:43Z</time>
      </trkpt>
      <trkpt lat="48.54705" lon="-2.82524">
        <ele>126</ele>
        <time>2026-01-25T10:46:44Z</time>
      </trkpt>
      <trkpt lat="48.54699" lon="-2.82522">
        <ele>126</ele>
        <time>2026-01-25T10:46:45Z</time>
      </trkpt>
      <trkpt lat="48.54693" lon="-2.8252">
        <ele>126</ele>
        <time>2026-01-25T10:46:46Z</time>
      </trkpt>
      <trkpt lat="48.54687" lon="-2.82518">
        <ele>127</ele>
        <time>2026-01-25T10:46:47Z</time>
      </trkpt>
      <trkpt lat="48.54681" lon="-2.82516">
        <ele>127</ele>
        <time>2026-01-25T10:46:48Z</time>
      </trkpt>
      <trkpt lat="48.54675" lon="-2.82514">
        <ele>127</ele>
        <time>2026-01-25T10:46:49Z</time>
      </trkpt>
      <trkpt lat="48.5467" lon="-2.82512">
        <ele>127.8</ele>
        <time>2026-01-25T10:46:50Z</time>
      </trkpt>
      <trkpt lat="48.54664" lon="-2.82509">
        <ele>127.8</ele>
        <time>2026-01-25T10:46:51Z</time>
      </trkpt>
      <trkpt lat="48.54658" lon="-2.82507">
        <ele>127.8</ele>
        <time>2026-01-25T10:46:52Z</time>
      </trkpt>
      <trkpt lat="48.54653" lon="-2.82504">
        <ele>127.8</ele>
        <time>2026-01-25T10:46:53Z</time>
      </trkpt>
      <trkpt lat="48.54647" lon="-2.82502">
        <ele>128.4</ele>
        <time>2026-01-25T10:46:54Z</time>
      </trkpt>
      <trkpt lat="48.54642" lon="-2.825">
        <ele>129.2</ele>
        <time>2026-01-25T10:46:55Z</time>
      </trkpt>
      <trkpt lat="48.54636" lon="-2.82498">
        <ele>129.2</ele>
        <time>2026-01-25T10:46:56Z</time>
      </trkpt>
      <trkpt lat="48.54631" lon="-2.82496">
        <ele>129.2</ele>
        <time>2026-01-25T10:46:57Z</time>
      </trkpt>
      <trkpt lat="48.54626" lon="-2.82494">
        <ele>128.4</ele>
        <time>2026-01-25T10:46:58Z</time>
      </trkpt>
      <trkpt lat="48.54621" lon="-2.82491">
        <ele>129</ele>
        <time>2026-01-25T10:46:59Z</time>
      </trkpt>
      <trkpt lat="48.54616" lon="-2.82489">
        <ele>129</ele>
        <time>2026-01-25T10:47:00Z</time>
      </trkpt>
      <trkpt lat="48.54611" lon="-2.82486">
        <ele>129</ele>
        <time>2026-01-25T10:47:01Z</time>
      </trkpt>
      <trkpt lat="48.54606" lon="-2.82483">
        <ele>129.2</ele>
        <time>2026-01-25T10:47:02Z</time>
      </trkpt>
      <trkpt lat="48.54601" lon="-2.8248">
        <ele>129.8</ele>
        <time>2026-01-25T10:47:03Z</time>
      </trkpt>
      <trkpt lat="48.54596" lon="-2.82477">
        <ele>129.8</ele>
        <time>2026-01-25T10:47:04Z</time>
      </trkpt>
      <trkpt lat="48.54591" lon="-2.82473">
        <ele>129.8</ele>
        <time>2026-01-25T10:47:05Z</time>
      </trkpt>
      <trkpt lat="48.54586" lon="-2.82468">
        <ele>129.8</ele>
        <time>2026-01-25T10:47:06Z</time>
      </trkpt>
      <trkpt lat="48.54581" lon="-2.82464">
        <ele>129.4</ele>
        <time>2026-01-25T10:47:07Z</time>
      </trkpt>
      <trkpt lat="48.54576" lon="-2.82459">
        <ele>129.4</ele>
        <time>2026-01-25T10:47:08Z</time>
      </trkpt>
      <trkpt lat="48.54571" lon="-2.82455">
        <ele>129.4</ele>
        <time>2026-01-25T10:47:09Z</time>
      </trkpt>
      <trkpt lat="48.54566" lon="-2.8245">
        <ele>129.4</ele>
        <time>2026-01-25T10:47:10Z</time>
      </trkpt>
      <trkpt lat="48.54561" lon="-2.82446">
        <ele>130.8</ele>
        <time>2026-01-25T10:47:11Z</time>
      </trkpt>
      <trkpt lat="48.54556" lon="-2.82442">
        <ele>130.8</ele>
        <time>2026-01-25T10:47:12Z</time>
      </trkpt>
      <trkpt lat="48.54551" lon="-2.82438">
        <ele>130.8</ele>
        <time>2026-01-25T10:47:13Z</time>
      </trkpt>
      <trkpt lat="48.54547" lon="-2.82434">
        <ele>131.6</ele>
        <time>2026-01-25T10:47:14Z</time>
      </trkpt>
      <trkpt lat="48.54542" lon="-2.82429">
        <ele>131.8</ele>
        <time>2026-01-25T10:47:15Z</time>
      </trkpt>
      <trkpt lat="48.54537" lon="-2.82425">
        <ele>131.8</ele>
        <time>2026-01-25T10:47:16Z</time>
      </trkpt>
      <trkpt lat="48.54532" lon="-2.8242">
        <ele>131.8</ele>
        <time>2026-01-25T10:47:17Z</time>
      </trkpt>
      <trkpt lat="48.54527" lon="-2.82416">
        <ele>132.6</ele>
        <time>2026-01-25T10:47:18Z</time>
      </trkpt>
      <trkpt lat="48.54522" lon="-2.82411">
        <ele>132.6</ele>
        <time>2026-01-25T10:47:19Z</time>
      </trkpt>
      <trkpt lat="48.54517" lon="-2.82407">
        <ele>132.6</ele>
        <time>2026-01-25T10:47:20Z</time>
      </trkpt>
      <trkpt lat="48.54511" lon="-2.82403">
        <ele>132.6</ele>
        <time>2026-01-25T10:47:21Z</time>
      </trkpt>
      <trkpt lat="48.54505" lon="-2.82398">
        <ele>133.6</ele>
        <time>2026-01-25T10:47:22Z</time>
      </trkpt>
      <trkpt lat="48.545" lon="-2.82394">
        <ele>134</ele>
        <time>2026-01-25T10:47:23Z</time>
      </trkpt>
      <trkpt lat="48.54494" lon="-2.8239">
        <ele>134</ele>
        <time>2026-01-25T10:47:24Z</time>
      </trkpt>
      <trkpt lat="48.54489" lon="-2.82385">
        <ele>134</ele>
        <time>2026-01-25T10:47:25Z</time>
      </trkpt>
      <trkpt lat="48.54484" lon="-2.82381">
        <ele>134.4</ele>
        <time>2026-01-25T10:47:26Z</time>
      </trkpt>
      <trkpt lat="48.54479" lon="-2.82377">
        <ele>134</ele>
        <time>2026-01-25T10:47:27Z</time>
      </trkpt>
      <trkpt lat="48.54473" lon="-2.82373">
        <ele>134</ele>
        <time>2026-01-25T10:47:28Z</time>
      </trkpt>
      <trkpt lat="48.54468" lon="-2.82368">
        <ele>134</ele>
        <time>2026-01-25T10:47:29Z</time>
      </trkpt>
      <trkpt lat="48.54463" lon="-2.82364">
        <ele>133.4</ele>
        <time>2026-01-25T10:47:30Z</time>
      </trkpt>
      <trkpt lat="48.54457" lon="-2.8236">
        <ele>134</ele>
        <time>2026-01-25T10:47:31Z</time>
      </trkpt>
      <trkpt lat="48.54452" lon="-2.82355">
        <ele>134</ele>
        <time>2026-01-25T10:47:32Z</time>
      </trkpt>
      <trkpt lat="48.54446" lon="-2.8235">
        <ele>134</ele>
        <time>2026-01-25T10:47:33Z</time>
      </trkpt>
      <trkpt lat="48.54441" lon="-2.82344">
        <ele>133.6</ele>
        <time>2026-01-25T10:47:34Z</time>
      </trkpt>
      <trkpt lat="48.54435" lon="-2.82338">
        <ele>132.8</ele>
        <time>2026-01-25T10:47:35Z</time>
      </trkpt>
      <trkpt lat="48.5443" lon="-2.82331">
        <ele>132.8</ele>
        <time>2026-01-25T10:47:36Z</time>
      </trkpt>
      <trkpt lat="48.54425" lon="-2.82323">
        <ele>132.8</ele>
        <time>2026-01-25T10:47:37Z</time>
      </trkpt>
      <trkpt lat="48.54419" lon="-2.82314">
        <ele>131.8</ele>
        <time>2026-01-25T10:47:38Z</time>
      </trkpt>
      <trkpt lat="48.54414" lon="-2.82304">
        <ele>130</ele>
        <time>2026-01-25T10:47:39Z</time>
      </trkpt>
      <trkpt lat="48.54409" lon="-2.82294">
        <ele>130</ele>
        <time>2026-01-25T10:47:40Z</time>
      </trkpt>
      <trkpt lat="48.54403" lon="-2.82283">
        <ele>130</ele>
        <time>2026-01-25T10:47:41Z</time>
      </trkpt>
      <trkpt lat="48.54398" lon="-2.82271">
        <ele>129</ele>
        <time>2026-01-25T10:47:42Z</time>
      </trkpt>
      <trkpt lat="48.54392" lon="-2.82259">
        <ele>125.4</ele>
        <time>2026-01-25T10:47:43Z</time>
      </trkpt>
      <trkpt lat="48.54386" lon="-2.82247">
        <ele>125.4</ele>
        <time>2026-01-25T10:47:44Z</time>
      </trkpt>
      <trkpt lat="48.5438" lon="-2.82235">
        <ele>125.4</ele>
        <time>2026-01-25T10:47:45Z</time>
      </trkpt>
      <trkpt lat="48.54373" lon="-2.82224">
        <ele>124.4</ele>
        <time>2026-01-25T10:47:46Z</time>
      </trkpt>
      <trkpt lat="48.54367" lon="-2.82213">
        <ele>124</ele>
        <time>2026-01-25T10:47:47Z</time>
      </trkpt>
      <trkpt lat="48.54361" lon="-2.82202">
        <ele>124</ele>
        <time>2026-01-25T10:47:48Z</time>
      </trkpt>
      <trkpt lat="48.54354" lon="-2.82191">
        <ele>124</ele>
        <time>2026-01-25T10:47:49Z</time>
      </trkpt>
      <trkpt lat="48.54348" lon="-2.8218">
        <ele>124</ele>
        <time>2026-01-25T10:47:50Z</time>
      </trkpt>
      <trkpt lat="48.54342" lon="-2.82169">
        <ele>124</ele>
        <time>2026-01-25T10:47:51Z</time>
      </trkpt>
      <trkpt lat="48.54336" lon="-2.82157">
        <ele>124</ele>
        <time>2026-01-25T10:47:52Z</time>
      </trkpt>
      <trkpt lat="48.54331" lon="-2.82146">
        <ele>124</ele>
        <time>2026-01-25T10:47:53Z</time>
      </trkpt>
      <trkpt lat="48.54325" lon="-2.82135">
        <ele>123.2</ele>
        <time>2026-01-25T10:47:54Z</time>
      </trkpt>
      <trkpt lat="48.54319" lon="-2.82124">
        <ele>124</ele>
        <time>2026-01-25T10:47:55Z</time>
      </trkpt>
      <trkpt lat="48.54314" lon="-2.82113">
        <ele>124</ele>
        <time>2026-01-25T10:47:56Z</time>
      </trkpt>
      <trkpt lat="48.54308" lon="-2.82103">
        <ele>124</ele>
        <time>2026-01-25T10:47:57Z</time>
      </trkpt>
      <trkpt lat="48.54302" lon="-2.82092">
        <ele>124</ele>
        <time>2026-01-25T10:47:58Z</time>
      </trkpt>
      <trkpt lat="48.54296" lon="-2.82081">
        <ele>123.4</ele>
        <time>2026-01-25T10:47:59Z</time>
      </trkpt>
      <trkpt lat="48.54291" lon="-2.82071">
        <ele>123.4</ele>
        <time>2026-01-25T10:48:00Z</time>
      </trkpt>
      <trkpt lat="48.54285" lon="-2.82061">
        <ele>123.4</ele>
        <time>2026-01-25T10:48:01Z</time>
      </trkpt>
      <trkpt lat="48.54279" lon="-2.8205">
        <ele>123.4</ele>
        <time>2026-01-25T10:48:02Z</time>
      </trkpt>
      <trkpt lat="48.54274" lon="-2.8204">
        <ele>123.4</ele>
        <time>2026-01-25T10:48:03Z</time>
      </trkpt>
      <trkpt lat="48.54269" lon="-2.8203">
        <ele>123.4</ele>
        <time>2026-01-25T10:48:04Z</time>
      </trkpt>
      <trkpt lat="48.54263" lon="-2.8202">
        <ele>123.4</ele>
        <time>2026-01-25T10:48:05Z</time>
      </trkpt>
      <trkpt lat="48.54258" lon="-2.8201">
        <ele>123.8</ele>
        <time>2026-01-25T10:48:06Z</time>
      </trkpt>
      <trkpt lat="48.54253" lon="-2.82">
        <ele>124</ele>
        <time>2026-01-25T10:48:07Z</time>
      </trkpt>
      <trkpt lat="48.54248" lon="-2.8199">
        <ele>124</ele>
        <time>2026-01-25T10:48:08Z</time>
      </trkpt>
      <trkpt lat="48.54243" lon="-2.81981">
        <ele>124</ele>
        <time>2026-01-25T10:48:09Z</time>
      </trkpt>
      <trkpt lat="48.54239" lon="-2.81972">
        <ele>124.6</ele>
        <time>2026-01-25T10:48:10Z</time>
      </trkpt>
      <trkpt lat="48.54234" lon="-2.81963">
        <ele>124.8</ele>
        <time>2026-01-25T10:48:11Z</time>
      </trkpt>
      <trkpt lat="48.54229" lon="-2.81955">
        <ele>124.8</ele>
        <time>2026-01-25T10:48:12Z</time>
      </trkpt>
      <trkpt lat="48.54224" lon="-2.81947">
        <ele>124.8</ele>
        <time>2026-01-25T10:48:13Z</time>
      </trkpt>
      <trkpt lat="48.54219" lon="-2.81939">
        <ele>125.4</ele>
        <time>2026-01-25T10:48:14Z</time>
      </trkpt>
      <trkpt lat="48.54214" lon="-2.81932">
        <ele>125.6</ele>
        <time>2026-01-25T10:48:15Z</time>
      </trkpt>
      <trkpt lat="48.54209" lon="-2.81925">
        <ele>125.6</ele>
        <time>2026-01-25T10:48:16Z</time>
      </trkpt>
      <trkpt lat="48.54203" lon="-2.81918">
        <ele>125.6</ele>
        <time>2026-01-25T10:48:17Z</time>
      </trkpt>
      <trkpt lat="48.54198" lon="-2.81912">
        <ele>125.6</ele>
        <time>2026-01-25T10:48:18Z</time>
      </trkpt>
      <trkpt lat="48.54193" lon="-2.81905">
        <ele>126</ele>
        <time>2026-01-25T10:48:19Z</time>
      </trkpt>
      <trkpt lat="48.54188" lon="-2.81899">
        <ele>126</ele>
        <time>2026-01-25T10:48:20Z</time>
      </trkpt>
      <trkpt lat="48.54182" lon="-2.81893">
        <ele>126</ele>
        <time>2026-01-25T10:48:21Z</time>
      </trkpt>
      <trkpt lat="48.54177" lon="-2.81887">
        <ele>127</ele>
        <time>2026-01-25T10:48:22Z</time>
      </trkpt>
      <trkpt lat="48.54172" lon="-2.81881">
        <ele>126.4</ele>
        <time>2026-01-25T10:48:23Z</time>
      </trkpt>
      <trkpt lat="48.54166" lon="-2.81875">
        <ele>126.4</ele>
        <time>2026-01-25T10:48:24Z</time>
      </trkpt>
      <trkpt lat="48.54161" lon="-2.81869">
        <ele>126.4</ele>
        <time>2026-01-25T10:48:25Z</time>
      </trkpt>
      <trkpt lat="48.54156" lon="-2.81862">
        <ele>126.8</ele>
        <time>2026-01-25T10:48:26Z</time>
      </trkpt>
      <trkpt lat="48.54151" lon="-2.81856">
        <ele>126.8</ele>
        <time>2026-01-25T10:48:27Z</time>
      </trkpt>
      <trkpt lat="48.54146" lon="-2.8185">
        <ele>126.8</ele>
        <time>2026-01-25T10:48:28Z</time>
      </trkpt>
      <trkpt lat="48.54142" lon="-2.81846">
        <ele>126.8</ele>
        <time>2026-01-25T10:48:29Z</time>
      </trkpt>
      <trkpt lat="48.54138" lon="-2.81843">
        <ele>127.8</ele>
        <time>2026-01-25T10:48:30Z</time>
      </trkpt>
      <trkpt lat="48.54135" lon="-2.81841">
        <ele>128.4</ele>
        <time>2026-01-25T10:48:31Z</time>
      </trkpt>
      <trkpt lat="48.54133" lon="-2.81838">
        <ele>128.4</ele>
        <time>2026-01-25T10:48:32Z</time>
      </trkpt>
      <trkpt lat="48.54131" lon="-2.81834">
        <ele>128.4</ele>
        <time>2026-01-25T10:48:33Z</time>
      </trkpt>
      <trkpt lat="48.5413" lon="-2.81828">
        <ele>128.6</ele>
        <time>2026-01-25T10:48:34Z</time>
      </trkpt>
      <trkpt lat="48.5413" lon="-2.81821">
        <ele>127.8</ele>
        <time>2026-01-25T10:48:35Z</time>
      </trkpt>
      <trkpt lat="48.5413" lon="-2.81814">
        <ele>127.8</ele>
        <time>2026-01-25T10:48:36Z</time>
      </trkpt>
      <trkpt lat="48.5413" lon="-2.81806">
        <ele>127.8</ele>
        <time>2026-01-25T10:48:37Z</time>
      </trkpt>
      <trkpt lat="48.5413" lon="-2.81799">
        <ele>128</ele>
        <time>2026-01-25T10:48:38Z</time>
      </trkpt>
      <trkpt lat="48.54129" lon="-2.8179">
        <ele>128</ele>
        <time>2026-01-25T10:48:39Z</time>
      </trkpt>
      <trkpt lat="48.54129" lon="-2.81782">
        <ele>128</ele>
        <time>2026-01-25T10:48:40Z</time>
      </trkpt>
      <trkpt lat="48.54129" lon="-2.81774">
        <ele>128</ele>
        <time>2026-01-25T10:48:41Z</time>
      </trkpt>
      <trkpt lat="48.54128" lon="-2.81765">
        <ele>128</ele>
        <time>2026-01-25T10:48:42Z</time>
      </trkpt>
      <trkpt lat="48.54128" lon="-2.81757">
        <ele>127.2</ele>
        <time>2026-01-25T10:48:43Z</time>
      </trkpt>
      <trkpt lat="48.54128" lon="-2.81748">
        <ele>127.2</ele>
        <time>2026-01-25T10:48:44Z</time>
      </trkpt>
      <trkpt lat="48.54127" lon="-2.81739">
        <ele>127.2</ele>
        <time>2026-01-25T10:48:45Z</time>
      </trkpt>
      <trkpt lat="48.54127" lon="-2.8173">
        <ele>127.8</ele>
        <time>2026-01-25T10:48:46Z</time>
      </trkpt>
      <trkpt lat="48.54127" lon="-2.81721">
        <ele>127.6</ele>
        <time>2026-01-25T10:48:47Z</time>
      </trkpt>
      <trkpt lat="48.54126" lon="-2.81711">
        <ele>127.6</ele>
        <time>2026-01-25T10:48:48Z</time>
      </trkpt>
      <trkpt lat="48.54126" lon="-2.81702">
        <ele>127.6</ele>
        <time>2026-01-25T10:48:49Z</time>
      </trkpt>
      <trkpt lat="48.54126" lon="-2.81692">
        <ele>127.6</ele>
        <time>2026-01-25T10:48:50Z</time>
      </trkpt>
      <trkpt lat="48.54125" lon="-2.81683">
        <ele>126.8</ele>
        <time>2026-01-25T10:48:51Z</time>
      </trkpt>
      <trkpt lat="48.54125" lon="-2.81673">
        <ele>126.8</ele>
        <time>2026-01-25T10:48:52Z</time>
      </trkpt>
      <trkpt lat="48.54125" lon="-2.81664">
        <ele>126.8</ele>
        <time>2026-01-25T10:48:53Z</time>
      </trkpt>
      <trkpt lat="48.54124" lon="-2.81654">
        <ele>127.2</ele>
        <time>2026-01-25T10:48:54Z</time>
      </trkpt>
      <trkpt lat="48.54124" lon="-2.81644">
        <ele>127.2</ele>
        <time>2026-01-25T10:48:55Z</time>
      </trkpt>
      <trkpt lat="48.54124" lon="-2.81634">
        <ele>127.2</ele>
        <time>2026-01-25T10:48:56Z</time>
      </trkpt>
      <trkpt lat="48.54123" lon="-2.81624">
        <ele>127.2</ele>
        <time>2026-01-25T10:48:57Z</time>
      </trkpt>
      <trkpt lat="48.54123" lon="-2.81615">
        <ele>127.2</ele>
        <time>2026-01-25T10:48:58Z</time>
      </trkpt>
      <trkpt lat="48.54123" lon="-2.81605">
        <ele>127.4</ele>
        <time>2026-01-25T10:48:59Z</time>
      </trkpt>
      <trkpt lat="48.54122" lon="-2.81595">
        <ele>127.4</ele>
        <time>2026-01-25T10:49:00Z</time>
      </trkpt>
      <trkpt lat="48.54122" lon="-2.81586">
        <ele>127.4</ele>
        <time>2026-01-25T10:49:01Z</time>
      </trkpt>
      <trkpt lat="48.54121" lon="-2.81576">
        <ele>127.4</ele>
        <time>2026-01-25T10:49:02Z</time>
      </trkpt>
      <trkpt lat="48.54121" lon="-2.81567">
        <ele>128.4</ele>
        <time>2026-01-25T10:49:03Z</time>
      </trkpt>
      <trkpt lat="48.54121" lon="-2.81557">
        <ele>128.4</ele>
        <time>2026-01-25T10:49:04Z</time>
      </trkpt>
      <trkpt lat="48.54121" lon="-2.81548">
        <ele>128.4</ele>
        <time>2026-01-25T10:49:05Z</time>
      </trkpt>
      <trkpt lat="48.5412" lon="-2.81539">
        <ele>128.4</ele>
        <time>2026-01-25T10:49:06Z</time>
      </trkpt>
      <trkpt lat="48.5412" lon="-2.8153">
        <ele>129.2</ele>
        <time>2026-01-25T10:49:07Z</time>
      </trkpt>
      <trkpt lat="48.5412" lon="-2.81522">
        <ele>129.2</ele>
        <time>2026-01-25T10:49:08Z</time>
      </trkpt>
      <trkpt lat="48.54119" lon="-2.81513">
        <ele>129.2</ele>
        <time>2026-01-25T10:49:09Z</time>
      </trkpt>
      <trkpt lat="48.54119" lon="-2.81504">
        <ele>129.2</ele>
        <time>2026-01-25T10:49:10Z</time>
      </trkpt>
      <trkpt lat="48.54119" lon="-2.81495">
        <ele>130.4</ele>
        <time>2026-01-25T10:49:11Z</time>
      </trkpt>
      <trkpt lat="48.54118" lon="-2.81487">
        <ele>130.4</ele>
        <time>2026-01-25T10:49:12Z</time>
      </trkpt>
      <trkpt lat="48.54118" lon="-2.81478">
        <ele>130.4</ele>
        <time>2026-01-25T10:49:13Z</time>
      </trkpt>
      <trkpt lat="48.54117" lon="-2.81469">
        <ele>130.4</ele>
        <time>2026-01-25T10:49:14Z</time>
      </trkpt>
      <trkpt lat="48.54117" lon="-2.81461">
        <ele>130.6</ele>
        <time>2026-01-25T10:49:15Z</time>
      </trkpt>
      <trkpt lat="48.54116" lon="-2.81452">
        <ele>130.6</ele>
        <time>2026-01-25T10:49:16Z</time>
      </trkpt>
      <trkpt lat="48.54115" lon="-2.81443">
        <ele>130.6</ele>
        <time>2026-01-25T10:49:17Z</time>
      </trkpt>
      <trkpt lat="48.54115" lon="-2.81434">
        <ele>129.8</ele>
        <time>2026-01-25T10:49:18Z</time>
      </trkpt>
      <trkpt lat="48.54114" lon="-2.81425">
        <ele>129.2</ele>
        <time>2026-01-25T10:49:19Z</time>
      </trkpt>
      <trkpt lat="48.54113" lon="-2.81416">
        <ele>129.2</ele>
        <time>2026-01-25T10:49:20Z</time>
      </trkpt>
      <trkpt lat="48.54113" lon="-2.81407">
        <ele>129.2</ele>
        <time>2026-01-25T10:49:21Z</time>
      </trkpt>
      <trkpt lat="48.54112" lon="-2.81397">
        <ele>129.8</ele>
        <time>2026-01-25T10:49:22Z</time>
      </trkpt>
      <trkpt lat="48.54111" lon="-2.81388">
        <ele>130.6</ele>
        <time>2026-01-25T10:49:23Z</time>
      </trkpt>
      <trkpt lat="48.54111" lon="-2.81379">
        <ele>130.6</ele>
        <time>2026-01-25T10:49:24Z</time>
      </trkpt>
      <trkpt lat="48.5411" lon="-2.8137">
        <ele>130.6</ele>
        <time>2026-01-25T10:49:25Z</time>
      </trkpt>
      <trkpt lat="48.54109" lon="-2.8136">
        <ele>130.2</ele>
        <time>2026-01-25T10:49:26Z</time>
      </trkpt>
      <trkpt lat="48.54109" lon="-2.81351">
        <ele>131.2</ele>
        <time>2026-01-25T10:49:27Z</time>
      </trkpt>
      <trkpt lat="48.54108" lon="-2.81341">
        <ele>131.2</ele>
        <time>2026-01-25T10:49:28Z</time>
      </trkpt>
      <trkpt lat="48.54108" lon="-2.81332">
        <ele>131.2</ele>
        <time>2026-01-25T10:49:29Z</time>
      </trkpt>
      <trkpt lat="48.54108" lon="-2.81323">
        <ele>130.4</ele>
        <time>2026-01-25T10:49:30Z</time>
      </trkpt>
      <trkpt lat="48.54108" lon="-2.81313">
        <ele>130.6</ele>
        <time>2026-01-25T10:49:31Z</time>
      </trkpt>
      <trkpt lat="48.54107" lon="-2.81303">
        <ele>130.6</ele>
        <time>2026-01-25T10:49:32Z</time>
      </trkpt>
      <trkpt lat="48.54107" lon="-2.81294">
        <ele>130.6</ele>
        <time>2026-01-25T10:49:33Z</time>
      </trkpt>
      <trkpt lat="48.54107" lon="-2.81284">
        <ele>129.6</ele>
        <time>2026-01-25T10:49:34Z</time>
      </trkpt>
      <trkpt lat="48.54107" lon="-2.81274">
        <ele>130</ele>
        <time>2026-01-25T10:49:35Z</time>
      </trkpt>
      <trkpt lat="48.54106" lon="-2.81264">
        <ele>130</ele>
        <time>2026-01-25T10:49:36Z</time>
      </trkpt>
      <trkpt lat="48.54106" lon="-2.81254">
        <ele>130</ele>
        <time>2026-01-25T10:49:37Z</time>
      </trkpt>
      <trkpt lat="48.54106" lon="-2.81244">
        <ele>130</ele>
        <time>2026-01-25T10:49:38Z</time>
      </trkpt>
      <trkpt lat="48.54106" lon="-2.81233">
        <ele>129.4</ele>
        <time>2026-01-25T10:49:39Z</time>
      </trkpt>
      <trkpt lat="48.54106" lon="-2.81223">
        <ele>129.4</ele>
        <time>2026-01-25T10:49:40Z</time>
      </trkpt>
      <trkpt lat="48.54105" lon="-2.81213">
        <ele>129.4</ele>
        <time>2026-01-25T10:49:41Z</time>
      </trkpt>
      <trkpt lat="48.54105" lon="-2.81203">
        <ele>129.6</ele>
        <time>2026-01-25T10:49:42Z</time>
      </trkpt>
      <trkpt lat="48.54105" lon="-2.81193">
        <ele>130.4</ele>
        <time>2026-01-25T10:49:43Z</time>
      </trkpt>
      <trkpt lat="48.54105" lon="-2.81183">
        <ele>130.4</ele>
        <time>2026-01-25T10:49:44Z</time>
      </trkpt>
      <trkpt lat="48.54105" lon="-2.81173">
        <ele>130.4</ele>
        <time>2026-01-25T10:49:45Z</time>
      </trkpt>
      <trkpt lat="48.54105" lon="-2.81163">
        <ele>130.4</ele>
        <time>2026-01-25T10:49:46Z</time>
      </trkpt>
      <trkpt lat="48.54105" lon="-2.81153">
        <ele>131.2</ele>
        <time>2026-01-25T10:49:47Z</time>
      </trkpt>
      <trkpt lat="48.54104" lon="-2.81143">
        <ele>131.2</ele>
        <time>2026-01-25T10:49:48Z</time>
      </trkpt>
      <trkpt lat="48.54104" lon="-2.81133">
        <ele>131.2</ele>
        <time>2026-01-25T10:49:49Z</time>
      </trkpt>
      <trkpt lat="48.54104" lon="-2.81123">
        <ele>130.6</ele>
        <time>2026-01-25T10:49:50Z</time>
      </trkpt>
      <trkpt lat="48.54103" lon="-2.81113">
        <ele>130.8</ele>
        <time>2026-01-25T10:49:51Z</time>
      </trkpt>
      <trkpt lat="48.54103" lon="-2.81102">
        <ele>130.8</ele>
        <time>2026-01-25T10:49:52Z</time>
      </trkpt>
      <trkpt lat="48.54102" lon="-2.81091">
        <ele>130.8</ele>
        <time>2026-01-25T10:49:53Z</time>
      </trkpt>
      <trkpt lat="48.54102" lon="-2.81081">
        <ele>130.8</ele>
        <time>2026-01-25T10:49:54Z</time>
      </trkpt>
      <trkpt lat="48.54101" lon="-2.8107">
        <ele>129.8</ele>
        <time>2026-01-25T10:49:55Z</time>
      </trkpt>
      <trkpt lat="48.54101" lon="-2.81058">
        <ele>129.8</ele>
        <time>2026-01-25T10:49:56Z</time>
      </trkpt>
      <trkpt lat="48.541" lon="-2.81047">
        <ele>129.8</ele>
        <time>2026-01-25T10:49:57Z</time>
      </trkpt>
      <trkpt lat="48.54099" lon="-2.81036">
        <ele>129.8</ele>
        <time>2026-01-25T10:49:58Z</time>
      </trkpt>
      <trkpt lat="48.54098" lon="-2.81024">
        <ele>129.2</ele>
        <time>2026-01-25T10:49:59Z</time>
      </trkpt>
      <trkpt lat="48.54097" lon="-2.81013">
        <ele>129.2</ele>
        <time>2026-01-25T10:50:00Z</time>
      </trkpt>
      <trkpt lat="48.54096" lon="-2.81001">
        <ele>129.2</ele>
        <time>2026-01-25T10:50:01Z</time>
      </trkpt>
      <trkpt lat="48.54095" lon="-2.8099">
        <ele>129.2</ele>
        <time>2026-01-25T10:50:02Z</time>
      </trkpt>
      <trkpt lat="48.54094" lon="-2.80978">
        <ele>129</ele>
        <time>2026-01-25T10:50:03Z</time>
      </trkpt>
      <trkpt lat="48.54092" lon="-2.80967">
        <ele>129</ele>
        <time>2026-01-25T10:50:04Z</time>
      </trkpt>
      <trkpt lat="48.54091" lon="-2.80956">
        <ele>129</ele>
        <time>2026-01-25T10:50:05Z</time>
      </trkpt>
      <trkpt lat="48.54089" lon="-2.80944">
        <ele>128.4</ele>
        <time>2026-01-25T10:50:06Z</time>
      </trkpt>
      <trkpt lat="48.54088" lon="-2.80933">
        <ele>127.6</ele>
        <time>2026-01-25T10:50:07Z</time>
      </trkpt>
      <trkpt lat="48.54087" lon="-2.80922">
        <ele>127.6</ele>
        <time>2026-01-25T10:50:08Z</time>
      </trkpt>
      <trkpt lat="48.54086" lon="-2.80911">
        <ele>127.6</ele>
        <time>2026-01-25T10:50:09Z</time>
      </trkpt>
      <trkpt lat="48.54085" lon="-2.80899">
        <ele>127.8</ele>
        <time>2026-01-25T10:50:10Z</time>
      </trkpt>
      <trkpt lat="48.54083" lon="-2.80888">
        <ele>128.6</ele>
        <time>2026-01-25T10:50:11Z</time>
      </trkpt>
      <trkpt lat="48.54082" lon="-2.80877">
        <ele>128.6</ele>
        <time>2026-01-25T10:50:12Z</time>
      </trkpt>
      <trkpt lat="48.54081" lon="-2.80866">
        <ele>128.6</ele>
        <time>2026-01-25T10:50:13Z</time>
      </trkpt>
      <trkpt lat="48.5408" lon="-2.80854">
        <ele>128</ele>
        <time>2026-01-25T10:50:14Z</time>
      </trkpt>
      <trkpt lat="48.54078" lon="-2.80843">
        <ele>128.4</ele>
        <time>2026-01-25T10:50:15Z</time>
      </trkpt>
      <trkpt lat="48.54077" lon="-2.80832">
        <ele>128.4</ele>
        <time>2026-01-25T10:50:16Z</time>
      </trkpt>
      <trkpt lat="48.54075" lon="-2.8082">
        <ele>128.4</ele>
        <time>2026-01-25T10:50:17Z</time>
      </trkpt>
      <trkpt lat="48.54074" lon="-2.80809">
        <ele>127.8</ele>
        <time>2026-01-25T10:50:18Z</time>
      </trkpt>
      <trkpt lat="48.54073" lon="-2.80797">
        <ele>128</ele>
        <time>2026-01-25T10:50:19Z</time>
      </trkpt>
      <trkpt lat="48.54072" lon="-2.80786">
        <ele>128</ele>
        <time>2026-01-25T10:50:20Z</time>
      </trkpt>
      <trkpt lat="48.54071" lon="-2.80775">
        <ele>128</ele>
        <time>2026-01-25T10:50:21Z</time>
      </trkpt>
      <trkpt lat="48.5407" lon="-2.80763">
        <ele>128</ele>
        <time>2026-01-25T10:50:22Z</time>
      </trkpt>
      <trkpt lat="48.54069" lon="-2.80752">
        <ele>128.4</ele>
        <time>2026-01-25T10:50:23Z</time>
      </trkpt>
      <trkpt lat="48.54068" lon="-2.80741">
        <ele>128.4</ele>
        <time>2026-01-25T10:50:24Z</time>
      </trkpt>
      <trkpt lat="48.54067" lon="-2.80729">
        <ele>128.4</ele>
        <time>2026-01-25T10:50:25Z</time>
      </trkpt>
      <trkpt lat="48.54065" lon="-2.80718">
        <ele>128</ele>
        <time>2026-01-25T10:50:26Z</time>
      </trkpt>
      <trkpt lat="48.54064" lon="-2.80707">
        <ele>128.2</ele>
        <time>2026-01-25T10:50:27Z</time>
      </trkpt>
      <trkpt lat="48.54063" lon="-2.80696">
        <ele>128.2</ele>
        <time>2026-01-25T10:50:28Z</time>
      </trkpt>
      <trkpt lat="48.54061" lon="-2.80685">
        <ele>128.2</ele>
        <time>2026-01-25T10:50:29Z</time>
      </trkpt>
      <trkpt lat="48.5406" lon="-2.80674">
        <ele>127.4</ele>
        <time>2026-01-25T10:50:30Z</time>
      </trkpt>
      <trkpt lat="48.54059" lon="-2.80662">
        <ele>126.8</ele>
        <time>2026-01-25T10:50:31Z</time>
      </trkpt>
      <trkpt lat="48.54057" lon="-2.80651">
        <ele>126.8</ele>
        <time>2026-01-25T10:50:32Z</time>
      </trkpt>
      <trkpt lat="48.54056" lon="-2.8064">
        <ele>126.8</ele>
        <time>2026-01-25T10:50:33Z</time>
      </trkpt>
      <trkpt lat="48.54054" lon="-2.80628">
        <ele>126.8</ele>
        <time>2026-01-25T10:50:34Z</time>
      </trkpt>
      <trkpt lat="48.54053" lon="-2.80616">
        <ele>126.8</ele>
        <time>2026-01-25T10:50:35Z</time>
      </trkpt>
      <trkpt lat="48.54052" lon="-2.80604">
        <ele>126.8</ele>
        <time>2026-01-25T10:50:36Z</time>
      </trkpt>
      <trkpt lat="48.5405" lon="-2.80593">
        <ele>126.8</ele>
        <time>2026-01-25T10:50:37Z</time>
      </trkpt>
      <trkpt lat="48.54049" lon="-2.80581">
        <ele>125.8</ele>
        <time>2026-01-25T10:50:38Z</time>
      </trkpt>
      <trkpt lat="48.54048" lon="-2.80569">
        <ele>126.2</ele>
        <time>2026-01-25T10:50:39Z</time>
      </trkpt>
      <trkpt lat="48.54047" lon="-2.80557">
        <ele>126.2</ele>
        <time>2026-01-25T10:50:40Z</time>
      </trkpt>
      <trkpt lat="48.54046" lon="-2.80545">
        <ele>126.2</ele>
        <time>2026-01-25T10:50:41Z</time>
      </trkpt>
      <trkpt lat="48.54044" lon="-2.80534">
        <ele>125.4</ele>
        <time>2026-01-25T10:50:42Z</time>
      </trkpt>
      <trkpt lat="48.54043" lon="-2.80522">
        <ele>125</ele>
        <time>2026-01-25T10:50:43Z</time>
      </trkpt>
      <trkpt lat="48.54041" lon="-2.8051">
        <ele>125</ele>
        <time>2026-01-25T10:50:44Z</time>
      </trkpt>
      <trkpt lat="48.5404" lon="-2.80498">
        <ele>125</ele>
        <time>2026-01-25T10:50:45Z</time>
      </trkpt>
      <trkpt lat="48.54039" lon="-2.80486">
        <ele>124.4</ele>
        <time>2026-01-25T10:50:46Z</time>
      </trkpt>
      <trkpt lat="48.54038" lon="-2.80474">
        <ele>124.8</ele>
        <time>2026-01-25T10:50:47Z</time>
      </trkpt>
      <trkpt lat="48.54036" lon="-2.80462">
        <ele>124.8</ele>
        <time>2026-01-25T10:50:48Z</time>
      </trkpt>
      <trkpt lat="48.54035" lon="-2.80451">
        <ele>124.8</ele>
        <time>2026-01-25T10:50:49Z</time>
      </trkpt>
      <trkpt lat="48.54034" lon="-2.80439">
        <ele>124.4</ele>
        <time>2026-01-25T10:50:50Z</time>
      </trkpt>
      <trkpt lat="48.54032" lon="-2.80427">
        <ele>124.6</ele>
        <time>2026-01-25T10:50:51Z</time>
      </trkpt>
      <trkpt lat="48.54031" lon="-2.80415">
        <ele>124.6</ele>
        <time>2026-01-25T10:50:52Z</time>
      </trkpt>
      <trkpt lat="48.54029" lon="-2.80403">
        <ele>124.6</ele>
        <time>2026-01-25T10:50:53Z</time>
      </trkpt>
      <trkpt lat="48.54028" lon="-2.80392">
        <ele>124.2</ele>
        <time>2026-01-25T10:50:54Z</time>
      </trkpt>
      <trkpt lat="48.54026" lon="-2.8038">
        <ele>124.4</ele>
        <time>2026-01-25T10:50:55Z</time>
      </trkpt>
      <trkpt lat="48.54025" lon="-2.80368">
        <ele>124.4</ele>
        <time>2026-01-25T10:50:56Z</time>
      </trkpt>
      <trkpt lat="48.54024" lon="-2.80356">
        <ele>124.4</ele>
        <time>2026-01-25T10:50:57Z</time>
      </trkpt>
      <trkpt lat="48.54022" lon="-2.80344">
        <ele>123.6</ele>
        <time>2026-01-25T10:50:58Z</time>
      </trkpt>
      <trkpt lat="48.54021" lon="-2.80332">
        <ele>123.6</ele>
        <time>2026-01-25T10:50:59Z</time>
      </trkpt>
      <trkpt lat="48.54019" lon="-2.8032">
        <ele>123.6</ele>
        <time>2026-01-25T10:51:00Z</time>
      </trkpt>
      <trkpt lat="48.54016" lon="-2.80308">
        <ele>123.6</ele>
        <time>2026-01-25T10:51:01Z</time>
      </trkpt>
      <trkpt lat="48.54014" lon="-2.80296">
        <ele>122.8</ele>
        <time>2026-01-25T10:51:02Z</time>
      </trkpt>
      <trkpt lat="48.54011" lon="-2.80284">
        <ele>123</ele>
        <time>2026-01-25T10:51:03Z</time>
      </trkpt>
      <trkpt lat="48.54008" lon="-2.80273">
        <ele>123</ele>
        <time>2026-01-25T10:51:04Z</time>
      </trkpt>
      <trkpt lat="48.54006" lon="-2.80261">
        <ele>123</ele>
        <time>2026-01-25T10:51:05Z</time>
      </trkpt>
      <trkpt lat="48.54003" lon="-2.8025">
        <ele>122</ele>
        <time>2026-01-25T10:51:06Z</time>
      </trkpt>
      <trkpt lat="48.54" lon="-2.80238">
        <ele>121.8</ele>
        <time>2026-01-25T10:51:07Z</time>
      </trkpt>
      <trkpt lat="48.53997" lon="-2.80227">
        <ele>121.8</ele>
        <time>2026-01-25T10:51:08Z</time>
      </trkpt>
      <trkpt lat="48.53995" lon="-2.80215">
        <ele>121.8</ele>
        <time>2026-01-25T10:51:09Z</time>
      </trkpt>
      <trkpt lat="48.53992" lon="-2.80204">
        <ele>120.8</ele>
        <time>2026-01-25T10:51:10Z</time>
      </trkpt>
      <trkpt lat="48.53989" lon="-2.80192">
        <ele>121</ele>
        <time>2026-01-25T10:51:11Z</time>
      </trkpt>
      <trkpt lat="48.53986" lon="-2.80181">
        <ele>121</ele>
        <time>2026-01-25T10:51:12Z</time>
      </trkpt>
      <trkpt lat="48.53983" lon="-2.80169">
        <ele>121</ele>
        <time>2026-01-25T10:51:13Z</time>
      </trkpt>
      <trkpt lat="48.53981" lon="-2.80157">
        <ele>120</ele>
        <time>2026-01-25T10:51:14Z</time>
      </trkpt>
      <trkpt lat="48.53978" lon="-2.80145">
        <ele>117.8</ele>
        <time>2026-01-25T10:51:15Z</time>
      </trkpt>
      <trkpt lat="48.53975" lon="-2.80132">
        <ele>117.8</ele>
        <time>2026-01-25T10:51:16Z</time>
      </trkpt>
      <trkpt lat="48.53972" lon="-2.8012">
        <ele>117.8</ele>
        <time>2026-01-25T10:51:17Z</time>
      </trkpt>
      <trkpt lat="48.53969" lon="-2.80107">
        <ele>116.8</ele>
        <time>2026-01-25T10:51:18Z</time>
      </trkpt>
      <trkpt lat="48.53966" lon="-2.80095">
        <ele>115.4</ele>
        <time>2026-01-25T10:51:19Z</time>
      </trkpt>
      <trkpt lat="48.53962" lon="-2.80082">
        <ele>115.4</ele>
        <time>2026-01-25T10:51:20Z</time>
      </trkpt>
      <trkpt lat="48.53959" lon="-2.80069">
        <ele>115.4</ele>
        <time>2026-01-25T10:51:21Z</time>
      </trkpt>
      <trkpt lat="48.53956" lon="-2.80057">
        <ele>114.4</ele>
        <time>2026-01-25T10:51:22Z</time>
      </trkpt>
      <trkpt lat="48.53952" lon="-2.80044">
        <ele>113</ele>
        <time>2026-01-25T10:51:23Z</time>
      </trkpt>
      <trkpt lat="48.53948" lon="-2.80032">
        <ele>113</ele>
        <time>2026-01-25T10:51:24Z</time>
      </trkpt>
      <trkpt lat="48.53943" lon="-2.8002">
        <ele>113</ele>
        <time>2026-01-25T10:51:25Z</time>
      </trkpt>
      <trkpt lat="48.53938" lon="-2.80008">
        <ele>112</ele>
        <time>2026-01-25T10:51:26Z</time>
      </trkpt>
      <trkpt lat="48.53933" lon="-2.79996">
        <ele>111.4</ele>
        <time>2026-01-25T10:51:27Z</time>
      </trkpt>
      <trkpt lat="48.53928" lon="-2.79984">
        <ele>111.4</ele>
        <time>2026-01-25T10:51:28Z</time>
      </trkpt>
      <trkpt lat="48.53923" lon="-2.79972">
        <ele>111.4</ele>
        <time>2026-01-25T10:51:29Z</time>
      </trkpt>
      <trkpt lat="48.53917" lon="-2.7996">
        <ele>110.4</ele>
        <time>2026-01-25T10:51:30Z</time>
      </trkpt>
      <trkpt lat="48.53912" lon="-2.79948">
        <ele>108.2</ele>
        <time>2026-01-25T10:51:31Z</time>
      </trkpt>
      <trkpt lat="48.53906" lon="-2.79936">
        <ele>108.2</ele>
        <time>2026-01-25T10:51:32Z</time>
      </trkpt>
      <trkpt lat="48.539" lon="-2.79924">
        <ele>108.2</ele>
        <time>2026-01-25T10:51:33Z</time>
      </trkpt>
      <trkpt lat="48.53893" lon="-2.79913">
        <ele>107.2</ele>
        <time>2026-01-25T10:51:34Z</time>
      </trkpt>
      <trkpt lat="48.53886" lon="-2.79901">
        <ele>106</ele>
        <time>2026-01-25T10:51:35Z</time>
      </trkpt>
      <trkpt lat="48.53879" lon="-2.7989">
        <ele>106</ele>
        <time>2026-01-25T10:51:36Z</time>
      </trkpt>
      <trkpt lat="48.53872" lon="-2.79878">
        <ele>106</ele>
        <time>2026-01-25T10:51:37Z</time>
      </trkpt>
      <trkpt lat="48.53864" lon="-2.79867">
        <ele>105</ele>
        <time>2026-01-25T10:51:38Z</time>
      </trkpt>
      <trkpt lat="48.53857" lon="-2.79856">
        <ele>104.2</ele>
        <time>2026-01-25T10:51:39Z</time>
      </trkpt>
      <trkpt lat="48.5385" lon="-2.79845">
        <ele>104.2</ele>
        <time>2026-01-25T10:51:40Z</time>
      </trkpt>
      <trkpt lat="48.53842" lon="-2.79835">
        <ele>104.2</ele>
        <time>2026-01-25T10:51:41Z</time>
      </trkpt>
      <trkpt lat="48.53834" lon="-2.79825">
        <ele>103.2</ele>
        <time>2026-01-25T10:51:42Z</time>
      </trkpt>
      <trkpt lat="48.53827" lon="-2.79815">
        <ele>102.2</ele>
        <time>2026-01-25T10:51:43Z</time>
      </trkpt>
      <trkpt lat="48.53819" lon="-2.79805">
        <ele>102.2</ele>
        <time>2026-01-25T10:51:44Z</time>
      </trkpt>
      <trkpt lat="48.53811" lon="-2.79795">
        <ele>102.2</ele>
        <time>2026-01-25T10:51:45Z</time>
      </trkpt>
      <trkpt lat="48.53804" lon="-2.79785">
        <ele>101.2</ele>
        <time>2026-01-25T10:51:46Z</time>
      </trkpt>
      <trkpt lat="48.53796" lon="-2.79774">
        <ele>99.6</ele>
        <time>2026-01-25T10:51:47Z</time>
      </trkpt>
      <trkpt lat="48.53788" lon="-2.79764">
        <ele>99.6</ele>
        <time>2026-01-25T10:51:48Z</time>
      </trkpt>
      <trkpt lat="48.53781" lon="-2.79754">
        <ele>99.6</ele>
        <time>2026-01-25T10:51:49Z</time>
      </trkpt>
      <trkpt lat="48.53773" lon="-2.79743">
        <ele>98.6</ele>
        <time>2026-01-25T10:51:50Z</time>
      </trkpt>
      <trkpt lat="48.53765" lon="-2.79733">
        <ele>97.2</ele>
        <time>2026-01-25T10:51:51Z</time>
      </trkpt>
      <trkpt lat="48.53757" lon="-2.79722">
        <ele>97.2</ele>
        <time>2026-01-25T10:51:52Z</time>
      </trkpt>
      <trkpt lat="48.53749" lon="-2.79711">
        <ele>97.2</ele>
        <time>2026-01-25T10:51:53Z</time>
      </trkpt>
      <trkpt lat="48.53741" lon="-2.797">
        <ele>96.2</ele>
        <time>2026-01-25T10:51:54Z</time>
      </trkpt>
      <trkpt lat="48.53734" lon="-2.79689">
        <ele>94.8</ele>
        <time>2026-01-25T10:51:55Z</time>
      </trkpt>
      <trkpt lat="48.53726" lon="-2.79677">
        <ele>94.8</ele>
        <time>2026-01-25T10:51:56Z</time>
      </trkpt>
      <trkpt lat="48.53719" lon="-2.79665">
        <ele>94.8</ele>
        <time>2026-01-25T10:51:57Z</time>
      </trkpt>
      <trkpt lat="48.53712" lon="-2.79652">
        <ele>93.8</ele>
        <time>2026-01-25T10:51:58Z</time>
      </trkpt>
      <trkpt lat="48.53707" lon="-2.79638">
        <ele>93.2</ele>
        <time>2026-01-25T10:51:59Z</time>
      </trkpt>
      <trkpt lat="48.53702" lon="-2.79624">
        <ele>93.2</ele>
        <time>2026-01-25T10:52:00Z</time>
      </trkpt>
      <trkpt lat="48.53698" lon="-2.79609">
        <ele>93.2</ele>
        <time>2026-01-25T10:52:01Z</time>
      </trkpt>
      <trkpt lat="48.53695" lon="-2.79593">
        <ele>93.2</ele>
        <time>2026-01-25T10:52:02Z</time>
      </trkpt>
      <trkpt lat="48.53692" lon="-2.79577">
        <ele>90.4</ele>
        <time>2026-01-25T10:52:03Z</time>
      </trkpt>
      <trkpt lat="48.53691" lon="-2.79561">
        <ele>90.4</ele>
        <time>2026-01-25T10:52:04Z</time>
      </trkpt>
      <trkpt lat="48.5369" lon="-2.79545">
        <ele>90.4</ele>
        <time>2026-01-25T10:52:05Z</time>
      </trkpt>
      <trkpt lat="48.5369" lon="-2.79528">
        <ele>89.4</ele>
        <time>2026-01-25T10:52:06Z</time>
      </trkpt>
      <trkpt lat="48.53691" lon="-2.79512">
        <ele>88.6</ele>
        <time>2026-01-25T10:52:07Z</time>
      </trkpt>
      <trkpt lat="48.53692" lon="-2.79496">
        <ele>88.6</ele>
        <time>2026-01-25T10:52:08Z</time>
      </trkpt>
      <trkpt lat="48.53693" lon="-2.7948">
        <ele>88.6</ele>
        <time>2026-01-25T10:52:09Z</time>
      </trkpt>
      <trkpt lat="48.53695" lon="-2.79464">
        <ele>87.6</ele>
        <time>2026-01-25T10:52:10Z</time>
      </trkpt>
      <trkpt lat="48.53696" lon="-2.79448">
        <ele>86</ele>
        <time>2026-01-25T10:52:11Z</time>
      </trkpt>
      <trkpt lat="48.53697" lon="-2.79432">
        <ele>86</ele>
        <time>2026-01-25T10:52:12Z</time>
      </trkpt>
      <trkpt lat="48.53699" lon="-2.79416">
        <ele>86</ele>
        <time>2026-01-25T10:52:13Z</time>
      </trkpt>
      <trkpt lat="48.537" lon="-2.79399">
        <ele>85</ele>
        <time>2026-01-25T10:52:14Z</time>
      </trkpt>
      <trkpt lat="48.53701" lon="-2.79383">
        <ele>82.8</ele>
        <time>2026-01-25T10:52:15Z</time>
      </trkpt>
      <trkpt lat="48.53703" lon="-2.79367">
        <ele>82.8</ele>
        <time>2026-01-25T10:52:16Z</time>
      </trkpt>
      <trkpt lat="48.53704" lon="-2.7935">
        <ele>82.8</ele>
        <time>2026-01-25T10:52:17Z</time>
      </trkpt>
      <trkpt lat="48.53705" lon="-2.79334">
        <ele>81.8</ele>
        <time>2026-01-25T10:52:18Z</time>
      </trkpt>
      <trkpt lat="48.53707" lon="-2.79317">
        <ele>80.8</ele>
        <time>2026-01-25T10:52:19Z</time>
      </trkpt>
      <trkpt lat="48.53708" lon="-2.79301">
        <ele>80.8</ele>
        <time>2026-01-25T10:52:20Z</time>
      </trkpt>
      <trkpt lat="48.53709" lon="-2.79284">
        <ele>80.8</ele>
        <time>2026-01-25T10:52:21Z</time>
      </trkpt>
      <trkpt lat="48.5371" lon="-2.79268">
        <ele>79.8</ele>
        <time>2026-01-25T10:52:22Z</time>
      </trkpt>
      <trkpt lat="48.53712" lon="-2.79251">
        <ele>78.6</ele>
        <time>2026-01-25T10:52:23Z</time>
      </trkpt>
      <trkpt lat="48.53713" lon="-2.79235">
        <ele>78.6</ele>
        <time>2026-01-25T10:52:24Z</time>
      </trkpt>
      <trkpt lat="48.53714" lon="-2.79219">
        <ele>78.6</ele>
        <time>2026-01-25T10:52:25Z</time>
      </trkpt>
      <trkpt lat="48.53715" lon="-2.79202">
        <ele>77.6</ele>
        <time>2026-01-25T10:52:26Z</time>
      </trkpt>
      <trkpt lat="48.53717" lon="-2.79186">
        <ele>76.4</ele>
        <time>2026-01-25T10:52:27Z</time>
      </trkpt>
      <trkpt lat="48.53718" lon="-2.7917">
        <ele>76.4</ele>
        <time>2026-01-25T10:52:28Z</time>
      </trkpt>
      <trkpt lat="48.5372" lon="-2.79154">
        <ele>76.4</ele>
        <time>2026-01-25T10:52:29Z</time>
      </trkpt>
      <trkpt lat="48.53721" lon="-2.79138">
        <ele>76.4</ele>
        <time>2026-01-25T10:52:30Z</time>
      </trkpt>
      <trkpt lat="48.53723" lon="-2.79122">
        <ele>75.2</ele>
        <time>2026-01-25T10:52:31Z</time>
      </trkpt>
      <trkpt lat="48.53724" lon="-2.79105">
        <ele>75.2</ele>
        <time>2026-01-25T10:52:32Z</time>
      </trkpt>
      <trkpt lat="48.53724" lon="-2.7909">
        <ele>75.2</ele>
        <time>2026-01-25T10:52:33Z</time>
      </trkpt>
      <trkpt lat="48.53724" lon="-2.79074">
        <ele>75</ele>
        <time>2026-01-25T10:52:34Z</time>
      </trkpt>
      <trkpt lat="48.53723" lon="-2.79059">
        <ele>74.8</ele>
        <time>2026-01-25T10:52:35Z</time>
      </trkpt>
      <trkpt lat="48.53722" lon="-2.79046">
        <ele>74.8</ele>
        <time>2026-01-25T10:52:36Z</time>
      </trkpt>
      <trkpt lat="48.5372" lon="-2.79033">
        <ele>74.8</ele>
        <time>2026-01-25T10:52:37Z</time>
      </trkpt>
      <trkpt lat="48.53716" lon="-2.79021">
        <ele>73.8</ele>
        <time>2026-01-25T10:52:38Z</time>
      </trkpt>
      <trkpt lat="48.53711" lon="-2.7901">
        <ele>73.2</ele>
        <time>2026-01-25T10:52:39Z</time>
      </trkpt>
      <trkpt lat="48.53705" lon="-2.79">
        <ele>73.2</ele>
        <time>2026-01-25T10:52:40Z</time>
      </trkpt>
      <trkpt lat="48.53699" lon="-2.78991">
        <ele>73.2</ele>
        <time>2026-01-25T10:52:41Z</time>
      </trkpt>
      <trkpt lat="48.53691" lon="-2.78984">
        <ele>72.2</ele>
        <time>2026-01-25T10:52:42Z</time>
      </trkpt>
      <trkpt lat="48.53682" lon="-2.78978">
        <ele>69.8</ele>
        <time>2026-01-25T10:52:43Z</time>
      </trkpt>
      <trkpt lat="48.53674" lon="-2.78974">
        <ele>69.8</ele>
        <time>2026-01-25T10:52:44Z</time>
      </trkpt>
      <trkpt lat="48.53665" lon="-2.78973">
        <ele>69.8</ele>
        <time>2026-01-25T10:52:45Z</time>
      </trkpt>
      <trkpt lat="48.53655" lon="-2.78973">
        <ele>68.8</ele>
        <time>2026-01-25T10:52:46Z</time>
      </trkpt>
      <trkpt lat="48.53647" lon="-2.78974">
        <ele>67.6</ele>
        <time>2026-01-25T10:52:47Z</time>
      </trkpt>
      <trkpt lat="48.53638" lon="-2.78977">
        <ele>67.6</ele>
        <time>2026-01-25T10:52:48Z</time>
      </trkpt>
      <trkpt lat="48.53629" lon="-2.7898">
        <ele>67.6</ele>
        <time>2026-01-25T10:52:49Z</time>
      </trkpt>
      <trkpt lat="48.5362" lon="-2.78982">
        <ele>67.6</ele>
        <time>2026-01-25T10:52:50Z</time>
      </trkpt>
      <trkpt lat="48.53611" lon="-2.78982">
        <ele>67.6</ele>
        <time>2026-01-25T10:52:51Z</time>
      </trkpt>
      <trkpt lat="48.53602" lon="-2.78981">
        <ele>67.6</ele>
        <time>2026-01-25T10:52:52Z</time>
      </trkpt>
      <trkpt lat="48.53593" lon="-2.78979">
        <ele>67.6</ele>
        <time>2026-01-25T10:52:53Z</time>
      </trkpt>
      <trkpt lat="48.53584" lon="-2.78975">
        <ele>66.6</ele>
        <time>2026-01-25T10:52:54Z</time>
      </trkpt>
      <trkpt lat="48.53575" lon="-2.7897">
        <ele>63.6</ele>
        <time>2026-01-25T10:52:55Z</time>
      </trkpt>
      <trkpt lat="48.53566" lon="-2.78963">
        <ele>63.6</ele>
        <time>2026-01-25T10:52:56Z</time>
      </trkpt>
      <trkpt lat="48.53558" lon="-2.78954">
        <ele>63.6</ele>
        <time>2026-01-25T10:52:57Z</time>
      </trkpt>
      <trkpt lat="48.5355" lon="-2.78945">
        <ele>62.6</ele>
        <time>2026-01-25T10:52:58Z</time>
      </trkpt>
      <trkpt lat="48.53543" lon="-2.78934">
        <ele>61</ele>
        <time>2026-01-25T10:52:59Z</time>
      </trkpt>
      <trkpt lat="48.53536" lon="-2.78922">
        <ele>61</ele>
        <time>2026-01-25T10:53:00Z</time>
      </trkpt>
      <trkpt lat="48.53529" lon="-2.7891">
        <ele>61</ele>
        <time>2026-01-25T10:53:01Z</time>
      </trkpt>
      <trkpt lat="48.53524" lon="-2.78897">
        <ele>60</ele>
        <time>2026-01-25T10:53:02Z</time>
      </trkpt>
      <trkpt lat="48.53519" lon="-2.78884">
        <ele>59.8</ele>
        <time>2026-01-25T10:53:03Z</time>
      </trkpt>
      <trkpt lat="48.53516" lon="-2.78869">
        <ele>59.8</ele>
        <time>2026-01-25T10:53:04Z</time>
      </trkpt>
      <trkpt lat="48.53513" lon="-2.78854">
        <ele>59.8</ele>
        <time>2026-01-25T10:53:05Z</time>
      </trkpt>
      <trkpt lat="48.53512" lon="-2.78839">
        <ele>59</ele>
        <time>2026-01-25T10:53:06Z</time>
      </trkpt>
      <trkpt lat="48.53511" lon="-2.78824">
        <ele>58.6</ele>
        <time>2026-01-25T10:53:07Z</time>
      </trkpt>
      <trkpt lat="48.53512" lon="-2.78809">
        <ele>58.6</ele>
        <time>2026-01-25T10:53:08Z</time>
      </trkpt>
      <trkpt lat="48.53512" lon="-2.78794">
        <ele>58.6</ele>
        <time>2026-01-25T10:53:09Z</time>
      </trkpt>
      <trkpt lat="48.53513" lon="-2.78778">
        <ele>57.6</ele>
        <time>2026-01-25T10:53:10Z</time>
      </trkpt>
      <trkpt lat="48.53513" lon="-2.78763">
        <ele>56.4</ele>
        <time>2026-01-25T10:53:11Z</time>
      </trkpt>
      <trkpt lat="48.53514" lon="-2.78748">
        <ele>56.4</ele>
        <time>2026-01-25T10:53:12Z</time>
      </trkpt>
      <trkpt lat="48.53513" lon="-2.78732">
        <ele>56.4</ele>
        <time>2026-01-25T10:53:13Z</time>
      </trkpt>
      <trkpt lat="48.53513" lon="-2.78716">
        <ele>55.4</ele>
        <time>2026-01-25T10:53:14Z</time>
      </trkpt>
      <trkpt lat="48.53513" lon="-2.787">
        <ele>54.4</ele>
        <time>2026-01-25T10:53:15Z</time>
      </trkpt>
      <trkpt lat="48.53512" lon="-2.78684">
        <ele>54.4</ele>
        <time>2026-01-25T10:53:16Z</time>
      </trkpt>
      <trkpt lat="48.53511" lon="-2.78668">
        <ele>54.4</ele>
        <time>2026-01-25T10:53:17Z</time>
      </trkpt>
      <trkpt lat="48.53509" lon="-2.78652">
        <ele>53.4</ele>
        <time>2026-01-25T10:53:18Z</time>
      </trkpt>
      <trkpt lat="48.53506" lon="-2.78637">
        <ele>52.2</ele>
        <time>2026-01-25T10:53:19Z</time>
      </trkpt>
      <trkpt lat="48.53503" lon="-2.78622">
        <ele>52.2</ele>
        <time>2026-01-25T10:53:20Z</time>
      </trkpt>
      <trkpt lat="48.535" lon="-2.78608">
        <ele>52.2</ele>
        <time>2026-01-25T10:53:21Z</time>
      </trkpt>
      <trkpt lat="48.53498" lon="-2.78593">
        <ele>51.2</ele>
        <time>2026-01-25T10:53:22Z</time>
      </trkpt>
      <trkpt lat="48.53498" lon="-2.78579">
        <ele>51</ele>
        <time>2026-01-25T10:53:23Z</time>
      </trkpt>
      <trkpt lat="48.53499" lon="-2.78567">
        <ele>51</ele>
        <time>2026-01-25T10:53:24Z</time>
      </trkpt>
      <trkpt lat="48.53502" lon="-2.78556">
        <ele>51</ele>
        <time>2026-01-25T10:53:25Z</time>
      </trkpt>
      <trkpt lat="48.53506" lon="-2.78546">
        <ele>51</ele>
        <time>2026-01-25T10:53:26Z</time>
      </trkpt>
      <trkpt lat="48.5351" lon="-2.78537">
        <ele>50.2</ele>
        <time>2026-01-25T10:53:27Z</time>
      </trkpt>
      <trkpt lat="48.53515" lon="-2.78529">
        <ele>50.2</ele>
        <time>2026-01-25T10:53:28Z</time>
      </trkpt>
      <trkpt lat="48.53522" lon="-2.78522">
        <ele>50.2</ele>
        <time>2026-01-25T10:53:29Z</time>
      </trkpt>
      <trkpt lat="48.53529" lon="-2.78515">
        <ele>49.2</ele>
        <time>2026-01-25T10:53:30Z</time>
      </trkpt>
      <trkpt lat="48.53537" lon="-2.78511">
        <ele>46.8</ele>
        <time>2026-01-25T10:53:31Z</time>
      </trkpt>
      <trkpt lat="48.53544" lon="-2.78506">
        <ele>46.8</ele>
        <time>2026-01-25T10:53:32Z</time>
      </trkpt>
      <trkpt lat="48.53553" lon="-2.78501">
        <ele>46.8</ele>
        <time>2026-01-25T10:53:33Z</time>
      </trkpt>
      <trkpt lat="48.53561" lon="-2.78495">
        <ele>45.8</ele>
        <time>2026-01-25T10:53:34Z</time>
      </trkpt>
      <trkpt lat="48.53569" lon="-2.78488">
        <ele>44.8</ele>
        <time>2026-01-25T10:53:35Z</time>
      </trkpt>
      <trkpt lat="48.53577" lon="-2.78479">
        <ele>44.8</ele>
        <time>2026-01-25T10:53:36Z</time>
      </trkpt>
      <trkpt lat="48.53583" lon="-2.78468">
        <ele>44.8</ele>
        <time>2026-01-25T10:53:37Z</time>
      </trkpt>
      <trkpt lat="48.53588" lon="-2.78455">
        <ele>43.8</ele>
        <time>2026-01-25T10:53:38Z</time>
      </trkpt>
      <trkpt lat="48.53592" lon="-2.78442">
        <ele>43</ele>
        <time>2026-01-25T10:53:39Z</time>
      </trkpt>
      <trkpt lat="48.53594" lon="-2.78429">
        <ele>43</ele>
        <time>2026-01-25T10:53:40Z</time>
      </trkpt>
      <trkpt lat="48.53596" lon="-2.78416">
        <ele>43</ele>
        <time>2026-01-25T10:53:41Z</time>
      </trkpt>
      <trkpt lat="48.53597" lon="-2.78402">
        <ele>43</ele>
        <time>2026-01-25T10:53:42Z</time>
      </trkpt>
      <trkpt lat="48.53597" lon="-2.78389">
        <ele>43.6</ele>
        <time>2026-01-25T10:53:43Z</time>
      </trkpt>
      <trkpt lat="48.53596" lon="-2.78377">
        <ele>43.6</ele>
        <time>2026-01-25T10:53:44Z</time>
      </trkpt>
      <trkpt lat="48.53594" lon="-2.78366">
        <ele>43.6</ele>
        <time>2026-01-25T10:53:45Z</time>
      </trkpt>
      <trkpt lat="48.53591" lon="-2.78355">
        <ele>43</ele>
        <time>2026-01-25T10:53:46Z</time>
      </trkpt>
      <trkpt lat="48.53585" lon="-2.78346">
        <ele>42</ele>
        <time>2026-01-25T10:53:47Z</time>
      </trkpt>
      <trkpt lat="48.53579" lon="-2.78337">
        <ele>42</ele>
        <time>2026-01-25T10:53:48Z</time>
      </trkpt>
      <trkpt lat="48.53573" lon="-2.78329">
        <ele>42</ele>
        <time>2026-01-25T10:53:49Z</time>
      </trkpt>
      <trkpt lat="48.53566" lon="-2.78323">
        <ele>41</ele>
        <time>2026-01-25T10:53:50Z</time>
      </trkpt>
      <trkpt lat="48.53558" lon="-2.78319">
        <ele>40.4</ele>
        <time>2026-01-25T10:53:51Z</time>
      </trkpt>
      <trkpt lat="48.5355" lon="-2.78317">
        <ele>40.4</ele>
        <time>2026-01-25T10:53:52Z</time>
      </trkpt>
      <trkpt lat="48.53542" lon="-2.78319">
        <ele>40.4</ele>
        <time>2026-01-25T10:53:53Z</time>
      </trkpt>
      <trkpt lat="48.53535" lon="-2.78324">
        <ele>40.4</ele>
        <time>2026-01-25T10:53:54Z</time>
      </trkpt>
      <trkpt lat="48.53528" lon="-2.7833">
        <ele>40.4</ele>
        <time>2026-01-25T10:53:55Z</time>
      </trkpt>
      <trkpt lat="48.53522" lon="-2.78338">
        <ele>40.4</ele>
        <time>2026-01-25T10:53:56Z</time>
      </trkpt>
      <trkpt lat="48.53515" lon="-2.78346">
        <ele>40.4</ele>
        <time>2026-01-25T10:53:57Z</time>
      </trkpt>
      <trkpt lat="48.53508" lon="-2.78353">
        <ele>40.4</ele>
        <time>2026-01-25T10:53:58Z</time>
      </trkpt>
      <trkpt lat="48.53501" lon="-2.78359">
        <ele>38.4</ele>
        <time>2026-01-25T10:53:59Z</time>
      </trkpt>
      <trkpt lat="48.53494" lon="-2.78365">
        <ele>38.4</ele>
        <time>2026-01-25T10:54:00Z</time>
      </trkpt>
      <trkpt lat="48.53488" lon="-2.78371">
        <ele>38.4</ele>
        <time>2026-01-25T10:54:01Z</time>
      </trkpt>
      <trkpt lat="48.53481" lon="-2.78376">
        <ele>37.8</ele>
        <time>2026-01-25T10:54:02Z</time>
      </trkpt>
      <trkpt lat="48.53474" lon="-2.78381">
        <ele>37.6</ele>
        <time>2026-01-25T10:54:03Z</time>
      </trkpt>
      <trkpt lat="48.53466" lon="-2.78385">
        <ele>37.6</ele>
        <time>2026-01-25T10:54:04Z</time>
      </trkpt>
      <trkpt lat="48.53457" lon="-2.78387">
        <ele>37.6</ele>
        <time>2026-01-25T10:54:05Z</time>
      </trkpt>
      <trkpt lat="48.53449" lon="-2.78388">
        <ele>37.6</ele>
        <time>2026-01-25T10:54:06Z</time>
      </trkpt>
      <trkpt lat="48.53442" lon="-2.78388">
        <ele>36</ele>
        <time>2026-01-25T10:54:07Z</time>
      </trkpt>
      <trkpt lat="48.53435" lon="-2.78385">
        <ele>36</ele>
        <time>2026-01-25T10:54:08Z</time>
      </trkpt>
      <trkpt lat="48.53427" lon="-2.78382">
        <ele>36</ele>
        <time>2026-01-25T10:54:09Z</time>
      </trkpt>
      <trkpt lat="48.53422" lon="-2.78378">
        <ele>36</ele>
        <time>2026-01-25T10:54:10Z</time>
      </trkpt>
      <trkpt lat="48.53415" lon="-2.78373">
        <ele>34.4</ele>
        <time>2026-01-25T10:54:11Z</time>
      </trkpt>
      <trkpt lat="48.5341" lon="-2.78369">
        <ele>34.4</ele>
        <time>2026-01-25T10:54:12Z</time>
      </trkpt>
      <trkpt lat="48.53404" lon="-2.7836">
        <ele>34.4</ele>
        <time>2026-01-25T10:54:13Z</time>
      </trkpt>
      <trkpt lat="48.534" lon="-2.7835">
        <ele>33.6</ele>
        <time>2026-01-25T10:54:14Z</time>
      </trkpt>
      <trkpt lat="48.53397" lon="-2.78338">
        <ele>33.2</ele>
        <time>2026-01-25T10:54:15Z</time>
      </trkpt>
      <trkpt lat="48.53395" lon="-2.78325">
        <ele>33.2</ele>
        <time>2026-01-25T10:54:16Z</time>
      </trkpt>
      <trkpt lat="48.53393" lon="-2.7831">
        <ele>33.2</ele>
        <time>2026-01-25T10:54:17Z</time>
      </trkpt>
      <trkpt lat="48.53391" lon="-2.78296">
        <ele>32.2</ele>
        <time>2026-01-25T10:54:18Z</time>
      </trkpt>
      <trkpt lat="48.53387" lon="-2.78282">
        <ele>29.4</ele>
        <time>2026-01-25T10:54:19Z</time>
      </trkpt>
      <trkpt lat="48.53382" lon="-2.78268">
        <ele>29.4</ele>
        <time>2026-01-25T10:54:20Z</time>
      </trkpt>
      <trkpt lat="48.53376" lon="-2.78255">
        <ele>29.4</ele>
        <time>2026-01-25T10:54:21Z</time>
      </trkpt>
      <trkpt lat="48.53369" lon="-2.78243">
        <ele>28.4</ele>
        <time>2026-01-25T10:54:22Z</time>
      </trkpt>
      <trkpt lat="48.53362" lon="-2.78231">
        <ele>26.8</ele>
        <time>2026-01-25T10:54:23Z</time>
      </trkpt>
      <trkpt lat="48.53353" lon="-2.7822">
        <ele>26.8</ele>
        <time>2026-01-25T10:54:24Z</time>
      </trkpt>
      <trkpt lat="48.53345" lon="-2.78209">
        <ele>26.8</ele>
        <time>2026-01-25T10:54:25Z</time>
      </trkpt>
      <trkpt lat="48.53336" lon="-2.78197">
        <ele>25.8</ele>
        <time>2026-01-25T10:54:26Z</time>
      </trkpt>
      <trkpt lat="48.53327" lon="-2.78186">
        <ele>24.2</ele>
        <time>2026-01-25T10:54:27Z</time>
      </trkpt>
      <trkpt lat="48.53318" lon="-2.78174">
        <ele>24.2</ele>
        <time>2026-01-25T10:54:28Z</time>
      </trkpt>
      <trkpt lat="48.53309" lon="-2.78163">
        <ele>24.2</ele>
        <time>2026-01-25T10:54:29Z</time>
      </trkpt>
      <trkpt lat="48.53299" lon="-2.78151">
        <ele>23.2</ele>
        <time>2026-01-25T10:54:30Z</time>
      </trkpt>
      <trkpt lat="48.53291" lon="-2.7814">
        <ele>21.4</ele>
        <time>2026-01-25T10:54:31Z</time>
      </trkpt>
      <trkpt lat="48.53282" lon="-2.7813">
        <ele>21.4</ele>
        <time>2026-01-25T10:54:32Z</time>
      </trkpt>
      <trkpt lat="48.53274" lon="-2.78121">
        <ele>21.4</ele>
        <time>2026-01-25T10:54:33Z</time>
      </trkpt>
      <trkpt lat="48.53265" lon="-2.78112">
        <ele>21.4</ele>
        <time>2026-01-25T10:54:34Z</time>
      </trkpt>
      <trkpt lat="48.53255" lon="-2.78105">
        <ele>20.6</ele>
        <time>2026-01-25T10:54:35Z</time>
      </trkpt>
      <trkpt lat="48.53245" lon="-2.78099">
        <ele>20.6</ele>
        <time>2026-01-25T10:54:36Z</time>
      </trkpt>
      <trkpt lat="48.53235" lon="-2.78096">
        <ele>20.6</ele>
        <time>2026-01-25T10:54:37Z</time>
      </trkpt>
      <trkpt lat="48.53224" lon="-2.78097">
        <ele>19.6</ele>
        <time>2026-01-25T10:54:38Z</time>
      </trkpt>
      <trkpt lat="48.53213" lon="-2.781">
        <ele>16.4</ele>
        <time>2026-01-25T10:54:39Z</time>
      </trkpt>
      <trkpt lat="48.53203" lon="-2.78104">
        <ele>16.4</ele>
        <time>2026-01-25T10:54:40Z</time>
      </trkpt>
      <trkpt lat="48.53193" lon="-2.7811">
        <ele>16.4</ele>
        <time>2026-01-25T10:54:41Z</time>
      </trkpt>
      <trkpt lat="48.53183" lon="-2.78115">
        <ele>15.4</ele>
        <time>2026-01-25T10:54:42Z</time>
      </trkpt>
      <trkpt lat="48.53173" lon="-2.7812">
        <ele>13.6</ele>
        <time>2026-01-25T10:54:43Z</time>
      </trkpt>
      <trkpt lat="48.53163" lon="-2.78125">
        <ele>13.6</ele>
        <time>2026-01-25T10:54:44Z</time>
      </trkpt>
      <trkpt lat="48.53152" lon="-2.78128">
        <ele>13.6</ele>
        <time>2026-01-25T10:54:45Z</time>
      </trkpt>
      <trkpt lat="48.53143" lon="-2.78131">
        <ele>12.6</ele>
        <time>2026-01-25T10:54:46Z</time>
      </trkpt>
      <trkpt lat="48.53133" lon="-2.78132">
        <ele>11.8</ele>
        <time>2026-01-25T10:54:47Z</time>
      </trkpt>
      <trkpt lat="48.53124" lon="-2.78131">
        <ele>11.8</ele>
        <time>2026-01-25T10:54:48Z</time>
      </trkpt>
      <trkpt lat="48.53114" lon="-2.7813">
        <ele>11.8</ele>
        <time>2026-01-25T10:54:49Z</time>
      </trkpt>
      <trkpt lat="48.53104" lon="-2.78126">
        <ele>10.8</ele>
        <time>2026-01-25T10:54:50Z</time>
      </trkpt>
      <trkpt lat="48.53094" lon="-2.78122">
        <ele>8.6</ele>
        <time>2026-01-25T10:54:51Z</time>
      </trkpt>
      <trkpt lat="48.53083" lon="-2.78117">
        <ele>8.6</ele>
        <time>2026-01-25T10:54:52Z</time>
      </trkpt>
      <trkpt lat="48.53073" lon="-2.78114">
        <ele>8.6</ele>
        <time>2026-01-25T10:54:53Z</time>
      </trkpt>
      <trkpt lat="48.53063" lon="-2.78111">
        <ele>7.6</ele>
        <time>2026-01-25T10:54:54Z</time>
      </trkpt>
      <trkpt lat="48.53052" lon="-2.78111">
        <ele>7</ele>
        <time>2026-01-25T10:54:55Z</time>
      </trkpt>
      <trkpt lat="48.53041" lon="-2.78111">
        <ele>7</ele>
        <time>2026-01-25T10:54:56Z</time>
      </trkpt>
      <trkpt lat="48.53031" lon="-2.78112">
        <ele>7</ele>
        <time>2026-01-25T10:54:57Z</time>
      </trkpt>
      <trkpt lat="48.5302" lon="-2.78115">
        <ele>6</ele>
        <time>2026-01-25T10:54:58Z</time>
      </trkpt>
      <trkpt lat="48.5301" lon="-2.7812">
        <ele>4.6</ele>
        <time>2026-01-25T10:54:59Z</time>
      </trkpt>
      <trkpt lat="48.53" lon="-2.78125">
        <ele>4.6</ele>
        <time>2026-01-25T10:55:00Z</time>
      </trkpt>
      <trkpt lat="48.52992" lon="-2.78131">
        <ele>4.6</ele>
        <time>2026-01-25T10:55:01Z</time>
      </trkpt>
      <trkpt lat="48.52984" lon="-2.78137">
        <ele>5.6</ele>
        <time>2026-01-25T10:55:02Z</time>
      </trkpt>
      <trkpt lat="48.52976" lon="-2.78142">
        <ele>5.8</ele>
        <time>2026-01-25T10:55:03Z</time>
      </trkpt>
      <trkpt lat="48.5297" lon="-2.78148">
        <ele>5.8</ele>
        <time>2026-01-25T10:55:04Z</time>
      </trkpt>
      <trkpt lat="48.52964" lon="-2.78153">
        <ele>5.8</ele>
        <time>2026-01-25T10:55:05Z</time>
      </trkpt>
      <trkpt lat="48.52958" lon="-2.78157">
        <ele>5.8</ele>
        <time>2026-01-25T10:55:06Z</time>
      </trkpt>
      <trkpt lat="48.52953" lon="-2.78161">
        <ele>6</ele>
        <time>2026-01-25T10:55:07Z</time>
      </trkpt>
      <trkpt lat="48.52949" lon="-2.78165">
        <ele>6</ele>
        <time>2026-01-25T10:55:08Z</time>
      </trkpt>
      <trkpt lat="48.52946" lon="-2.78168">
        <ele>6</ele>
        <time>2026-01-25T10:55:09Z</time>
      </trkpt>
      <trkpt lat="48.52945" lon="-2.78171">
        <ele>6.8</ele>
        <time>2026-01-25T10:55:10Z</time>
      </trkpt>
      <trkpt lat="48.52945" lon="-2.78173">
        <ele>6.4</ele>
        <time>2026-01-25T10:55:11Z</time>
      </trkpt>
      <trkpt lat="48.52947" lon="-2.78174">
        <ele>6.4</ele>
        <time>2026-01-25T10:55:12Z</time>
      </trkpt>
      <trkpt lat="48.52949" lon="-2.78175">
        <ele>6.4</ele>
        <time>2026-01-25T10:55:13Z</time>
      </trkpt>
      <trkpt lat="48.52951" lon="-2.78174">
        <ele>5.6</ele>
        <time>2026-01-25T10:55:14Z</time>
      </trkpt>
      <trkpt lat="48.52954" lon="-2.78171">
        <ele>5.4</ele>
        <time>2026-01-25T10:55:15Z</time>
      </trkpt>
      <trkpt lat="48.52956" lon="-2.78168">
        <ele>5.4</ele>
        <time>2026-01-25T10:55:16Z</time>
      </trkpt>
      <trkpt lat="48.52959" lon="-2.78164">
        <ele>5.4</ele>
        <time>2026-01-25T10:55:17Z</time>
      </trkpt>
      <trkpt lat="48.52963" lon="-2.78161">
        <ele>5</ele>
        <time>2026-01-25T10:55:18Z</time>
      </trkpt>
      <trkpt lat="48.52966" lon="-2.78157">
        <ele>4.8</ele>
        <time>2026-01-25T10:55:19Z</time>
      </trkpt>
      <trkpt lat="48.5297" lon="-2.78153">
        <ele>4.8</ele>
        <time>2026-01-25T10:55:20Z</time>
      </trkpt>
      <trkpt lat="48.52974" lon="-2.7815">
        <ele>4.8</ele>
        <time>2026-01-25T10:55:21Z</time>
      </trkpt>
      <trkpt lat="48.52979" lon="-2.78146">
        <ele>4.6</ele>
        <time>2026-01-25T10:55:22Z</time>
      </trkpt>
      <trkpt lat="48.52983" lon="-2.78143">
        <ele>4.4</ele>
        <time>2026-01-25T10:55:23Z</time>
      </trkpt>
      <trkpt lat="48.52988" lon="-2.78139">
        <ele>4.4</ele>
        <time>2026-01-25T10:55:24Z</time>
      </trkpt>
      <trkpt lat="48.52993" lon="-2.78136">
        <ele>4.4</ele>
        <time>2026-01-25T10:55:25Z</time>
      </trkpt>
      <trkpt lat="48.52998" lon="-2.78132">
        <ele>4</ele>
        <time>2026-01-25T10:55:26Z</time>
      </trkpt>
      <trkpt lat="48.53003" lon="-2.78128">
        <ele>4.4</ele>
        <time>2026-01-25T10:55:27Z</time>
      </trkpt>
      <trkpt lat="48.53009" lon="-2.78125">
        <ele>4.4</ele>
        <time>2026-01-25T10:55:28Z</time>
      </trkpt>
      <trkpt lat="48.53014" lon="-2.78123">
        <ele>4.4</ele>
        <time>2026-01-25T10:55:29Z</time>
      </trkpt>
      <trkpt lat="48.53019" lon="-2.7812">
        <ele>4.2</ele>
        <time>2026-01-25T10:55:30Z</time>
      </trkpt>
      <trkpt lat="48.53024" lon="-2.78117">
        <ele>4.6</ele>
        <time>2026-01-25T10:55:31Z</time>
      </trkpt>
      <trkpt lat="48.5303" lon="-2.78116">
        <ele>4.6</ele>
        <time>2026-01-25T10:55:32Z</time>
      </trkpt>
      <trkpt lat="48.53035" lon="-2.78114">
        <ele>4.6</ele>
        <time>2026-01-25T10:55:33Z</time>
      </trkpt>
      <trkpt lat="48.53041" lon="-2.78114">
        <ele>4.6</ele>
        <time>2026-01-25T10:55:34Z</time>
      </trkpt>
      <trkpt lat="48.53046" lon="-2.78115">
        <ele>4.8</ele>
        <time>2026-01-25T10:55:35Z</time>
      </trkpt>
      <trkpt lat="48.53052" lon="-2.78117">
        <ele>4.8</ele>
        <time>2026-01-25T10:55:36Z</time>
      </trkpt>
      <trkpt lat="48.53058" lon="-2.7812">
        <ele>4.8</ele>
        <time>2026-01-25T10:55:37Z</time>
      </trkpt>
      <trkpt lat="48.53064" lon="-2.78123">
        <ele>4.6</ele>
        <time>2026-01-25T10:55:38Z</time>
      </trkpt>
      <trkpt lat="48.53069" lon="-2.78124">
        <ele>4.4</ele>
        <time>2026-01-25T10:55:39Z</time>
      </trkpt>
      <trkpt lat="48.53075" lon="-2.78126">
        <ele>4.4</ele>
        <time>2026-01-25T10:55:40Z</time>
      </trkpt>
      <trkpt lat="48.53081" lon="-2.78129">
        <ele>4.4</ele>
        <time>2026-01-25T10:55:41Z</time>
      </trkpt>
      <trkpt lat="48.53087" lon="-2.78131">
        <ele>4.8</ele>
        <time>2026-01-25T10:55:42Z</time>
      </trkpt>
      <trkpt lat="48.53092" lon="-2.78134">
        <ele>4.6</ele>
        <time>2026-01-25T10:55:43Z</time>
      </trkpt>
      <trkpt lat="48.53098" lon="-2.78138">
        <ele>4.6</ele>
        <time>2026-01-25T10:55:44Z</time>
      </trkpt>
      <trkpt lat="48.53103" lon="-2.78142">
        <ele>4.6</ele>
        <time>2026-01-25T10:55:45Z</time>
      </trkpt>
      <trkpt lat="48.53108" lon="-2.78146">
        <ele>4.6</ele>
        <time>2026-01-25T10:55:46Z</time>
      </trkpt>
      <trkpt lat="48.53114" lon="-2.7815">
        <ele>5</ele>
        <time>2026-01-25T10:55:47Z</time>
      </trkpt>
      <trkpt lat="48.53119" lon="-2.78155">
        <ele>5</ele>
        <time>2026-01-25T10:55:48Z</time>
      </trkpt>
      <trkpt lat="48.53124" lon="-2.78159">
        <ele>5</ele>
        <time>2026-01-25T10:55:49Z</time>
      </trkpt>
      <trkpt lat="48.53129" lon="-2.78164">
        <ele>5</ele>
        <time>2026-01-25T10:55:50Z</time>
      </trkpt>
      <trkpt lat="48.53134" lon="-2.78169">
        <ele>5.6</ele>
        <time>2026-01-25T10:55:51Z</time>
      </trkpt>
      <trkpt lat="48.53139" lon="-2.78174">
        <ele>5.6</ele>
        <time>2026-01-25T10:55:52Z</time>
      </trkpt>
      <trkpt lat="48.53143" lon="-2.78179">
        <ele>5.6</ele>
        <time>2026-01-25T10:55:53Z</time>
      </trkpt>
      <trkpt lat="48.53148" lon="-2.78184">
        <ele>5.6</ele>
        <time>2026-01-25T10:55:54Z</time>
      </trkpt>
      <trkpt lat="48.53152" lon="-2.78189">
        <ele>5.8</ele>
        <time>2026-01-25T10:55:55Z</time>
      </trkpt>
      <trkpt lat="48.53157" lon="-2.78194">
        <ele>5.8</ele>
        <time>2026-01-25T10:55:56Z</time>
      </trkpt>
      <trkpt lat="48.53161" lon="-2.78199">
        <ele>5.8</ele>
        <time>2026-01-25T10:55:57Z</time>
      </trkpt>
      <trkpt lat="48.53166" lon="-2.78203">
        <ele>6.4</ele>
        <time>2026-01-25T10:55:58Z</time>
      </trkpt>
      <trkpt lat="48.5317" lon="-2.78208">
        <ele>6.8</ele>
        <time>2026-01-25T10:55:59Z</time>
      </trkpt>
      <trkpt lat="48.53174" lon="-2.78213">
        <ele>6.8</ele>
        <time>2026-01-25T10:56:00Z</time>
      </trkpt>
      <trkpt lat="48.53179" lon="-2.78216">
        <ele>6.8</ele>
        <time>2026-01-25T10:56:01Z</time>
      </trkpt>
      <trkpt lat="48.53183" lon="-2.7822">
        <ele>7.6</ele>
        <time>2026-01-25T10:56:02Z</time>
      </trkpt>
      <trkpt lat="48.53187" lon="-2.78225">
        <ele>7.6</ele>
        <time>2026-01-25T10:56:03Z</time>
      </trkpt>
      <trkpt lat="48.5319" lon="-2.78229">
        <ele>7.6</ele>
        <time>2026-01-25T10:56:04Z</time>
      </trkpt>
      <trkpt lat="48.53193" lon="-2.78233">
        <ele>7.6</ele>
        <time>2026-01-25T10:56:05Z</time>
      </trkpt>
      <trkpt lat="48.53197" lon="-2.78237">
        <ele>8.6</ele>
        <time>2026-01-25T10:56:06Z</time>
      </trkpt>
      <trkpt lat="48.532" lon="-2.78241">
        <ele>9</ele>
        <time>2026-01-25T10:56:07Z</time>
      </trkpt>
      <trkpt lat="48.53203" lon="-2.78245">
        <ele>9</ele>
        <time>2026-01-25T10:56:08Z</time>
      </trkpt>
      <trkpt lat="48.53206" lon="-2.78248">
        <ele>9</ele>
        <time>2026-01-25T10:56:09Z</time>
      </trkpt>
      <trkpt lat="48.5321" lon="-2.78252">
        <ele>9.4</ele>
        <time>2026-01-25T10:56:10Z</time>
      </trkpt>
      <trkpt lat="48.53213" lon="-2.78255">
        <ele>9.6</ele>
        <time>2026-01-25T10:56:11Z</time>
      </trkpt>
      <trkpt lat="48.53217" lon="-2.78259">
        <ele>9.6</ele>
        <time>2026-01-25T10:56:12Z</time>
      </trkpt>
      <trkpt lat="48.5322" lon="-2.78263">
        <ele>9.6</ele>
        <time>2026-01-25T10:56:13Z</time>
      </trkpt>
      <trkpt lat="48.53223" lon="-2.78266">
        <ele>10.6</ele>
        <time>2026-01-25T10:56:14Z</time>
      </trkpt>
      <trkpt lat="48.53226" lon="-2.7827">
        <ele>11</ele>
        <time>2026-01-25T10:56:15Z</time>
      </trkpt>
      <trkpt lat="48.53229" lon="-2.78273">
        <ele>11</ele>
        <time>2026-01-25T10:56:16Z</time>
      </trkpt>
      <trkpt lat="48.53232" lon="-2.78276">
        <ele>11</ele>
        <time>2026-01-25T10:56:17Z</time>
      </trkpt>
      <trkpt lat="48.53235" lon="-2.78279">
        <ele>11.8</ele>
        <time>2026-01-25T10:56:18Z</time>
      </trkpt>
      <trkpt lat="48.53237" lon="-2.78282">
        <ele>12.4</ele>
        <time>2026-01-25T10:56:19Z</time>
      </trkpt>
      <trkpt lat="48.5324" lon="-2.78285">
        <ele>12.4</ele>
        <time>2026-01-25T10:56:20Z</time>
      </trkpt>
      <trkpt lat="48.53243" lon="-2.78288">
        <ele>12.4</ele>
        <time>2026-01-25T10:56:21Z</time>
      </trkpt>
      <trkpt lat="48.53246" lon="-2.78291">
        <ele>12.8</ele>
        <time>2026-01-25T10:56:22Z</time>
      </trkpt>
      <trkpt lat="48.53248" lon="-2.78293">
        <ele>13</ele>
        <time>2026-01-25T10:56:23Z</time>
      </trkpt>
      <trkpt lat="48.53251" lon="-2.78296">
        <ele>13</ele>
        <time>2026-01-25T10:56:24Z</time>
      </trkpt>
      <trkpt lat="48.53254" lon="-2.78298">
        <ele>13</ele>
        <time>2026-01-25T10:56:25Z</time>
      </trkpt>
      <trkpt lat="48.53257" lon="-2.78301">
        <ele>14</ele>
        <time>2026-01-25T10:56:26Z</time>
      </trkpt>
      <trkpt lat="48.5326" lon="-2.78303">
        <ele>14</ele>
        <time>2026-01-25T10:56:27Z</time>
      </trkpt>
      <trkpt lat="48.53262" lon="-2.78306">
        <ele>14</ele>
        <time>2026-01-25T10:56:28Z</time>
      </trkpt>
      <trkpt lat="48.53265" lon="-2.78308">
        <ele>14</ele>
        <time>2026-01-25T10:56:29Z</time>
      </trkpt>
      <trkpt lat="48.53268" lon="-2.78311">
        <ele>14</ele>
        <time>2026-01-25T10:56:30Z</time>
      </trkpt>
      <trkpt lat="48.53271" lon="-2.78314">
        <ele>14.4</ele>
        <time>2026-01-25T10:56:31Z</time>
      </trkpt>
      <trkpt lat="48.53273" lon="-2.78317">
        <ele>14.4</ele>
        <time>2026-01-25T10:56:32Z</time>
      </trkpt>
      <trkpt lat="48.53276" lon="-2.78319">
        <ele>14.4</ele>
        <time>2026-01-25T10:56:33Z</time>
      </trkpt>
      <trkpt lat="48.53279" lon="-2.78322">
        <ele>15</ele>
        <time>2026-01-25T10:56:34Z</time>
      </trkpt>
      <trkpt lat="48.53282" lon="-2.78325">
        <ele>15</ele>
        <time>2026-01-25T10:56:35Z</time>
      </trkpt>
      <trkpt lat="48.53285" lon="-2.78328">
        <ele>15</ele>
        <time>2026-01-25T10:56:36Z</time>
      </trkpt>
      <trkpt lat="48.53288" lon="-2.7833">
        <ele>15</ele>
        <time>2026-01-25T10:56:37Z</time>
      </trkpt>
      <trkpt lat="48.53291" lon="-2.78333">
        <ele>15.8</ele>
        <time>2026-01-25T10:56:38Z</time>
      </trkpt>
      <trkpt lat="48.53294" lon="-2.78335">
        <ele>16</ele>
        <time>2026-01-25T10:56:39Z</time>
      </trkpt>
      <trkpt lat="48.53297" lon="-2.78338">
        <ele>16</ele>
        <time>2026-01-25T10:56:40Z</time>
      </trkpt>
      <trkpt lat="48.533" lon="-2.78341">
        <ele>16</ele>
        <time>2026-01-25T10:56:41Z</time>
      </trkpt>
      <trkpt lat="48.53303" lon="-2.78343">
        <ele>16</ele>
        <time>2026-01-25T10:56:42Z</time>
      </trkpt>
      <trkpt lat="48.53306" lon="-2.78346">
        <ele>16.2</ele>
        <time>2026-01-25T10:56:43Z</time>
      </trkpt>
      <trkpt lat="48.53308" lon="-2.78349">
        <ele>16.2</ele>
        <time>2026-01-25T10:56:44Z</time>
      </trkpt>
      <trkpt lat="48.53311" lon="-2.78352">
        <ele>16.2</ele>
        <time>2026-01-25T10:56:45Z</time>
      </trkpt>
      <trkpt lat="48.53314" lon="-2.78354">
        <ele>16.8</ele>
        <time>2026-01-25T10:56:46Z</time>
      </trkpt>
      <trkpt lat="48.53317" lon="-2.78357">
        <ele>17</ele>
        <time>2026-01-25T10:56:47Z</time>
      </trkpt>
      <trkpt lat="48.5332" lon="-2.7836">
        <ele>17</ele>
        <time>2026-01-25T10:56:48Z</time>
      </trkpt>
      <trkpt lat="48.53323" lon="-2.78362">
        <ele>17</ele>
        <time>2026-01-25T10:56:49Z</time>
      </trkpt>
      <trkpt lat="48.53326" lon="-2.78366">
        <ele>17</ele>
        <time>2026-01-25T10:56:50Z</time>
      </trkpt>
      <trkpt lat="48.53329" lon="-2.78369">
        <ele>17.4</ele>
        <time>2026-01-25T10:56:51Z</time>
      </trkpt>
      <trkpt lat="48.53332" lon="-2.78372">
        <ele>17.4</ele>
        <time>2026-01-25T10:56:52Z</time>
      </trkpt>
      <trkpt lat="48.53335" lon="-2.78375">
        <ele>17.4</ele>
        <time>2026-01-25T10:56:53Z</time>
      </trkpt>
      <trkpt lat="48.53337" lon="-2.78377">
        <ele>18</ele>
        <time>2026-01-25T10:56:54Z</time>
      </trkpt>
      <trkpt lat="48.5334" lon="-2.7838">
        <ele>18</ele>
        <time>2026-01-25T10:56:55Z</time>
      </trkpt>
      <trkpt lat="48.53343" lon="-2.78383">
        <ele>18</ele>
        <time>2026-01-25T10:56:56Z</time>
      </trkpt>
      <trkpt lat="48.53346" lon="-2.78386">
        <ele>18</ele>
        <time>2026-01-25T10:56:57Z</time>
      </trkpt>
      <trkpt lat="48.53348" lon="-2.78389">
        <ele>18.6</ele>
        <time>2026-01-25T10:56:58Z</time>
      </trkpt>
      <trkpt lat="48.53351" lon="-2.78391">
        <ele>18.6</ele>
        <time>2026-01-25T10:56:59Z</time>
      </trkpt>
      <trkpt lat="48.53354" lon="-2.78394">
        <ele>18.6</ele>
        <time>2026-01-25T10:57:00Z</time>
      </trkpt>
      <trkpt lat="48.53357" lon="-2.78397">
        <ele>18.6</ele>
        <time>2026-01-25T10:57:01Z</time>
      </trkpt>
      <trkpt lat="48.5336" lon="-2.784">
        <ele>18.8</ele>
        <time>2026-01-25T10:57:02Z</time>
      </trkpt>
      <trkpt lat="48.53363" lon="-2.78402">
        <ele>18.8</ele>
        <time>2026-01-25T10:57:03Z</time>
      </trkpt>
      <trkpt lat="48.53366" lon="-2.78405">
        <ele>18.8</ele>
        <time>2026-01-25T10:57:04Z</time>
      </trkpt>
      <trkpt lat="48.53369" lon="-2.78406">
        <ele>18.8</ele>
        <time>2026-01-25T10:57:05Z</time>
      </trkpt>
      <trkpt lat="48.53372" lon="-2.78408">
        <ele>18.8</ele>
        <time>2026-01-25T10:57:06Z</time>
      </trkpt>
      <trkpt lat="48.53376" lon="-2.78409">
        <ele>19.4</ele>
        <time>2026-01-25T10:57:07Z</time>
      </trkpt>
      <trkpt lat="48.53379" lon="-2.78411">
        <ele>19.4</ele>
        <time>2026-01-25T10:57:08Z</time>
      </trkpt>
      <trkpt lat="48.53382" lon="-2.78414">
        <ele>19.4</ele>
        <time>2026-01-25T10:57:09Z</time>
      </trkpt>
      <trkpt lat="48.53385" lon="-2.78417">
        <ele>20</ele>
        <time>2026-01-25T10:57:10Z</time>
      </trkpt>
      <trkpt lat="48.53388" lon="-2.78419">
        <ele>20</ele>
        <time>2026-01-25T10:57:11Z</time>
      </trkpt>
      <trkpt lat="48.53391" lon="-2.78421">
        <ele>20</ele>
        <time>2026-01-25T10:57:12Z</time>
      </trkpt>
      <trkpt lat="48.53394" lon="-2.78424">
        <ele>20</ele>
        <time>2026-01-25T10:57:13Z</time>
      </trkpt>
      <trkpt lat="48.53397" lon="-2.78427">
        <ele>20.2</ele>
        <time>2026-01-25T10:57:14Z</time>
      </trkpt>
      <trkpt lat="48.534" lon="-2.78428">
        <ele>20.8</ele>
        <time>2026-01-25T10:57:15Z</time>
      </trkpt>
      <trkpt lat="48.53403" lon="-2.78431">
        <ele>20.8</ele>
        <time>2026-01-25T10:57:16Z</time>
      </trkpt>
      <trkpt lat="48.53406" lon="-2.78435">
        <ele>20.8</ele>
        <time>2026-01-25T10:57:17Z</time>
      </trkpt>
      <trkpt lat="48.53408" lon="-2.78438">
        <ele>20.8</ele>
        <time>2026-01-25T10:57:18Z</time>
      </trkpt>
      <trkpt lat="48.5341" lon="-2.78443">
        <ele>20.8</ele>
        <time>2026-01-25T10:57:19Z</time>
      </trkpt>
      <trkpt lat="48.53413" lon="-2.78448">
        <ele>20.8</ele>
        <time>2026-01-25T10:57:20Z</time>
      </trkpt>
      <trkpt lat="48.53415" lon="-2.78453">
        <ele>20.8</ele>
        <time>2026-01-25T10:57:21Z</time>
      </trkpt>
      <trkpt lat="48.53417" lon="-2.78459">
        <ele>20.8</ele>
        <time>2026-01-25T10:57:22Z</time>
      </trkpt>
      <trkpt lat="48.53419" lon="-2.78465">
        <ele>20.6</ele>
        <time>2026-01-25T10:57:23Z</time>
      </trkpt>
      <trkpt lat="48.53421" lon="-2.78472">
        <ele>20.6</ele>
        <time>2026-01-25T10:57:24Z</time>
      </trkpt>
      <trkpt lat="48.53423" lon="-2.78479">
        <ele>20.6</ele>
        <time>2026-01-25T10:57:25Z</time>
      </trkpt>
      <trkpt lat="48.53425" lon="-2.78487">
        <ele>19.6</ele>
        <time>2026-01-25T10:57:26Z</time>
      </trkpt>
      <trkpt lat="48.53427" lon="-2.78495">
        <ele>17.4</ele>
        <time>2026-01-25T10:57:27Z</time>
      </trkpt>
      <trkpt lat="48.53429" lon="-2.78504">
        <ele>17.4</ele>
        <time>2026-01-25T10:57:28Z</time>
      </trkpt>
      <trkpt lat="48.53431" lon="-2.78512">
        <ele>17.4</ele>
        <time>2026-01-25T10:57:29Z</time>
      </trkpt>
      <trkpt lat="48.53433" lon="-2.78521">
        <ele>16.4</ele>
        <time>2026-01-25T10:57:30Z</time>
      </trkpt>
      <trkpt lat="48.53436" lon="-2.78531">
        <ele>13.8</ele>
        <time>2026-01-25T10:57:31Z</time>
      </trkpt>
      <trkpt lat="48.53439" lon="-2.78542">
        <ele>13.8</ele>
        <time>2026-01-25T10:57:32Z</time>
      </trkpt>
      <trkpt lat="48.53442" lon="-2.78553">
        <ele>13.8</ele>
        <time>2026-01-25T10:57:33Z</time>
      </trkpt>
      <trkpt lat="48.53445" lon="-2.78565">
        <ele>12.8</ele>
        <time>2026-01-25T10:57:34Z</time>
      </trkpt>
      <trkpt lat="48.53448" lon="-2.78577">
        <ele>10.8</ele>
        <time>2026-01-25T10:57:35Z</time>
      </trkpt>
      <trkpt lat="48.5345" lon="-2.7859">
        <ele>10.8</ele>
        <time>2026-01-25T10:57:36Z</time>
      </trkpt>
      <trkpt lat="48.53453" lon="-2.78605">
        <ele>10.8</ele>
        <time>2026-01-25T10:57:37Z</time>
      </trkpt>
      <trkpt lat="48.53455" lon="-2.78618">
        <ele>9.8</ele>
        <time>2026-01-25T10:57:38Z</time>
      </trkpt>
      <trkpt lat="48.53456" lon="-2.78632">
        <ele>7.6</ele>
        <time>2026-01-25T10:57:39Z</time>
      </trkpt>
      <trkpt lat="48.53457" lon="-2.78646">
        <ele>7.6</ele>
        <time>2026-01-25T10:57:40Z</time>
      </trkpt>
      <trkpt lat="48.53457" lon="-2.7866">
        <ele>7.6</ele>
        <time>2026-01-25T10:57:41Z</time>
      </trkpt>
      <trkpt lat="48.53457" lon="-2.78677">
        <ele>6.6</ele>
        <time>2026-01-25T10:57:42Z</time>
      </trkpt>
      <trkpt lat="48.53456" lon="-2.78692">
        <ele>6.8</ele>
        <time>2026-01-25T10:57:43Z</time>
      </trkpt>
      <trkpt lat="48.53454" lon="-2.78709">
        <ele>6.8</ele>
        <time>2026-01-25T10:57:44Z</time>
      </trkpt>
      <trkpt lat="48.53452" lon="-2.78726">
        <ele>6.8</ele>
        <time>2026-01-25T10:57:45Z</time>
      </trkpt>
      <trkpt lat="48.53451" lon="-2.78741">
        <ele>6.4</ele>
        <time>2026-01-25T10:57:46Z</time>
      </trkpt>
      <trkpt lat="48.53449" lon="-2.78754">
        <ele>7</ele>
        <time>2026-01-25T10:57:47Z</time>
      </trkpt>
      <trkpt lat="48.53447" lon="-2.78767">
        <ele>7</ele>
        <time>2026-01-25T10:57:48Z</time>
      </trkpt>
      <trkpt lat="48.53445" lon="-2.78782">
        <ele>7</ele>
        <time>2026-01-25T10:57:49Z</time>
      </trkpt>
      <trkpt lat="48.53442" lon="-2.78796">
        <ele>7</ele>
        <time>2026-01-25T10:57:50Z</time>
      </trkpt>
      <trkpt lat="48.5344" lon="-2.7881">
        <ele>7.4</ele>
        <time>2026-01-25T10:57:51Z</time>
      </trkpt>
      <trkpt lat="48.53438" lon="-2.78823">
        <ele>7.4</ele>
        <time>2026-01-25T10:57:52Z</time>
      </trkpt>
      <trkpt lat="48.53436" lon="-2.78836">
        <ele>7.4</ele>
        <time>2026-01-25T10:57:53Z</time>
      </trkpt>
      <trkpt lat="48.53435" lon="-2.78848">
        <ele>8.4</ele>
        <time>2026-01-25T10:57:54Z</time>
      </trkpt>
      <trkpt lat="48.53433" lon="-2.7886">
        <ele>10</ele>
        <time>2026-01-25T10:57:55Z</time>
      </trkpt>
      <trkpt lat="48.53431" lon="-2.7887">
        <ele>10</ele>
        <time>2026-01-25T10:57:56Z</time>
      </trkpt>
      <trkpt lat="48.53429" lon="-2.78881">
        <ele>10</ele>
        <time>2026-01-25T10:57:57Z</time>
      </trkpt>
      <trkpt lat="48.53427" lon="-2.78891">
        <ele>11</ele>
        <time>2026-01-25T10:57:58Z</time>
      </trkpt>
      <trkpt lat="48.53425" lon="-2.789">
        <ele>12</ele>
        <time>2026-01-25T10:57:59Z</time>
      </trkpt>
      <trkpt lat="48.53423" lon="-2.78909">
        <ele>12</ele>
        <time>2026-01-25T10:58:00Z</time>
      </trkpt>
      <trkpt lat="48.5342" lon="-2.78917">
        <ele>12</ele>
        <time>2026-01-25T10:58:01Z</time>
      </trkpt>
      <trkpt lat="48.53417" lon="-2.78925">
        <ele>12</ele>
        <time>2026-01-25T10:58:02Z</time>
      </trkpt>
      <trkpt lat="48.53413" lon="-2.78932">
        <ele>13</ele>
        <time>2026-01-25T10:58:03Z</time>
      </trkpt>
      <trkpt lat="48.53409" lon="-2.78938">
        <ele>13</ele>
        <time>2026-01-25T10:58:04Z</time>
      </trkpt>
      <trkpt lat="48.53404" lon="-2.78944">
        <ele>13</ele>
        <time>2026-01-25T10:58:05Z</time>
      </trkpt>
      <trkpt lat="48.53399" lon="-2.78951">
        <ele>12.4</ele>
        <time>2026-01-25T10:58:06Z</time>
      </trkpt>
      <trkpt lat="48.53394" lon="-2.78957">
        <ele>12</ele>
        <time>2026-01-25T10:58:07Z</time>
      </trkpt>
      <trkpt lat="48.53389" lon="-2.78964">
        <ele>12</ele>
        <time>2026-01-25T10:58:08Z</time>
      </trkpt>
      <trkpt lat="48.53384" lon="-2.78971">
        <ele>12</ele>
        <time>2026-01-25T10:58:09Z</time>
      </trkpt>
      <trkpt lat="48.5338" lon="-2.78977">
        <ele>12</ele>
        <time>2026-01-25T10:58:10Z</time>
      </trkpt>
      <trkpt lat="48.53376" lon="-2.78985">
        <ele>11</ele>
        <time>2026-01-25T10:58:11Z</time>
      </trkpt>
      <trkpt lat="48.53372" lon="-2.78993">
        <ele>11</ele>
        <time>2026-01-25T10:58:12Z</time>
      </trkpt>
      <trkpt lat="48.53369" lon="-2.79002">
        <ele>11</ele>
        <time>2026-01-25T10:58:13Z</time>
      </trkpt>
      <trkpt lat="48.53366" lon="-2.79011">
        <ele>11.8</ele>
        <time>2026-01-25T10:58:14Z</time>
      </trkpt>
      <trkpt lat="48.53363" lon="-2.7902">
        <ele>12.2</ele>
        <time>2026-01-25T10:58:15Z</time>
      </trkpt>
      <trkpt lat="48.5336" lon="-2.79028">
        <ele>12.2</ele>
        <time>2026-01-25T10:58:16Z</time>
      </trkpt>
      <trkpt lat="48.53357" lon="-2.79035">
        <ele>12.2</ele>
        <time>2026-01-25T10:58:17Z</time>
      </trkpt>
      <trkpt lat="48.53355" lon="-2.79042">
        <ele>13.2</ele>
        <time>2026-01-25T10:58:18Z</time>
      </trkpt>
      <trkpt lat="48.53353" lon="-2.79049">
        <ele>14.2</ele>
        <time>2026-01-25T10:58:19Z</time>
      </trkpt>
      <trkpt lat="48.53351" lon="-2.79057">
        <ele>14.2</ele>
        <time>2026-01-25T10:58:20Z</time>
      </trkpt>
      <trkpt lat="48.53348" lon="-2.79064">
        <ele>14.2</ele>
        <time>2026-01-25T10:58:21Z</time>
      </trkpt>
      <trkpt lat="48.53346" lon="-2.7907">
        <ele>14.2</ele>
        <time>2026-01-25T10:58:22Z</time>
      </trkpt>
      <trkpt lat="48.53344" lon="-2.79077">
        <ele>15</ele>
        <time>2026-01-25T10:58:23Z</time>
      </trkpt>
      <trkpt lat="48.53341" lon="-2.79083">
        <ele>15</ele>
        <time>2026-01-25T10:58:24Z</time>
      </trkpt>
      <trkpt lat="48.53339" lon="-2.79089">
        <ele>15</ele>
        <time>2026-01-25T10:58:25Z</time>
      </trkpt>
      <trkpt lat="48.53336" lon="-2.79095">
        <ele>15.2</ele>
        <time>2026-01-25T10:58:26Z</time>
      </trkpt>
      <trkpt lat="48.53332" lon="-2.79101">
        <ele>15</ele>
        <time>2026-01-25T10:58:27Z</time>
      </trkpt>
      <trkpt lat="48.53327" lon="-2.79105">
        <ele>15</ele>
        <time>2026-01-25T10:58:28Z</time>
      </trkpt>
      <trkpt lat="48.53322" lon="-2.7911">
        <ele>15</ele>
        <time>2026-01-25T10:58:29Z</time>
      </trkpt>
      <trkpt lat="48.53318" lon="-2.79115">
        <ele>14.2</ele>
        <time>2026-01-25T10:58:30Z</time>
      </trkpt>
      <trkpt lat="48.53313" lon="-2.79119">
        <ele>14.2</ele>
        <time>2026-01-25T10:58:31Z</time>
      </trkpt>
      <trkpt lat="48.53308" lon="-2.79124">
        <ele>14.2</ele>
        <time>2026-01-25T10:58:32Z</time>
      </trkpt>
      <trkpt lat="48.53303" lon="-2.79128">
        <ele>14.2</ele>
        <time>2026-01-25T10:58:33Z</time>
      </trkpt>
      <trkpt lat="48.53298" lon="-2.79132">
        <ele>13.4</ele>
        <time>2026-01-25T10:58:34Z</time>
      </trkpt>
      <trkpt lat="48.53293" lon="-2.79137">
        <ele>13</ele>
        <time>2026-01-25T10:58:35Z</time>
      </trkpt>
      <trkpt lat="48.53287" lon="-2.79143">
        <ele>13</ele>
        <time>2026-01-25T10:58:36Z</time>
      </trkpt>
      <trkpt lat="48.53282" lon="-2.79149">
        <ele>13</ele>
        <time>2026-01-25T10:58:37Z</time>
      </trkpt>
      <trkpt lat="48.53276" lon="-2.79155">
        <ele>13</ele>
        <time>2026-01-25T10:58:38Z</time>
      </trkpt>
      <trkpt lat="48.5327" lon="-2.7916">
        <ele>13</ele>
        <time>2026-01-25T10:58:39Z</time>
      </trkpt>
      <trkpt lat="48.53265" lon="-2.79166">
        <ele>13</ele>
        <time>2026-01-25T10:58:40Z</time>
      </trkpt>
      <trkpt lat="48.53259" lon="-2.79172">
        <ele>13</ele>
        <time>2026-01-25T10:58:41Z</time>
      </trkpt>
      <trkpt lat="48.53254" lon="-2.79178">
        <ele>13.4</ele>
        <time>2026-01-25T10:58:42Z</time>
      </trkpt>
      <trkpt lat="48.53249" lon="-2.79185">
        <ele>13.4</ele>
        <time>2026-01-25T10:58:43Z</time>
      </trkpt>
      <trkpt lat="48.53245" lon="-2.79193">
        <ele>13.4</ele>
        <time>2026-01-25T10:58:44Z</time>
      </trkpt>
      <trkpt lat="48.5324" lon="-2.792">
        <ele>13.4</ele>
        <time>2026-01-25T10:58:45Z</time>
      </trkpt>
      <trkpt lat="48.53234" lon="-2.79207">
        <ele>12.8</ele>
        <time>2026-01-25T10:58:46Z</time>
      </trkpt>
      <trkpt lat="48.53229" lon="-2.79214">
        <ele>13</ele>
        <time>2026-01-25T10:58:47Z</time>
      </trkpt>
      <trkpt lat="48.53224" lon="-2.79221">
        <ele>13</ele>
        <time>2026-01-25T10:58:48Z</time>
      </trkpt>
      <trkpt lat="48.53218" lon="-2.79228">
        <ele>13</ele>
        <time>2026-01-25T10:58:49Z</time>
      </trkpt>
      <trkpt lat="48.53213" lon="-2.79235">
        <ele>12.4</ele>
        <time>2026-01-25T10:58:50Z</time>
      </trkpt>
      <trkpt lat="48.53207" lon="-2.79242">
        <ele>12.4</ele>
        <time>2026-01-25T10:58:51Z</time>
      </trkpt>
      <trkpt lat="48.53202" lon="-2.7925">
        <ele>12.4</ele>
        <time>2026-01-25T10:58:52Z</time>
      </trkpt>
      <trkpt lat="48.53197" lon="-2.79257">
        <ele>12.4</ele>
        <time>2026-01-25T10:58:53Z</time>
      </trkpt>
      <trkpt lat="48.53191" lon="-2.79264">
        <ele>12</ele>
        <time>2026-01-25T10:58:54Z</time>
      </trkpt>
      <trkpt lat="48.53186" lon="-2.79272">
        <ele>11.4</ele>
        <time>2026-01-25T10:58:55Z</time>
      </trkpt>
      <trkpt lat="48.5318" lon="-2.79279">
        <ele>11.4</ele>
        <time>2026-01-25T10:58:56Z</time>
      </trkpt>
      <trkpt lat="48.53175" lon="-2.79286">
        <ele>11.4</ele>
        <time>2026-01-25T10:58:57Z</time>
      </trkpt>
      <trkpt lat="48.53169" lon="-2.79293">
        <ele>11.2</ele>
        <time>2026-01-25T10:58:58Z</time>
      </trkpt>
      <trkpt lat="48.53163" lon="-2.793">
        <ele>10.4</ele>
        <time>2026-01-25T10:58:59Z</time>
      </trkpt>
      <trkpt lat="48.53157" lon="-2.79308">
        <ele>10.4</ele>
        <time>2026-01-25T10:59:00Z</time>
      </trkpt>
      <trkpt lat="48.53152" lon="-2.79317">
        <ele>10.4</ele>
        <time>2026-01-25T10:59:01Z</time>
      </trkpt>
      <trkpt lat="48.53147" lon="-2.79325">
        <ele>10.4</ele>
        <time>2026-01-25T10:59:02Z</time>
      </trkpt>
      <trkpt lat="48.53142" lon="-2.79334">
        <ele>10</ele>
        <time>2026-01-25T10:59:03Z</time>
      </trkpt>
      <trkpt lat="48.53137" lon="-2.79343">
        <ele>10</ele>
        <time>2026-01-25T10:59:04Z</time>
      </trkpt>
      <trkpt lat="48.53133" lon="-2.79352">
        <ele>10</ele>
        <time>2026-01-25T10:59:05Z</time>
      </trkpt>
      <trkpt lat="48.53129" lon="-2.79361">
        <ele>10</ele>
        <time>2026-01-25T10:59:06Z</time>
      </trkpt>
      <trkpt lat="48.53124" lon="-2.79371">
        <ele>10.4</ele>
        <time>2026-01-25T10:59:07Z</time>
      </trkpt>
      <trkpt lat="48.5312" lon="-2.7938">
        <ele>10.4</ele>
        <time>2026-01-25T10:59:08Z</time>
      </trkpt>
      <trkpt lat="48.53117" lon="-2.7939">
        <ele>10.4</ele>
        <time>2026-01-25T10:59:09Z</time>
      </trkpt>
      <trkpt lat="48.53113" lon="-2.794">
        <ele>10.4</ele>
        <time>2026-01-25T10:59:10Z</time>
      </trkpt>
      <trkpt lat="48.5311" lon="-2.7941">
        <ele>10.4</ele>
        <time>2026-01-25T10:59:11Z</time>
      </trkpt>
      <trkpt lat="48.53107" lon="-2.79419">
        <ele>10.4</ele>
        <time>2026-01-25T10:59:12Z</time>
      </trkpt>
      <trkpt lat="48.53104" lon="-2.79428">
        <ele>10.4</ele>
        <time>2026-01-25T10:59:13Z</time>
      </trkpt>
      <trkpt lat="48.53102" lon="-2.79437">
        <ele>11.2</ele>
        <time>2026-01-25T10:59:14Z</time>
      </trkpt>
      <trkpt lat="48.53101" lon="-2.79447">
        <ele>11.2</ele>
        <time>2026-01-25T10:59:15Z</time>
      </trkpt>
      <trkpt lat="48.53099" lon="-2.79456">
        <ele>11.2</ele>
        <time>2026-01-25T10:59:16Z</time>
      </trkpt>
      <trkpt lat="48.53097" lon="-2.79465">
        <ele>11.2</ele>
        <time>2026-01-25T10:59:17Z</time>
      </trkpt>
      <trkpt lat="48.53096" lon="-2.79474">
        <ele>12.2</ele>
        <time>2026-01-25T10:59:18Z</time>
      </trkpt>
      <trkpt lat="48.53095" lon="-2.79482">
        <ele>13</ele>
        <time>2026-01-25T10:59:19Z</time>
      </trkpt>
      <trkpt lat="48.53093" lon="-2.79491">
        <ele>13</ele>
        <time>2026-01-25T10:59:20Z</time>
      </trkpt>
      <trkpt lat="48.53093" lon="-2.79499">
        <ele>13</ele>
        <time>2026-01-25T10:59:21Z</time>
      </trkpt>
      <trkpt lat="48.53092" lon="-2.79508">
        <ele>13</ele>
        <time>2026-01-25T10:59:22Z</time>
      </trkpt>
      <trkpt lat="48.5309" lon="-2.79517">
        <ele>12.4</ele>
        <time>2026-01-25T10:59:23Z</time>
      </trkpt>
      <trkpt lat="48.53089" lon="-2.79527">
        <ele>12.4</ele>
        <time>2026-01-25T10:59:24Z</time>
      </trkpt>
      <trkpt lat="48.53088" lon="-2.79537">
        <ele>12.4</ele>
        <time>2026-01-25T10:59:25Z</time>
      </trkpt>
      <trkpt lat="48.53087" lon="-2.79547">
        <ele>11.4</ele>
        <time>2026-01-25T10:59:26Z</time>
      </trkpt>
      <trkpt lat="48.53086" lon="-2.79558">
        <ele>10.4</ele>
        <time>2026-01-25T10:59:27Z</time>
      </trkpt>
      <trkpt lat="48.53086" lon="-2.79569">
        <ele>10.4</ele>
        <time>2026-01-25T10:59:28Z</time>
      </trkpt>
      <trkpt lat="48.53086" lon="-2.79579">
        <ele>10.4</ele>
        <time>2026-01-25T10:59:29Z</time>
      </trkpt>
      <trkpt lat="48.53087" lon="-2.7959">
        <ele>10.4</ele>
        <time>2026-01-25T10:59:30Z</time>
      </trkpt>
      <trkpt lat="48.53089" lon="-2.796">
        <ele>10.2</ele>
        <time>2026-01-25T10:59:31Z</time>
      </trkpt>
      <trkpt lat="48.53093" lon="-2.79608">
        <ele>10.2</ele>
        <time>2026-01-25T10:59:32Z</time>
      </trkpt>
      <trkpt lat="48.53098" lon="-2.79613">
        <ele>10.2</ele>
        <time>2026-01-25T10:59:33Z</time>
      </trkpt>
      <trkpt lat="48.53104" lon="-2.79617">
        <ele>9.8</ele>
        <time>2026-01-25T10:59:34Z</time>
      </trkpt>
      <trkpt lat="48.53111" lon="-2.7962">
        <ele>10</ele>
        <time>2026-01-25T10:59:35Z</time>
      </trkpt>
      <trkpt lat="48.53117" lon="-2.79623">
        <ele>10</ele>
        <time>2026-01-25T10:59:36Z</time>
      </trkpt>
      <trkpt lat="48.53123" lon="-2.79627">
        <ele>10</ele>
        <time>2026-01-25T10:59:37Z</time>
      </trkpt>
      <trkpt lat="48.53129" lon="-2.7963">
        <ele>10.6</ele>
        <time>2026-01-25T10:59:38Z</time>
      </trkpt>
      <trkpt lat="48.53136" lon="-2.79633">
        <ele>11.2</ele>
        <time>2026-01-25T10:59:39Z</time>
      </trkpt>
      <trkpt lat="48.53142" lon="-2.79636">
        <ele>11.2</ele>
        <time>2026-01-25T10:59:40Z</time>
      </trkpt>
      <trkpt lat="48.53147" lon="-2.7964">
        <ele>11.2</ele>
        <time>2026-01-25T10:59:41Z</time>
      </trkpt>
      <trkpt lat="48.53153" lon="-2.79643">
        <ele>12</ele>
        <time>2026-01-25T10:59:42Z</time>
      </trkpt>
      <trkpt lat="48.53159" lon="-2.79646">
        <ele>11.6</ele>
        <time>2026-01-25T10:59:43Z</time>
      </trkpt>
      <trkpt lat="48.53165" lon="-2.7965">
        <ele>11.6</ele>
        <time>2026-01-25T10:59:44Z</time>
      </trkpt>
      <trkpt lat="48.5317" lon="-2.79654">
        <ele>11.6</ele>
        <time>2026-01-25T10:59:45Z</time>
      </trkpt>
      <trkpt lat="48.53176" lon="-2.79657">
        <ele>12</ele>
        <time>2026-01-25T10:59:46Z</time>
      </trkpt>
      <trkpt lat="48.53182" lon="-2.79661">
        <ele>12.4</ele>
        <time>2026-01-25T10:59:47Z</time>
      </trkpt>
      <trkpt lat="48.53188" lon="-2.79664">
        <ele>12.4</ele>
        <time>2026-01-25T10:59:48Z</time>
      </trkpt>
      <trkpt lat="48.53194" lon="-2.79667">
        <ele>12.4</ele>
        <time>2026-01-25T10:59:49Z</time>
      </trkpt>
      <trkpt lat="48.532" lon="-2.7967">
        <ele>11.8</ele>
        <time>2026-01-25T10:59:50Z</time>
      </trkpt>
      <trkpt lat="48.53206" lon="-2.79672">
        <ele>11.8</ele>
        <time>2026-01-25T10:59:51Z</time>
      </trkpt>
      <trkpt lat="48.53212" lon="-2.79673">
        <ele>11.8</ele>
        <time>2026-01-25T10:59:52Z</time>
      </trkpt>
      <trkpt lat="48.53218" lon="-2.79674">
        <ele>11.8</ele>
        <time>2026-01-25T10:59:53Z</time>
      </trkpt>
      <trkpt lat="48.53224" lon="-2.79676">
        <ele>11.4</ele>
        <time>2026-01-25T10:59:54Z</time>
      </trkpt>
      <trkpt lat="48.5323" lon="-2.79678">
        <ele>11.2</ele>
        <time>2026-01-25T10:59:55Z</time>
      </trkpt>
      <trkpt lat="48.53236" lon="-2.7968">
        <ele>11.2</ele>
        <time>2026-01-25T10:59:56Z</time>
      </trkpt>
      <trkpt lat="48.53241" lon="-2.79684">
        <ele>11.2</ele>
        <time>2026-01-25T10:59:57Z</time>
      </trkpt>
      <trkpt lat="48.53247" lon="-2.79687">
        <ele>11.2</ele>
        <time>2026-01-25T10:59:58Z</time>
      </trkpt>
      <trkpt lat="48.53253" lon="-2.7969">
        <ele>11.6</ele>
        <time>2026-01-25T10:59:59Z</time>
      </trkpt>
      <trkpt lat="48.53258" lon="-2.79693">
        <ele>11.6</ele>
        <time>2026-01-25T11:00:00Z</time>
      </trkpt>
      <trkpt lat="48.53264" lon="-2.79697">
        <ele>11.6</ele>
        <time>2026-01-25T11:00:01Z</time>
      </trkpt>
      <trkpt lat="48.53269" lon="-2.79703">
        <ele>11.6</ele>
        <time>2026-01-25T11:00:02Z</time>
      </trkpt>
      <trkpt lat="48.53274" lon="-2.79708">
        <ele>11.2</ele>
        <time>2026-01-25T11:00:03Z</time>
      </trkpt>
      <trkpt lat="48.53279" lon="-2.79713">
        <ele>11.2</ele>
        <time>2026-01-25T11:00:04Z</time>
      </trkpt>
      <trkpt lat="48.53284" lon="-2.79719">
        <ele>11.2</ele>
        <time>2026-01-25T11:00:05Z</time>
      </trkpt>
      <trkpt lat="48.53289" lon="-2.79724">
        <ele>11</ele>
        <time>2026-01-25T11:00:06Z</time>
      </trkpt>
      <trkpt lat="48.53293" lon="-2.7973">
        <ele>11.4</ele>
        <time>2026-01-25T11:00:07Z</time>
      </trkpt>
      <trkpt lat="48.53297" lon="-2.79735">
        <ele>11.4</ele>
        <time>2026-01-25T11:00:08Z</time>
      </trkpt>
      <trkpt lat="48.53302" lon="-2.79742">
        <ele>11.4</ele>
        <time>2026-01-25T11:00:09Z</time>
      </trkpt>
      <trkpt lat="48.53306" lon="-2.79747">
        <ele>12.4</ele>
        <time>2026-01-25T11:00:10Z</time>
      </trkpt>
      <trkpt lat="48.53309" lon="-2.79754">
        <ele>13</ele>
        <time>2026-01-25T11:00:11Z</time>
      </trkpt>
      <trkpt lat="48.53313" lon="-2.7976">
        <ele>13</ele>
        <time>2026-01-25T11:00:12Z</time>
      </trkpt>
      <trkpt lat="48.53318" lon="-2.79765">
        <ele>13</ele>
        <time>2026-01-25T11:00:13Z</time>
      </trkpt>
      <trkpt lat="48.53321" lon="-2.79771">
        <ele>13</ele>
        <time>2026-01-25T11:00:14Z</time>
      </trkpt>
      <trkpt lat="48.53324" lon="-2.79778">
        <ele>12.6</ele>
        <time>2026-01-25T11:00:15Z</time>
      </trkpt>
      <trkpt lat="48.53327" lon="-2.79788">
        <ele>12.6</ele>
        <time>2026-01-25T11:00:16Z</time>
      </trkpt>
      <trkpt lat="48.53329" lon="-2.79797">
        <ele>12.6</ele>
        <time>2026-01-25T11:00:17Z</time>
      </trkpt>
      <trkpt lat="48.53329" lon="-2.79805">
        <ele>11.6</ele>
        <time>2026-01-25T11:00:18Z</time>
      </trkpt>
      <trkpt lat="48.53329" lon="-2.79812">
        <ele>11.2</ele>
        <time>2026-01-25T11:00:19Z</time>
      </trkpt>
      <trkpt lat="48.53328" lon="-2.79821">
        <ele>11.2</ele>
        <time>2026-01-25T11:00:20Z</time>
      </trkpt>
      <trkpt lat="48.53328" lon="-2.79828">
        <ele>11.2</ele>
        <time>2026-01-25T11:00:21Z</time>
      </trkpt>
      <trkpt lat="48.53326" lon="-2.79832">
        <ele>11</ele>
        <time>2026-01-25T11:00:22Z</time>
      </trkpt>
      <trkpt lat="48.53325" lon="-2.79838">
        <ele>11</ele>
        <time>2026-01-25T11:00:23Z</time>
      </trkpt>
      <trkpt lat="48.53324" lon="-2.79844">
        <ele>11</ele>
        <time>2026-01-25T11:00:24Z</time>
      </trkpt>
      <trkpt lat="48.53323" lon="-2.79852">
        <ele>11</ele>
        <time>2026-01-25T11:00:25Z</time>
      </trkpt>
      <trkpt lat="48.53322" lon="-2.79859">
        <ele>12</ele>
        <time>2026-01-25T11:00:26Z</time>
      </trkpt>
      <trkpt lat="48.53321" lon="-2.79863">
        <ele>12.6</ele>
        <time>2026-01-25T11:00:27Z</time>
      </trkpt>
      <trkpt lat="48.53318" lon="-2.79869">
        <ele>12.6</ele>
        <time>2026-01-25T11:00:28Z</time>
      </trkpt>
      <trkpt lat="48.53318" lon="-2.79869">
        <ele>12.6</ele>
        <time>2026-01-25T11:00:29Z</time>
      </trkpt>
      <trkpt lat="48.53314" lon="-2.79875">
        <ele>12.6</ele>
        <time>2026-01-25T11:00:30Z</time>
      </trkpt>
      <trkpt lat="48.53311" lon="-2.79881">
        <ele>14</ele>
        <time>2026-01-25T11:00:31Z</time>
      </trkpt>
      <trkpt lat="48.53308" lon="-2.79887">
        <ele>14</ele>
        <time>2026-01-25T11:00:32Z</time>
      </trkpt>
      <trkpt lat="48.53305" lon="-2.79894">
        <ele>14</ele>
        <time>2026-01-25T11:00:33Z</time>
      </trkpt>
      <trkpt lat="48.53302" lon="-2.79902">
        <ele>14</ele>
        <time>2026-01-25T11:00:34Z</time>
      </trkpt>
      <trkpt lat="48.53299" lon="-2.79909">
        <ele>14.8</ele>
        <time>2026-01-25T11:00:35Z</time>
      </trkpt>
      <trkpt lat="48.53296" lon="-2.79915">
        <ele>14.8</ele>
        <time>2026-01-25T11:00:36Z</time>
      </trkpt>
      <trkpt lat="48.53293" lon="-2.79921">
        <ele>14.8</ele>
        <time>2026-01-25T11:00:37Z</time>
      </trkpt>
      <trkpt lat="48.53288" lon="-2.79929">
        <ele>15.4</ele>
        <time>2026-01-25T11:00:38Z</time>
      </trkpt>
      <trkpt lat="48.53284" lon="-2.79936">
        <ele>15.6</ele>
        <time>2026-01-25T11:00:39Z</time>
      </trkpt>
      <trkpt lat="48.5328" lon="-2.79942">
        <ele>15.6</ele>
        <time>2026-01-25T11:00:40Z</time>
      </trkpt>
      <trkpt lat="48.53276" lon="-2.79949">
        <ele>15.6</ele>
        <time>2026-01-25T11:00:41Z</time>
      </trkpt>
      <trkpt lat="48.53272" lon="-2.79955">
        <ele>16.4</ele>
        <time>2026-01-25T11:00:42Z</time>
      </trkpt>
      <trkpt lat="48.53269" lon="-2.79961">
        <ele>16.4</ele>
        <time>2026-01-25T11:00:43Z</time>
      </trkpt>
      <trkpt lat="48.53265" lon="-2.79966">
        <ele>16.4</ele>
        <time>2026-01-25T11:00:44Z</time>
      </trkpt>
      <trkpt lat="48.53262" lon="-2.79972">
        <ele>16.4</ele>
        <time>2026-01-25T11:00:45Z</time>
      </trkpt>
      <trkpt lat="48.53258" lon="-2.79977">
        <ele>16.8</ele>
        <time>2026-01-25T11:00:46Z</time>
      </trkpt>
      <trkpt lat="48.53254" lon="-2.79981">
        <ele>16.6</ele>
        <time>2026-01-25T11:00:47Z</time>
      </trkpt>
      <trkpt lat="48.5325" lon="-2.79986">
        <ele>16.6</ele>
        <time>2026-01-25T11:00:48Z</time>
      </trkpt>
      <trkpt lat="48.53247" lon="-2.7999">
        <ele>16.6</ele>
        <time>2026-01-25T11:00:49Z</time>
      </trkpt>
      <trkpt lat="48.53243" lon="-2.79994">
        <ele>16.6</ele>
        <time>2026-01-25T11:00:50Z</time>
      </trkpt>
      <trkpt lat="48.53239" lon="-2.79998">
        <ele>16.6</ele>
        <time>2026-01-25T11:00:51Z</time>
      </trkpt>
      <trkpt lat="48.53236" lon="-2.80003">
        <ele>16.6</ele>
        <time>2026-01-25T11:00:52Z</time>
      </trkpt>
      <trkpt lat="48.53232" lon="-2.80007">
        <ele>16.6</ele>
        <time>2026-01-25T11:00:53Z</time>
      </trkpt>
      <trkpt lat="48.53228" lon="-2.80011">
        <ele>17.4</ele>
        <time>2026-01-25T11:00:54Z</time>
      </trkpt>
      <trkpt lat="48.53225" lon="-2.80016">
        <ele>17.4</ele>
        <time>2026-01-25T11:00:55Z</time>
      </trkpt>
      <trkpt lat="48.53221" lon="-2.8002">
        <ele>17.4</ele>
        <time>2026-01-25T11:00:56Z</time>
      </trkpt>
      <trkpt lat="48.53217" lon="-2.80024">
        <ele>17.4</ele>
        <time>2026-01-25T11:00:57Z</time>
      </trkpt>
      <trkpt lat="48.53213" lon="-2.80029">
        <ele>17.2</ele>
        <time>2026-01-25T11:00:58Z</time>
      </trkpt>
      <trkpt lat="48.53209" lon="-2.80034">
        <ele>16.8</ele>
        <time>2026-01-25T11:00:59Z</time>
      </trkpt>
      <trkpt lat="48.53206" lon="-2.8004">
        <ele>16.8</ele>
        <time>2026-01-25T11:01:00Z</time>
      </trkpt>
      <trkpt lat="48.53202" lon="-2.80046">
        <ele>16.8</ele>
        <time>2026-01-25T11:01:01Z</time>
      </trkpt>
      <trkpt lat="48.53199" lon="-2.80052">
        <ele>16.8</ele>
        <time>2026-01-25T11:01:02Z</time>
      </trkpt>
      <trkpt lat="48.53195" lon="-2.80058">
        <ele>16.6</ele>
        <time>2026-01-25T11:01:03Z</time>
      </trkpt>
      <trkpt lat="48.53192" lon="-2.80065">
        <ele>16.6</ele>
        <time>2026-01-25T11:01:04Z</time>
      </trkpt>
      <trkpt lat="48.53188" lon="-2.80072">
        <ele>16.6</ele>
        <time>2026-01-25T11:01:05Z</time>
      </trkpt>
      <trkpt lat="48.53185" lon="-2.8008">
        <ele>16</ele>
        <time>2026-01-25T11:01:06Z</time>
      </trkpt>
      <trkpt lat="48.53182" lon="-2.80088">
        <ele>15.6</ele>
        <time>2026-01-25T11:01:07Z</time>
      </trkpt>
      <trkpt lat="48.53178" lon="-2.80096">
        <ele>15.6</ele>
        <time>2026-01-25T11:01:08Z</time>
      </trkpt>
      <trkpt lat="48.53175" lon="-2.80104">
        <ele>15.6</ele>
        <time>2026-01-25T11:01:09Z</time>
      </trkpt>
      <trkpt lat="48.53172" lon="-2.80113">
        <ele>15.6</ele>
        <time>2026-01-25T11:01:10Z</time>
      </trkpt>
      <trkpt lat="48.53169" lon="-2.80121">
        <ele>15</ele>
        <time>2026-01-25T11:01:11Z</time>
      </trkpt>
      <trkpt lat="48.53166" lon="-2.80129">
        <ele>15</ele>
        <time>2026-01-25T11:01:12Z</time>
      </trkpt>
      <trkpt lat="48.53162" lon="-2.80138">
        <ele>15</ele>
        <time>2026-01-25T11:01:13Z</time>
      </trkpt>
      <trkpt lat="48.53159" lon="-2.80148">
        <ele>15</ele>
        <time>2026-01-25T11:01:14Z</time>
      </trkpt>
      <trkpt lat="48.53157" lon="-2.80158">
        <ele>14.4</ele>
        <time>2026-01-25T11:01:15Z</time>
      </trkpt>
      <trkpt lat="48.53157" lon="-2.80168">
        <ele>14.4</ele>
        <time>2026-01-25T11:01:16Z</time>
      </trkpt>
      <trkpt lat="48.53158" lon="-2.80178">
        <ele>14.4</ele>
        <time>2026-01-25T11:01:17Z</time>
      </trkpt>
      <trkpt lat="48.53161" lon="-2.80186">
        <ele>14.4</ele>
        <time>2026-01-25T11:01:18Z</time>
      </trkpt>
      <trkpt lat="48.53164" lon="-2.80194">
        <ele>15.6</ele>
        <time>2026-01-25T11:01:19Z</time>
      </trkpt>
      <trkpt lat="48.53169" lon="-2.802">
        <ele>15.6</ele>
        <time>2026-01-25T11:01:20Z</time>
      </trkpt>
      <trkpt lat="48.53174" lon="-2.80204">
        <ele>15.6</ele>
        <time>2026-01-25T11:01:21Z</time>
      </trkpt>
      <trkpt lat="48.5318" lon="-2.80206">
        <ele>15.6</ele>
        <time>2026-01-25T11:01:22Z</time>
      </trkpt>
      <trkpt lat="48.53185" lon="-2.80207">
        <ele>15.8</ele>
        <time>2026-01-25T11:01:23Z</time>
      </trkpt>
      <trkpt lat="48.53191" lon="-2.80206">
        <ele>15.8</ele>
        <time>2026-01-25T11:01:24Z</time>
      </trkpt>
      <trkpt lat="48.53196" lon="-2.80205">
        <ele>15.8</ele>
        <time>2026-01-25T11:01:25Z</time>
      </trkpt>
      <trkpt lat="48.53202" lon="-2.80202">
        <ele>15.8</ele>
        <time>2026-01-25T11:01:26Z</time>
      </trkpt>
      <trkpt lat="48.53207" lon="-2.80198">
        <ele>15.6</ele>
        <time>2026-01-25T11:01:27Z</time>
      </trkpt>
      <trkpt lat="48.53213" lon="-2.80194">
        <ele>15.6</ele>
        <time>2026-01-25T11:01:28Z</time>
      </trkpt>
      <trkpt lat="48.53218" lon="-2.8019">
        <ele>15.6</ele>
        <time>2026-01-25T11:01:29Z</time>
      </trkpt>
      <trkpt lat="48.53224" lon="-2.80187">
        <ele>15.6</ele>
        <time>2026-01-25T11:01:30Z</time>
      </trkpt>
      <trkpt lat="48.5323" lon="-2.80186">
        <ele>15</ele>
        <time>2026-01-25T11:01:31Z</time>
      </trkpt>
      <trkpt lat="48.53236" lon="-2.80186">
        <ele>15</ele>
        <time>2026-01-25T11:01:32Z</time>
      </trkpt>
      <trkpt lat="48.53242" lon="-2.80189">
        <ele>15</ele>
        <time>2026-01-25T11:01:33Z</time>
      </trkpt>
      <trkpt lat="48.53248" lon="-2.80193">
        <ele>15</ele>
        <time>2026-01-25T11:01:34Z</time>
      </trkpt>
      <trkpt lat="48.53254" lon="-2.80199">
        <ele>14.8</ele>
        <time>2026-01-25T11:01:35Z</time>
      </trkpt>
      <trkpt lat="48.53259" lon="-2.80205">
        <ele>14.8</ele>
        <time>2026-01-25T11:01:36Z</time>
      </trkpt>
      <trkpt lat="48.53264" lon="-2.80211">
        <ele>14.8</ele>
        <time>2026-01-25T11:01:37Z</time>
      </trkpt>
      <trkpt lat="48.53268" lon="-2.80217">
        <ele>14.8</ele>
        <time>2026-01-25T11:01:38Z</time>
      </trkpt>
      <trkpt lat="48.53272" lon="-2.80222">
        <ele>16</ele>
        <time>2026-01-25T11:01:39Z</time>
      </trkpt>
      <trkpt lat="48.53276" lon="-2.80228">
        <ele>16</ele>
        <time>2026-01-25T11:01:40Z</time>
      </trkpt>
      <trkpt lat="48.53279" lon="-2.80233">
        <ele>16</ele>
        <time>2026-01-25T11:01:41Z</time>
      </trkpt>
      <trkpt lat="48.53283" lon="-2.8024">
        <ele>16</ele>
        <time>2026-01-25T11:01:42Z</time>
      </trkpt>
      <trkpt lat="48.53286" lon="-2.80247">
        <ele>16.8</ele>
        <time>2026-01-25T11:01:43Z</time>
      </trkpt>
      <trkpt lat="48.53288" lon="-2.80253">
        <ele>16.8</ele>
        <time>2026-01-25T11:01:44Z</time>
      </trkpt>
      <trkpt lat="48.53291" lon="-2.80258">
        <ele>16.8</ele>
        <time>2026-01-25T11:01:45Z</time>
      </trkpt>
      <trkpt lat="48.53293" lon="-2.80263">
        <ele>17.4</ele>
        <time>2026-01-25T11:01:46Z</time>
      </trkpt>
      <trkpt lat="48.53295" lon="-2.80269">
        <ele>17.4</ele>
        <time>2026-01-25T11:01:47Z</time>
      </trkpt>
      <trkpt lat="48.53298" lon="-2.80275">
        <ele>17.4</ele>
        <time>2026-01-25T11:01:48Z</time>
      </trkpt>
      <trkpt lat="48.53301" lon="-2.80282">
        <ele>17.4</ele>
        <time>2026-01-25T11:01:49Z</time>
      </trkpt>
      <trkpt lat="48.53304" lon="-2.8029">
        <ele>18.2</ele>
        <time>2026-01-25T11:01:50Z</time>
      </trkpt>
      <trkpt lat="48.53306" lon="-2.80297">
        <ele>18.8</ele>
        <time>2026-01-25T11:01:51Z</time>
      </trkpt>
      <trkpt lat="48.53308" lon="-2.80304">
        <ele>18.8</ele>
        <time>2026-01-25T11:01:52Z</time>
      </trkpt>
      <trkpt lat="48.53311" lon="-2.80311">
        <ele>18.8</ele>
        <time>2026-01-25T11:01:53Z</time>
      </trkpt>
      <trkpt lat="48.53313" lon="-2.80318">
        <ele>18.6</ele>
        <time>2026-01-25T11:01:54Z</time>
      </trkpt>
      <trkpt lat="48.53315" lon="-2.80325">
        <ele>18.8</ele>
        <time>2026-01-25T11:01:55Z</time>
      </trkpt>
      <trkpt lat="48.53318" lon="-2.80332">
        <ele>18.8</ele>
        <time>2026-01-25T11:01:56Z</time>
      </trkpt>
      <trkpt lat="48.5332" lon="-2.80339">
        <ele>18.8</ele>
        <time>2026-01-25T11:01:57Z</time>
      </trkpt>
      <trkpt lat="48.53322" lon="-2.80347">
        <ele>19.6</ele>
        <time>2026-01-25T11:01:58Z</time>
      </trkpt>
      <trkpt lat="48.53324" lon="-2.80355">
        <ele>19.8</ele>
        <time>2026-01-25T11:01:59Z</time>
      </trkpt>
      <trkpt lat="48.53326" lon="-2.80363">
        <ele>19.8</ele>
        <time>2026-01-25T11:02:00Z</time>
      </trkpt>
      <trkpt lat="48.53328" lon="-2.80371">
        <ele>19.8</ele>
        <time>2026-01-25T11:02:01Z</time>
      </trkpt>
      <trkpt lat="48.53329" lon="-2.8038">
        <ele>19.8</ele>
        <time>2026-01-25T11:02:02Z</time>
      </trkpt>
      <trkpt lat="48.53331" lon="-2.80387">
        <ele>19.8</ele>
        <time>2026-01-25T11:02:03Z</time>
      </trkpt>
      <trkpt lat="48.53333" lon="-2.80395">
        <ele>19.8</ele>
        <time>2026-01-25T11:02:04Z</time>
      </trkpt>
      <trkpt lat="48.53334" lon="-2.80403">
        <ele>19.8</ele>
        <time>2026-01-25T11:02:05Z</time>
      </trkpt>
      <trkpt lat="48.53336" lon="-2.80411">
        <ele>19.8</ele>
        <time>2026-01-25T11:02:06Z</time>
      </trkpt>
      <trkpt lat="48.53337" lon="-2.8042">
        <ele>19.8</ele>
        <time>2026-01-25T11:02:07Z</time>
      </trkpt>
      <trkpt lat="48.53338" lon="-2.80428">
        <ele>19.8</ele>
        <time>2026-01-25T11:02:08Z</time>
      </trkpt>
      <trkpt lat="48.53339" lon="-2.80437">
        <ele>19.8</ele>
        <time>2026-01-25T11:02:09Z</time>
      </trkpt>
      <trkpt lat="48.53339" lon="-2.80446">
        <ele>19.8</ele>
        <time>2026-01-25T11:02:10Z</time>
      </trkpt>
      <trkpt lat="48.5334" lon="-2.80455">
        <ele>19.8</ele>
        <time>2026-01-25T11:02:11Z</time>
      </trkpt>
      <trkpt lat="48.5334" lon="-2.80464">
        <ele>19.8</ele>
        <time>2026-01-25T11:02:12Z</time>
      </trkpt>
      <trkpt lat="48.5334" lon="-2.80473">
        <ele>19.8</ele>
        <time>2026-01-25T11:02:13Z</time>
      </trkpt>
      <trkpt lat="48.53341" lon="-2.80481">
        <ele>19.2</ele>
        <time>2026-01-25T11:02:14Z</time>
      </trkpt>
      <trkpt lat="48.53341" lon="-2.80491">
        <ele>19</ele>
        <time>2026-01-25T11:02:15Z</time>
      </trkpt>
      <trkpt lat="48.53341" lon="-2.80501">
        <ele>19</ele>
        <time>2026-01-25T11:02:16Z</time>
      </trkpt>
      <trkpt lat="48.53341" lon="-2.80512">
        <ele>19</ele>
        <time>2026-01-25T11:02:17Z</time>
      </trkpt>
      <trkpt lat="48.53341" lon="-2.80522">
        <ele>19.2</ele>
        <time>2026-01-25T11:02:18Z</time>
      </trkpt>
      <trkpt lat="48.5334" lon="-2.80531">
        <ele>19.4</ele>
        <time>2026-01-25T11:02:19Z</time>
      </trkpt>
      <trkpt lat="48.5334" lon="-2.80541">
        <ele>19.4</ele>
        <time>2026-01-25T11:02:20Z</time>
      </trkpt>
      <trkpt lat="48.5334" lon="-2.80551">
        <ele>19.4</ele>
        <time>2026-01-25T11:02:21Z</time>
      </trkpt>
      <trkpt lat="48.53339" lon="-2.80562">
        <ele>19</ele>
        <time>2026-01-25T11:02:22Z</time>
      </trkpt>
      <trkpt lat="48.53339" lon="-2.80571">
        <ele>19</ele>
        <time>2026-01-25T11:02:23Z</time>
      </trkpt>
      <trkpt lat="48.53338" lon="-2.80582">
        <ele>19</ele>
        <time>2026-01-25T11:02:24Z</time>
      </trkpt>
      <trkpt lat="48.53337" lon="-2.80593">
        <ele>19</ele>
        <time>2026-01-25T11:02:25Z</time>
      </trkpt>
      <trkpt lat="48.53335" lon="-2.80603">
        <ele>18</ele>
        <time>2026-01-25T11:02:26Z</time>
      </trkpt>
      <trkpt lat="48.53334" lon="-2.80614">
        <ele>18</ele>
        <time>2026-01-25T11:02:27Z</time>
      </trkpt>
      <trkpt lat="48.53332" lon="-2.80624">
        <ele>18</ele>
        <time>2026-01-25T11:02:28Z</time>
      </trkpt>
      <trkpt lat="48.5333" lon="-2.80634">
        <ele>18</ele>
        <time>2026-01-25T11:02:29Z</time>
      </trkpt>
      <trkpt lat="48.53328" lon="-2.80643">
        <ele>18</ele>
        <time>2026-01-25T11:02:30Z</time>
      </trkpt>
      <trkpt lat="48.53326" lon="-2.80652">
        <ele>18.4</ele>
        <time>2026-01-25T11:02:31Z</time>
      </trkpt>
      <trkpt lat="48.53324" lon="-2.80662">
        <ele>18.4</ele>
        <time>2026-01-25T11:02:32Z</time>
      </trkpt>
      <trkpt lat="48.53321" lon="-2.80672">
        <ele>18.4</ele>
        <time>2026-01-25T11:02:33Z</time>
      </trkpt>
      <trkpt lat="48.53319" lon="-2.80681">
        <ele>19.2</ele>
        <time>2026-01-25T11:02:34Z</time>
      </trkpt>
      <trkpt lat="48.53315" lon="-2.80689">
        <ele>19.6</ele>
        <time>2026-01-25T11:02:35Z</time>
      </trkpt>
      <trkpt lat="48.53312" lon="-2.80699">
        <ele>19.6</ele>
        <time>2026-01-25T11:02:36Z</time>
      </trkpt>
      <trkpt lat="48.53308" lon="-2.80708">
        <ele>19.6</ele>
        <time>2026-01-25T11:02:37Z</time>
      </trkpt>
      <trkpt lat="48.53305" lon="-2.80716">
        <ele>19.6</ele>
        <time>2026-01-25T11:02:38Z</time>
      </trkpt>
      <trkpt lat="48.53301" lon="-2.80725">
        <ele>19.4</ele>
        <time>2026-01-25T11:02:39Z</time>
      </trkpt>
      <trkpt lat="48.53297" lon="-2.80733">
        <ele>19.4</ele>
        <time>2026-01-25T11:02:40Z</time>
      </trkpt>
      <trkpt lat="48.53294" lon="-2.80741">
        <ele>19.4</ele>
        <time>2026-01-25T11:02:41Z</time>
      </trkpt>
      <trkpt lat="48.5329" lon="-2.80749">
        <ele>19.2</ele>
        <time>2026-01-25T11:02:42Z</time>
      </trkpt>
      <trkpt lat="48.53286" lon="-2.80758">
        <ele>19.2</ele>
        <time>2026-01-25T11:02:43Z</time>
      </trkpt>
      <trkpt lat="48.53282" lon="-2.80766">
        <ele>19.2</ele>
        <time>2026-01-25T11:02:44Z</time>
      </trkpt>
      <trkpt lat="48.53279" lon="-2.80774">
        <ele>19.2</ele>
        <time>2026-01-25T11:02:45Z</time>
      </trkpt>
      <trkpt lat="48.53275" lon="-2.80782">
        <ele>19.2</ele>
        <time>2026-01-25T11:02:46Z</time>
      </trkpt>
      <trkpt lat="48.53272" lon="-2.8079">
        <ele>19.6</ele>
        <time>2026-01-25T11:02:47Z</time>
      </trkpt>
      <trkpt lat="48.53268" lon="-2.80798">
        <ele>19.6</ele>
        <time>2026-01-25T11:02:48Z</time>
      </trkpt>
      <trkpt lat="48.53265" lon="-2.80805">
        <ele>19.6</ele>
        <time>2026-01-25T11:02:49Z</time>
      </trkpt>
      <trkpt lat="48.53261" lon="-2.80813">
        <ele>19.6</ele>
        <time>2026-01-25T11:02:50Z</time>
      </trkpt>
      <trkpt lat="48.53257" lon="-2.8082">
        <ele>20.2</ele>
        <time>2026-01-25T11:02:51Z</time>
      </trkpt>
      <trkpt lat="48.53253" lon="-2.80826">
        <ele>20.2</ele>
        <time>2026-01-25T11:02:52Z</time>
      </trkpt>
      <trkpt lat="48.5325" lon="-2.80833">
        <ele>20.2</ele>
        <time>2026-01-25T11:02:53Z</time>
      </trkpt>
      <trkpt lat="48.53246" lon="-2.80839">
        <ele>20.8</ele>
        <time>2026-01-25T11:02:54Z</time>
      </trkpt>
      <trkpt lat="48.53243" lon="-2.80845">
        <ele>21.4</ele>
        <time>2026-01-25T11:02:55Z</time>
      </trkpt>
      <trkpt lat="48.53239" lon="-2.8085">
        <ele>21.4</ele>
        <time>2026-01-25T11:02:56Z</time>
      </trkpt>
      <trkpt lat="48.53235" lon="-2.80855">
        <ele>21.4</ele>
        <time>2026-01-25T11:02:57Z</time>
      </trkpt>
      <trkpt lat="48.53231" lon="-2.8086">
        <ele>22</ele>
        <time>2026-01-25T11:02:58Z</time>
      </trkpt>
      <trkpt lat="48.53227" lon="-2.80866">
        <ele>22.4</ele>
        <time>2026-01-25T11:02:59Z</time>
      </trkpt>
      <trkpt lat="48.53223" lon="-2.80872">
        <ele>22.4</ele>
        <time>2026-01-25T11:03:00Z</time>
      </trkpt>
      <trkpt lat="48.53219" lon="-2.80878">
        <ele>22.4</ele>
        <time>2026-01-25T11:03:01Z</time>
      </trkpt>
      <trkpt lat="48.53214" lon="-2.80882">
        <ele>23.4</ele>
        <time>2026-01-25T11:03:02Z</time>
      </trkpt>
      <trkpt lat="48.53209" lon="-2.80887">
        <ele>24</ele>
        <time>2026-01-25T11:03:03Z</time>
      </trkpt>
      <trkpt lat="48.53205" lon="-2.80891">
        <ele>24</ele>
        <time>2026-01-25T11:03:04Z</time>
      </trkpt>
      <trkpt lat="48.532" lon="-2.80896">
        <ele>24</ele>
        <time>2026-01-25T11:03:05Z</time>
      </trkpt>
      <trkpt lat="48.53196" lon="-2.809">
        <ele>25</ele>
        <time>2026-01-25T11:03:06Z</time>
      </trkpt>
      <trkpt lat="48.53192" lon="-2.80904">
        <ele>25.4</ele>
        <time>2026-01-25T11:03:07Z</time>
      </trkpt>
      <trkpt lat="48.53188" lon="-2.80908">
        <ele>25.4</ele>
        <time>2026-01-25T11:03:08Z</time>
      </trkpt>
      <trkpt lat="48.53184" lon="-2.80912">
        <ele>25.4</ele>
        <time>2026-01-25T11:03:09Z</time>
      </trkpt>
      <trkpt lat="48.5318" lon="-2.80917">
        <ele>25.4</ele>
        <time>2026-01-25T11:03:10Z</time>
      </trkpt>
      <trkpt lat="48.53176" lon="-2.8092">
        <ele>25.4</ele>
        <time>2026-01-25T11:03:11Z</time>
      </trkpt>
      <trkpt lat="48.53172" lon="-2.80924">
        <ele>25.4</ele>
        <time>2026-01-25T11:03:12Z</time>
      </trkpt>
      <trkpt lat="48.53168" lon="-2.80927">
        <ele>25.4</ele>
        <time>2026-01-25T11:03:13Z</time>
      </trkpt>
      <trkpt lat="48.53163" lon="-2.80931">
        <ele>25.8</ele>
        <time>2026-01-25T11:03:14Z</time>
      </trkpt>
      <trkpt lat="48.53159" lon="-2.80934">
        <ele>25.8</ele>
        <time>2026-01-25T11:03:15Z</time>
      </trkpt>
      <trkpt lat="48.53155" lon="-2.80938">
        <ele>25.8</ele>
        <time>2026-01-25T11:03:16Z</time>
      </trkpt>
      <trkpt lat="48.53151" lon="-2.80942">
        <ele>25.8</ele>
        <time>2026-01-25T11:03:17Z</time>
      </trkpt>
      <trkpt lat="48.53147" lon="-2.80946">
        <ele>25.8</ele>
        <time>2026-01-25T11:03:18Z</time>
      </trkpt>
      <trkpt lat="48.53143" lon="-2.8095">
        <ele>25.8</ele>
        <time>2026-01-25T11:03:19Z</time>
      </trkpt>
      <trkpt lat="48.53138" lon="-2.80954">
        <ele>25.8</ele>
        <time>2026-01-25T11:03:20Z</time>
      </trkpt>
      <trkpt lat="48.53134" lon="-2.80958">
        <ele>25.8</ele>
        <time>2026-01-25T11:03:21Z</time>
      </trkpt>
      <trkpt lat="48.53129" lon="-2.80962">
        <ele>25.8</ele>
        <time>2026-01-25T11:03:22Z</time>
      </trkpt>
      <trkpt lat="48.53125" lon="-2.80966">
        <ele>25.8</ele>
        <time>2026-01-25T11:03:23Z</time>
      </trkpt>
      <trkpt lat="48.5312" lon="-2.80969">
        <ele>25.8</ele>
        <time>2026-01-25T11:03:24Z</time>
      </trkpt>
      <trkpt lat="48.53115" lon="-2.80973">
        <ele>25.8</ele>
        <time>2026-01-25T11:03:25Z</time>
      </trkpt>
      <trkpt lat="48.53111" lon="-2.80976">
        <ele>25.8</ele>
        <time>2026-01-25T11:03:26Z</time>
      </trkpt>
      <trkpt lat="48.53106" lon="-2.80979">
        <ele>25.6</ele>
        <time>2026-01-25T11:03:27Z</time>
      </trkpt>
      <trkpt lat="48.53101" lon="-2.80982">
        <ele>25.6</ele>
        <time>2026-01-25T11:03:28Z</time>
      </trkpt>
      <trkpt lat="48.53096" lon="-2.80985">
        <ele>25.6</ele>
        <time>2026-01-25T11:03:29Z</time>
      </trkpt>
      <trkpt lat="48.53092" lon="-2.80988">
        <ele>26.2</ele>
        <time>2026-01-25T11:03:30Z</time>
      </trkpt>
      <trkpt lat="48.53087" lon="-2.80992">
        <ele>26</ele>
        <time>2026-01-25T11:03:31Z</time>
      </trkpt>
      <trkpt lat="48.53083" lon="-2.80994">
        <ele>26</ele>
        <time>2026-01-25T11:03:32Z</time>
      </trkpt>
      <trkpt lat="48.53078" lon="-2.80997">
        <ele>26</ele>
        <time>2026-01-25T11:03:33Z</time>
      </trkpt>
      <trkpt lat="48.53073" lon="-2.80999">
        <ele>26</ele>
        <time>2026-01-25T11:03:34Z</time>
      </trkpt>
      <trkpt lat="48.53069" lon="-2.81002">
        <ele>26.4</ele>
        <time>2026-01-25T11:03:35Z</time>
      </trkpt>
      <trkpt lat="48.53064" lon="-2.81005">
        <ele>26.4</ele>
        <time>2026-01-25T11:03:36Z</time>
      </trkpt>
      <trkpt lat="48.53059" lon="-2.81008">
        <ele>26.4</ele>
        <time>2026-01-25T11:03:37Z</time>
      </trkpt>
      <trkpt lat="48.53055" lon="-2.8101">
        <ele>26.4</ele>
        <time>2026-01-25T11:03:38Z</time>
      </trkpt>
      <trkpt lat="48.5305" lon="-2.81012">
        <ele>27</ele>
        <time>2026-01-25T11:03:39Z</time>
      </trkpt>
      <trkpt lat="48.53046" lon="-2.81014">
        <ele>27</ele>
        <time>2026-01-25T11:03:40Z</time>
      </trkpt>
      <trkpt lat="48.53041" lon="-2.81016">
        <ele>27</ele>
        <time>2026-01-25T11:03:41Z</time>
      </trkpt>
      <trkpt lat="48.53036" lon="-2.81018">
        <ele>27</ele>
        <time>2026-01-25T11:03:42Z</time>
      </trkpt>
      <trkpt lat="48.53032" lon="-2.8102">
        <ele>27.2</ele>
        <time>2026-01-25T11:03:43Z</time>
      </trkpt>
      <trkpt lat="48.53027" lon="-2.81023">
        <ele>27.2</ele>
        <time>2026-01-25T11:03:44Z</time>
      </trkpt>
      <trkpt lat="48.53023" lon="-2.81027">
        <ele>27.2</ele>
        <time>2026-01-25T11:03:45Z</time>
      </trkpt>
      <trkpt lat="48.53018" lon="-2.8103">
        <ele>27.2</ele>
        <time>2026-01-25T11:03:46Z</time>
      </trkpt>
      <trkpt lat="48.53014" lon="-2.81034">
        <ele>27.2</ele>
        <time>2026-01-25T11:03:47Z</time>
      </trkpt>
      <trkpt lat="48.53009" lon="-2.81038">
        <ele>27.2</ele>
        <time>2026-01-25T11:03:48Z</time>
      </trkpt>
      <trkpt lat="48.53005" lon="-2.81043">
        <ele>27.2</ele>
        <time>2026-01-25T11:03:49Z</time>
      </trkpt>
      <trkpt lat="48.53001" lon="-2.81047">
        <ele>27.2</ele>
        <time>2026-01-25T11:03:50Z</time>
      </trkpt>
      <trkpt lat="48.52996" lon="-2.81052">
        <ele>27.2</ele>
        <time>2026-01-25T11:03:51Z</time>
      </trkpt>
      <trkpt lat="48.52992" lon="-2.81058">
        <ele>27.2</ele>
        <time>2026-01-25T11:03:52Z</time>
      </trkpt>
      <trkpt lat="48.52989" lon="-2.81064">
        <ele>27.2</ele>
        <time>2026-01-25T11:03:53Z</time>
      </trkpt>
      <trkpt lat="48.52985" lon="-2.8107">
        <ele>27.2</ele>
        <time>2026-01-25T11:03:54Z</time>
      </trkpt>
      <trkpt lat="48.52982" lon="-2.81077">
        <ele>27</ele>
        <time>2026-01-25T11:03:55Z</time>
      </trkpt>
      <trkpt lat="48.52979" lon="-2.81084">
        <ele>27</ele>
        <time>2026-01-25T11:03:56Z</time>
      </trkpt>
      <trkpt lat="48.52976" lon="-2.81091">
        <ele>27</ele>
        <time>2026-01-25T11:03:57Z</time>
      </trkpt>
      <trkpt lat="48.52974" lon="-2.811">
        <ele>26.6</ele>
        <time>2026-01-25T11:03:58Z</time>
      </trkpt>
      <trkpt lat="48.52971" lon="-2.81108">
        <ele>26.2</ele>
        <time>2026-01-25T11:03:59Z</time>
      </trkpt>
      <trkpt lat="48.5297" lon="-2.81117">
        <ele>26.2</ele>
        <time>2026-01-25T11:04:00Z</time>
      </trkpt>
      <trkpt lat="48.52968" lon="-2.81127">
        <ele>26.2</ele>
        <time>2026-01-25T11:04:01Z</time>
      </trkpt>
      <trkpt lat="48.52968" lon="-2.81137">
        <ele>26.2</ele>
        <time>2026-01-25T11:04:02Z</time>
      </trkpt>
      <trkpt lat="48.52967" lon="-2.81147">
        <ele>25.2</ele>
        <time>2026-01-25T11:04:03Z</time>
      </trkpt>
      <trkpt lat="48.52967" lon="-2.81157">
        <ele>25.2</ele>
        <time>2026-01-25T11:04:04Z</time>
      </trkpt>
      <trkpt lat="48.52968" lon="-2.81168">
        <ele>25.2</ele>
        <time>2026-01-25T11:04:05Z</time>
      </trkpt>
      <trkpt lat="48.52969" lon="-2.81179">
        <ele>24.2</ele>
        <time>2026-01-25T11:04:06Z</time>
      </trkpt>
      <trkpt lat="48.52971" lon="-2.81189">
        <ele>23</ele>
        <time>2026-01-25T11:04:07Z</time>
      </trkpt>
      <trkpt lat="48.52973" lon="-2.812">
        <ele>23</ele>
        <time>2026-01-25T11:04:08Z</time>
      </trkpt>
      <trkpt lat="48.52975" lon="-2.81211">
        <ele>23</ele>
        <time>2026-01-25T11:04:09Z</time>
      </trkpt>
      <trkpt lat="48.52977" lon="-2.81222">
        <ele>22</ele>
        <time>2026-01-25T11:04:10Z</time>
      </trkpt>
      <trkpt lat="48.52979" lon="-2.81233">
        <ele>20.8</ele>
        <time>2026-01-25T11:04:11Z</time>
      </trkpt>
      <trkpt lat="48.52982" lon="-2.81245">
        <ele>20.8</ele>
        <time>2026-01-25T11:04:12Z</time>
      </trkpt>
      <trkpt lat="48.52984" lon="-2.81256">
        <ele>20.8</ele>
        <time>2026-01-25T11:04:13Z</time>
      </trkpt>
      <trkpt lat="48.52986" lon="-2.81267">
        <ele>20.8</ele>
        <time>2026-01-25T11:04:14Z</time>
      </trkpt>
      <trkpt lat="48.52989" lon="-2.81278">
        <ele>21</ele>
        <time>2026-01-25T11:04:15Z</time>
      </trkpt>
      <trkpt lat="48.5299" lon="-2.8129">
        <ele>21</ele>
        <time>2026-01-25T11:04:16Z</time>
      </trkpt>
      <trkpt lat="48.52993" lon="-2.81302">
        <ele>21</ele>
        <time>2026-01-25T11:04:17Z</time>
      </trkpt>
      <trkpt lat="48.52996" lon="-2.81312">
        <ele>22</ele>
        <time>2026-01-25T11:04:18Z</time>
      </trkpt>
      <trkpt lat="48.52998" lon="-2.81321">
        <ele>22.8</ele>
        <time>2026-01-25T11:04:19Z</time>
      </trkpt>
      <trkpt lat="48.52999" lon="-2.8133">
        <ele>22.8</ele>
        <time>2026-01-25T11:04:20Z</time>
      </trkpt>
      <trkpt lat="48.53" lon="-2.81339">
        <ele>22.8</ele>
        <time>2026-01-25T11:04:21Z</time>
      </trkpt>
      <trkpt lat="48.53002" lon="-2.81348">
        <ele>23.8</ele>
        <time>2026-01-25T11:04:22Z</time>
      </trkpt>
      <trkpt lat="48.53004" lon="-2.81359">
        <ele>24</ele>
        <time>2026-01-25T11:04:23Z</time>
      </trkpt>
      <trkpt lat="48.53005" lon="-2.81368">
        <ele>24</ele>
        <time>2026-01-25T11:04:24Z</time>
      </trkpt>
      <trkpt lat="48.53006" lon="-2.81378">
        <ele>24</ele>
        <time>2026-01-25T11:04:25Z</time>
      </trkpt>
      <trkpt lat="48.53007" lon="-2.81387">
        <ele>24.8</ele>
        <time>2026-01-25T11:04:26Z</time>
      </trkpt>
      <trkpt lat="48.53008" lon="-2.81396">
        <ele>25.4</ele>
        <time>2026-01-25T11:04:27Z</time>
      </trkpt>
      <trkpt lat="48.53008" lon="-2.81406">
        <ele>25.4</ele>
        <time>2026-01-25T11:04:28Z</time>
      </trkpt>
      <trkpt lat="48.53008" lon="-2.81416">
        <ele>25.4</ele>
        <time>2026-01-25T11:04:29Z</time>
      </trkpt>
      <trkpt lat="48.53008" lon="-2.81425">
        <ele>26</ele>
        <time>2026-01-25T11:04:30Z</time>
      </trkpt>
      <trkpt lat="48.53007" lon="-2.81435">
        <ele>26</ele>
        <time>2026-01-25T11:04:31Z</time>
      </trkpt>
      <trkpt lat="48.53006" lon="-2.81444">
        <ele>26</ele>
        <time>2026-01-25T11:04:32Z</time>
      </trkpt>
      <trkpt lat="48.53005" lon="-2.81452">
        <ele>26</ele>
        <time>2026-01-25T11:04:33Z</time>
      </trkpt>
      <trkpt lat="48.53003" lon="-2.81461">
        <ele>25.6</ele>
        <time>2026-01-25T11:04:34Z</time>
      </trkpt>
      <trkpt lat="48.53002" lon="-2.8147">
        <ele>26</ele>
        <time>2026-01-25T11:04:35Z</time>
      </trkpt>
      <trkpt lat="48.53001" lon="-2.81479">
        <ele>26</ele>
        <time>2026-01-25T11:04:36Z</time>
      </trkpt>
      <trkpt lat="48.53" lon="-2.81487">
        <ele>26</ele>
        <time>2026-01-25T11:04:37Z</time>
      </trkpt>
      <trkpt lat="48.52998" lon="-2.81495">
        <ele>25.2</ele>
        <time>2026-01-25T11:04:38Z</time>
      </trkpt>
      <trkpt lat="48.52995" lon="-2.81504">
        <ele>24.8</ele>
        <time>2026-01-25T11:04:39Z</time>
      </trkpt>
      <trkpt lat="48.52993" lon="-2.81513">
        <ele>24.8</ele>
        <time>2026-01-25T11:04:40Z</time>
      </trkpt>
      <trkpt lat="48.52991" lon="-2.81522">
        <ele>24.8</ele>
        <time>2026-01-25T11:04:41Z</time>
      </trkpt>
      <trkpt lat="48.52988" lon="-2.81532">
        <ele>24.8</ele>
        <time>2026-01-25T11:04:42Z</time>
      </trkpt>
      <trkpt lat="48.52985" lon="-2.81541">
        <ele>23.8</ele>
        <time>2026-01-25T11:04:43Z</time>
      </trkpt>
      <trkpt lat="48.52982" lon="-2.81552">
        <ele>23.8</ele>
        <time>2026-01-25T11:04:44Z</time>
      </trkpt>
      <trkpt lat="48.52979" lon="-2.81563">
        <ele>23.8</ele>
        <time>2026-01-25T11:04:45Z</time>
      </trkpt>
      <trkpt lat="48.52977" lon="-2.81573">
        <ele>23.8</ele>
        <time>2026-01-25T11:04:46Z</time>
      </trkpt>
      <trkpt lat="48.52974" lon="-2.81583">
        <ele>23.4</ele>
        <time>2026-01-25T11:04:47Z</time>
      </trkpt>
      <trkpt lat="48.52971" lon="-2.81593">
        <ele>23.4</ele>
        <time>2026-01-25T11:04:48Z</time>
      </trkpt>
      <trkpt lat="48.52969" lon="-2.81603">
        <ele>23.4</ele>
        <time>2026-01-25T11:04:49Z</time>
      </trkpt>
      <trkpt lat="48.52967" lon="-2.81613">
        <ele>23</ele>
        <time>2026-01-25T11:04:50Z</time>
      </trkpt>
      <trkpt lat="48.52965" lon="-2.81623">
        <ele>22.6</ele>
        <time>2026-01-25T11:04:51Z</time>
      </trkpt>
      <trkpt lat="48.52964" lon="-2.81634">
        <ele>22.6</ele>
        <time>2026-01-25T11:04:52Z</time>
      </trkpt>
      <trkpt lat="48.52962" lon="-2.81646">
        <ele>22.6</ele>
        <time>2026-01-25T11:04:53Z</time>
      </trkpt>
      <trkpt lat="48.5296" lon="-2.81657">
        <ele>22.6</ele>
        <time>2026-01-25T11:04:54Z</time>
      </trkpt>
      <trkpt lat="48.52959" lon="-2.81668">
        <ele>22.6</ele>
        <time>2026-01-25T11:04:55Z</time>
      </trkpt>
      <trkpt lat="48.52957" lon="-2.81679">
        <ele>22.6</ele>
        <time>2026-01-25T11:04:56Z</time>
      </trkpt>
      <trkpt lat="48.52955" lon="-2.81691">
        <ele>22.6</ele>
        <time>2026-01-25T11:04:57Z</time>
      </trkpt>
      <trkpt lat="48.52952" lon="-2.81703">
        <ele>22.6</ele>
        <time>2026-01-25T11:04:58Z</time>
      </trkpt>
      <trkpt lat="48.5295" lon="-2.81714">
        <ele>22</ele>
        <time>2026-01-25T11:04:59Z</time>
      </trkpt>
      <trkpt lat="48.52948" lon="-2.81724">
        <ele>22</ele>
        <time>2026-01-25T11:05:00Z</time>
      </trkpt>
      <trkpt lat="48.52945" lon="-2.81734">
        <ele>22</ele>
        <time>2026-01-25T11:05:01Z</time>
      </trkpt>
      <trkpt lat="48.52942" lon="-2.81746">
        <ele>22</ele>
        <time>2026-01-25T11:05:02Z</time>
      </trkpt>
      <trkpt lat="48.5294" lon="-2.81756">
        <ele>22.2</ele>
        <time>2026-01-25T11:05:03Z</time>
      </trkpt>
      <trkpt lat="48.52939" lon="-2.81764">
        <ele>22.2</ele>
        <time>2026-01-25T11:05:04Z</time>
      </trkpt>
      <trkpt lat="48.52937" lon="-2.81774">
        <ele>22.2</ele>
        <time>2026-01-25T11:05:05Z</time>
      </trkpt>
      <trkpt lat="48.52935" lon="-2.81784">
        <ele>22.8</ele>
        <time>2026-01-25T11:05:06Z</time>
      </trkpt>
      <trkpt lat="48.52933" lon="-2.81793">
        <ele>23.6</ele>
        <time>2026-01-25T11:05:07Z</time>
      </trkpt>
      <trkpt lat="48.52931" lon="-2.81802">
        <ele>23.6</ele>
        <time>2026-01-25T11:05:08Z</time>
      </trkpt>
      <trkpt lat="48.5293" lon="-2.8181">
        <ele>23.6</ele>
        <time>2026-01-25T11:05:09Z</time>
      </trkpt>
      <trkpt lat="48.52929" lon="-2.81819">
        <ele>24.4</ele>
        <time>2026-01-25T11:05:10Z</time>
      </trkpt>
      <trkpt lat="48.52928" lon="-2.81828">
        <ele>25</ele>
        <time>2026-01-25T11:05:11Z</time>
      </trkpt>
      <trkpt lat="48.52927" lon="-2.81837">
        <ele>25</ele>
        <time>2026-01-25T11:05:12Z</time>
      </trkpt>
      <trkpt lat="48.52926" lon="-2.81846">
        <ele>25</ele>
        <time>2026-01-25T11:05:13Z</time>
      </trkpt>
      <trkpt lat="48.52926" lon="-2.81854">
        <ele>25</ele>
        <time>2026-01-25T11:05:14Z</time>
      </trkpt>
      <trkpt lat="48.52925" lon="-2.81863">
        <ele>26.4</ele>
        <time>2026-01-25T11:05:15Z</time>
      </trkpt>
      <trkpt lat="48.52924" lon="-2.81871">
        <ele>26.4</ele>
        <time>2026-01-25T11:05:16Z</time>
      </trkpt>
      <trkpt lat="48.52923" lon="-2.81879">
        <ele>26.4</ele>
        <time>2026-01-25T11:05:17Z</time>
      </trkpt>
      <trkpt lat="48.52923" lon="-2.81887">
        <ele>27</ele>
        <time>2026-01-25T11:05:18Z</time>
      </trkpt>
      <trkpt lat="48.52923" lon="-2.81895">
        <ele>27.4</ele>
        <time>2026-01-25T11:05:19Z</time>
      </trkpt>
      <trkpt lat="48.52923" lon="-2.81903">
        <ele>27.4</ele>
        <time>2026-01-25T11:05:20Z</time>
      </trkpt>
      <trkpt lat="48.52922" lon="-2.81912">
        <ele>27.4</ele>
        <time>2026-01-25T11:05:21Z</time>
      </trkpt>
      <trkpt lat="48.52922" lon="-2.81921">
        <ele>27.4</ele>
        <time>2026-01-25T11:05:22Z</time>
      </trkpt>
      <trkpt lat="48.52922" lon="-2.8193">
        <ele>27.4</ele>
        <time>2026-01-25T11:05:23Z</time>
      </trkpt>
      <trkpt lat="48.52922" lon="-2.81939">
        <ele>27.4</ele>
        <time>2026-01-25T11:05:24Z</time>
      </trkpt>
      <trkpt lat="48.52922" lon="-2.81947">
        <ele>27.4</ele>
        <time>2026-01-25T11:05:25Z</time>
      </trkpt>
      <trkpt lat="48.52922" lon="-2.81955">
        <ele>27</ele>
        <time>2026-01-25T11:05:26Z</time>
      </trkpt>
      <trkpt lat="48.52923" lon="-2.81964">
        <ele>27.6</ele>
        <time>2026-01-25T11:05:27Z</time>
      </trkpt>
      <trkpt lat="48.52923" lon="-2.81972">
        <ele>27.6</ele>
        <time>2026-01-25T11:05:28Z</time>
      </trkpt>
      <trkpt lat="48.52924" lon="-2.81981">
        <ele>27.6</ele>
        <time>2026-01-25T11:05:29Z</time>
      </trkpt>
      <trkpt lat="48.52926" lon="-2.81989">
        <ele>28.4</ele>
        <time>2026-01-25T11:05:30Z</time>
      </trkpt>
      <trkpt lat="48.52927" lon="-2.81997">
        <ele>28.8</ele>
        <time>2026-01-25T11:05:31Z</time>
      </trkpt>
      <trkpt lat="48.52929" lon="-2.82005">
        <ele>28.8</ele>
        <time>2026-01-25T11:05:32Z</time>
      </trkpt>
      <trkpt lat="48.5293" lon="-2.82013">
        <ele>28.8</ele>
        <time>2026-01-25T11:05:33Z</time>
      </trkpt>
      <trkpt lat="48.52932" lon="-2.82021">
        <ele>28.8</ele>
        <time>2026-01-25T11:05:34Z</time>
      </trkpt>
      <trkpt lat="48.52933" lon="-2.82029">
        <ele>28.8</ele>
        <time>2026-01-25T11:05:35Z</time>
      </trkpt>
      <trkpt lat="48.52935" lon="-2.82037">
        <ele>28.8</ele>
        <time>2026-01-25T11:05:36Z</time>
      </trkpt>
      <trkpt lat="48.52937" lon="-2.82045">
        <ele>28.8</ele>
        <time>2026-01-25T11:05:37Z</time>
      </trkpt>
      <trkpt lat="48.52939" lon="-2.82053">
        <ele>29.8</ele>
        <time>2026-01-25T11:05:38Z</time>
      </trkpt>
      <trkpt lat="48.5294" lon="-2.82061">
        <ele>29.8</ele>
        <time>2026-01-25T11:05:39Z</time>
      </trkpt>
      <trkpt lat="48.52941" lon="-2.82069">
        <ele>29.8</ele>
        <time>2026-01-25T11:05:40Z</time>
      </trkpt>
      <trkpt lat="48.52942" lon="-2.82077">
        <ele>29.8</ele>
        <time>2026-01-25T11:05:41Z</time>
      </trkpt>
      <trkpt lat="48.52943" lon="-2.82086">
        <ele>30</ele>
        <time>2026-01-25T11:05:42Z</time>
      </trkpt>
      <trkpt lat="48.52944" lon="-2.82094">
        <ele>30.2</ele>
        <time>2026-01-25T11:05:43Z</time>
      </trkpt>
      <trkpt lat="48.52945" lon="-2.82102">
        <ele>30.2</ele>
        <time>2026-01-25T11:05:44Z</time>
      </trkpt>
      <trkpt lat="48.52945" lon="-2.82111">
        <ele>30.2</ele>
        <time>2026-01-25T11:05:45Z</time>
      </trkpt>
      <trkpt lat="48.52945" lon="-2.8212">
        <ele>29.4</ele>
        <time>2026-01-25T11:05:46Z</time>
      </trkpt>
      <trkpt lat="48.52945" lon="-2.8213">
        <ele>29</ele>
        <time>2026-01-25T11:05:47Z</time>
      </trkpt>
      <trkpt lat="48.52945" lon="-2.82139">
        <ele>29</ele>
        <time>2026-01-25T11:05:48Z</time>
      </trkpt>
      <trkpt lat="48.52945" lon="-2.82148">
        <ele>29</ele>
        <time>2026-01-25T11:05:49Z</time>
      </trkpt>
      <trkpt lat="48.52944" lon="-2.82158">
        <ele>28.2</ele>
        <time>2026-01-25T11:05:50Z</time>
      </trkpt>
      <trkpt lat="48.52943" lon="-2.82167">
        <ele>28.4</ele>
        <time>2026-01-25T11:05:51Z</time>
      </trkpt>
      <trkpt lat="48.52942" lon="-2.82177">
        <ele>28.4</ele>
        <time>2026-01-25T11:05:52Z</time>
      </trkpt>
      <trkpt lat="48.5294" lon="-2.82187">
        <ele>28.4</ele>
        <time>2026-01-25T11:05:53Z</time>
      </trkpt>
      <trkpt lat="48.52939" lon="-2.82196">
        <ele>28</ele>
        <time>2026-01-25T11:05:54Z</time>
      </trkpt>
      <trkpt lat="48.52939" lon="-2.82206">
        <ele>28.2</ele>
        <time>2026-01-25T11:05:55Z</time>
      </trkpt>
      <trkpt lat="48.52938" lon="-2.82216">
        <ele>28.2</ele>
        <time>2026-01-25T11:05:56Z</time>
      </trkpt>
      <trkpt lat="48.52937" lon="-2.82226">
        <ele>28.2</ele>
        <time>2026-01-25T11:05:57Z</time>
      </trkpt>
      <trkpt lat="48.52936" lon="-2.82236">
        <ele>28</ele>
        <time>2026-01-25T11:05:58Z</time>
      </trkpt>
      <trkpt lat="48.52935" lon="-2.82245">
        <ele>28.2</ele>
        <time>2026-01-25T11:05:59Z</time>
      </trkpt>
      <trkpt lat="48.52933" lon="-2.82255">
        <ele>28.2</ele>
        <time>2026-01-25T11:06:00Z</time>
      </trkpt>
      <trkpt lat="48.52932" lon="-2.82264">
        <ele>28.2</ele>
        <time>2026-01-25T11:06:01Z</time>
      </trkpt>
      <trkpt lat="48.52931" lon="-2.82274">
        <ele>28.4</ele>
        <time>2026-01-25T11:06:02Z</time>
      </trkpt>
      <trkpt lat="48.5293" lon="-2.82283">
        <ele>28.8</ele>
        <time>2026-01-25T11:06:03Z</time>
      </trkpt>
      <trkpt lat="48.52928" lon="-2.82292">
        <ele>28.8</ele>
        <time>2026-01-25T11:06:04Z</time>
      </trkpt>
      <trkpt lat="48.52927" lon="-2.823">
        <ele>28.8</ele>
        <time>2026-01-25T11:06:05Z</time>
      </trkpt>
      <trkpt lat="48.52926" lon="-2.82308">
        <ele>28.8</ele>
        <time>2026-01-25T11:06:06Z</time>
      </trkpt>
      <trkpt lat="48.52924" lon="-2.82316">
        <ele>30.4</ele>
        <time>2026-01-25T11:06:07Z</time>
      </trkpt>
      <trkpt lat="48.52923" lon="-2.82324">
        <ele>30.4</ele>
        <time>2026-01-25T11:06:08Z</time>
      </trkpt>
      <trkpt lat="48.52921" lon="-2.82331">
        <ele>30.4</ele>
        <time>2026-01-25T11:06:09Z</time>
      </trkpt>
      <trkpt lat="48.52919" lon="-2.82339">
        <ele>31.2</ele>
        <time>2026-01-25T11:06:10Z</time>
      </trkpt>
      <trkpt lat="48.52918" lon="-2.82346">
        <ele>31.4</ele>
        <time>2026-01-25T11:06:11Z</time>
      </trkpt>
      <trkpt lat="48.52916" lon="-2.82353">
        <ele>31.4</ele>
        <time>2026-01-25T11:06:12Z</time>
      </trkpt>
      <trkpt lat="48.52914" lon="-2.8236">
        <ele>31.4</ele>
        <time>2026-01-25T11:06:13Z</time>
      </trkpt>
      <trkpt lat="48.52912" lon="-2.82367">
        <ele>31.4</ele>
        <time>2026-01-25T11:06:14Z</time>
      </trkpt>
      <trkpt lat="48.52909" lon="-2.82374">
        <ele>32</ele>
        <time>2026-01-25T11:06:15Z</time>
      </trkpt>
      <trkpt lat="48.52907" lon="-2.8238">
        <ele>32</ele>
        <time>2026-01-25T11:06:16Z</time>
      </trkpt>
      <trkpt lat="48.52904" lon="-2.82386">
        <ele>32</ele>
        <time>2026-01-25T11:06:17Z</time>
      </trkpt>
      <trkpt lat="48.52901" lon="-2.82393">
        <ele>32.8</ele>
        <time>2026-01-25T11:06:18Z</time>
      </trkpt>
      <trkpt lat="48.52898" lon="-2.824">
        <ele>32.8</ele>
        <time>2026-01-25T11:06:19Z</time>
      </trkpt>
      <trkpt lat="48.52895" lon="-2.82406">
        <ele>32.8</ele>
        <time>2026-01-25T11:06:20Z</time>
      </trkpt>
      <trkpt lat="48.52892" lon="-2.82412">
        <ele>32.8</ele>
        <time>2026-01-25T11:06:21Z</time>
      </trkpt>
      <trkpt lat="48.52889" lon="-2.82419">
        <ele>32.8</ele>
        <time>2026-01-25T11:06:22Z</time>
      </trkpt>
      <trkpt lat="48.52885" lon="-2.82425">
        <ele>33.2</ele>
        <time>2026-01-25T11:06:23Z</time>
      </trkpt>
      <trkpt lat="48.52881" lon="-2.82431">
        <ele>33.2</ele>
        <time>2026-01-25T11:06:24Z</time>
      </trkpt>
      <trkpt lat="48.52878" lon="-2.82437">
        <ele>33.2</ele>
        <time>2026-01-25T11:06:25Z</time>
      </trkpt>
      <trkpt lat="48.52874" lon="-2.82443">
        <ele>33</ele>
        <time>2026-01-25T11:06:26Z</time>
      </trkpt>
      <trkpt lat="48.5287" lon="-2.82449">
        <ele>33.2</ele>
        <time>2026-01-25T11:06:27Z</time>
      </trkpt>
      <trkpt lat="48.52866" lon="-2.82455">
        <ele>33.2</ele>
        <time>2026-01-25T11:06:28Z</time>
      </trkpt>
      <trkpt lat="48.52862" lon="-2.82461">
        <ele>33.2</ele>
        <time>2026-01-25T11:06:29Z</time>
      </trkpt>
      <trkpt lat="48.52858" lon="-2.82467">
        <ele>33</ele>
        <time>2026-01-25T11:06:30Z</time>
      </trkpt>
      <trkpt lat="48.52854" lon="-2.82474">
        <ele>32.8</ele>
        <time>2026-01-25T11:06:31Z</time>
      </trkpt>
      <trkpt lat="48.52849" lon="-2.8248">
        <ele>32.8</ele>
        <time>2026-01-25T11:06:32Z</time>
      </trkpt>
      <trkpt lat="48.52845" lon="-2.82487">
        <ele>32.8</ele>
        <time>2026-01-25T11:06:33Z</time>
      </trkpt>
      <trkpt lat="48.52841" lon="-2.82493">
        <ele>32.2</ele>
        <time>2026-01-25T11:06:34Z</time>
      </trkpt>
      <trkpt lat="48.52837" lon="-2.825">
        <ele>32.2</ele>
        <time>2026-01-25T11:06:35Z</time>
      </trkpt>
      <trkpt lat="48.52833" lon="-2.82507">
        <ele>32.2</ele>
        <time>2026-01-25T11:06:36Z</time>
      </trkpt>
      <trkpt lat="48.52828" lon="-2.82514">
        <ele>32.2</ele>
        <time>2026-01-25T11:06:37Z</time>
      </trkpt>
      <trkpt lat="48.52824" lon="-2.82521">
        <ele>31.8</ele>
        <time>2026-01-25T11:06:38Z</time>
      </trkpt>
      <trkpt lat="48.5282" lon="-2.82528">
        <ele>31.8</ele>
        <time>2026-01-25T11:06:39Z</time>
      </trkpt>
      <trkpt lat="48.52815" lon="-2.82535">
        <ele>31.8</ele>
        <time>2026-01-25T11:06:40Z</time>
      </trkpt>
      <trkpt lat="48.52811" lon="-2.82541">
        <ele>31.8</ele>
        <time>2026-01-25T11:06:41Z</time>
      </trkpt>
      <trkpt lat="48.52807" lon="-2.82548">
        <ele>31.8</ele>
        <time>2026-01-25T11:06:42Z</time>
      </trkpt>
      <trkpt lat="48.52802" lon="-2.82555">
        <ele>32.2</ele>
        <time>2026-01-25T11:06:43Z</time>
      </trkpt>
      <trkpt lat="48.52798" lon="-2.82561">
        <ele>32.2</ele>
        <time>2026-01-25T11:06:44Z</time>
      </trkpt>
      <trkpt lat="48.52794" lon="-2.82568">
        <ele>32.2</ele>
        <time>2026-01-25T11:06:45Z</time>
      </trkpt>
      <trkpt lat="48.5279" lon="-2.82575">
        <ele>31.8</ele>
        <time>2026-01-25T11:06:46Z</time>
      </trkpt>
      <trkpt lat="48.52785" lon="-2.82582">
        <ele>31.4</ele>
        <time>2026-01-25T11:06:47Z</time>
      </trkpt>
      <trkpt lat="48.52781" lon="-2.82589">
        <ele>31.4</ele>
        <time>2026-01-25T11:06:48Z</time>
      </trkpt>
      <trkpt lat="48.52776" lon="-2.82595">
        <ele>31.4</ele>
        <time>2026-01-25T11:06:49Z</time>
      </trkpt>
      <trkpt lat="48.52772" lon="-2.82602">
        <ele>31.8</ele>
        <time>2026-01-25T11:06:50Z</time>
      </trkpt>
      <trkpt lat="48.52767" lon="-2.82608">
        <ele>32.2</ele>
        <time>2026-01-25T11:06:51Z</time>
      </trkpt>
      <trkpt lat="48.52763" lon="-2.82613">
        <ele>32.2</ele>
        <time>2026-01-25T11:06:52Z</time>
      </trkpt>
      <trkpt lat="48.52758" lon="-2.82619">
        <ele>32.2</ele>
        <time>2026-01-25T11:06:53Z</time>
      </trkpt>
      <trkpt lat="48.52754" lon="-2.82625">
        <ele>32.2</ele>
        <time>2026-01-25T11:06:54Z</time>
      </trkpt>
      <trkpt lat="48.52749" lon="-2.8263">
        <ele>33</ele>
        <time>2026-01-25T11:06:55Z</time>
      </trkpt>
      <trkpt lat="48.52744" lon="-2.82635">
        <ele>33</ele>
        <time>2026-01-25T11:06:56Z</time>
      </trkpt>
      <trkpt lat="48.52739" lon="-2.8264">
        <ele>33</ele>
        <time>2026-01-25T11:06:57Z</time>
      </trkpt>
      <trkpt lat="48.52735" lon="-2.82645">
        <ele>33</ele>
        <time>2026-01-25T11:06:58Z</time>
      </trkpt>
      <trkpt lat="48.5273" lon="-2.82649">
        <ele>34</ele>
        <time>2026-01-25T11:06:59Z</time>
      </trkpt>
      <trkpt lat="48.52725" lon="-2.82653">
        <ele>34</ele>
        <time>2026-01-25T11:07:00Z</time>
      </trkpt>
      <trkpt lat="48.52721" lon="-2.82657">
        <ele>34</ele>
        <time>2026-01-25T11:07:01Z</time>
      </trkpt>
      <trkpt lat="48.52717" lon="-2.82661">
        <ele>34.8</ele>
        <time>2026-01-25T11:07:02Z</time>
      </trkpt>
      <trkpt lat="48.52713" lon="-2.82665">
        <ele>35</ele>
        <time>2026-01-25T11:07:03Z</time>
      </trkpt>
      <trkpt lat="48.52709" lon="-2.82668">
        <ele>35</ele>
        <time>2026-01-25T11:07:04Z</time>
      </trkpt>
      <trkpt lat="48.52705" lon="-2.82672">
        <ele>35</ele>
        <time>2026-01-25T11:07:05Z</time>
      </trkpt>
      <trkpt lat="48.52701" lon="-2.82675">
        <ele>35.4</ele>
        <time>2026-01-25T11:07:06Z</time>
      </trkpt>
      <trkpt lat="48.52697" lon="-2.82679">
        <ele>35.8</ele>
        <time>2026-01-25T11:07:07Z</time>
      </trkpt>
      <trkpt lat="48.52693" lon="-2.82683">
        <ele>35.8</ele>
        <time>2026-01-25T11:07:08Z</time>
      </trkpt>
      <trkpt lat="48.52689" lon="-2.82686">
        <ele>35.8</ele>
        <time>2026-01-25T11:07:09Z</time>
      </trkpt>
      <trkpt lat="48.52685" lon="-2.8269">
        <ele>35.8</ele>
        <time>2026-01-25T11:07:10Z</time>
      </trkpt>
      <trkpt lat="48.52681" lon="-2.82693">
        <ele>36.4</ele>
        <time>2026-01-25T11:07:11Z</time>
      </trkpt>
      <trkpt lat="48.52677" lon="-2.82696">
        <ele>36.4</ele>
        <time>2026-01-25T11:07:12Z</time>
      </trkpt>
      <trkpt lat="48.52673" lon="-2.827">
        <ele>36.4</ele>
        <time>2026-01-25T11:07:13Z</time>
      </trkpt>
      <trkpt lat="48.5267" lon="-2.82703">
        <ele>36.6</ele>
        <time>2026-01-25T11:07:14Z</time>
      </trkpt>
      <trkpt lat="48.52665" lon="-2.82706">
        <ele>36.6</ele>
        <time>2026-01-25T11:07:15Z</time>
      </trkpt>
      <trkpt lat="48.52661" lon="-2.8271">
        <ele>36.6</ele>
        <time>2026-01-25T11:07:16Z</time>
      </trkpt>
      <trkpt lat="48.52658" lon="-2.82713">
        <ele>36.6</ele>
        <time>2026-01-25T11:07:17Z</time>
      </trkpt>
      <trkpt lat="48.52654" lon="-2.82716">
        <ele>37.4</ele>
        <time>2026-01-25T11:07:18Z</time>
      </trkpt>
      <trkpt lat="48.5265" lon="-2.8272">
        <ele>37.4</ele>
        <time>2026-01-25T11:07:19Z</time>
      </trkpt>
      <trkpt lat="48.52646" lon="-2.82723">
        <ele>37.4</ele>
        <time>2026-01-25T11:07:20Z</time>
      </trkpt>
      <trkpt lat="48.52642" lon="-2.82726">
        <ele>37.4</ele>
        <time>2026-01-25T11:07:21Z</time>
      </trkpt>
      <trkpt lat="48.52639" lon="-2.82729">
        <ele>38.2</ele>
        <time>2026-01-25T11:07:22Z</time>
      </trkpt>
      <trkpt lat="48.52635" lon="-2.82731">
        <ele>38.2</ele>
        <time>2026-01-25T11:07:23Z</time>
      </trkpt>
      <trkpt lat="48.52631" lon="-2.82734">
        <ele>38.2</ele>
        <time>2026-01-25T11:07:24Z</time>
      </trkpt>
      <trkpt lat="48.52626" lon="-2.82736">
        <ele>38.2</ele>
        <time>2026-01-25T11:07:25Z</time>
      </trkpt>
      <trkpt lat="48.52622" lon="-2.82738">
        <ele>38.8</ele>
        <time>2026-01-25T11:07:26Z</time>
      </trkpt>
      <trkpt lat="48.52618" lon="-2.8274">
        <ele>38.8</ele>
        <time>2026-01-25T11:07:27Z</time>
      </trkpt>
      <trkpt lat="48.52614" lon="-2.82741">
        <ele>38.8</ele>
        <time>2026-01-25T11:07:28Z</time>
      </trkpt>
      <trkpt lat="48.5261" lon="-2.82742">
        <ele>38.8</ele>
        <time>2026-01-25T11:07:29Z</time>
      </trkpt>
      <trkpt lat="48.52605" lon="-2.82743">
        <ele>39.8</ele>
        <time>2026-01-25T11:07:30Z</time>
      </trkpt>
      <trkpt lat="48.52601" lon="-2.82745">
        <ele>40</ele>
        <time>2026-01-25T11:07:31Z</time>
      </trkpt>
      <trkpt lat="48.52597" lon="-2.82746">
        <ele>40</ele>
        <time>2026-01-25T11:07:32Z</time>
      </trkpt>
      <trkpt lat="48.52592" lon="-2.82746">
        <ele>40</ele>
        <time>2026-01-25T11:07:33Z</time>
      </trkpt>
      <trkpt lat="48.52588" lon="-2.82746">
        <ele>39.8</ele>
        <time>2026-01-25T11:07:34Z</time>
      </trkpt>
      <trkpt lat="48.52584" lon="-2.82746">
        <ele>40.2</ele>
        <time>2026-01-25T11:07:35Z</time>
      </trkpt>
      <trkpt lat="48.5258" lon="-2.82746">
        <ele>40.2</ele>
        <time>2026-01-25T11:07:36Z</time>
      </trkpt>
      <trkpt lat="48.52576" lon="-2.82745">
        <ele>40.2</ele>
        <time>2026-01-25T11:07:37Z</time>
      </trkpt>
      <trkpt lat="48.52572" lon="-2.82745">
        <ele>40.2</ele>
        <time>2026-01-25T11:07:38Z</time>
      </trkpt>
      <trkpt lat="48.52568" lon="-2.82744">
        <ele>41</ele>
        <time>2026-01-25T11:07:39Z</time>
      </trkpt>
      <trkpt lat="48.52564" lon="-2.82743">
        <ele>41</ele>
        <time>2026-01-25T11:07:40Z</time>
      </trkpt>
      <trkpt lat="48.5256" lon="-2.82743">
        <ele>41</ele>
        <time>2026-01-25T11:07:41Z</time>
      </trkpt>
      <trkpt lat="48.52556" lon="-2.82742">
        <ele>41</ele>
        <time>2026-01-25T11:07:42Z</time>
      </trkpt>
      <trkpt lat="48.52552" lon="-2.82741">
        <ele>41.6</ele>
        <time>2026-01-25T11:07:43Z</time>
      </trkpt>
      <trkpt lat="48.52548" lon="-2.8274">
        <ele>41.6</ele>
        <time>2026-01-25T11:07:44Z</time>
      </trkpt>
      <trkpt lat="48.52544" lon="-2.82739">
        <ele>41.6</ele>
        <time>2026-01-25T11:07:45Z</time>
      </trkpt>
      <trkpt lat="48.5254" lon="-2.82738">
        <ele>41.6</ele>
        <time>2026-01-25T11:07:46Z</time>
      </trkpt>
      <trkpt lat="48.52536" lon="-2.82736">
        <ele>41.4</ele>
        <time>2026-01-25T11:07:47Z</time>
      </trkpt>
      <trkpt lat="48.52532" lon="-2.82735">
        <ele>41.4</ele>
        <time>2026-01-25T11:07:48Z</time>
      </trkpt>
      <trkpt lat="48.52528" lon="-2.82733">
        <ele>41.4</ele>
        <time>2026-01-25T11:07:49Z</time>
      </trkpt>
      <trkpt lat="48.52524" lon="-2.82732">
        <ele>42.2</ele>
        <time>2026-01-25T11:07:50Z</time>
      </trkpt>
      <trkpt lat="48.5252" lon="-2.82732">
        <ele>42.4</ele>
        <time>2026-01-25T11:07:51Z</time>
      </trkpt>
      <trkpt lat="48.52516" lon="-2.8273">
        <ele>42.4</ele>
        <time>2026-01-25T11:07:52Z</time>
      </trkpt>
      <trkpt lat="48.52512" lon="-2.8273">
        <ele>42.4</ele>
        <time>2026-01-25T11:07:53Z</time>
      </trkpt>
      <trkpt lat="48.52508" lon="-2.82729">
        <ele>42.6</ele>
        <time>2026-01-25T11:07:54Z</time>
      </trkpt>
      <trkpt lat="48.52505" lon="-2.82728">
        <ele>42.6</ele>
        <time>2026-01-25T11:07:55Z</time>
      </trkpt>
      <trkpt lat="48.52501" lon="-2.82728">
        <ele>42.6</ele>
        <time>2026-01-25T11:07:56Z</time>
      </trkpt>
      <trkpt lat="48.52497" lon="-2.82727">
        <ele>42.6</ele>
        <time>2026-01-25T11:07:57Z</time>
      </trkpt>
      <trkpt lat="48.52493" lon="-2.82726">
        <ele>43.2</ele>
        <time>2026-01-25T11:07:58Z</time>
      </trkpt>
      <trkpt lat="48.5249" lon="-2.82725">
        <ele>43.4</ele>
        <time>2026-01-25T11:07:59Z</time>
      </trkpt>
      <trkpt lat="48.52486" lon="-2.82724">
        <ele>43.4</ele>
        <time>2026-01-25T11:08:00Z</time>
      </trkpt>
      <trkpt lat="48.52482" lon="-2.82723">
        <ele>43.4</ele>
        <time>2026-01-25T11:08:01Z</time>
      </trkpt>
      <trkpt lat="48.52478" lon="-2.82722">
        <ele>43.4</ele>
        <time>2026-01-25T11:08:02Z</time>
      </trkpt>
      <trkpt lat="48.52474" lon="-2.82721">
        <ele>43.4</ele>
        <time>2026-01-25T11:08:03Z</time>
      </trkpt>
      <trkpt lat="48.52471" lon="-2.82719">
        <ele>43.4</ele>
        <time>2026-01-25T11:08:04Z</time>
      </trkpt>
      <trkpt lat="48.52467" lon="-2.82718">
        <ele>43.4</ele>
        <time>2026-01-25T11:08:05Z</time>
      </trkpt>
      <trkpt lat="48.52463" lon="-2.82716">
        <ele>44.2</ele>
        <time>2026-01-25T11:08:06Z</time>
      </trkpt>
      <trkpt lat="48.52459" lon="-2.82715">
        <ele>44.4</ele>
        <time>2026-01-25T11:08:07Z</time>
      </trkpt>
      <trkpt lat="48.52455" lon="-2.82713">
        <ele>44.4</ele>
        <time>2026-01-25T11:08:08Z</time>
      </trkpt>
      <trkpt lat="48.5245" lon="-2.82711">
        <ele>44.4</ele>
        <time>2026-01-25T11:08:09Z</time>
      </trkpt>
      <trkpt lat="48.52446" lon="-2.82709">
        <ele>44.4</ele>
        <time>2026-01-25T11:08:10Z</time>
      </trkpt>
      <trkpt lat="48.52442" lon="-2.82707">
        <ele>44</ele>
        <time>2026-01-25T11:08:11Z</time>
      </trkpt>
      <trkpt lat="48.52439" lon="-2.82705">
        <ele>44</ele>
        <time>2026-01-25T11:08:12Z</time>
      </trkpt>
      <trkpt lat="48.52434" lon="-2.82703">
        <ele>44</ele>
        <time>2026-01-25T11:08:13Z</time>
      </trkpt>
      <trkpt lat="48.5243" lon="-2.82701">
        <ele>44.8</ele>
        <time>2026-01-25T11:08:14Z</time>
      </trkpt>
      <trkpt lat="48.52426" lon="-2.82699">
        <ele>44.8</ele>
        <time>2026-01-25T11:08:15Z</time>
      </trkpt>
      <trkpt lat="48.52422" lon="-2.82697">
        <ele>44.8</ele>
        <time>2026-01-25T11:08:16Z</time>
      </trkpt>
      <trkpt lat="48.52417" lon="-2.82694">
        <ele>44.8</ele>
        <time>2026-01-25T11:08:17Z</time>
      </trkpt>
      <trkpt lat="48.52413" lon="-2.82692">
        <ele>45.2</ele>
        <time>2026-01-25T11:08:18Z</time>
      </trkpt>
      <trkpt lat="48.52409" lon="-2.8269">
        <ele>45.2</ele>
        <time>2026-01-25T11:08:19Z</time>
      </trkpt>
      <trkpt lat="48.52405" lon="-2.82688">
        <ele>45.2</ele>
        <time>2026-01-25T11:08:20Z</time>
      </trkpt>
      <trkpt lat="48.52401" lon="-2.82686">
        <ele>45.2</ele>
        <time>2026-01-25T11:08:21Z</time>
      </trkpt>
      <trkpt lat="48.52396" lon="-2.82684">
        <ele>45.2</ele>
        <time>2026-01-25T11:08:22Z</time>
      </trkpt>
      <trkpt lat="48.52392" lon="-2.82682">
        <ele>45.4</ele>
        <time>2026-01-25T11:08:23Z</time>
      </trkpt>
      <trkpt lat="48.52388" lon="-2.8268">
        <ele>45.4</ele>
        <time>2026-01-25T11:08:24Z</time>
      </trkpt>
      <trkpt lat="48.52384" lon="-2.82679">
        <ele>45.4</ele>
        <time>2026-01-25T11:08:25Z</time>
      </trkpt>
      <trkpt lat="48.5238" lon="-2.82676">
        <ele>46.4</ele>
        <time>2026-01-25T11:08:26Z</time>
      </trkpt>
      <trkpt lat="48.52375" lon="-2.82674">
        <ele>47</ele>
        <time>2026-01-25T11:08:27Z</time>
      </trkpt>
      <trkpt lat="48.52371" lon="-2.82672">
        <ele>47</ele>
        <time>2026-01-25T11:08:28Z</time>
      </trkpt>
      <trkpt lat="48.52367" lon="-2.8267">
        <ele>47</ele>
        <time>2026-01-25T11:08:29Z</time>
      </trkpt>
      <trkpt lat="48.52363" lon="-2.82669">
        <ele>47</ele>
        <time>2026-01-25T11:08:30Z</time>
      </trkpt>
      <trkpt lat="48.5236" lon="-2.82667">
        <ele>47.6</ele>
        <time>2026-01-25T11:08:31Z</time>
      </trkpt>
      <trkpt lat="48.52357" lon="-2.82665">
        <ele>47.6</ele>
        <time>2026-01-25T11:08:32Z</time>
      </trkpt>
      <trkpt lat="48.52354" lon="-2.82663">
        <ele>47.6</ele>
        <time>2026-01-25T11:08:33Z</time>
      </trkpt>
      <trkpt lat="48.52353" lon="-2.82661">
        <ele>47.6</ele>
        <time>2026-01-25T11:08:34Z</time>
      </trkpt>
      <trkpt lat="48.52352" lon="-2.82659">
        <ele>48.2</ele>
        <time>2026-01-25T11:08:35Z</time>
      </trkpt>
      <trkpt lat="48.52351" lon="-2.82658">
        <ele>48.2</ele>
        <time>2026-01-25T11:08:36Z</time>
      </trkpt>
      <trkpt lat="48.52349" lon="-2.82655">
        <ele>48.2</ele>
        <time>2026-01-25T11:08:37Z</time>
      </trkpt>
      <trkpt lat="48.52348" lon="-2.82651">
        <ele>48.2</ele>
        <time>2026-01-25T11:08:38Z</time>
      </trkpt>
      <trkpt lat="48.52349" lon="-2.82645">
        <ele>47.4</ele>
        <time>2026-01-25T11:08:39Z</time>
      </trkpt>
      <trkpt lat="48.5235" lon="-2.82639">
        <ele>47.4</ele>
        <time>2026-01-25T11:08:40Z</time>
      </trkpt>
      <trkpt lat="48.52351" lon="-2.82631">
        <ele>47.4</ele>
        <time>2026-01-25T11:08:41Z</time>
      </trkpt>
      <trkpt lat="48.52354" lon="-2.82624">
        <ele>46.4</ele>
        <time>2026-01-25T11:08:42Z</time>
      </trkpt>
      <trkpt lat="48.52356" lon="-2.82616">
        <ele>45.8</ele>
        <time>2026-01-25T11:08:43Z</time>
      </trkpt>
      <trkpt lat="48.52358" lon="-2.82608">
        <ele>45.8</ele>
        <time>2026-01-25T11:08:44Z</time>
      </trkpt>
      <trkpt lat="48.5236" lon="-2.826">
        <ele>45.8</ele>
        <time>2026-01-25T11:08:45Z</time>
      </trkpt>
      <trkpt lat="48.52362" lon="-2.82592">
        <ele>45.4</ele>
        <time>2026-01-25T11:08:46Z</time>
      </trkpt>
      <trkpt lat="48.52364" lon="-2.82585">
        <ele>45.8</ele>
        <time>2026-01-25T11:08:47Z</time>
      </trkpt>
      <trkpt lat="48.52366" lon="-2.82577">
        <ele>45.8</ele>
        <time>2026-01-25T11:08:48Z</time>
      </trkpt>
      <trkpt lat="48.52368" lon="-2.8257">
        <ele>45.8</ele>
        <time>2026-01-25T11:08:49Z</time>
      </trkpt>
      <trkpt lat="48.5237" lon="-2.82562">
        <ele>45.8</ele>
        <time>2026-01-25T11:08:50Z</time>
      </trkpt>
      <trkpt lat="48.52373" lon="-2.82555">
        <ele>45.6</ele>
        <time>2026-01-25T11:08:51Z</time>
      </trkpt>
      <trkpt lat="48.52375" lon="-2.82547">
        <ele>45.6</ele>
        <time>2026-01-25T11:08:52Z</time>
      </trkpt>
      <trkpt lat="48.52378" lon="-2.8254">
        <ele>45.6</ele>
        <time>2026-01-25T11:08:53Z</time>
      </trkpt>
      <trkpt lat="48.5238" lon="-2.82532">
        <ele>45.6</ele>
        <time>2026-01-25T11:08:54Z</time>
      </trkpt>
      <trkpt lat="48.52382" lon="-2.82524">
        <ele>46</ele>
        <time>2026-01-25T11:08:55Z</time>
      </trkpt>
      <trkpt lat="48.52385" lon="-2.82516">
        <ele>46</ele>
        <time>2026-01-25T11:08:56Z</time>
      </trkpt>
      <trkpt lat="48.52387" lon="-2.82509">
        <ele>46</ele>
        <time>2026-01-25T11:08:57Z</time>
      </trkpt>
      <trkpt lat="48.5239" lon="-2.82502">
        <ele>46</ele>
        <time>2026-01-25T11:08:58Z</time>
      </trkpt>
      <trkpt lat="48.52392" lon="-2.82495">
        <ele>47</ele>
        <time>2026-01-25T11:08:59Z</time>
      </trkpt>
      <trkpt lat="48.52395" lon="-2.8249">
        <ele>47</ele>
        <time>2026-01-25T11:09:00Z</time>
      </trkpt>
      <trkpt lat="48.52398" lon="-2.82485">
        <ele>47</ele>
        <time>2026-01-25T11:09:01Z</time>
      </trkpt>
      <trkpt lat="48.52401" lon="-2.82481">
        <ele>47.6</ele>
        <time>2026-01-25T11:09:02Z</time>
      </trkpt>
      <trkpt lat="48.52404" lon="-2.82477">
        <ele>48.2</ele>
        <time>2026-01-25T11:09:03Z</time>
      </trkpt>
      <trkpt lat="48.52407" lon="-2.82473">
        <ele>48.2</ele>
        <time>2026-01-25T11:09:04Z</time>
      </trkpt>
      <trkpt lat="48.5241" lon="-2.8247">
        <ele>48.2</ele>
        <time>2026-01-25T11:09:05Z</time>
      </trkpt>
      <trkpt lat="48.52413" lon="-2.82466">
        <ele>48.2</ele>
        <time>2026-01-25T11:09:06Z</time>
      </trkpt>
      <trkpt lat="48.52416" lon="-2.82463">
        <ele>48.6</ele>
        <time>2026-01-25T11:09:07Z</time>
      </trkpt>
      <trkpt lat="48.52419" lon="-2.8246">
        <ele>48.6</ele>
        <time>2026-01-25T11:09:08Z</time>
      </trkpt>
      <trkpt lat="48.52423" lon="-2.82457">
        <ele>48.6</ele>
        <time>2026-01-25T11:09:09Z</time>
      </trkpt>
      <trkpt lat="48.52426" lon="-2.82454">
        <ele>49.2</ele>
        <time>2026-01-25T11:09:10Z</time>
      </trkpt>
      <trkpt lat="48.52429" lon="-2.8245">
        <ele>49.8</ele>
        <time>2026-01-25T11:09:11Z</time>
      </trkpt>
      <trkpt lat="48.52432" lon="-2.82447">
        <ele>49.8</ele>
        <time>2026-01-25T11:09:12Z</time>
      </trkpt>
      <trkpt lat="48.52435" lon="-2.82444">
        <ele>49.8</ele>
        <time>2026-01-25T11:09:13Z</time>
      </trkpt>
      <trkpt lat="48.52438" lon="-2.82441">
        <ele>49.8</ele>
        <time>2026-01-25T11:09:14Z</time>
      </trkpt>
      <trkpt lat="48.52441" lon="-2.82438">
        <ele>50</ele>
        <time>2026-01-25T11:09:15Z</time>
      </trkpt>
      <trkpt lat="48.52444" lon="-2.82435">
        <ele>50</ele>
        <time>2026-01-25T11:09:16Z</time>
      </trkpt>
      <trkpt lat="48.52448" lon="-2.82432">
        <ele>50</ele>
        <time>2026-01-25T11:09:17Z</time>
      </trkpt>
      <trkpt lat="48.52451" lon="-2.8243">
        <ele>50</ele>
        <time>2026-01-25T11:09:18Z</time>
      </trkpt>
      <trkpt lat="48.52454" lon="-2.82427">
        <ele>50.4</ele>
        <time>2026-01-25T11:09:19Z</time>
      </trkpt>
      <trkpt lat="48.52457" lon="-2.82424">
        <ele>50.4</ele>
        <time>2026-01-25T11:09:20Z</time>
      </trkpt>
      <trkpt lat="48.52461" lon="-2.82421">
        <ele>50.4</ele>
        <time>2026-01-25T11:09:21Z</time>
      </trkpt>
      <trkpt lat="48.52464" lon="-2.82418">
        <ele>51.2</ele>
        <time>2026-01-25T11:09:22Z</time>
      </trkpt>
      <trkpt lat="48.52467" lon="-2.82416">
        <ele>51.2</ele>
        <time>2026-01-25T11:09:23Z</time>
      </trkpt>
      <trkpt lat="48.52469" lon="-2.82412">
        <ele>51.2</ele>
        <time>2026-01-25T11:09:24Z</time>
      </trkpt>
      <trkpt lat="48.52472" lon="-2.82409">
        <ele>51.2</ele>
        <time>2026-01-25T11:09:25Z</time>
      </trkpt>
      <trkpt lat="48.52475" lon="-2.82406">
        <ele>51.8</ele>
        <time>2026-01-25T11:09:26Z</time>
      </trkpt>
      <trkpt lat="48.52478" lon="-2.82403">
        <ele>51.8</ele>
        <time>2026-01-25T11:09:27Z</time>
      </trkpt>
      <trkpt lat="48.52481" lon="-2.824">
        <ele>51.8</ele>
        <time>2026-01-25T11:09:28Z</time>
      </trkpt>
      <trkpt lat="48.52485" lon="-2.82398">
        <ele>51.8</ele>
        <time>2026-01-25T11:09:29Z</time>
      </trkpt>
      <trkpt lat="48.52488" lon="-2.82395">
        <ele>51.8</ele>
        <time>2026-01-25T11:09:30Z</time>
      </trkpt>
      <trkpt lat="48.52492" lon="-2.82392">
        <ele>52.2</ele>
        <time>2026-01-25T11:09:31Z</time>
      </trkpt>
      <trkpt lat="48.52495" lon="-2.82389">
        <ele>52.2</ele>
        <time>2026-01-25T11:09:32Z</time>
      </trkpt>
      <trkpt lat="48.52498" lon="-2.82386">
        <ele>52.2</ele>
        <time>2026-01-25T11:09:33Z</time>
      </trkpt>
      <trkpt lat="48.52502" lon="-2.82383">
        <ele>52.2</ele>
        <time>2026-01-25T11:09:34Z</time>
      </trkpt>
      <trkpt lat="48.52505" lon="-2.8238">
        <ele>53.2</ele>
        <time>2026-01-25T11:09:35Z</time>
      </trkpt>
      <trkpt lat="48.52509" lon="-2.82378">
        <ele>53.2</ele>
        <time>2026-01-25T11:09:36Z</time>
      </trkpt>
      <trkpt lat="48.52512" lon="-2.82376">
        <ele>53.2</ele>
        <time>2026-01-25T11:09:37Z</time>
      </trkpt>
      <trkpt lat="48.52515" lon="-2.82373">
        <ele>53.8</ele>
        <time>2026-01-25T11:09:38Z</time>
      </trkpt>
      <trkpt lat="48.52519" lon="-2.82371">
        <ele>53.8</ele>
        <time>2026-01-25T11:09:39Z</time>
      </trkpt>
      <trkpt lat="48.52522" lon="-2.82368">
        <ele>53.8</ele>
        <time>2026-01-25T11:09:40Z</time>
      </trkpt>
      <trkpt lat="48.52525" lon="-2.82366">
        <ele>53.8</ele>
        <time>2026-01-25T11:09:41Z</time>
      </trkpt>
      <trkpt lat="48.52528" lon="-2.82363">
        <ele>54</ele>
        <time>2026-01-25T11:09:42Z</time>
      </trkpt>
      <trkpt lat="48.52531" lon="-2.8236">
        <ele>54</ele>
        <time>2026-01-25T11:09:43Z</time>
      </trkpt>
      <trkpt lat="48.52534" lon="-2.82357">
        <ele>54</ele>
        <time>2026-01-25T11:09:44Z</time>
      </trkpt>
      <trkpt lat="48.52538" lon="-2.82354">
        <ele>54</ele>
        <time>2026-01-25T11:09:45Z</time>
      </trkpt>
      <trkpt lat="48.5254" lon="-2.82351">
        <ele>54.4</ele>
        <time>2026-01-25T11:09:46Z</time>
      </trkpt>
      <trkpt lat="48.52543" lon="-2.82347">
        <ele>54.6</ele>
        <time>2026-01-25T11:09:47Z</time>
      </trkpt>
      <trkpt lat="48.52545" lon="-2.82343">
        <ele>54.6</ele>
        <time>2026-01-25T11:09:48Z</time>
      </trkpt>
      <trkpt lat="48.52547" lon="-2.82339">
        <ele>54.6</ele>
        <time>2026-01-25T11:09:49Z</time>
      </trkpt>
      <trkpt lat="48.52549" lon="-2.82335">
        <ele>55.2</ele>
        <time>2026-01-25T11:09:50Z</time>
      </trkpt>
      <trkpt lat="48.52551" lon="-2.8233">
        <ele>55.6</ele>
        <time>2026-01-25T11:09:51Z</time>
      </trkpt>
      <trkpt lat="48.52553" lon="-2.82326">
        <ele>55.6</ele>
        <time>2026-01-25T11:09:52Z</time>
      </trkpt>
      <trkpt lat="48.52554" lon="-2.82322">
        <ele>55.6</ele>
        <time>2026-01-25T11:09:53Z</time>
      </trkpt>
      <trkpt lat="48.52555" lon="-2.82317">
        <ele>56</ele>
        <time>2026-01-25T11:09:54Z</time>
      </trkpt>
      <trkpt lat="48.52556" lon="-2.82312">
        <ele>56</ele>
        <time>2026-01-25T11:09:55Z</time>
      </trkpt>
      <trkpt lat="48.52557" lon="-2.82306">
        <ele>56</ele>
        <time>2026-01-25T11:09:56Z</time>
      </trkpt>
      <trkpt lat="48.52558" lon="-2.82301">
        <ele>56</ele>
        <time>2026-01-25T11:09:57Z</time>
      </trkpt>
      <trkpt lat="48.52559" lon="-2.82296">
        <ele>56.4</ele>
        <time>2026-01-25T11:09:58Z</time>
      </trkpt>
      <trkpt lat="48.52559" lon="-2.82291">
        <ele>56.8</ele>
        <time>2026-01-25T11:09:59Z</time>
      </trkpt>
      <trkpt lat="48.52559" lon="-2.82286">
        <ele>56.8</ele>
        <time>2026-01-25T11:10:00Z</time>
      </trkpt>
      <trkpt lat="48.52558" lon="-2.8228">
        <ele>56.8</ele>
        <time>2026-01-25T11:10:01Z</time>
      </trkpt>
      <trkpt lat="48.52558" lon="-2.82275">
        <ele>57.6</ele>
        <time>2026-01-25T11:10:02Z</time>
      </trkpt>
      <trkpt lat="48.52556" lon="-2.8227">
        <ele>57.6</ele>
        <time>2026-01-25T11:10:03Z</time>
      </trkpt>
      <trkpt lat="48.52555" lon="-2.82265">
        <ele>57.6</ele>
        <time>2026-01-25T11:10:04Z</time>
      </trkpt>
      <trkpt lat="48.52554" lon="-2.8226">
        <ele>57.6</ele>
        <time>2026-01-25T11:10:05Z</time>
      </trkpt>
      <trkpt lat="48.52552" lon="-2.82256">
        <ele>58.2</ele>
        <time>2026-01-25T11:10:06Z</time>
      </trkpt>
      <trkpt lat="48.5255" lon="-2.82252">
        <ele>58.2</ele>
        <time>2026-01-25T11:10:07Z</time>
      </trkpt>
      <trkpt lat="48.52548" lon="-2.82249">
        <ele>58.2</ele>
        <time>2026-01-25T11:10:08Z</time>
      </trkpt>
      <trkpt lat="48.52545" lon="-2.82246">
        <ele>58.2</ele>
        <time>2026-01-25T11:10:09Z</time>
      </trkpt>
      <trkpt lat="48.52542" lon="-2.82243">
        <ele>58.4</ele>
        <time>2026-01-25T11:10:10Z</time>
      </trkpt>
      <trkpt lat="48.52539" lon="-2.8224">
        <ele>58.4</ele>
        <time>2026-01-25T11:10:11Z</time>
      </trkpt>
      <trkpt lat="48.52536" lon="-2.82238">
        <ele>58.4</ele>
        <time>2026-01-25T11:10:12Z</time>
      </trkpt>
      <trkpt lat="48.52533" lon="-2.82236">
        <ele>58.4</ele>
        <time>2026-01-25T11:10:13Z</time>
      </trkpt>
      <trkpt lat="48.5253" lon="-2.82235">
        <ele>59.4</ele>
        <time>2026-01-25T11:10:14Z</time>
      </trkpt>
      <trkpt lat="48.52527" lon="-2.82233">
        <ele>59.4</ele>
        <time>2026-01-25T11:10:15Z</time>
      </trkpt>
      <trkpt lat="48.52523" lon="-2.82232">
        <ele>59.4</ele>
        <time>2026-01-25T11:10:16Z</time>
      </trkpt>
      <trkpt lat="48.5252" lon="-2.82231">
        <ele>59.4</ele>
        <time>2026-01-25T11:10:17Z</time>
      </trkpt>
      <trkpt lat="48.52517" lon="-2.82232">
        <ele>60</ele>
        <time>2026-01-25T11:10:18Z</time>
      </trkpt>
      <trkpt lat="48.52514" lon="-2.82231">
        <ele>60.6</ele>
        <time>2026-01-25T11:10:19Z</time>
      </trkpt>
      <trkpt lat="48.52511" lon="-2.8223">
        <ele>60.6</ele>
        <time>2026-01-25T11:10:20Z</time>
      </trkpt>
      <trkpt lat="48.52508" lon="-2.82229">
        <ele>60.6</ele>
        <time>2026-01-25T11:10:21Z</time>
      </trkpt>
      <trkpt lat="48.52504" lon="-2.82228">
        <ele>61.2</ele>
        <time>2026-01-25T11:10:22Z</time>
      </trkpt>
      <trkpt lat="48.52501" lon="-2.82226">
        <ele>61</ele>
        <time>2026-01-25T11:10:23Z</time>
      </trkpt>
      <trkpt lat="48.52497" lon="-2.82225">
        <ele>61</ele>
        <time>2026-01-25T11:10:24Z</time>
      </trkpt>
      <trkpt lat="48.52493" lon="-2.82222">
        <ele>61</ele>
        <time>2026-01-25T11:10:25Z</time>
      </trkpt>
      <trkpt lat="48.52489" lon="-2.8222">
        <ele>61.2</ele>
        <time>2026-01-25T11:10:26Z</time>
      </trkpt>
      <trkpt lat="48.52486" lon="-2.82218">
        <ele>61.4</ele>
        <time>2026-01-25T11:10:27Z</time>
      </trkpt>
      <trkpt lat="48.52482" lon="-2.82218">
        <ele>61.4</ele>
        <time>2026-01-25T11:10:28Z</time>
      </trkpt>
      <trkpt lat="48.52479" lon="-2.82216">
        <ele>61.4</ele>
        <time>2026-01-25T11:10:29Z</time>
      </trkpt>
      <trkpt lat="48.52475" lon="-2.82214">
        <ele>61.4</ele>
        <time>2026-01-25T11:10:30Z</time>
      </trkpt>
      <trkpt lat="48.52472" lon="-2.8221">
        <ele>61.6</ele>
        <time>2026-01-25T11:10:31Z</time>
      </trkpt>
      <trkpt lat="48.52468" lon="-2.82207">
        <ele>61.6</ele>
        <time>2026-01-25T11:10:32Z</time>
      </trkpt>
      <trkpt lat="48.52464" lon="-2.82203">
        <ele>61.6</ele>
        <time>2026-01-25T11:10:33Z</time>
      </trkpt>
      <trkpt lat="48.52461" lon="-2.82201">
        <ele>61.6</ele>
        <time>2026-01-25T11:10:34Z</time>
      </trkpt>
      <trkpt lat="48.52457" lon="-2.82199">
        <ele>62.4</ele>
        <time>2026-01-25T11:10:35Z</time>
      </trkpt>
      <trkpt lat="48.52454" lon="-2.82196">
        <ele>62.4</ele>
        <time>2026-01-25T11:10:36Z</time>
      </trkpt>
      <trkpt lat="48.52449" lon="-2.82194">
        <ele>62.4</ele>
        <time>2026-01-25T11:10:37Z</time>
      </trkpt>
      <trkpt lat="48.52446" lon="-2.82191">
        <ele>62.4</ele>
        <time>2026-01-25T11:10:38Z</time>
      </trkpt>
      <trkpt lat="48.52443" lon="-2.82189">
        <ele>62.4</ele>
        <time>2026-01-25T11:10:39Z</time>
      </trkpt>
      <trkpt lat="48.52439" lon="-2.82185">
        <ele>62.4</ele>
        <time>2026-01-25T11:10:40Z</time>
      </trkpt>
      <trkpt lat="48.52436" lon="-2.82181">
        <ele>62.4</ele>
        <time>2026-01-25T11:10:41Z</time>
      </trkpt>
      <trkpt lat="48.52432" lon="-2.82176">
        <ele>63</ele>
        <time>2026-01-25T11:10:42Z</time>
      </trkpt>
      <trkpt lat="48.52428" lon="-2.82173">
        <ele>63.2</ele>
        <time>2026-01-25T11:10:43Z</time>
      </trkpt>
      <trkpt lat="48.52425" lon="-2.82169">
        <ele>63.2</ele>
        <time>2026-01-25T11:10:44Z</time>
      </trkpt>
      <trkpt lat="48.52422" lon="-2.82166">
        <ele>63.2</ele>
        <time>2026-01-25T11:10:45Z</time>
      </trkpt>
      <trkpt lat="48.52419" lon="-2.82163">
        <ele>63.6</ele>
        <time>2026-01-25T11:10:46Z</time>
      </trkpt>
      <trkpt lat="48.52415" lon="-2.8216">
        <ele>63.6</ele>
        <time>2026-01-25T11:10:47Z</time>
      </trkpt>
      <trkpt lat="48.52412" lon="-2.82156">
        <ele>63.6</ele>
        <time>2026-01-25T11:10:48Z</time>
      </trkpt>
      <trkpt lat="48.52409" lon="-2.82152">
        <ele>63.6</ele>
        <time>2026-01-25T11:10:49Z</time>
      </trkpt>
      <trkpt lat="48.52407" lon="-2.82148">
        <ele>64.2</ele>
        <time>2026-01-25T11:10:50Z</time>
      </trkpt>
      <trkpt lat="48.52404" lon="-2.82144">
        <ele>64.4</ele>
        <time>2026-01-25T11:10:51Z</time>
      </trkpt>
      <trkpt lat="48.52402" lon="-2.82139">
        <ele>64.4</ele>
        <time>2026-01-25T11:10:52Z</time>
      </trkpt>
      <trkpt lat="48.52399" lon="-2.82137">
        <ele>64.4</ele>
        <time>2026-01-25T11:10:53Z</time>
      </trkpt>
      <trkpt lat="48.52397" lon="-2.82132">
        <ele>64.2</ele>
        <time>2026-01-25T11:10:54Z</time>
      </trkpt>
      <trkpt lat="48.52395" lon="-2.82127">
        <ele>64.8</ele>
        <time>2026-01-25T11:10:55Z</time>
      </trkpt>
      <trkpt lat="48.52392" lon="-2.82122">
        <ele>64.8</ele>
        <time>2026-01-25T11:10:56Z</time>
      </trkpt>
      <trkpt lat="48.52389" lon="-2.82117">
        <ele>64.8</ele>
        <time>2026-01-25T11:10:57Z</time>
      </trkpt>
      <trkpt lat="48.52386" lon="-2.8211">
        <ele>65</ele>
        <time>2026-01-25T11:10:58Z</time>
      </trkpt>
      <trkpt lat="48.52383" lon="-2.82104">
        <ele>65</ele>
        <time>2026-01-25T11:10:59Z</time>
      </trkpt>
      <trkpt lat="48.5238" lon="-2.82099">
        <ele>65</ele>
        <time>2026-01-25T11:11:00Z</time>
      </trkpt>
      <trkpt lat="48.52377" lon="-2.82094">
        <ele>65</ele>
        <time>2026-01-25T11:11:01Z</time>
      </trkpt>
      <trkpt lat="48.52375" lon="-2.82089">
        <ele>66</ele>
        <time>2026-01-25T11:11:02Z</time>
      </trkpt>
      <trkpt lat="48.52372" lon="-2.82083">
        <ele>66</ele>
        <time>2026-01-25T11:11:03Z</time>
      </trkpt>
      <trkpt lat="48.52369" lon="-2.82079">
        <ele>66</ele>
        <time>2026-01-25T11:11:04Z</time>
      </trkpt>
      <trkpt lat="48.52366" lon="-2.82074">
        <ele>66</ele>
        <time>2026-01-25T11:11:05Z</time>
      </trkpt>
      <trkpt lat="48.52363" lon="-2.82068">
        <ele>67</ele>
        <time>2026-01-25T11:11:06Z</time>
      </trkpt>
      <trkpt lat="48.5236" lon="-2.82063">
        <ele>67</ele>
        <time>2026-01-25T11:11:07Z</time>
      </trkpt>
      <trkpt lat="48.52357" lon="-2.82059">
        <ele>67</ele>
        <time>2026-01-25T11:11:08Z</time>
      </trkpt>
      <trkpt lat="48.52354" lon="-2.82053">
        <ele>67</ele>
        <time>2026-01-25T11:11:09Z</time>
      </trkpt>
      <trkpt lat="48.52351" lon="-2.82048">
        <ele>67</ele>
        <time>2026-01-25T11:11:10Z</time>
      </trkpt>
      <trkpt lat="48.52348" lon="-2.82044">
        <ele>67.6</ele>
        <time>2026-01-25T11:11:11Z</time>
      </trkpt>
      <trkpt lat="48.52345" lon="-2.82039">
        <ele>67.6</ele>
        <time>2026-01-25T11:11:12Z</time>
      </trkpt>
      <trkpt lat="48.52342" lon="-2.82035">
        <ele>67.6</ele>
        <time>2026-01-25T11:11:13Z</time>
      </trkpt>
      <trkpt lat="48.52338" lon="-2.82029">
        <ele>68.4</ele>
        <time>2026-01-25T11:11:14Z</time>
      </trkpt>
      <trkpt lat="48.52336" lon="-2.82025">
        <ele>68.2</ele>
        <time>2026-01-25T11:11:15Z</time>
      </trkpt>
      <trkpt lat="48.52332" lon="-2.82018">
        <ele>68.2</ele>
        <time>2026-01-25T11:11:16Z</time>
      </trkpt>
      <trkpt lat="48.5233" lon="-2.82011">
        <ele>68.2</ele>
        <time>2026-01-25T11:11:17Z</time>
      </trkpt>
      <trkpt lat="48.52327" lon="-2.82003">
        <ele>68.6</ele>
        <time>2026-01-25T11:11:18Z</time>
      </trkpt>
      <trkpt lat="48.52324" lon="-2.81996">
        <ele>68.8</ele>
        <time>2026-01-25T11:11:19Z</time>
      </trkpt>
      <trkpt lat="48.52322" lon="-2.81988">
        <ele>68.8</ele>
        <time>2026-01-25T11:11:20Z</time>
      </trkpt>
      <trkpt lat="48.5232" lon="-2.8198">
        <ele>68.8</ele>
        <time>2026-01-25T11:11:21Z</time>
      </trkpt>
      <trkpt lat="48.52318" lon="-2.81973">
        <ele>68.8</ele>
        <time>2026-01-25T11:11:22Z</time>
      </trkpt>
      <trkpt lat="48.52316" lon="-2.81965">
        <ele>68.8</ele>
        <time>2026-01-25T11:11:23Z</time>
      </trkpt>
      <trkpt lat="48.52315" lon="-2.81957">
        <ele>68.8</ele>
        <time>2026-01-25T11:11:24Z</time>
      </trkpt>
      <trkpt lat="48.52314" lon="-2.81949">
        <ele>68.8</ele>
        <time>2026-01-25T11:11:25Z</time>
      </trkpt>
      <trkpt lat="48.52313" lon="-2.81941">
        <ele>68.8</ele>
        <time>2026-01-25T11:11:26Z</time>
      </trkpt>
      <trkpt lat="48.52312" lon="-2.81933">
        <ele>69.4</ele>
        <time>2026-01-25T11:11:27Z</time>
      </trkpt>
      <trkpt lat="48.52311" lon="-2.81925">
        <ele>69.4</ele>
        <time>2026-01-25T11:11:28Z</time>
      </trkpt>
      <trkpt lat="48.52311" lon="-2.81918">
        <ele>69.4</ele>
        <time>2026-01-25T11:11:29Z</time>
      </trkpt>
      <trkpt lat="48.5231" lon="-2.8191">
        <ele>69.4</ele>
        <time>2026-01-25T11:11:30Z</time>
      </trkpt>
      <trkpt lat="48.5231" lon="-2.81902">
        <ele>69.6</ele>
        <time>2026-01-25T11:11:31Z</time>
      </trkpt>
      <trkpt lat="48.52309" lon="-2.81895">
        <ele>69.6</ele>
        <time>2026-01-25T11:11:32Z</time>
      </trkpt>
      <trkpt lat="48.52309" lon="-2.81887">
        <ele>69.6</ele>
        <time>2026-01-25T11:11:33Z</time>
      </trkpt>
      <trkpt lat="48.52309" lon="-2.81879">
        <ele>69.4</ele>
        <time>2026-01-25T11:11:34Z</time>
      </trkpt>
      <trkpt lat="48.52308" lon="-2.81871">
        <ele>69.4</ele>
        <time>2026-01-25T11:11:35Z</time>
      </trkpt>
      <trkpt lat="48.52307" lon="-2.81863">
        <ele>69.4</ele>
        <time>2026-01-25T11:11:36Z</time>
      </trkpt>
      <trkpt lat="48.52306" lon="-2.81855">
        <ele>69.4</ele>
        <time>2026-01-25T11:11:37Z</time>
      </trkpt>
      <trkpt lat="48.52305" lon="-2.81848">
        <ele>69.6</ele>
        <time>2026-01-25T11:11:38Z</time>
      </trkpt>
      <trkpt lat="48.52304" lon="-2.81841">
        <ele>70</ele>
        <time>2026-01-25T11:11:39Z</time>
      </trkpt>
      <trkpt lat="48.52304" lon="-2.81835">
        <ele>70</ele>
        <time>2026-01-25T11:11:40Z</time>
      </trkpt>
      <trkpt lat="48.52303" lon="-2.81828">
        <ele>70</ele>
        <time>2026-01-25T11:11:41Z</time>
      </trkpt>
      <trkpt lat="48.52302" lon="-2.81821">
        <ele>70.8</ele>
        <time>2026-01-25T11:11:42Z</time>
      </trkpt>
      <trkpt lat="48.523" lon="-2.81815">
        <ele>70.8</ele>
        <time>2026-01-25T11:11:43Z</time>
      </trkpt>
      <trkpt lat="48.52299" lon="-2.81808">
        <ele>70.8</ele>
        <time>2026-01-25T11:11:44Z</time>
      </trkpt>
      <trkpt lat="48.52298" lon="-2.81801">
        <ele>70.8</ele>
        <time>2026-01-25T11:11:45Z</time>
      </trkpt>
      <trkpt lat="48.52297" lon="-2.81795">
        <ele>70.8</ele>
        <time>2026-01-25T11:11:46Z</time>
      </trkpt>
      <trkpt lat="48.52295" lon="-2.81788">
        <ele>71.2</ele>
        <time>2026-01-25T11:11:47Z</time>
      </trkpt>
      <trkpt lat="48.52293" lon="-2.81781">
        <ele>71.2</ele>
        <time>2026-01-25T11:11:48Z</time>
      </trkpt>
      <trkpt lat="48.52291" lon="-2.81774">
        <ele>71.2</ele>
        <time>2026-01-25T11:11:49Z</time>
      </trkpt>
      <trkpt lat="48.52289" lon="-2.81767">
        <ele>72</ele>
        <time>2026-01-25T11:11:50Z</time>
      </trkpt>
      <trkpt lat="48.52287" lon="-2.8176">
        <ele>71.6</ele>
        <time>2026-01-25T11:11:51Z</time>
      </trkpt>
      <trkpt lat="48.52285" lon="-2.81754">
        <ele>71.6</ele>
        <time>2026-01-25T11:11:52Z</time>
      </trkpt>
      <trkpt lat="48.52283" lon="-2.81747">
        <ele>71.6</ele>
        <time>2026-01-25T11:11:53Z</time>
      </trkpt>
      <trkpt lat="48.5228" lon="-2.81741">
        <ele>71.6</ele>
        <time>2026-01-25T11:11:54Z</time>
      </trkpt>
      <trkpt lat="48.52277" lon="-2.81735">
        <ele>72</ele>
        <time>2026-01-25T11:11:55Z</time>
      </trkpt>
      <trkpt lat="48.52274" lon="-2.81729">
        <ele>72</ele>
        <time>2026-01-25T11:11:56Z</time>
      </trkpt>
      <trkpt lat="48.5227" lon="-2.81723">
        <ele>72</ele>
        <time>2026-01-25T11:11:57Z</time>
      </trkpt>
      <trkpt lat="48.52267" lon="-2.81718">
        <ele>72.4</ele>
        <time>2026-01-25T11:11:58Z</time>
      </trkpt>
      <trkpt lat="48.52263" lon="-2.81712">
        <ele>72.6</ele>
        <time>2026-01-25T11:11:59Z</time>
      </trkpt>
      <trkpt lat="48.52258" lon="-2.81708">
        <ele>72.6</ele>
        <time>2026-01-25T11:12:00Z</time>
      </trkpt>
      <trkpt lat="48.52254" lon="-2.81703">
        <ele>72.6</ele>
        <time>2026-01-25T11:12:01Z</time>
      </trkpt>
      <trkpt lat="48.5225" lon="-2.817">
        <ele>73.4</ele>
        <time>2026-01-25T11:12:02Z</time>
      </trkpt>
      <trkpt lat="48.52246" lon="-2.81698">
        <ele>73.6</ele>
        <time>2026-01-25T11:12:03Z</time>
      </trkpt>
      <trkpt lat="48.52241" lon="-2.81695">
        <ele>73.6</ele>
        <time>2026-01-25T11:12:04Z</time>
      </trkpt>
      <trkpt lat="48.52237" lon="-2.81692">
        <ele>73.6</ele>
        <time>2026-01-25T11:12:05Z</time>
      </trkpt>
      <trkpt lat="48.52232" lon="-2.81689">
        <ele>73.6</ele>
        <time>2026-01-25T11:12:06Z</time>
      </trkpt>
      <trkpt lat="48.52228" lon="-2.81687">
        <ele>73.6</ele>
        <time>2026-01-25T11:12:07Z</time>
      </trkpt>
      <trkpt lat="48.52223" lon="-2.81685">
        <ele>73.6</ele>
        <time>2026-01-25T11:12:08Z</time>
      </trkpt>
      <trkpt lat="48.52218" lon="-2.81683">
        <ele>73.6</ele>
        <time>2026-01-25T11:12:09Z</time>
      </trkpt>
      <trkpt lat="48.52213" lon="-2.81681">
        <ele>73.8</ele>
        <time>2026-01-25T11:12:10Z</time>
      </trkpt>
      <trkpt lat="48.52208" lon="-2.81679">
        <ele>74.2</ele>
        <time>2026-01-25T11:12:11Z</time>
      </trkpt>
      <trkpt lat="48.52204" lon="-2.81677">
        <ele>74.2</ele>
        <time>2026-01-25T11:12:12Z</time>
      </trkpt>
      <trkpt lat="48.52198" lon="-2.81675">
        <ele>74.2</ele>
        <time>2026-01-25T11:12:13Z</time>
      </trkpt>
      <trkpt lat="48.52193" lon="-2.81673">
        <ele>74.2</ele>
        <time>2026-01-25T11:12:14Z</time>
      </trkpt>
      <trkpt lat="48.52188" lon="-2.81671">
        <ele>74.6</ele>
        <time>2026-01-25T11:12:15Z</time>
      </trkpt>
      <trkpt lat="48.52183" lon="-2.81669">
        <ele>74.6</ele>
        <time>2026-01-25T11:12:16Z</time>
      </trkpt>
      <trkpt lat="48.52179" lon="-2.81667">
        <ele>74.6</ele>
        <time>2026-01-25T11:12:17Z</time>
      </trkpt>
      <trkpt lat="48.52174" lon="-2.81665">
        <ele>75.2</ele>
        <time>2026-01-25T11:12:18Z</time>
      </trkpt>
      <trkpt lat="48.52169" lon="-2.81663">
        <ele>75.6</ele>
        <time>2026-01-25T11:12:19Z</time>
      </trkpt>
      <trkpt lat="48.52164" lon="-2.81662">
        <ele>75.6</ele>
        <time>2026-01-25T11:12:20Z</time>
      </trkpt>
      <trkpt lat="48.52159" lon="-2.8166">
        <ele>75.6</ele>
        <time>2026-01-25T11:12:21Z</time>
      </trkpt>
      <trkpt lat="48.52155" lon="-2.81658">
        <ele>75.6</ele>
        <time>2026-01-25T11:12:22Z</time>
      </trkpt>
      <trkpt lat="48.5215" lon="-2.81656">
        <ele>76.4</ele>
        <time>2026-01-25T11:12:23Z</time>
      </trkpt>
      <trkpt lat="48.52146" lon="-2.81654">
        <ele>76.4</ele>
        <time>2026-01-25T11:12:24Z</time>
      </trkpt>
      <trkpt lat="48.52141" lon="-2.81652">
        <ele>76.4</ele>
        <time>2026-01-25T11:12:25Z</time>
      </trkpt>
      <trkpt lat="48.52137" lon="-2.81649">
        <ele>76.4</ele>
        <time>2026-01-25T11:12:26Z</time>
      </trkpt>
      <trkpt lat="48.52133" lon="-2.81646">
        <ele>77</ele>
        <time>2026-01-25T11:12:27Z</time>
      </trkpt>
      <trkpt lat="48.52128" lon="-2.81643">
        <ele>77</ele>
        <time>2026-01-25T11:12:28Z</time>
      </trkpt>
      <trkpt lat="48.52124" lon="-2.8164">
        <ele>77</ele>
        <time>2026-01-25T11:12:29Z</time>
      </trkpt>
      <trkpt lat="48.52119" lon="-2.81638">
        <ele>77.2</ele>
        <time>2026-01-25T11:12:30Z</time>
      </trkpt>
      <trkpt lat="48.52115" lon="-2.81635">
        <ele>77.2</ele>
        <time>2026-01-25T11:12:31Z</time>
      </trkpt>
      <trkpt lat="48.52111" lon="-2.81632">
        <ele>77.2</ele>
        <time>2026-01-25T11:12:32Z</time>
      </trkpt>
      <trkpt lat="48.52107" lon="-2.81628">
        <ele>77.2</ele>
        <time>2026-01-25T11:12:33Z</time>
      </trkpt>
      <trkpt lat="48.52102" lon="-2.81625">
        <ele>77.2</ele>
        <time>2026-01-25T11:12:34Z</time>
      </trkpt>
      <trkpt lat="48.52098" lon="-2.81622">
        <ele>77.6</ele>
        <time>2026-01-25T11:12:35Z</time>
      </trkpt>
      <trkpt lat="48.52094" lon="-2.81619">
        <ele>77.6</ele>
        <time>2026-01-25T11:12:36Z</time>
      </trkpt>
      <trkpt lat="48.5209" lon="-2.81616">
        <ele>77.6</ele>
        <time>2026-01-25T11:12:37Z</time>
      </trkpt>
      <trkpt lat="48.52086" lon="-2.81612">
        <ele>78.4</ele>
        <time>2026-01-25T11:12:38Z</time>
      </trkpt>
      <trkpt lat="48.52082" lon="-2.81609">
        <ele>78.4</ele>
        <time>2026-01-25T11:12:39Z</time>
      </trkpt>
      <trkpt lat="48.52078" lon="-2.81606">
        <ele>78.4</ele>
        <time>2026-01-25T11:12:40Z</time>
      </trkpt>
      <trkpt lat="48.52074" lon="-2.81602">
        <ele>78.4</ele>
        <time>2026-01-25T11:12:41Z</time>
      </trkpt>
      <trkpt lat="48.5207" lon="-2.81599">
        <ele>79</ele>
        <time>2026-01-25T11:12:42Z</time>
      </trkpt>
      <trkpt lat="48.52066" lon="-2.81596">
        <ele>79</ele>
        <time>2026-01-25T11:12:43Z</time>
      </trkpt>
      <trkpt lat="48.52061" lon="-2.81593">
        <ele>79</ele>
        <time>2026-01-25T11:12:44Z</time>
      </trkpt>
      <trkpt lat="48.52057" lon="-2.8159">
        <ele>79</ele>
        <time>2026-01-25T11:12:45Z</time>
      </trkpt>
      <trkpt lat="48.52053" lon="-2.81587">
        <ele>79.8</ele>
        <time>2026-01-25T11:12:46Z</time>
      </trkpt>
      <trkpt lat="48.52049" lon="-2.81584">
        <ele>80.4</ele>
        <time>2026-01-25T11:12:47Z</time>
      </trkpt>
      <trkpt lat="48.52045" lon="-2.81581">
        <ele>80.4</ele>
        <time>2026-01-25T11:12:48Z</time>
      </trkpt>
      <trkpt lat="48.52041" lon="-2.81578">
        <ele>80.4</ele>
        <time>2026-01-25T11:12:49Z</time>
      </trkpt>
      <trkpt lat="48.52037" lon="-2.81576">
        <ele>80.2</ele>
        <time>2026-01-25T11:12:50Z</time>
      </trkpt>
      <trkpt lat="48.52033" lon="-2.81573">
        <ele>80.6</ele>
        <time>2026-01-25T11:12:51Z</time>
      </trkpt>
      <trkpt lat="48.52029" lon="-2.8157">
        <ele>80.6</ele>
        <time>2026-01-25T11:12:52Z</time>
      </trkpt>
      <trkpt lat="48.52025" lon="-2.81567">
        <ele>80.6</ele>
        <time>2026-01-25T11:12:53Z</time>
      </trkpt>
      <trkpt lat="48.52021" lon="-2.81564">
        <ele>80.6</ele>
        <time>2026-01-25T11:12:54Z</time>
      </trkpt>
      <trkpt lat="48.52017" lon="-2.81561">
        <ele>81.4</ele>
        <time>2026-01-25T11:12:55Z</time>
      </trkpt>
      <trkpt lat="48.52013" lon="-2.81557">
        <ele>81.4</ele>
        <time>2026-01-25T11:12:56Z</time>
      </trkpt>
      <trkpt lat="48.52009" lon="-2.81554">
        <ele>81.4</ele>
        <time>2026-01-25T11:12:57Z</time>
      </trkpt>
      <trkpt lat="48.52005" lon="-2.81551">
        <ele>81.4</ele>
        <time>2026-01-25T11:12:58Z</time>
      </trkpt>
      <trkpt lat="48.52" lon="-2.81548">
        <ele>81.6</ele>
        <time>2026-01-25T11:12:59Z</time>
      </trkpt>
      <trkpt lat="48.51997" lon="-2.81545">
        <ele>81.6</ele>
        <time>2026-01-25T11:13:00Z</time>
      </trkpt>
      <trkpt lat="48.51993" lon="-2.81542">
        <ele>81.6</ele>
        <time>2026-01-25T11:13:01Z</time>
      </trkpt>
      <trkpt lat="48.51989" lon="-2.81539">
        <ele>81.8</ele>
        <time>2026-01-25T11:13:02Z</time>
      </trkpt>
      <trkpt lat="48.51985" lon="-2.81536">
        <ele>82.2</ele>
        <time>2026-01-25T11:13:03Z</time>
      </trkpt>
      <trkpt lat="48.51981" lon="-2.81532">
        <ele>82.2</ele>
        <time>2026-01-25T11:13:04Z</time>
      </trkpt>
      <trkpt lat="48.51977" lon="-2.81529">
        <ele>82.2</ele>
        <time>2026-01-25T11:13:05Z</time>
      </trkpt>
      <trkpt lat="48.51973" lon="-2.81526">
        <ele>82.6</ele>
        <time>2026-01-25T11:13:06Z</time>
      </trkpt>
      <trkpt lat="48.51969" lon="-2.81524">
        <ele>82.6</ele>
        <time>2026-01-25T11:13:07Z</time>
      </trkpt>
      <trkpt lat="48.51964" lon="-2.81521">
        <ele>82.6</ele>
        <time>2026-01-25T11:13:08Z</time>
      </trkpt>
      <trkpt lat="48.51961" lon="-2.81517">
        <ele>82.6</ele>
        <time>2026-01-25T11:13:09Z</time>
      </trkpt>
      <trkpt lat="48.51957" lon="-2.81514">
        <ele>82.6</ele>
        <time>2026-01-25T11:13:10Z</time>
      </trkpt>
      <trkpt lat="48.51953" lon="-2.81511">
        <ele>82.6</ele>
        <time>2026-01-25T11:13:11Z</time>
      </trkpt>
      <trkpt lat="48.51949" lon="-2.81509">
        <ele>82.6</ele>
        <time>2026-01-25T11:13:12Z</time>
      </trkpt>
      <trkpt lat="48.51945" lon="-2.81506">
        <ele>82.6</ele>
        <time>2026-01-25T11:13:13Z</time>
      </trkpt>
      <trkpt lat="48.51941" lon="-2.81503">
        <ele>83.2</ele>
        <time>2026-01-25T11:13:14Z</time>
      </trkpt>
      <trkpt lat="48.51937" lon="-2.815">
        <ele>83.4</ele>
        <time>2026-01-25T11:13:15Z</time>
      </trkpt>
      <trkpt lat="48.51932" lon="-2.81497">
        <ele>83.4</ele>
        <time>2026-01-25T11:13:16Z</time>
      </trkpt>
      <trkpt lat="48.51928" lon="-2.81494">
        <ele>83.4</ele>
        <time>2026-01-25T11:13:17Z</time>
      </trkpt>
      <trkpt lat="48.51924" lon="-2.81491">
        <ele>83.4</ele>
        <time>2026-01-25T11:13:18Z</time>
      </trkpt>
      <trkpt lat="48.5192" lon="-2.81489">
        <ele>83.8</ele>
        <time>2026-01-25T11:13:19Z</time>
      </trkpt>
      <trkpt lat="48.51916" lon="-2.81486">
        <ele>83.8</ele>
        <time>2026-01-25T11:13:20Z</time>
      </trkpt>
      <trkpt lat="48.51912" lon="-2.81483">
        <ele>83.8</ele>
        <time>2026-01-25T11:13:21Z</time>
      </trkpt>
      <trkpt lat="48.51908" lon="-2.8148">
        <ele>84.4</ele>
        <time>2026-01-25T11:13:22Z</time>
      </trkpt>
      <trkpt lat="48.51904" lon="-2.81477">
        <ele>84.4</ele>
        <time>2026-01-25T11:13:23Z</time>
      </trkpt>
      <trkpt lat="48.519" lon="-2.81473">
        <ele>84.4</ele>
        <time>2026-01-25T11:13:24Z</time>
      </trkpt>
      <trkpt lat="48.51896" lon="-2.8147">
        <ele>84.4</ele>
        <time>2026-01-25T11:13:25Z</time>
      </trkpt>
      <trkpt lat="48.51892" lon="-2.81467">
        <ele>84.6</ele>
        <time>2026-01-25T11:13:26Z</time>
      </trkpt>
      <trkpt lat="48.51888" lon="-2.81464">
        <ele>84.8</ele>
        <time>2026-01-25T11:13:27Z</time>
      </trkpt>
      <trkpt lat="48.51883" lon="-2.81461">
        <ele>84.8</ele>
        <time>2026-01-25T11:13:28Z</time>
      </trkpt>
      <trkpt lat="48.51879" lon="-2.81457">
        <ele>84.8</ele>
        <time>2026-01-25T11:13:29Z</time>
      </trkpt>
      <trkpt lat="48.51876" lon="-2.81454">
        <ele>85.6</ele>
        <time>2026-01-25T11:13:30Z</time>
      </trkpt>
      <trkpt lat="48.51872" lon="-2.8145">
        <ele>85.6</ele>
        <time>2026-01-25T11:13:31Z</time>
      </trkpt>
      <trkpt lat="48.51868" lon="-2.81446">
        <ele>85.6</ele>
        <time>2026-01-25T11:13:32Z</time>
      </trkpt>
      <trkpt lat="48.51864" lon="-2.81441">
        <ele>85.6</ele>
        <time>2026-01-25T11:13:33Z</time>
      </trkpt>
      <trkpt lat="48.51861" lon="-2.81437">
        <ele>85.6</ele>
        <time>2026-01-25T11:13:34Z</time>
      </trkpt>
      <trkpt lat="48.51857" lon="-2.81433">
        <ele>86.6</ele>
        <time>2026-01-25T11:13:35Z</time>
      </trkpt>
      <trkpt lat="48.51854" lon="-2.81428">
        <ele>86.6</ele>
        <time>2026-01-25T11:13:36Z</time>
      </trkpt>
      <trkpt lat="48.51851" lon="-2.81424">
        <ele>86.6</ele>
        <time>2026-01-25T11:13:37Z</time>
      </trkpt>
      <trkpt lat="48.51848" lon="-2.8142">
        <ele>86.6</ele>
        <time>2026-01-25T11:13:38Z</time>
      </trkpt>
      <trkpt lat="48.51845" lon="-2.81415">
        <ele>87</ele>
        <time>2026-01-25T11:13:39Z</time>
      </trkpt>
      <trkpt lat="48.51842" lon="-2.8141">
        <ele>87</ele>
        <time>2026-01-25T11:13:40Z</time>
      </trkpt>
      <trkpt lat="48.51839" lon="-2.81405">
        <ele>87</ele>
        <time>2026-01-25T11:13:41Z</time>
      </trkpt>
      <trkpt lat="48.51836" lon="-2.814">
        <ele>87</ele>
        <time>2026-01-25T11:13:42Z</time>
      </trkpt>
      <trkpt lat="48.51834" lon="-2.81395">
        <ele>87.4</ele>
        <time>2026-01-25T11:13:43Z</time>
      </trkpt>
      <trkpt lat="48.51831" lon="-2.8139">
        <ele>87.4</ele>
        <time>2026-01-25T11:13:44Z</time>
      </trkpt>
      <trkpt lat="48.51829" lon="-2.81385">
        <ele>87.4</ele>
        <time>2026-01-25T11:13:45Z</time>
      </trkpt>
      <trkpt lat="48.51826" lon="-2.81379">
        <ele>87.4</ele>
        <time>2026-01-25T11:13:46Z</time>
      </trkpt>
      <trkpt lat="48.51824" lon="-2.81372">
        <ele>87.8</ele>
        <time>2026-01-25T11:13:47Z</time>
      </trkpt>
      <trkpt lat="48.51823" lon="-2.81365">
        <ele>87.8</ele>
        <time>2026-01-25T11:13:48Z</time>
      </trkpt>
      <trkpt lat="48.51821" lon="-2.81358">
        <ele>87.8</ele>
        <time>2026-01-25T11:13:49Z</time>
      </trkpt>
      <trkpt lat="48.5182" lon="-2.81351">
        <ele>88.6</ele>
        <time>2026-01-25T11:13:50Z</time>
      </trkpt>
      <trkpt lat="48.51818" lon="-2.81344">
        <ele>89.2</ele>
        <time>2026-01-25T11:13:51Z</time>
      </trkpt>
      <trkpt lat="48.51817" lon="-2.81337">
        <ele>89.2</ele>
        <time>2026-01-25T11:13:52Z</time>
      </trkpt>
      <trkpt lat="48.51816" lon="-2.81329">
        <ele>89.2</ele>
        <time>2026-01-25T11:13:53Z</time>
      </trkpt>
      <trkpt lat="48.51815" lon="-2.81322">
        <ele>89.2</ele>
        <time>2026-01-25T11:13:54Z</time>
      </trkpt>
      <trkpt lat="48.51814" lon="-2.81315">
        <ele>89.6</ele>
        <time>2026-01-25T11:13:55Z</time>
      </trkpt>
      <trkpt lat="48.51814" lon="-2.81307">
        <ele>89.6</ele>
        <time>2026-01-25T11:13:56Z</time>
      </trkpt>
      <trkpt lat="48.51813" lon="-2.81299">
        <ele>89.6</ele>
        <time>2026-01-25T11:13:57Z</time>
      </trkpt>
      <trkpt lat="48.51813" lon="-2.81292">
        <ele>90.2</ele>
        <time>2026-01-25T11:13:58Z</time>
      </trkpt>
      <trkpt lat="48.51812" lon="-2.81285">
        <ele>89.8</ele>
        <time>2026-01-25T11:13:59Z</time>
      </trkpt>
      <trkpt lat="48.51812" lon="-2.81277">
        <ele>89.8</ele>
        <time>2026-01-25T11:14:00Z</time>
      </trkpt>
      <trkpt lat="48.51811" lon="-2.8127">
        <ele>89.8</ele>
        <time>2026-01-25T11:14:01Z</time>
      </trkpt>
      <trkpt lat="48.51811" lon="-2.81263">
        <ele>90.2</ele>
        <time>2026-01-25T11:14:02Z</time>
      </trkpt>
      <trkpt lat="48.51811" lon="-2.81255">
        <ele>90.4</ele>
        <time>2026-01-25T11:14:03Z</time>
      </trkpt>
      <trkpt lat="48.5181" lon="-2.81248">
        <ele>90.4</ele>
        <time>2026-01-25T11:14:04Z</time>
      </trkpt>
      <trkpt lat="48.51809" lon="-2.81241">
        <ele>90.4</ele>
        <time>2026-01-25T11:14:05Z</time>
      </trkpt>
      <trkpt lat="48.51808" lon="-2.81234">
        <ele>90.4</ele>
        <time>2026-01-25T11:14:06Z</time>
      </trkpt>
      <trkpt lat="48.51808" lon="-2.81227">
        <ele>91</ele>
        <time>2026-01-25T11:14:07Z</time>
      </trkpt>
      <trkpt lat="48.51807" lon="-2.8122">
        <ele>91</ele>
        <time>2026-01-25T11:14:08Z</time>
      </trkpt>
      <trkpt lat="48.51807" lon="-2.81213">
        <ele>91</ele>
        <time>2026-01-25T11:14:09Z</time>
      </trkpt>
      <trkpt lat="48.51807" lon="-2.81206">
        <ele>91.6</ele>
        <time>2026-01-25T11:14:10Z</time>
      </trkpt>
      <trkpt lat="48.51806" lon="-2.81199">
        <ele>91.6</ele>
        <time>2026-01-25T11:14:11Z</time>
      </trkpt>
      <trkpt lat="48.51806" lon="-2.81191">
        <ele>91.6</ele>
        <time>2026-01-25T11:14:12Z</time>
      </trkpt>
      <trkpt lat="48.51806" lon="-2.81184">
        <ele>91.6</ele>
        <time>2026-01-25T11:14:13Z</time>
      </trkpt>
      <trkpt lat="48.51806" lon="-2.81177">
        <ele>92.2</ele>
        <time>2026-01-25T11:14:14Z</time>
      </trkpt>
      <trkpt lat="48.51806" lon="-2.8117">
        <ele>92.4</ele>
        <time>2026-01-25T11:14:15Z</time>
      </trkpt>
      <trkpt lat="48.51805" lon="-2.81163">
        <ele>92.4</ele>
        <time>2026-01-25T11:14:16Z</time>
      </trkpt>
      <trkpt lat="48.51804" lon="-2.81157">
        <ele>92.4</ele>
        <time>2026-01-25T11:14:17Z</time>
      </trkpt>
      <trkpt lat="48.51804" lon="-2.8115">
        <ele>93</ele>
        <time>2026-01-25T11:14:18Z</time>
      </trkpt>
      <trkpt lat="48.51803" lon="-2.81143">
        <ele>93</ele>
        <time>2026-01-25T11:14:19Z</time>
      </trkpt>
      <trkpt lat="48.51802" lon="-2.81137">
        <ele>93</ele>
        <time>2026-01-25T11:14:20Z</time>
      </trkpt>
      <trkpt lat="48.51802" lon="-2.8113">
        <ele>93</ele>
        <time>2026-01-25T11:14:21Z</time>
      </trkpt>
      <trkpt lat="48.51801" lon="-2.81123">
        <ele>93.4</ele>
        <time>2026-01-25T11:14:22Z</time>
      </trkpt>
      <trkpt lat="48.51801" lon="-2.81117">
        <ele>93.8</ele>
        <time>2026-01-25T11:14:23Z</time>
      </trkpt>
      <trkpt lat="48.518" lon="-2.81111">
        <ele>93.8</ele>
        <time>2026-01-25T11:14:24Z</time>
      </trkpt>
      <trkpt lat="48.51799" lon="-2.81105">
        <ele>93.8</ele>
        <time>2026-01-25T11:14:25Z</time>
      </trkpt>
      <trkpt lat="48.51799" lon="-2.81099">
        <ele>94.6</ele>
        <time>2026-01-25T11:14:26Z</time>
      </trkpt>
      <trkpt lat="48.51799" lon="-2.81092">
        <ele>94.4</ele>
        <time>2026-01-25T11:14:27Z</time>
      </trkpt>
      <trkpt lat="48.51799" lon="-2.81086">
        <ele>94.4</ele>
        <time>2026-01-25T11:14:28Z</time>
      </trkpt>
      <trkpt lat="48.51799" lon="-2.8108">
        <ele>94.4</ele>
        <time>2026-01-25T11:14:29Z</time>
      </trkpt>
      <trkpt lat="48.51799" lon="-2.81074">
        <ele>94.4</ele>
        <time>2026-01-25T11:14:30Z</time>
      </trkpt>
      <trkpt lat="48.51799" lon="-2.81068">
        <ele>94.6</ele>
        <time>2026-01-25T11:14:31Z</time>
      </trkpt>
      <trkpt lat="48.51799" lon="-2.81061">
        <ele>94.6</ele>
        <time>2026-01-25T11:14:32Z</time>
      </trkpt>
      <trkpt lat="48.51799" lon="-2.81055">
        <ele>94.6</ele>
        <time>2026-01-25T11:14:33Z</time>
      </trkpt>
      <trkpt lat="48.51799" lon="-2.81049">
        <ele>95.2</ele>
        <time>2026-01-25T11:14:34Z</time>
      </trkpt>
      <trkpt lat="48.51799" lon="-2.81042">
        <ele>95.6</ele>
        <time>2026-01-25T11:14:35Z</time>
      </trkpt>
      <trkpt lat="48.51799" lon="-2.81036">
        <ele>95.6</ele>
        <time>2026-01-25T11:14:36Z</time>
      </trkpt>
      <trkpt lat="48.51799" lon="-2.81029">
        <ele>95.6</ele>
        <time>2026-01-25T11:14:37Z</time>
      </trkpt>
      <trkpt lat="48.51799" lon="-2.81022">
        <ele>96</ele>
        <time>2026-01-25T11:14:38Z</time>
      </trkpt>
      <trkpt lat="48.51799" lon="-2.81016">
        <ele>97</ele>
        <time>2026-01-25T11:14:39Z</time>
      </trkpt>
      <trkpt lat="48.51799" lon="-2.81009">
        <ele>97</ele>
        <time>2026-01-25T11:14:40Z</time>
      </trkpt>
      <trkpt lat="48.51799" lon="-2.81003">
        <ele>97</ele>
        <time>2026-01-25T11:14:41Z</time>
      </trkpt>
      <trkpt lat="48.51799" lon="-2.80996">
        <ele>97</ele>
        <time>2026-01-25T11:14:42Z</time>
      </trkpt>
      <trkpt lat="48.51798" lon="-2.8099">
        <ele>97.4</ele>
        <time>2026-01-25T11:14:43Z</time>
      </trkpt>
      <trkpt lat="48.51798" lon="-2.80984">
        <ele>97.4</ele>
        <time>2026-01-25T11:14:44Z</time>
      </trkpt>
      <trkpt lat="48.51798" lon="-2.80978">
        <ele>97.4</ele>
        <time>2026-01-25T11:14:45Z</time>
      </trkpt>
      <trkpt lat="48.51798" lon="-2.80971">
        <ele>97.4</ele>
        <time>2026-01-25T11:14:46Z</time>
      </trkpt>
      <trkpt lat="48.51798" lon="-2.80965">
        <ele>97.6</ele>
        <time>2026-01-25T11:14:47Z</time>
      </trkpt>
      <trkpt lat="48.51797" lon="-2.80959">
        <ele>97.6</ele>
        <time>2026-01-25T11:14:48Z</time>
      </trkpt>
      <trkpt lat="48.51797" lon="-2.80953">
        <ele>97.6</ele>
        <time>2026-01-25T11:14:49Z</time>
      </trkpt>
      <trkpt lat="48.51797" lon="-2.80946">
        <ele>98</ele>
        <time>2026-01-25T11:14:50Z</time>
      </trkpt>
      <trkpt lat="48.51797" lon="-2.8094">
        <ele>98.2</ele>
        <time>2026-01-25T11:14:51Z</time>
      </trkpt>
      <trkpt lat="48.51796" lon="-2.80934">
        <ele>98.2</ele>
        <time>2026-01-25T11:14:52Z</time>
      </trkpt>
      <trkpt lat="48.51796" lon="-2.80928">
        <ele>98.2</ele>
        <time>2026-01-25T11:14:53Z</time>
      </trkpt>
      <trkpt lat="48.51796" lon="-2.80921">
        <ele>98.2</ele>
        <time>2026-01-25T11:14:54Z</time>
      </trkpt>
      <trkpt lat="48.51796" lon="-2.80915">
        <ele>99</ele>
        <time>2026-01-25T11:14:55Z</time>
      </trkpt>
      <trkpt lat="48.51796" lon="-2.80909">
        <ele>99</ele>
        <time>2026-01-25T11:14:56Z</time>
      </trkpt>
      <trkpt lat="48.51796" lon="-2.80902">
        <ele>99</ele>
        <time>2026-01-25T11:14:57Z</time>
      </trkpt>
      <trkpt lat="48.51795" lon="-2.80896">
        <ele>99.4</ele>
        <time>2026-01-25T11:14:58Z</time>
      </trkpt>
      <trkpt lat="48.51795" lon="-2.8089">
        <ele>100.2</ele>
        <time>2026-01-25T11:14:59Z</time>
      </trkpt>
      <trkpt lat="48.51795" lon="-2.80884">
        <ele>100.2</ele>
        <time>2026-01-25T11:15:00Z</time>
      </trkpt>
      <trkpt lat="48.51795" lon="-2.80877">
        <ele>100.2</ele>
        <time>2026-01-25T11:15:01Z</time>
      </trkpt>
      <trkpt lat="48.51795" lon="-2.80871">
        <ele>100.2</ele>
        <time>2026-01-25T11:15:02Z</time>
      </trkpt>
      <trkpt lat="48.51794" lon="-2.80865">
        <ele>100.8</ele>
        <time>2026-01-25T11:15:03Z</time>
      </trkpt>
      <trkpt lat="48.51794" lon="-2.80858">
        <ele>100.8</ele>
        <time>2026-01-25T11:15:04Z</time>
      </trkpt>
      <trkpt lat="48.51794" lon="-2.80852">
        <ele>100.8</ele>
        <time>2026-01-25T11:15:05Z</time>
      </trkpt>
      <trkpt lat="48.51793" lon="-2.80846">
        <ele>100.8</ele>
        <time>2026-01-25T11:15:06Z</time>
      </trkpt>
      <trkpt lat="48.51793" lon="-2.8084">
        <ele>101.4</ele>
        <time>2026-01-25T11:15:07Z</time>
      </trkpt>
      <trkpt lat="48.51793" lon="-2.80833">
        <ele>101.4</ele>
        <time>2026-01-25T11:15:08Z</time>
      </trkpt>
      <trkpt lat="48.51793" lon="-2.80827">
        <ele>101.4</ele>
        <time>2026-01-25T11:15:09Z</time>
      </trkpt>
      <trkpt lat="48.51792" lon="-2.80821">
        <ele>102.2</ele>
        <time>2026-01-25T11:15:10Z</time>
      </trkpt>
      <trkpt lat="48.51792" lon="-2.80814">
        <ele>101.6</ele>
        <time>2026-01-25T11:15:11Z</time>
      </trkpt>
      <trkpt lat="48.51792" lon="-2.80808">
        <ele>101.6</ele>
        <time>2026-01-25T11:15:12Z</time>
      </trkpt>
      <trkpt lat="48.51791" lon="-2.80802">
        <ele>101.6</ele>
        <time>2026-01-25T11:15:13Z</time>
      </trkpt>
      <trkpt lat="48.51791" lon="-2.80796">
        <ele>102.2</ele>
        <time>2026-01-25T11:15:14Z</time>
      </trkpt>
      <trkpt lat="48.51791" lon="-2.80789">
        <ele>102.2</ele>
        <time>2026-01-25T11:15:15Z</time>
      </trkpt>
      <trkpt lat="48.5179" lon="-2.80783">
        <ele>102.2</ele>
        <time>2026-01-25T11:15:16Z</time>
      </trkpt>
      <trkpt lat="48.5179" lon="-2.80777">
        <ele>102.2</ele>
        <time>2026-01-25T11:15:17Z</time>
      </trkpt>
      <trkpt lat="48.5179" lon="-2.80771">
        <ele>102.2</ele>
        <time>2026-01-25T11:15:18Z</time>
      </trkpt>
      <trkpt lat="48.5179" lon="-2.80765">
        <ele>103.2</ele>
        <time>2026-01-25T11:15:19Z</time>
      </trkpt>
      <trkpt lat="48.5179" lon="-2.80758">
        <ele>103.2</ele>
        <time>2026-01-25T11:15:20Z</time>
      </trkpt>
      <trkpt lat="48.51789" lon="-2.80752">
        <ele>103.2</ele>
        <time>2026-01-25T11:15:21Z</time>
      </trkpt>
      <trkpt lat="48.51788" lon="-2.80746">
        <ele>103.2</ele>
        <time>2026-01-25T11:15:22Z</time>
      </trkpt>
      <trkpt lat="48.51788" lon="-2.8074">
        <ele>103.2</ele>
        <time>2026-01-25T11:15:23Z</time>
      </trkpt>
      <trkpt lat="48.51787" lon="-2.80734">
        <ele>103.2</ele>
        <time>2026-01-25T11:15:24Z</time>
      </trkpt>
      <trkpt lat="48.51787" lon="-2.80728">
        <ele>103.2</ele>
        <time>2026-01-25T11:15:25Z</time>
      </trkpt>
      <trkpt lat="48.51787" lon="-2.80722">
        <ele>104.2</ele>
        <time>2026-01-25T11:15:26Z</time>
      </trkpt>
      <trkpt lat="48.51786" lon="-2.80716">
        <ele>104.6</ele>
        <time>2026-01-25T11:15:27Z</time>
      </trkpt>
      <trkpt lat="48.51785" lon="-2.8071">
        <ele>104.6</ele>
        <time>2026-01-25T11:15:28Z</time>
      </trkpt>
      <trkpt lat="48.51785" lon="-2.80704">
        <ele>104.6</ele>
        <time>2026-01-25T11:15:29Z</time>
      </trkpt>
      <trkpt lat="48.51785" lon="-2.80698">
        <ele>105.6</ele>
        <time>2026-01-25T11:15:30Z</time>
      </trkpt>
      <trkpt lat="48.51784" lon="-2.80691">
        <ele>106</ele>
        <time>2026-01-25T11:15:31Z</time>
      </trkpt>
      <trkpt lat="48.51784" lon="-2.80685">
        <ele>106</ele>
        <time>2026-01-25T11:15:32Z</time>
      </trkpt>
      <trkpt lat="48.51784" lon="-2.80679">
        <ele>106</ele>
        <time>2026-01-25T11:15:33Z</time>
      </trkpt>
      <trkpt lat="48.51784" lon="-2.80673">
        <ele>106.6</ele>
        <time>2026-01-25T11:15:34Z</time>
      </trkpt>
      <trkpt lat="48.51784" lon="-2.80667">
        <ele>106.6</ele>
        <time>2026-01-25T11:15:35Z</time>
      </trkpt>
      <trkpt lat="48.51784" lon="-2.80661">
        <ele>106.6</ele>
        <time>2026-01-25T11:15:36Z</time>
      </trkpt>
      <trkpt lat="48.51784" lon="-2.80655">
        <ele>106.6</ele>
        <time>2026-01-25T11:15:37Z</time>
      </trkpt>
      <trkpt lat="48.51784" lon="-2.80649">
        <ele>107.4</ele>
        <time>2026-01-25T11:15:38Z</time>
      </trkpt>
      <trkpt lat="48.51783" lon="-2.80643">
        <ele>107.4</ele>
        <time>2026-01-25T11:15:39Z</time>
      </trkpt>
      <trkpt lat="48.51782" lon="-2.80637">
        <ele>107.4</ele>
        <time>2026-01-25T11:15:40Z</time>
      </trkpt>
      <trkpt lat="48.5178" lon="-2.80631">
        <ele>107.4</ele>
        <time>2026-01-25T11:15:41Z</time>
      </trkpt>
      <trkpt lat="48.51778" lon="-2.80626">
        <ele>108</ele>
        <time>2026-01-25T11:15:42Z</time>
      </trkpt>
      <trkpt lat="48.51776" lon="-2.80621">
        <ele>108.6</ele>
        <time>2026-01-25T11:15:43Z</time>
      </trkpt>
      <trkpt lat="48.51773" lon="-2.80617">
        <ele>108.6</ele>
        <time>2026-01-25T11:15:44Z</time>
      </trkpt>
      <trkpt lat="48.51769" lon="-2.80616">
        <ele>108.6</ele>
        <time>2026-01-25T11:15:45Z</time>
      </trkpt>
      <trkpt lat="48.51765" lon="-2.80618">
        <ele>107.6</ele>
        <time>2026-01-25T11:15:46Z</time>
      </trkpt>
      <trkpt lat="48.51763" lon="-2.80623">
        <ele>107.6</ele>
        <time>2026-01-25T11:15:47Z</time>
      </trkpt>
      <trkpt lat="48.51762" lon="-2.80629">
        <ele>107.6</ele>
        <time>2026-01-25T11:15:48Z</time>
      </trkpt>
      <trkpt lat="48.51761" lon="-2.80635">
        <ele>107.6</ele>
        <time>2026-01-25T11:15:49Z</time>
      </trkpt>
      <trkpt lat="48.51761" lon="-2.80641">
        <ele>107.6</ele>
        <time>2026-01-25T11:15:50Z</time>
      </trkpt>
      <trkpt lat="48.51761" lon="-2.80647">
        <ele>108.4</ele>
        <time>2026-01-25T11:15:51Z</time>
      </trkpt>
      <trkpt lat="48.51761" lon="-2.80653">
        <ele>108.4</ele>
        <time>2026-01-25T11:15:52Z</time>
      </trkpt>
      <trkpt lat="48.5176" lon="-2.8066">
        <ele>108.4</ele>
        <time>2026-01-25T11:15:53Z</time>
      </trkpt>
      <trkpt lat="48.5176" lon="-2.80666">
        <ele>108.4</ele>
        <time>2026-01-25T11:15:54Z</time>
      </trkpt>
      <trkpt lat="48.51759" lon="-2.80673">
        <ele>108.2</ele>
        <time>2026-01-25T11:15:55Z</time>
      </trkpt>
      <trkpt lat="48.51759" lon="-2.80679">
        <ele>108.2</ele>
        <time>2026-01-25T11:15:56Z</time>
      </trkpt>
      <trkpt lat="48.51758" lon="-2.80686">
        <ele>108.2</ele>
        <time>2026-01-25T11:15:57Z</time>
      </trkpt>
      <trkpt lat="48.51757" lon="-2.80692">
        <ele>108.2</ele>
        <time>2026-01-25T11:15:58Z</time>
      </trkpt>
      <trkpt lat="48.51755" lon="-2.80699">
        <ele>108.4</ele>
        <time>2026-01-25T11:15:59Z</time>
      </trkpt>
      <trkpt lat="48.51754" lon="-2.80707">
        <ele>108.4</ele>
        <time>2026-01-25T11:16:00Z</time>
      </trkpt>
      <trkpt lat="48.51753" lon="-2.80714">
        <ele>108.4</ele>
        <time>2026-01-25T11:16:01Z</time>
      </trkpt>
      <trkpt lat="48.51751" lon="-2.80721">
        <ele>107.8</ele>
        <time>2026-01-25T11:16:02Z</time>
      </trkpt>
      <trkpt lat="48.5175" lon="-2.80728">
        <ele>107.6</ele>
        <time>2026-01-25T11:16:03Z</time>
      </trkpt>
      <trkpt lat="48.51749" lon="-2.80735">
        <ele>107.6</ele>
        <time>2026-01-25T11:16:04Z</time>
      </trkpt>
      <trkpt lat="48.51747" lon="-2.80742">
        <ele>107.6</ele>
        <time>2026-01-25T11:16:05Z</time>
      </trkpt>
      <trkpt lat="48.51746" lon="-2.80749">
        <ele>107.6</ele>
        <time>2026-01-25T11:16:06Z</time>
      </trkpt>
      <trkpt lat="48.51744" lon="-2.80757">
        <ele>106.4</ele>
        <time>2026-01-25T11:16:07Z</time>
      </trkpt>
      <trkpt lat="48.51742" lon="-2.80765">
        <ele>106.4</ele>
        <time>2026-01-25T11:16:08Z</time>
      </trkpt>
      <trkpt lat="48.5174" lon="-2.80772">
        <ele>106.4</ele>
        <time>2026-01-25T11:16:09Z</time>
      </trkpt>
      <trkpt lat="48.51738" lon="-2.80781">
        <ele>106.4</ele>
        <time>2026-01-25T11:16:10Z</time>
      </trkpt>
      <trkpt lat="48.51736" lon="-2.80789">
        <ele>105.8</ele>
        <time>2026-01-25T11:16:11Z</time>
      </trkpt>
      <trkpt lat="48.51734" lon="-2.80797">
        <ele>105.8</ele>
        <time>2026-01-25T11:16:12Z</time>
      </trkpt>
      <trkpt lat="48.51731" lon="-2.80805">
        <ele>105.8</ele>
        <time>2026-01-25T11:16:13Z</time>
      </trkpt>
      <trkpt lat="48.51728" lon="-2.80812">
        <ele>106.2</ele>
        <time>2026-01-25T11:16:14Z</time>
      </trkpt>
      <trkpt lat="48.51725" lon="-2.8082">
        <ele>105.8</ele>
        <time>2026-01-25T11:16:15Z</time>
      </trkpt>
      <trkpt lat="48.51723" lon="-2.80828">
        <ele>105.8</ele>
        <time>2026-01-25T11:16:16Z</time>
      </trkpt>
      <trkpt lat="48.5172" lon="-2.80836">
        <ele>105.8</ele>
        <time>2026-01-25T11:16:17Z</time>
      </trkpt>
      <trkpt lat="48.51717" lon="-2.80844">
        <ele>105.8</ele>
        <time>2026-01-25T11:16:18Z</time>
      </trkpt>
      <trkpt lat="48.51713" lon="-2.80852">
        <ele>105</ele>
        <time>2026-01-25T11:16:19Z</time>
      </trkpt>
      <trkpt lat="48.5171" lon="-2.8086">
        <ele>105</ele>
        <time>2026-01-25T11:16:20Z</time>
      </trkpt>
      <trkpt lat="48.51707" lon="-2.80868">
        <ele>105</ele>
        <time>2026-01-25T11:16:21Z</time>
      </trkpt>
      <trkpt lat="48.51704" lon="-2.80875">
        <ele>105</ele>
        <time>2026-01-25T11:16:22Z</time>
      </trkpt>
      <trkpt lat="48.517" lon="-2.80883">
        <ele>104.4</ele>
        <time>2026-01-25T11:16:23Z</time>
      </trkpt>
      <trkpt lat="48.51697" lon="-2.80891">
        <ele>104.4</ele>
        <time>2026-01-25T11:16:24Z</time>
      </trkpt>
      <trkpt lat="48.51693" lon="-2.80898">
        <ele>104.4</ele>
        <time>2026-01-25T11:16:25Z</time>
      </trkpt>
      <trkpt lat="48.51689" lon="-2.80906">
        <ele>104.4</ele>
        <time>2026-01-25T11:16:26Z</time>
      </trkpt>
      <trkpt lat="48.51685" lon="-2.80913">
        <ele>104</ele>
        <time>2026-01-25T11:16:27Z</time>
      </trkpt>
      <trkpt lat="48.51681" lon="-2.8092">
        <ele>104</ele>
        <time>2026-01-25T11:16:28Z</time>
      </trkpt>
      <trkpt lat="48.51676" lon="-2.80928">
        <ele>104</ele>
        <time>2026-01-25T11:16:29Z</time>
      </trkpt>
      <trkpt lat="48.51671" lon="-2.80935">
        <ele>103.2</ele>
        <time>2026-01-25T11:16:30Z</time>
      </trkpt>
      <trkpt lat="48.51666" lon="-2.80942">
        <ele>102.6</ele>
        <time>2026-01-25T11:16:31Z</time>
      </trkpt>
      <trkpt lat="48.51661" lon="-2.80949">
        <ele>102.6</ele>
        <time>2026-01-25T11:16:32Z</time>
      </trkpt>
      <trkpt lat="48.51655" lon="-2.80956">
        <ele>102.6</ele>
        <time>2026-01-25T11:16:33Z</time>
      </trkpt>
      <trkpt lat="48.5165" lon="-2.80963">
        <ele>102.6</ele>
        <time>2026-01-25T11:16:34Z</time>
      </trkpt>
      <trkpt lat="48.51645" lon="-2.8097">
        <ele>101.6</ele>
        <time>2026-01-25T11:16:35Z</time>
      </trkpt>
      <trkpt lat="48.51639" lon="-2.80977">
        <ele>101.6</ele>
        <time>2026-01-25T11:16:36Z</time>
      </trkpt>
      <trkpt lat="48.51634" lon="-2.80984">
        <ele>101.6</ele>
        <time>2026-01-25T11:16:37Z</time>
      </trkpt>
      <trkpt lat="48.51629" lon="-2.80992">
        <ele>101.6</ele>
        <time>2026-01-25T11:16:38Z</time>
      </trkpt>
      <trkpt lat="48.51625" lon="-2.81">
        <ele>100.8</ele>
        <time>2026-01-25T11:16:39Z</time>
      </trkpt>
      <trkpt lat="48.5162" lon="-2.81008">
        <ele>100.8</ele>
        <time>2026-01-25T11:16:40Z</time>
      </trkpt>
      <trkpt lat="48.51616" lon="-2.81017">
        <ele>100.8</ele>
        <time>2026-01-25T11:16:41Z</time>
      </trkpt>
      <trkpt lat="48.51612" lon="-2.81025">
        <ele>100.6</ele>
        <time>2026-01-25T11:16:42Z</time>
      </trkpt>
      <trkpt lat="48.51608" lon="-2.81033">
        <ele>100.8</ele>
        <time>2026-01-25T11:16:43Z</time>
      </trkpt>
      <trkpt lat="48.51604" lon="-2.81041">
        <ele>100.8</ele>
        <time>2026-01-25T11:16:44Z</time>
      </trkpt>
      <trkpt lat="48.51601" lon="-2.81049">
        <ele>100.8</ele>
        <time>2026-01-25T11:16:45Z</time>
      </trkpt>
      <trkpt lat="48.51598" lon="-2.81057">
        <ele>101.8</ele>
        <time>2026-01-25T11:16:46Z</time>
      </trkpt>
      <trkpt lat="48.51595" lon="-2.81065">
        <ele>103</ele>
        <time>2026-01-25T11:16:47Z</time>
      </trkpt>
      <trkpt lat="48.51593" lon="-2.81073">
        <ele>103</ele>
        <time>2026-01-25T11:16:48Z</time>
      </trkpt>
      <trkpt lat="48.51591" lon="-2.81082">
        <ele>103</ele>
        <time>2026-01-25T11:16:49Z</time>
      </trkpt>
      <trkpt lat="48.51589" lon="-2.8109">
        <ele>104</ele>
        <time>2026-01-25T11:16:50Z</time>
      </trkpt>
      <trkpt lat="48.51588" lon="-2.81098">
        <ele>105.4</ele>
        <time>2026-01-25T11:16:51Z</time>
      </trkpt>
      <trkpt lat="48.51587" lon="-2.81107">
        <ele>105.4</ele>
        <time>2026-01-25T11:16:52Z</time>
      </trkpt>
      <trkpt lat="48.51586" lon="-2.81116">
        <ele>105.4</ele>
        <time>2026-01-25T11:16:53Z</time>
      </trkpt>
      <trkpt lat="48.51585" lon="-2.81125">
        <ele>105.2</ele>
        <time>2026-01-25T11:16:54Z</time>
      </trkpt>
      <trkpt lat="48.51585" lon="-2.81134">
        <ele>105.4</ele>
        <time>2026-01-25T11:16:55Z</time>
      </trkpt>
      <trkpt lat="48.51586" lon="-2.81144">
        <ele>105.4</ele>
        <time>2026-01-25T11:16:56Z</time>
      </trkpt>
      <trkpt lat="48.51587" lon="-2.81153">
        <ele>105.4</ele>
        <time>2026-01-25T11:16:57Z</time>
      </trkpt>
      <trkpt lat="48.51589" lon="-2.81162">
        <ele>105.4</ele>
        <time>2026-01-25T11:16:58Z</time>
      </trkpt>
      <trkpt lat="48.51591" lon="-2.81171">
        <ele>106.6</ele>
        <time>2026-01-25T11:16:59Z</time>
      </trkpt>
      <trkpt lat="48.51594" lon="-2.81179">
        <ele>106.6</ele>
        <time>2026-01-25T11:17:00Z</time>
      </trkpt>
      <trkpt lat="48.51597" lon="-2.81186">
        <ele>106.6</ele>
        <time>2026-01-25T11:17:01Z</time>
      </trkpt>
      <trkpt lat="48.51599" lon="-2.81194">
        <ele>106.6</ele>
        <time>2026-01-25T11:17:02Z</time>
      </trkpt>
      <trkpt lat="48.51602" lon="-2.81202">
        <ele>107</ele>
        <time>2026-01-25T11:17:03Z</time>
      </trkpt>
      <trkpt lat="48.51604" lon="-2.8121">
        <ele>107</ele>
        <time>2026-01-25T11:17:04Z</time>
      </trkpt>
      <trkpt lat="48.51607" lon="-2.81217">
        <ele>107</ele>
        <time>2026-01-25T11:17:05Z</time>
      </trkpt>
      <trkpt lat="48.51609" lon="-2.81225">
        <ele>107</ele>
        <time>2026-01-25T11:17:06Z</time>
      </trkpt>
      <trkpt lat="48.51611" lon="-2.81233">
        <ele>107</ele>
        <time>2026-01-25T11:17:07Z</time>
      </trkpt>
      <trkpt lat="48.51614" lon="-2.8124">
        <ele>107</ele>
        <time>2026-01-25T11:17:08Z</time>
      </trkpt>
      <trkpt lat="48.51616" lon="-2.81248">
        <ele>107</ele>
        <time>2026-01-25T11:17:09Z</time>
      </trkpt>
      <trkpt lat="48.51618" lon="-2.81256">
        <ele>106</ele>
        <time>2026-01-25T11:17:10Z</time>
      </trkpt>
      <trkpt lat="48.5162" lon="-2.81264">
        <ele>106.2</ele>
        <time>2026-01-25T11:17:11Z</time>
      </trkpt>
      <trkpt lat="48.51622" lon="-2.81272">
        <ele>106.2</ele>
        <time>2026-01-25T11:17:12Z</time>
      </trkpt>
      <trkpt lat="48.51624" lon="-2.8128">
        <ele>106.2</ele>
        <time>2026-01-25T11:17:13Z</time>
      </trkpt>
      <trkpt lat="48.51627" lon="-2.81287">
        <ele>106.2</ele>
        <time>2026-01-25T11:17:14Z</time>
      </trkpt>
      <trkpt lat="48.51629" lon="-2.81295">
        <ele>107.4</ele>
        <time>2026-01-25T11:17:15Z</time>
      </trkpt>
      <trkpt lat="48.51631" lon="-2.81303">
        <ele>107.4</ele>
        <time>2026-01-25T11:17:16Z</time>
      </trkpt>
      <trkpt lat="48.51633" lon="-2.81311">
        <ele>107.4</ele>
        <time>2026-01-25T11:17:17Z</time>
      </trkpt>
      <trkpt lat="48.51635" lon="-2.81319">
        <ele>106.8</ele>
        <time>2026-01-25T11:17:18Z</time>
      </trkpt>
      <trkpt lat="48.51636" lon="-2.81327">
        <ele>106.2</ele>
        <time>2026-01-25T11:17:19Z</time>
      </trkpt>
      <trkpt lat="48.51638" lon="-2.81335">
        <ele>106.2</ele>
        <time>2026-01-25T11:17:20Z</time>
      </trkpt>
      <trkpt lat="48.51641" lon="-2.81343">
        <ele>106.2</ele>
        <time>2026-01-25T11:17:21Z</time>
      </trkpt>
      <trkpt lat="48.51642" lon="-2.81352">
        <ele>106.2</ele>
        <time>2026-01-25T11:17:22Z</time>
      </trkpt>
      <trkpt lat="48.51644" lon="-2.81361">
        <ele>105.6</ele>
        <time>2026-01-25T11:17:23Z</time>
      </trkpt>
      <trkpt lat="48.51646" lon="-2.81369">
        <ele>105.6</ele>
        <time>2026-01-25T11:17:24Z</time>
      </trkpt>
      <trkpt lat="48.51648" lon="-2.81379">
        <ele>105.6</ele>
        <time>2026-01-25T11:17:25Z</time>
      </trkpt>
      <trkpt lat="48.5165" lon="-2.81389">
        <ele>104.6</ele>
        <time>2026-01-25T11:17:26Z</time>
      </trkpt>
      <trkpt lat="48.51652" lon="-2.81399">
        <ele>101.6</ele>
        <time>2026-01-25T11:17:27Z</time>
      </trkpt>
      <trkpt lat="48.51654" lon="-2.8141">
        <ele>101.6</ele>
        <time>2026-01-25T11:17:28Z</time>
      </trkpt>
      <trkpt lat="48.51656" lon="-2.81421">
        <ele>101.6</ele>
        <time>2026-01-25T11:17:29Z</time>
      </trkpt>
      <trkpt lat="48.51659" lon="-2.81433">
        <ele>100.6</ele>
        <time>2026-01-25T11:17:30Z</time>
      </trkpt>
      <trkpt lat="48.51661" lon="-2.81445">
        <ele>98.2</ele>
        <time>2026-01-25T11:17:31Z</time>
      </trkpt>
      <trkpt lat="48.51663" lon="-2.81457">
        <ele>98.2</ele>
        <time>2026-01-25T11:17:32Z</time>
      </trkpt>
      <trkpt lat="48.51664" lon="-2.8147">
        <ele>98.2</ele>
        <time>2026-01-25T11:17:33Z</time>
      </trkpt>
      <trkpt lat="48.51666" lon="-2.81484">
        <ele>97.2</ele>
        <time>2026-01-25T11:17:34Z</time>
      </trkpt>
      <trkpt lat="48.51667" lon="-2.81498">
        <ele>95.4</ele>
        <time>2026-01-25T11:17:35Z</time>
      </trkpt>
      <trkpt lat="48.51667" lon="-2.81511">
        <ele>95.4</ele>
        <time>2026-01-25T11:17:36Z</time>
      </trkpt>
      <trkpt lat="48.51668" lon="-2.81526">
        <ele>95.4</ele>
        <time>2026-01-25T11:17:37Z</time>
      </trkpt>
      <trkpt lat="48.51668" lon="-2.8154">
        <ele>94.6</ele>
        <time>2026-01-25T11:17:38Z</time>
      </trkpt>
      <trkpt lat="48.51668" lon="-2.81554">
        <ele>93.4</ele>
        <time>2026-01-25T11:17:39Z</time>
      </trkpt>
      <trkpt lat="48.51669" lon="-2.81569">
        <ele>93.4</ele>
        <time>2026-01-25T11:17:40Z</time>
      </trkpt>
      <trkpt lat="48.51669" lon="-2.81583">
        <ele>93.4</ele>
        <time>2026-01-25T11:17:41Z</time>
      </trkpt>
      <trkpt lat="48.51669" lon="-2.81597">
        <ele>92.4</ele>
        <time>2026-01-25T11:17:42Z</time>
      </trkpt>
      <trkpt lat="48.5167" lon="-2.81612">
        <ele>90.6</ele>
        <time>2026-01-25T11:17:43Z</time>
      </trkpt>
      <trkpt lat="48.5167" lon="-2.81626">
        <ele>90.6</ele>
        <time>2026-01-25T11:17:44Z</time>
      </trkpt>
      <trkpt lat="48.5167" lon="-2.8164">
        <ele>90.6</ele>
        <time>2026-01-25T11:17:45Z</time>
      </trkpt>
      <trkpt lat="48.51671" lon="-2.81654">
        <ele>89.6</ele>
        <time>2026-01-25T11:17:46Z</time>
      </trkpt>
      <trkpt lat="48.51671" lon="-2.81668">
        <ele>87</ele>
        <time>2026-01-25T11:17:47Z</time>
      </trkpt>
      <trkpt lat="48.51671" lon="-2.81682">
        <ele>87</ele>
        <time>2026-01-25T11:17:48Z</time>
      </trkpt>
      <trkpt lat="48.51671" lon="-2.81696">
        <ele>87</ele>
        <time>2026-01-25T11:17:49Z</time>
      </trkpt>
      <trkpt lat="48.51672" lon="-2.8171">
        <ele>88</ele>
        <time>2026-01-25T11:17:50Z</time>
      </trkpt>
      <trkpt lat="48.51673" lon="-2.81723">
        <ele>88</ele>
        <time>2026-01-25T11:17:51Z</time>
      </trkpt>
      <trkpt lat="48.51673" lon="-2.81737">
        <ele>88</ele>
        <time>2026-01-25T11:17:52Z</time>
      </trkpt>
      <trkpt lat="48.51674" lon="-2.8175">
        <ele>88</ele>
        <time>2026-01-25T11:17:53Z</time>
      </trkpt>
      <trkpt lat="48.51674" lon="-2.81763">
        <ele>87.8</ele>
        <time>2026-01-25T11:17:54Z</time>
      </trkpt>
      <trkpt lat="48.51675" lon="-2.81776">
        <ele>86.2</ele>
        <time>2026-01-25T11:17:55Z</time>
      </trkpt>
      <trkpt lat="48.51675" lon="-2.81789">
        <ele>86.2</ele>
        <time>2026-01-25T11:17:56Z</time>
      </trkpt>
      <trkpt lat="48.51676" lon="-2.81802">
        <ele>86.2</ele>
        <time>2026-01-25T11:17:57Z</time>
      </trkpt>
      <trkpt lat="48.51676" lon="-2.81815">
        <ele>85.4</ele>
        <time>2026-01-25T11:17:58Z</time>
      </trkpt>
      <trkpt lat="48.51676" lon="-2.81828">
        <ele>85.4</ele>
        <time>2026-01-25T11:17:59Z</time>
      </trkpt>
      <trkpt lat="48.51676" lon="-2.81841">
        <ele>85.4</ele>
        <time>2026-01-25T11:18:00Z</time>
      </trkpt>
      <trkpt lat="48.51677" lon="-2.81854">
        <ele>85.4</ele>
        <time>2026-01-25T11:18:01Z</time>
      </trkpt>
      <trkpt lat="48.51677" lon="-2.81867">
        <ele>84.4</ele>
        <time>2026-01-25T11:18:02Z</time>
      </trkpt>
      <trkpt lat="48.51677" lon="-2.8188">
        <ele>82.8</ele>
        <time>2026-01-25T11:18:03Z</time>
      </trkpt>
      <trkpt lat="48.51677" lon="-2.81893">
        <ele>82.8</ele>
        <time>2026-01-25T11:18:04Z</time>
      </trkpt>
      <trkpt lat="48.51677" lon="-2.81907">
        <ele>82.8</ele>
        <time>2026-01-25T11:18:05Z</time>
      </trkpt>
      <trkpt lat="48.51676" lon="-2.81921">
        <ele>81.8</ele>
        <time>2026-01-25T11:18:06Z</time>
      </trkpt>
      <trkpt lat="48.51676" lon="-2.81934">
        <ele>78</ele>
        <time>2026-01-25T11:18:07Z</time>
      </trkpt>
      <trkpt lat="48.51675" lon="-2.81947">
        <ele>78</ele>
        <time>2026-01-25T11:18:08Z</time>
      </trkpt>
      <trkpt lat="48.51675" lon="-2.8196">
        <ele>78</ele>
        <time>2026-01-25T11:18:09Z</time>
      </trkpt>
      <trkpt lat="48.51675" lon="-2.81974">
        <ele>78</ele>
        <time>2026-01-25T11:18:10Z</time>
      </trkpt>
      <trkpt lat="48.51675" lon="-2.81988">
        <ele>76.6</ele>
        <time>2026-01-25T11:18:11Z</time>
      </trkpt>
      <trkpt lat="48.51677" lon="-2.82002">
        <ele>76.6</ele>
        <time>2026-01-25T11:18:12Z</time>
      </trkpt>
      <trkpt lat="48.51679" lon="-2.82017">
        <ele>76.6</ele>
        <time>2026-01-25T11:18:13Z</time>
      </trkpt>
      <trkpt lat="48.51681" lon="-2.82032">
        <ele>75.6</ele>
        <time>2026-01-25T11:18:14Z</time>
      </trkpt>
      <trkpt lat="48.51684" lon="-2.82048">
        <ele>71.4</ele>
        <time>2026-01-25T11:18:15Z</time>
      </trkpt>
      <trkpt lat="48.51687" lon="-2.82063">
        <ele>71.4</ele>
        <time>2026-01-25T11:18:16Z</time>
      </trkpt>
      <trkpt lat="48.51691" lon="-2.82078">
        <ele>71.4</ele>
        <time>2026-01-25T11:18:17Z</time>
      </trkpt>
      <trkpt lat="48.51695" lon="-2.82092">
        <ele>71.2</ele>
        <time>2026-01-25T11:18:18Z</time>
      </trkpt>
      <trkpt lat="48.51699" lon="-2.82107">
        <ele>69</ele>
        <time>2026-01-25T11:18:19Z</time>
      </trkpt>
      <trkpt lat="48.51703" lon="-2.82121">
        <ele>69</ele>
        <time>2026-01-25T11:18:20Z</time>
      </trkpt>
      <trkpt lat="48.51708" lon="-2.82135">
        <ele>69</ele>
        <time>2026-01-25T11:18:21Z</time>
      </trkpt>
      <trkpt lat="48.51712" lon="-2.82149">
        <ele>68</ele>
        <time>2026-01-25T11:18:22Z</time>
      </trkpt>
      <trkpt lat="48.51718" lon="-2.82162">
        <ele>66.2</ele>
        <time>2026-01-25T11:18:23Z</time>
      </trkpt>
      <trkpt lat="48.51723" lon="-2.82175">
        <ele>66.2</ele>
        <time>2026-01-25T11:18:24Z</time>
      </trkpt>
      <trkpt lat="48.51727" lon="-2.82186">
        <ele>66.2</ele>
        <time>2026-01-25T11:18:25Z</time>
      </trkpt>
      <trkpt lat="48.51732" lon="-2.82197">
        <ele>65.2</ele>
        <time>2026-01-25T11:18:26Z</time>
      </trkpt>
      <trkpt lat="48.51736" lon="-2.82207">
        <ele>63.6</ele>
        <time>2026-01-25T11:18:27Z</time>
      </trkpt>
      <trkpt lat="48.51739" lon="-2.82216">
        <ele>63.6</ele>
        <time>2026-01-25T11:18:28Z</time>
      </trkpt>
      <trkpt lat="48.51742" lon="-2.82225">
        <ele>63.6</ele>
        <time>2026-01-25T11:18:29Z</time>
      </trkpt>
      <trkpt lat="48.51743" lon="-2.82234">
        <ele>62.6</ele>
        <time>2026-01-25T11:18:30Z</time>
      </trkpt>
      <trkpt lat="48.51745" lon="-2.82244">
        <ele>57.8</ele>
        <time>2026-01-25T11:18:31Z</time>
      </trkpt>
      <trkpt lat="48.51746" lon="-2.82254">
        <ele>57.8</ele>
        <time>2026-01-25T11:18:32Z</time>
      </trkpt>
      <trkpt lat="48.51746" lon="-2.82264">
        <ele>57.8</ele>
        <time>2026-01-25T11:18:33Z</time>
      </trkpt>
      <trkpt lat="48.51745" lon="-2.82274">
        <ele>56.8</ele>
        <time>2026-01-25T11:18:34Z</time>
      </trkpt>
      <trkpt lat="48.51742" lon="-2.82285">
        <ele>52.8</ele>
        <time>2026-01-25T11:18:35Z</time>
      </trkpt>
      <trkpt lat="48.51739" lon="-2.82294">
        <ele>52.8</ele>
        <time>2026-01-25T11:18:36Z</time>
      </trkpt>
      <trkpt lat="48.51735" lon="-2.82303">
        <ele>52.8</ele>
        <time>2026-01-25T11:18:37Z</time>
      </trkpt>
      <trkpt lat="48.51729" lon="-2.82312">
        <ele>51.8</ele>
        <time>2026-01-25T11:18:38Z</time>
      </trkpt>
      <trkpt lat="48.51723" lon="-2.8232">
        <ele>47.6</ele>
        <time>2026-01-25T11:18:39Z</time>
      </trkpt>
      <trkpt lat="48.51717" lon="-2.82328">
        <ele>47.6</ele>
        <time>2026-01-25T11:18:40Z</time>
      </trkpt>
      <trkpt lat="48.51712" lon="-2.82334">
        <ele>47.6</ele>
        <time>2026-01-25T11:18:41Z</time>
      </trkpt>
      <trkpt lat="48.51707" lon="-2.8234">
        <ele>47.6</ele>
        <time>2026-01-25T11:18:42Z</time>
      </trkpt>
      <trkpt lat="48.51703" lon="-2.82346">
        <ele>45.8</ele>
        <time>2026-01-25T11:18:43Z</time>
      </trkpt>
      <trkpt lat="48.51701" lon="-2.82353">
        <ele>45.8</ele>
        <time>2026-01-25T11:18:44Z</time>
      </trkpt>
      <trkpt lat="48.51699" lon="-2.82359">
        <ele>45.8</ele>
        <time>2026-01-25T11:18:45Z</time>
      </trkpt>
      <trkpt lat="48.517" lon="-2.82369">
        <ele>44.8</ele>
        <time>2026-01-25T11:18:46Z</time>
      </trkpt>
      <trkpt lat="48.51702" lon="-2.82378">
        <ele>41.2</ele>
        <time>2026-01-25T11:18:47Z</time>
      </trkpt>
      <trkpt lat="48.51706" lon="-2.82388">
        <ele>41.2</ele>
        <time>2026-01-25T11:18:48Z</time>
      </trkpt>
      <trkpt lat="48.51711" lon="-2.82398">
        <ele>41.2</ele>
        <time>2026-01-25T11:18:49Z</time>
      </trkpt>
      <trkpt lat="48.51717" lon="-2.82408">
        <ele>40.2</ele>
        <time>2026-01-25T11:18:50Z</time>
      </trkpt>
      <trkpt lat="48.51724" lon="-2.82418">
        <ele>33.6</ele>
        <time>2026-01-25T11:18:51Z</time>
      </trkpt>
      <trkpt lat="48.5173" lon="-2.82428">
        <ele>33.6</ele>
        <time>2026-01-25T11:18:52Z</time>
      </trkpt>
      <trkpt lat="48.51737" lon="-2.82438">
        <ele>33.6</ele>
        <time>2026-01-25T11:18:53Z</time>
      </trkpt>
      <trkpt lat="48.51745" lon="-2.82449">
        <ele>32.6</ele>
        <time>2026-01-25T11:18:54Z</time>
      </trkpt>
      <trkpt lat="48.51753" lon="-2.82459">
        <ele>30.2</ele>
        <time>2026-01-25T11:18:55Z</time>
      </trkpt>
      <trkpt lat="48.5176" lon="-2.82472">
        <ele>30.2</ele>
        <time>2026-01-25T11:18:56Z</time>
      </trkpt>
      <trkpt lat="48.51767" lon="-2.82482">
        <ele>30.2</ele>
        <time>2026-01-25T11:18:57Z</time>
      </trkpt>
      <trkpt lat="48.51774" lon="-2.8249">
        <ele>30.2</ele>
        <time>2026-01-25T11:18:58Z</time>
      </trkpt>
      <trkpt lat="48.5178" lon="-2.82498">
        <ele>30.2</ele>
        <time>2026-01-25T11:18:59Z</time>
      </trkpt>
      <trkpt lat="48.51786" lon="-2.82506">
        <ele>30.2</ele>
        <time>2026-01-25T11:19:00Z</time>
      </trkpt>
      <trkpt lat="48.51792" lon="-2.82513">
        <ele>30.2</ele>
        <time>2026-01-25T11:19:01Z</time>
      </trkpt>
      <trkpt lat="48.51797" lon="-2.82522">
        <ele>31.2</ele>
        <time>2026-01-25T11:19:02Z</time>
      </trkpt>
      <trkpt lat="48.51801" lon="-2.82531">
        <ele>32.6</ele>
        <time>2026-01-25T11:19:03Z</time>
      </trkpt>
      <trkpt lat="48.51802" lon="-2.82541">
        <ele>32.6</ele>
        <time>2026-01-25T11:19:04Z</time>
      </trkpt>
      <trkpt lat="48.51802" lon="-2.82551">
        <ele>32.6</ele>
        <time>2026-01-25T11:19:05Z</time>
      </trkpt>
      <trkpt lat="48.51801" lon="-2.8256">
        <ele>31.6</ele>
        <time>2026-01-25T11:19:06Z</time>
      </trkpt>
      <trkpt lat="48.51799" lon="-2.82568">
        <ele>31.4</ele>
        <time>2026-01-25T11:19:07Z</time>
      </trkpt>
      <trkpt lat="48.51795" lon="-2.82575">
        <ele>31.4</ele>
        <time>2026-01-25T11:19:08Z</time>
      </trkpt>
      <trkpt lat="48.51789" lon="-2.8258">
        <ele>31.4</ele>
        <time>2026-01-25T11:19:09Z</time>
      </trkpt>
      <trkpt lat="48.51783" lon="-2.82585">
        <ele>30.4</ele>
        <time>2026-01-25T11:19:10Z</time>
      </trkpt>
      <trkpt lat="48.51776" lon="-2.82591">
        <ele>29.4</ele>
        <time>2026-01-25T11:19:11Z</time>
      </trkpt>
      <trkpt lat="48.5177" lon="-2.82596">
        <ele>29.4</ele>
        <time>2026-01-25T11:19:12Z</time>
      </trkpt>
      <trkpt lat="48.51764" lon="-2.82603">
        <ele>29.4</ele>
        <time>2026-01-25T11:19:13Z</time>
      </trkpt>
      <trkpt lat="48.51758" lon="-2.82609">
        <ele>29.4</ele>
        <time>2026-01-25T11:19:14Z</time>
      </trkpt>
      <trkpt lat="48.51753" lon="-2.82616">
        <ele>30.2</ele>
        <time>2026-01-25T11:19:15Z</time>
      </trkpt>
      <trkpt lat="48.51748" lon="-2.82621">
        <ele>30.2</ele>
        <time>2026-01-25T11:19:16Z</time>
      </trkpt>
      <trkpt lat="48.51743" lon="-2.82626">
        <ele>30.2</ele>
        <time>2026-01-25T11:19:17Z</time>
      </trkpt>
      <trkpt lat="48.51738" lon="-2.82631">
        <ele>31.2</ele>
        <time>2026-01-25T11:19:18Z</time>
      </trkpt>
      <trkpt lat="48.51734" lon="-2.82634">
        <ele>33.2</ele>
        <time>2026-01-25T11:19:19Z</time>
      </trkpt>
      <trkpt lat="48.51729" lon="-2.82636">
        <ele>33.2</ele>
        <time>2026-01-25T11:19:20Z</time>
      </trkpt>
      <trkpt lat="48.51726" lon="-2.82638">
        <ele>33.2</ele>
        <time>2026-01-25T11:19:21Z</time>
      </trkpt>
      <trkpt lat="48.51722" lon="-2.8264">
        <ele>34.2</ele>
        <time>2026-01-25T11:19:22Z</time>
      </trkpt>
      <trkpt lat="48.51719" lon="-2.82641">
        <ele>34.8</ele>
        <time>2026-01-25T11:19:23Z</time>
      </trkpt>
      <trkpt lat="48.51716" lon="-2.82642">
        <ele>34.8</ele>
        <time>2026-01-25T11:19:24Z</time>
      </trkpt>
      <trkpt lat="48.51713" lon="-2.82643">
        <ele>34.8</ele>
        <time>2026-01-25T11:19:25Z</time>
      </trkpt>
      <trkpt lat="48.51711" lon="-2.82644">
        <ele>35.8</ele>
        <time>2026-01-25T11:19:26Z</time>
      </trkpt>
      <trkpt lat="48.51708" lon="-2.82645">
        <ele>36</ele>
        <time>2026-01-25T11:19:27Z</time>
      </trkpt>
      <trkpt lat="48.51705" lon="-2.82646">
        <ele>36</ele>
        <time>2026-01-25T11:19:28Z</time>
      </trkpt>
      <trkpt lat="48.51703" lon="-2.82646">
        <ele>36</ele>
        <time>2026-01-25T11:19:29Z</time>
      </trkpt>
      <trkpt lat="48.517" lon="-2.82647">
        <ele>36.6</ele>
        <time>2026-01-25T11:19:30Z</time>
      </trkpt>
      <trkpt lat="48.51698" lon="-2.82647">
        <ele>36.8</ele>
        <time>2026-01-25T11:19:31Z</time>
      </trkpt>
      <trkpt lat="48.51695" lon="-2.82648">
        <ele>36.8</ele>
        <time>2026-01-25T11:19:32Z</time>
      </trkpt>
      <trkpt lat="48.51693" lon="-2.82648">
        <ele>36.8</ele>
        <time>2026-01-25T11:19:33Z</time>
      </trkpt>
      <trkpt lat="48.51691" lon="-2.82648">
        <ele>37.4</ele>
        <time>2026-01-25T11:19:34Z</time>
      </trkpt>
      <trkpt lat="48.51688" lon="-2.82649">
        <ele>38</ele>
        <time>2026-01-25T11:19:35Z</time>
      </trkpt>
      <trkpt lat="48.51686" lon="-2.82649">
        <ele>38</ele>
        <time>2026-01-25T11:19:36Z</time>
      </trkpt>
      <trkpt lat="48.51684" lon="-2.82649">
        <ele>38</ele>
        <time>2026-01-25T11:19:37Z</time>
      </trkpt>
      <trkpt lat="48.51681" lon="-2.8265">
        <ele>38.2</ele>
        <time>2026-01-25T11:19:38Z</time>
      </trkpt>
      <trkpt lat="48.51679" lon="-2.82651">
        <ele>38.6</ele>
        <time>2026-01-25T11:19:39Z</time>
      </trkpt>
      <trkpt lat="48.51676" lon="-2.82651">
        <ele>38.6</ele>
        <time>2026-01-25T11:19:40Z</time>
      </trkpt>
      <trkpt lat="48.51674" lon="-2.82652">
        <ele>38.6</ele>
        <time>2026-01-25T11:19:41Z</time>
      </trkpt>
      <trkpt lat="48.51672" lon="-2.82653">
        <ele>39.4</ele>
        <time>2026-01-25T11:19:42Z</time>
      </trkpt>
      <trkpt lat="48.5167" lon="-2.82653">
        <ele>39.6</ele>
        <time>2026-01-25T11:19:43Z</time>
      </trkpt>
      <trkpt lat="48.51667" lon="-2.82653">
        <ele>39.6</ele>
        <time>2026-01-25T11:19:44Z</time>
      </trkpt>
      <trkpt lat="48.51665" lon="-2.82654">
        <ele>39.6</ele>
        <time>2026-01-25T11:19:45Z</time>
      </trkpt>
      <trkpt lat="48.51663" lon="-2.82655">
        <ele>40.6</ele>
        <time>2026-01-25T11:19:46Z</time>
      </trkpt>
      <trkpt lat="48.51661" lon="-2.82655">
        <ele>40.4</ele>
        <time>2026-01-25T11:19:47Z</time>
      </trkpt>
      <trkpt lat="48.51659" lon="-2.82656">
        <ele>40.4</ele>
        <time>2026-01-25T11:19:48Z</time>
      </trkpt>
      <trkpt lat="48.51656" lon="-2.82656">
        <ele>40.4</ele>
        <time>2026-01-25T11:19:49Z</time>
      </trkpt>
      <trkpt lat="48.51654" lon="-2.82656">
        <ele>41.4</ele>
        <time>2026-01-25T11:19:50Z</time>
      </trkpt>
      <trkpt lat="48.51652" lon="-2.82657">
        <ele>41.8</ele>
        <time>2026-01-25T11:19:51Z</time>
      </trkpt>
      <trkpt lat="48.5165" lon="-2.82658">
        <ele>41.8</ele>
        <time>2026-01-25T11:19:52Z</time>
      </trkpt>
      <trkpt lat="48.51647" lon="-2.82658">
        <ele>41.8</ele>
        <time>2026-01-25T11:19:53Z</time>
      </trkpt>
      <trkpt lat="48.51645" lon="-2.82659">
        <ele>42.4</ele>
        <time>2026-01-25T11:19:54Z</time>
      </trkpt>
      <trkpt lat="48.51643" lon="-2.8266">
        <ele>42.6</ele>
        <time>2026-01-25T11:19:55Z</time>
      </trkpt>
      <trkpt lat="48.51641" lon="-2.82661">
        <ele>42.6</ele>
        <time>2026-01-25T11:19:56Z</time>
      </trkpt>
      <trkpt lat="48.51638" lon="-2.82662">
        <ele>42.6</ele>
        <time>2026-01-25T11:19:57Z</time>
      </trkpt>
      <trkpt lat="48.51636" lon="-2.82663">
        <ele>43.4</ele>
        <time>2026-01-25T11:19:58Z</time>
      </trkpt>
      <trkpt lat="48.51634" lon="-2.82664">
        <ele>43.8</ele>
        <time>2026-01-25T11:19:59Z</time>
      </trkpt>
      <trkpt lat="48.51632" lon="-2.82665">
        <ele>43.8</ele>
        <time>2026-01-25T11:20:00Z</time>
      </trkpt>
      <trkpt lat="48.5163" lon="-2.82667">
        <ele>43.8</ele>
        <time>2026-01-25T11:20:01Z</time>
      </trkpt>
      <trkpt lat="48.51628" lon="-2.82669">
        <ele>43.8</ele>
        <time>2026-01-25T11:20:02Z</time>
      </trkpt>
      <trkpt lat="48.51626" lon="-2.8267">
        <ele>44.6</ele>
        <time>2026-01-25T11:20:03Z</time>
      </trkpt>
      <trkpt lat="48.51624" lon="-2.82672">
        <ele>44.6</ele>
        <time>2026-01-25T11:20:04Z</time>
      </trkpt>
      <trkpt lat="48.51622" lon="-2.82674">
        <ele>44.6</ele>
        <time>2026-01-25T11:20:05Z</time>
      </trkpt>
      <trkpt lat="48.51621" lon="-2.82676">
        <ele>45.2</ele>
        <time>2026-01-25T11:20:06Z</time>
      </trkpt>
      <trkpt lat="48.51619" lon="-2.82678">
        <ele>45.6</ele>
        <time>2026-01-25T11:20:07Z</time>
      </trkpt>
      <trkpt lat="48.51617" lon="-2.8268">
        <ele>45.6</ele>
        <time>2026-01-25T11:20:08Z</time>
      </trkpt>
      <trkpt lat="48.51615" lon="-2.82682">
        <ele>45.6</ele>
        <time>2026-01-25T11:20:09Z</time>
      </trkpt>
      <trkpt lat="48.51614" lon="-2.82685">
        <ele>45.6</ele>
        <time>2026-01-25T11:20:10Z</time>
      </trkpt>
      <trkpt lat="48.51612" lon="-2.82687">
        <ele>46.2</ele>
        <time>2026-01-25T11:20:11Z</time>
      </trkpt>
      <trkpt lat="48.51611" lon="-2.82689">
        <ele>46.2</ele>
        <time>2026-01-25T11:20:12Z</time>
      </trkpt>
      <trkpt lat="48.51609" lon="-2.82692">
        <ele>46.2</ele>
        <time>2026-01-25T11:20:13Z</time>
      </trkpt>
      <trkpt lat="48.51608" lon="-2.82694">
        <ele>47.2</ele>
        <time>2026-01-25T11:20:14Z</time>
      </trkpt>
      <trkpt lat="48.51607" lon="-2.82697">
        <ele>47.6</ele>
        <time>2026-01-25T11:20:15Z</time>
      </trkpt>
      <trkpt lat="48.51606" lon="-2.827">
        <ele>47.6</ele>
        <time>2026-01-25T11:20:16Z</time>
      </trkpt>
      <trkpt lat="48.51605" lon="-2.82703">
        <ele>47.6</ele>
        <time>2026-01-25T11:20:17Z</time>
      </trkpt>
      <trkpt lat="48.51604" lon="-2.82705">
        <ele>48</ele>
        <time>2026-01-25T11:20:18Z</time>
      </trkpt>
      <trkpt lat="48.51604" lon="-2.82708">
        <ele>48.2</ele>
        <time>2026-01-25T11:20:19Z</time>
      </trkpt>
      <trkpt lat="48.51603" lon="-2.8271">
        <ele>48.2</ele>
        <time>2026-01-25T11:20:20Z</time>
      </trkpt>
      <trkpt lat="48.51603" lon="-2.82713">
        <ele>48.2</ele>
        <time>2026-01-25T11:20:21Z</time>
      </trkpt>
      <trkpt lat="48.51602" lon="-2.82716">
        <ele>48.2</ele>
        <time>2026-01-25T11:20:22Z</time>
      </trkpt>
      <trkpt lat="48.51601" lon="-2.82718">
        <ele>49.2</ele>
        <time>2026-01-25T11:20:23Z</time>
      </trkpt>
      <trkpt lat="48.51601" lon="-2.82721">
        <ele>49.2</ele>
        <time>2026-01-25T11:20:24Z</time>
      </trkpt>
      <trkpt lat="48.516" lon="-2.82723">
        <ele>49.2</ele>
        <time>2026-01-25T11:20:25Z</time>
      </trkpt>
      <trkpt lat="48.51599" lon="-2.82726">
        <ele>50</ele>
        <time>2026-01-25T11:20:26Z</time>
      </trkpt>
      <trkpt lat="48.51599" lon="-2.82729">
        <ele>50.2</ele>
        <time>2026-01-25T11:20:27Z</time>
      </trkpt>
      <trkpt lat="48.51599" lon="-2.82732">
        <ele>50.2</ele>
        <time>2026-01-25T11:20:28Z</time>
      </trkpt>
      <trkpt lat="48.51598" lon="-2.82735">
        <ele>50.2</ele>
        <time>2026-01-25T11:20:29Z</time>
      </trkpt>
      <trkpt lat="48.51598" lon="-2.82737">
        <ele>50.6</ele>
        <time>2026-01-25T11:20:30Z</time>
      </trkpt>
      <trkpt lat="48.51598" lon="-2.8274">
        <ele>51.2</ele>
        <time>2026-01-25T11:20:31Z</time>
      </trkpt>
      <trkpt lat="48.51598" lon="-2.82743">
        <ele>51.2</ele>
        <time>2026-01-25T11:20:32Z</time>
      </trkpt>
      <trkpt lat="48.51598" lon="-2.82746">
        <ele>51.2</ele>
        <time>2026-01-25T11:20:33Z</time>
      </trkpt>
      <trkpt lat="48.51597" lon="-2.82748">
        <ele>52</ele>
        <time>2026-01-25T11:20:34Z</time>
      </trkpt>
      <trkpt lat="48.51597" lon="-2.82751">
        <ele>52.6</ele>
        <time>2026-01-25T11:20:35Z</time>
      </trkpt>
      <trkpt lat="48.51596" lon="-2.82753">
        <ele>52.6</ele>
        <time>2026-01-25T11:20:36Z</time>
      </trkpt>
      <trkpt lat="48.51596" lon="-2.82756">
        <ele>52.6</ele>
        <time>2026-01-25T11:20:37Z</time>
      </trkpt>
      <trkpt lat="48.51596" lon="-2.82758">
        <ele>53.2</ele>
        <time>2026-01-25T11:20:38Z</time>
      </trkpt>
      <trkpt lat="48.51596" lon="-2.8276">
        <ele>53.2</ele>
        <time>2026-01-25T11:20:39Z</time>
      </trkpt>
      <trkpt lat="48.51595" lon="-2.82763">
        <ele>53.2</ele>
        <time>2026-01-25T11:20:40Z</time>
      </trkpt>
      <trkpt lat="48.51595" lon="-2.82765">
        <ele>53.2</ele>
        <time>2026-01-25T11:20:41Z</time>
      </trkpt>
      <trkpt lat="48.51595" lon="-2.82768">
        <ele>54.2</ele>
        <time>2026-01-25T11:20:42Z</time>
      </trkpt>
      <trkpt lat="48.51595" lon="-2.82771">
        <ele>54.4</ele>
        <time>2026-01-25T11:20:43Z</time>
      </trkpt>
      <trkpt lat="48.51595" lon="-2.82773">
        <ele>54.4</ele>
        <time>2026-01-25T11:20:44Z</time>
      </trkpt>
      <trkpt lat="48.51595" lon="-2.82776">
        <ele>54.4</ele>
        <time>2026-01-25T11:20:45Z</time>
      </trkpt>
      <trkpt lat="48.51595" lon="-2.82778">
        <ele>55.2</ele>
        <time>2026-01-25T11:20:46Z</time>
      </trkpt>
      <trkpt lat="48.51594" lon="-2.82781">
        <ele>55.2</ele>
        <time>2026-01-25T11:20:47Z</time>
      </trkpt>
      <trkpt lat="48.51594" lon="-2.82783">
        <ele>55.2</ele>
        <time>2026-01-25T11:20:48Z</time>
      </trkpt>
      <trkpt lat="48.51593" lon="-2.82786">
        <ele>55.2</ele>
        <time>2026-01-25T11:20:49Z</time>
      </trkpt>
      <trkpt lat="48.51592" lon="-2.82789">
        <ele>55.8</ele>
        <time>2026-01-25T11:20:50Z</time>
      </trkpt>
      <trkpt lat="48.51591" lon="-2.82791">
        <ele>56</ele>
        <time>2026-01-25T11:20:51Z</time>
      </trkpt>
      <trkpt lat="48.51591" lon="-2.82793">
        <ele>56</ele>
        <time>2026-01-25T11:20:52Z</time>
      </trkpt>
      <trkpt lat="48.5159" lon="-2.82796">
        <ele>56</ele>
        <time>2026-01-25T11:20:53Z</time>
      </trkpt>
      <trkpt lat="48.5159" lon="-2.82799">
        <ele>56.6</ele>
        <time>2026-01-25T11:20:54Z</time>
      </trkpt>
      <trkpt lat="48.51589" lon="-2.82801">
        <ele>57</ele>
        <time>2026-01-25T11:20:55Z</time>
      </trkpt>
      <trkpt lat="48.51588" lon="-2.82804">
        <ele>57</ele>
        <time>2026-01-25T11:20:56Z</time>
      </trkpt>
      <trkpt lat="48.51588" lon="-2.82807">
        <ele>57</ele>
        <time>2026-01-25T11:20:57Z</time>
      </trkpt>
      <trkpt lat="48.51587" lon="-2.8281">
        <ele>57</ele>
        <time>2026-01-25T11:20:58Z</time>
      </trkpt>
      <trkpt lat="48.51586" lon="-2.82813">
        <ele>57.6</ele>
        <time>2026-01-25T11:20:59Z</time>
      </trkpt>
      <trkpt lat="48.51585" lon="-2.82816">
        <ele>57.6</ele>
        <time>2026-01-25T11:21:00Z</time>
      </trkpt>
      <trkpt lat="48.51584" lon="-2.82818">
        <ele>57.6</ele>
        <time>2026-01-25T11:21:01Z</time>
      </trkpt>
      <trkpt lat="48.51583" lon="-2.82821">
        <ele>58.4</ele>
        <time>2026-01-25T11:21:02Z</time>
      </trkpt>
      <trkpt lat="48.51582" lon="-2.82824">
        <ele>58.8</ele>
        <time>2026-01-25T11:21:03Z</time>
      </trkpt>
      <trkpt lat="48.51581" lon="-2.82827">
        <ele>58.8</ele>
        <time>2026-01-25T11:21:04Z</time>
      </trkpt>
      <trkpt lat="48.5158" lon="-2.8283">
        <ele>58.8</ele>
        <time>2026-01-25T11:21:05Z</time>
      </trkpt>
      <trkpt lat="48.51579" lon="-2.82833">
        <ele>58.8</ele>
        <time>2026-01-25T11:21:06Z</time>
      </trkpt>
      <trkpt lat="48.51578" lon="-2.82836">
        <ele>59.2</ele>
        <time>2026-01-25T11:21:07Z</time>
      </trkpt>
      <trkpt lat="48.51577" lon="-2.8284">
        <ele>59.2</ele>
        <time>2026-01-25T11:21:08Z</time>
      </trkpt>
      <trkpt lat="48.51576" lon="-2.82843">
        <ele>59.2</ele>
        <time>2026-01-25T11:21:09Z</time>
      </trkpt>
      <trkpt lat="48.51575" lon="-2.82846">
        <ele>59.2</ele>
        <time>2026-01-25T11:21:10Z</time>
      </trkpt>
      <trkpt lat="48.51574" lon="-2.82849">
        <ele>59.6</ele>
        <time>2026-01-25T11:21:11Z</time>
      </trkpt>
      <trkpt lat="48.51572" lon="-2.82852">
        <ele>59.6</ele>
        <time>2026-01-25T11:21:12Z</time>
      </trkpt>
      <trkpt lat="48.51571" lon="-2.82856">
        <ele>59.6</ele>
        <time>2026-01-25T11:21:13Z</time>
      </trkpt>
      <trkpt lat="48.5157" lon="-2.82859">
        <ele>60.2</ele>
        <time>2026-01-25T11:21:14Z</time>
      </trkpt>
      <trkpt lat="48.51569" lon="-2.82862">
        <ele>60.6</ele>
        <time>2026-01-25T11:21:15Z</time>
      </trkpt>
      <trkpt lat="48.51568" lon="-2.82865">
        <ele>60.6</ele>
        <time>2026-01-25T11:21:16Z</time>
      </trkpt>
      <trkpt lat="48.51567" lon="-2.82869">
        <ele>60.6</ele>
        <time>2026-01-25T11:21:17Z</time>
      </trkpt>
      <trkpt lat="48.51566" lon="-2.82872">
        <ele>60.6</ele>
        <time>2026-01-25T11:21:18Z</time>
      </trkpt>
      <trkpt lat="48.51565" lon="-2.82875">
        <ele>61</ele>
        <time>2026-01-25T11:21:19Z</time>
      </trkpt>
      <trkpt lat="48.51564" lon="-2.82879">
        <ele>61</ele>
        <time>2026-01-25T11:21:20Z</time>
      </trkpt>
      <trkpt lat="48.51563" lon="-2.82882">
        <ele>61</ele>
        <time>2026-01-25T11:21:21Z</time>
      </trkpt>
      <trkpt lat="48.51561" lon="-2.82885">
        <ele>61.4</ele>
        <time>2026-01-25T11:21:22Z</time>
      </trkpt>
      <trkpt lat="48.5156" lon="-2.82889">
        <ele>61.2</ele>
        <time>2026-01-25T11:21:23Z</time>
      </trkpt>
      <trkpt lat="48.51558" lon="-2.82892">
        <ele>61.2</ele>
        <time>2026-01-25T11:21:24Z</time>
      </trkpt>
      <trkpt lat="48.51557" lon="-2.82895">
        <ele>61.2</ele>
        <time>2026-01-25T11:21:25Z</time>
      </trkpt>
      <trkpt lat="48.51556" lon="-2.82898">
        <ele>62.2</ele>
        <time>2026-01-25T11:21:26Z</time>
      </trkpt>
      <trkpt lat="48.51555" lon="-2.82902">
        <ele>63</ele>
        <time>2026-01-25T11:21:27Z</time>
      </trkpt>
      <trkpt lat="48.51554" lon="-2.82905">
        <ele>63</ele>
        <time>2026-01-25T11:21:28Z</time>
      </trkpt>
      <trkpt lat="48.51552" lon="-2.82908">
        <ele>63</ele>
        <time>2026-01-25T11:21:29Z</time>
      </trkpt>
      <trkpt lat="48.51551" lon="-2.82911">
        <ele>63</ele>
        <time>2026-01-25T11:21:30Z</time>
      </trkpt>
      <trkpt lat="48.5155" lon="-2.82914">
        <ele>62.8</ele>
        <time>2026-01-25T11:21:31Z</time>
      </trkpt>
      <trkpt lat="48.51548" lon="-2.82917">
        <ele>62.8</ele>
        <time>2026-01-25T11:21:32Z</time>
      </trkpt>
      <trkpt lat="48.51547" lon="-2.8292">
        <ele>62.8</ele>
        <time>2026-01-25T11:21:33Z</time>
      </trkpt>
      <trkpt lat="48.51546" lon="-2.82924">
        <ele>63.6</ele>
        <time>2026-01-25T11:21:34Z</time>
      </trkpt>
      <trkpt lat="48.51545" lon="-2.82927">
        <ele>63.8</ele>
        <time>2026-01-25T11:21:35Z</time>
      </trkpt>
      <trkpt lat="48.51543" lon="-2.8293">
        <ele>63.8</ele>
        <time>2026-01-25T11:21:36Z</time>
      </trkpt>
      <trkpt lat="48.51542" lon="-2.82933">
        <ele>63.8</ele>
        <time>2026-01-25T11:21:37Z</time>
      </trkpt>
      <trkpt lat="48.51541" lon="-2.82936">
        <ele>64.8</ele>
        <time>2026-01-25T11:21:38Z</time>
      </trkpt>
      <trkpt lat="48.51539" lon="-2.82939">
        <ele>65.2</ele>
        <time>2026-01-25T11:21:39Z</time>
      </trkpt>
      <trkpt lat="48.51538" lon="-2.82942">
        <ele>65.2</ele>
        <time>2026-01-25T11:21:40Z</time>
      </trkpt>
      <trkpt lat="48.51537" lon="-2.82945">
        <ele>65.2</ele>
        <time>2026-01-25T11:21:41Z</time>
      </trkpt>
      <trkpt lat="48.51535" lon="-2.82948">
        <ele>65.2</ele>
        <time>2026-01-25T11:21:42Z</time>
      </trkpt>
      <trkpt lat="48.51534" lon="-2.8295">
        <ele>66.2</ele>
        <time>2026-01-25T11:21:43Z</time>
      </trkpt>
      <trkpt lat="48.51532" lon="-2.82953">
        <ele>66.2</ele>
        <time>2026-01-25T11:21:44Z</time>
      </trkpt>
      <trkpt lat="48.51531" lon="-2.82956">
        <ele>66.2</ele>
        <time>2026-01-25T11:21:45Z</time>
      </trkpt>
      <trkpt lat="48.5153" lon="-2.82959">
        <ele>66.2</ele>
        <time>2026-01-25T11:21:46Z</time>
      </trkpt>
      <trkpt lat="48.51529" lon="-2.82962">
        <ele>66.4</ele>
        <time>2026-01-25T11:21:47Z</time>
      </trkpt>
      <trkpt lat="48.51527" lon="-2.82965">
        <ele>66.4</ele>
        <time>2026-01-25T11:21:48Z</time>
      </trkpt>
      <trkpt lat="48.51526" lon="-2.82968">
        <ele>66.4</ele>
        <time>2026-01-25T11:21:49Z</time>
      </trkpt>
      <trkpt lat="48.51525" lon="-2.82972">
        <ele>67.4</ele>
        <time>2026-01-25T11:21:50Z</time>
      </trkpt>
      <trkpt lat="48.51523" lon="-2.82975">
        <ele>68</ele>
        <time>2026-01-25T11:21:51Z</time>
      </trkpt>
      <trkpt lat="48.51522" lon="-2.82978">
        <ele>68</ele>
        <time>2026-01-25T11:21:52Z</time>
      </trkpt>
      <trkpt lat="48.5152" lon="-2.82981">
        <ele>68</ele>
        <time>2026-01-25T11:21:53Z</time>
      </trkpt>
      <trkpt lat="48.51519" lon="-2.82984">
        <ele>68.2</ele>
        <time>2026-01-25T11:21:54Z</time>
      </trkpt>
      <trkpt lat="48.51518" lon="-2.82987">
        <ele>68.6</ele>
        <time>2026-01-25T11:21:55Z</time>
      </trkpt>
      <trkpt lat="48.51516" lon="-2.8299">
        <ele>68.6</ele>
        <time>2026-01-25T11:21:56Z</time>
      </trkpt>
      <trkpt lat="48.51515" lon="-2.82994">
        <ele>68.6</ele>
        <time>2026-01-25T11:21:57Z</time>
      </trkpt>
      <trkpt lat="48.51514" lon="-2.82997">
        <ele>68.6</ele>
        <time>2026-01-25T11:21:58Z</time>
      </trkpt>
      <trkpt lat="48.51513" lon="-2.83001">
        <ele>68.4</ele>
        <time>2026-01-25T11:21:59Z</time>
      </trkpt>
      <trkpt lat="48.51512" lon="-2.83005">
        <ele>68.4</ele>
        <time>2026-01-25T11:22:00Z</time>
      </trkpt>
      <trkpt lat="48.51512" lon="-2.83009">
        <ele>68.4</ele>
        <time>2026-01-25T11:22:01Z</time>
      </trkpt>
      <trkpt lat="48.51511" lon="-2.83013">
        <ele>69</ele>
        <time>2026-01-25T11:22:02Z</time>
      </trkpt>
      <trkpt lat="48.5151" lon="-2.83017">
        <ele>68.8</ele>
        <time>2026-01-25T11:22:03Z</time>
      </trkpt>
      <trkpt lat="48.51509" lon="-2.83021">
        <ele>68.8</ele>
        <time>2026-01-25T11:22:04Z</time>
      </trkpt>
      <trkpt lat="48.51509" lon="-2.83025">
        <ele>68.8</ele>
        <time>2026-01-25T11:22:05Z</time>
      </trkpt>
      <trkpt lat="48.51509" lon="-2.83029">
        <ele>69.8</ele>
        <time>2026-01-25T11:22:06Z</time>
      </trkpt>
      <trkpt lat="48.51508" lon="-2.83033">
        <ele>69.4</ele>
        <time>2026-01-25T11:22:07Z</time>
      </trkpt>
      <trkpt lat="48.51508" lon="-2.83037">
        <ele>69.4</ele>
        <time>2026-01-25T11:22:08Z</time>
      </trkpt>
      <trkpt lat="48.51508" lon="-2.83041">
        <ele>69.4</ele>
        <time>2026-01-25T11:22:09Z</time>
      </trkpt>
      <trkpt lat="48.51508" lon="-2.83045">
        <ele>70</ele>
        <time>2026-01-25T11:22:10Z</time>
      </trkpt>
      <trkpt lat="48.51509" lon="-2.8305">
        <ele>70.4</ele>
        <time>2026-01-25T11:22:11Z</time>
      </trkpt>
      <trkpt lat="48.51509" lon="-2.83054">
        <ele>70.4</ele>
        <time>2026-01-25T11:22:12Z</time>
      </trkpt>
      <trkpt lat="48.51509" lon="-2.83058">
        <ele>70.4</ele>
        <time>2026-01-25T11:22:13Z</time>
      </trkpt>
      <trkpt lat="48.5151" lon="-2.83062">
        <ele>70.4</ele>
        <time>2026-01-25T11:22:14Z</time>
      </trkpt>
      <trkpt lat="48.5151" lon="-2.83066">
        <ele>70.4</ele>
        <time>2026-01-25T11:22:15Z</time>
      </trkpt>
      <trkpt lat="48.51511" lon="-2.8307">
        <ele>71.2</ele>
        <time>2026-01-25T11:22:16Z</time>
      </trkpt>
      <trkpt lat="48.51511" lon="-2.83074">
        <ele>71.2</ele>
        <time>2026-01-25T11:22:17Z</time>
      </trkpt>
      <trkpt lat="48.51512" lon="-2.83078">
        <ele>71.6</ele>
        <time>2026-01-25T11:22:18Z</time>
      </trkpt>
      <trkpt lat="48.51513" lon="-2.83082">
        <ele>72</ele>
        <time>2026-01-25T11:22:19Z</time>
      </trkpt>
      <trkpt lat="48.51514" lon="-2.83086">
        <ele>72</ele>
        <time>2026-01-25T11:22:20Z</time>
      </trkpt>
      <trkpt lat="48.51514" lon="-2.8309">
        <ele>72</ele>
        <time>2026-01-25T11:22:21Z</time>
      </trkpt>
      <trkpt lat="48.51515" lon="-2.83094">
        <ele>72.4</ele>
        <time>2026-01-25T11:22:22Z</time>
      </trkpt>
      <trkpt lat="48.51516" lon="-2.83098">
        <ele>72.8</ele>
        <time>2026-01-25T11:22:23Z</time>
      </trkpt>
      <trkpt lat="48.51516" lon="-2.83102">
        <ele>72.8</ele>
        <time>2026-01-25T11:22:24Z</time>
      </trkpt>
      <trkpt lat="48.51517" lon="-2.83106">
        <ele>72.8</ele>
        <time>2026-01-25T11:22:25Z</time>
      </trkpt>
      <trkpt lat="48.51518" lon="-2.8311">
        <ele>72.8</ele>
        <time>2026-01-25T11:22:26Z</time>
      </trkpt>
      <trkpt lat="48.51518" lon="-2.83115">
        <ele>73</ele>
        <time>2026-01-25T11:22:27Z</time>
      </trkpt>
      <trkpt lat="48.51519" lon="-2.83119">
        <ele>73</ele>
        <time>2026-01-25T11:22:28Z</time>
      </trkpt>
      <trkpt lat="48.51519" lon="-2.83123">
        <ele>73</ele>
        <time>2026-01-25T11:22:29Z</time>
      </trkpt>
      <trkpt lat="48.5152" lon="-2.83127">
        <ele>73</ele>
        <time>2026-01-25T11:22:30Z</time>
      </trkpt>
      <trkpt lat="48.51521" lon="-2.83131">
        <ele>73.6</ele>
        <time>2026-01-25T11:22:31Z</time>
      </trkpt>
      <trkpt lat="48.51521" lon="-2.83135">
        <ele>73.6</ele>
        <time>2026-01-25T11:22:32Z</time>
      </trkpt>
      <trkpt lat="48.51522" lon="-2.83139">
        <ele>73.6</ele>
        <time>2026-01-25T11:22:33Z</time>
      </trkpt>
      <trkpt lat="48.51522" lon="-2.83143">
        <ele>73.6</ele>
        <time>2026-01-25T11:22:34Z</time>
      </trkpt>
      <trkpt lat="48.51522" lon="-2.83147">
        <ele>74.2</ele>
        <time>2026-01-25T11:22:35Z</time>
      </trkpt>
      <trkpt lat="48.51522" lon="-2.8315">
        <ele>74.2</ele>
        <time>2026-01-25T11:22:36Z</time>
      </trkpt>
      <trkpt lat="48.51521" lon="-2.83154">
        <ele>74.2</ele>
        <time>2026-01-25T11:22:37Z</time>
      </trkpt>
      <trkpt lat="48.51521" lon="-2.83158">
        <ele>74.2</ele>
        <time>2026-01-25T11:22:38Z</time>
      </trkpt>
      <trkpt lat="48.51521" lon="-2.83162">
        <ele>74.8</ele>
        <time>2026-01-25T11:22:39Z</time>
      </trkpt>
      <trkpt lat="48.51521" lon="-2.83166">
        <ele>74.8</ele>
        <time>2026-01-25T11:22:40Z</time>
      </trkpt>
      <trkpt lat="48.51521" lon="-2.8317">
        <ele>74.8</ele>
        <time>2026-01-25T11:22:41Z</time>
      </trkpt>
      <trkpt lat="48.5152" lon="-2.83173">
        <ele>74.8</ele>
        <time>2026-01-25T11:22:42Z</time>
      </trkpt>
      <trkpt lat="48.5152" lon="-2.83177">
        <ele>75.6</ele>
        <time>2026-01-25T11:22:43Z</time>
      </trkpt>
      <trkpt lat="48.51519" lon="-2.83181">
        <ele>75.6</ele>
        <time>2026-01-25T11:22:44Z</time>
      </trkpt>
      <trkpt lat="48.51518" lon="-2.83184">
        <ele>75.6</ele>
        <time>2026-01-25T11:22:45Z</time>
      </trkpt>
      <trkpt lat="48.51517" lon="-2.83188">
        <ele>76.6</ele>
        <time>2026-01-25T11:22:46Z</time>
      </trkpt>
      <trkpt lat="48.51517" lon="-2.83191">
        <ele>77</ele>
        <time>2026-01-25T11:22:47Z</time>
      </trkpt>
      <trkpt lat="48.51516" lon="-2.83194">
        <ele>77</ele>
        <time>2026-01-25T11:22:48Z</time>
      </trkpt>
      <trkpt lat="48.51516" lon="-2.83197">
        <ele>77</ele>
        <time>2026-01-25T11:22:49Z</time>
      </trkpt>
      <trkpt lat="48.51515" lon="-2.832">
        <ele>77.6</ele>
        <time>2026-01-25T11:22:50Z</time>
      </trkpt>
      <trkpt lat="48.51514" lon="-2.83203">
        <ele>77.8</ele>
        <time>2026-01-25T11:22:51Z</time>
      </trkpt>
      <trkpt lat="48.51513" lon="-2.83206">
        <ele>77.8</ele>
        <time>2026-01-25T11:22:52Z</time>
      </trkpt>
      <trkpt lat="48.51512" lon="-2.83208">
        <ele>77.8</ele>
        <time>2026-01-25T11:22:53Z</time>
      </trkpt>
      <trkpt lat="48.51511" lon="-2.83211">
        <ele>78.8</ele>
        <time>2026-01-25T11:22:54Z</time>
      </trkpt>
      <trkpt lat="48.5151" lon="-2.83214">
        <ele>79.2</ele>
        <time>2026-01-25T11:22:55Z</time>
      </trkpt>
      <trkpt lat="48.51509" lon="-2.83217">
        <ele>79.2</ele>
        <time>2026-01-25T11:22:56Z</time>
      </trkpt>
      <trkpt lat="48.51508" lon="-2.83219">
        <ele>79.2</ele>
        <time>2026-01-25T11:22:57Z</time>
      </trkpt>
      <trkpt lat="48.51507" lon="-2.83222">
        <ele>80</ele>
        <time>2026-01-25T11:22:58Z</time>
      </trkpt>
      <trkpt lat="48.51506" lon="-2.83224">
        <ele>80</ele>
        <time>2026-01-25T11:22:59Z</time>
      </trkpt>
      <trkpt lat="48.51505" lon="-2.83227">
        <ele>80</ele>
        <time>2026-01-25T11:23:00Z</time>
      </trkpt>
      <trkpt lat="48.51503" lon="-2.83229">
        <ele>80</ele>
        <time>2026-01-25T11:23:01Z</time>
      </trkpt>
      <trkpt lat="48.51502" lon="-2.83231">
        <ele>80.4</ele>
        <time>2026-01-25T11:23:02Z</time>
      </trkpt>
      <trkpt lat="48.51501" lon="-2.83234">
        <ele>80.8</ele>
        <time>2026-01-25T11:23:03Z</time>
      </trkpt>
      <trkpt lat="48.515" lon="-2.83236">
        <ele>80.8</ele>
        <time>2026-01-25T11:23:04Z</time>
      </trkpt>
      <trkpt lat="48.51499" lon="-2.83237">
        <ele>80.8</ele>
        <time>2026-01-25T11:23:05Z</time>
      </trkpt>
      <trkpt lat="48.51498" lon="-2.83239">
        <ele>81.8</ele>
        <time>2026-01-25T11:23:06Z</time>
      </trkpt>
      <trkpt lat="48.51497" lon="-2.83241">
        <ele>81.8</ele>
        <time>2026-01-25T11:23:07Z</time>
      </trkpt>
      <trkpt lat="48.51495" lon="-2.83243">
        <ele>81.8</ele>
        <time>2026-01-25T11:23:08Z</time>
      </trkpt>
      <trkpt lat="48.51494" lon="-2.83244">
        <ele>81.8</ele>
        <time>2026-01-25T11:23:09Z</time>
      </trkpt>
      <trkpt lat="48.51492" lon="-2.83247">
        <ele>82.4</ele>
        <time>2026-01-25T11:23:10Z</time>
      </trkpt>
      <trkpt lat="48.51491" lon="-2.83249">
        <ele>82.8</ele>
        <time>2026-01-25T11:23:11Z</time>
      </trkpt>
      <trkpt lat="48.51489" lon="-2.8325">
        <ele>82.8</ele>
        <time>2026-01-25T11:23:12Z</time>
      </trkpt>
      <trkpt lat="48.51488" lon="-2.83252">
        <ele>82.8</ele>
        <time>2026-01-25T11:23:13Z</time>
      </trkpt>
      <trkpt lat="48.51486" lon="-2.83253">
        <ele>82.8</ele>
        <time>2026-01-25T11:23:14Z</time>
      </trkpt>
      <trkpt lat="48.51484" lon="-2.83255">
        <ele>83.8</ele>
        <time>2026-01-25T11:23:15Z</time>
      </trkpt>
      <trkpt lat="48.51483" lon="-2.83256">
        <ele>83.8</ele>
        <time>2026-01-25T11:23:16Z</time>
      </trkpt>
      <trkpt lat="48.51481" lon="-2.83258">
        <ele>83.8</ele>
        <time>2026-01-25T11:23:17Z</time>
      </trkpt>
      <trkpt lat="48.51479" lon="-2.83259">
        <ele>84.8</ele>
        <time>2026-01-25T11:23:18Z</time>
      </trkpt>
      <trkpt lat="48.51477" lon="-2.83261">
        <ele>84.8</ele>
        <time>2026-01-25T11:23:19Z</time>
      </trkpt>
      <trkpt lat="48.51476" lon="-2.83262">
        <ele>84.8</ele>
        <time>2026-01-25T11:23:20Z</time>
      </trkpt>
      <trkpt lat="48.51474" lon="-2.83264">
        <ele>84.8</ele>
        <time>2026-01-25T11:23:21Z</time>
      </trkpt>
      <trkpt lat="48.51472" lon="-2.83266">
        <ele>85.6</ele>
        <time>2026-01-25T11:23:22Z</time>
      </trkpt>
      <trkpt lat="48.51471" lon="-2.83267">
        <ele>85.4</ele>
        <time>2026-01-25T11:23:23Z</time>
      </trkpt>
      <trkpt lat="48.51469" lon="-2.83268">
        <ele>85.4</ele>
        <time>2026-01-25T11:23:24Z</time>
      </trkpt>
      <trkpt lat="48.51467" lon="-2.83269">
        <ele>85.4</ele>
        <time>2026-01-25T11:23:25Z</time>
      </trkpt>
      <trkpt lat="48.51465" lon="-2.8327">
        <ele>86.4</ele>
        <time>2026-01-25T11:23:26Z</time>
      </trkpt>
      <trkpt lat="48.51463" lon="-2.83271">
        <ele>87</ele>
        <time>2026-01-25T11:23:27Z</time>
      </trkpt>
      <trkpt lat="48.51462" lon="-2.83273">
        <ele>87</ele>
        <time>2026-01-25T11:23:28Z</time>
      </trkpt>
      <trkpt lat="48.5146" lon="-2.83274">
        <ele>87</ele>
        <time>2026-01-25T11:23:29Z</time>
      </trkpt>
      <trkpt lat="48.51458" lon="-2.83275">
        <ele>88</ele>
        <time>2026-01-25T11:23:30Z</time>
      </trkpt>
      <trkpt lat="48.51456" lon="-2.83276">
        <ele>88</ele>
        <time>2026-01-25T11:23:31Z</time>
      </trkpt>
      <trkpt lat="48.51455" lon="-2.83277">
        <ele>88</ele>
        <time>2026-01-25T11:23:32Z</time>
      </trkpt>
      <trkpt lat="48.51453" lon="-2.83278">
        <ele>88</ele>
        <time>2026-01-25T11:23:33Z</time>
      </trkpt>
      <trkpt lat="48.51451" lon="-2.83279">
        <ele>88.8</ele>
        <time>2026-01-25T11:23:34Z</time>
      </trkpt>
      <trkpt lat="48.51449" lon="-2.8328">
        <ele>89</ele>
        <time>2026-01-25T11:23:35Z</time>
      </trkpt>
      <trkpt lat="48.51447" lon="-2.83281">
        <ele>89</ele>
        <time>2026-01-25T11:23:36Z</time>
      </trkpt>
      <trkpt lat="48.51446" lon="-2.83282">
        <ele>89</ele>
        <time>2026-01-25T11:23:37Z</time>
      </trkpt>
      <trkpt lat="48.51444" lon="-2.83283">
        <ele>89.8</ele>
        <time>2026-01-25T11:23:38Z</time>
      </trkpt>
      <trkpt lat="48.51442" lon="-2.83284">
        <ele>90</ele>
        <time>2026-01-25T11:23:39Z</time>
      </trkpt>
      <trkpt lat="48.5144" lon="-2.83284">
        <ele>90</ele>
        <time>2026-01-25T11:23:40Z</time>
      </trkpt>
      <trkpt lat="48.51439" lon="-2.83286">
        <ele>90</ele>
        <time>2026-01-25T11:23:41Z</time>
      </trkpt>
      <trkpt lat="48.51437" lon="-2.83287">
        <ele>90.4</ele>
        <time>2026-01-25T11:23:42Z</time>
      </trkpt>
      <trkpt lat="48.51435" lon="-2.83288">
        <ele>91.4</ele>
        <time>2026-01-25T11:23:43Z</time>
      </trkpt>
      <trkpt lat="48.51433" lon="-2.83288">
        <ele>91.4</ele>
        <time>2026-01-25T11:23:44Z</time>
      </trkpt>
      <trkpt lat="48.51432" lon="-2.83289">
        <ele>91.4</ele>
        <time>2026-01-25T11:23:45Z</time>
      </trkpt>
      <trkpt lat="48.5143" lon="-2.8329">
        <ele>91.6</ele>
        <time>2026-01-25T11:23:46Z</time>
      </trkpt>
      <trkpt lat="48.51428" lon="-2.83291">
        <ele>92.4</ele>
        <time>2026-01-25T11:23:47Z</time>
      </trkpt>
      <trkpt lat="48.51426" lon="-2.83292">
        <ele>92.4</ele>
        <time>2026-01-25T11:23:48Z</time>
      </trkpt>
      <trkpt lat="48.51424" lon="-2.83292">
        <ele>92.4</ele>
        <time>2026-01-25T11:23:49Z</time>
      </trkpt>
      <trkpt lat="48.51422" lon="-2.83293">
        <ele>92.4</ele>
        <time>2026-01-25T11:23:50Z</time>
      </trkpt>
      <trkpt lat="48.5142" lon="-2.83294">
        <ele>92.8</ele>
        <time>2026-01-25T11:23:51Z</time>
      </trkpt>
      <trkpt lat="48.51419" lon="-2.83294">
        <ele>92.8</ele>
        <time>2026-01-25T11:23:52Z</time>
      </trkpt>
      <trkpt lat="48.51417" lon="-2.83295">
        <ele>92.8</ele>
        <time>2026-01-25T11:23:53Z</time>
      </trkpt>
      <trkpt lat="48.51415" lon="-2.83295">
        <ele>93.8</ele>
        <time>2026-01-25T11:23:54Z</time>
      </trkpt>
      <trkpt lat="48.51413" lon="-2.83295">
        <ele>94</ele>
        <time>2026-01-25T11:23:55Z</time>
      </trkpt>
      <trkpt lat="48.51411" lon="-2.83296">
        <ele>94</ele>
        <time>2026-01-25T11:23:56Z</time>
      </trkpt>
      <trkpt lat="48.51409" lon="-2.83296">
        <ele>94</ele>
        <time>2026-01-25T11:23:57Z</time>
      </trkpt>
      <trkpt lat="48.51407" lon="-2.83296">
        <ele>94</ele>
        <time>2026-01-25T11:23:58Z</time>
      </trkpt>
      <trkpt lat="48.51405" lon="-2.83296">
        <ele>94.4</ele>
        <time>2026-01-25T11:23:59Z</time>
      </trkpt>
      <trkpt lat="48.51403" lon="-2.83297">
        <ele>94.4</ele>
        <time>2026-01-25T11:24:00Z</time>
      </trkpt>
      <trkpt lat="48.51401" lon="-2.83297">
        <ele>94.4</ele>
        <time>2026-01-25T11:24:01Z</time>
      </trkpt>
      <trkpt lat="48.51399" lon="-2.83297">
        <ele>94.4</ele>
        <time>2026-01-25T11:24:02Z</time>
      </trkpt>
      <trkpt lat="48.51397" lon="-2.83297">
        <ele>94.8</ele>
        <time>2026-01-25T11:24:03Z</time>
      </trkpt>
      <trkpt lat="48.51394" lon="-2.83297">
        <ele>94.8</ele>
        <time>2026-01-25T11:24:04Z</time>
      </trkpt>
      <trkpt lat="48.51392" lon="-2.83297">
        <ele>94.8</ele>
        <time>2026-01-25T11:24:05Z</time>
      </trkpt>
      <trkpt lat="48.5139" lon="-2.83297">
        <ele>95.6</ele>
        <time>2026-01-25T11:24:06Z</time>
      </trkpt>
      <trkpt lat="48.51387" lon="-2.83297">
        <ele>96</ele>
        <time>2026-01-25T11:24:07Z</time>
      </trkpt>
      <trkpt lat="48.51385" lon="-2.83297">
        <ele>96</ele>
        <time>2026-01-25T11:24:08Z</time>
      </trkpt>
      <trkpt lat="48.51382" lon="-2.83296">
        <ele>96</ele>
        <time>2026-01-25T11:24:09Z</time>
      </trkpt>
      <trkpt lat="48.5138" lon="-2.83295">
        <ele>96.4</ele>
        <time>2026-01-25T11:24:10Z</time>
      </trkpt>
      <trkpt lat="48.51377" lon="-2.83294">
        <ele>96.4</ele>
        <time>2026-01-25T11:24:11Z</time>
      </trkpt>
      <trkpt lat="48.51375" lon="-2.83294">
        <ele>96.4</ele>
        <time>2026-01-25T11:24:12Z</time>
      </trkpt>
      <trkpt lat="48.51372" lon="-2.83293">
        <ele>96.4</ele>
        <time>2026-01-25T11:24:13Z</time>
      </trkpt>
      <trkpt lat="48.5137" lon="-2.83291">
        <ele>97.2</ele>
        <time>2026-01-25T11:24:14Z</time>
      </trkpt>
      <trkpt lat="48.51367" lon="-2.8329">
        <ele>96.8</ele>
        <time>2026-01-25T11:24:15Z</time>
      </trkpt>
      <trkpt lat="48.51365" lon="-2.83289">
        <ele>96.8</ele>
        <time>2026-01-25T11:24:16Z</time>
      </trkpt>
      <trkpt lat="48.51362" lon="-2.83287">
        <ele>96.8</ele>
        <time>2026-01-25T11:24:17Z</time>
      </trkpt>
      <trkpt lat="48.51359" lon="-2.83287">
        <ele>96.8</ele>
        <time>2026-01-25T11:24:18Z</time>
      </trkpt>
      <trkpt lat="48.51356" lon="-2.83286">
        <ele>97</ele>
        <time>2026-01-25T11:24:19Z</time>
      </trkpt>
      <trkpt lat="48.51352" lon="-2.83286">
        <ele>97</ele>
        <time>2026-01-25T11:24:20Z</time>
      </trkpt>
      <trkpt lat="48.51349" lon="-2.83284">
        <ele>97</ele>
        <time>2026-01-25T11:24:21Z</time>
      </trkpt>
      <trkpt lat="48.51346" lon="-2.83283">
        <ele>97.2</ele>
        <time>2026-01-25T11:24:22Z</time>
      </trkpt>
      <trkpt lat="48.51343" lon="-2.83282">
        <ele>97.2</ele>
        <time>2026-01-25T11:24:23Z</time>
      </trkpt>
      <trkpt lat="48.51339" lon="-2.83282">
        <ele>97.2</ele>
        <time>2026-01-25T11:24:24Z</time>
      </trkpt>
      <trkpt lat="48.51336" lon="-2.83281">
        <ele>97.2</ele>
        <time>2026-01-25T11:24:25Z</time>
      </trkpt>
      <trkpt lat="48.51332" lon="-2.8328">
        <ele>97.2</ele>
        <time>2026-01-25T11:24:26Z</time>
      </trkpt>
      <trkpt lat="48.51328" lon="-2.83279">
        <ele>96.6</ele>
        <time>2026-01-25T11:24:27Z</time>
      </trkpt>
      <trkpt lat="48.51325" lon="-2.83278">
        <ele>96.6</ele>
        <time>2026-01-25T11:24:28Z</time>
      </trkpt>
      <trkpt lat="48.51321" lon="-2.83278">
        <ele>96.6</ele>
        <time>2026-01-25T11:24:29Z</time>
      </trkpt>
      <trkpt lat="48.51317" lon="-2.83277">
        <ele>96.4</ele>
        <time>2026-01-25T11:24:30Z</time>
      </trkpt>
      <trkpt lat="48.51313" lon="-2.83276">
        <ele>96.6</ele>
        <time>2026-01-25T11:24:31Z</time>
      </trkpt>
      <trkpt lat="48.51309" lon="-2.83276">
        <ele>96.6</ele>
        <time>2026-01-25T11:24:32Z</time>
      </trkpt>
      <trkpt lat="48.51305" lon="-2.83275">
        <ele>96.6</ele>
        <time>2026-01-25T11:24:33Z</time>
      </trkpt>
      <trkpt lat="48.51301" lon="-2.83275">
        <ele>96.6</ele>
        <time>2026-01-25T11:24:34Z</time>
      </trkpt>
      <trkpt lat="48.51296" lon="-2.83274">
        <ele>97.2</ele>
        <time>2026-01-25T11:24:35Z</time>
      </trkpt>
      <trkpt lat="48.51292" lon="-2.83274">
        <ele>97.2</ele>
        <time>2026-01-25T11:24:36Z</time>
      </trkpt>
      <trkpt lat="48.51288" lon="-2.83273">
        <ele>97.2</ele>
        <time>2026-01-25T11:24:37Z</time>
      </trkpt>
      <trkpt lat="48.51284" lon="-2.83273">
        <ele>97.8</ele>
        <time>2026-01-25T11:24:38Z</time>
      </trkpt>
      <trkpt lat="48.5128" lon="-2.83273">
        <ele>97.6</ele>
        <time>2026-01-25T11:24:39Z</time>
      </trkpt>
      <trkpt lat="48.51275" lon="-2.83272">
        <ele>97.6</ele>
        <time>2026-01-25T11:24:40Z</time>
      </trkpt>
      <trkpt lat="48.51271" lon="-2.83272">
        <ele>97.6</ele>
        <time>2026-01-25T11:24:41Z</time>
      </trkpt>
      <trkpt lat="48.51267" lon="-2.83272">
        <ele>97.6</ele>
        <time>2026-01-25T11:24:42Z</time>
      </trkpt>
      <trkpt lat="48.51263" lon="-2.83271">
        <ele>97.8</ele>
        <time>2026-01-25T11:24:43Z</time>
      </trkpt>
      <trkpt lat="48.51259" lon="-2.83271">
        <ele>97.8</ele>
        <time>2026-01-25T11:24:44Z</time>
      </trkpt>
      <trkpt lat="48.51254" lon="-2.83271">
        <ele>97.8</ele>
        <time>2026-01-25T11:24:45Z</time>
      </trkpt>
      <trkpt lat="48.5125" lon="-2.83271">
        <ele>98.4</ele>
        <time>2026-01-25T11:24:46Z</time>
      </trkpt>
      <trkpt lat="48.51246" lon="-2.83271">
        <ele>98.6</ele>
        <time>2026-01-25T11:24:47Z</time>
      </trkpt>
      <trkpt lat="48.51242" lon="-2.83271">
        <ele>98.6</ele>
        <time>2026-01-25T11:24:48Z</time>
      </trkpt>
      <trkpt lat="48.51237" lon="-2.83271">
        <ele>98.6</ele>
        <time>2026-01-25T11:24:49Z</time>
      </trkpt>
      <trkpt lat="48.51233" lon="-2.83271">
        <ele>99</ele>
        <time>2026-01-25T11:24:50Z</time>
      </trkpt>
      <trkpt lat="48.51229" lon="-2.83271">
        <ele>98.8</ele>
        <time>2026-01-25T11:24:51Z</time>
      </trkpt>
      <trkpt lat="48.51225" lon="-2.83271">
        <ele>98.8</ele>
        <time>2026-01-25T11:24:52Z</time>
      </trkpt>
      <trkpt lat="48.51221" lon="-2.8327">
        <ele>98.8</ele>
        <time>2026-01-25T11:24:53Z</time>
      </trkpt>
      <trkpt lat="48.51217" lon="-2.8327">
        <ele>99.8</ele>
        <time>2026-01-25T11:24:54Z</time>
      </trkpt>
      <trkpt lat="48.51213" lon="-2.8327">
        <ele>100</ele>
        <time>2026-01-25T11:24:55Z</time>
      </trkpt>
      <trkpt lat="48.51209" lon="-2.8327">
        <ele>100</ele>
        <time>2026-01-25T11:24:56Z</time>
      </trkpt>
      <trkpt lat="48.51205" lon="-2.8327">
        <ele>100</ele>
        <time>2026-01-25T11:24:57Z</time>
      </trkpt>
      <trkpt lat="48.51201" lon="-2.8327">
        <ele>100.2</ele>
        <time>2026-01-25T11:24:58Z</time>
      </trkpt>
      <trkpt lat="48.51197" lon="-2.8327">
        <ele>100.2</ele>
        <time>2026-01-25T11:24:59Z</time>
      </trkpt>
      <trkpt lat="48.51193" lon="-2.83269">
        <ele>100.2</ele>
        <time>2026-01-25T11:25:00Z</time>
      </trkpt>
      <trkpt lat="48.51189" lon="-2.83269">
        <ele>100.2</ele>
        <time>2026-01-25T11:25:01Z</time>
      </trkpt>
      <trkpt lat="48.51185" lon="-2.8327">
        <ele>100.8</ele>
        <time>2026-01-25T11:25:02Z</time>
      </trkpt>
      <trkpt lat="48.51181" lon="-2.8327">
        <ele>101</ele>
        <time>2026-01-25T11:25:03Z</time>
      </trkpt>
      <trkpt lat="48.51177" lon="-2.8327">
        <ele>101</ele>
        <time>2026-01-25T11:25:04Z</time>
      </trkpt>
      <trkpt lat="48.51173" lon="-2.8327">
        <ele>101</ele>
        <time>2026-01-25T11:25:05Z</time>
      </trkpt>
      <trkpt lat="48.51169" lon="-2.83269">
        <ele>101</ele>
        <time>2026-01-25T11:25:06Z</time>
      </trkpt>
      <trkpt lat="48.51165" lon="-2.83269">
        <ele>101</ele>
        <time>2026-01-25T11:25:07Z</time>
      </trkpt>
      <trkpt lat="48.51161" lon="-2.83269">
        <ele>101</ele>
        <time>2026-01-25T11:25:08Z</time>
      </trkpt>
      <trkpt lat="48.51157" lon="-2.83269">
        <ele>101</ele>
        <time>2026-01-25T11:25:09Z</time>
      </trkpt>
      <trkpt lat="48.51153" lon="-2.83269">
        <ele>101.4</ele>
        <time>2026-01-25T11:25:10Z</time>
      </trkpt>
      <trkpt lat="48.51149" lon="-2.83269">
        <ele>101.6</ele>
        <time>2026-01-25T11:25:11Z</time>
      </trkpt>
      <trkpt lat="48.51145" lon="-2.83269">
        <ele>101.6</ele>
        <time>2026-01-25T11:25:12Z</time>
      </trkpt>
      <trkpt lat="48.51141" lon="-2.83268">
        <ele>101.6</ele>
        <time>2026-01-25T11:25:13Z</time>
      </trkpt>
      <trkpt lat="48.51137" lon="-2.83269">
        <ele>101.6</ele>
        <time>2026-01-25T11:25:14Z</time>
      </trkpt>
      <trkpt lat="48.51133" lon="-2.83269">
        <ele>102.2</ele>
        <time>2026-01-25T11:25:15Z</time>
      </trkpt>
      <trkpt lat="48.5113" lon="-2.83269">
        <ele>102.2</ele>
        <time>2026-01-25T11:25:16Z</time>
      </trkpt>
      <trkpt lat="48.51126" lon="-2.83269">
        <ele>102.2</ele>
        <time>2026-01-25T11:25:17Z</time>
      </trkpt>
      <trkpt lat="48.51122" lon="-2.8327">
        <ele>103.2</ele>
        <time>2026-01-25T11:25:18Z</time>
      </trkpt>
      <trkpt lat="48.51118" lon="-2.8327">
        <ele>102.8</ele>
        <time>2026-01-25T11:25:19Z</time>
      </trkpt>
      <trkpt lat="48.51114" lon="-2.8327">
        <ele>102.8</ele>
        <time>2026-01-25T11:25:20Z</time>
      </trkpt>
      <trkpt lat="48.5111" lon="-2.8327">
        <ele>102.8</ele>
        <time>2026-01-25T11:25:21Z</time>
      </trkpt>
      <trkpt lat="48.51106" lon="-2.83271">
        <ele>103.2</ele>
        <time>2026-01-25T11:25:22Z</time>
      </trkpt>
      <trkpt lat="48.51102" lon="-2.83271">
        <ele>103.4</ele>
        <time>2026-01-25T11:25:23Z</time>
      </trkpt>
      <trkpt lat="48.51099" lon="-2.83271">
        <ele>103.4</ele>
        <time>2026-01-25T11:25:24Z</time>
      </trkpt>
      <trkpt lat="48.51095" lon="-2.83272">
        <ele>103.4</ele>
        <time>2026-01-25T11:25:25Z</time>
      </trkpt>
      <trkpt lat="48.51091" lon="-2.83272">
        <ele>103.6</ele>
        <time>2026-01-25T11:25:26Z</time>
      </trkpt>
      <trkpt lat="48.51087" lon="-2.83272">
        <ele>103.6</ele>
        <time>2026-01-25T11:25:27Z</time>
      </trkpt>
      <trkpt lat="48.51083" lon="-2.83272">
        <ele>103.6</ele>
        <time>2026-01-25T11:25:28Z</time>
      </trkpt>
      <trkpt lat="48.5108" lon="-2.83273">
        <ele>103.6</ele>
        <time>2026-01-25T11:25:29Z</time>
      </trkpt>
      <trkpt lat="48.51076" lon="-2.83274">
        <ele>104.4</ele>
        <time>2026-01-25T11:25:30Z</time>
      </trkpt>
      <trkpt lat="48.51072" lon="-2.83277">
        <ele>104.4</ele>
        <time>2026-01-25T11:25:31Z</time>
      </trkpt>
      <trkpt lat="48.51068" lon="-2.83278">
        <ele>104.4</ele>
        <time>2026-01-25T11:25:32Z</time>
      </trkpt>
      <trkpt lat="48.51064" lon="-2.8328">
        <ele>104.4</ele>
        <time>2026-01-25T11:25:33Z</time>
      </trkpt>
      <trkpt lat="48.5106" lon="-2.83281">
        <ele>105.4</ele>
        <time>2026-01-25T11:25:34Z</time>
      </trkpt>
      <trkpt lat="48.51057" lon="-2.83282">
        <ele>105.8</ele>
        <time>2026-01-25T11:25:35Z</time>
      </trkpt>
      <trkpt lat="48.51053" lon="-2.83283">
        <ele>105.8</ele>
        <time>2026-01-25T11:25:36Z</time>
      </trkpt>
      <trkpt lat="48.51049" lon="-2.83285">
        <ele>105.8</ele>
        <time>2026-01-25T11:25:37Z</time>
      </trkpt>
      <trkpt lat="48.51045" lon="-2.83286">
        <ele>105.8</ele>
        <time>2026-01-25T11:25:38Z</time>
      </trkpt>
      <trkpt lat="48.51041" lon="-2.83287">
        <ele>106.6</ele>
        <time>2026-01-25T11:25:39Z</time>
      </trkpt>
      <trkpt lat="48.51038" lon="-2.83289">
        <ele>106.6</ele>
        <time>2026-01-25T11:25:40Z</time>
      </trkpt>
      <trkpt lat="48.51034" lon="-2.8329">
        <ele>106.6</ele>
        <time>2026-01-25T11:25:41Z</time>
      </trkpt>
      <trkpt lat="48.5103" lon="-2.83291">
        <ele>107.4</ele>
        <time>2026-01-25T11:25:42Z</time>
      </trkpt>
      <trkpt lat="48.51026" lon="-2.83292">
        <ele>107.4</ele>
        <time>2026-01-25T11:25:43Z</time>
      </trkpt>
      <trkpt lat="48.51023" lon="-2.83294">
        <ele>107.4</ele>
        <time>2026-01-25T11:25:44Z</time>
      </trkpt>
      <trkpt lat="48.51019" lon="-2.83295">
        <ele>107.4</ele>
        <time>2026-01-25T11:25:45Z</time>
      </trkpt>
      <trkpt lat="48.51015" lon="-2.83296">
        <ele>107.4</ele>
        <time>2026-01-25T11:25:46Z</time>
      </trkpt>
      <trkpt lat="48.51011" lon="-2.83298">
        <ele>107.2</ele>
        <time>2026-01-25T11:25:47Z</time>
      </trkpt>
      <trkpt lat="48.51007" lon="-2.83299">
        <ele>107.2</ele>
        <time>2026-01-25T11:25:48Z</time>
      </trkpt>
      <trkpt lat="48.51003" lon="-2.83301">
        <ele>107.2</ele>
        <time>2026-01-25T11:25:49Z</time>
      </trkpt>
      <trkpt lat="48.50998" lon="-2.83302">
        <ele>108</ele>
        <time>2026-01-25T11:25:50Z</time>
      </trkpt>
      <trkpt lat="48.50994" lon="-2.83304">
        <ele>107.4</ele>
        <time>2026-01-25T11:25:51Z</time>
      </trkpt>
      <trkpt lat="48.5099" lon="-2.83305">
        <ele>107.4</ele>
        <time>2026-01-25T11:25:52Z</time>
      </trkpt>
      <trkpt lat="48.50986" lon="-2.83306">
        <ele>107.4</ele>
        <time>2026-01-25T11:25:53Z</time>
      </trkpt>
      <trkpt lat="48.50982" lon="-2.83307">
        <ele>108.4</ele>
        <time>2026-01-25T11:25:54Z</time>
      </trkpt>
      <trkpt lat="48.50978" lon="-2.83309">
        <ele>109</ele>
        <time>2026-01-25T11:25:55Z</time>
      </trkpt>
      <trkpt lat="48.50974" lon="-2.8331">
        <ele>109</ele>
        <time>2026-01-25T11:25:56Z</time>
      </trkpt>
      <trkpt lat="48.5097" lon="-2.83311">
        <ele>109</ele>
        <time>2026-01-25T11:25:57Z</time>
      </trkpt>
      <trkpt lat="48.50967" lon="-2.83312">
        <ele>108.6</ele>
        <time>2026-01-25T11:25:58Z</time>
      </trkpt>
      <trkpt lat="48.50963" lon="-2.83313">
        <ele>109</ele>
        <time>2026-01-25T11:25:59Z</time>
      </trkpt>
      <trkpt lat="48.50959" lon="-2.83314">
        <ele>109</ele>
        <time>2026-01-25T11:26:00Z</time>
      </trkpt>
      <trkpt lat="48.50955" lon="-2.83315">
        <ele>109</ele>
        <time>2026-01-25T11:26:01Z</time>
      </trkpt>
      <trkpt lat="48.50951" lon="-2.83316">
        <ele>109.6</ele>
        <time>2026-01-25T11:26:02Z</time>
      </trkpt>
      <trkpt lat="48.50948" lon="-2.83317">
        <ele>110</ele>
        <time>2026-01-25T11:26:03Z</time>
      </trkpt>
      <trkpt lat="48.50944" lon="-2.83317">
        <ele>110</ele>
        <time>2026-01-25T11:26:04Z</time>
      </trkpt>
      <trkpt lat="48.5094" lon="-2.83318">
        <ele>110</ele>
        <time>2026-01-25T11:26:05Z</time>
      </trkpt>
      <trkpt lat="48.50935" lon="-2.83319">
        <ele>110</ele>
        <time>2026-01-25T11:26:06Z</time>
      </trkpt>
      <trkpt lat="48.50931" lon="-2.8332">
        <ele>109.8</ele>
        <time>2026-01-25T11:26:07Z</time>
      </trkpt>
      <trkpt lat="48.50927" lon="-2.8332">
        <ele>109.8</ele>
        <time>2026-01-25T11:26:08Z</time>
      </trkpt>
      <trkpt lat="48.50923" lon="-2.83321">
        <ele>109.8</ele>
        <time>2026-01-25T11:26:09Z</time>
      </trkpt>
      <trkpt lat="48.50918" lon="-2.83321">
        <ele>109.4</ele>
        <time>2026-01-25T11:26:10Z</time>
      </trkpt>
      <trkpt lat="48.50913" lon="-2.83322">
        <ele>109.8</ele>
        <time>2026-01-25T11:26:11Z</time>
      </trkpt>
      <trkpt lat="48.50908" lon="-2.83322">
        <ele>109.8</ele>
        <time>2026-01-25T11:26:12Z</time>
      </trkpt>
      <trkpt lat="48.50904" lon="-2.83322">
        <ele>109.8</ele>
        <time>2026-01-25T11:26:13Z</time>
      </trkpt>
      <trkpt lat="48.50899" lon="-2.83322">
        <ele>109.8</ele>
        <time>2026-01-25T11:26:14Z</time>
      </trkpt>
      <trkpt lat="48.50893" lon="-2.83321">
        <ele>109.6</ele>
        <time>2026-01-25T11:26:15Z</time>
      </trkpt>
      <trkpt lat="48.50888" lon="-2.83321">
        <ele>109.6</ele>
        <time>2026-01-25T11:26:16Z</time>
      </trkpt>
      <trkpt lat="48.50882" lon="-2.83321">
        <ele>109.6</ele>
        <time>2026-01-25T11:26:17Z</time>
      </trkpt>
      <trkpt lat="48.50876" lon="-2.83322">
        <ele>108.6</ele>
        <time>2026-01-25T11:26:18Z</time>
      </trkpt>
      <trkpt lat="48.50871" lon="-2.83324">
        <ele>108</ele>
        <time>2026-01-25T11:26:19Z</time>
      </trkpt>
      <trkpt lat="48.50865" lon="-2.83324">
        <ele>108</ele>
        <time>2026-01-25T11:26:20Z</time>
      </trkpt>
      <trkpt lat="48.50859" lon="-2.83325">
        <ele>108</ele>
        <time>2026-01-25T11:26:21Z</time>
      </trkpt>
      <trkpt lat="48.50853" lon="-2.83325">
        <ele>108.6</ele>
        <time>2026-01-25T11:26:22Z</time>
      </trkpt>
      <trkpt lat="48.50846" lon="-2.83326">
        <ele>107.2</ele>
        <time>2026-01-25T11:26:23Z</time>
      </trkpt>
      <trkpt lat="48.5084" lon="-2.83326">
        <ele>107.2</ele>
        <time>2026-01-25T11:26:24Z</time>
      </trkpt>
      <trkpt lat="48.50833" lon="-2.83326">
        <ele>107.2</ele>
        <time>2026-01-25T11:26:25Z</time>
      </trkpt>
      <trkpt lat="48.50826" lon="-2.83326">
        <ele>106.2</ele>
        <time>2026-01-25T11:26:26Z</time>
      </trkpt>
      <trkpt lat="48.50819" lon="-2.83327">
        <ele>104.4</ele>
        <time>2026-01-25T11:26:27Z</time>
      </trkpt>
      <trkpt lat="48.50811" lon="-2.83327">
        <ele>104.4</ele>
        <time>2026-01-25T11:26:28Z</time>
      </trkpt>
      <trkpt lat="48.50804" lon="-2.83327">
        <ele>104.4</ele>
        <time>2026-01-25T11:26:29Z</time>
      </trkpt>
      <trkpt lat="48.50796" lon="-2.83327">
        <ele>103.6</ele>
        <time>2026-01-25T11:26:30Z</time>
      </trkpt>
      <trkpt lat="48.50788" lon="-2.83329">
        <ele>103.6</ele>
        <time>2026-01-25T11:26:31Z</time>
      </trkpt>
      <trkpt lat="48.50781" lon="-2.8333">
        <ele>103.6</ele>
        <time>2026-01-25T11:26:32Z</time>
      </trkpt>
      <trkpt lat="48.50774" lon="-2.83333">
        <ele>103.6</ele>
        <time>2026-01-25T11:26:33Z</time>
      </trkpt>
      <trkpt lat="48.50767" lon="-2.83337">
        <ele>102.8</ele>
        <time>2026-01-25T11:26:34Z</time>
      </trkpt>
      <trkpt lat="48.50761" lon="-2.83342">
        <ele>103.8</ele>
        <time>2026-01-25T11:26:35Z</time>
      </trkpt>
      <trkpt lat="48.50755" lon="-2.83349">
        <ele>103.8</ele>
        <time>2026-01-25T11:26:36Z</time>
      </trkpt>
      <trkpt lat="48.5075" lon="-2.83356">
        <ele>103.8</ele>
        <time>2026-01-25T11:26:37Z</time>
      </trkpt>
      <trkpt lat="48.50746" lon="-2.83363">
        <ele>104</ele>
        <time>2026-01-25T11:26:38Z</time>
      </trkpt>
      <trkpt lat="48.50741" lon="-2.8337">
        <ele>104.4</ele>
        <time>2026-01-25T11:26:39Z</time>
      </trkpt>
      <trkpt lat="48.50737" lon="-2.83377">
        <ele>104.4</ele>
        <time>2026-01-25T11:26:40Z</time>
      </trkpt>
      <trkpt lat="48.50733" lon="-2.83383">
        <ele>104.4</ele>
        <time>2026-01-25T11:26:41Z</time>
      </trkpt>
      <trkpt lat="48.50729" lon="-2.8339">
        <ele>104.4</ele>
        <time>2026-01-25T11:26:42Z</time>
      </trkpt>
      <trkpt lat="48.50725" lon="-2.83396">
        <ele>105</ele>
        <time>2026-01-25T11:26:43Z</time>
      </trkpt>
      <trkpt lat="48.50721" lon="-2.83402">
        <ele>105</ele>
        <time>2026-01-25T11:26:44Z</time>
      </trkpt>
      <trkpt lat="48.50717" lon="-2.83408">
        <ele>105</ele>
        <time>2026-01-25T11:26:45Z</time>
      </trkpt>
      <trkpt lat="48.50713" lon="-2.83413">
        <ele>105</ele>
        <time>2026-01-25T11:26:46Z</time>
      </trkpt>
      <trkpt lat="48.50709" lon="-2.83418">
        <ele>105.8</ele>
        <time>2026-01-25T11:26:47Z</time>
      </trkpt>
      <trkpt lat="48.50704" lon="-2.83423">
        <ele>105.8</ele>
        <time>2026-01-25T11:26:48Z</time>
      </trkpt>
      <trkpt lat="48.507" lon="-2.83427">
        <ele>105.8</ele>
        <time>2026-01-25T11:26:49Z</time>
      </trkpt>
      <trkpt lat="48.50696" lon="-2.83432">
        <ele>105.8</ele>
        <time>2026-01-25T11:26:50Z</time>
      </trkpt>
      <trkpt lat="48.50692" lon="-2.83436">
        <ele>107</ele>
        <time>2026-01-25T11:26:51Z</time>
      </trkpt>
      <trkpt lat="48.50688" lon="-2.8344">
        <ele>107</ele>
        <time>2026-01-25T11:26:52Z</time>
      </trkpt>
      <trkpt lat="48.50684" lon="-2.83444">
        <ele>107</ele>
        <time>2026-01-25T11:26:53Z</time>
      </trkpt>
      <trkpt lat="48.50679" lon="-2.83447">
        <ele>107</ele>
        <time>2026-01-25T11:26:54Z</time>
      </trkpt>
      <trkpt lat="48.50674" lon="-2.83449">
        <ele>106.8</ele>
        <time>2026-01-25T11:26:55Z</time>
      </trkpt>
      <trkpt lat="48.5067" lon="-2.83452">
        <ele>106.8</ele>
        <time>2026-01-25T11:26:56Z</time>
      </trkpt>
      <trkpt lat="48.50665" lon="-2.83455">
        <ele>106.8</ele>
        <time>2026-01-25T11:26:57Z</time>
      </trkpt>
      <trkpt lat="48.5066" lon="-2.83458">
        <ele>106.8</ele>
        <time>2026-01-25T11:26:58Z</time>
      </trkpt>
      <trkpt lat="48.50656" lon="-2.83461">
        <ele>106.6</ele>
        <time>2026-01-25T11:26:59Z</time>
      </trkpt>
      <trkpt lat="48.50651" lon="-2.83464">
        <ele>106.6</ele>
        <time>2026-01-25T11:27:00Z</time>
      </trkpt>
      <trkpt lat="48.50645" lon="-2.83466">
        <ele>106.6</ele>
        <time>2026-01-25T11:27:01Z</time>
      </trkpt>
      <trkpt lat="48.5064" lon="-2.83468">
        <ele>107.2</ele>
        <time>2026-01-25T11:27:02Z</time>
      </trkpt>
      <trkpt lat="48.50635" lon="-2.8347">
        <ele>107.6</ele>
        <time>2026-01-25T11:27:03Z</time>
      </trkpt>
      <trkpt lat="48.5063" lon="-2.83472">
        <ele>107.6</ele>
        <time>2026-01-25T11:27:04Z</time>
      </trkpt>
      <trkpt lat="48.50625" lon="-2.83473">
        <ele>107.6</ele>
        <time>2026-01-25T11:27:05Z</time>
      </trkpt>
      <trkpt lat="48.50619" lon="-2.83475">
        <ele>107.6</ele>
        <time>2026-01-25T11:27:06Z</time>
      </trkpt>
      <trkpt lat="48.50614" lon="-2.83476">
        <ele>106.8</ele>
        <time>2026-01-25T11:27:07Z</time>
      </trkpt>
      <trkpt lat="48.50608" lon="-2.83478">
        <ele>106.8</ele>
        <time>2026-01-25T11:27:08Z</time>
      </trkpt>
      <trkpt lat="48.50603" lon="-2.8348">
        <ele>106.8</ele>
        <time>2026-01-25T11:27:09Z</time>
      </trkpt>
      <trkpt lat="48.50597" lon="-2.83482">
        <ele>106.8</ele>
        <time>2026-01-25T11:27:10Z</time>
      </trkpt>
      <trkpt lat="48.50592" lon="-2.83484">
        <ele>107.4</ele>
        <time>2026-01-25T11:27:11Z</time>
      </trkpt>
      <trkpt lat="48.50586" lon="-2.83485">
        <ele>107.4</ele>
        <time>2026-01-25T11:27:12Z</time>
      </trkpt>
      <trkpt lat="48.50581" lon="-2.83487">
        <ele>107.4</ele>
        <time>2026-01-25T11:27:13Z</time>
      </trkpt>
      <trkpt lat="48.50575" lon="-2.83489">
        <ele>107.4</ele>
        <time>2026-01-25T11:27:14Z</time>
      </trkpt>
      <trkpt lat="48.50569" lon="-2.83492">
        <ele>107</ele>
        <time>2026-01-25T11:27:15Z</time>
      </trkpt>
      <trkpt lat="48.50564" lon="-2.83494">
        <ele>107</ele>
        <time>2026-01-25T11:27:16Z</time>
      </trkpt>
      <trkpt lat="48.50558" lon="-2.83497">
        <ele>107</ele>
        <time>2026-01-25T11:27:17Z</time>
      </trkpt>
      <trkpt lat="48.50552" lon="-2.835">
        <ele>107</ele>
        <time>2026-01-25T11:27:18Z</time>
      </trkpt>
      <trkpt lat="48.50547" lon="-2.83503">
        <ele>106.8</ele>
        <time>2026-01-25T11:27:19Z</time>
      </trkpt>
      <trkpt lat="48.50541" lon="-2.83506">
        <ele>106.8</ele>
        <time>2026-01-25T11:27:20Z</time>
      </trkpt>
      <trkpt lat="48.50536" lon="-2.8351">
        <ele>106.8</ele>
        <time>2026-01-25T11:27:21Z</time>
      </trkpt>
      <trkpt lat="48.5053" lon="-2.83514">
        <ele>106.8</ele>
        <time>2026-01-25T11:27:22Z</time>
      </trkpt>
      <trkpt lat="48.50525" lon="-2.83519">
        <ele>107.4</ele>
        <time>2026-01-25T11:27:23Z</time>
      </trkpt>
      <trkpt lat="48.50519" lon="-2.83524">
        <ele>107.4</ele>
        <time>2026-01-25T11:27:24Z</time>
      </trkpt>
      <trkpt lat="48.50514" lon="-2.83528">
        <ele>107.4</ele>
        <time>2026-01-25T11:27:25Z</time>
      </trkpt>
      <trkpt lat="48.50509" lon="-2.83534">
        <ele>106.4</ele>
        <time>2026-01-25T11:27:26Z</time>
      </trkpt>
      <trkpt lat="48.50503" lon="-2.83539">
        <ele>105.8</ele>
        <time>2026-01-25T11:27:27Z</time>
      </trkpt>
      <trkpt lat="48.50498" lon="-2.83545">
        <ele>105.8</ele>
        <time>2026-01-25T11:27:28Z</time>
      </trkpt>
      <trkpt lat="48.50493" lon="-2.83552">
        <ele>105.8</ele>
        <time>2026-01-25T11:27:29Z</time>
      </trkpt>
      <trkpt lat="48.50489" lon="-2.83558">
        <ele>105.8</ele>
        <time>2026-01-25T11:27:30Z</time>
      </trkpt>
      <trkpt lat="48.50484" lon="-2.83565">
        <ele>105.4</ele>
        <time>2026-01-25T11:27:31Z</time>
      </trkpt>
      <trkpt lat="48.50479" lon="-2.83573">
        <ele>105.4</ele>
        <time>2026-01-25T11:27:32Z</time>
      </trkpt>
      <trkpt lat="48.50475" lon="-2.8358">
        <ele>105.4</ele>
        <time>2026-01-25T11:27:33Z</time>
      </trkpt>
      <trkpt lat="48.50471" lon="-2.83588">
        <ele>105.4</ele>
        <time>2026-01-25T11:27:34Z</time>
      </trkpt>
      <trkpt lat="48.50467" lon="-2.83596">
        <ele>104.6</ele>
        <time>2026-01-25T11:27:35Z</time>
      </trkpt>
      <trkpt lat="48.50462" lon="-2.83605">
        <ele>104.6</ele>
        <time>2026-01-25T11:27:36Z</time>
      </trkpt>
      <trkpt lat="48.50458" lon="-2.83614">
        <ele>104.6</ele>
        <time>2026-01-25T11:27:37Z</time>
      </trkpt>
      <trkpt lat="48.50454" lon="-2.83622">
        <ele>104</ele>
        <time>2026-01-25T11:27:38Z</time>
      </trkpt>
      <trkpt lat="48.5045" lon="-2.83632">
        <ele>103.2</ele>
        <time>2026-01-25T11:27:39Z</time>
      </trkpt>
      <trkpt lat="48.50446" lon="-2.83642">
        <ele>103.2</ele>
        <time>2026-01-25T11:27:40Z</time>
      </trkpt>
      <trkpt lat="48.50442" lon="-2.83652">
        <ele>103.2</ele>
        <time>2026-01-25T11:27:41Z</time>
      </trkpt>
      <trkpt lat="48.50438" lon="-2.83662">
        <ele>102.2</ele>
        <time>2026-01-25T11:27:42Z</time>
      </trkpt>
      <trkpt lat="48.50433" lon="-2.83673">
        <ele>101.4</ele>
        <time>2026-01-25T11:27:43Z</time>
      </trkpt>
      <trkpt lat="48.50429" lon="-2.83683">
        <ele>101.4</ele>
        <time>2026-01-25T11:27:44Z</time>
      </trkpt>
      <trkpt lat="48.50425" lon="-2.83694">
        <ele>101.4</ele>
        <time>2026-01-25T11:27:45Z</time>
      </trkpt>
      <trkpt lat="48.50421" lon="-2.83704">
        <ele>100.4</ele>
        <time>2026-01-25T11:27:46Z</time>
      </trkpt>
      <trkpt lat="48.50416" lon="-2.83715">
        <ele>99</ele>
        <time>2026-01-25T11:27:47Z</time>
      </trkpt>
      <trkpt lat="48.50412" lon="-2.83726">
        <ele>99</ele>
        <time>2026-01-25T11:27:48Z</time>
      </trkpt>
      <trkpt lat="48.50407" lon="-2.83737">
        <ele>99</ele>
        <time>2026-01-25T11:27:49Z</time>
      </trkpt>
      <trkpt lat="48.50403" lon="-2.83749">
        <ele>98</ele>
        <time>2026-01-25T11:27:50Z</time>
      </trkpt>
      <trkpt lat="48.50398" lon="-2.83761">
        <ele>95.6</ele>
        <time>2026-01-25T11:27:51Z</time>
      </trkpt>
      <trkpt lat="48.50392" lon="-2.83773">
        <ele>95.6</ele>
        <time>2026-01-25T11:27:52Z</time>
      </trkpt>
      <trkpt lat="48.50387" lon="-2.83785">
        <ele>95.6</ele>
        <time>2026-01-25T11:27:53Z</time>
      </trkpt>
      <trkpt lat="48.50381" lon="-2.83796">
        <ele>94.6</ele>
        <time>2026-01-25T11:27:54Z</time>
      </trkpt>
      <trkpt lat="48.50374" lon="-2.83808">
        <ele>92.6</ele>
        <time>2026-01-25T11:27:55Z</time>
      </trkpt>
      <trkpt lat="48.50367" lon="-2.83819">
        <ele>92.6</ele>
        <time>2026-01-25T11:27:56Z</time>
      </trkpt>
      <trkpt lat="48.5036" lon="-2.83829">
        <ele>92.6</ele>
        <time>2026-01-25T11:27:57Z</time>
      </trkpt>
      <trkpt lat="48.50352" lon="-2.8384">
        <ele>91.6</ele>
        <time>2026-01-25T11:27:58Z</time>
      </trkpt>
      <trkpt lat="48.50344" lon="-2.83851">
        <ele>89.4</ele>
        <time>2026-01-25T11:27:59Z</time>
      </trkpt>
      <trkpt lat="48.50336" lon="-2.83861">
        <ele>89.4</ele>
        <time>2026-01-25T11:28:00Z</time>
      </trkpt>
      <trkpt lat="48.50327" lon="-2.83871">
        <ele>89.4</ele>
        <time>2026-01-25T11:28:01Z</time>
      </trkpt>
      <trkpt lat="48.50318" lon="-2.8388">
        <ele>88.4</ele>
        <time>2026-01-25T11:28:02Z</time>
      </trkpt>
      <trkpt lat="48.50308" lon="-2.83889">
        <ele>85</ele>
        <time>2026-01-25T11:28:03Z</time>
      </trkpt>
      <trkpt lat="48.50298" lon="-2.83897">
        <ele>85</ele>
        <time>2026-01-25T11:28:04Z</time>
      </trkpt>
      <trkpt lat="48.50288" lon="-2.83905">
        <ele>85</ele>
        <time>2026-01-25T11:28:05Z</time>
      </trkpt>
      <trkpt lat="48.50277" lon="-2.83913">
        <ele>84</ele>
        <time>2026-01-25T11:28:06Z</time>
      </trkpt>
      <trkpt lat="48.50266" lon="-2.83919">
        <ele>81</ele>
        <time>2026-01-25T11:28:07Z</time>
      </trkpt>
      <trkpt lat="48.50255" lon="-2.83924">
        <ele>81</ele>
        <time>2026-01-25T11:28:08Z</time>
      </trkpt>
      <trkpt lat="48.50244" lon="-2.83929">
        <ele>81</ele>
        <time>2026-01-25T11:28:09Z</time>
      </trkpt>
      <trkpt lat="48.50233" lon="-2.83933">
        <ele>80.6</ele>
        <time>2026-01-25T11:28:10Z</time>
      </trkpt>
      <trkpt lat="48.50222" lon="-2.83937">
        <ele>82</ele>
        <time>2026-01-25T11:28:11Z</time>
      </trkpt>
      <trkpt lat="48.50212" lon="-2.8394">
        <ele>82</ele>
        <time>2026-01-25T11:28:12Z</time>
      </trkpt>
      <trkpt lat="48.50202" lon="-2.83942">
        <ele>82</ele>
        <time>2026-01-25T11:28:13Z</time>
      </trkpt>
      <trkpt lat="48.50193" lon="-2.83944">
        <ele>83</ele>
        <time>2026-01-25T11:28:14Z</time>
      </trkpt>
      <trkpt lat="48.50184" lon="-2.83945">
        <ele>85</ele>
        <time>2026-01-25T11:28:15Z</time>
      </trkpt>
      <trkpt lat="48.50175" lon="-2.83946">
        <ele>85</ele>
        <time>2026-01-25T11:28:16Z</time>
      </trkpt>
      <trkpt lat="48.50167" lon="-2.83945">
        <ele>85</ele>
        <time>2026-01-25T11:28:17Z</time>
      </trkpt>
      <trkpt lat="48.5016" lon="-2.83945">
        <ele>86</ele>
        <time>2026-01-25T11:28:18Z</time>
      </trkpt>
      <trkpt lat="48.50153" lon="-2.83945">
        <ele>87.6</ele>
        <time>2026-01-25T11:28:19Z</time>
      </trkpt>
      <trkpt lat="48.50147" lon="-2.83945">
        <ele>87.6</ele>
        <time>2026-01-25T11:28:20Z</time>
      </trkpt>
      <trkpt lat="48.50142" lon="-2.83945">
        <ele>87.6</ele>
        <time>2026-01-25T11:28:21Z</time>
      </trkpt>
      <trkpt lat="48.50137" lon="-2.83944">
        <ele>88.6</ele>
        <time>2026-01-25T11:28:22Z</time>
      </trkpt>
      <trkpt lat="48.50133" lon="-2.83944">
        <ele>90.6</ele>
        <time>2026-01-25T11:28:23Z</time>
      </trkpt>
      <trkpt lat="48.50129" lon="-2.83943">
        <ele>90.6</ele>
        <time>2026-01-25T11:28:24Z</time>
      </trkpt>
      <trkpt lat="48.50126" lon="-2.83942">
        <ele>90.6</ele>
        <time>2026-01-25T11:28:25Z</time>
      </trkpt>
      <trkpt lat="48.50123" lon="-2.83941">
        <ele>91.6</ele>
        <time>2026-01-25T11:28:26Z</time>
      </trkpt>
      <trkpt lat="48.50121" lon="-2.83941">
        <ele>92.6</ele>
        <time>2026-01-25T11:28:27Z</time>
      </trkpt>
      <trkpt lat="48.50119" lon="-2.8394">
        <ele>92.6</ele>
        <time>2026-01-25T11:28:28Z</time>
      </trkpt>
      <trkpt lat="48.50117" lon="-2.8394">
        <ele>92.6</ele>
        <time>2026-01-25T11:28:29Z</time>
      </trkpt>
      <trkpt lat="48.50115" lon="-2.8394">
        <ele>93.4</ele>
        <time>2026-01-25T11:28:30Z</time>
      </trkpt>
      <trkpt lat="48.50113" lon="-2.83939">
        <ele>93.4</ele>
        <time>2026-01-25T11:28:31Z</time>
      </trkpt>
      <trkpt lat="48.50111" lon="-2.83938">
        <ele>93.4</ele>
        <time>2026-01-25T11:28:32Z</time>
      </trkpt>
      <trkpt lat="48.50109" lon="-2.83937">
        <ele>93.4</ele>
        <time>2026-01-25T11:28:33Z</time>
      </trkpt>
      <trkpt lat="48.50107" lon="-2.83937">
        <ele>94.2</ele>
        <time>2026-01-25T11:28:34Z</time>
      </trkpt>
      <trkpt lat="48.50105" lon="-2.83936">
        <ele>94.6</ele>
        <time>2026-01-25T11:28:35Z</time>
      </trkpt>
      <trkpt lat="48.50103" lon="-2.83934">
        <ele>94.6</ele>
        <time>2026-01-25T11:28:36Z</time>
      </trkpt>
      <trkpt lat="48.50101" lon="-2.83933">
        <ele>94.6</ele>
        <time>2026-01-25T11:28:37Z</time>
      </trkpt>
      <trkpt lat="48.50099" lon="-2.83931">
        <ele>94.6</ele>
        <time>2026-01-25T11:28:38Z</time>
      </trkpt>
      <trkpt lat="48.50097" lon="-2.8393">
        <ele>96</ele>
        <time>2026-01-25T11:28:39Z</time>
      </trkpt>
      <trkpt lat="48.50095" lon="-2.83929">
        <ele>96</ele>
        <time>2026-01-25T11:28:40Z</time>
      </trkpt>
      <trkpt lat="48.50093" lon="-2.83928">
        <ele>96</ele>
        <time>2026-01-25T11:28:41Z</time>
      </trkpt>
      <trkpt lat="48.50091" lon="-2.83927">
        <ele>96</ele>
        <time>2026-01-25T11:28:42Z</time>
      </trkpt>
      <trkpt lat="48.50089" lon="-2.83926">
        <ele>96.6</ele>
        <time>2026-01-25T11:28:43Z</time>
      </trkpt>
      <trkpt lat="48.50087" lon="-2.83925">
        <ele>96.6</ele>
        <time>2026-01-25T11:28:44Z</time>
      </trkpt>
      <trkpt lat="48.50084" lon="-2.83924">
        <ele>96.6</ele>
        <time>2026-01-25T11:28:45Z</time>
      </trkpt>
      <trkpt lat="48.50082" lon="-2.83923">
        <ele>97.2</ele>
        <time>2026-01-25T11:28:46Z</time>
      </trkpt>
      <trkpt lat="48.5008" lon="-2.83922">
        <ele>97.6</ele>
        <time>2026-01-25T11:28:47Z</time>
      </trkpt>
      <trkpt lat="48.50078" lon="-2.83921">
        <ele>97.6</ele>
        <time>2026-01-25T11:28:48Z</time>
      </trkpt>
      <trkpt lat="48.50076" lon="-2.8392">
        <ele>97.6</ele>
        <time>2026-01-25T11:28:49Z</time>
      </trkpt>
      <trkpt lat="48.50074" lon="-2.83919">
        <ele>98.2</ele>
        <time>2026-01-25T11:28:50Z</time>
      </trkpt>
      <trkpt lat="48.50072" lon="-2.83918">
        <ele>98.4</ele>
        <time>2026-01-25T11:28:51Z</time>
      </trkpt>
      <trkpt lat="48.5007" lon="-2.83917">
        <ele>98.4</ele>
        <time>2026-01-25T11:28:52Z</time>
      </trkpt>
      <trkpt lat="48.50068" lon="-2.83916">
        <ele>98.4</ele>
        <time>2026-01-25T11:28:53Z</time>
      </trkpt>
      <trkpt lat="48.50066" lon="-2.83915">
        <ele>98.8</ele>
        <time>2026-01-25T11:28:54Z</time>
      </trkpt>
      <trkpt lat="48.50064" lon="-2.83914">
        <ele>99.2</ele>
        <time>2026-01-25T11:28:55Z</time>
      </trkpt>
      <trkpt lat="48.50062" lon="-2.83913">
        <ele>99.2</ele>
        <time>2026-01-25T11:28:56Z</time>
      </trkpt>
      <trkpt lat="48.5006" lon="-2.83912">
        <ele>99.2</ele>
        <time>2026-01-25T11:28:57Z</time>
      </trkpt>
      <trkpt lat="48.50058" lon="-2.83911">
        <ele>99.2</ele>
        <time>2026-01-25T11:28:58Z</time>
      </trkpt>
      <trkpt lat="48.50056" lon="-2.8391">
        <ele>100.2</ele>
        <time>2026-01-25T11:28:59Z</time>
      </trkpt>
      <trkpt lat="48.50054" lon="-2.83908">
        <ele>100.2</ele>
        <time>2026-01-25T11:29:00Z</time>
      </trkpt>
      <trkpt lat="48.50053" lon="-2.83907">
        <ele>100.2</ele>
        <time>2026-01-25T11:29:01Z</time>
      </trkpt>
      <trkpt lat="48.50051" lon="-2.83905">
        <ele>101.2</ele>
        <time>2026-01-25T11:29:02Z</time>
      </trkpt>
      <trkpt lat="48.50049" lon="-2.83904">
        <ele>101.2</ele>
        <time>2026-01-25T11:29:03Z</time>
      </trkpt>
      <trkpt lat="48.50047" lon="-2.83903">
        <ele>101.2</ele>
        <time>2026-01-25T11:29:04Z</time>
      </trkpt>
      <trkpt lat="48.50045" lon="-2.83902">
        <ele>101.2</ele>
        <time>2026-01-25T11:29:05Z</time>
      </trkpt>
      <trkpt lat="48.50043" lon="-2.83901">
        <ele>101.8</ele>
        <time>2026-01-25T11:29:06Z</time>
      </trkpt>
      <trkpt lat="48.50041" lon="-2.839">
        <ele>102</ele>
        <time>2026-01-25T11:29:07Z</time>
      </trkpt>
      <trkpt lat="48.50039" lon="-2.83899">
        <ele>102</ele>
        <time>2026-01-25T11:29:08Z</time>
      </trkpt>
      <trkpt lat="48.50037" lon="-2.83898">
        <ele>102</ele>
        <time>2026-01-25T11:29:09Z</time>
      </trkpt>
      <trkpt lat="48.50035" lon="-2.83897">
        <ele>102.4</ele>
        <time>2026-01-25T11:29:10Z</time>
      </trkpt>
      <trkpt lat="48.50033" lon="-2.83896">
        <ele>103</ele>
        <time>2026-01-25T11:29:11Z</time>
      </trkpt>
      <trkpt lat="48.50032" lon="-2.83895">
        <ele>103</ele>
        <time>2026-01-25T11:29:12Z</time>
      </trkpt>
      <trkpt lat="48.5003" lon="-2.83894">
        <ele>103</ele>
        <time>2026-01-25T11:29:13Z</time>
      </trkpt>
      <trkpt lat="48.50028" lon="-2.83894">
        <ele>103</ele>
        <time>2026-01-25T11:29:14Z</time>
      </trkpt>
      <trkpt lat="48.50026" lon="-2.83893">
        <ele>104</ele>
        <time>2026-01-25T11:29:15Z</time>
      </trkpt>
      <trkpt lat="48.50024" lon="-2.83892">
        <ele>104</ele>
        <time>2026-01-25T11:29:16Z</time>
      </trkpt>
      <trkpt lat="48.50022" lon="-2.83892">
        <ele>104</ele>
        <time>2026-01-25T11:29:17Z</time>
      </trkpt>
      <trkpt lat="48.5002" lon="-2.83891">
        <ele>104.6</ele>
        <time>2026-01-25T11:29:18Z</time>
      </trkpt>
      <trkpt lat="48.50018" lon="-2.8389">
        <ele>105</ele>
        <time>2026-01-25T11:29:19Z</time>
      </trkpt>
      <trkpt lat="48.50016" lon="-2.83889">
        <ele>105</ele>
        <time>2026-01-25T11:29:20Z</time>
      </trkpt>
      <trkpt lat="48.50014" lon="-2.83888">
        <ele>105</ele>
        <time>2026-01-25T11:29:21Z</time>
      </trkpt>
      <trkpt lat="48.50012" lon="-2.83888">
        <ele>105.8</ele>
        <time>2026-01-25T11:29:22Z</time>
      </trkpt>
      <trkpt lat="48.5001" lon="-2.83887">
        <ele>106</ele>
        <time>2026-01-25T11:29:23Z</time>
      </trkpt>
      <trkpt lat="48.50009" lon="-2.83887">
        <ele>106</ele>
        <time>2026-01-25T11:29:24Z</time>
      </trkpt>
      <trkpt lat="48.50007" lon="-2.83886">
        <ele>106</ele>
        <time>2026-01-25T11:29:25Z</time>
      </trkpt>
      <trkpt lat="48.50005" lon="-2.83886">
        <ele>106</ele>
        <time>2026-01-25T11:29:26Z</time>
      </trkpt>
      <trkpt lat="48.50003" lon="-2.83885">
        <ele>106.6</ele>
        <time>2026-01-25T11:29:27Z</time>
      </trkpt>
      <trkpt lat="48.50001" lon="-2.83884">
        <ele>106.6</ele>
        <time>2026-01-25T11:29:28Z</time>
      </trkpt>
      <trkpt lat="48.49999" lon="-2.83883">
        <ele>106.6</ele>
        <time>2026-01-25T11:29:29Z</time>
      </trkpt>
      <trkpt lat="48.49997" lon="-2.83882">
        <ele>106.8</ele>
        <time>2026-01-25T11:29:30Z</time>
      </trkpt>
      <trkpt lat="48.49995" lon="-2.83881">
        <ele>107</ele>
        <time>2026-01-25T11:29:31Z</time>
      </trkpt>
      <trkpt lat="48.49993" lon="-2.8388">
        <ele>107</ele>
        <time>2026-01-25T11:29:32Z</time>
      </trkpt>
      <trkpt lat="48.49991" lon="-2.8388">
        <ele>107</ele>
        <time>2026-01-25T11:29:33Z</time>
      </trkpt>
      <trkpt lat="48.49989" lon="-2.83879">
        <ele>107.6</ele>
        <time>2026-01-25T11:29:34Z</time>
      </trkpt>
      <trkpt lat="48.49987" lon="-2.8388">
        <ele>107.8</ele>
        <time>2026-01-25T11:29:35Z</time>
      </trkpt>
      <trkpt lat="48.49985" lon="-2.8388">
        <ele>107.8</ele>
        <time>2026-01-25T11:29:36Z</time>
      </trkpt>
      <trkpt lat="48.49983" lon="-2.83882">
        <ele>107.8</ele>
        <time>2026-01-25T11:29:37Z</time>
      </trkpt>
      <trkpt lat="48.49981" lon="-2.83884">
        <ele>108.2</ele>
        <time>2026-01-25T11:29:38Z</time>
      </trkpt>
      <trkpt lat="48.4998" lon="-2.83886">
        <ele>108.4</ele>
        <time>2026-01-25T11:29:39Z</time>
      </trkpt>
      <trkpt lat="48.49979" lon="-2.83888">
        <ele>108.4</ele>
        <time>2026-01-25T11:29:40Z</time>
      </trkpt>
      <trkpt lat="48.49978" lon="-2.83891">
        <ele>108.4</ele>
        <time>2026-01-25T11:29:41Z</time>
      </trkpt>
      <trkpt lat="48.49977" lon="-2.83893">
        <ele>109</ele>
        <time>2026-01-25T11:29:42Z</time>
      </trkpt>
      <trkpt lat="48.49976" lon="-2.83896">
        <ele>109</ele>
        <time>2026-01-25T11:29:43Z</time>
      </trkpt>
      <trkpt lat="48.49976" lon="-2.83899">
        <ele>109</ele>
        <time>2026-01-25T11:29:44Z</time>
      </trkpt>
      <trkpt lat="48.49975" lon="-2.83901">
        <ele>109</ele>
        <time>2026-01-25T11:29:45Z</time>
      </trkpt>
      <trkpt lat="48.49974" lon="-2.83904">
        <ele>109.4</ele>
        <time>2026-01-25T11:29:46Z</time>
      </trkpt>
      <trkpt lat="48.49974" lon="-2.83907">
        <ele>110</ele>
        <time>2026-01-25T11:29:47Z</time>
      </trkpt>
      <trkpt lat="48.49973" lon="-2.8391">
        <ele>110</ele>
        <time>2026-01-25T11:29:48Z</time>
      </trkpt>
      <trkpt lat="48.49973" lon="-2.83912">
        <ele>110</ele>
        <time>2026-01-25T11:29:49Z</time>
      </trkpt>
      <trkpt lat="48.49973" lon="-2.83915">
        <ele>110.8</ele>
        <time>2026-01-25T11:29:50Z</time>
      </trkpt>
      <trkpt lat="48.49973" lon="-2.83918">
        <ele>110.8</ele>
        <time>2026-01-25T11:29:51Z</time>
      </trkpt>
      <trkpt lat="48.49972" lon="-2.8392">
        <ele>110.8</ele>
        <time>2026-01-25T11:29:52Z</time>
      </trkpt>
      <trkpt lat="48.49971" lon="-2.83923">
        <ele>110.8</ele>
        <time>2026-01-25T11:29:53Z</time>
      </trkpt>
      <trkpt lat="48.4997" lon="-2.83926">
        <ele>111.8</ele>
        <time>2026-01-25T11:29:54Z</time>
      </trkpt>
      <trkpt lat="48.4997" lon="-2.83929">
        <ele>112</ele>
        <time>2026-01-25T11:29:55Z</time>
      </trkpt>
      <trkpt lat="48.49969" lon="-2.83931">
        <ele>112</ele>
        <time>2026-01-25T11:29:56Z</time>
      </trkpt>
      <trkpt lat="48.49968" lon="-2.83934">
        <ele>112</ele>
        <time>2026-01-25T11:29:57Z</time>
      </trkpt>
      <trkpt lat="48.49967" lon="-2.83936">
        <ele>112.8</ele>
        <time>2026-01-25T11:29:58Z</time>
      </trkpt>
      <trkpt lat="48.49966" lon="-2.83939">
        <ele>112.8</ele>
        <time>2026-01-25T11:29:59Z</time>
      </trkpt>
      <trkpt lat="48.49965" lon="-2.83941">
        <ele>112.8</ele>
        <time>2026-01-25T11:30:00Z</time>
      </trkpt>
      <trkpt lat="48.49964" lon="-2.83944">
        <ele>112.8</ele>
        <time>2026-01-25T11:30:01Z</time>
      </trkpt>
      <trkpt lat="48.49963" lon="-2.83947">
        <ele>113.8</ele>
        <time>2026-01-25T11:30:02Z</time>
      </trkpt>
      <trkpt lat="48.49963" lon="-2.8395">
        <ele>114.2</ele>
        <time>2026-01-25T11:30:03Z</time>
      </trkpt>
      <trkpt lat="48.49963" lon="-2.83953">
        <ele>114.2</ele>
        <time>2026-01-25T11:30:04Z</time>
      </trkpt>
      <trkpt lat="48.49963" lon="-2.83956">
        <ele>114.2</ele>
        <time>2026-01-25T11:30:05Z</time>
      </trkpt>
      <trkpt lat="48.49963" lon="-2.83959">
        <ele>115</ele>
        <time>2026-01-25T11:30:06Z</time>
      </trkpt>
      <trkpt lat="48.49963" lon="-2.83962">
        <ele>115.4</ele>
        <time>2026-01-25T11:30:07Z</time>
      </trkpt>
      <trkpt lat="48.49962" lon="-2.83965">
        <ele>115.4</ele>
        <time>2026-01-25T11:30:08Z</time>
      </trkpt>
      <trkpt lat="48.49961" lon="-2.83968">
        <ele>115.4</ele>
        <time>2026-01-25T11:30:09Z</time>
      </trkpt>
      <trkpt lat="48.4996" lon="-2.83971">
        <ele>116.2</ele>
        <time>2026-01-25T11:30:10Z</time>
      </trkpt>
      <trkpt lat="48.4996" lon="-2.83974">
        <ele>116.6</ele>
        <time>2026-01-25T11:30:11Z</time>
      </trkpt>
      <trkpt lat="48.49959" lon="-2.83977">
        <ele>116.6</ele>
        <time>2026-01-25T11:30:12Z</time>
      </trkpt>
      <trkpt lat="48.49958" lon="-2.83979">
        <ele>116.6</ele>
        <time>2026-01-25T11:30:13Z</time>
      </trkpt>
      <trkpt lat="48.49957" lon="-2.83982">
        <ele>116.6</ele>
        <time>2026-01-25T11:30:14Z</time>
      </trkpt>
      <trkpt lat="48.49957" lon="-2.83985">
        <ele>117.4</ele>
        <time>2026-01-25T11:30:15Z</time>
      </trkpt>
      <trkpt lat="48.49956" lon="-2.83988">
        <ele>117.4</ele>
        <time>2026-01-25T11:30:16Z</time>
      </trkpt>
      <trkpt lat="48.49956" lon="-2.83991">
        <ele>117.4</ele>
        <time>2026-01-25T11:30:17Z</time>
      </trkpt>
      <trkpt lat="48.49955" lon="-2.83994">
        <ele>118</ele>
        <time>2026-01-25T11:30:18Z</time>
      </trkpt>
      <trkpt lat="48.49955" lon="-2.83997">
        <ele>117.6</ele>
        <time>2026-01-25T11:30:19Z</time>
      </trkpt>
      <trkpt lat="48.49955" lon="-2.84">
        <ele>117.6</ele>
        <time>2026-01-25T11:30:20Z</time>
      </trkpt>
      <trkpt lat="48.49954" lon="-2.84003">
        <ele>117.6</ele>
        <time>2026-01-25T11:30:21Z</time>
      </trkpt>
      <trkpt lat="48.49953" lon="-2.84006">
        <ele>118.2</ele>
        <time>2026-01-25T11:30:22Z</time>
      </trkpt>
      <trkpt lat="48.49953" lon="-2.8401">
        <ele>118.8</ele>
        <time>2026-01-25T11:30:23Z</time>
      </trkpt>
      <trkpt lat="48.49952" lon="-2.84013">
        <ele>118.8</ele>
        <time>2026-01-25T11:30:24Z</time>
      </trkpt>
      <trkpt lat="48.49951" lon="-2.84016">
        <ele>118.8</ele>
        <time>2026-01-25T11:30:25Z</time>
      </trkpt>
      <trkpt lat="48.4995" lon="-2.8402">
        <ele>119.2</ele>
        <time>2026-01-25T11:30:26Z</time>
      </trkpt>
      <trkpt lat="48.49949" lon="-2.84023">
        <ele>119</ele>
        <time>2026-01-25T11:30:27Z</time>
      </trkpt>
      <trkpt lat="48.49949" lon="-2.84027">
        <ele>119</ele>
        <time>2026-01-25T11:30:28Z</time>
      </trkpt>
      <trkpt lat="48.49948" lon="-2.84031">
        <ele>119</ele>
        <time>2026-01-25T11:30:29Z</time>
      </trkpt>
      <trkpt lat="48.49948" lon="-2.84034">
        <ele>119</ele>
        <time>2026-01-25T11:30:30Z</time>
      </trkpt>
      <trkpt lat="48.49948" lon="-2.84038">
        <ele>120.6</ele>
        <time>2026-01-25T11:30:31Z</time>
      </trkpt>
      <trkpt lat="48.49947" lon="-2.84042">
        <ele>120.6</ele>
        <time>2026-01-25T11:30:32Z</time>
      </trkpt>
      <trkpt lat="48.49947" lon="-2.84046">
        <ele>120.6</ele>
        <time>2026-01-25T11:30:33Z</time>
      </trkpt>
      <trkpt lat="48.49947" lon="-2.8405">
        <ele>121</ele>
        <time>2026-01-25T11:30:34Z</time>
      </trkpt>
      <trkpt lat="48.49947" lon="-2.84054">
        <ele>120.8</ele>
        <time>2026-01-25T11:30:35Z</time>
      </trkpt>
      <trkpt lat="48.49947" lon="-2.84058">
        <ele>120.8</ele>
        <time>2026-01-25T11:30:36Z</time>
      </trkpt>
      <trkpt lat="48.49947" lon="-2.84062">
        <ele>120.8</ele>
        <time>2026-01-25T11:30:37Z</time>
      </trkpt>
      <trkpt lat="48.49947" lon="-2.84066">
        <ele>121.4</ele>
        <time>2026-01-25T11:30:38Z</time>
      </trkpt>
      <trkpt lat="48.49946" lon="-2.8407">
        <ele>121.2</ele>
        <time>2026-01-25T11:30:39Z</time>
      </trkpt>
      <trkpt lat="48.49946" lon="-2.84074">
        <ele>121.2</ele>
        <time>2026-01-25T11:30:40Z</time>
      </trkpt>
      <trkpt lat="48.49946" lon="-2.84078">
        <ele>121.2</ele>
        <time>2026-01-25T11:30:41Z</time>
      </trkpt>
      <trkpt lat="48.49946" lon="-2.84083">
        <ele>121.2</ele>
        <time>2026-01-25T11:30:42Z</time>
      </trkpt>
      <trkpt lat="48.49945" lon="-2.84088">
        <ele>120.4</ele>
        <time>2026-01-25T11:30:43Z</time>
      </trkpt>
      <trkpt lat="48.49945" lon="-2.84093">
        <ele>120.4</ele>
        <time>2026-01-25T11:30:44Z</time>
      </trkpt>
      <trkpt lat="48.49944" lon="-2.84099">
        <ele>120.4</ele>
        <time>2026-01-25T11:30:45Z</time>
      </trkpt>
      <trkpt lat="48.49942" lon="-2.84105">
        <ele>119.4</ele>
        <time>2026-01-25T11:30:46Z</time>
      </trkpt>
      <trkpt lat="48.4994" lon="-2.84111">
        <ele>118.6</ele>
        <time>2026-01-25T11:30:47Z</time>
      </trkpt>
      <trkpt lat="48.49936" lon="-2.84117">
        <ele>118.6</ele>
        <time>2026-01-25T11:30:48Z</time>
      </trkpt>
      <trkpt lat="48.49933" lon="-2.84122">
        <ele>118.6</ele>
        <time>2026-01-25T11:30:49Z</time>
      </trkpt>
      <trkpt lat="48.49929" lon="-2.84127">
        <ele>118.6</ele>
        <time>2026-01-25T11:30:50Z</time>
      </trkpt>
      <trkpt lat="48.49924" lon="-2.84131">
        <ele>117.2</ele>
        <time>2026-01-25T11:30:51Z</time>
      </trkpt>
      <trkpt lat="48.49919" lon="-2.84134">
        <ele>117.2</ele>
        <time>2026-01-25T11:30:52Z</time>
      </trkpt>
      <trkpt lat="48.49915" lon="-2.84136">
        <ele>117.2</ele>
        <time>2026-01-25T11:30:53Z</time>
      </trkpt>
      <trkpt lat="48.49911" lon="-2.84137">
        <ele>118.2</ele>
        <time>2026-01-25T11:30:54Z</time>
      </trkpt>
      <trkpt lat="48.49907" lon="-2.84137">
        <ele>119.4</ele>
        <time>2026-01-25T11:30:55Z</time>
      </trkpt>
      <trkpt lat="48.49904" lon="-2.84138">
        <ele>119.4</ele>
        <time>2026-01-25T11:30:56Z</time>
      </trkpt>
      <trkpt lat="48.49901" lon="-2.84138">
        <ele>119.4</ele>
        <time>2026-01-25T11:30:57Z</time>
      </trkpt>
      <trkpt lat="48.49898" lon="-2.84138">
        <ele>120</ele>
        <time>2026-01-25T11:30:58Z</time>
      </trkpt>
      <trkpt lat="48.49895" lon="-2.84137">
        <ele>120.6</ele>
        <time>2026-01-25T11:30:59Z</time>
      </trkpt>
      <trkpt lat="48.49892" lon="-2.84136">
        <ele>120.6</ele>
        <time>2026-01-25T11:31:00Z</time>
      </trkpt>
      <trkpt lat="48.49889" lon="-2.84135">
        <ele>120.6</ele>
        <time>2026-01-25T11:31:01Z</time>
      </trkpt>
      <trkpt lat="48.49886" lon="-2.84133">
        <ele>120.6</ele>
        <time>2026-01-25T11:31:02Z</time>
      </trkpt>
      <trkpt lat="48.49883" lon="-2.84132">
        <ele>120.6</ele>
        <time>2026-01-25T11:31:03Z</time>
      </trkpt>
      <trkpt lat="48.4988" lon="-2.8413">
        <ele>120.6</ele>
        <time>2026-01-25T11:31:04Z</time>
      </trkpt>
      <trkpt lat="48.49877" lon="-2.84129">
        <ele>120.6</ele>
        <time>2026-01-25T11:31:05Z</time>
      </trkpt>
      <trkpt lat="48.49875" lon="-2.84127">
        <ele>121.6</ele>
        <time>2026-01-25T11:31:06Z</time>
      </trkpt>
      <trkpt lat="48.49872" lon="-2.84126">
        <ele>122</ele>
        <time>2026-01-25T11:31:07Z</time>
      </trkpt>
      <trkpt lat="48.49869" lon="-2.84124">
        <ele>122</ele>
        <time>2026-01-25T11:31:08Z</time>
      </trkpt>
      <trkpt lat="48.49866" lon="-2.84121">
        <ele>122</ele>
        <time>2026-01-25T11:31:09Z</time>
      </trkpt>
      <trkpt lat="48.49864" lon="-2.84118">
        <ele>122.6</ele>
        <time>2026-01-25T11:31:10Z</time>
      </trkpt>
      <trkpt lat="48.49861" lon="-2.84115">
        <ele>122.8</ele>
        <time>2026-01-25T11:31:11Z</time>
      </trkpt>
      <trkpt lat="48.49859" lon="-2.84112">
        <ele>122.8</ele>
        <time>2026-01-25T11:31:12Z</time>
      </trkpt>
      <trkpt lat="48.49857" lon="-2.84109">
        <ele>122.8</ele>
        <time>2026-01-25T11:31:13Z</time>
      </trkpt>
      <trkpt lat="48.49854" lon="-2.84106">
        <ele>123.6</ele>
        <time>2026-01-25T11:31:14Z</time>
      </trkpt>
      <trkpt lat="48.49852" lon="-2.84103">
        <ele>123.8</ele>
        <time>2026-01-25T11:31:15Z</time>
      </trkpt>
      <trkpt lat="48.4985" lon="-2.841">
        <ele>123.8</ele>
        <time>2026-01-25T11:31:16Z</time>
      </trkpt>
      <trkpt lat="48.49847" lon="-2.84097">
        <ele>123.8</ele>
        <time>2026-01-25T11:31:17Z</time>
      </trkpt>
      <trkpt lat="48.49845" lon="-2.84094">
        <ele>124</ele>
        <time>2026-01-25T11:31:18Z</time>
      </trkpt>
      <trkpt lat="48.49842" lon="-2.84091">
        <ele>124</ele>
        <time>2026-01-25T11:31:19Z</time>
      </trkpt>
      <trkpt lat="48.4984" lon="-2.84088">
        <ele>124</ele>
        <time>2026-01-25T11:31:20Z</time>
      </trkpt>
      <trkpt lat="48.49837" lon="-2.84085">
        <ele>124</ele>
        <time>2026-01-25T11:31:21Z</time>
      </trkpt>
      <trkpt lat="48.49834" lon="-2.84081">
        <ele>124</ele>
        <time>2026-01-25T11:31:22Z</time>
      </trkpt>
      <trkpt lat="48.49831" lon="-2.84078">
        <ele>124</ele>
        <time>2026-01-25T11:31:23Z</time>
      </trkpt>
      <trkpt lat="48.49828" lon="-2.84074">
        <ele>124</ele>
        <time>2026-01-25T11:31:24Z</time>
      </trkpt>
      <trkpt lat="48.49824" lon="-2.8407">
        <ele>124</ele>
        <time>2026-01-25T11:31:25Z</time>
      </trkpt>
      <trkpt lat="48.4982" lon="-2.84067">
        <ele>123.4</ele>
        <time>2026-01-25T11:31:26Z</time>
      </trkpt>
      <trkpt lat="48.49816" lon="-2.84067">
        <ele>123.4</ele>
        <time>2026-01-25T11:31:27Z</time>
      </trkpt>
      <trkpt lat="48.49812" lon="-2.84069">
        <ele>123.4</ele>
        <time>2026-01-25T11:31:28Z</time>
      </trkpt>
      <trkpt lat="48.49808" lon="-2.84072">
        <ele>123.4</ele>
        <time>2026-01-25T11:31:29Z</time>
      </trkpt>
      <trkpt lat="48.49805" lon="-2.84077">
        <ele>123</ele>
        <time>2026-01-25T11:31:30Z</time>
      </trkpt>
      <trkpt lat="48.49802" lon="-2.84081">
        <ele>124</ele>
        <time>2026-01-25T11:31:31Z</time>
      </trkpt>
      <trkpt lat="48.49799" lon="-2.84084">
        <ele>124</ele>
        <time>2026-01-25T11:31:32Z</time>
      </trkpt>
      <trkpt lat="48.49795" lon="-2.84089">
        <ele>124</ele>
        <time>2026-01-25T11:31:33Z</time>
      </trkpt>
      <trkpt lat="48.49792" lon="-2.84093">
        <ele>124</ele>
        <time>2026-01-25T11:31:34Z</time>
      </trkpt>
      <trkpt lat="48.49789" lon="-2.84097">
        <ele>123.6</ele>
        <time>2026-01-25T11:31:35Z</time>
      </trkpt>
      <trkpt lat="48.49786" lon="-2.84102">
        <ele>123.6</ele>
        <time>2026-01-25T11:31:36Z</time>
      </trkpt>
      <trkpt lat="48.49782" lon="-2.84107">
        <ele>123.6</ele>
        <time>2026-01-25T11:31:37Z</time>
      </trkpt>
      <trkpt lat="48.49779" lon="-2.84113">
        <ele>123.4</ele>
        <time>2026-01-25T11:31:38Z</time>
      </trkpt>
      <trkpt lat="48.49776" lon="-2.84119">
        <ele>123.2</ele>
        <time>2026-01-25T11:31:39Z</time>
      </trkpt>
      <trkpt lat="48.49772" lon="-2.84125">
        <ele>123.2</ele>
        <time>2026-01-25T11:31:40Z</time>
      </trkpt>
      <trkpt lat="48.49769" lon="-2.84131">
        <ele>123.2</ele>
        <time>2026-01-25T11:31:41Z</time>
      </trkpt>
      <trkpt lat="48.49766" lon="-2.84138">
        <ele>122.2</ele>
        <time>2026-01-25T11:31:42Z</time>
      </trkpt>
      <trkpt lat="48.49763" lon="-2.84146">
        <ele>121.6</ele>
        <time>2026-01-25T11:31:43Z</time>
      </trkpt>
      <trkpt lat="48.4976" lon="-2.84154">
        <ele>121.6</ele>
        <time>2026-01-25T11:31:44Z</time>
      </trkpt>
      <trkpt lat="48.49758" lon="-2.84162">
        <ele>121.6</ele>
        <time>2026-01-25T11:31:45Z</time>
      </trkpt>
      <trkpt lat="48.49757" lon="-2.8417">
        <ele>122</ele>
        <time>2026-01-25T11:31:46Z</time>
      </trkpt>
      <trkpt lat="48.49755" lon="-2.84179">
        <ele>122.2</ele>
        <time>2026-01-25T11:31:47Z</time>
      </trkpt>
      <trkpt lat="48.49754" lon="-2.84187">
        <ele>122.2</ele>
        <time>2026-01-25T11:31:48Z</time>
      </trkpt>
      <trkpt lat="48.49753" lon="-2.84196">
        <ele>122.2</ele>
        <time>2026-01-25T11:31:49Z</time>
      </trkpt>
      <trkpt lat="48.49753" lon="-2.84205">
        <ele>122.2</ele>
        <time>2026-01-25T11:31:50Z</time>
      </trkpt>
      <trkpt lat="48.49752" lon="-2.84213">
        <ele>121.4</ele>
        <time>2026-01-25T11:31:51Z</time>
      </trkpt>
      <trkpt lat="48.49751" lon="-2.84222">
        <ele>121.4</ele>
        <time>2026-01-25T11:31:52Z</time>
      </trkpt>
      <trkpt lat="48.4975" lon="-2.84231">
        <ele>121.4</ele>
        <time>2026-01-25T11:31:53Z</time>
      </trkpt>
      <trkpt lat="48.4975" lon="-2.84239">
        <ele>122</ele>
        <time>2026-01-25T11:31:54Z</time>
      </trkpt>
      <trkpt lat="48.49749" lon="-2.84248">
        <ele>122.4</ele>
        <time>2026-01-25T11:31:55Z</time>
      </trkpt>
      <trkpt lat="48.49749" lon="-2.84256">
        <ele>122.4</ele>
        <time>2026-01-25T11:31:56Z</time>
      </trkpt>
      <trkpt lat="48.49747" lon="-2.84264">
        <ele>122.4</ele>
        <time>2026-01-25T11:31:57Z</time>
      </trkpt>
      <trkpt lat="48.49745" lon="-2.84271">
        <ele>122.4</ele>
        <time>2026-01-25T11:31:58Z</time>
      </trkpt>
      <trkpt lat="48.49742" lon="-2.84277">
        <ele>123</ele>
        <time>2026-01-25T11:31:59Z</time>
      </trkpt>
      <trkpt lat="48.49738" lon="-2.84282">
        <ele>123</ele>
        <time>2026-01-25T11:32:00Z</time>
      </trkpt>
      <trkpt lat="48.49735" lon="-2.84286">
        <ele>123</ele>
        <time>2026-01-25T11:32:01Z</time>
      </trkpt>
      <trkpt lat="48.49732" lon="-2.84289">
        <ele>124</ele>
        <time>2026-01-25T11:32:02Z</time>
      </trkpt>
      <trkpt lat="48.49728" lon="-2.84291">
        <ele>124.4</ele>
        <time>2026-01-25T11:32:03Z</time>
      </trkpt>
      <trkpt lat="48.49724" lon="-2.84292">
        <ele>124.4</ele>
        <time>2026-01-25T11:32:04Z</time>
      </trkpt>
      <trkpt lat="48.49721" lon="-2.84293">
        <ele>124.4</ele>
        <time>2026-01-25T11:32:05Z</time>
      </trkpt>
      <trkpt lat="48.49717" lon="-2.84293">
        <ele>125.4</ele>
        <time>2026-01-25T11:32:06Z</time>
      </trkpt>
      <trkpt lat="48.49714" lon="-2.84293">
        <ele>125.2</ele>
        <time>2026-01-25T11:32:07Z</time>
      </trkpt>
      <trkpt lat="48.4971" lon="-2.84293">
        <ele>125.2</ele>
        <time>2026-01-25T11:32:08Z</time>
      </trkpt>
      <trkpt lat="48.49707" lon="-2.84293">
        <ele>125.2</ele>
        <time>2026-01-25T11:32:09Z</time>
      </trkpt>
      <trkpt lat="48.49704" lon="-2.84292">
        <ele>126.2</ele>
        <time>2026-01-25T11:32:10Z</time>
      </trkpt>
      <trkpt lat="48.497" lon="-2.84292">
        <ele>126.6</ele>
        <time>2026-01-25T11:32:11Z</time>
      </trkpt>
      <trkpt lat="48.49697" lon="-2.84292">
        <ele>126.6</ele>
        <time>2026-01-25T11:32:12Z</time>
      </trkpt>
      <trkpt lat="48.49694" lon="-2.84292">
        <ele>126.6</ele>
        <time>2026-01-25T11:32:13Z</time>
      </trkpt>
      <trkpt lat="48.49691" lon="-2.84292">
        <ele>127.6</ele>
        <time>2026-01-25T11:32:14Z</time>
      </trkpt>
      <trkpt lat="48.49688" lon="-2.84291">
        <ele>127.8</ele>
        <time>2026-01-25T11:32:15Z</time>
      </trkpt>
      <trkpt lat="48.49685" lon="-2.84291">
        <ele>127.8</ele>
        <time>2026-01-25T11:32:16Z</time>
      </trkpt>
      <trkpt lat="48.49681" lon="-2.84291">
        <ele>127.8</ele>
        <time>2026-01-25T11:32:17Z</time>
      </trkpt>
      <trkpt lat="48.49678" lon="-2.8429">
        <ele>128.8</ele>
        <time>2026-01-25T11:32:18Z</time>
      </trkpt>
      <trkpt lat="48.49675" lon="-2.8429">
        <ele>128.4</ele>
        <time>2026-01-25T11:32:19Z</time>
      </trkpt>
      <trkpt lat="48.49672" lon="-2.8429">
        <ele>128.4</ele>
        <time>2026-01-25T11:32:20Z</time>
      </trkpt>
      <trkpt lat="48.49669" lon="-2.8429">
        <ele>128.4</ele>
        <time>2026-01-25T11:32:21Z</time>
      </trkpt>
      <trkpt lat="48.49665" lon="-2.84289">
        <ele>129</ele>
        <time>2026-01-25T11:32:22Z</time>
      </trkpt>
      <trkpt lat="48.49662" lon="-2.84289">
        <ele>130.2</ele>
        <time>2026-01-25T11:32:23Z</time>
      </trkpt>
      <trkpt lat="48.49659" lon="-2.84289">
        <ele>130.2</ele>
        <time>2026-01-25T11:32:24Z</time>
      </trkpt>
      <trkpt lat="48.49656" lon="-2.84288">
        <ele>130.2</ele>
        <time>2026-01-25T11:32:25Z</time>
      </trkpt>
      <trkpt lat="48.49653" lon="-2.84288">
        <ele>130.2</ele>
        <time>2026-01-25T11:32:26Z</time>
      </trkpt>
      <trkpt lat="48.49649" lon="-2.84288">
        <ele>130.2</ele>
        <time>2026-01-25T11:32:27Z</time>
      </trkpt>
      <trkpt lat="48.49646" lon="-2.84288">
        <ele>130.2</ele>
        <time>2026-01-25T11:32:28Z</time>
      </trkpt>
      <trkpt lat="48.49643" lon="-2.84288">
        <ele>130.2</ele>
        <time>2026-01-25T11:32:29Z</time>
      </trkpt>
      <trkpt lat="48.49639" lon="-2.84288">
        <ele>130.8</ele>
        <time>2026-01-25T11:32:30Z</time>
      </trkpt>
      <trkpt lat="48.49636" lon="-2.84288">
        <ele>130.2</ele>
        <time>2026-01-25T11:32:31Z</time>
      </trkpt>
      <trkpt lat="48.49633" lon="-2.84288">
        <ele>130.2</ele>
        <time>2026-01-25T11:32:32Z</time>
      </trkpt>
      <trkpt lat="48.4963" lon="-2.84289">
        <ele>130.2</ele>
        <time>2026-01-25T11:32:33Z</time>
      </trkpt>
      <trkpt lat="48.49626" lon="-2.8429">
        <ele>130.2</ele>
        <time>2026-01-25T11:32:34Z</time>
      </trkpt>
      <trkpt lat="48.49623" lon="-2.84291">
        <ele>131.2</ele>
        <time>2026-01-25T11:32:35Z</time>
      </trkpt>
      <trkpt lat="48.4962" lon="-2.84292">
        <ele>131.2</ele>
        <time>2026-01-25T11:32:36Z</time>
      </trkpt>
      <trkpt lat="48.49616" lon="-2.84294">
        <ele>131.2</ele>
        <time>2026-01-25T11:32:37Z</time>
      </trkpt>
      <trkpt lat="48.49613" lon="-2.84296">
        <ele>132</ele>
        <time>2026-01-25T11:32:38Z</time>
      </trkpt>
      <trkpt lat="48.4961" lon="-2.84299">
        <ele>131.8</ele>
        <time>2026-01-25T11:32:39Z</time>
      </trkpt>
      <trkpt lat="48.49607" lon="-2.84301">
        <ele>131.8</ele>
        <time>2026-01-25T11:32:40Z</time>
      </trkpt>
      <trkpt lat="48.49604" lon="-2.84304">
        <ele>131.8</ele>
        <time>2026-01-25T11:32:41Z</time>
      </trkpt>
      <trkpt lat="48.49601" lon="-2.84306">
        <ele>131.8</ele>
        <time>2026-01-25T11:32:42Z</time>
      </trkpt>
      <trkpt lat="48.49598" lon="-2.84308">
        <ele>132.4</ele>
        <time>2026-01-25T11:32:43Z</time>
      </trkpt>
      <trkpt lat="48.49596" lon="-2.84311">
        <ele>132.4</ele>
        <time>2026-01-25T11:32:44Z</time>
      </trkpt>
      <trkpt lat="48.49593" lon="-2.84314">
        <ele>132.4</ele>
        <time>2026-01-25T11:32:45Z</time>
      </trkpt>
      <trkpt lat="48.4959" lon="-2.84317">
        <ele>132.4</ele>
        <time>2026-01-25T11:32:46Z</time>
      </trkpt>
      <trkpt lat="48.49587" lon="-2.8432">
        <ele>133.4</ele>
        <time>2026-01-25T11:32:47Z</time>
      </trkpt>
      <trkpt lat="48.49584" lon="-2.84323">
        <ele>133.4</ele>
        <time>2026-01-25T11:32:48Z</time>
      </trkpt>
      <trkpt lat="48.49581" lon="-2.84325">
        <ele>133.4</ele>
        <time>2026-01-25T11:32:49Z</time>
      </trkpt>
      <trkpt lat="48.49578" lon="-2.84327">
        <ele>133.4</ele>
        <time>2026-01-25T11:32:50Z</time>
      </trkpt>
      <trkpt lat="48.49575" lon="-2.8433">
        <ele>133</ele>
        <time>2026-01-25T11:32:51Z</time>
      </trkpt>
      <trkpt lat="48.49571" lon="-2.84332">
        <ele>133</ele>
        <time>2026-01-25T11:32:52Z</time>
      </trkpt>
      <trkpt lat="48.49568" lon="-2.84334">
        <ele>133</ele>
        <time>2026-01-25T11:32:53Z</time>
      </trkpt>
      <trkpt lat="48.49564" lon="-2.84335">
        <ele>133.6</ele>
        <time>2026-01-25T11:32:54Z</time>
      </trkpt>
      <trkpt lat="48.4956" lon="-2.84337">
        <ele>133.4</ele>
        <time>2026-01-25T11:32:55Z</time>
      </trkpt>
      <trkpt lat="48.49556" lon="-2.84338">
        <ele>133.4</ele>
        <time>2026-01-25T11:32:56Z</time>
      </trkpt>
      <trkpt lat="48.49552" lon="-2.84339">
        <ele>133.4</ele>
        <time>2026-01-25T11:32:57Z</time>
      </trkpt>
      <trkpt lat="48.49547" lon="-2.84341">
        <ele>133.4</ele>
        <time>2026-01-25T11:32:58Z</time>
      </trkpt>
      <trkpt lat="48.49543" lon="-2.84343">
        <ele>131.6</ele>
        <time>2026-01-25T11:32:59Z</time>
      </trkpt>
      <trkpt lat="48.49538" lon="-2.84344">
        <ele>131.6</ele>
        <time>2026-01-25T11:33:00Z</time>
      </trkpt>
      <trkpt lat="48.49533" lon="-2.84346">
        <ele>131.6</ele>
        <time>2026-01-25T11:33:01Z</time>
      </trkpt>
      <trkpt lat="48.49528" lon="-2.84348">
        <ele>131.6</ele>
        <time>2026-01-25T11:33:02Z</time>
      </trkpt>
      <trkpt lat="48.49523" lon="-2.84349">
        <ele>130.6</ele>
        <time>2026-01-25T11:33:03Z</time>
      </trkpt>
      <trkpt lat="48.49518" lon="-2.84351">
        <ele>130.6</ele>
        <time>2026-01-25T11:33:04Z</time>
      </trkpt>
      <trkpt lat="48.49512" lon="-2.84353">
        <ele>130.6</ele>
        <time>2026-01-25T11:33:05Z</time>
      </trkpt>
      <trkpt lat="48.49506" lon="-2.84355">
        <ele>130</ele>
        <time>2026-01-25T11:33:06Z</time>
      </trkpt>
      <trkpt lat="48.495" lon="-2.84357">
        <ele>129.4</ele>
        <time>2026-01-25T11:33:07Z</time>
      </trkpt>
      <trkpt lat="48.49494" lon="-2.84358">
        <ele>129.4</ele>
        <time>2026-01-25T11:33:08Z</time>
      </trkpt>
      <trkpt lat="48.49488" lon="-2.84358">
        <ele>129.4</ele>
        <time>2026-01-25T11:33:09Z</time>
      </trkpt>
      <trkpt lat="48.49482" lon="-2.84358">
        <ele>129.4</ele>
        <time>2026-01-25T11:33:10Z</time>
      </trkpt>
      <trkpt lat="48.49475" lon="-2.84356">
        <ele>129.2</ele>
        <time>2026-01-25T11:33:11Z</time>
      </trkpt>
      <trkpt lat="48.49469" lon="-2.84353">
        <ele>129.2</ele>
        <time>2026-01-25T11:33:12Z</time>
      </trkpt>
      <trkpt lat="48.49464" lon="-2.84349">
        <ele>129.2</ele>
        <time>2026-01-25T11:33:13Z</time>
      </trkpt>
      <trkpt lat="48.49458" lon="-2.84345">
        <ele>128.2</ele>
        <time>2026-01-25T11:33:14Z</time>
      </trkpt>
      <trkpt lat="48.49452" lon="-2.8434">
        <ele>127</ele>
        <time>2026-01-25T11:33:15Z</time>
      </trkpt>
      <trkpt lat="48.49447" lon="-2.84335">
        <ele>127</ele>
        <time>2026-01-25T11:33:16Z</time>
      </trkpt>
      <trkpt lat="48.4944" lon="-2.84328">
        <ele>127</ele>
        <time>2026-01-25T11:33:17Z</time>
      </trkpt>
      <trkpt lat="48.49434" lon="-2.84322">
        <ele>126</ele>
        <time>2026-01-25T11:33:18Z</time>
      </trkpt>
      <trkpt lat="48.49428" lon="-2.84316">
        <ele>123.6</ele>
        <time>2026-01-25T11:33:19Z</time>
      </trkpt>
      <trkpt lat="48.49421" lon="-2.84309">
        <ele>123.6</ele>
        <time>2026-01-25T11:33:20Z</time>
      </trkpt>
      <trkpt lat="48.49415" lon="-2.84302">
        <ele>123.6</ele>
        <time>2026-01-25T11:33:21Z</time>
      </trkpt>
      <trkpt lat="48.49407" lon="-2.84296">
        <ele>122.6</ele>
        <time>2026-01-25T11:33:22Z</time>
      </trkpt>
      <trkpt lat="48.494" lon="-2.84288">
        <ele>118.6</ele>
        <time>2026-01-25T11:33:23Z</time>
      </trkpt>
      <trkpt lat="48.49392" lon="-2.8428">
        <ele>118.6</ele>
        <time>2026-01-25T11:33:24Z</time>
      </trkpt>
      <trkpt lat="48.49385" lon="-2.84273">
        <ele>118.6</ele>
        <time>2026-01-25T11:33:25Z</time>
      </trkpt>
      <trkpt lat="48.49378" lon="-2.84266">
        <ele>117.6</ele>
        <time>2026-01-25T11:33:26Z</time>
      </trkpt>
      <trkpt lat="48.49371" lon="-2.84258">
        <ele>114.6</ele>
        <time>2026-01-25T11:33:27Z</time>
      </trkpt>
      <trkpt lat="48.49363" lon="-2.84249">
        <ele>114.6</ele>
        <time>2026-01-25T11:33:28Z</time>
      </trkpt>
      <trkpt lat="48.49355" lon="-2.8424">
        <ele>114.6</ele>
        <time>2026-01-25T11:33:29Z</time>
      </trkpt>
      <trkpt lat="48.49346" lon="-2.8423">
        <ele>113.6</ele>
        <time>2026-01-25T11:33:30Z</time>
      </trkpt>
      <trkpt lat="48.49337" lon="-2.84221">
        <ele>104.6</ele>
        <time>2026-01-25T11:33:31Z</time>
      </trkpt>
      <trkpt lat="48.49326" lon="-2.84212">
        <ele>104.6</ele>
        <time>2026-01-25T11:33:32Z</time>
      </trkpt>
      <trkpt lat="48.49315" lon="-2.84203">
        <ele>104.6</ele>
        <time>2026-01-25T11:33:33Z</time>
      </trkpt>
      <trkpt lat="48.49303" lon="-2.84195">
        <ele>103.6</ele>
        <time>2026-01-25T11:33:34Z</time>
      </trkpt>
      <trkpt lat="48.49291" lon="-2.84187">
        <ele>98.2</ele>
        <time>2026-01-25T11:33:35Z</time>
      </trkpt>
      <trkpt lat="48.49279" lon="-2.84181">
        <ele>98.2</ele>
        <time>2026-01-25T11:33:36Z</time>
      </trkpt>
      <trkpt lat="48.49269" lon="-2.84175">
        <ele>98.2</ele>
        <time>2026-01-25T11:33:37Z</time>
      </trkpt>
      <trkpt lat="48.49261" lon="-2.8417">
        <ele>99.2</ele>
        <time>2026-01-25T11:33:38Z</time>
      </trkpt>
      <trkpt lat="48.49254" lon="-2.84167">
        <ele>101.4</ele>
        <time>2026-01-25T11:33:39Z</time>
      </trkpt>
      <trkpt lat="48.49248" lon="-2.84165">
        <ele>101.4</ele>
        <time>2026-01-25T11:33:40Z</time>
      </trkpt>
      <trkpt lat="48.49242" lon="-2.84165">
        <ele>101.4</ele>
        <time>2026-01-25T11:33:41Z</time>
      </trkpt>
      <trkpt lat="48.49237" lon="-2.84166">
        <ele>102.2</ele>
        <time>2026-01-25T11:33:42Z</time>
      </trkpt>
      <trkpt lat="48.49231" lon="-2.84167">
        <ele>100.2</ele>
        <time>2026-01-25T11:33:43Z</time>
      </trkpt>
      <trkpt lat="48.49224" lon="-2.84169">
        <ele>100.2</ele>
        <time>2026-01-25T11:33:44Z</time>
      </trkpt>
      <trkpt lat="48.49217" lon="-2.8417">
        <ele>100.2</ele>
        <time>2026-01-25T11:33:45Z</time>
      </trkpt>
      <trkpt lat="48.49209" lon="-2.84172">
        <ele>99.2</ele>
        <time>2026-01-25T11:33:46Z</time>
      </trkpt>
      <trkpt lat="48.49201" lon="-2.84175">
        <ele>94.2</ele>
        <time>2026-01-25T11:33:47Z</time>
      </trkpt>
      <trkpt lat="48.49193" lon="-2.84178">
        <ele>94.2</ele>
        <time>2026-01-25T11:33:48Z</time>
      </trkpt>
      <trkpt lat="48.49185" lon="-2.84182">
        <ele>94.2</ele>
        <time>2026-01-25T11:33:49Z</time>
      </trkpt>
      <trkpt lat="48.49177" lon="-2.84188">
        <ele>94.2</ele>
        <time>2026-01-25T11:33:50Z</time>
      </trkpt>
      <trkpt lat="48.4917" lon="-2.84196">
        <ele>90.8</ele>
        <time>2026-01-25T11:33:51Z</time>
      </trkpt>
      <trkpt lat="48.49163" lon="-2.84206">
        <ele>90.8</ele>
        <time>2026-01-25T11:33:52Z</time>
      </trkpt>
      <trkpt lat="48.49157" lon="-2.84216">
        <ele>90.8</ele>
        <time>2026-01-25T11:33:53Z</time>
      </trkpt>
      <trkpt lat="48.49151" lon="-2.84227">
        <ele>90.2</ele>
        <time>2026-01-25T11:33:54Z</time>
      </trkpt>
      <trkpt lat="48.49146" lon="-2.84238">
        <ele>89</ele>
        <time>2026-01-25T11:33:55Z</time>
      </trkpt>
      <trkpt lat="48.49142" lon="-2.84249">
        <ele>89</ele>
        <time>2026-01-25T11:33:56Z</time>
      </trkpt>
      <trkpt lat="48.49139" lon="-2.84258">
        <ele>89</ele>
        <time>2026-01-25T11:33:57Z</time>
      </trkpt>
      <trkpt lat="48.49137" lon="-2.84269">
        <ele>90</ele>
        <time>2026-01-25T11:33:58Z</time>
      </trkpt>
      <trkpt lat="48.49137" lon="-2.84279">
        <ele>91.4</ele>
        <time>2026-01-25T11:33:59Z</time>
      </trkpt>
      <trkpt lat="48.49138" lon="-2.84289">
        <ele>91.4</ele>
        <time>2026-01-25T11:34:00Z</time>
      </trkpt>
      <trkpt lat="48.49139" lon="-2.84299">
        <ele>91.4</ele>
        <time>2026-01-25T11:34:01Z</time>
      </trkpt>
      <trkpt lat="48.49139" lon="-2.84309">
        <ele>91.4</ele>
        <time>2026-01-25T11:34:02Z</time>
      </trkpt>
      <trkpt lat="48.49139" lon="-2.84319">
        <ele>91.2</ele>
        <time>2026-01-25T11:34:03Z</time>
      </trkpt>
      <trkpt lat="48.49139" lon="-2.84331">
        <ele>91.2</ele>
        <time>2026-01-25T11:34:04Z</time>
      </trkpt>
      <trkpt lat="48.49139" lon="-2.84343">
        <ele>91.2</ele>
        <time>2026-01-25T11:34:05Z</time>
      </trkpt>
      <trkpt lat="48.49138" lon="-2.84355">
        <ele>90.2</ele>
        <time>2026-01-25T11:34:06Z</time>
      </trkpt>
      <trkpt lat="48.49138" lon="-2.84367">
        <ele>88.6</ele>
        <time>2026-01-25T11:34:07Z</time>
      </trkpt>
      <trkpt lat="48.49136" lon="-2.8438">
        <ele>88.6</ele>
        <time>2026-01-25T11:34:08Z</time>
      </trkpt>
      <trkpt lat="48.49135" lon="-2.84393">
        <ele>88.6</ele>
        <time>2026-01-25T11:34:09Z</time>
      </trkpt>
      <trkpt lat="48.49133" lon="-2.84406">
        <ele>87.6</ele>
        <time>2026-01-25T11:34:10Z</time>
      </trkpt>
      <trkpt lat="48.49131" lon="-2.84419">
        <ele>85</ele>
        <time>2026-01-25T11:34:11Z</time>
      </trkpt>
      <trkpt lat="48.49129" lon="-2.84432">
        <ele>85</ele>
        <time>2026-01-25T11:34:12Z</time>
      </trkpt>
      <trkpt lat="48.49127" lon="-2.84444">
        <ele>85</ele>
        <time>2026-01-25T11:34:13Z</time>
      </trkpt>
      <trkpt lat="48.49126" lon="-2.84454">
        <ele>86</ele>
        <time>2026-01-25T11:34:14Z</time>
      </trkpt>
      <trkpt lat="48.49124" lon="-2.84463">
        <ele>90.4</ele>
        <time>2026-01-25T11:34:15Z</time>
      </trkpt>
      <trkpt lat="48.49122" lon="-2.84471">
        <ele>90.4</ele>
        <time>2026-01-25T11:34:16Z</time>
      </trkpt>
      <trkpt lat="48.49121" lon="-2.84479">
        <ele>90.4</ele>
        <time>2026-01-25T11:34:17Z</time>
      </trkpt>
      <trkpt lat="48.49119" lon="-2.84486">
        <ele>91.4</ele>
        <time>2026-01-25T11:34:18Z</time>
      </trkpt>
      <trkpt lat="48.49117" lon="-2.84493">
        <ele>93.6</ele>
        <time>2026-01-25T11:34:19Z</time>
      </trkpt>
      <trkpt lat="48.49115" lon="-2.84499">
        <ele>93.6</ele>
        <time>2026-01-25T11:34:20Z</time>
      </trkpt>
      <trkpt lat="48.49113" lon="-2.84505">
        <ele>93.6</ele>
        <time>2026-01-25T11:34:21Z</time>
      </trkpt>
      <trkpt lat="48.49112" lon="-2.84511">
        <ele>94</ele>
        <time>2026-01-25T11:34:22Z</time>
      </trkpt>
      <trkpt lat="48.49111" lon="-2.84516">
        <ele>94.4</ele>
        <time>2026-01-25T11:34:23Z</time>
      </trkpt>
      <trkpt lat="48.4911" lon="-2.84519">
        <ele>94.4</ele>
        <time>2026-01-25T11:34:24Z</time>
      </trkpt>
      <trkpt lat="48.4911" lon="-2.8452">
        <ele>94.4</ele>
        <time>2026-01-25T11:34:25Z</time>
      </trkpt>
      <trkpt lat="48.4911" lon="-2.8452">
        <ele>95.4</ele>
        <time>2026-01-25T11:34:26Z</time>
      </trkpt>
      <trkpt lat="48.49103" lon="-2.84532">
        <ele>95.8</ele>
        <time>2026-01-25T11:35:09Z</time>
      </trkpt>
      <trkpt lat="48.49103" lon="-2.84535">
        <ele>95.8</ele>
        <time>2026-01-25T11:35:10Z</time>
      </trkpt>
      <trkpt lat="48.49102" lon="-2.84538">
        <ele>95.4</ele>
        <time>2026-01-25T11:35:11Z</time>
      </trkpt>
      <trkpt lat="48.49102" lon="-2.84542">
        <ele>95.4</ele>
        <time>2026-01-25T11:35:12Z</time>
      </trkpt>
      <trkpt lat="48.49101" lon="-2.84546">
        <ele>95.4</ele>
        <time>2026-01-25T11:35:13Z</time>
      </trkpt>
      <trkpt lat="48.491" lon="-2.8455">
        <ele>95.4</ele>
        <time>2026-01-25T11:35:14Z</time>
      </trkpt>
      <trkpt lat="48.49099" lon="-2.84555">
        <ele>95.4</ele>
        <time>2026-01-25T11:35:15Z</time>
      </trkpt>
      <trkpt lat="48.49098" lon="-2.8456">
        <ele>95.4</ele>
        <time>2026-01-25T11:35:16Z</time>
      </trkpt>
      <trkpt lat="48.49098" lon="-2.84566">
        <ele>95.4</ele>
        <time>2026-01-25T11:35:17Z</time>
      </trkpt>
      <trkpt lat="48.49098" lon="-2.84571">
        <ele>94.6</ele>
        <time>2026-01-25T11:35:18Z</time>
      </trkpt>
      <trkpt lat="48.49097" lon="-2.84577">
        <ele>94.2</ele>
        <time>2026-01-25T11:35:19Z</time>
      </trkpt>
      <trkpt lat="48.49095" lon="-2.84583">
        <ele>94.2</ele>
        <time>2026-01-25T11:35:20Z</time>
      </trkpt>
      <trkpt lat="48.49094" lon="-2.84589">
        <ele>94.2</ele>
        <time>2026-01-25T11:35:21Z</time>
      </trkpt>
      <trkpt lat="48.49093" lon="-2.84596">
        <ele>94.2</ele>
        <time>2026-01-25T11:35:22Z</time>
      </trkpt>
      <trkpt lat="48.49092" lon="-2.84603">
        <ele>92.4</ele>
        <time>2026-01-25T11:35:23Z</time>
      </trkpt>
      <trkpt lat="48.49091" lon="-2.8461">
        <ele>92.4</ele>
        <time>2026-01-25T11:35:24Z</time>
      </trkpt>
      <trkpt lat="48.49089" lon="-2.84618">
        <ele>92.4</ele>
        <time>2026-01-25T11:35:25Z</time>
      </trkpt>
      <trkpt lat="48.49087" lon="-2.84627">
        <ele>91.8</ele>
        <time>2026-01-25T11:35:26Z</time>
      </trkpt>
      <trkpt lat="48.49084" lon="-2.84635">
        <ele>92</ele>
        <time>2026-01-25T11:35:27Z</time>
      </trkpt>
      <trkpt lat="48.49081" lon="-2.84642">
        <ele>92</ele>
        <time>2026-01-25T11:35:28Z</time>
      </trkpt>
      <trkpt lat="48.49078" lon="-2.84648">
        <ele>92</ele>
        <time>2026-01-25T11:35:29Z</time>
      </trkpt>
      <trkpt lat="48.49075" lon="-2.84651">
        <ele>93</ele>
        <time>2026-01-25T11:35:30Z</time>
      </trkpt>
      <trkpt lat="48.49072" lon="-2.84653">
        <ele>93.4</ele>
        <time>2026-01-25T11:35:31Z</time>
      </trkpt>
      <trkpt lat="48.49068" lon="-2.84655">
        <ele>93.4</ele>
        <time>2026-01-25T11:35:32Z</time>
      </trkpt>
      <trkpt lat="48.49066" lon="-2.84656">
        <ele>93.4</ele>
        <time>2026-01-25T11:35:33Z</time>
      </trkpt>
      <trkpt lat="48.49063" lon="-2.84656">
        <ele>94.4</ele>
        <time>2026-01-25T11:35:34Z</time>
      </trkpt>
      <trkpt lat="48.49061" lon="-2.84657">
        <ele>94.6</ele>
        <time>2026-01-25T11:35:35Z</time>
      </trkpt>
      <trkpt lat="48.49059" lon="-2.84657">
        <ele>94.6</ele>
        <time>2026-01-25T11:35:36Z</time>
      </trkpt>
      <trkpt lat="48.49057" lon="-2.84658">
        <ele>94.8</ele>
        <time>2026-01-25T11:35:46Z</time>
      </trkpt>
      <trkpt lat="48.49055" lon="-2.84658">
        <ele>94.2</ele>
        <time>2026-01-25T11:35:47Z</time>
      </trkpt>
      <trkpt lat="48.49052" lon="-2.84654">
        <ele>94.2</ele>
        <time>2026-01-25T11:35:48Z</time>
      </trkpt>
      <trkpt lat="48.49048" lon="-2.84648">
        <ele>94.2</ele>
        <time>2026-01-25T11:35:49Z</time>
      </trkpt>
      <trkpt lat="48.49044" lon="-2.84642">
        <ele>93.2</ele>
        <time>2026-01-25T11:35:50Z</time>
      </trkpt>
      <trkpt lat="48.4904" lon="-2.84635">
        <ele>91</ele>
        <time>2026-01-25T11:35:51Z</time>
      </trkpt>
      <trkpt lat="48.49036" lon="-2.84627">
        <ele>91</ele>
        <time>2026-01-25T11:35:52Z</time>
      </trkpt>
      <trkpt lat="48.49032" lon="-2.84619">
        <ele>91</ele>
        <time>2026-01-25T11:35:53Z</time>
      </trkpt>
      <trkpt lat="48.49027" lon="-2.8461">
        <ele>90</ele>
        <time>2026-01-25T11:35:54Z</time>
      </trkpt>
      <trkpt lat="48.49023" lon="-2.84601">
        <ele>89.2</ele>
        <time>2026-01-25T11:35:55Z</time>
      </trkpt>
      <trkpt lat="48.49019" lon="-2.84592">
        <ele>89.2</ele>
        <time>2026-01-25T11:35:56Z</time>
      </trkpt>
      <trkpt lat="48.49016" lon="-2.84581">
        <ele>89.2</ele>
        <time>2026-01-25T11:35:57Z</time>
      </trkpt>
      <trkpt lat="48.49012" lon="-2.84571">
        <ele>88.2</ele>
        <time>2026-01-25T11:35:58Z</time>
      </trkpt>
      <trkpt lat="48.49009" lon="-2.84561">
        <ele>87.6</ele>
        <time>2026-01-25T11:35:59Z</time>
      </trkpt>
      <trkpt lat="48.49006" lon="-2.8455">
        <ele>87.6</ele>
        <time>2026-01-25T11:36:00Z</time>
      </trkpt>
      <trkpt lat="48.49003" lon="-2.84539">
        <ele>87.6</ele>
        <time>2026-01-25T11:36:01Z</time>
      </trkpt>
      <trkpt lat="48.49" lon="-2.84528">
        <ele>86.6</ele>
        <time>2026-01-25T11:36:02Z</time>
      </trkpt>
      <trkpt lat="48.48998" lon="-2.84517">
        <ele>86.4</ele>
        <time>2026-01-25T11:36:03Z</time>
      </trkpt>
      <trkpt lat="48.48996" lon="-2.84506">
        <ele>86.4</ele>
        <time>2026-01-25T11:36:04Z</time>
      </trkpt>
      <trkpt lat="48.48994" lon="-2.84495">
        <ele>86.4</ele>
        <time>2026-01-25T11:36:05Z</time>
      </trkpt>
      <trkpt lat="48.48993" lon="-2.84483">
        <ele>86.4</ele>
        <time>2026-01-25T11:36:06Z</time>
      </trkpt>
      <trkpt lat="48.48991" lon="-2.84471">
        <ele>86.8</ele>
        <time>2026-01-25T11:36:07Z</time>
      </trkpt>
      <trkpt lat="48.4899" lon="-2.84459">
        <ele>86.8</ele>
        <time>2026-01-25T11:36:08Z</time>
      </trkpt>
      <trkpt lat="48.48989" lon="-2.84448">
        <ele>86.8</ele>
        <time>2026-01-25T11:36:09Z</time>
      </trkpt>
      <trkpt lat="48.48988" lon="-2.84436">
        <ele>86.6</ele>
        <time>2026-01-25T11:36:10Z</time>
      </trkpt>
      <trkpt lat="48.48987" lon="-2.84424">
        <ele>86.4</ele>
        <time>2026-01-25T11:36:11Z</time>
      </trkpt>
      <trkpt lat="48.48987" lon="-2.84412">
        <ele>86.4</ele>
        <time>2026-01-25T11:36:12Z</time>
      </trkpt>
      <trkpt lat="48.48986" lon="-2.84401">
        <ele>86.4</ele>
        <time>2026-01-25T11:36:13Z</time>
      </trkpt>
      <trkpt lat="48.48985" lon="-2.84389">
        <ele>85.8</ele>
        <time>2026-01-25T11:36:14Z</time>
      </trkpt>
      <trkpt lat="48.48985" lon="-2.84377">
        <ele>86.4</ele>
        <time>2026-01-25T11:36:15Z</time>
      </trkpt>
      <trkpt lat="48.48984" lon="-2.84366">
        <ele>86.4</ele>
        <time>2026-01-25T11:36:16Z</time>
      </trkpt>
      <trkpt lat="48.48983" lon="-2.84354">
        <ele>86.4</ele>
        <time>2026-01-25T11:36:17Z</time>
      </trkpt>
      <trkpt lat="48.48982" lon="-2.84343">
        <ele>85.8</ele>
        <time>2026-01-25T11:36:18Z</time>
      </trkpt>
      <trkpt lat="48.48982" lon="-2.84331">
        <ele>85.8</ele>
        <time>2026-01-25T11:36:19Z</time>
      </trkpt>
      <trkpt lat="48.48981" lon="-2.8432">
        <ele>85.8</ele>
        <time>2026-01-25T11:36:20Z</time>
      </trkpt>
      <trkpt lat="48.48981" lon="-2.84308">
        <ele>85.8</ele>
        <time>2026-01-25T11:36:21Z</time>
      </trkpt>
      <trkpt lat="48.4898" lon="-2.84296">
        <ele>85.8</ele>
        <time>2026-01-25T11:36:22Z</time>
      </trkpt>
      <trkpt lat="48.48979" lon="-2.84285">
        <ele>85.8</ele>
        <time>2026-01-25T11:36:23Z</time>
      </trkpt>
      <trkpt lat="48.48979" lon="-2.84273">
        <ele>85.8</ele>
        <time>2026-01-25T11:36:24Z</time>
      </trkpt>
      <trkpt lat="48.48978" lon="-2.84262">
        <ele>85.8</ele>
        <time>2026-01-25T11:36:25Z</time>
      </trkpt>
      <trkpt lat="48.48977" lon="-2.8425">
        <ele>85.8</ele>
        <time>2026-01-25T11:36:26Z</time>
      </trkpt>
      <trkpt lat="48.48977" lon="-2.84239">
        <ele>85</ele>
        <time>2026-01-25T11:36:27Z</time>
      </trkpt>
      <trkpt lat="48.48976" lon="-2.84228">
        <ele>85</ele>
        <time>2026-01-25T11:36:28Z</time>
      </trkpt>
      <trkpt lat="48.48975" lon="-2.84216">
        <ele>85</ele>
        <time>2026-01-25T11:36:29Z</time>
      </trkpt>
      <trkpt lat="48.48975" lon="-2.84205">
        <ele>85</ele>
        <time>2026-01-25T11:36:30Z</time>
      </trkpt>
      <trkpt lat="48.48974" lon="-2.84193">
        <ele>85</ele>
        <time>2026-01-25T11:36:31Z</time>
      </trkpt>
      <trkpt lat="48.48974" lon="-2.84182">
        <ele>85</ele>
        <time>2026-01-25T11:36:32Z</time>
      </trkpt>
      <trkpt lat="48.48973" lon="-2.84171">
        <ele>85</ele>
        <time>2026-01-25T11:36:33Z</time>
      </trkpt>
      <trkpt lat="48.48973" lon="-2.8416">
        <ele>85</ele>
        <time>2026-01-25T11:36:34Z</time>
      </trkpt>
      <trkpt lat="48.48972" lon="-2.84149">
        <ele>86.2</ele>
        <time>2026-01-25T11:36:35Z</time>
      </trkpt>
      <trkpt lat="48.48971" lon="-2.84139">
        <ele>86.2</ele>
        <time>2026-01-25T11:36:36Z</time>
      </trkpt>
      <trkpt lat="48.48971" lon="-2.84129">
        <ele>86.2</ele>
        <time>2026-01-25T11:36:37Z</time>
      </trkpt>
      <trkpt lat="48.4897" lon="-2.84119">
        <ele>86.2</ele>
        <time>2026-01-25T11:36:38Z</time>
      </trkpt>
      <trkpt lat="48.4897" lon="-2.84109">
        <ele>86.4</ele>
        <time>2026-01-25T11:36:39Z</time>
      </trkpt>
      <trkpt lat="48.48969" lon="-2.841">
        <ele>86.4</ele>
        <time>2026-01-25T11:36:40Z</time>
      </trkpt>
      <trkpt lat="48.48969" lon="-2.8409">
        <ele>86.4</ele>
        <time>2026-01-25T11:36:41Z</time>
      </trkpt>
      <trkpt lat="48.48968" lon="-2.84081">
        <ele>87</ele>
        <time>2026-01-25T11:36:42Z</time>
      </trkpt>
      <trkpt lat="48.48967" lon="-2.84072">
        <ele>87.2</ele>
        <time>2026-01-25T11:36:43Z</time>
      </trkpt>
      <trkpt lat="48.48967" lon="-2.84064">
        <ele>87.2</ele>
        <time>2026-01-25T11:36:44Z</time>
      </trkpt>
      <trkpt lat="48.48967" lon="-2.84055">
        <ele>87.2</ele>
        <time>2026-01-25T11:36:45Z</time>
      </trkpt>
      <trkpt lat="48.48966" lon="-2.84047">
        <ele>87.6</ele>
        <time>2026-01-25T11:36:46Z</time>
      </trkpt>
      <trkpt lat="48.48966" lon="-2.84039">
        <ele>88</ele>
        <time>2026-01-25T11:36:47Z</time>
      </trkpt>
      <trkpt lat="48.48965" lon="-2.84032">
        <ele>88</ele>
        <time>2026-01-25T11:36:48Z</time>
      </trkpt>
      <trkpt lat="48.48965" lon="-2.84024">
        <ele>88</ele>
        <time>2026-01-25T11:36:49Z</time>
      </trkpt>
      <trkpt lat="48.48965" lon="-2.84017">
        <ele>89</ele>
        <time>2026-01-25T11:36:50Z</time>
      </trkpt>
      <trkpt lat="48.48964" lon="-2.84011">
        <ele>89.6</ele>
        <time>2026-01-25T11:36:51Z</time>
      </trkpt>
      <trkpt lat="48.48964" lon="-2.84004">
        <ele>89.6</ele>
        <time>2026-01-25T11:36:52Z</time>
      </trkpt>
      <trkpt lat="48.48964" lon="-2.83998">
        <ele>89.6</ele>
        <time>2026-01-25T11:36:53Z</time>
      </trkpt>
      <trkpt lat="48.48963" lon="-2.83992">
        <ele>89.8</ele>
        <time>2026-01-25T11:36:54Z</time>
      </trkpt>
      <trkpt lat="48.48963" lon="-2.83986">
        <ele>90.2</ele>
        <time>2026-01-25T11:36:55Z</time>
      </trkpt>
      <trkpt lat="48.48962" lon="-2.8398">
        <ele>90.2</ele>
        <time>2026-01-25T11:36:56Z</time>
      </trkpt>
      <trkpt lat="48.48962" lon="-2.83975">
        <ele>90.2</ele>
        <time>2026-01-25T11:36:57Z</time>
      </trkpt>
      <trkpt lat="48.48962" lon="-2.8397">
        <ele>91.2</ele>
        <time>2026-01-25T11:36:58Z</time>
      </trkpt>
      <trkpt lat="48.48962" lon="-2.83965">
        <ele>91.6</ele>
        <time>2026-01-25T11:36:59Z</time>
      </trkpt>
      <trkpt lat="48.48961" lon="-2.8396">
        <ele>91.6</ele>
        <time>2026-01-25T11:37:00Z</time>
      </trkpt>
      <trkpt lat="48.48961" lon="-2.83956">
        <ele>91.6</ele>
        <time>2026-01-25T11:37:01Z</time>
      </trkpt>
      <trkpt lat="48.48961" lon="-2.83952">
        <ele>92.4</ele>
        <time>2026-01-25T11:37:02Z</time>
      </trkpt>
      <trkpt lat="48.48961" lon="-2.83947">
        <ele>92.8</ele>
        <time>2026-01-25T11:37:03Z</time>
      </trkpt>
      <trkpt lat="48.48961" lon="-2.83943">
        <ele>92.8</ele>
        <time>2026-01-25T11:37:04Z</time>
      </trkpt>
      <trkpt lat="48.4896" lon="-2.83939">
        <ele>92.8</ele>
        <time>2026-01-25T11:37:05Z</time>
      </trkpt>
      <trkpt lat="48.4896" lon="-2.83934">
        <ele>93</ele>
        <time>2026-01-25T11:37:06Z</time>
      </trkpt>
      <trkpt lat="48.4896" lon="-2.8393">
        <ele>93.4</ele>
        <time>2026-01-25T11:37:07Z</time>
      </trkpt>
      <trkpt lat="48.4896" lon="-2.83926">
        <ele>93.4</ele>
        <time>2026-01-25T11:37:08Z</time>
      </trkpt>
      <trkpt lat="48.48959" lon="-2.83922">
        <ele>93.4</ele>
        <time>2026-01-25T11:37:09Z</time>
      </trkpt>
      <trkpt lat="48.48959" lon="-2.83918">
        <ele>94</ele>
        <time>2026-01-25T11:37:10Z</time>
      </trkpt>
      <trkpt lat="48.48959" lon="-2.83914">
        <ele>94</ele>
        <time>2026-01-25T11:37:11Z</time>
      </trkpt>
      <trkpt lat="48.48959" lon="-2.83909">
        <ele>94</ele>
        <time>2026-01-25T11:37:12Z</time>
      </trkpt>
      <trkpt lat="48.48958" lon="-2.83905">
        <ele>94</ele>
        <time>2026-01-25T11:37:13Z</time>
      </trkpt>
      <trkpt lat="48.48957" lon="-2.83901">
        <ele>95</ele>
        <time>2026-01-25T11:37:14Z</time>
      </trkpt>
      <trkpt lat="48.48957" lon="-2.83897">
        <ele>95.4</ele>
        <time>2026-01-25T11:37:15Z</time>
      </trkpt>
      <trkpt lat="48.48956" lon="-2.83893">
        <ele>95.4</ele>
        <time>2026-01-25T11:37:16Z</time>
      </trkpt>
      <trkpt lat="48.48956" lon="-2.83889">
        <ele>95.4</ele>
        <time>2026-01-25T11:37:17Z</time>
      </trkpt>
      <trkpt lat="48.48956" lon="-2.83885">
        <ele>95.4</ele>
        <time>2026-01-25T11:37:18Z</time>
      </trkpt>
      <trkpt lat="48.48956" lon="-2.8388">
        <ele>95.8</ele>
        <time>2026-01-25T11:37:19Z</time>
      </trkpt>
      <trkpt lat="48.48956" lon="-2.83876">
        <ele>95.8</ele>
        <time>2026-01-25T11:37:20Z</time>
      </trkpt>
      <trkpt lat="48.48955" lon="-2.83872">
        <ele>95.8</ele>
        <time>2026-01-25T11:37:21Z</time>
      </trkpt>
      <trkpt lat="48.48955" lon="-2.83868">
        <ele>96.4</ele>
        <time>2026-01-25T11:37:22Z</time>
      </trkpt>
      <trkpt lat="48.48955" lon="-2.83864">
        <ele>96.4</ele>
        <time>2026-01-25T11:37:23Z</time>
      </trkpt>
      <trkpt lat="48.48955" lon="-2.8386">
        <ele>96.4</ele>
        <time>2026-01-25T11:37:24Z</time>
      </trkpt>
      <trkpt lat="48.48955" lon="-2.83856">
        <ele>96.4</ele>
        <time>2026-01-25T11:37:25Z</time>
      </trkpt>
      <trkpt lat="48.48954" lon="-2.83852">
        <ele>97.4</ele>
        <time>2026-01-25T11:37:26Z</time>
      </trkpt>
      <trkpt lat="48.48954" lon="-2.83848">
        <ele>97.6</ele>
        <time>2026-01-25T11:37:27Z</time>
      </trkpt>
      <trkpt lat="48.48954" lon="-2.83844">
        <ele>97.6</ele>
        <time>2026-01-25T11:37:28Z</time>
      </trkpt>
      <trkpt lat="48.48954" lon="-2.8384">
        <ele>97.6</ele>
        <time>2026-01-25T11:37:29Z</time>
      </trkpt>
      <trkpt lat="48.48954" lon="-2.83836">
        <ele>98.2</ele>
        <time>2026-01-25T11:37:30Z</time>
      </trkpt>
      <trkpt lat="48.48953" lon="-2.83832">
        <ele>98.4</ele>
        <time>2026-01-25T11:37:31Z</time>
      </trkpt>
      <trkpt lat="48.48953" lon="-2.83828">
        <ele>98.4</ele>
        <time>2026-01-25T11:37:32Z</time>
      </trkpt>
      <trkpt lat="48.48953" lon="-2.83824">
        <ele>98.4</ele>
        <time>2026-01-25T11:37:33Z</time>
      </trkpt>
      <trkpt lat="48.48953" lon="-2.8382">
        <ele>99.2</ele>
        <time>2026-01-25T11:37:34Z</time>
      </trkpt>
      <trkpt lat="48.48952" lon="-2.83816">
        <ele>99.4</ele>
        <time>2026-01-25T11:37:35Z</time>
      </trkpt>
      <trkpt lat="48.48952" lon="-2.83812">
        <ele>99.4</ele>
        <time>2026-01-25T11:37:36Z</time>
      </trkpt>
      <trkpt lat="48.48952" lon="-2.83808">
        <ele>99.4</ele>
        <time>2026-01-25T11:37:37Z</time>
      </trkpt>
      <trkpt lat="48.48952" lon="-2.83804">
        <ele>100.2</ele>
        <time>2026-01-25T11:37:38Z</time>
      </trkpt>
      <trkpt lat="48.48951" lon="-2.838">
        <ele>100.4</ele>
        <time>2026-01-25T11:37:39Z</time>
      </trkpt>
      <trkpt lat="48.48951" lon="-2.83796">
        <ele>100.4</ele>
        <time>2026-01-25T11:37:40Z</time>
      </trkpt>
      <trkpt lat="48.4895" lon="-2.83792">
        <ele>100.4</ele>
        <time>2026-01-25T11:37:41Z</time>
      </trkpt>
      <trkpt lat="48.4895" lon="-2.83788">
        <ele>100.8</ele>
        <time>2026-01-25T11:37:42Z</time>
      </trkpt>
      <trkpt lat="48.48949" lon="-2.83785">
        <ele>101</ele>
        <time>2026-01-25T11:37:43Z</time>
      </trkpt>
      <trkpt lat="48.48949" lon="-2.83781">
        <ele>101</ele>
        <time>2026-01-25T11:37:44Z</time>
      </trkpt>
      <trkpt lat="48.48948" lon="-2.83777">
        <ele>101</ele>
        <time>2026-01-25T11:37:45Z</time>
      </trkpt>
      <trkpt lat="48.48948" lon="-2.83773">
        <ele>101.8</ele>
        <time>2026-01-25T11:37:46Z</time>
      </trkpt>
      <trkpt lat="48.48947" lon="-2.8377">
        <ele>102</ele>
        <time>2026-01-25T11:37:47Z</time>
      </trkpt>
      <trkpt lat="48.48947" lon="-2.83766">
        <ele>102</ele>
        <time>2026-01-25T11:37:48Z</time>
      </trkpt>
      <trkpt lat="48.48946" lon="-2.83762">
        <ele>102</ele>
        <time>2026-01-25T11:37:49Z</time>
      </trkpt>
      <trkpt lat="48.48945" lon="-2.83758">
        <ele>102.8</ele>
        <time>2026-01-25T11:37:50Z</time>
      </trkpt>
      <trkpt lat="48.48945" lon="-2.83754">
        <ele>103.2</ele>
        <time>2026-01-25T11:37:51Z</time>
      </trkpt>
      <trkpt lat="48.48944" lon="-2.8375">
        <ele>103.2</ele>
        <time>2026-01-25T11:37:52Z</time>
      </trkpt>
      <trkpt lat="48.48944" lon="-2.83746">
        <ele>103.2</ele>
        <time>2026-01-25T11:37:53Z</time>
      </trkpt>
      <trkpt lat="48.48943" lon="-2.83742">
        <ele>104</ele>
        <time>2026-01-25T11:37:54Z</time>
      </trkpt>
      <trkpt lat="48.48942" lon="-2.83738">
        <ele>103.8</ele>
        <time>2026-01-25T11:37:55Z</time>
      </trkpt>
      <trkpt lat="48.48941" lon="-2.83734">
        <ele>103.8</ele>
        <time>2026-01-25T11:37:56Z</time>
      </trkpt>
      <trkpt lat="48.48941" lon="-2.83731">
        <ele>103.8</ele>
        <time>2026-01-25T11:37:57Z</time>
      </trkpt>
      <trkpt lat="48.48941" lon="-2.83728">
        <ele>103.8</ele>
        <time>2026-01-25T11:37:58Z</time>
      </trkpt>
      <trkpt lat="48.48939" lon="-2.83725">
        <ele>104.2</ele>
        <time>2026-01-25T11:37:59Z</time>
      </trkpt>
      <trkpt lat="48.4894" lon="-2.83724">
        <ele>104.2</ele>
        <time>2026-01-25T11:38:00Z</time>
      </trkpt>
      <trkpt lat="48.4894" lon="-2.83724">
        <ele>104.2</ele>
        <time>2026-01-25T11:38:01Z</time>
      </trkpt>
      <trkpt lat="48.4894" lon="-2.83724">
        <ele>104.6</ele>
        <time>2026-01-25T11:38:02Z</time>
      </trkpt>
      <trkpt lat="48.48937" lon="-2.83714">
        <ele>105</ele>
        <time>2026-01-25T11:38:07Z</time>
      </trkpt>
      <trkpt lat="48.48936" lon="-2.83711">
        <ele>105</ele>
        <time>2026-01-25T11:38:08Z</time>
      </trkpt>
      <trkpt lat="48.48935" lon="-2.83708">
        <ele>105</ele>
        <time>2026-01-25T11:38:09Z</time>
      </trkpt>
      <trkpt lat="48.48934" lon="-2.83704">
        <ele>105.4</ele>
        <time>2026-01-25T11:38:10Z</time>
      </trkpt>
      <trkpt lat="48.48933" lon="-2.83701">
        <ele>105.8</ele>
        <time>2026-01-25T11:38:11Z</time>
      </trkpt>
      <trkpt lat="48.48931" lon="-2.83697">
        <ele>105.8</ele>
        <time>2026-01-25T11:38:12Z</time>
      </trkpt>
      <trkpt lat="48.4893" lon="-2.83693">
        <ele>105.8</ele>
        <time>2026-01-25T11:38:13Z</time>
      </trkpt>
      <trkpt lat="48.48929" lon="-2.83689">
        <ele>105.8</ele>
        <time>2026-01-25T11:38:14Z</time>
      </trkpt>
      <trkpt lat="48.48927" lon="-2.83685">
        <ele>106.4</ele>
        <time>2026-01-25T11:38:15Z</time>
      </trkpt>
      <trkpt lat="48.48925" lon="-2.83681">
        <ele>106.4</ele>
        <time>2026-01-25T11:38:16Z</time>
      </trkpt>
      <trkpt lat="48.48924" lon="-2.83678">
        <ele>106.4</ele>
        <time>2026-01-25T11:38:17Z</time>
      </trkpt>
      <trkpt lat="48.48923" lon="-2.83675">
        <ele>106.4</ele>
        <time>2026-01-25T11:38:18Z</time>
      </trkpt>
      <trkpt lat="48.48921" lon="-2.83671">
        <ele>107</ele>
        <time>2026-01-25T11:38:19Z</time>
      </trkpt>
      <trkpt lat="48.48919" lon="-2.83668">
        <ele>107</ele>
        <time>2026-01-25T11:38:20Z</time>
      </trkpt>
      <trkpt lat="48.48918" lon="-2.83665">
        <ele>107</ele>
        <time>2026-01-25T11:38:21Z</time>
      </trkpt>
      <trkpt lat="48.48916" lon="-2.83661">
        <ele>107.8</ele>
        <time>2026-01-25T11:38:22Z</time>
      </trkpt>
      <trkpt lat="48.48915" lon="-2.83658">
        <ele>107.8</ele>
        <time>2026-01-25T11:38:23Z</time>
      </trkpt>
      <trkpt lat="48.48913" lon="-2.83656">
        <ele>107.8</ele>
        <time>2026-01-25T11:38:24Z</time>
      </trkpt>
      <trkpt lat="48.48911" lon="-2.83653">
        <ele>107.8</ele>
        <time>2026-01-25T11:38:25Z</time>
      </trkpt>
      <trkpt lat="48.48909" lon="-2.8365">
        <ele>108.2</ele>
        <time>2026-01-25T11:38:26Z</time>
      </trkpt>
      <trkpt lat="48.48908" lon="-2.83648">
        <ele>108.6</ele>
        <time>2026-01-25T11:38:27Z</time>
      </trkpt>
      <trkpt lat="48.48906" lon="-2.83645">
        <ele>108.6</ele>
        <time>2026-01-25T11:38:28Z</time>
      </trkpt>
      <trkpt lat="48.48904" lon="-2.83641">
        <ele>108.6</ele>
        <time>2026-01-25T11:38:29Z</time>
      </trkpt>
      <trkpt lat="48.48902" lon="-2.83638">
        <ele>108.6</ele>
        <time>2026-01-25T11:38:30Z</time>
      </trkpt>
      <trkpt lat="48.489" lon="-2.83636">
        <ele>108.6</ele>
        <time>2026-01-25T11:38:31Z</time>
      </trkpt>
      <trkpt lat="48.48898" lon="-2.83633">
        <ele>109.4</ele>
        <time>2026-01-25T11:38:32Z</time>
      </trkpt>
      <trkpt lat="48.48896" lon="-2.83631">
        <ele>109.4</ele>
        <time>2026-01-25T11:38:33Z</time>
      </trkpt>
      <trkpt lat="48.48894" lon="-2.83628">
        <ele>109.8</ele>
        <time>2026-01-25T11:38:34Z</time>
      </trkpt>
      <trkpt lat="48.48892" lon="-2.83625">
        <ele>110</ele>
        <time>2026-01-25T11:38:35Z</time>
      </trkpt>
      <trkpt lat="48.4889" lon="-2.83622">
        <ele>110</ele>
        <time>2026-01-25T11:38:36Z</time>
      </trkpt>
      <trkpt lat="48.48888" lon="-2.83619">
        <ele>110</ele>
        <time>2026-01-25T11:38:37Z</time>
      </trkpt>
      <trkpt lat="48.48885" lon="-2.83616">
        <ele>110.6</ele>
        <time>2026-01-25T11:38:38Z</time>
      </trkpt>
      <trkpt lat="48.48883" lon="-2.83613">
        <ele>110.4</ele>
        <time>2026-01-25T11:38:39Z</time>
      </trkpt>
      <trkpt lat="48.4888" lon="-2.83611">
        <ele>110.4</ele>
        <time>2026-01-25T11:38:40Z</time>
      </trkpt>
      <trkpt lat="48.48878" lon="-2.83609">
        <ele>110.4</ele>
        <time>2026-01-25T11:38:41Z</time>
      </trkpt>
      <trkpt lat="48.48875" lon="-2.83606">
        <ele>110.8</ele>
        <time>2026-01-25T11:38:42Z</time>
      </trkpt>
      <trkpt lat="48.48873" lon="-2.83602">
        <ele>110.6</ele>
        <time>2026-01-25T11:38:43Z</time>
      </trkpt>
      <trkpt lat="48.48871" lon="-2.836">
        <ele>110.6</ele>
        <time>2026-01-25T11:38:44Z</time>
      </trkpt>
      <trkpt lat="48.48868" lon="-2.83598">
        <ele>110.6</ele>
        <time>2026-01-25T11:38:45Z</time>
      </trkpt>
      <trkpt lat="48.48866" lon="-2.83595">
        <ele>110.6</ele>
        <time>2026-01-25T11:38:46Z</time>
      </trkpt>
      <trkpt lat="48.48863" lon="-2.83595">
        <ele>110.6</ele>
        <time>2026-01-25T11:38:47Z</time>
      </trkpt>
      <trkpt lat="48.4886" lon="-2.83593">
        <ele>110.6</ele>
        <time>2026-01-25T11:38:48Z</time>
      </trkpt>
      <trkpt lat="48.48857" lon="-2.83592">
        <ele>110.6</ele>
        <time>2026-01-25T11:38:49Z</time>
      </trkpt>
      <trkpt lat="48.48854" lon="-2.8359">
        <ele>111</ele>
        <time>2026-01-25T11:38:50Z</time>
      </trkpt>
      <trkpt lat="48.48851" lon="-2.83586">
        <ele>111.2</ele>
        <time>2026-01-25T11:38:51Z</time>
      </trkpt>
      <trkpt lat="48.48848" lon="-2.83585">
        <ele>111.2</ele>
        <time>2026-01-25T11:38:52Z</time>
      </trkpt>
      <trkpt lat="48.48846" lon="-2.83582">
        <ele>111.2</ele>
        <time>2026-01-25T11:38:53Z</time>
      </trkpt>
      <trkpt lat="48.48843" lon="-2.83579">
        <ele>111.2</ele>
        <time>2026-01-25T11:38:54Z</time>
      </trkpt>
      <trkpt lat="48.48841" lon="-2.83575">
        <ele>111.2</ele>
        <time>2026-01-25T11:38:55Z</time>
      </trkpt>
      <trkpt lat="48.48838" lon="-2.8357">
        <ele>112</ele>
        <time>2026-01-25T11:38:56Z</time>
      </trkpt>
      <trkpt lat="48.48836" lon="-2.83563">
        <ele>112</ele>
        <time>2026-01-25T11:38:57Z</time>
      </trkpt>
      <trkpt lat="48.48834" lon="-2.83559">
        <ele>112</ele>
        <time>2026-01-25T11:38:58Z</time>
      </trkpt>
      <trkpt lat="48.48831" lon="-2.83555">
        <ele>112.4</ele>
        <time>2026-01-25T11:38:59Z</time>
      </trkpt>
      <trkpt lat="48.48828" lon="-2.83551">
        <ele>112.4</ele>
        <time>2026-01-25T11:39:00Z</time>
      </trkpt>
      <trkpt lat="48.48825" lon="-2.83546">
        <ele>112.4</ele>
        <time>2026-01-25T11:39:01Z</time>
      </trkpt>
      <trkpt lat="48.48822" lon="-2.83542">
        <ele>112.6</ele>
        <time>2026-01-25T11:39:02Z</time>
      </trkpt>
      <trkpt lat="48.48819" lon="-2.83537">
        <ele>112.6</ele>
        <time>2026-01-25T11:39:03Z</time>
      </trkpt>
      <trkpt lat="48.48815" lon="-2.83532">
        <ele>112.6</ele>
        <time>2026-01-25T11:39:04Z</time>
      </trkpt>
      <trkpt lat="48.48812" lon="-2.83529">
        <ele>112.6</ele>
        <time>2026-01-25T11:39:05Z</time>
      </trkpt>
      <trkpt lat="48.48809" lon="-2.83525">
        <ele>113.6</ele>
        <time>2026-01-25T11:39:06Z</time>
      </trkpt>
      <trkpt lat="48.48805" lon="-2.83523">
        <ele>113.6</ele>
        <time>2026-01-25T11:39:07Z</time>
      </trkpt>
      <trkpt lat="48.48802" lon="-2.8352">
        <ele>113.6</ele>
        <time>2026-01-25T11:39:08Z</time>
      </trkpt>
      <trkpt lat="48.48799" lon="-2.83517">
        <ele>113.6</ele>
        <time>2026-01-25T11:39:09Z</time>
      </trkpt>
      <trkpt lat="48.48795" lon="-2.83515">
        <ele>114</ele>
        <time>2026-01-25T11:39:10Z</time>
      </trkpt>
      <trkpt lat="48.48792" lon="-2.83512">
        <ele>113.8</ele>
        <time>2026-01-25T11:39:11Z</time>
      </trkpt>
      <trkpt lat="48.48789" lon="-2.8351">
        <ele>113.8</ele>
        <time>2026-01-25T11:39:12Z</time>
      </trkpt>
      <trkpt lat="48.48785" lon="-2.83507">
        <ele>113.8</ele>
        <time>2026-01-25T11:39:13Z</time>
      </trkpt>
      <trkpt lat="48.48782" lon="-2.83505">
        <ele>114.6</ele>
        <time>2026-01-25T11:39:14Z</time>
      </trkpt>
      <trkpt lat="48.48779" lon="-2.83503">
        <ele>114.8</ele>
        <time>2026-01-25T11:39:15Z</time>
      </trkpt>
      <trkpt lat="48.48775" lon="-2.83501">
        <ele>114.8</ele>
        <time>2026-01-25T11:39:16Z</time>
      </trkpt>
      <trkpt lat="48.48772" lon="-2.83499">
        <ele>114.8</ele>
        <time>2026-01-25T11:39:17Z</time>
      </trkpt>
      <trkpt lat="48.48768" lon="-2.83496">
        <ele>114.8</ele>
        <time>2026-01-25T11:39:18Z</time>
      </trkpt>
      <trkpt lat="48.48765" lon="-2.83494">
        <ele>114.8</ele>
        <time>2026-01-25T11:39:19Z</time>
      </trkpt>
      <trkpt lat="48.48762" lon="-2.83492">
        <ele>114.8</ele>
        <time>2026-01-25T11:39:20Z</time>
      </trkpt>
      <trkpt lat="48.48758" lon="-2.8349">
        <ele>114.8</ele>
        <time>2026-01-25T11:39:21Z</time>
      </trkpt>
      <trkpt lat="48.48755" lon="-2.83487">
        <ele>115.8</ele>
        <time>2026-01-25T11:39:22Z</time>
      </trkpt>
      <trkpt lat="48.48751" lon="-2.83484">
        <ele>115.2</ele>
        <time>2026-01-25T11:39:23Z</time>
      </trkpt>
      <trkpt lat="48.48748" lon="-2.83482">
        <ele>115.2</ele>
        <time>2026-01-25T11:39:24Z</time>
      </trkpt>
      <trkpt lat="48.48745" lon="-2.83479">
        <ele>115.2</ele>
        <time>2026-01-25T11:39:25Z</time>
      </trkpt>
      <trkpt lat="48.48741" lon="-2.83477">
        <ele>116</ele>
        <time>2026-01-25T11:39:26Z</time>
      </trkpt>
      <trkpt lat="48.48738" lon="-2.83474">
        <ele>116.6</ele>
        <time>2026-01-25T11:39:27Z</time>
      </trkpt>
      <trkpt lat="48.48735" lon="-2.83471">
        <ele>116.6</ele>
        <time>2026-01-25T11:39:28Z</time>
      </trkpt>
      <trkpt lat="48.48731" lon="-2.83468">
        <ele>116.6</ele>
        <time>2026-01-25T11:39:29Z</time>
      </trkpt>
      <trkpt lat="48.48728" lon="-2.83465">
        <ele>116.6</ele>
        <time>2026-01-25T11:39:30Z</time>
      </trkpt>
      <trkpt lat="48.48724" lon="-2.83461">
        <ele>117</ele>
        <time>2026-01-25T11:39:31Z</time>
      </trkpt>
      <trkpt lat="48.48721" lon="-2.83459">
        <ele>117</ele>
        <time>2026-01-25T11:39:32Z</time>
      </trkpt>
      <trkpt lat="48.48718" lon="-2.83456">
        <ele>117</ele>
        <time>2026-01-25T11:39:33Z</time>
      </trkpt>
      <trkpt lat="48.48714" lon="-2.83453">
        <ele>116.6</ele>
        <time>2026-01-25T11:39:34Z</time>
      </trkpt>
      <trkpt lat="48.48711" lon="-2.8345">
        <ele>117.2</ele>
        <time>2026-01-25T11:39:35Z</time>
      </trkpt>
      <trkpt lat="48.48708" lon="-2.83447">
        <ele>117.2</ele>
        <time>2026-01-25T11:39:36Z</time>
      </trkpt>
      <trkpt lat="48.48705" lon="-2.83443">
        <ele>117.2</ele>
        <time>2026-01-25T11:39:37Z</time>
      </trkpt>
      <trkpt lat="48.48701" lon="-2.8344">
        <ele>117.2</ele>
        <time>2026-01-25T11:39:38Z</time>
      </trkpt>
      <trkpt lat="48.48698" lon="-2.83436">
        <ele>117.4</ele>
        <time>2026-01-25T11:39:39Z</time>
      </trkpt>
      <trkpt lat="48.48695" lon="-2.83433">
        <ele>117.4</ele>
        <time>2026-01-25T11:39:40Z</time>
      </trkpt>
      <trkpt lat="48.48691" lon="-2.83429">
        <ele>117.4</ele>
        <time>2026-01-25T11:39:41Z</time>
      </trkpt>
      <trkpt lat="48.48688" lon="-2.83425">
        <ele>118.2</ele>
        <time>2026-01-25T11:39:42Z</time>
      </trkpt>
      <trkpt lat="48.48685" lon="-2.83421">
        <ele>118.4</ele>
        <time>2026-01-25T11:39:43Z</time>
      </trkpt>
      <trkpt lat="48.48682" lon="-2.83416">
        <ele>118.4</ele>
        <time>2026-01-25T11:39:44Z</time>
      </trkpt>
      <trkpt lat="48.48678" lon="-2.83412">
        <ele>118.4</ele>
        <time>2026-01-25T11:39:45Z</time>
      </trkpt>
      <trkpt lat="48.48675" lon="-2.83408">
        <ele>118.4</ele>
        <time>2026-01-25T11:39:46Z</time>
      </trkpt>
      <trkpt lat="48.48672" lon="-2.83404">
        <ele>119.4</ele>
        <time>2026-01-25T11:39:47Z</time>
      </trkpt>
      <trkpt lat="48.48669" lon="-2.83399">
        <ele>119.4</ele>
        <time>2026-01-25T11:39:48Z</time>
      </trkpt>
      <trkpt lat="48.48666" lon="-2.83395">
        <ele>119.4</ele>
        <time>2026-01-25T11:39:49Z</time>
      </trkpt>
      <trkpt lat="48.48663" lon="-2.8339">
        <ele>119.6</ele>
        <time>2026-01-25T11:39:50Z</time>
      </trkpt>
      <trkpt lat="48.4866" lon="-2.83385">
        <ele>119.6</ele>
        <time>2026-01-25T11:39:51Z</time>
      </trkpt>
      <trkpt lat="48.48658" lon="-2.8338">
        <ele>119.6</ele>
        <time>2026-01-25T11:39:52Z</time>
      </trkpt>
      <trkpt lat="48.48655" lon="-2.83375">
        <ele>119.6</ele>
        <time>2026-01-25T11:39:53Z</time>
      </trkpt>
      <trkpt lat="48.48652" lon="-2.8337">
        <ele>120.4</ele>
        <time>2026-01-25T11:39:54Z</time>
      </trkpt>
      <trkpt lat="48.4865" lon="-2.83365">
        <ele>120.2</ele>
        <time>2026-01-25T11:39:55Z</time>
      </trkpt>
      <trkpt lat="48.48647" lon="-2.8336">
        <ele>120.2</ele>
        <time>2026-01-25T11:39:56Z</time>
      </trkpt>
      <trkpt lat="48.48645" lon="-2.83355">
        <ele>120.2</ele>
        <time>2026-01-25T11:39:57Z</time>
      </trkpt>
      <trkpt lat="48.48643" lon="-2.8335">
        <ele>121</ele>
        <time>2026-01-25T11:39:58Z</time>
      </trkpt>
      <trkpt lat="48.4864" lon="-2.83345">
        <ele>121.2</ele>
        <time>2026-01-25T11:39:59Z</time>
      </trkpt>
      <trkpt lat="48.48638" lon="-2.83341">
        <ele>121.2</ele>
        <time>2026-01-25T11:40:00Z</time>
      </trkpt>
      <trkpt lat="48.48635" lon="-2.83336">
        <ele>121.2</ele>
        <time>2026-01-25T11:40:01Z</time>
      </trkpt>
      <trkpt lat="48.48633" lon="-2.83332">
        <ele>121.2</ele>
        <time>2026-01-25T11:40:02Z</time>
      </trkpt>
      <trkpt lat="48.48631" lon="-2.83327">
        <ele>120.8</ele>
        <time>2026-01-25T11:40:03Z</time>
      </trkpt>
      <trkpt lat="48.48629" lon="-2.83323">
        <ele>120.8</ele>
        <time>2026-01-25T11:40:04Z</time>
      </trkpt>
      <trkpt lat="48.48627" lon="-2.83317">
        <ele>120.8</ele>
        <time>2026-01-25T11:40:05Z</time>
      </trkpt>
      <trkpt lat="48.48625" lon="-2.83312">
        <ele>121.8</ele>
        <time>2026-01-25T11:40:06Z</time>
      </trkpt>
      <trkpt lat="48.48623" lon="-2.83308">
        <ele>121.8</ele>
        <time>2026-01-25T11:40:07Z</time>
      </trkpt>
      <trkpt lat="48.48621" lon="-2.83301">
        <ele>121.8</ele>
        <time>2026-01-25T11:40:08Z</time>
      </trkpt>
      <trkpt lat="48.4862" lon="-2.83296">
        <ele>121.8</ele>
        <time>2026-01-25T11:40:09Z</time>
      </trkpt>
      <trkpt lat="48.48618" lon="-2.83291">
        <ele>122.8</ele>
        <time>2026-01-25T11:40:10Z</time>
      </trkpt>
      <trkpt lat="48.48617" lon="-2.83286">
        <ele>122.8</ele>
        <time>2026-01-25T11:40:11Z</time>
      </trkpt>
      <trkpt lat="48.48615" lon="-2.8328">
        <ele>122.8</ele>
        <time>2026-01-25T11:40:12Z</time>
      </trkpt>
      <trkpt lat="48.48614" lon="-2.83274">
        <ele>122.8</ele>
        <time>2026-01-25T11:40:13Z</time>
      </trkpt>
      <trkpt lat="48.48612" lon="-2.83268">
        <ele>123.2</ele>
        <time>2026-01-25T11:40:14Z</time>
      </trkpt>
      <trkpt lat="48.48611" lon="-2.83262">
        <ele>123.4</ele>
        <time>2026-01-25T11:40:15Z</time>
      </trkpt>
      <trkpt lat="48.4861" lon="-2.83256">
        <ele>123.4</ele>
        <time>2026-01-25T11:40:16Z</time>
      </trkpt>
      <trkpt lat="48.48609" lon="-2.83249">
        <ele>123.4</ele>
        <time>2026-01-25T11:40:17Z</time>
      </trkpt>
      <trkpt lat="48.48608" lon="-2.83241">
        <ele>123.6</ele>
        <time>2026-01-25T11:40:18Z</time>
      </trkpt>
      <trkpt lat="48.48607" lon="-2.83234">
        <ele>123.6</ele>
        <time>2026-01-25T11:40:19Z</time>
      </trkpt>
      <trkpt lat="48.48607" lon="-2.83226">
        <ele>123.6</ele>
        <time>2026-01-25T11:40:20Z</time>
      </trkpt>
      <trkpt lat="48.48606" lon="-2.83218">
        <ele>123.6</ele>
        <time>2026-01-25T11:40:21Z</time>
      </trkpt>
      <trkpt lat="48.48605" lon="-2.8321">
        <ele>123.6</ele>
        <time>2026-01-25T11:40:22Z</time>
      </trkpt>
      <trkpt lat="48.48605" lon="-2.83202">
        <ele>123.8</ele>
        <time>2026-01-25T11:40:23Z</time>
      </trkpt>
      <trkpt lat="48.48605" lon="-2.83195">
        <ele>123.8</ele>
        <time>2026-01-25T11:40:24Z</time>
      </trkpt>
      <trkpt lat="48.48605" lon="-2.83186">
        <ele>123.8</ele>
        <time>2026-01-25T11:40:25Z</time>
      </trkpt>
      <trkpt lat="48.48604" lon="-2.83178">
        <ele>123.8</ele>
        <time>2026-01-25T11:40:26Z</time>
      </trkpt>
      <trkpt lat="48.48604" lon="-2.83171">
        <ele>124</ele>
        <time>2026-01-25T11:40:27Z</time>
      </trkpt>
      <trkpt lat="48.48604" lon="-2.83162">
        <ele>124</ele>
        <time>2026-01-25T11:40:28Z</time>
      </trkpt>
      <trkpt lat="48.48605" lon="-2.83154">
        <ele>124</ele>
        <time>2026-01-25T11:40:29Z</time>
      </trkpt>
      <trkpt lat="48.48605" lon="-2.83146">
        <ele>124.2</ele>
        <time>2026-01-25T11:40:30Z</time>
      </trkpt>
      <trkpt lat="48.48605" lon="-2.83138">
        <ele>124.2</ele>
        <time>2026-01-25T11:40:31Z</time>
      </trkpt>
      <trkpt lat="48.48606" lon="-2.83129">
        <ele>124</ele>
        <time>2026-01-25T11:40:32Z</time>
      </trkpt>
      <trkpt lat="48.48606" lon="-2.83121">
        <ele>124</ele>
        <time>2026-01-25T11:40:33Z</time>
      </trkpt>
      <trkpt lat="48.48607" lon="-2.83113">
        <ele>124.4</ele>
        <time>2026-01-25T11:40:34Z</time>
      </trkpt>
      <trkpt lat="48.48608" lon="-2.83105">
        <ele>124</ele>
        <time>2026-01-25T11:40:35Z</time>
      </trkpt>
      <trkpt lat="48.48609" lon="-2.83097">
        <ele>124</ele>
        <time>2026-01-25T11:40:36Z</time>
      </trkpt>
      <trkpt lat="48.4861" lon="-2.83089">
        <ele>124</ele>
        <time>2026-01-25T11:40:37Z</time>
      </trkpt>
      <trkpt lat="48.48611" lon="-2.83081">
        <ele>125</ele>
        <time>2026-01-25T11:40:38Z</time>
      </trkpt>
      <trkpt lat="48.48612" lon="-2.83073">
        <ele>125</ele>
        <time>2026-01-25T11:40:39Z</time>
      </trkpt>
      <trkpt lat="48.48614" lon="-2.83065">
        <ele>125</ele>
        <time>2026-01-25T11:40:40Z</time>
      </trkpt>
      <trkpt lat="48.48616" lon="-2.83057">
        <ele>125</ele>
        <time>2026-01-25T11:40:41Z</time>
      </trkpt>
      <trkpt lat="48.48617" lon="-2.8305">
        <ele>125</ele>
        <time>2026-01-25T11:40:42Z</time>
      </trkpt>
      <trkpt lat="48.48619" lon="-2.83041">
        <ele>125</ele>
        <time>2026-01-25T11:40:43Z</time>
      </trkpt>
      <trkpt lat="48.48621" lon="-2.83033">
        <ele>125</ele>
        <time>2026-01-25T11:40:44Z</time>
      </trkpt>
      <trkpt lat="48.48623" lon="-2.83025">
        <ele>125</ele>
        <time>2026-01-25T11:40:45Z</time>
      </trkpt>
      <trkpt lat="48.48626" lon="-2.83018">
        <ele>126</ele>
        <time>2026-01-25T11:40:46Z</time>
      </trkpt>
      <trkpt lat="48.48628" lon="-2.8301">
        <ele>125.8</ele>
        <time>2026-01-25T11:40:47Z</time>
      </trkpt>
      <trkpt lat="48.48631" lon="-2.83001">
        <ele>125.8</ele>
        <time>2026-01-25T11:40:48Z</time>
      </trkpt>
      <trkpt lat="48.48634" lon="-2.82993">
        <ele>125.8</ele>
        <time>2026-01-25T11:40:49Z</time>
      </trkpt>
      <trkpt lat="48.48636" lon="-2.82985">
        <ele>125.2</ele>
        <time>2026-01-25T11:40:50Z</time>
      </trkpt>
      <trkpt lat="48.48639" lon="-2.82976">
        <ele>125.8</ele>
        <time>2026-01-25T11:40:51Z</time>
      </trkpt>
      <trkpt lat="48.48642" lon="-2.82968">
        <ele>125.8</ele>
        <time>2026-01-25T11:40:52Z</time>
      </trkpt>
      <trkpt lat="48.48645" lon="-2.8296">
        <ele>125.8</ele>
        <time>2026-01-25T11:40:53Z</time>
      </trkpt>
      <trkpt lat="48.48648" lon="-2.82951">
        <ele>125.8</ele>
        <time>2026-01-25T11:40:54Z</time>
      </trkpt>
      <trkpt lat="48.48651" lon="-2.82943">
        <ele>125.8</ele>
        <time>2026-01-25T11:40:55Z</time>
      </trkpt>
      <trkpt lat="48.48654" lon="-2.82934">
        <ele>125.8</ele>
        <time>2026-01-25T11:40:56Z</time>
      </trkpt>
      <trkpt lat="48.48657" lon="-2.82926">
        <ele>125.8</ele>
        <time>2026-01-25T11:40:57Z</time>
      </trkpt>
      <trkpt lat="48.4866" lon="-2.82917">
        <ele>125.2</ele>
        <time>2026-01-25T11:40:58Z</time>
      </trkpt>
      <trkpt lat="48.48663" lon="-2.82908">
        <ele>125.4</ele>
        <time>2026-01-25T11:40:59Z</time>
      </trkpt>
      <trkpt lat="48.48666" lon="-2.82899">
        <ele>125.4</ele>
        <time>2026-01-25T11:41:00Z</time>
      </trkpt>
      <trkpt lat="48.48669" lon="-2.8289">
        <ele>125.4</ele>
        <time>2026-01-25T11:41:01Z</time>
      </trkpt>
      <trkpt lat="48.48673" lon="-2.82881">
        <ele>125.4</ele>
        <time>2026-01-25T11:41:02Z</time>
      </trkpt>
      <trkpt lat="48.48676" lon="-2.82872">
        <ele>125.2</ele>
        <time>2026-01-25T11:41:03Z</time>
      </trkpt>
      <trkpt lat="48.48679" lon="-2.82863">
        <ele>125.2</ele>
        <time>2026-01-25T11:41:04Z</time>
      </trkpt>
      <trkpt lat="48.48682" lon="-2.82854">
        <ele>125.2</ele>
        <time>2026-01-25T11:41:05Z</time>
      </trkpt>
      <trkpt lat="48.48685" lon="-2.82844">
        <ele>125.6</ele>
        <time>2026-01-25T11:41:06Z</time>
      </trkpt>
      <trkpt lat="48.48689" lon="-2.82835">
        <ele>124.6</ele>
        <time>2026-01-25T11:41:07Z</time>
      </trkpt>
      <trkpt lat="48.48692" lon="-2.82825">
        <ele>124.6</ele>
        <time>2026-01-25T11:41:08Z</time>
      </trkpt>
      <trkpt lat="48.48696" lon="-2.82815">
        <ele>124.6</ele>
        <time>2026-01-25T11:41:09Z</time>
      </trkpt>
      <trkpt lat="48.48699" lon="-2.82805">
        <ele>124.6</ele>
        <time>2026-01-25T11:41:10Z</time>
      </trkpt>
      <trkpt lat="48.48703" lon="-2.82795">
        <ele>124.8</ele>
        <time>2026-01-25T11:41:11Z</time>
      </trkpt>
      <trkpt lat="48.48706" lon="-2.82785">
        <ele>124.8</ele>
        <time>2026-01-25T11:41:12Z</time>
      </trkpt>
      <trkpt lat="48.4871" lon="-2.82775">
        <ele>124.8</ele>
        <time>2026-01-25T11:41:13Z</time>
      </trkpt>
      <trkpt lat="48.48714" lon="-2.82765">
        <ele>123.8</ele>
        <time>2026-01-25T11:41:14Z</time>
      </trkpt>
      <trkpt lat="48.48717" lon="-2.82754">
        <ele>123.2</ele>
        <time>2026-01-25T11:41:15Z</time>
      </trkpt>
      <trkpt lat="48.4872" lon="-2.82744">
        <ele>123.2</ele>
        <time>2026-01-25T11:41:16Z</time>
      </trkpt>
      <trkpt lat="48.48724" lon="-2.82734">
        <ele>123.2</ele>
        <time>2026-01-25T11:41:17Z</time>
      </trkpt>
      <trkpt lat="48.48727" lon="-2.82726">
        <ele>123.2</ele>
        <time>2026-01-25T11:41:18Z</time>
      </trkpt>
      <trkpt lat="48.48729" lon="-2.82718">
        <ele>123.8</ele>
        <time>2026-01-25T11:41:19Z</time>
      </trkpt>
      <trkpt lat="48.48731" lon="-2.82712">
        <ele>123.8</ele>
        <time>2026-01-25T11:41:20Z</time>
      </trkpt>
      <trkpt lat="48.4873" lon="-2.82706">
        <ele>123.8</ele>
        <time>2026-01-25T11:41:21Z</time>
      </trkpt>
      <trkpt lat="48.48727" lon="-2.82703">
        <ele>123.8</ele>
        <time>2026-01-25T11:41:22Z</time>
      </trkpt>
      <trkpt lat="48.48723" lon="-2.827">
        <ele>122.8</ele>
        <time>2026-01-25T11:41:23Z</time>
      </trkpt>
      <trkpt lat="48.48719" lon="-2.82698">
        <ele>122.8</ele>
        <time>2026-01-25T11:41:24Z</time>
      </trkpt>
      <trkpt lat="48.48715" lon="-2.82696">
        <ele>122.8</ele>
        <time>2026-01-25T11:41:25Z</time>
      </trkpt>
      <trkpt lat="48.48711" lon="-2.82694">
        <ele>122.8</ele>
        <time>2026-01-25T11:41:26Z</time>
      </trkpt>
      <trkpt lat="48.48707" lon="-2.82692">
        <ele>123.4</ele>
        <time>2026-01-25T11:41:27Z</time>
      </trkpt>
      <trkpt lat="48.48703" lon="-2.82689">
        <ele>123.4</ele>
        <time>2026-01-25T11:41:28Z</time>
      </trkpt>
      <trkpt lat="48.48699" lon="-2.82686">
        <ele>123.4</ele>
        <time>2026-01-25T11:41:29Z</time>
      </trkpt>
      <trkpt lat="48.48694" lon="-2.82684">
        <ele>123.8</ele>
        <time>2026-01-25T11:41:30Z</time>
      </trkpt>
      <trkpt lat="48.4869" lon="-2.82681">
        <ele>124.2</ele>
        <time>2026-01-25T11:41:31Z</time>
      </trkpt>
      <trkpt lat="48.48686" lon="-2.82678">
        <ele>124.2</ele>
        <time>2026-01-25T11:41:32Z</time>
      </trkpt>
      <trkpt lat="48.48682" lon="-2.82675">
        <ele>124.2</ele>
        <time>2026-01-25T11:41:33Z</time>
      </trkpt>
      <trkpt lat="48.48678" lon="-2.82672">
        <ele>125.2</ele>
        <time>2026-01-25T11:41:34Z</time>
      </trkpt>
      <trkpt lat="48.48674" lon="-2.82669">
        <ele>125.6</ele>
        <time>2026-01-25T11:41:35Z</time>
      </trkpt>
      <trkpt lat="48.4867" lon="-2.82666">
        <ele>125.6</ele>
        <time>2026-01-25T11:41:36Z</time>
      </trkpt>
      <trkpt lat="48.48667" lon="-2.82663">
        <ele>125.6</ele>
        <time>2026-01-25T11:41:37Z</time>
      </trkpt>
      <trkpt lat="48.48663" lon="-2.8266">
        <ele>126.6</ele>
        <time>2026-01-25T11:41:38Z</time>
      </trkpt>
      <trkpt lat="48.48659" lon="-2.82657">
        <ele>127.2</ele>
        <time>2026-01-25T11:41:39Z</time>
      </trkpt>
      <trkpt lat="48.48655" lon="-2.82654">
        <ele>127.2</ele>
        <time>2026-01-25T11:41:40Z</time>
      </trkpt>
      <trkpt lat="48.48651" lon="-2.8265">
        <ele>127.2</ele>
        <time>2026-01-25T11:41:41Z</time>
      </trkpt>
      <trkpt lat="48.48648" lon="-2.82648">
        <ele>127.2</ele>
        <time>2026-01-25T11:41:42Z</time>
      </trkpt>
      <trkpt lat="48.48644" lon="-2.82645">
        <ele>128.2</ele>
        <time>2026-01-25T11:41:43Z</time>
      </trkpt>
      <trkpt lat="48.4864" lon="-2.82642">
        <ele>128.2</ele>
        <time>2026-01-25T11:41:44Z</time>
      </trkpt>
      <trkpt lat="48.48636" lon="-2.8264">
        <ele>128.2</ele>
        <time>2026-01-25T11:41:45Z</time>
      </trkpt>
      <trkpt lat="48.48632" lon="-2.82637">
        <ele>129</ele>
        <time>2026-01-25T11:41:46Z</time>
      </trkpt>
      <trkpt lat="48.48629" lon="-2.82635">
        <ele>129</ele>
        <time>2026-01-25T11:41:47Z</time>
      </trkpt>
      <trkpt lat="48.48624" lon="-2.82633">
        <ele>129</ele>
        <time>2026-01-25T11:41:48Z</time>
      </trkpt>
      <trkpt lat="48.4862" lon="-2.82631">
        <ele>129</ele>
        <time>2026-01-25T11:41:49Z</time>
      </trkpt>
      <trkpt lat="48.48616" lon="-2.82629">
        <ele>129</ele>
        <time>2026-01-25T11:41:50Z</time>
      </trkpt>
      <trkpt lat="48.48612" lon="-2.82627">
        <ele>129.8</ele>
        <time>2026-01-25T11:41:51Z</time>
      </trkpt>
      <trkpt lat="48.48607" lon="-2.82625">
        <ele>129.8</ele>
        <time>2026-01-25T11:41:52Z</time>
      </trkpt>
      <trkpt lat="48.48603" lon="-2.82623">
        <ele>129.8</ele>
        <time>2026-01-25T11:41:53Z</time>
      </trkpt>
      <trkpt lat="48.48599" lon="-2.82622">
        <ele>129.4</ele>
        <time>2026-01-25T11:41:54Z</time>
      </trkpt>
      <trkpt lat="48.48594" lon="-2.8262">
        <ele>129.2</ele>
        <time>2026-01-25T11:41:55Z</time>
      </trkpt>
      <trkpt lat="48.4859" lon="-2.82619">
        <ele>129.2</ele>
        <time>2026-01-25T11:41:56Z</time>
      </trkpt>
      <trkpt lat="48.48585" lon="-2.82617">
        <ele>129.2</ele>
        <time>2026-01-25T11:41:57Z</time>
      </trkpt>
      <trkpt lat="48.48581" lon="-2.82616">
        <ele>129.2</ele>
        <time>2026-01-25T11:41:58Z</time>
      </trkpt>
      <trkpt lat="48.48577" lon="-2.82615">
        <ele>129.8</ele>
        <time>2026-01-25T11:41:59Z</time>
      </trkpt>
      <trkpt lat="48.48572" lon="-2.82614">
        <ele>129.8</ele>
        <time>2026-01-25T11:42:00Z</time>
      </trkpt>
      <trkpt lat="48.48568" lon="-2.82614">
        <ele>129.8</ele>
        <time>2026-01-25T11:42:01Z</time>
      </trkpt>
      <trkpt lat="48.48564" lon="-2.82613">
        <ele>129.8</ele>
        <time>2026-01-25T11:42:02Z</time>
      </trkpt>
      <trkpt lat="48.48559" lon="-2.82613">
        <ele>130.4</ele>
        <time>2026-01-25T11:42:03Z</time>
      </trkpt>
      <trkpt lat="48.48555" lon="-2.82613">
        <ele>130.4</ele>
        <time>2026-01-25T11:42:04Z</time>
      </trkpt>
      <trkpt lat="48.48551" lon="-2.82613">
        <ele>130.4</ele>
        <time>2026-01-25T11:42:05Z</time>
      </trkpt>
      <trkpt lat="48.48546" lon="-2.82613">
        <ele>130.8</ele>
        <time>2026-01-25T11:42:06Z</time>
      </trkpt>
      <trkpt lat="48.48542" lon="-2.82614">
        <ele>130.8</ele>
        <time>2026-01-25T11:42:07Z</time>
      </trkpt>
      <trkpt lat="48.48538" lon="-2.82614">
        <ele>130.8</ele>
        <time>2026-01-25T11:42:08Z</time>
      </trkpt>
      <trkpt lat="48.48533" lon="-2.82614">
        <ele>130.8</ele>
        <time>2026-01-25T11:42:09Z</time>
      </trkpt>
      <trkpt lat="48.48529" lon="-2.82614">
        <ele>130.8</ele>
        <time>2026-01-25T11:42:10Z</time>
      </trkpt>
      <trkpt lat="48.48524" lon="-2.82614">
        <ele>131.2</ele>
        <time>2026-01-25T11:42:11Z</time>
      </trkpt>
      <trkpt lat="48.4852" lon="-2.82613">
        <ele>131.2</ele>
        <time>2026-01-25T11:42:12Z</time>
      </trkpt>
      <trkpt lat="48.48515" lon="-2.82612">
        <ele>131.2</ele>
        <time>2026-01-25T11:42:13Z</time>
      </trkpt>
      <trkpt lat="48.48511" lon="-2.82611">
        <ele>131.2</ele>
        <time>2026-01-25T11:42:14Z</time>
      </trkpt>
      <trkpt lat="48.48506" lon="-2.82611">
        <ele>131.2</ele>
        <time>2026-01-25T11:42:15Z</time>
      </trkpt>
      <trkpt lat="48.48502" lon="-2.82609">
        <ele>131.2</ele>
        <time>2026-01-25T11:42:16Z</time>
      </trkpt>
      <trkpt lat="48.48497" lon="-2.82608">
        <ele>131.2</ele>
        <time>2026-01-25T11:42:17Z</time>
      </trkpt>
      <trkpt lat="48.48493" lon="-2.82607">
        <ele>132.2</ele>
        <time>2026-01-25T11:42:18Z</time>
      </trkpt>
      <trkpt lat="48.48489" lon="-2.82605">
        <ele>132.2</ele>
        <time>2026-01-25T11:42:19Z</time>
      </trkpt>
      <trkpt lat="48.48484" lon="-2.82604">
        <ele>132.2</ele>
        <time>2026-01-25T11:42:20Z</time>
      </trkpt>
      <trkpt lat="48.4848" lon="-2.82603">
        <ele>132.2</ele>
        <time>2026-01-25T11:42:21Z</time>
      </trkpt>
      <trkpt lat="48.48476" lon="-2.82601">
        <ele>133</ele>
        <time>2026-01-25T11:42:22Z</time>
      </trkpt>
      <trkpt lat="48.48471" lon="-2.82599">
        <ele>133.2</ele>
        <time>2026-01-25T11:42:23Z</time>
      </trkpt>
      <trkpt lat="48.48467" lon="-2.82597">
        <ele>133.2</ele>
        <time>2026-01-25T11:42:24Z</time>
      </trkpt>
      <trkpt lat="48.48463" lon="-2.82594">
        <ele>133.2</ele>
        <time>2026-01-25T11:42:25Z</time>
      </trkpt>
      <trkpt lat="48.48459" lon="-2.82592">
        <ele>133.8</ele>
        <time>2026-01-25T11:42:26Z</time>
      </trkpt>
      <trkpt lat="48.48455" lon="-2.8259">
        <ele>134.2</ele>
        <time>2026-01-25T11:42:27Z</time>
      </trkpt>
      <trkpt lat="48.4845" lon="-2.82588">
        <ele>134.2</ele>
        <time>2026-01-25T11:42:28Z</time>
      </trkpt>
      <trkpt lat="48.48446" lon="-2.82586">
        <ele>134.2</ele>
        <time>2026-01-25T11:42:29Z</time>
      </trkpt>
      <trkpt lat="48.48442" lon="-2.82584">
        <ele>134.8</ele>
        <time>2026-01-25T11:42:30Z</time>
      </trkpt>
      <trkpt lat="48.48438" lon="-2.82582">
        <ele>135.6</ele>
        <time>2026-01-25T11:42:31Z</time>
      </trkpt>
      <trkpt lat="48.48434" lon="-2.82579">
        <ele>135.6</ele>
        <time>2026-01-25T11:42:32Z</time>
      </trkpt>
      <trkpt lat="48.48429" lon="-2.82577">
        <ele>135.6</ele>
        <time>2026-01-25T11:42:33Z</time>
      </trkpt>
      <trkpt lat="48.48425" lon="-2.82574">
        <ele>135.2</ele>
        <time>2026-01-25T11:42:34Z</time>
      </trkpt>
      <trkpt lat="48.48421" lon="-2.82573">
        <ele>134.8</ele>
        <time>2026-01-25T11:42:35Z</time>
      </trkpt>
      <trkpt lat="48.48417" lon="-2.82571">
        <ele>134.8</ele>
        <time>2026-01-25T11:42:36Z</time>
      </trkpt>
      <trkpt lat="48.48412" lon="-2.8257">
        <ele>134.8</ele>
        <time>2026-01-25T11:42:37Z</time>
      </trkpt>
      <trkpt lat="48.48408" lon="-2.8257">
        <ele>135.2</ele>
        <time>2026-01-25T11:42:38Z</time>
      </trkpt>
      <trkpt lat="48.48403" lon="-2.82571">
        <ele>135</ele>
        <time>2026-01-25T11:42:39Z</time>
      </trkpt>
      <trkpt lat="48.48399" lon="-2.82573">
        <ele>135</ele>
        <time>2026-01-25T11:42:40Z</time>
      </trkpt>
      <trkpt lat="48.48395" lon="-2.82575">
        <ele>135</ele>
        <time>2026-01-25T11:42:41Z</time>
      </trkpt>
      <trkpt lat="48.48391" lon="-2.82578">
        <ele>135.8</ele>
        <time>2026-01-25T11:42:42Z</time>
      </trkpt>
      <trkpt lat="48.48387" lon="-2.82581">
        <ele>136</ele>
        <time>2026-01-25T11:42:43Z</time>
      </trkpt>
      <trkpt lat="48.48383" lon="-2.82585">
        <ele>136</ele>
        <time>2026-01-25T11:42:44Z</time>
      </trkpt>
      <trkpt lat="48.48379" lon="-2.82589">
        <ele>136</ele>
        <time>2026-01-25T11:42:45Z</time>
      </trkpt>
      <trkpt lat="48.48375" lon="-2.82592">
        <ele>136</ele>
        <time>2026-01-25T11:42:46Z</time>
      </trkpt>
      <trkpt lat="48.48371" lon="-2.82595">
        <ele>136.4</ele>
        <time>2026-01-25T11:42:47Z</time>
      </trkpt>
      <trkpt lat="48.48366" lon="-2.82598">
        <ele>136.4</ele>
        <time>2026-01-25T11:42:48Z</time>
      </trkpt>
      <trkpt lat="48.48361" lon="-2.82599">
        <ele>136.4</ele>
        <time>2026-01-25T11:42:49Z</time>
      </trkpt>
      <trkpt lat="48.48357" lon="-2.82599">
        <ele>136.8</ele>
        <time>2026-01-25T11:42:50Z</time>
      </trkpt>
      <trkpt lat="48.48352" lon="-2.82599">
        <ele>137.2</ele>
        <time>2026-01-25T11:42:51Z</time>
      </trkpt>
      <trkpt lat="48.48347" lon="-2.82598">
        <ele>137.2</ele>
        <time>2026-01-25T11:42:52Z</time>
      </trkpt>
      <trkpt lat="48.48343" lon="-2.82597">
        <ele>137.2</ele>
        <time>2026-01-25T11:42:53Z</time>
      </trkpt>
      <trkpt lat="48.48338" lon="-2.82595">
        <ele>137.6</ele>
        <time>2026-01-25T11:42:54Z</time>
      </trkpt>
      <trkpt lat="48.48334" lon="-2.82593">
        <ele>137.2</ele>
        <time>2026-01-25T11:42:55Z</time>
      </trkpt>
      <trkpt lat="48.4833" lon="-2.82591">
        <ele>137.2</ele>
        <time>2026-01-25T11:42:56Z</time>
      </trkpt>
      <trkpt lat="48.48325" lon="-2.82589">
        <ele>137.2</ele>
        <time>2026-01-25T11:42:57Z</time>
      </trkpt>
      <trkpt lat="48.48321" lon="-2.82587">
        <ele>137.8</ele>
        <time>2026-01-25T11:42:58Z</time>
      </trkpt>
      <trkpt lat="48.48316" lon="-2.82584">
        <ele>137.8</ele>
        <time>2026-01-25T11:42:59Z</time>
      </trkpt>
      <trkpt lat="48.48312" lon="-2.82582">
        <ele>137.8</ele>
        <time>2026-01-25T11:43:00Z</time>
      </trkpt>
      <trkpt lat="48.48308" lon="-2.8258">
        <ele>137.8</ele>
        <time>2026-01-25T11:43:01Z</time>
      </trkpt>
      <trkpt lat="48.48303" lon="-2.82578">
        <ele>138.2</ele>
        <time>2026-01-25T11:43:02Z</time>
      </trkpt>
      <trkpt lat="48.48299" lon="-2.82575">
        <ele>138.4</ele>
        <time>2026-01-25T11:43:03Z</time>
      </trkpt>
      <trkpt lat="48.48294" lon="-2.82573">
        <ele>138.4</ele>
        <time>2026-01-25T11:43:04Z</time>
      </trkpt>
      <trkpt lat="48.48289" lon="-2.82571">
        <ele>138.4</ele>
        <time>2026-01-25T11:43:05Z</time>
      </trkpt>
      <trkpt lat="48.48285" lon="-2.82568">
        <ele>138.4</ele>
        <time>2026-01-25T11:43:06Z</time>
      </trkpt>
      <trkpt lat="48.4828" lon="-2.82566">
        <ele>138</ele>
        <time>2026-01-25T11:43:07Z</time>
      </trkpt>
      <trkpt lat="48.48276" lon="-2.82563">
        <ele>138</ele>
        <time>2026-01-25T11:43:08Z</time>
      </trkpt>
      <trkpt lat="48.48271" lon="-2.82561">
        <ele>138</ele>
        <time>2026-01-25T11:43:09Z</time>
      </trkpt>
      <trkpt lat="48.48266" lon="-2.82559">
        <ele>138.6</ele>
        <time>2026-01-25T11:43:10Z</time>
      </trkpt>
      <trkpt lat="48.48262" lon="-2.82556">
        <ele>137.4</ele>
        <time>2026-01-25T11:43:11Z</time>
      </trkpt>
      <trkpt lat="48.48257" lon="-2.82555">
        <ele>137.4</ele>
        <time>2026-01-25T11:43:12Z</time>
      </trkpt>
      <trkpt lat="48.48253" lon="-2.82553">
        <ele>137.4</ele>
        <time>2026-01-25T11:43:13Z</time>
      </trkpt>
      <trkpt lat="48.48248" lon="-2.8255">
        <ele>137.8</ele>
        <time>2026-01-25T11:43:14Z</time>
      </trkpt>
      <trkpt lat="48.48243" lon="-2.82547">
        <ele>138.2</ele>
        <time>2026-01-25T11:43:15Z</time>
      </trkpt>
      <trkpt lat="48.48239" lon="-2.82545">
        <ele>138.2</ele>
        <time>2026-01-25T11:43:16Z</time>
      </trkpt>
      <trkpt lat="48.48234" lon="-2.82542">
        <ele>138.2</ele>
        <time>2026-01-25T11:43:17Z</time>
      </trkpt>
      <trkpt lat="48.48229" lon="-2.8254">
        <ele>138.2</ele>
        <time>2026-01-25T11:43:18Z</time>
      </trkpt>
      <trkpt lat="48.48224" lon="-2.82538">
        <ele>138.2</ele>
        <time>2026-01-25T11:43:19Z</time>
      </trkpt>
      <trkpt lat="48.48219" lon="-2.82535">
        <ele>138.2</ele>
        <time>2026-01-25T11:43:20Z</time>
      </trkpt>
      <trkpt lat="48.48214" lon="-2.82532">
        <ele>138.2</ele>
        <time>2026-01-25T11:43:21Z</time>
      </trkpt>
      <trkpt lat="48.48209" lon="-2.82529">
        <ele>137.6</ele>
        <time>2026-01-25T11:43:22Z</time>
      </trkpt>
      <trkpt lat="48.48203" lon="-2.82527">
        <ele>137.8</ele>
        <time>2026-01-25T11:43:23Z</time>
      </trkpt>
      <trkpt lat="48.48198" lon="-2.82524">
        <ele>137.8</ele>
        <time>2026-01-25T11:43:24Z</time>
      </trkpt>
      <trkpt lat="48.48192" lon="-2.82521">
        <ele>137.8</ele>
        <time>2026-01-25T11:43:25Z</time>
      </trkpt>
      <trkpt lat="48.48186" lon="-2.8252">
        <ele>137.8</ele>
        <time>2026-01-25T11:43:26Z</time>
      </trkpt>
      <trkpt lat="48.48179" lon="-2.82518">
        <ele>136.6</ele>
        <time>2026-01-25T11:43:27Z</time>
      </trkpt>
      <trkpt lat="48.48173" lon="-2.82518">
        <ele>136.6</ele>
        <time>2026-01-25T11:43:28Z</time>
      </trkpt>
      <trkpt lat="48.48167" lon="-2.82518">
        <ele>136.6</ele>
        <time>2026-01-25T11:43:29Z</time>
      </trkpt>
      <trkpt lat="48.4816" lon="-2.82519">
        <ele>136.4</ele>
        <time>2026-01-25T11:43:30Z</time>
      </trkpt>
      <trkpt lat="48.48154" lon="-2.82519">
        <ele>136.6</ele>
        <time>2026-01-25T11:43:31Z</time>
      </trkpt>
      <trkpt lat="48.48147" lon="-2.82519">
        <ele>136.6</ele>
        <time>2026-01-25T11:43:32Z</time>
      </trkpt>
      <trkpt lat="48.4814" lon="-2.8252">
        <ele>136.6</ele>
        <time>2026-01-25T11:43:33Z</time>
      </trkpt>
      <trkpt lat="48.48134" lon="-2.82519">
        <ele>136.2</ele>
        <time>2026-01-25T11:43:34Z</time>
      </trkpt>
      <trkpt lat="48.48127" lon="-2.82519">
        <ele>135.8</ele>
        <time>2026-01-25T11:43:35Z</time>
      </trkpt>
      <trkpt lat="48.4812" lon="-2.82518">
        <ele>135.8</ele>
        <time>2026-01-25T11:43:36Z</time>
      </trkpt>
      <trkpt lat="48.48113" lon="-2.82517">
        <ele>135.8</ele>
        <time>2026-01-25T11:43:37Z</time>
      </trkpt>
      <trkpt lat="48.48106" lon="-2.82516">
        <ele>135.8</ele>
        <time>2026-01-25T11:43:38Z</time>
      </trkpt>
      <trkpt lat="48.48099" lon="-2.82514">
        <ele>135.8</ele>
        <time>2026-01-25T11:43:39Z</time>
      </trkpt>
      <trkpt lat="48.48093" lon="-2.82512">
        <ele>135.8</ele>
        <time>2026-01-25T11:43:40Z</time>
      </trkpt>
      <trkpt lat="48.48086" lon="-2.8251">
        <ele>135.8</ele>
        <time>2026-01-25T11:43:41Z</time>
      </trkpt>
      <trkpt lat="48.48079" lon="-2.82508">
        <ele>134.8</ele>
        <time>2026-01-25T11:43:42Z</time>
      </trkpt>
      <trkpt lat="48.48072" lon="-2.82506">
        <ele>135.4</ele>
        <time>2026-01-25T11:43:43Z</time>
      </trkpt>
      <trkpt lat="48.48065" lon="-2.82504">
        <ele>135.4</ele>
        <time>2026-01-25T11:43:44Z</time>
      </trkpt>
      <trkpt lat="48.48058" lon="-2.82502">
        <ele>135.4</ele>
        <time>2026-01-25T11:43:45Z</time>
      </trkpt>
      <trkpt lat="48.48052" lon="-2.82499">
        <ele>135.2</ele>
        <time>2026-01-25T11:43:46Z</time>
      </trkpt>
      <trkpt lat="48.48045" lon="-2.82496">
        <ele>135.4</ele>
        <time>2026-01-25T11:43:47Z</time>
      </trkpt>
      <trkpt lat="48.48039" lon="-2.82491">
        <ele>135.4</ele>
        <time>2026-01-25T11:43:48Z</time>
      </trkpt>
      <trkpt lat="48.48034" lon="-2.82485">
        <ele>135.4</ele>
        <time>2026-01-25T11:43:49Z</time>
      </trkpt>
      <trkpt lat="48.4803" lon="-2.82478">
        <ele>135.4</ele>
        <time>2026-01-25T11:43:50Z</time>
      </trkpt>
      <trkpt lat="48.48026" lon="-2.8247">
        <ele>135.2</ele>
        <time>2026-01-25T11:43:51Z</time>
      </trkpt>
      <trkpt lat="48.48023" lon="-2.82462">
        <ele>135.2</ele>
        <time>2026-01-25T11:43:52Z</time>
      </trkpt>
      <trkpt lat="48.48019" lon="-2.82454">
        <ele>135.2</ele>
        <time>2026-01-25T11:43:53Z</time>
      </trkpt>
      <trkpt lat="48.48016" lon="-2.82446">
        <ele>135.2</ele>
        <time>2026-01-25T11:43:54Z</time>
      </trkpt>
      <trkpt lat="48.48012" lon="-2.82438">
        <ele>135.4</ele>
        <time>2026-01-25T11:43:55Z</time>
      </trkpt>
      <trkpt lat="48.48009" lon="-2.8243">
        <ele>135.4</ele>
        <time>2026-01-25T11:43:56Z</time>
      </trkpt>
      <trkpt lat="48.48005" lon="-2.82423">
        <ele>135.4</ele>
        <time>2026-01-25T11:43:57Z</time>
      </trkpt>
      <trkpt lat="48.48" lon="-2.82417">
        <ele>134.4</ele>
        <time>2026-01-25T11:43:58Z</time>
      </trkpt>
      <trkpt lat="48.47995" lon="-2.82414">
        <ele>132.4</ele>
        <time>2026-01-25T11:43:59Z</time>
      </trkpt>
      <trkpt lat="48.47989" lon="-2.82413">
        <ele>132.4</ele>
        <time>2026-01-25T11:44:00Z</time>
      </trkpt>
      <trkpt lat="48.47983" lon="-2.82415">
        <ele>132.4</ele>
        <time>2026-01-25T11:44:01Z</time>
      </trkpt>
      <trkpt lat="48.47978" lon="-2.82418">
        <ele>133.4</ele>
        <time>2026-01-25T11:44:02Z</time>
      </trkpt>
      <trkpt lat="48.47972" lon="-2.8242">
        <ele>133.4</ele>
        <time>2026-01-25T11:44:03Z</time>
      </trkpt>
      <trkpt lat="48.47966" lon="-2.82423">
        <ele>133.4</ele>
        <time>2026-01-25T11:44:04Z</time>
      </trkpt>
      <trkpt lat="48.47961" lon="-2.82425">
        <ele>133.4</ele>
        <time>2026-01-25T11:44:05Z</time>
      </trkpt>
      <trkpt lat="48.47955" lon="-2.82428">
        <ele>133.4</ele>
        <time>2026-01-25T11:44:06Z</time>
      </trkpt>
      <trkpt lat="48.4795" lon="-2.82431">
        <ele>133.8</ele>
        <time>2026-01-25T11:44:07Z</time>
      </trkpt>
      <trkpt lat="48.47944" lon="-2.82434">
        <ele>133.8</ele>
        <time>2026-01-25T11:44:08Z</time>
      </trkpt>
      <trkpt lat="48.47938" lon="-2.82437">
        <ele>133.8</ele>
        <time>2026-01-25T11:44:09Z</time>
      </trkpt>
      <trkpt lat="48.47933" lon="-2.8244">
        <ele>133.8</ele>
        <time>2026-01-25T11:44:10Z</time>
      </trkpt>
      <trkpt lat="48.47927" lon="-2.82443">
        <ele>134</ele>
        <time>2026-01-25T11:44:11Z</time>
      </trkpt>
      <trkpt lat="48.47922" lon="-2.82445">
        <ele>134</ele>
        <time>2026-01-25T11:44:12Z</time>
      </trkpt>
      <trkpt lat="48.47917" lon="-2.82447">
        <ele>134</ele>
        <time>2026-01-25T11:44:13Z</time>
      </trkpt>
      <trkpt lat="48.47911" lon="-2.82448">
        <ele>134</ele>
        <time>2026-01-25T11:44:14Z</time>
      </trkpt>
      <trkpt lat="48.47906" lon="-2.82447">
        <ele>136.4</ele>
        <time>2026-01-25T11:44:15Z</time>
      </trkpt>
      <trkpt lat="48.47902" lon="-2.82443">
        <ele>136.4</ele>
        <time>2026-01-25T11:44:16Z</time>
      </trkpt>
      <trkpt lat="48.479" lon="-2.82436">
        <ele>136.4</ele>
        <time>2026-01-25T11:44:17Z</time>
      </trkpt>
      <trkpt lat="48.479" lon="-2.82427">
        <ele>137.4</ele>
        <time>2026-01-25T11:44:18Z</time>
      </trkpt>
      <trkpt lat="48.47901" lon="-2.82419">
        <ele>137</ele>
        <time>2026-01-25T11:44:19Z</time>
      </trkpt>
      <trkpt lat="48.47904" lon="-2.8241">
        <ele>137</ele>
        <time>2026-01-25T11:44:20Z</time>
      </trkpt>
      <trkpt lat="48.47907" lon="-2.82401">
        <ele>137</ele>
        <time>2026-01-25T11:44:21Z</time>
      </trkpt>
      <trkpt lat="48.47911" lon="-2.82392">
        <ele>137</ele>
        <time>2026-01-25T11:44:22Z</time>
      </trkpt>
      <trkpt lat="48.47915" lon="-2.82383">
        <ele>137.6</ele>
        <time>2026-01-25T11:44:23Z</time>
      </trkpt>
      <trkpt lat="48.47918" lon="-2.82374">
        <ele>137.6</ele>
        <time>2026-01-25T11:44:24Z</time>
      </trkpt>
      <trkpt lat="48.47922" lon="-2.82364">
        <ele>137.6</ele>
        <time>2026-01-25T11:44:25Z</time>
      </trkpt>
      <trkpt lat="48.47926" lon="-2.82354">
        <ele>136.6</ele>
        <time>2026-01-25T11:44:26Z</time>
      </trkpt>
      <trkpt lat="48.4793" lon="-2.82344">
        <ele>136</ele>
        <time>2026-01-25T11:44:27Z</time>
      </trkpt>
      <trkpt lat="48.47934" lon="-2.82334">
        <ele>136</ele>
        <time>2026-01-25T11:44:28Z</time>
      </trkpt>
      <trkpt lat="48.47938" lon="-2.82324">
        <ele>136</ele>
        <time>2026-01-25T11:44:29Z</time>
      </trkpt>
      <trkpt lat="48.47942" lon="-2.82313">
        <ele>135.4</ele>
        <time>2026-01-25T11:44:30Z</time>
      </trkpt>
      <trkpt lat="48.47946" lon="-2.82302">
        <ele>135.2</ele>
        <time>2026-01-25T11:44:31Z</time>
      </trkpt>
      <trkpt lat="48.4795" lon="-2.82291">
        <ele>135.2</ele>
        <time>2026-01-25T11:44:32Z</time>
      </trkpt>
      <trkpt lat="48.47953" lon="-2.8228">
        <ele>135.2</ele>
        <time>2026-01-25T11:44:33Z</time>
      </trkpt>
      <trkpt lat="48.47957" lon="-2.82269">
        <ele>134.8</ele>
        <time>2026-01-25T11:44:34Z</time>
      </trkpt>
      <trkpt lat="48.4796" lon="-2.82257">
        <ele>135</ele>
        <time>2026-01-25T11:44:35Z</time>
      </trkpt>
      <trkpt lat="48.47964" lon="-2.82246">
        <ele>135</ele>
        <time>2026-01-25T11:44:36Z</time>
      </trkpt>
      <trkpt lat="48.47967" lon="-2.82234">
        <ele>135</ele>
        <time>2026-01-25T11:44:37Z</time>
      </trkpt>
      <trkpt lat="48.47971" lon="-2.82222">
        <ele>134</ele>
        <time>2026-01-25T11:44:38Z</time>
      </trkpt>
      <trkpt lat="48.47974" lon="-2.8221">
        <ele>134.2</ele>
        <time>2026-01-25T11:44:39Z</time>
      </trkpt>
      <trkpt lat="48.47978" lon="-2.82198">
        <ele>134.2</ele>
        <time>2026-01-25T11:44:40Z</time>
      </trkpt>
      <trkpt lat="48.47981" lon="-2.82186">
        <ele>134.2</ele>
        <time>2026-01-25T11:44:41Z</time>
      </trkpt>
      <trkpt lat="48.47984" lon="-2.82174">
        <ele>134.2</ele>
        <time>2026-01-25T11:44:42Z</time>
      </trkpt>
      <trkpt lat="48.47987" lon="-2.82161">
        <ele>133.2</ele>
        <time>2026-01-25T11:44:43Z</time>
      </trkpt>
      <trkpt lat="48.47989" lon="-2.82149">
        <ele>133.2</ele>
        <time>2026-01-25T11:44:44Z</time>
      </trkpt>
      <trkpt lat="48.47991" lon="-2.82135">
        <ele>133.2</ele>
        <time>2026-01-25T11:44:45Z</time>
      </trkpt>
      <trkpt lat="48.47994" lon="-2.82122">
        <ele>132.2</ele>
        <time>2026-01-25T11:44:46Z</time>
      </trkpt>
      <trkpt lat="48.47996" lon="-2.82108">
        <ele>129.4</ele>
        <time>2026-01-25T11:44:47Z</time>
      </trkpt>
      <trkpt lat="48.47999" lon="-2.82095">
        <ele>129.4</ele>
        <time>2026-01-25T11:44:48Z</time>
      </trkpt>
      <trkpt lat="48.48002" lon="-2.82081">
        <ele>129.4</ele>
        <time>2026-01-25T11:44:49Z</time>
      </trkpt>
      <trkpt lat="48.48005" lon="-2.82068">
        <ele>130</ele>
        <time>2026-01-25T11:44:50Z</time>
      </trkpt>
      <trkpt lat="48.48008" lon="-2.82055">
        <ele>129.6</ele>
        <time>2026-01-25T11:44:51Z</time>
      </trkpt>
      <trkpt lat="48.48012" lon="-2.82042">
        <ele>129.6</ele>
        <time>2026-01-25T11:44:52Z</time>
      </trkpt>
      <trkpt lat="48.48016" lon="-2.82029">
        <ele>129.6</ele>
        <time>2026-01-25T11:44:53Z</time>
      </trkpt>
      <trkpt lat="48.4802" lon="-2.82017">
        <ele>129.6</ele>
        <time>2026-01-25T11:44:54Z</time>
      </trkpt>
      <trkpt lat="48.48025" lon="-2.82005">
        <ele>130.6</ele>
        <time>2026-01-25T11:44:55Z</time>
      </trkpt>
      <trkpt lat="48.48029" lon="-2.81994">
        <ele>130.6</ele>
        <time>2026-01-25T11:44:56Z</time>
      </trkpt>
      <trkpt lat="48.48034" lon="-2.81983">
        <ele>130.6</ele>
        <time>2026-01-25T11:44:57Z</time>
      </trkpt>
      <trkpt lat="48.48039" lon="-2.81972">
        <ele>131.6</ele>
        <time>2026-01-25T11:44:58Z</time>
      </trkpt>
      <trkpt lat="48.48044" lon="-2.81961">
        <ele>131.6</ele>
        <time>2026-01-25T11:44:59Z</time>
      </trkpt>
      <trkpt lat="48.48049" lon="-2.81951">
        <ele>131.6</ele>
        <time>2026-01-25T11:45:00Z</time>
      </trkpt>
      <trkpt lat="48.48055" lon="-2.81941">
        <ele>131.6</ele>
        <time>2026-01-25T11:45:01Z</time>
      </trkpt>
      <trkpt lat="48.4806" lon="-2.8193">
        <ele>131</ele>
        <time>2026-01-25T11:45:02Z</time>
      </trkpt>
      <trkpt lat="48.48065" lon="-2.8192">
        <ele>130.8</ele>
        <time>2026-01-25T11:45:03Z</time>
      </trkpt>
      <trkpt lat="48.4807" lon="-2.81909">
        <ele>130.8</ele>
        <time>2026-01-25T11:45:04Z</time>
      </trkpt>
      <trkpt lat="48.48075" lon="-2.81898">
        <ele>130.8</ele>
        <time>2026-01-25T11:45:05Z</time>
      </trkpt>
      <trkpt lat="48.48079" lon="-2.81887">
        <ele>130.6</ele>
        <time>2026-01-25T11:45:06Z</time>
      </trkpt>
      <trkpt lat="48.48084" lon="-2.81876">
        <ele>129.8</ele>
        <time>2026-01-25T11:45:07Z</time>
      </trkpt>
      <trkpt lat="48.48088" lon="-2.81864">
        <ele>129.8</ele>
        <time>2026-01-25T11:45:08Z</time>
      </trkpt>
      <trkpt lat="48.48091" lon="-2.81852">
        <ele>129.8</ele>
        <time>2026-01-25T11:45:09Z</time>
      </trkpt>
      <trkpt lat="48.48095" lon="-2.81841">
        <ele>130.8</ele>
        <time>2026-01-25T11:45:10Z</time>
      </trkpt>
      <trkpt lat="48.48097" lon="-2.81829">
        <ele>130.2</ele>
        <time>2026-01-25T11:45:11Z</time>
      </trkpt>
      <trkpt lat="48.481" lon="-2.81817">
        <ele>130.2</ele>
        <time>2026-01-25T11:45:12Z</time>
      </trkpt>
      <trkpt lat="48.48102" lon="-2.81805">
        <ele>130.2</ele>
        <time>2026-01-25T11:45:13Z</time>
      </trkpt>
      <trkpt lat="48.48104" lon="-2.81793">
        <ele>130.8</ele>
        <time>2026-01-25T11:45:14Z</time>
      </trkpt>
      <trkpt lat="48.48105" lon="-2.81782">
        <ele>131.4</ele>
        <time>2026-01-25T11:45:15Z</time>
      </trkpt>
      <trkpt lat="48.48107" lon="-2.81771">
        <ele>131.4</ele>
        <time>2026-01-25T11:45:16Z</time>
      </trkpt>
      <trkpt lat="48.48109" lon="-2.8176">
        <ele>131.4</ele>
        <time>2026-01-25T11:45:17Z</time>
      </trkpt>
      <trkpt lat="48.4811" lon="-2.8175">
        <ele>132.4</ele>
        <time>2026-01-25T11:45:18Z</time>
      </trkpt>
      <trkpt lat="48.48111" lon="-2.8174">
        <ele>133.8</ele>
        <time>2026-01-25T11:45:19Z</time>
      </trkpt>
      <trkpt lat="48.48113" lon="-2.81729">
        <ele>133.8</ele>
        <time>2026-01-25T11:45:20Z</time>
      </trkpt>
      <trkpt lat="48.48115" lon="-2.81719">
        <ele>133.8</ele>
        <time>2026-01-25T11:45:21Z</time>
      </trkpt>
      <trkpt lat="48.48116" lon="-2.81709">
        <ele>133.8</ele>
        <time>2026-01-25T11:45:22Z</time>
      </trkpt>
      <trkpt lat="48.48118" lon="-2.81699">
        <ele>134.4</ele>
        <time>2026-01-25T11:45:23Z</time>
      </trkpt>
      <trkpt lat="48.48119" lon="-2.8169">
        <ele>134.4</ele>
        <time>2026-01-25T11:45:24Z</time>
      </trkpt>
      <trkpt lat="48.4812" lon="-2.8168">
        <ele>134.4</ele>
        <time>2026-01-25T11:45:25Z</time>
      </trkpt>
      <trkpt lat="48.48122" lon="-2.81671">
        <ele>135.4</ele>
        <time>2026-01-25T11:45:26Z</time>
      </trkpt>
      <trkpt lat="48.48123" lon="-2.81662">
        <ele>135</ele>
        <time>2026-01-25T11:45:27Z</time>
      </trkpt>
      <trkpt lat="48.48124" lon="-2.81653">
        <ele>135</ele>
        <time>2026-01-25T11:45:28Z</time>
      </trkpt>
      <trkpt lat="48.48125" lon="-2.81645">
        <ele>135</ele>
        <time>2026-01-25T11:45:29Z</time>
      </trkpt>
      <trkpt lat="48.48127" lon="-2.81636">
        <ele>136</ele>
        <time>2026-01-25T11:45:30Z</time>
      </trkpt>
      <trkpt lat="48.48128" lon="-2.81627">
        <ele>135.6</ele>
        <time>2026-01-25T11:45:31Z</time>
      </trkpt>
      <trkpt lat="48.48129" lon="-2.81618">
        <ele>135.6</ele>
        <time>2026-01-25T11:45:32Z</time>
      </trkpt>
      <trkpt lat="48.4813" lon="-2.81609">
        <ele>135.6</ele>
        <time>2026-01-25T11:45:33Z</time>
      </trkpt>
      <trkpt lat="48.48131" lon="-2.81599">
        <ele>135.6</ele>
        <time>2026-01-25T11:45:34Z</time>
      </trkpt>
      <trkpt lat="48.48131" lon="-2.8159">
        <ele>135.2</ele>
        <time>2026-01-25T11:45:35Z</time>
      </trkpt>
      <trkpt lat="48.48132" lon="-2.8158">
        <ele>135.2</ele>
        <time>2026-01-25T11:45:36Z</time>
      </trkpt>
      <trkpt lat="48.48132" lon="-2.8157">
        <ele>135.2</ele>
        <time>2026-01-25T11:45:37Z</time>
      </trkpt>
      <trkpt lat="48.48132" lon="-2.8156">
        <ele>135.2</ele>
        <time>2026-01-25T11:45:38Z</time>
      </trkpt>
      <trkpt lat="48.48133" lon="-2.8155">
        <ele>134.8</ele>
        <time>2026-01-25T11:45:39Z</time>
      </trkpt>
      <trkpt lat="48.48133" lon="-2.81539">
        <ele>134.8</ele>
        <time>2026-01-25T11:45:40Z</time>
      </trkpt>
      <trkpt lat="48.48132" lon="-2.81529">
        <ele>134.8</ele>
        <time>2026-01-25T11:45:41Z</time>
      </trkpt>
      <trkpt lat="48.48132" lon="-2.81518">
        <ele>134.8</ele>
        <time>2026-01-25T11:45:42Z</time>
      </trkpt>
      <trkpt lat="48.48132" lon="-2.81507">
        <ele>134.6</ele>
        <time>2026-01-25T11:45:43Z</time>
      </trkpt>
      <trkpt lat="48.48132" lon="-2.81497">
        <ele>134.6</ele>
        <time>2026-01-25T11:45:44Z</time>
      </trkpt>
      <trkpt lat="48.48131" lon="-2.81486">
        <ele>134.6</ele>
        <time>2026-01-25T11:45:45Z</time>
      </trkpt>
      <trkpt lat="48.4813" lon="-2.81475">
        <ele>134.6</ele>
        <time>2026-01-25T11:45:46Z</time>
      </trkpt>
      <trkpt lat="48.4813" lon="-2.81463">
        <ele>134</ele>
        <time>2026-01-25T11:45:47Z</time>
      </trkpt>
      <trkpt lat="48.48129" lon="-2.81452">
        <ele>134</ele>
        <time>2026-01-25T11:45:48Z</time>
      </trkpt>
      <trkpt lat="48.48129" lon="-2.81441">
        <ele>134</ele>
        <time>2026-01-25T11:45:49Z</time>
      </trkpt>
      <trkpt lat="48.48129" lon="-2.81429">
        <ele>134</ele>
        <time>2026-01-25T11:45:50Z</time>
      </trkpt>
      <trkpt lat="48.48129" lon="-2.81418">
        <ele>134.2</ele>
        <time>2026-01-25T11:45:51Z</time>
      </trkpt>
      <trkpt lat="48.48129" lon="-2.81406">
        <ele>134.2</ele>
        <time>2026-01-25T11:45:52Z</time>
      </trkpt>
      <trkpt lat="48.4813" lon="-2.81395">
        <ele>134.2</ele>
        <time>2026-01-25T11:45:53Z</time>
      </trkpt>
      <trkpt lat="48.48131" lon="-2.81383">
        <ele>134.2</ele>
        <time>2026-01-25T11:45:54Z</time>
      </trkpt>
      <trkpt lat="48.48132" lon="-2.81372">
        <ele>134.8</ele>
        <time>2026-01-25T11:45:55Z</time>
      </trkpt>
      <trkpt lat="48.48134" lon="-2.81361">
        <ele>134.8</ele>
        <time>2026-01-25T11:45:56Z</time>
      </trkpt>
      <trkpt lat="48.48136" lon="-2.8135">
        <ele>134.8</ele>
        <time>2026-01-25T11:45:57Z</time>
      </trkpt>
      <trkpt lat="48.48138" lon="-2.8134">
        <ele>135.4</ele>
        <time>2026-01-25T11:45:58Z</time>
      </trkpt>
      <trkpt lat="48.4814" lon="-2.8133">
        <ele>135.6</ele>
        <time>2026-01-25T11:45:59Z</time>
      </trkpt>
      <trkpt lat="48.48143" lon="-2.8132">
        <ele>135.6</ele>
        <time>2026-01-25T11:46:00Z</time>
      </trkpt>
      <trkpt lat="48.48146" lon="-2.8131">
        <ele>135.6</ele>
        <time>2026-01-25T11:46:01Z</time>
      </trkpt>
      <trkpt lat="48.48149" lon="-2.81301">
        <ele>135.6</ele>
        <time>2026-01-25T11:46:02Z</time>
      </trkpt>
      <trkpt lat="48.48153" lon="-2.81291">
        <ele>135.4</ele>
        <time>2026-01-25T11:46:03Z</time>
      </trkpt>
      <trkpt lat="48.48156" lon="-2.81282">
        <ele>135.4</ele>
        <time>2026-01-25T11:46:04Z</time>
      </trkpt>
      <trkpt lat="48.4816" lon="-2.81273">
        <ele>135.4</ele>
        <time>2026-01-25T11:46:05Z</time>
      </trkpt>
      <trkpt lat="48.48163" lon="-2.81264">
        <ele>135.4</ele>
        <time>2026-01-25T11:46:06Z</time>
      </trkpt>
      <trkpt lat="48.48167" lon="-2.81255">
        <ele>135.2</ele>
        <time>2026-01-25T11:46:07Z</time>
      </trkpt>
      <trkpt lat="48.4817" lon="-2.81246">
        <ele>135.2</ele>
        <time>2026-01-25T11:46:08Z</time>
      </trkpt>
      <trkpt lat="48.48174" lon="-2.81237">
        <ele>135.2</ele>
        <time>2026-01-25T11:46:09Z</time>
      </trkpt>
      <trkpt lat="48.48177" lon="-2.81229">
        <ele>135.6</ele>
        <time>2026-01-25T11:46:10Z</time>
      </trkpt>
      <trkpt lat="48.48181" lon="-2.8122">
        <ele>135.8</ele>
        <time>2026-01-25T11:46:11Z</time>
      </trkpt>
      <trkpt lat="48.48183" lon="-2.8121">
        <ele>135.8</ele>
        <time>2026-01-25T11:46:12Z</time>
      </trkpt>
      <trkpt lat="48.48184" lon="-2.81201">
        <ele>135.8</ele>
        <time>2026-01-25T11:46:13Z</time>
      </trkpt>
      <trkpt lat="48.48183" lon="-2.81191">
        <ele>136.8</ele>
        <time>2026-01-25T11:46:14Z</time>
      </trkpt>
      <trkpt lat="48.48179" lon="-2.81182">
        <ele>136.4</ele>
        <time>2026-01-25T11:46:15Z</time>
      </trkpt>
      <trkpt lat="48.48175" lon="-2.81175">
        <ele>136.4</ele>
        <time>2026-01-25T11:46:16Z</time>
      </trkpt>
      <trkpt lat="48.48169" lon="-2.81169">
        <ele>136.4</ele>
        <time>2026-01-25T11:46:17Z</time>
      </trkpt>
      <trkpt lat="48.48163" lon="-2.81164">
        <ele>135.8</ele>
        <time>2026-01-25T11:46:18Z</time>
      </trkpt>
      <trkpt lat="48.48158" lon="-2.81158">
        <ele>136.4</ele>
        <time>2026-01-25T11:46:19Z</time>
      </trkpt>
      <trkpt lat="48.48152" lon="-2.81153">
        <ele>136.4</ele>
        <time>2026-01-25T11:46:20Z</time>
      </trkpt>
      <trkpt lat="48.48146" lon="-2.81148">
        <ele>136.4</ele>
        <time>2026-01-25T11:46:21Z</time>
      </trkpt>
      <trkpt lat="48.48141" lon="-2.81142">
        <ele>136.8</ele>
        <time>2026-01-25T11:46:22Z</time>
      </trkpt>
      <trkpt lat="48.48135" lon="-2.81136">
        <ele>136.4</ele>
        <time>2026-01-25T11:46:23Z</time>
      </trkpt>
      <trkpt lat="48.4813" lon="-2.8113">
        <ele>136.4</ele>
        <time>2026-01-25T11:46:24Z</time>
      </trkpt>
      <trkpt lat="48.48124" lon="-2.81124">
        <ele>136.4</ele>
        <time>2026-01-25T11:46:25Z</time>
      </trkpt>
      <trkpt lat="48.48119" lon="-2.81118">
        <ele>136.4</ele>
        <time>2026-01-25T11:46:26Z</time>
      </trkpt>
      <trkpt lat="48.48113" lon="-2.81112">
        <ele>136.4</ele>
        <time>2026-01-25T11:46:27Z</time>
      </trkpt>
      <trkpt lat="48.48108" lon="-2.81106">
        <ele>136.4</ele>
        <time>2026-01-25T11:46:28Z</time>
      </trkpt>
      <trkpt lat="48.48103" lon="-2.811">
        <ele>136.4</ele>
        <time>2026-01-25T11:46:29Z</time>
      </trkpt>
      <trkpt lat="48.48098" lon="-2.81094">
        <ele>136.4</ele>
        <time>2026-01-25T11:46:30Z</time>
      </trkpt>
      <trkpt lat="48.48092" lon="-2.81088">
        <ele>136.4</ele>
        <time>2026-01-25T11:46:31Z</time>
      </trkpt>
      <trkpt lat="48.48087" lon="-2.81083">
        <ele>136.4</ele>
        <time>2026-01-25T11:46:32Z</time>
      </trkpt>
      <trkpt lat="48.48082" lon="-2.81077">
        <ele>136.4</ele>
        <time>2026-01-25T11:46:33Z</time>
      </trkpt>
      <trkpt lat="48.48077" lon="-2.81071">
        <ele>137.4</ele>
        <time>2026-01-25T11:46:34Z</time>
      </trkpt>
      <trkpt lat="48.48071" lon="-2.81065">
        <ele>137.8</ele>
        <time>2026-01-25T11:46:35Z</time>
      </trkpt>
      <trkpt lat="48.48066" lon="-2.81059">
        <ele>137.8</ele>
        <time>2026-01-25T11:46:36Z</time>
      </trkpt>
      <trkpt lat="48.48061" lon="-2.81053">
        <ele>137.8</ele>
        <time>2026-01-25T11:46:37Z</time>
      </trkpt>
      <trkpt lat="48.48056" lon="-2.81047">
        <ele>137.8</ele>
        <time>2026-01-25T11:46:38Z</time>
      </trkpt>
      <trkpt lat="48.48052" lon="-2.8104">
        <ele>136.6</ele>
        <time>2026-01-25T11:46:39Z</time>
      </trkpt>
      <trkpt lat="48.48047" lon="-2.81033">
        <ele>136.6</ele>
        <time>2026-01-25T11:46:40Z</time>
      </trkpt>
      <trkpt lat="48.48042" lon="-2.81027">
        <ele>136.6</ele>
        <time>2026-01-25T11:46:41Z</time>
      </trkpt>
      <trkpt lat="48.48038" lon="-2.8102">
        <ele>136.6</ele>
        <time>2026-01-25T11:46:42Z</time>
      </trkpt>
      <trkpt lat="48.48033" lon="-2.81013">
        <ele>137.2</ele>
        <time>2026-01-25T11:46:43Z</time>
      </trkpt>
      <trkpt lat="48.48029" lon="-2.81006">
        <ele>137.2</ele>
        <time>2026-01-25T11:46:44Z</time>
      </trkpt>
      <trkpt lat="48.48024" lon="-2.80998">
        <ele>137.2</ele>
        <time>2026-01-25T11:46:45Z</time>
      </trkpt>
      <trkpt lat="48.4802" lon="-2.80991">
        <ele>137.2</ele>
        <time>2026-01-25T11:46:46Z</time>
      </trkpt>
      <trkpt lat="48.48015" lon="-2.80984">
        <ele>137.2</ele>
        <time>2026-01-25T11:46:47Z</time>
      </trkpt>
      <trkpt lat="48.4801" lon="-2.80976">
        <ele>137.2</ele>
        <time>2026-01-25T11:46:48Z</time>
      </trkpt>
      <trkpt lat="48.48005" lon="-2.80969">
        <ele>137.2</ele>
        <time>2026-01-25T11:46:49Z</time>
      </trkpt>
      <trkpt lat="48.48001" lon="-2.80961">
        <ele>136.8</ele>
        <time>2026-01-25T11:46:50Z</time>
      </trkpt>
      <trkpt lat="48.47996" lon="-2.80952">
        <ele>136</ele>
        <time>2026-01-25T11:46:51Z</time>
      </trkpt>
      <trkpt lat="48.47991" lon="-2.80944">
        <ele>136</ele>
        <time>2026-01-25T11:46:52Z</time>
      </trkpt>
      <trkpt lat="48.47986" lon="-2.80936">
        <ele>136</ele>
        <time>2026-01-25T11:46:53Z</time>
      </trkpt>
      <trkpt lat="48.47981" lon="-2.80928">
        <ele>136</ele>
        <time>2026-01-25T11:46:54Z</time>
      </trkpt>
      <trkpt lat="48.47976" lon="-2.8092">
        <ele>135.8</ele>
        <time>2026-01-25T11:46:55Z</time>
      </trkpt>
      <trkpt lat="48.47971" lon="-2.80912">
        <ele>135.8</ele>
        <time>2026-01-25T11:46:56Z</time>
      </trkpt>
      <trkpt lat="48.47967" lon="-2.80904">
        <ele>135.8</ele>
        <time>2026-01-25T11:46:57Z</time>
      </trkpt>
      <trkpt lat="48.47962" lon="-2.80897">
        <ele>135.8</ele>
        <time>2026-01-25T11:46:58Z</time>
      </trkpt>
      <trkpt lat="48.47958" lon="-2.80889">
        <ele>136.6</ele>
        <time>2026-01-25T11:46:59Z</time>
      </trkpt>
      <trkpt lat="48.47953" lon="-2.80883">
        <ele>136.6</ele>
        <time>2026-01-25T11:47:00Z</time>
      </trkpt>
      <trkpt lat="48.47947" lon="-2.80878">
        <ele>136.6</ele>
        <time>2026-01-25T11:47:01Z</time>
      </trkpt>
      <trkpt lat="48.47941" lon="-2.80877">
        <ele>135.6</ele>
        <time>2026-01-25T11:47:02Z</time>
      </trkpt>
      <trkpt lat="48.47934" lon="-2.80878">
        <ele>134.4</ele>
        <time>2026-01-25T11:47:03Z</time>
      </trkpt>
      <trkpt lat="48.47928" lon="-2.80881">
        <ele>134.4</ele>
        <time>2026-01-25T11:47:04Z</time>
      </trkpt>
      <trkpt lat="48.47923" lon="-2.80886">
        <ele>134.4</ele>
        <time>2026-01-25T11:47:05Z</time>
      </trkpt>
      <trkpt lat="48.47917" lon="-2.8089">
        <ele>134.4</ele>
        <time>2026-01-25T11:47:06Z</time>
      </trkpt>
      <trkpt lat="48.47911" lon="-2.80893">
        <ele>135</ele>
        <time>2026-01-25T11:47:07Z</time>
      </trkpt>
      <trkpt lat="48.47906" lon="-2.80896">
        <ele>135</ele>
        <time>2026-01-25T11:47:08Z</time>
      </trkpt>
      <trkpt lat="48.479" lon="-2.80899">
        <ele>135</ele>
        <time>2026-01-25T11:47:09Z</time>
      </trkpt>
      <trkpt lat="48.47894" lon="-2.80901">
        <ele>135.2</ele>
        <time>2026-01-25T11:47:10Z</time>
      </trkpt>
      <trkpt lat="48.47888" lon="-2.80902">
        <ele>135.4</ele>
        <time>2026-01-25T11:47:11Z</time>
      </trkpt>
      <trkpt lat="48.47882" lon="-2.80902">
        <ele>135.4</ele>
        <time>2026-01-25T11:47:12Z</time>
      </trkpt>
      <trkpt lat="48.47876" lon="-2.80902">
        <ele>135.4</ele>
        <time>2026-01-25T11:47:13Z</time>
      </trkpt>
      <trkpt lat="48.4787" lon="-2.80902">
        <ele>136.4</ele>
        <time>2026-01-25T11:47:14Z</time>
      </trkpt>
      <trkpt lat="48.47864" lon="-2.80901">
        <ele>136.6</ele>
        <time>2026-01-25T11:47:15Z</time>
      </trkpt>
      <trkpt lat="48.47858" lon="-2.80901">
        <ele>136.6</ele>
        <time>2026-01-25T11:47:16Z</time>
      </trkpt>
      <trkpt lat="48.47853" lon="-2.80899">
        <ele>136.6</ele>
        <time>2026-01-25T11:47:17Z</time>
      </trkpt>
      <trkpt lat="48.47847" lon="-2.80897">
        <ele>136.6</ele>
        <time>2026-01-25T11:47:18Z</time>
      </trkpt>
      <trkpt lat="48.47841" lon="-2.80895">
        <ele>136.6</ele>
        <time>2026-01-25T11:47:19Z</time>
      </trkpt>
      <trkpt lat="48.47836" lon="-2.80892">
        <ele>136.6</ele>
        <time>2026-01-25T11:47:20Z</time>
      </trkpt>
      <trkpt lat="48.4783" lon="-2.80888">
        <ele>136.6</ele>
        <time>2026-01-25T11:47:21Z</time>
      </trkpt>
      <trkpt lat="48.47825" lon="-2.80885">
        <ele>137.2</ele>
        <time>2026-01-25T11:47:22Z</time>
      </trkpt>
      <trkpt lat="48.47819" lon="-2.8088">
        <ele>137.6</ele>
        <time>2026-01-25T11:47:23Z</time>
      </trkpt>
      <trkpt lat="48.47814" lon="-2.80876">
        <ele>137.6</ele>
        <time>2026-01-25T11:47:24Z</time>
      </trkpt>
      <trkpt lat="48.47809" lon="-2.80871">
        <ele>137.6</ele>
        <time>2026-01-25T11:47:25Z</time>
      </trkpt>
      <trkpt lat="48.47803" lon="-2.80865">
        <ele>136.6</ele>
        <time>2026-01-25T11:47:26Z</time>
      </trkpt>
      <trkpt lat="48.47798" lon="-2.8086">
        <ele>136.4</ele>
        <time>2026-01-25T11:47:27Z</time>
      </trkpt>
      <trkpt lat="48.47792" lon="-2.80854">
        <ele>136.4</ele>
        <time>2026-01-25T11:47:28Z</time>
      </trkpt>
      <trkpt lat="48.47787" lon="-2.80848">
        <ele>136.4</ele>
        <time>2026-01-25T11:47:29Z</time>
      </trkpt>
      <trkpt lat="48.47782" lon="-2.80842">
        <ele>136</ele>
        <time>2026-01-25T11:47:30Z</time>
      </trkpt>
      <trkpt lat="48.47776" lon="-2.80835">
        <ele>136</ele>
        <time>2026-01-25T11:47:31Z</time>
      </trkpt>
      <trkpt lat="48.47771" lon="-2.80829">
        <ele>136</ele>
        <time>2026-01-25T11:47:32Z</time>
      </trkpt>
      <trkpt lat="48.47765" lon="-2.80822">
        <ele>136</ele>
        <time>2026-01-25T11:47:33Z</time>
      </trkpt>
      <trkpt lat="48.47759" lon="-2.80816">
        <ele>135.2</ele>
        <time>2026-01-25T11:47:34Z</time>
      </trkpt>
      <trkpt lat="48.47753" lon="-2.80809">
        <ele>134.6</ele>
        <time>2026-01-25T11:47:35Z</time>
      </trkpt>
      <trkpt lat="48.47747" lon="-2.80802">
        <ele>134.6</ele>
        <time>2026-01-25T11:47:36Z</time>
      </trkpt>
      <trkpt lat="48.47742" lon="-2.80794">
        <ele>134.6</ele>
        <time>2026-01-25T11:47:37Z</time>
      </trkpt>
      <trkpt lat="48.47736" lon="-2.80787">
        <ele>134.6</ele>
        <time>2026-01-25T11:47:38Z</time>
      </trkpt>
      <trkpt lat="48.4773" lon="-2.80779">
        <ele>134.4</ele>
        <time>2026-01-25T11:47:39Z</time>
      </trkpt>
      <trkpt lat="48.47724" lon="-2.80772">
        <ele>134.4</ele>
        <time>2026-01-25T11:47:40Z</time>
      </trkpt>
      <trkpt lat="48.47718" lon="-2.80764">
        <ele>134.4</ele>
        <time>2026-01-25T11:47:41Z</time>
      </trkpt>
      <trkpt lat="48.47712" lon="-2.80756">
        <ele>134.4</ele>
        <time>2026-01-25T11:47:42Z</time>
      </trkpt>
      <trkpt lat="48.47706" lon="-2.80748">
        <ele>133.4</ele>
        <time>2026-01-25T11:47:43Z</time>
      </trkpt>
      <trkpt lat="48.477" lon="-2.80739">
        <ele>133.4</ele>
        <time>2026-01-25T11:47:44Z</time>
      </trkpt>
      <trkpt lat="48.47694" lon="-2.80731">
        <ele>133.4</ele>
        <time>2026-01-25T11:47:45Z</time>
      </trkpt>
      <trkpt lat="48.47688" lon="-2.80722">
        <ele>133.4</ele>
        <time>2026-01-25T11:47:46Z</time>
      </trkpt>
      <trkpt lat="48.47682" lon="-2.80714">
        <ele>132.6</ele>
        <time>2026-01-25T11:47:47Z</time>
      </trkpt>
      <trkpt lat="48.47676" lon="-2.80706">
        <ele>132.6</ele>
        <time>2026-01-25T11:47:48Z</time>
      </trkpt>
      <trkpt lat="48.4767" lon="-2.80698">
        <ele>132.6</ele>
        <time>2026-01-25T11:47:49Z</time>
      </trkpt>
      <trkpt lat="48.47664" lon="-2.8069">
        <ele>133.2</ele>
        <time>2026-01-25T11:47:50Z</time>
      </trkpt>
      <trkpt lat="48.47659" lon="-2.80682">
        <ele>133.6</ele>
        <time>2026-01-25T11:47:51Z</time>
      </trkpt>
      <trkpt lat="48.47654" lon="-2.80674">
        <ele>133.6</ele>
        <time>2026-01-25T11:47:52Z</time>
      </trkpt>
      <trkpt lat="48.47649" lon="-2.80666">
        <ele>133.6</ele>
        <time>2026-01-25T11:47:53Z</time>
      </trkpt>
      <trkpt lat="48.47644" lon="-2.80659">
        <ele>134.2</ele>
        <time>2026-01-25T11:47:54Z</time>
      </trkpt>
      <trkpt lat="48.47639" lon="-2.80652">
        <ele>134.6</ele>
        <time>2026-01-25T11:47:55Z</time>
      </trkpt>
      <trkpt lat="48.47634" lon="-2.80644">
        <ele>134.6</ele>
        <time>2026-01-25T11:47:56Z</time>
      </trkpt>
      <trkpt lat="48.47629" lon="-2.80637">
        <ele>134.6</ele>
        <time>2026-01-25T11:47:57Z</time>
      </trkpt>
      <trkpt lat="48.47624" lon="-2.8063">
        <ele>135.4</ele>
        <time>2026-01-25T11:47:58Z</time>
      </trkpt>
      <trkpt lat="48.47619" lon="-2.80624">
        <ele>135.2</ele>
        <time>2026-01-25T11:47:59Z</time>
      </trkpt>
      <trkpt lat="48.47615" lon="-2.80617">
        <ele>135.2</ele>
        <time>2026-01-25T11:48:00Z</time>
      </trkpt>
      <trkpt lat="48.4761" lon="-2.80611">
        <ele>135.2</ele>
        <time>2026-01-25T11:48:01Z</time>
      </trkpt>
      <trkpt lat="48.47605" lon="-2.80604">
        <ele>135.2</ele>
        <time>2026-01-25T11:48:02Z</time>
      </trkpt>
      <trkpt lat="48.47601" lon="-2.80597">
        <ele>135.8</ele>
        <time>2026-01-25T11:48:03Z</time>
      </trkpt>
      <trkpt lat="48.47596" lon="-2.8059">
        <ele>135.8</ele>
        <time>2026-01-25T11:48:04Z</time>
      </trkpt>
      <trkpt lat="48.47591" lon="-2.80583">
        <ele>135.8</ele>
        <time>2026-01-25T11:48:05Z</time>
      </trkpt>
      <trkpt lat="48.47586" lon="-2.80577">
        <ele>135.8</ele>
        <time>2026-01-25T11:48:06Z</time>
      </trkpt>
      <trkpt lat="48.4758" lon="-2.80571">
        <ele>135.8</ele>
        <time>2026-01-25T11:48:07Z</time>
      </trkpt>
      <trkpt lat="48.47574" lon="-2.80566">
        <ele>135.8</ele>
        <time>2026-01-25T11:48:08Z</time>
      </trkpt>
      <trkpt lat="48.47569" lon="-2.8056">
        <ele>135.8</ele>
        <time>2026-01-25T11:48:09Z</time>
      </trkpt>
      <trkpt lat="48.47563" lon="-2.80556">
        <ele>135.2</ele>
        <time>2026-01-25T11:48:10Z</time>
      </trkpt>
      <trkpt lat="48.47557" lon="-2.80552">
        <ele>134.8</ele>
        <time>2026-01-25T11:48:11Z</time>
      </trkpt>
      <trkpt lat="48.47551" lon="-2.80547">
        <ele>134.8</ele>
        <time>2026-01-25T11:48:12Z</time>
      </trkpt>
      <trkpt lat="48.47544" lon="-2.80543">
        <ele>134.8</ele>
        <time>2026-01-25T11:48:13Z</time>
      </trkpt>
      <trkpt lat="48.47538" lon="-2.80539">
        <ele>135.8</ele>
        <time>2026-01-25T11:48:14Z</time>
      </trkpt>
      <trkpt lat="48.47532" lon="-2.80534">
        <ele>135.6</ele>
        <time>2026-01-25T11:48:15Z</time>
      </trkpt>
      <trkpt lat="48.47525" lon="-2.80531">
        <ele>135.6</ele>
        <time>2026-01-25T11:48:16Z</time>
      </trkpt>
      <trkpt lat="48.47518" lon="-2.80527">
        <ele>135.6</ele>
        <time>2026-01-25T11:48:17Z</time>
      </trkpt>
      <trkpt lat="48.47512" lon="-2.80524">
        <ele>135.6</ele>
        <time>2026-01-25T11:48:18Z</time>
      </trkpt>
      <trkpt lat="48.47505" lon="-2.80521">
        <ele>135.8</ele>
        <time>2026-01-25T11:48:19Z</time>
      </trkpt>
      <trkpt lat="48.47498" lon="-2.80519">
        <ele>135.8</ele>
        <time>2026-01-25T11:48:20Z</time>
      </trkpt>
      <trkpt lat="48.47492" lon="-2.80516">
        <ele>135.8</ele>
        <time>2026-01-25T11:48:21Z</time>
      </trkpt>
      <trkpt lat="48.47485" lon="-2.80514">
        <ele>135.8</ele>
        <time>2026-01-25T11:48:22Z</time>
      </trkpt>
      <trkpt lat="48.47478" lon="-2.80512">
        <ele>137</ele>
        <time>2026-01-25T11:48:23Z</time>
      </trkpt>
      <trkpt lat="48.47472" lon="-2.80511">
        <ele>137</ele>
        <time>2026-01-25T11:48:24Z</time>
      </trkpt>
      <trkpt lat="48.47465" lon="-2.8051">
        <ele>137</ele>
        <time>2026-01-25T11:48:25Z</time>
      </trkpt>
      <trkpt lat="48.47458" lon="-2.80509">
        <ele>137</ele>
        <time>2026-01-25T11:48:26Z</time>
      </trkpt>
      <trkpt lat="48.47451" lon="-2.80508">
        <ele>137.2</ele>
        <time>2026-01-25T11:48:27Z</time>
      </trkpt>
      <trkpt lat="48.47445" lon="-2.80507">
        <ele>137.2</ele>
        <time>2026-01-25T11:48:28Z</time>
      </trkpt>
      <trkpt lat="48.47438" lon="-2.80507">
        <ele>137.2</ele>
        <time>2026-01-25T11:48:29Z</time>
      </trkpt>
      <trkpt lat="48.47431" lon="-2.80506">
        <ele>137.4</ele>
        <time>2026-01-25T11:48:30Z</time>
      </trkpt>
      <trkpt lat="48.47425" lon="-2.80506">
        <ele>137.2</ele>
        <time>2026-01-25T11:48:31Z</time>
      </trkpt>
      <trkpt lat="48.47418" lon="-2.80507">
        <ele>137.2</ele>
        <time>2026-01-25T11:48:32Z</time>
      </trkpt>
      <trkpt lat="48.47412" lon="-2.80506">
        <ele>137.2</ele>
        <time>2026-01-25T11:48:33Z</time>
      </trkpt>
      <trkpt lat="48.47406" lon="-2.80506">
        <ele>137.2</ele>
        <time>2026-01-25T11:48:34Z</time>
      </trkpt>
      <trkpt lat="48.474" lon="-2.80506">
        <ele>137</ele>
        <time>2026-01-25T11:48:35Z</time>
      </trkpt>
      <trkpt lat="48.47394" lon="-2.80505">
        <ele>137</ele>
        <time>2026-01-25T11:48:36Z</time>
      </trkpt>
      <trkpt lat="48.47387" lon="-2.80505">
        <ele>137</ele>
        <time>2026-01-25T11:48:37Z</time>
      </trkpt>
      <trkpt lat="48.47381" lon="-2.80504">
        <ele>137.4</ele>
        <time>2026-01-25T11:48:38Z</time>
      </trkpt>
      <trkpt lat="48.47375" lon="-2.80505">
        <ele>137.8</ele>
        <time>2026-01-25T11:48:39Z</time>
      </trkpt>
      <trkpt lat="48.4737" lon="-2.80505">
        <ele>137.8</ele>
        <time>2026-01-25T11:48:40Z</time>
      </trkpt>
      <trkpt lat="48.47363" lon="-2.80504">
        <ele>137.8</ele>
        <time>2026-01-25T11:48:41Z</time>
      </trkpt>
      <trkpt lat="48.47357" lon="-2.80504">
        <ele>137.8</ele>
        <time>2026-01-25T11:48:42Z</time>
      </trkpt>
      <trkpt lat="48.47351" lon="-2.80505">
        <ele>138</ele>
        <time>2026-01-25T11:48:43Z</time>
      </trkpt>
      <trkpt lat="48.47345" lon="-2.80506">
        <ele>138</ele>
        <time>2026-01-25T11:48:44Z</time>
      </trkpt>
      <trkpt lat="48.47338" lon="-2.80507">
        <ele>138</ele>
        <time>2026-01-25T11:48:45Z</time>
      </trkpt>
      <trkpt lat="48.47332" lon="-2.80507">
        <ele>138.2</ele>
        <time>2026-01-25T11:48:46Z</time>
      </trkpt>
      <trkpt lat="48.47326" lon="-2.80509">
        <ele>138.2</ele>
        <time>2026-01-25T11:48:47Z</time>
      </trkpt>
      <trkpt lat="48.47319" lon="-2.80511">
        <ele>138.2</ele>
        <time>2026-01-25T11:48:48Z</time>
      </trkpt>
      <trkpt lat="48.47313" lon="-2.80513">
        <ele>138.2</ele>
        <time>2026-01-25T11:48:49Z</time>
      </trkpt>
      <trkpt lat="48.47307" lon="-2.80514">
        <ele>138.2</ele>
        <time>2026-01-25T11:48:50Z</time>
      </trkpt>
      <trkpt lat="48.473" lon="-2.80516">
        <ele>139.6</ele>
        <time>2026-01-25T11:48:51Z</time>
      </trkpt>
      <trkpt lat="48.47294" lon="-2.80517">
        <ele>139.6</ele>
        <time>2026-01-25T11:48:52Z</time>
      </trkpt>
      <trkpt lat="48.47287" lon="-2.80519">
        <ele>139.6</ele>
        <time>2026-01-25T11:48:53Z</time>
      </trkpt>
      <trkpt lat="48.47281" lon="-2.8052">
        <ele>138.8</ele>
        <time>2026-01-25T11:48:54Z</time>
      </trkpt>
      <trkpt lat="48.47275" lon="-2.80521">
        <ele>138.4</ele>
        <time>2026-01-25T11:48:55Z</time>
      </trkpt>
      <trkpt lat="48.47268" lon="-2.80522">
        <ele>138.4</ele>
        <time>2026-01-25T11:48:56Z</time>
      </trkpt>
      <trkpt lat="48.47262" lon="-2.80523">
        <ele>138.4</ele>
        <time>2026-01-25T11:48:57Z</time>
      </trkpt>
      <trkpt lat="48.47255" lon="-2.80524">
        <ele>139.2</ele>
        <time>2026-01-25T11:48:58Z</time>
      </trkpt>
      <trkpt lat="48.47248" lon="-2.80525">
        <ele>138.6</ele>
        <time>2026-01-25T11:48:59Z</time>
      </trkpt>
      <trkpt lat="48.47241" lon="-2.80525">
        <ele>138.6</ele>
        <time>2026-01-25T11:49:00Z</time>
      </trkpt>
      <trkpt lat="48.47235" lon="-2.80524">
        <ele>138.6</ele>
        <time>2026-01-25T11:49:01Z</time>
      </trkpt>
      <trkpt lat="48.47228" lon="-2.80524">
        <ele>138.6</ele>
        <time>2026-01-25T11:49:02Z</time>
      </trkpt>
      <trkpt lat="48.47221" lon="-2.80522">
        <ele>139</ele>
        <time>2026-01-25T11:49:03Z</time>
      </trkpt>
      <trkpt lat="48.47214" lon="-2.80521">
        <ele>139</ele>
        <time>2026-01-25T11:49:04Z</time>
      </trkpt>
      <trkpt lat="48.47207" lon="-2.80519">
        <ele>139</ele>
        <time>2026-01-25T11:49:05Z</time>
      </trkpt>
      <trkpt lat="48.47201" lon="-2.80517">
        <ele>139</ele>
        <time>2026-01-25T11:49:06Z</time>
      </trkpt>
      <trkpt lat="48.47194" lon="-2.80514">
        <ele>137.2</ele>
        <time>2026-01-25T11:49:07Z</time>
      </trkpt>
      <trkpt lat="48.47188" lon="-2.80511">
        <ele>137.2</ele>
        <time>2026-01-25T11:49:08Z</time>
      </trkpt>
      <trkpt lat="48.47181" lon="-2.80508">
        <ele>137.2</ele>
        <time>2026-01-25T11:49:09Z</time>
      </trkpt>
      <trkpt lat="48.47175" lon="-2.80505">
        <ele>138.2</ele>
        <time>2026-01-25T11:49:10Z</time>
      </trkpt>
      <trkpt lat="48.47169" lon="-2.80501">
        <ele>138.4</ele>
        <time>2026-01-25T11:49:11Z</time>
      </trkpt>
      <trkpt lat="48.47163" lon="-2.80497">
        <ele>138.4</ele>
        <time>2026-01-25T11:49:12Z</time>
      </trkpt>
      <trkpt lat="48.47157" lon="-2.80493">
        <ele>138.4</ele>
        <time>2026-01-25T11:49:13Z</time>
      </trkpt>
      <trkpt lat="48.47151" lon="-2.80488">
        <ele>138.4</ele>
        <time>2026-01-25T11:49:14Z</time>
      </trkpt>
      <trkpt lat="48.47146" lon="-2.80483">
        <ele>139.6</ele>
        <time>2026-01-25T11:49:15Z</time>
      </trkpt>
      <trkpt lat="48.47141" lon="-2.80478">
        <ele>139.6</ele>
        <time>2026-01-25T11:49:16Z</time>
      </trkpt>
      <trkpt lat="48.47136" lon="-2.80472">
        <ele>139.6</ele>
        <time>2026-01-25T11:49:17Z</time>
      </trkpt>
      <trkpt lat="48.47131" lon="-2.80467">
        <ele>140.6</ele>
        <time>2026-01-25T11:49:18Z</time>
      </trkpt>
      <trkpt lat="48.47126" lon="-2.80461">
        <ele>140.6</ele>
        <time>2026-01-25T11:49:19Z</time>
      </trkpt>
      <trkpt lat="48.47121" lon="-2.80455">
        <ele>140.6</ele>
        <time>2026-01-25T11:49:20Z</time>
      </trkpt>
      <trkpt lat="48.47116" lon="-2.80449">
        <ele>140.6</ele>
        <time>2026-01-25T11:49:21Z</time>
      </trkpt>
      <trkpt lat="48.47111" lon="-2.80442">
        <ele>140.6</ele>
        <time>2026-01-25T11:49:22Z</time>
      </trkpt>
      <trkpt lat="48.47106" lon="-2.80436">
        <ele>139</ele>
        <time>2026-01-25T11:49:23Z</time>
      </trkpt>
      <trkpt lat="48.47101" lon="-2.8043">
        <ele>139</ele>
        <time>2026-01-25T11:49:24Z</time>
      </trkpt>
      <trkpt lat="48.47096" lon="-2.80423">
        <ele>139</ele>
        <time>2026-01-25T11:49:25Z</time>
      </trkpt>
      <trkpt lat="48.47091" lon="-2.80417">
        <ele>140</ele>
        <time>2026-01-25T11:49:26Z</time>
      </trkpt>
      <trkpt lat="48.47086" lon="-2.80411">
        <ele>140.8</ele>
        <time>2026-01-25T11:49:27Z</time>
      </trkpt>
      <trkpt lat="48.47081" lon="-2.80404">
        <ele>140.8</ele>
        <time>2026-01-25T11:49:28Z</time>
      </trkpt>
      <trkpt lat="48.47077" lon="-2.80398">
        <ele>140.8</ele>
        <time>2026-01-25T11:49:29Z</time>
      </trkpt>
      <trkpt lat="48.47072" lon="-2.80392">
        <ele>140.8</ele>
        <time>2026-01-25T11:49:30Z</time>
      </trkpt>
      <trkpt lat="48.47067" lon="-2.80386">
        <ele>141.4</ele>
        <time>2026-01-25T11:49:31Z</time>
      </trkpt>
      <trkpt lat="48.47063" lon="-2.8038">
        <ele>141.4</ele>
        <time>2026-01-25T11:49:32Z</time>
      </trkpt>
      <trkpt lat="48.47059" lon="-2.80374">
        <ele>141.4</ele>
        <time>2026-01-25T11:49:33Z</time>
      </trkpt>
      <trkpt lat="48.47054" lon="-2.80369">
        <ele>142.2</ele>
        <time>2026-01-25T11:49:34Z</time>
      </trkpt>
      <trkpt lat="48.4705" lon="-2.80364">
        <ele>142.4</ele>
        <time>2026-01-25T11:49:35Z</time>
      </trkpt>
      <trkpt lat="48.47047" lon="-2.8036">
        <ele>142.4</ele>
        <time>2026-01-25T11:49:36Z</time>
      </trkpt>
      <trkpt lat="48.47044" lon="-2.80355">
        <ele>142.4</ele>
        <time>2026-01-25T11:49:37Z</time>
      </trkpt>
      <trkpt lat="48.47041" lon="-2.80351">
        <ele>143.4</ele>
        <time>2026-01-25T11:49:38Z</time>
      </trkpt>
      <trkpt lat="48.47039" lon="-2.80347">
        <ele>143.4</ele>
        <time>2026-01-25T11:49:39Z</time>
      </trkpt>
      <trkpt lat="48.47038" lon="-2.80342">
        <ele>143.4</ele>
        <time>2026-01-25T11:49:40Z</time>
      </trkpt>
      <trkpt lat="48.47039" lon="-2.80335">
        <ele>143.4</ele>
        <time>2026-01-25T11:49:41Z</time>
      </trkpt>
      <trkpt lat="48.47042" lon="-2.8033">
        <ele>143.4</ele>
        <time>2026-01-25T11:49:42Z</time>
      </trkpt>
      <trkpt lat="48.47045" lon="-2.80324">
        <ele>143.2</ele>
        <time>2026-01-25T11:49:43Z</time>
      </trkpt>
      <trkpt lat="48.47049" lon="-2.80319">
        <ele>143.2</ele>
        <time>2026-01-25T11:49:44Z</time>
      </trkpt>
      <trkpt lat="48.47054" lon="-2.80315">
        <ele>143.2</ele>
        <time>2026-01-25T11:49:45Z</time>
      </trkpt>
      <trkpt lat="48.47058" lon="-2.80311">
        <ele>143.4</ele>
        <time>2026-01-25T11:49:46Z</time>
      </trkpt>
      <trkpt lat="48.47063" lon="-2.80306">
        <ele>143.4</ele>
        <time>2026-01-25T11:49:47Z</time>
      </trkpt>
      <trkpt lat="48.47068" lon="-2.80302">
        <ele>143.4</ele>
        <time>2026-01-25T11:49:48Z</time>
      </trkpt>
      <trkpt lat="48.47073" lon="-2.80297">
        <ele>143.4</ele>
        <time>2026-01-25T11:49:49Z</time>
      </trkpt>
      <trkpt lat="48.47078" lon="-2.80292">
        <ele>143.4</ele>
        <time>2026-01-25T11:49:50Z</time>
      </trkpt>
      <trkpt lat="48.47082" lon="-2.80287">
        <ele>144</ele>
        <time>2026-01-25T11:49:51Z</time>
      </trkpt>
      <trkpt lat="48.47087" lon="-2.80281">
        <ele>144</ele>
        <time>2026-01-25T11:49:52Z</time>
      </trkpt>
      <trkpt lat="48.47092" lon="-2.80276">
        <ele>144</ele>
        <time>2026-01-25T11:49:53Z</time>
      </trkpt>
      <trkpt lat="48.47097" lon="-2.80271">
        <ele>144</ele>
        <time>2026-01-25T11:49:54Z</time>
      </trkpt>
      <trkpt lat="48.47102" lon="-2.80266">
        <ele>143.8</ele>
        <time>2026-01-25T11:49:55Z</time>
      </trkpt>
      <trkpt lat="48.47107" lon="-2.8026">
        <ele>143.8</ele>
        <time>2026-01-25T11:49:56Z</time>
      </trkpt>
      <trkpt lat="48.47112" lon="-2.80254">
        <ele>143.8</ele>
        <time>2026-01-25T11:49:57Z</time>
      </trkpt>
      <trkpt lat="48.47117" lon="-2.80248">
        <ele>143.8</ele>
        <time>2026-01-25T11:49:58Z</time>
      </trkpt>
      <trkpt lat="48.47121" lon="-2.80242">
        <ele>143.4</ele>
        <time>2026-01-25T11:49:59Z</time>
      </trkpt>
      <trkpt lat="48.47126" lon="-2.80235">
        <ele>143.4</ele>
        <time>2026-01-25T11:50:00Z</time>
      </trkpt>
      <trkpt lat="48.47131" lon="-2.80228">
        <ele>143.4</ele>
        <time>2026-01-25T11:50:01Z</time>
      </trkpt>
      <trkpt lat="48.47134" lon="-2.8022">
        <ele>143.4</ele>
        <time>2026-01-25T11:50:02Z</time>
      </trkpt>
      <trkpt lat="48.47137" lon="-2.80211">
        <ele>143.4</ele>
        <time>2026-01-25T11:50:03Z</time>
      </trkpt>
      <trkpt lat="48.47138" lon="-2.80202">
        <ele>143.4</ele>
        <time>2026-01-25T11:50:04Z</time>
      </trkpt>
      <trkpt lat="48.47138" lon="-2.80193">
        <ele>143.4</ele>
        <time>2026-01-25T11:50:05Z</time>
      </trkpt>
      <trkpt lat="48.47138" lon="-2.80184">
        <ele>143.8</ele>
        <time>2026-01-25T11:50:06Z</time>
      </trkpt>
      <trkpt lat="48.47136" lon="-2.80176">
        <ele>143.8</ele>
        <time>2026-01-25T11:50:07Z</time>
      </trkpt>
      <trkpt lat="48.47133" lon="-2.80169">
        <ele>143.8</ele>
        <time>2026-01-25T11:50:08Z</time>
      </trkpt>
      <trkpt lat="48.47129" lon="-2.80164">
        <ele>143.8</ele>
        <time>2026-01-25T11:50:09Z</time>
      </trkpt>
      <trkpt lat="48.47123" lon="-2.80161">
        <ele>142.8</ele>
        <time>2026-01-25T11:50:10Z</time>
      </trkpt>
      <trkpt lat="48.47118" lon="-2.80159">
        <ele>142.6</ele>
        <time>2026-01-25T11:50:11Z</time>
      </trkpt>
      <trkpt lat="48.47112" lon="-2.80159">
        <ele>142.6</ele>
        <time>2026-01-25T11:50:12Z</time>
      </trkpt>
      <trkpt lat="48.47106" lon="-2.80159">
        <ele>142.6</ele>
        <time>2026-01-25T11:50:13Z</time>
      </trkpt>
      <trkpt lat="48.471" lon="-2.80159">
        <ele>142.6</ele>
        <time>2026-01-25T11:50:14Z</time>
      </trkpt>
      <trkpt lat="48.47094" lon="-2.80159">
        <ele>142.8</ele>
        <time>2026-01-25T11:50:15Z</time>
      </trkpt>
      <trkpt lat="48.47088" lon="-2.80159">
        <ele>142.8</ele>
        <time>2026-01-25T11:50:16Z</time>
      </trkpt>
      <trkpt lat="48.47082" lon="-2.80159">
        <ele>142.8</ele>
        <time>2026-01-25T11:50:17Z</time>
      </trkpt>
      <trkpt lat="48.47076" lon="-2.80159">
        <ele>142.8</ele>
        <time>2026-01-25T11:50:18Z</time>
      </trkpt>
      <trkpt lat="48.4707" lon="-2.80159">
        <ele>142.8</ele>
        <time>2026-01-25T11:50:19Z</time>
      </trkpt>
      <trkpt lat="48.47063" lon="-2.80159">
        <ele>142.8</ele>
        <time>2026-01-25T11:50:20Z</time>
      </trkpt>
      <trkpt lat="48.47057" lon="-2.80159">
        <ele>142.8</ele>
        <time>2026-01-25T11:50:21Z</time>
      </trkpt>
      <trkpt lat="48.4705" lon="-2.80158">
        <ele>141.8</ele>
        <time>2026-01-25T11:50:22Z</time>
      </trkpt>
      <trkpt lat="48.47044" lon="-2.80157">
        <ele>142</ele>
        <time>2026-01-25T11:50:23Z</time>
      </trkpt>
      <trkpt lat="48.47037" lon="-2.80156">
        <ele>142</ele>
        <time>2026-01-25T11:50:24Z</time>
      </trkpt>
      <trkpt lat="48.47031" lon="-2.80154">
        <ele>142</ele>
        <time>2026-01-25T11:50:25Z</time>
      </trkpt>
      <trkpt lat="48.47024" lon="-2.80151">
        <ele>141.6</ele>
        <time>2026-01-25T11:50:26Z</time>
      </trkpt>
      <trkpt lat="48.47018" lon="-2.80148">
        <ele>141.4</ele>
        <time>2026-01-25T11:50:27Z</time>
      </trkpt>
      <trkpt lat="48.47012" lon="-2.80144">
        <ele>141.4</ele>
        <time>2026-01-25T11:50:28Z</time>
      </trkpt>
      <trkpt lat="48.47006" lon="-2.8014">
        <ele>141.4</ele>
        <time>2026-01-25T11:50:29Z</time>
      </trkpt>
      <trkpt lat="48.46999" lon="-2.80136">
        <ele>142.2</ele>
        <time>2026-01-25T11:50:30Z</time>
      </trkpt>
      <trkpt lat="48.46994" lon="-2.80132">
        <ele>142.8</ele>
        <time>2026-01-25T11:50:31Z</time>
      </trkpt>
      <trkpt lat="48.46988" lon="-2.80127">
        <ele>142.8</ele>
        <time>2026-01-25T11:50:32Z</time>
      </trkpt>
      <trkpt lat="48.46982" lon="-2.80122">
        <ele>142.8</ele>
        <time>2026-01-25T11:50:33Z</time>
      </trkpt>
      <trkpt lat="48.46977" lon="-2.80116">
        <ele>141.8</ele>
        <time>2026-01-25T11:50:34Z</time>
      </trkpt>
      <trkpt lat="48.46971" lon="-2.8011">
        <ele>141.6</ele>
        <time>2026-01-25T11:50:35Z</time>
      </trkpt>
      <trkpt lat="48.46966" lon="-2.80103">
        <ele>141.6</ele>
        <time>2026-01-25T11:50:36Z</time>
      </trkpt>
      <trkpt lat="48.46961" lon="-2.80096">
        <ele>141.6</ele>
        <time>2026-01-25T11:50:37Z</time>
      </trkpt>
      <trkpt lat="48.46956" lon="-2.80089">
        <ele>142</ele>
        <time>2026-01-25T11:50:38Z</time>
      </trkpt>
      <trkpt lat="48.46951" lon="-2.80082">
        <ele>142.6</ele>
        <time>2026-01-25T11:50:39Z</time>
      </trkpt>
      <trkpt lat="48.46946" lon="-2.80074">
        <ele>142.6</ele>
        <time>2026-01-25T11:50:40Z</time>
      </trkpt>
      <trkpt lat="48.46942" lon="-2.80066">
        <ele>142.6</ele>
        <time>2026-01-25T11:50:41Z</time>
      </trkpt>
      <trkpt lat="48.46938" lon="-2.80057">
        <ele>142.2</ele>
        <time>2026-01-25T11:50:42Z</time>
      </trkpt>
      <trkpt lat="48.46935" lon="-2.80049">
        <ele>142</ele>
        <time>2026-01-25T11:50:43Z</time>
      </trkpt>
      <trkpt lat="48.46932" lon="-2.8004">
        <ele>142</ele>
        <time>2026-01-25T11:50:44Z</time>
      </trkpt>
      <trkpt lat="48.46928" lon="-2.8003">
        <ele>142</ele>
        <time>2026-01-25T11:50:45Z</time>
      </trkpt>
      <trkpt lat="48.46925" lon="-2.8002">
        <ele>141.4</ele>
        <time>2026-01-25T11:50:46Z</time>
      </trkpt>
      <trkpt lat="48.46923" lon="-2.80009">
        <ele>141.4</ele>
        <time>2026-01-25T11:50:47Z</time>
      </trkpt>
      <trkpt lat="48.4692" lon="-2.79998">
        <ele>141.4</ele>
        <time>2026-01-25T11:50:48Z</time>
      </trkpt>
      <trkpt lat="48.46917" lon="-2.79987">
        <ele>141.4</ele>
        <time>2026-01-25T11:50:49Z</time>
      </trkpt>
      <trkpt lat="48.46915" lon="-2.79976">
        <ele>141.4</ele>
        <time>2026-01-25T11:50:50Z</time>
      </trkpt>
      <trkpt lat="48.46912" lon="-2.79965">
        <ele>141.2</ele>
        <time>2026-01-25T11:50:51Z</time>
      </trkpt>
      <trkpt lat="48.4691" lon="-2.79955">
        <ele>141.2</ele>
        <time>2026-01-25T11:50:52Z</time>
      </trkpt>
      <trkpt lat="48.46907" lon="-2.79944">
        <ele>141.2</ele>
        <time>2026-01-25T11:50:53Z</time>
      </trkpt>
      <trkpt lat="48.46904" lon="-2.79932">
        <ele>140.2</ele>
        <time>2026-01-25T11:50:54Z</time>
      </trkpt>
      <trkpt lat="48.46902" lon="-2.7992">
        <ele>141.2</ele>
        <time>2026-01-25T11:50:55Z</time>
      </trkpt>
      <trkpt lat="48.46899" lon="-2.79909">
        <ele>141.2</ele>
        <time>2026-01-25T11:50:56Z</time>
      </trkpt>
      <trkpt lat="48.46897" lon="-2.79898">
        <ele>141.2</ele>
        <time>2026-01-25T11:50:57Z</time>
      </trkpt>
      <trkpt lat="48.46894" lon="-2.79887">
        <ele>140.2</ele>
        <time>2026-01-25T11:50:58Z</time>
      </trkpt>
      <trkpt lat="48.46891" lon="-2.79876">
        <ele>139.8</ele>
        <time>2026-01-25T11:50:59Z</time>
      </trkpt>
      <trkpt lat="48.46888" lon="-2.79864">
        <ele>139.8</ele>
        <time>2026-01-25T11:51:00Z</time>
      </trkpt>
      <trkpt lat="48.46886" lon="-2.79853">
        <ele>139.8</ele>
        <time>2026-01-25T11:51:01Z</time>
      </trkpt>
      <trkpt lat="48.46883" lon="-2.79842">
        <ele>139.8</ele>
        <time>2026-01-25T11:51:02Z</time>
      </trkpt>
      <trkpt lat="48.46881" lon="-2.79831">
        <ele>140.6</ele>
        <time>2026-01-25T11:51:03Z</time>
      </trkpt>
      <trkpt lat="48.46878" lon="-2.7982">
        <ele>140.6</ele>
        <time>2026-01-25T11:51:04Z</time>
      </trkpt>
      <trkpt lat="48.46876" lon="-2.79809">
        <ele>140.6</ele>
        <time>2026-01-25T11:51:05Z</time>
      </trkpt>
      <trkpt lat="48.46873" lon="-2.79798">
        <ele>139.6</ele>
        <time>2026-01-25T11:51:06Z</time>
      </trkpt>
      <trkpt lat="48.46871" lon="-2.79787">
        <ele>139.2</ele>
        <time>2026-01-25T11:51:07Z</time>
      </trkpt>
      <trkpt lat="48.46868" lon="-2.79775">
        <ele>139.2</ele>
        <time>2026-01-25T11:51:08Z</time>
      </trkpt>
      <trkpt lat="48.46866" lon="-2.79764">
        <ele>139.2</ele>
        <time>2026-01-25T11:51:09Z</time>
      </trkpt>
      <trkpt lat="48.46863" lon="-2.79753">
        <ele>139.2</ele>
        <time>2026-01-25T11:51:10Z</time>
      </trkpt>
      <trkpt lat="48.46861" lon="-2.79741">
        <ele>139.6</ele>
        <time>2026-01-25T11:51:11Z</time>
      </trkpt>
      <trkpt lat="48.46858" lon="-2.7973">
        <ele>139.6</ele>
        <time>2026-01-25T11:51:12Z</time>
      </trkpt>
      <trkpt lat="48.46856" lon="-2.79719">
        <ele>139.6</ele>
        <time>2026-01-25T11:51:13Z</time>
      </trkpt>
      <trkpt lat="48.46853" lon="-2.79708">
        <ele>139.6</ele>
        <time>2026-01-25T11:51:14Z</time>
      </trkpt>
      <trkpt lat="48.46851" lon="-2.79696">
        <ele>140.4</ele>
        <time>2026-01-25T11:51:15Z</time>
      </trkpt>
      <trkpt lat="48.46848" lon="-2.79685">
        <ele>140.4</ele>
        <time>2026-01-25T11:51:16Z</time>
      </trkpt>
      <trkpt lat="48.46846" lon="-2.79673">
        <ele>140.4</ele>
        <time>2026-01-25T11:51:17Z</time>
      </trkpt>
      <trkpt lat="48.46843" lon="-2.79662">
        <ele>140.2</ele>
        <time>2026-01-25T11:51:18Z</time>
      </trkpt>
      <trkpt lat="48.4684" lon="-2.7965">
        <ele>140.2</ele>
        <time>2026-01-25T11:51:19Z</time>
      </trkpt>
      <trkpt lat="48.46838" lon="-2.79638">
        <ele>140.2</ele>
        <time>2026-01-25T11:51:20Z</time>
      </trkpt>
      <trkpt lat="48.46835" lon="-2.79627">
        <ele>140.2</ele>
        <time>2026-01-25T11:51:21Z</time>
      </trkpt>
      <trkpt lat="48.46833" lon="-2.79615">
        <ele>140.2</ele>
        <time>2026-01-25T11:51:22Z</time>
      </trkpt>
      <trkpt lat="48.4683" lon="-2.79603">
        <ele>139.6</ele>
        <time>2026-01-25T11:51:23Z</time>
      </trkpt>
      <trkpt lat="48.46828" lon="-2.79592">
        <ele>139.6</ele>
        <time>2026-01-25T11:51:24Z</time>
      </trkpt>
      <trkpt lat="48.46825" lon="-2.7958">
        <ele>139.6</ele>
        <time>2026-01-25T11:51:25Z</time>
      </trkpt>
      <trkpt lat="48.46823" lon="-2.79568">
        <ele>138.8</ele>
        <time>2026-01-25T11:51:26Z</time>
      </trkpt>
      <trkpt lat="48.4682" lon="-2.79557">
        <ele>138.8</ele>
        <time>2026-01-25T11:51:27Z</time>
      </trkpt>
      <trkpt lat="48.46817" lon="-2.79545">
        <ele>138.8</ele>
        <time>2026-01-25T11:51:28Z</time>
      </trkpt>
      <trkpt lat="48.46815" lon="-2.79534">
        <ele>138.8</ele>
        <time>2026-01-25T11:51:29Z</time>
      </trkpt>
      <trkpt lat="48.46812" lon="-2.79522">
        <ele>138.8</ele>
        <time>2026-01-25T11:51:30Z</time>
      </trkpt>
      <trkpt lat="48.46809" lon="-2.79511">
        <ele>138</ele>
        <time>2026-01-25T11:51:31Z</time>
      </trkpt>
      <trkpt lat="48.46807" lon="-2.79499">
        <ele>138</ele>
        <time>2026-01-25T11:51:32Z</time>
      </trkpt>
      <trkpt lat="48.46804" lon="-2.79488">
        <ele>138</ele>
        <time>2026-01-25T11:51:33Z</time>
      </trkpt>
      <trkpt lat="48.46802" lon="-2.79476">
        <ele>139</ele>
        <time>2026-01-25T11:51:34Z</time>
      </trkpt>
      <trkpt lat="48.46799" lon="-2.79464">
        <ele>138.4</ele>
        <time>2026-01-25T11:51:35Z</time>
      </trkpt>
      <trkpt lat="48.46796" lon="-2.79453">
        <ele>138.4</ele>
        <time>2026-01-25T11:51:36Z</time>
      </trkpt>
      <trkpt lat="48.46794" lon="-2.79441">
        <ele>138.4</ele>
        <time>2026-01-25T11:51:37Z</time>
      </trkpt>
      <trkpt lat="48.46791" lon="-2.7943">
        <ele>138.4</ele>
        <time>2026-01-25T11:51:38Z</time>
      </trkpt>
      <trkpt lat="48.46788" lon="-2.79418">
        <ele>138.2</ele>
        <time>2026-01-25T11:51:39Z</time>
      </trkpt>
      <trkpt lat="48.46786" lon="-2.79407">
        <ele>138.2</ele>
        <time>2026-01-25T11:51:40Z</time>
      </trkpt>
      <trkpt lat="48.46783" lon="-2.79395">
        <ele>138.2</ele>
        <time>2026-01-25T11:51:41Z</time>
      </trkpt>
      <trkpt lat="48.46779" lon="-2.79384">
        <ele>138.2</ele>
        <time>2026-01-25T11:51:42Z</time>
      </trkpt>
      <trkpt lat="48.46776" lon="-2.79373">
        <ele>138</ele>
        <time>2026-01-25T11:51:43Z</time>
      </trkpt>
      <trkpt lat="48.46773" lon="-2.79362">
        <ele>138</ele>
        <time>2026-01-25T11:51:44Z</time>
      </trkpt>
      <trkpt lat="48.46769" lon="-2.79351">
        <ele>138</ele>
        <time>2026-01-25T11:51:45Z</time>
      </trkpt>
      <trkpt lat="48.46765" lon="-2.7934">
        <ele>137.8</ele>
        <time>2026-01-25T11:51:46Z</time>
      </trkpt>
      <trkpt lat="48.46761" lon="-2.79329">
        <ele>137.4</ele>
        <time>2026-01-25T11:51:47Z</time>
      </trkpt>
      <trkpt lat="48.46757" lon="-2.79319">
        <ele>137.4</ele>
        <time>2026-01-25T11:51:48Z</time>
      </trkpt>
      <trkpt lat="48.46753" lon="-2.79308">
        <ele>137.4</ele>
        <time>2026-01-25T11:51:49Z</time>
      </trkpt>
      <trkpt lat="48.46749" lon="-2.79297">
        <ele>137.4</ele>
        <time>2026-01-25T11:51:50Z</time>
      </trkpt>
      <trkpt lat="48.46745" lon="-2.79287">
        <ele>137.2</ele>
        <time>2026-01-25T11:51:51Z</time>
      </trkpt>
      <trkpt lat="48.4674" lon="-2.79277">
        <ele>137.2</ele>
        <time>2026-01-25T11:51:52Z</time>
      </trkpt>
      <trkpt lat="48.46736" lon="-2.79267">
        <ele>137.2</ele>
        <time>2026-01-25T11:51:53Z</time>
      </trkpt>
      <trkpt lat="48.46732" lon="-2.79257">
        <ele>137.2</ele>
        <time>2026-01-25T11:51:54Z</time>
      </trkpt>
      <trkpt lat="48.46728" lon="-2.79246">
        <ele>137</ele>
        <time>2026-01-25T11:51:55Z</time>
      </trkpt>
      <trkpt lat="48.46723" lon="-2.79236">
        <ele>137</ele>
        <time>2026-01-25T11:51:56Z</time>
      </trkpt>
      <trkpt lat="48.46719" lon="-2.79226">
        <ele>137</ele>
        <time>2026-01-25T11:51:57Z</time>
      </trkpt>
      <trkpt lat="48.46715" lon="-2.79215">
        <ele>137</ele>
        <time>2026-01-25T11:51:58Z</time>
      </trkpt>
      <trkpt lat="48.46711" lon="-2.79205">
        <ele>137.6</ele>
        <time>2026-01-25T11:51:59Z</time>
      </trkpt>
      <trkpt lat="48.46707" lon="-2.79195">
        <ele>137.6</ele>
        <time>2026-01-25T11:52:00Z</time>
      </trkpt>
      <trkpt lat="48.46702" lon="-2.79184">
        <ele>137.6</ele>
        <time>2026-01-25T11:52:01Z</time>
      </trkpt>
      <trkpt lat="48.46698" lon="-2.79174">
        <ele>137.6</ele>
        <time>2026-01-25T11:52:02Z</time>
      </trkpt>
      <trkpt lat="48.46694" lon="-2.79164">
        <ele>137.4</ele>
        <time>2026-01-25T11:52:03Z</time>
      </trkpt>
      <trkpt lat="48.46689" lon="-2.79153">
        <ele>137.4</ele>
        <time>2026-01-25T11:52:04Z</time>
      </trkpt>
      <trkpt lat="48.46685" lon="-2.79143">
        <ele>137.4</ele>
        <time>2026-01-25T11:52:05Z</time>
      </trkpt>
      <trkpt lat="48.46681" lon="-2.79133">
        <ele>136.6</ele>
        <time>2026-01-25T11:52:06Z</time>
      </trkpt>
      <trkpt lat="48.46676" lon="-2.79122">
        <ele>136</ele>
        <time>2026-01-25T11:52:07Z</time>
      </trkpt>
      <trkpt lat="48.46672" lon="-2.79112">
        <ele>136</ele>
        <time>2026-01-25T11:52:08Z</time>
      </trkpt>
      <trkpt lat="48.46668" lon="-2.79102">
        <ele>136</ele>
        <time>2026-01-25T11:52:09Z</time>
      </trkpt>
      <trkpt lat="48.46663" lon="-2.79091">
        <ele>137</ele>
        <time>2026-01-25T11:52:10Z</time>
      </trkpt>
      <trkpt lat="48.46659" lon="-2.7908">
        <ele>137.2</ele>
        <time>2026-01-25T11:52:11Z</time>
      </trkpt>
      <trkpt lat="48.46655" lon="-2.7907">
        <ele>137.2</ele>
        <time>2026-01-25T11:52:12Z</time>
      </trkpt>
      <trkpt lat="48.46651" lon="-2.7906">
        <ele>137.2</ele>
        <time>2026-01-25T11:52:13Z</time>
      </trkpt>
      <trkpt lat="48.46646" lon="-2.7905">
        <ele>136.2</ele>
        <time>2026-01-25T11:52:14Z</time>
      </trkpt>
      <trkpt lat="48.46643" lon="-2.7904">
        <ele>136.2</ele>
        <time>2026-01-25T11:52:15Z</time>
      </trkpt>
      <trkpt lat="48.46638" lon="-2.7903">
        <ele>136.2</ele>
        <time>2026-01-25T11:52:16Z</time>
      </trkpt>
      <trkpt lat="48.46635" lon="-2.7902">
        <ele>136.2</ele>
        <time>2026-01-25T11:52:17Z</time>
      </trkpt>
      <trkpt lat="48.46631" lon="-2.79011">
        <ele>137</ele>
        <time>2026-01-25T11:52:18Z</time>
      </trkpt>
      <trkpt lat="48.46627" lon="-2.79002">
        <ele>137.8</ele>
        <time>2026-01-25T11:52:19Z</time>
      </trkpt>
      <trkpt lat="48.46623" lon="-2.78993">
        <ele>137.8</ele>
        <time>2026-01-25T11:52:20Z</time>
      </trkpt>
      <trkpt lat="48.46619" lon="-2.78984">
        <ele>137.8</ele>
        <time>2026-01-25T11:52:21Z</time>
      </trkpt>
      <trkpt lat="48.46616" lon="-2.78975">
        <ele>138.4</ele>
        <time>2026-01-25T11:52:22Z</time>
      </trkpt>
      <trkpt lat="48.46612" lon="-2.78966">
        <ele>138.4</ele>
        <time>2026-01-25T11:52:23Z</time>
      </trkpt>
      <trkpt lat="48.46609" lon="-2.78957">
        <ele>138.4</ele>
        <time>2026-01-25T11:52:24Z</time>
      </trkpt>
      <trkpt lat="48.46605" lon="-2.78949">
        <ele>138.4</ele>
        <time>2026-01-25T11:52:25Z</time>
      </trkpt>
      <trkpt lat="48.46602" lon="-2.78941">
        <ele>138.4</ele>
        <time>2026-01-25T11:52:26Z</time>
      </trkpt>
      <trkpt lat="48.46598" lon="-2.78933">
        <ele>140.2</ele>
        <time>2026-01-25T11:52:27Z</time>
      </trkpt>
      <trkpt lat="48.46595" lon="-2.78925">
        <ele>140.2</ele>
        <time>2026-01-25T11:52:28Z</time>
      </trkpt>
      <trkpt lat="48.46592" lon="-2.78917">
        <ele>140.2</ele>
        <time>2026-01-25T11:52:29Z</time>
      </trkpt>
      <trkpt lat="48.46589" lon="-2.78908">
        <ele>140</ele>
        <time>2026-01-25T11:52:30Z</time>
      </trkpt>
      <trkpt lat="48.46585" lon="-2.789">
        <ele>140.2</ele>
        <time>2026-01-25T11:52:31Z</time>
      </trkpt>
      <trkpt lat="48.46582" lon="-2.78892">
        <ele>140.2</ele>
        <time>2026-01-25T11:52:32Z</time>
      </trkpt>
      <trkpt lat="48.46579" lon="-2.78884">
        <ele>140.2</ele>
        <time>2026-01-25T11:52:33Z</time>
      </trkpt>
      <trkpt lat="48.46576" lon="-2.78877">
        <ele>141.2</ele>
        <time>2026-01-25T11:52:34Z</time>
      </trkpt>
      <trkpt lat="48.46573" lon="-2.7887">
        <ele>140.8</ele>
        <time>2026-01-25T11:52:35Z</time>
      </trkpt>
      <trkpt lat="48.46569" lon="-2.78863">
        <ele>140.8</ele>
        <time>2026-01-25T11:52:36Z</time>
      </trkpt>
      <trkpt lat="48.46566" lon="-2.78855">
        <ele>140.8</ele>
        <time>2026-01-25T11:52:37Z</time>
      </trkpt>
      <trkpt lat="48.46563" lon="-2.78847">
        <ele>140.8</ele>
        <time>2026-01-25T11:52:38Z</time>
      </trkpt>
      <trkpt lat="48.4656" lon="-2.78839">
        <ele>141.2</ele>
        <time>2026-01-25T11:52:39Z</time>
      </trkpt>
      <trkpt lat="48.46557" lon="-2.78831">
        <ele>141.2</ele>
        <time>2026-01-25T11:52:40Z</time>
      </trkpt>
      <trkpt lat="48.46554" lon="-2.78824">
        <ele>141.2</ele>
        <time>2026-01-25T11:52:41Z</time>
      </trkpt>
      <trkpt lat="48.46551" lon="-2.78817">
        <ele>141.8</ele>
        <time>2026-01-25T11:52:42Z</time>
      </trkpt>
      <trkpt lat="48.46547" lon="-2.7881">
        <ele>141.8</ele>
        <time>2026-01-25T11:52:43Z</time>
      </trkpt>
      <trkpt lat="48.46543" lon="-2.78805">
        <ele>141.8</ele>
        <time>2026-01-25T11:52:44Z</time>
      </trkpt>
      <trkpt lat="48.4654" lon="-2.78796">
        <ele>141.8</ele>
        <time>2026-01-25T11:52:45Z</time>
      </trkpt>
      <trkpt lat="48.46537" lon="-2.78789">
        <ele>141.2</ele>
        <time>2026-01-25T11:52:46Z</time>
      </trkpt>
      <trkpt lat="48.46533" lon="-2.7878">
        <ele>142</ele>
        <time>2026-01-25T11:52:47Z</time>
      </trkpt>
      <trkpt lat="48.4653" lon="-2.78771">
        <ele>142</ele>
        <time>2026-01-25T11:52:48Z</time>
      </trkpt>
      <trkpt lat="48.46526" lon="-2.78763">
        <ele>142</ele>
        <time>2026-01-25T11:52:49Z</time>
      </trkpt>
      <trkpt lat="48.46523" lon="-2.78754">
        <ele>142.6</ele>
        <time>2026-01-25T11:52:50Z</time>
      </trkpt>
      <trkpt lat="48.4652" lon="-2.78746">
        <ele>142.8</ele>
        <time>2026-01-25T11:52:51Z</time>
      </trkpt>
      <trkpt lat="48.46516" lon="-2.78738">
        <ele>142.8</ele>
        <time>2026-01-25T11:52:52Z</time>
      </trkpt>
      <trkpt lat="48.46513" lon="-2.7873">
        <ele>142.8</ele>
        <time>2026-01-25T11:52:53Z</time>
      </trkpt>
      <trkpt lat="48.4651" lon="-2.78723">
        <ele>142.8</ele>
        <time>2026-01-25T11:52:54Z</time>
      </trkpt>
      <trkpt lat="48.46507" lon="-2.78714">
        <ele>143.4</ele>
        <time>2026-01-25T11:52:55Z</time>
      </trkpt>
      <trkpt lat="48.46504" lon="-2.78706">
        <ele>143.4</ele>
        <time>2026-01-25T11:52:56Z</time>
      </trkpt>
      <trkpt lat="48.465" lon="-2.78699">
        <ele>143.4</ele>
        <time>2026-01-25T11:52:57Z</time>
      </trkpt>
      <trkpt lat="48.46496" lon="-2.78691">
        <ele>143.2</ele>
        <time>2026-01-25T11:52:58Z</time>
      </trkpt>
      <trkpt lat="48.46492" lon="-2.78684">
        <ele>143.8</ele>
        <time>2026-01-25T11:52:59Z</time>
      </trkpt>
      <trkpt lat="48.46489" lon="-2.78676">
        <ele>143.8</ele>
        <time>2026-01-25T11:53:00Z</time>
      </trkpt>
      <trkpt lat="48.46486" lon="-2.78668">
        <ele>143.8</ele>
        <time>2026-01-25T11:53:01Z</time>
      </trkpt>
      <trkpt lat="48.46485" lon="-2.78658">
        <ele>143.8</ele>
        <time>2026-01-25T11:53:02Z</time>
      </trkpt>
      <trkpt lat="48.46485" lon="-2.78649">
        <ele>145.2</ele>
        <time>2026-01-25T11:53:03Z</time>
      </trkpt>
      <trkpt lat="48.46485" lon="-2.78641">
        <ele>145.2</ele>
        <time>2026-01-25T11:53:04Z</time>
      </trkpt>
      <trkpt lat="48.46485" lon="-2.78633">
        <ele>145.2</ele>
        <time>2026-01-25T11:53:05Z</time>
      </trkpt>
      <trkpt lat="48.46484" lon="-2.78626">
        <ele>145.2</ele>
        <time>2026-01-25T11:53:06Z</time>
      </trkpt>
      <trkpt lat="48.46482" lon="-2.78619">
        <ele>145.4</ele>
        <time>2026-01-25T11:53:07Z</time>
      </trkpt>
      <trkpt lat="48.46478" lon="-2.78613">
        <ele>145.4</ele>
        <time>2026-01-25T11:53:08Z</time>
      </trkpt>
      <trkpt lat="48.46475" lon="-2.78607">
        <ele>145.4</ele>
        <time>2026-01-25T11:53:09Z</time>
      </trkpt>
      <trkpt lat="48.4647" lon="-2.78605">
        <ele>145.4</ele>
        <time>2026-01-25T11:53:10Z</time>
      </trkpt>
      <trkpt lat="48.46465" lon="-2.78603">
        <ele>144.6</ele>
        <time>2026-01-25T11:53:11Z</time>
      </trkpt>
      <trkpt lat="48.4646" lon="-2.78602">
        <ele>144.6</ele>
        <time>2026-01-25T11:53:12Z</time>
      </trkpt>
      <trkpt lat="48.46455" lon="-2.78601">
        <ele>144.6</ele>
        <time>2026-01-25T11:53:13Z</time>
      </trkpt>
      <trkpt lat="48.4645" lon="-2.786">
        <ele>144.6</ele>
        <time>2026-01-25T11:53:14Z</time>
      </trkpt>
      <trkpt lat="48.46445" lon="-2.78598">
        <ele>142.8</ele>
        <time>2026-01-25T11:53:15Z</time>
      </trkpt>
      <trkpt lat="48.4644" lon="-2.78594">
        <ele>142.8</ele>
        <time>2026-01-25T11:53:16Z</time>
      </trkpt>
      <trkpt lat="48.46435" lon="-2.7859">
        <ele>142.8</ele>
        <time>2026-01-25T11:53:17Z</time>
      </trkpt>
      <trkpt lat="48.4643" lon="-2.78587">
        <ele>143.8</ele>
        <time>2026-01-25T11:53:18Z</time>
      </trkpt>
      <trkpt lat="48.46425" lon="-2.78584">
        <ele>144.4</ele>
        <time>2026-01-25T11:53:19Z</time>
      </trkpt>
      <trkpt lat="48.46419" lon="-2.78581">
        <ele>144.4</ele>
        <time>2026-01-25T11:53:20Z</time>
      </trkpt>
      <trkpt lat="48.46414" lon="-2.78579">
        <ele>144.4</ele>
        <time>2026-01-25T11:53:21Z</time>
      </trkpt>
      <trkpt lat="48.46409" lon="-2.78576">
        <ele>144.4</ele>
        <time>2026-01-25T11:53:22Z</time>
      </trkpt>
      <trkpt lat="48.46404" lon="-2.78574">
        <ele>142.8</ele>
        <time>2026-01-25T11:53:23Z</time>
      </trkpt>
      <trkpt lat="48.46399" lon="-2.78571">
        <ele>142.8</ele>
        <time>2026-01-25T11:53:24Z</time>
      </trkpt>
      <trkpt lat="48.46394" lon="-2.78569">
        <ele>142.8</ele>
        <time>2026-01-25T11:53:25Z</time>
      </trkpt>
      <trkpt lat="48.4639" lon="-2.78568">
        <ele>143.8</ele>
        <time>2026-01-25T11:53:26Z</time>
      </trkpt>
      <trkpt lat="48.46385" lon="-2.78567">
        <ele>145.8</ele>
        <time>2026-01-25T11:53:27Z</time>
      </trkpt>
      <trkpt lat="48.46381" lon="-2.78566">
        <ele>145.8</ele>
        <time>2026-01-25T11:53:28Z</time>
      </trkpt>
      <trkpt lat="48.46376" lon="-2.78565">
        <ele>145.8</ele>
        <time>2026-01-25T11:53:29Z</time>
      </trkpt>
      <trkpt lat="48.46371" lon="-2.78564">
        <ele>145.8</ele>
        <time>2026-01-25T11:53:30Z</time>
      </trkpt>
      <trkpt lat="48.46366" lon="-2.78564">
        <ele>145.8</ele>
        <time>2026-01-25T11:53:31Z</time>
      </trkpt>
      <trkpt lat="48.46361" lon="-2.78563">
        <ele>145.8</ele>
        <time>2026-01-25T11:53:32Z</time>
      </trkpt>
      <trkpt lat="48.46356" lon="-2.78564">
        <ele>145.8</ele>
        <time>2026-01-25T11:53:33Z</time>
      </trkpt>
      <trkpt lat="48.46351" lon="-2.78565">
        <ele>145.2</ele>
        <time>2026-01-25T11:53:34Z</time>
      </trkpt>
      <trkpt lat="48.46346" lon="-2.78565">
        <ele>145.6</ele>
        <time>2026-01-25T11:53:35Z</time>
      </trkpt>
      <trkpt lat="48.4634" lon="-2.78565">
        <ele>145.6</ele>
        <time>2026-01-25T11:53:36Z</time>
      </trkpt>
      <trkpt lat="48.46335" lon="-2.78565">
        <ele>145.6</ele>
        <time>2026-01-25T11:53:37Z</time>
      </trkpt>
      <trkpt lat="48.46329" lon="-2.78565">
        <ele>144.6</ele>
        <time>2026-01-25T11:53:38Z</time>
      </trkpt>
      <trkpt lat="48.46324" lon="-2.78565">
        <ele>144.4</ele>
        <time>2026-01-25T11:53:39Z</time>
      </trkpt>
      <trkpt lat="48.46319" lon="-2.78566">
        <ele>144.4</ele>
        <time>2026-01-25T11:53:40Z</time>
      </trkpt>
      <trkpt lat="48.46313" lon="-2.78565">
        <ele>144.4</ele>
        <time>2026-01-25T11:53:41Z</time>
      </trkpt>
      <trkpt lat="48.46308" lon="-2.78565">
        <ele>145.4</ele>
        <time>2026-01-25T11:53:42Z</time>
      </trkpt>
      <trkpt lat="48.46303" lon="-2.78564">
        <ele>145.8</ele>
        <time>2026-01-25T11:53:43Z</time>
      </trkpt>
      <trkpt lat="48.46297" lon="-2.78564">
        <ele>145.8</ele>
        <time>2026-01-25T11:53:44Z</time>
      </trkpt>
      <trkpt lat="48.46292" lon="-2.78564">
        <ele>145.8</ele>
        <time>2026-01-25T11:53:45Z</time>
      </trkpt>
      <trkpt lat="48.46286" lon="-2.78563">
        <ele>145.8</ele>
        <time>2026-01-25T11:53:46Z</time>
      </trkpt>
      <trkpt lat="48.46281" lon="-2.78563">
        <ele>146</ele>
        <time>2026-01-25T11:53:47Z</time>
      </trkpt>
      <trkpt lat="48.46275" lon="-2.78562">
        <ele>146</ele>
        <time>2026-01-25T11:53:48Z</time>
      </trkpt>
      <trkpt lat="48.46269" lon="-2.78561">
        <ele>146</ele>
        <time>2026-01-25T11:53:49Z</time>
      </trkpt>
      <trkpt lat="48.46263" lon="-2.7856">
        <ele>145.8</ele>
        <time>2026-01-25T11:53:50Z</time>
      </trkpt>
      <trkpt lat="48.46257" lon="-2.78558">
        <ele>145.8</ele>
        <time>2026-01-25T11:53:51Z</time>
      </trkpt>
      <trkpt lat="48.46252" lon="-2.78556">
        <ele>145.8</ele>
        <time>2026-01-25T11:53:52Z</time>
      </trkpt>
      <trkpt lat="48.46246" lon="-2.78554">
        <ele>145.8</ele>
        <time>2026-01-25T11:53:53Z</time>
      </trkpt>
      <trkpt lat="48.46241" lon="-2.78551">
        <ele>145.8</ele>
        <time>2026-01-25T11:53:54Z</time>
      </trkpt>
      <trkpt lat="48.46236" lon="-2.78548">
        <ele>145.8</ele>
        <time>2026-01-25T11:53:55Z</time>
      </trkpt>
      <trkpt lat="48.4623" lon="-2.78545">
        <ele>145.8</ele>
        <time>2026-01-25T11:53:56Z</time>
      </trkpt>
      <trkpt lat="48.46225" lon="-2.78542">
        <ele>145.8</ele>
        <time>2026-01-25T11:53:57Z</time>
      </trkpt>
      <trkpt lat="48.4622" lon="-2.78538">
        <ele>146.8</ele>
        <time>2026-01-25T11:53:58Z</time>
      </trkpt>
      <trkpt lat="48.46215" lon="-2.78535">
        <ele>146.8</ele>
        <time>2026-01-25T11:53:59Z</time>
      </trkpt>
      <trkpt lat="48.46211" lon="-2.78531">
        <ele>146.8</ele>
        <time>2026-01-25T11:54:00Z</time>
      </trkpt>
      <trkpt lat="48.46206" lon="-2.78527">
        <ele>146.8</ele>
        <time>2026-01-25T11:54:01Z</time>
      </trkpt>
      <trkpt lat="48.46202" lon="-2.78523">
        <ele>147.8</ele>
        <time>2026-01-25T11:54:02Z</time>
      </trkpt>
      <trkpt lat="48.46197" lon="-2.78518">
        <ele>148</ele>
        <time>2026-01-25T11:54:03Z</time>
      </trkpt>
      <trkpt lat="48.46193" lon="-2.78513">
        <ele>148</ele>
        <time>2026-01-25T11:54:04Z</time>
      </trkpt>
      <trkpt lat="48.46189" lon="-2.78509">
        <ele>148</ele>
        <time>2026-01-25T11:54:05Z</time>
      </trkpt>
      <trkpt lat="48.46185" lon="-2.78504">
        <ele>148.8</ele>
        <time>2026-01-25T11:54:06Z</time>
      </trkpt>
      <trkpt lat="48.46181" lon="-2.785">
        <ele>148.8</ele>
        <time>2026-01-25T11:54:07Z</time>
      </trkpt>
      <trkpt lat="48.46177" lon="-2.78495">
        <ele>148.8</ele>
        <time>2026-01-25T11:54:08Z</time>
      </trkpt>
      <trkpt lat="48.46173" lon="-2.7849">
        <ele>148.8</ele>
        <time>2026-01-25T11:54:09Z</time>
      </trkpt>
      <trkpt lat="48.46169" lon="-2.78484">
        <ele>148.8</ele>
        <time>2026-01-25T11:54:10Z</time>
      </trkpt>
      <trkpt lat="48.46166" lon="-2.78477">
        <ele>148.4</ele>
        <time>2026-01-25T11:54:11Z</time>
      </trkpt>
      <trkpt lat="48.46163" lon="-2.78471">
        <ele>148.4</ele>
        <time>2026-01-25T11:54:12Z</time>
      </trkpt>
      <trkpt lat="48.4616" lon="-2.78464">
        <ele>148.4</ele>
        <time>2026-01-25T11:54:13Z</time>
      </trkpt>
      <trkpt lat="48.46158" lon="-2.78457">
        <ele>149.4</ele>
        <time>2026-01-25T11:54:14Z</time>
      </trkpt>
      <trkpt lat="48.46156" lon="-2.7845">
        <ele>150.2</ele>
        <time>2026-01-25T11:54:15Z</time>
      </trkpt>
      <trkpt lat="48.46158" lon="-2.78442">
        <ele>150.2</ele>
        <time>2026-01-25T11:54:16Z</time>
      </trkpt>
      <trkpt lat="48.4616" lon="-2.78435">
        <ele>150.2</ele>
        <time>2026-01-25T11:54:17Z</time>
      </trkpt>
      <trkpt lat="48.46163" lon="-2.78429">
        <ele>150.2</ele>
        <time>2026-01-25T11:54:18Z</time>
      </trkpt>
      <trkpt lat="48.46165" lon="-2.78422">
        <ele>149.6</ele>
        <time>2026-01-25T11:54:19Z</time>
      </trkpt>
      <trkpt lat="48.46167" lon="-2.78415">
        <ele>149.6</ele>
        <time>2026-01-25T11:54:20Z</time>
      </trkpt>
      <trkpt lat="48.46169" lon="-2.78408">
        <ele>149.6</ele>
        <time>2026-01-25T11:54:21Z</time>
      </trkpt>
      <trkpt lat="48.46171" lon="-2.78401">
        <ele>150.2</ele>
        <time>2026-01-25T11:54:22Z</time>
      </trkpt>
      <trkpt lat="48.46172" lon="-2.78396">
        <ele>150.2</ele>
        <time>2026-01-25T11:54:23Z</time>
      </trkpt>
      <trkpt lat="48.46173" lon="-2.78392">
        <ele>150.2</ele>
        <time>2026-01-25T11:54:24Z</time>
      </trkpt>
      <trkpt lat="48.46173" lon="-2.78389">
        <ele>150.2</ele>
        <time>2026-01-25T11:54:25Z</time>
      </trkpt>
      <trkpt lat="48.46173" lon="-2.78388">
        <ele>150.4</ele>
        <time>2026-01-25T11:54:26Z</time>
      </trkpt>
      <trkpt lat="48.46172" lon="-2.78387">
        <ele>150.2</ele>
        <time>2026-01-25T11:54:27Z</time>
      </trkpt>
      <trkpt lat="48.46171" lon="-2.78387">
        <ele>150.2</ele>
        <time>2026-01-25T11:54:28Z</time>
      </trkpt>
      <trkpt lat="48.4617" lon="-2.78387">
        <ele>150.2</ele>
        <time>2026-01-25T11:54:29Z</time>
      </trkpt>
      <trkpt lat="48.46168" lon="-2.78389">
        <ele>150.2</ele>
        <time>2026-01-25T11:54:30Z</time>
      </trkpt>
      <trkpt lat="48.46167" lon="-2.78391">
        <ele>149.8</ele>
        <time>2026-01-25T11:54:31Z</time>
      </trkpt>
      <trkpt lat="48.46167" lon="-2.78395">
        <ele>149.8</ele>
        <time>2026-01-25T11:54:32Z</time>
      </trkpt>
      <trkpt lat="48.46166" lon="-2.78399">
        <ele>149.8</ele>
        <time>2026-01-25T11:54:33Z</time>
      </trkpt>
      <trkpt lat="48.46164" lon="-2.78404">
        <ele>148.8</ele>
        <time>2026-01-25T11:54:34Z</time>
      </trkpt>
      <trkpt lat="48.46162" lon="-2.78409">
        <ele>148.8</ele>
        <time>2026-01-25T11:54:35Z</time>
      </trkpt>
      <trkpt lat="48.4616" lon="-2.78414">
        <ele>148.8</ele>
        <time>2026-01-25T11:54:36Z</time>
      </trkpt>
      <trkpt lat="48.46157" lon="-2.78419">
        <ele>148.8</ele>
        <time>2026-01-25T11:54:37Z</time>
      </trkpt>
      <trkpt lat="48.46154" lon="-2.78425">
        <ele>148</ele>
        <time>2026-01-25T11:54:38Z</time>
      </trkpt>
      <trkpt lat="48.4615" lon="-2.7843">
        <ele>148</ele>
        <time>2026-01-25T11:54:39Z</time>
      </trkpt>
      <trkpt lat="48.46146" lon="-2.78435">
        <ele>148</ele>
        <time>2026-01-25T11:54:40Z</time>
      </trkpt>
      <trkpt lat="48.46142" lon="-2.78439">
        <ele>148</ele>
        <time>2026-01-25T11:54:41Z</time>
      </trkpt>
      <trkpt lat="48.46137" lon="-2.78441">
        <ele>148</ele>
        <time>2026-01-25T11:54:42Z</time>
      </trkpt>
      <trkpt lat="48.46132" lon="-2.78441">
        <ele>149</ele>
        <time>2026-01-25T11:54:43Z</time>
      </trkpt>
      <trkpt lat="48.46127" lon="-2.78439">
        <ele>149</ele>
        <time>2026-01-25T11:54:44Z</time>
      </trkpt>
      <trkpt lat="48.46123" lon="-2.78436">
        <ele>149</ele>
        <time>2026-01-25T11:54:45Z</time>
      </trkpt>
      <trkpt lat="48.46119" lon="-2.78432">
        <ele>150</ele>
        <time>2026-01-25T11:54:46Z</time>
      </trkpt>
      <trkpt lat="48.46115" lon="-2.78426">
        <ele>151.2</ele>
        <time>2026-01-25T11:54:47Z</time>
      </trkpt>
      <trkpt lat="48.46113" lon="-2.7842">
        <ele>151.2</ele>
        <time>2026-01-25T11:54:48Z</time>
      </trkpt>
      <trkpt lat="48.46112" lon="-2.78412">
        <ele>151.2</ele>
        <time>2026-01-25T11:54:49Z</time>
      </trkpt>
      <trkpt lat="48.46112" lon="-2.78404">
        <ele>151.2</ele>
        <time>2026-01-25T11:54:50Z</time>
      </trkpt>
      <trkpt lat="48.46113" lon="-2.78396">
        <ele>151.6</ele>
        <time>2026-01-25T11:54:51Z</time>
      </trkpt>
      <trkpt lat="48.46115" lon="-2.78389">
        <ele>151.6</ele>
        <time>2026-01-25T11:54:52Z</time>
      </trkpt>
      <trkpt lat="48.46117" lon="-2.78381">
        <ele>151.6</ele>
        <time>2026-01-25T11:54:53Z</time>
      </trkpt>
      <trkpt lat="48.46119" lon="-2.78373">
        <ele>150.6</ele>
        <time>2026-01-25T11:54:54Z</time>
      </trkpt>
      <trkpt lat="48.4612" lon="-2.78364">
        <ele>151</ele>
        <time>2026-01-25T11:54:55Z</time>
      </trkpt>
      <trkpt lat="48.4612" lon="-2.78355">
        <ele>151</ele>
        <time>2026-01-25T11:54:56Z</time>
      </trkpt>
      <trkpt lat="48.46119" lon="-2.78346">
        <ele>151</ele>
        <time>2026-01-25T11:54:57Z</time>
      </trkpt>
      <trkpt lat="48.46118" lon="-2.78336">
        <ele>150.4</ele>
        <time>2026-01-25T11:54:58Z</time>
      </trkpt>
      <trkpt lat="48.46118" lon="-2.78327">
        <ele>150.2</ele>
        <time>2026-01-25T11:54:59Z</time>
      </trkpt>
      <trkpt lat="48.46117" lon="-2.78318">
        <ele>150.2</ele>
        <time>2026-01-25T11:55:00Z</time>
      </trkpt>
      <trkpt lat="48.46117" lon="-2.78308">
        <ele>150.2</ele>
        <time>2026-01-25T11:55:01Z</time>
      </trkpt>
      <trkpt lat="48.46117" lon="-2.78299">
        <ele>151</ele>
        <time>2026-01-25T11:55:02Z</time>
      </trkpt>
      <trkpt lat="48.46117" lon="-2.7829">
        <ele>151.2</ele>
        <time>2026-01-25T11:55:03Z</time>
      </trkpt>
      <trkpt lat="48.46118" lon="-2.78281">
        <ele>151.2</ele>
        <time>2026-01-25T11:55:04Z</time>
      </trkpt>
      <trkpt lat="48.46118" lon="-2.78272">
        <ele>151.2</ele>
        <time>2026-01-25T11:55:05Z</time>
      </trkpt>
      <trkpt lat="48.46119" lon="-2.78263">
        <ele>151.2</ele>
        <time>2026-01-25T11:55:06Z</time>
      </trkpt>
      <trkpt lat="48.46119" lon="-2.78254">
        <ele>151.4</ele>
        <time>2026-01-25T11:55:07Z</time>
      </trkpt>
      <trkpt lat="48.46119" lon="-2.78245">
        <ele>151.4</ele>
        <time>2026-01-25T11:55:08Z</time>
      </trkpt>
      <trkpt lat="48.46119" lon="-2.78236">
        <ele>151.4</ele>
        <time>2026-01-25T11:55:09Z</time>
      </trkpt>
      <trkpt lat="48.46118" lon="-2.78227">
        <ele>152.2</ele>
        <time>2026-01-25T11:55:10Z</time>
      </trkpt>
      <trkpt lat="48.46117" lon="-2.78219">
        <ele>152.6</ele>
        <time>2026-01-25T11:55:11Z</time>
      </trkpt>
      <trkpt lat="48.46114" lon="-2.78211">
        <ele>152.6</ele>
        <time>2026-01-25T11:55:12Z</time>
      </trkpt>
      <trkpt lat="48.46111" lon="-2.78203">
        <ele>152.6</ele>
        <time>2026-01-25T11:55:13Z</time>
      </trkpt>
      <trkpt lat="48.46108" lon="-2.78196">
        <ele>152.6</ele>
        <time>2026-01-25T11:55:14Z</time>
      </trkpt>
      <trkpt lat="48.46104" lon="-2.78189">
        <ele>151.4</ele>
        <time>2026-01-25T11:55:15Z</time>
      </trkpt>
      <trkpt lat="48.46099" lon="-2.78183">
        <ele>151.4</ele>
        <time>2026-01-25T11:55:16Z</time>
      </trkpt>
      <trkpt lat="48.46094" lon="-2.7818">
        <ele>151.4</ele>
        <time>2026-01-25T11:55:17Z</time>
      </trkpt>
      <trkpt lat="48.46089" lon="-2.78176">
        <ele>151.6</ele>
        <time>2026-01-25T11:55:18Z</time>
      </trkpt>
      <trkpt lat="48.46084" lon="-2.78173">
        <ele>152.4</ele>
        <time>2026-01-25T11:55:19Z</time>
      </trkpt>
      <trkpt lat="48.46079" lon="-2.78171">
        <ele>152.4</ele>
        <time>2026-01-25T11:55:20Z</time>
      </trkpt>
      <trkpt lat="48.46074" lon="-2.78168">
        <ele>152.4</ele>
        <time>2026-01-25T11:55:21Z</time>
      </trkpt>
      <trkpt lat="48.46069" lon="-2.78164">
        <ele>153</ele>
        <time>2026-01-25T11:55:22Z</time>
      </trkpt>
      <trkpt lat="48.46065" lon="-2.7816">
        <ele>153</ele>
        <time>2026-01-25T11:55:23Z</time>
      </trkpt>
      <trkpt lat="48.46061" lon="-2.78155">
        <ele>153.6</ele>
        <time>2026-01-25T11:55:24Z</time>
      </trkpt>
      <trkpt lat="48.46057" lon="-2.7815">
        <ele>153.6</ele>
        <time>2026-01-25T11:55:25Z</time>
      </trkpt>
      <trkpt lat="48.46053" lon="-2.78144">
        <ele>153.6</ele>
        <time>2026-01-25T11:55:26Z</time>
      </trkpt>
      <trkpt lat="48.4605" lon="-2.78138">
        <ele>154.2</ele>
        <time>2026-01-25T11:55:27Z</time>
      </trkpt>
      <trkpt lat="48.46047" lon="-2.78131">
        <ele>154.2</ele>
        <time>2026-01-25T11:55:28Z</time>
      </trkpt>
      <trkpt lat="48.46045" lon="-2.78124">
        <ele>154.2</ele>
        <time>2026-01-25T11:55:29Z</time>
      </trkpt>
      <trkpt lat="48.46043" lon="-2.78117">
        <ele>154.6</ele>
        <time>2026-01-25T11:55:30Z</time>
      </trkpt>
      <trkpt lat="48.46041" lon="-2.78109">
        <ele>154.4</ele>
        <time>2026-01-25T11:55:31Z</time>
      </trkpt>
      <trkpt lat="48.46039" lon="-2.78102">
        <ele>154.4</ele>
        <time>2026-01-25T11:55:32Z</time>
      </trkpt>
      <trkpt lat="48.46038" lon="-2.78094">
        <ele>154.4</ele>
        <time>2026-01-25T11:55:33Z</time>
      </trkpt>
      <trkpt lat="48.46037" lon="-2.78086">
        <ele>155.2</ele>
        <time>2026-01-25T11:55:34Z</time>
      </trkpt>
      <trkpt lat="48.46036" lon="-2.78078">
        <ele>155.4</ele>
        <time>2026-01-25T11:55:35Z</time>
      </trkpt>
      <trkpt lat="48.46035" lon="-2.7807">
        <ele>155.4</ele>
        <time>2026-01-25T11:55:36Z</time>
      </trkpt>
      <trkpt lat="48.46034" lon="-2.78062">
        <ele>155.4</ele>
        <time>2026-01-25T11:55:37Z</time>
      </trkpt>
      <trkpt lat="48.46034" lon="-2.78053">
        <ele>155.6</ele>
        <time>2026-01-25T11:55:38Z</time>
      </trkpt>
      <trkpt lat="48.46033" lon="-2.78045">
        <ele>156</ele>
        <time>2026-01-25T11:55:39Z</time>
      </trkpt>
      <trkpt lat="48.46033" lon="-2.78037">
        <ele>156</ele>
        <time>2026-01-25T11:55:40Z</time>
      </trkpt>
      <trkpt lat="48.46032" lon="-2.78028">
        <ele>156</ele>
        <time>2026-01-25T11:55:41Z</time>
      </trkpt>
      <trkpt lat="48.46031" lon="-2.7802">
        <ele>156</ele>
        <time>2026-01-25T11:55:42Z</time>
      </trkpt>
      <trkpt lat="48.46031" lon="-2.78012">
        <ele>155.8</ele>
        <time>2026-01-25T11:55:43Z</time>
      </trkpt>
      <trkpt lat="48.4603" lon="-2.78003">
        <ele>155.8</ele>
        <time>2026-01-25T11:55:44Z</time>
      </trkpt>
      <trkpt lat="48.46029" lon="-2.77995">
        <ele>155.8</ele>
        <time>2026-01-25T11:55:45Z</time>
      </trkpt>
      <trkpt lat="48.46029" lon="-2.77987">
        <ele>156.8</ele>
        <time>2026-01-25T11:55:46Z</time>
      </trkpt>
      <trkpt lat="48.46028" lon="-2.77978">
        <ele>156.8</ele>
        <time>2026-01-25T11:55:47Z</time>
      </trkpt>
      <trkpt lat="48.46027" lon="-2.7797">
        <ele>156.8</ele>
        <time>2026-01-25T11:55:48Z</time>
      </trkpt>
      <trkpt lat="48.46025" lon="-2.77961">
        <ele>156.8</ele>
        <time>2026-01-25T11:55:49Z</time>
      </trkpt>
      <trkpt lat="48.46024" lon="-2.77953">
        <ele>156.2</ele>
        <time>2026-01-25T11:55:50Z</time>
      </trkpt>
      <trkpt lat="48.46023" lon="-2.77945">
        <ele>156.2</ele>
        <time>2026-01-25T11:55:51Z</time>
      </trkpt>
      <trkpt lat="48.46021" lon="-2.77936">
        <ele>156.2</ele>
        <time>2026-01-25T11:55:52Z</time>
      </trkpt>
      <trkpt lat="48.4602" lon="-2.77928">
        <ele>156.2</ele>
        <time>2026-01-25T11:55:53Z</time>
      </trkpt>
      <trkpt lat="48.46018" lon="-2.7792">
        <ele>156.6</ele>
        <time>2026-01-25T11:55:54Z</time>
      </trkpt>
      <trkpt lat="48.46016" lon="-2.77912">
        <ele>156.6</ele>
        <time>2026-01-25T11:55:55Z</time>
      </trkpt>
      <trkpt lat="48.46014" lon="-2.77904">
        <ele>156.6</ele>
        <time>2026-01-25T11:55:56Z</time>
      </trkpt>
      <trkpt lat="48.46012" lon="-2.77896">
        <ele>156.6</ele>
        <time>2026-01-25T11:55:57Z</time>
      </trkpt>
      <trkpt lat="48.46009" lon="-2.77888">
        <ele>156.6</ele>
        <time>2026-01-25T11:55:58Z</time>
      </trkpt>
      <trkpt lat="48.46007" lon="-2.7788">
        <ele>156.8</ele>
        <time>2026-01-25T11:55:59Z</time>
      </trkpt>
      <trkpt lat="48.46004" lon="-2.77871">
        <ele>156.8</ele>
        <time>2026-01-25T11:56:00Z</time>
      </trkpt>
      <trkpt lat="48.46002" lon="-2.77863">
        <ele>156.8</ele>
        <time>2026-01-25T11:56:01Z</time>
      </trkpt>
      <trkpt lat="48.45999" lon="-2.77855">
        <ele>155.8</ele>
        <time>2026-01-25T11:56:02Z</time>
      </trkpt>
      <trkpt lat="48.45996" lon="-2.77846">
        <ele>156</ele>
        <time>2026-01-25T11:56:03Z</time>
      </trkpt>
      <trkpt lat="48.45993" lon="-2.77838">
        <ele>156</ele>
        <time>2026-01-25T11:56:04Z</time>
      </trkpt>
      <trkpt lat="48.45991" lon="-2.77829">
        <ele>156</ele>
        <time>2026-01-25T11:56:05Z</time>
      </trkpt>
      <trkpt lat="48.45988" lon="-2.77821">
        <ele>155</ele>
        <time>2026-01-25T11:56:06Z</time>
      </trkpt>
      <trkpt lat="48.45984" lon="-2.77813">
        <ele>155</ele>
        <time>2026-01-25T11:56:07Z</time>
      </trkpt>
      <trkpt lat="48.45981" lon="-2.77804">
        <ele>155</ele>
        <time>2026-01-25T11:56:08Z</time>
      </trkpt>
      <trkpt lat="48.45978" lon="-2.77795">
        <ele>155</ele>
        <time>2026-01-25T11:56:09Z</time>
      </trkpt>
      <trkpt lat="48.45975" lon="-2.77786">
        <ele>154</ele>
        <time>2026-01-25T11:56:10Z</time>
      </trkpt>
      <trkpt lat="48.45972" lon="-2.77777">
        <ele>153.6</ele>
        <time>2026-01-25T11:56:11Z</time>
      </trkpt>
      <trkpt lat="48.45969" lon="-2.77768">
        <ele>153.6</ele>
        <time>2026-01-25T11:56:12Z</time>
      </trkpt>
      <trkpt lat="48.45966" lon="-2.77758">
        <ele>153.6</ele>
        <time>2026-01-25T11:56:13Z</time>
      </trkpt>
      <trkpt lat="48.45962" lon="-2.77749">
        <ele>152.6</ele>
        <time>2026-01-25T11:56:14Z</time>
      </trkpt>
      <trkpt lat="48.45959" lon="-2.77738">
        <ele>150.2</ele>
        <time>2026-01-25T11:56:15Z</time>
      </trkpt>
      <trkpt lat="48.45956" lon="-2.77728">
        <ele>150.2</ele>
        <time>2026-01-25T11:56:16Z</time>
      </trkpt>
      <trkpt lat="48.45953" lon="-2.77717">
        <ele>150.2</ele>
        <time>2026-01-25T11:56:17Z</time>
      </trkpt>
      <trkpt lat="48.4595" lon="-2.77705">
        <ele>149.2</ele>
        <time>2026-01-25T11:56:18Z</time>
      </trkpt>
      <trkpt lat="48.45947" lon="-2.77693">
        <ele>147</ele>
        <time>2026-01-25T11:56:19Z</time>
      </trkpt>
      <trkpt lat="48.45944" lon="-2.77681">
        <ele>147</ele>
        <time>2026-01-25T11:56:20Z</time>
      </trkpt>
      <trkpt lat="48.45941" lon="-2.77668">
        <ele>147</ele>
        <time>2026-01-25T11:56:21Z</time>
      </trkpt>
      <trkpt lat="48.45938" lon="-2.77654">
        <ele>146</ele>
        <time>2026-01-25T11:56:22Z</time>
      </trkpt>
      <trkpt lat="48.45936" lon="-2.77639">
        <ele>143.2</ele>
        <time>2026-01-25T11:56:23Z</time>
      </trkpt>
      <trkpt lat="48.45933" lon="-2.77623">
        <ele>143.2</ele>
        <time>2026-01-25T11:56:24Z</time>
      </trkpt>
      <trkpt lat="48.45931" lon="-2.77607">
        <ele>143.2</ele>
        <time>2026-01-25T11:56:25Z</time>
      </trkpt>
      <trkpt lat="48.4593" lon="-2.77591">
        <ele>142.2</ele>
        <time>2026-01-25T11:56:26Z</time>
      </trkpt>
      <trkpt lat="48.45929" lon="-2.77573">
        <ele>138</ele>
        <time>2026-01-25T11:56:27Z</time>
      </trkpt>
      <trkpt lat="48.45929" lon="-2.77556">
        <ele>138</ele>
        <time>2026-01-25T11:56:28Z</time>
      </trkpt>
      <trkpt lat="48.45928" lon="-2.77537">
        <ele>138</ele>
        <time>2026-01-25T11:56:29Z</time>
      </trkpt>
      <trkpt lat="48.45927" lon="-2.77519">
        <ele>137</ele>
        <time>2026-01-25T11:56:30Z</time>
      </trkpt>
      <trkpt lat="48.45926" lon="-2.775">
        <ele>131.4</ele>
        <time>2026-01-25T11:56:31Z</time>
      </trkpt>
      <trkpt lat="48.45926" lon="-2.77482">
        <ele>131.4</ele>
        <time>2026-01-25T11:56:32Z</time>
      </trkpt>
      <trkpt lat="48.45925" lon="-2.77465">
        <ele>131.4</ele>
        <time>2026-01-25T11:56:33Z</time>
      </trkpt>
      <trkpt lat="48.45924" lon="-2.77449">
        <ele>131.8</ele>
        <time>2026-01-25T11:56:34Z</time>
      </trkpt>
      <trkpt lat="48.45923" lon="-2.77432">
        <ele>130.8</ele>
        <time>2026-01-25T11:56:35Z</time>
      </trkpt>
      <trkpt lat="48.45922" lon="-2.77416">
        <ele>130.8</ele>
        <time>2026-01-25T11:56:36Z</time>
      </trkpt>
      <trkpt lat="48.4592" lon="-2.77399">
        <ele>130.8</ele>
        <time>2026-01-25T11:56:37Z</time>
      </trkpt>
      <trkpt lat="48.45919" lon="-2.77381">
        <ele>129.8</ele>
        <time>2026-01-25T11:56:38Z</time>
      </trkpt>
      <trkpt lat="48.45917" lon="-2.77363">
        <ele>125.8</ele>
        <time>2026-01-25T11:56:39Z</time>
      </trkpt>
      <trkpt lat="48.45915" lon="-2.77345">
        <ele>125.8</ele>
        <time>2026-01-25T11:56:40Z</time>
      </trkpt>
      <trkpt lat="48.45912" lon="-2.77327">
        <ele>125.8</ele>
        <time>2026-01-25T11:56:41Z</time>
      </trkpt>
      <trkpt lat="48.45909" lon="-2.77308">
        <ele>124.8</ele>
        <time>2026-01-25T11:56:42Z</time>
      </trkpt>
      <trkpt lat="48.45906" lon="-2.7729">
        <ele>121.8</ele>
        <time>2026-01-25T11:56:43Z</time>
      </trkpt>
      <trkpt lat="48.45903" lon="-2.77271">
        <ele>121.8</ele>
        <time>2026-01-25T11:56:44Z</time>
      </trkpt>
      <trkpt lat="48.45899" lon="-2.77253">
        <ele>121.8</ele>
        <time>2026-01-25T11:56:45Z</time>
      </trkpt>
      <trkpt lat="48.45895" lon="-2.77234">
        <ele>120.8</ele>
        <time>2026-01-25T11:56:46Z</time>
      </trkpt>
      <trkpt lat="48.45892" lon="-2.77216">
        <ele>119.8</ele>
        <time>2026-01-25T11:56:47Z</time>
      </trkpt>
      <trkpt lat="48.45888" lon="-2.77198">
        <ele>119.8</ele>
        <time>2026-01-25T11:56:48Z</time>
      </trkpt>
      <trkpt lat="48.45885" lon="-2.7718">
        <ele>119.8</ele>
        <time>2026-01-25T11:56:49Z</time>
      </trkpt>
      <trkpt lat="48.45881" lon="-2.77162">
        <ele>118.8</ele>
        <time>2026-01-25T11:56:50Z</time>
      </trkpt>
      <trkpt lat="48.45879" lon="-2.77144">
        <ele>116.8</ele>
        <time>2026-01-25T11:56:51Z</time>
      </trkpt>
      <trkpt lat="48.45876" lon="-2.77126">
        <ele>116.8</ele>
        <time>2026-01-25T11:56:52Z</time>
      </trkpt>
      <trkpt lat="48.45874" lon="-2.77108">
        <ele>116.8</ele>
        <time>2026-01-25T11:56:53Z</time>
      </trkpt>
      <trkpt lat="48.45872" lon="-2.7709">
        <ele>116.8</ele>
        <time>2026-01-25T11:56:54Z</time>
      </trkpt>
      <trkpt lat="48.4587" lon="-2.77072">
        <ele>114.8</ele>
        <time>2026-01-25T11:56:55Z</time>
      </trkpt>
      <trkpt lat="48.45868" lon="-2.77054">
        <ele>114.8</ele>
        <time>2026-01-25T11:56:56Z</time>
      </trkpt>
      <trkpt lat="48.45866" lon="-2.77037">
        <ele>114.8</ele>
        <time>2026-01-25T11:56:57Z</time>
      </trkpt>
      <trkpt lat="48.45864" lon="-2.7702">
        <ele>113.8</ele>
        <time>2026-01-25T11:56:58Z</time>
      </trkpt>
      <trkpt lat="48.45862" lon="-2.77003">
        <ele>112.8</ele>
        <time>2026-01-25T11:56:59Z</time>
      </trkpt>
      <trkpt lat="48.4586" lon="-2.76986">
        <ele>112.8</ele>
        <time>2026-01-25T11:57:00Z</time>
      </trkpt>
      <trkpt lat="48.45859" lon="-2.76969">
        <ele>112.8</ele>
        <time>2026-01-25T11:57:01Z</time>
      </trkpt>
      <trkpt lat="48.45858" lon="-2.76952">
        <ele>111.8</ele>
        <time>2026-01-25T11:57:02Z</time>
      </trkpt>
      <trkpt lat="48.45858" lon="-2.76935">
        <ele>109.6</ele>
        <time>2026-01-25T11:57:03Z</time>
      </trkpt>
      <trkpt lat="48.45857" lon="-2.76918">
        <ele>109.6</ele>
        <time>2026-01-25T11:57:04Z</time>
      </trkpt>
      <trkpt lat="48.45857" lon="-2.769">
        <ele>109.6</ele>
        <time>2026-01-25T11:57:05Z</time>
      </trkpt>
      <trkpt lat="48.45857" lon="-2.76883">
        <ele>108.6</ele>
        <time>2026-01-25T11:57:06Z</time>
      </trkpt>
      <trkpt lat="48.45856" lon="-2.76865">
        <ele>106.8</ele>
        <time>2026-01-25T11:57:07Z</time>
      </trkpt>
      <trkpt lat="48.45857" lon="-2.76848">
        <ele>106.8</ele>
        <time>2026-01-25T11:57:08Z</time>
      </trkpt>
      <trkpt lat="48.45857" lon="-2.76831">
        <ele>106.8</ele>
        <time>2026-01-25T11:57:09Z</time>
      </trkpt>
      <trkpt lat="48.45858" lon="-2.76813">
        <ele>105.8</ele>
        <time>2026-01-25T11:57:10Z</time>
      </trkpt>
      <trkpt lat="48.45859" lon="-2.76796">
        <ele>103.8</ele>
        <time>2026-01-25T11:57:11Z</time>
      </trkpt>
      <trkpt lat="48.4586" lon="-2.76779">
        <ele>103.8</ele>
        <time>2026-01-25T11:57:12Z</time>
      </trkpt>
      <trkpt lat="48.45861" lon="-2.76761">
        <ele>103.8</ele>
        <time>2026-01-25T11:57:13Z</time>
      </trkpt>
      <trkpt lat="48.45863" lon="-2.76744">
        <ele>103.8</ele>
        <time>2026-01-25T11:57:14Z</time>
      </trkpt>
      <trkpt lat="48.45864" lon="-2.76726">
        <ele>100.2</ele>
        <time>2026-01-25T11:57:15Z</time>
      </trkpt>
      <trkpt lat="48.45866" lon="-2.76708">
        <ele>100.2</ele>
        <time>2026-01-25T11:57:16Z</time>
      </trkpt>
      <trkpt lat="48.45868" lon="-2.76689">
        <ele>100.2</ele>
        <time>2026-01-25T11:57:17Z</time>
      </trkpt>
      <trkpt lat="48.4587" lon="-2.76672">
        <ele>99.2</ele>
        <time>2026-01-25T11:57:18Z</time>
      </trkpt>
      <trkpt lat="48.45872" lon="-2.76654">
        <ele>95.2</ele>
        <time>2026-01-25T11:57:19Z</time>
      </trkpt>
      <trkpt lat="48.45874" lon="-2.76637">
        <ele>95.2</ele>
        <time>2026-01-25T11:57:20Z</time>
      </trkpt>
      <trkpt lat="48.45876" lon="-2.76619">
        <ele>95.2</ele>
        <time>2026-01-25T11:57:21Z</time>
      </trkpt>
      <trkpt lat="48.45877" lon="-2.76601">
        <ele>94.2</ele>
        <time>2026-01-25T11:57:22Z</time>
      </trkpt>
      <trkpt lat="48.45879" lon="-2.76583">
        <ele>92.6</ele>
        <time>2026-01-25T11:57:23Z</time>
      </trkpt>
      <trkpt lat="48.4588" lon="-2.76564">
        <ele>92.6</ele>
        <time>2026-01-25T11:57:24Z</time>
      </trkpt>
      <trkpt lat="48.45881" lon="-2.76546">
        <ele>92.6</ele>
        <time>2026-01-25T11:57:25Z</time>
      </trkpt>
      <trkpt lat="48.45881" lon="-2.76527">
        <ele>91.6</ele>
        <time>2026-01-25T11:57:26Z</time>
      </trkpt>
      <trkpt lat="48.45882" lon="-2.76508">
        <ele>89</ele>
        <time>2026-01-25T11:57:27Z</time>
      </trkpt>
      <trkpt lat="48.45881" lon="-2.7649">
        <ele>89</ele>
        <time>2026-01-25T11:57:28Z</time>
      </trkpt>
      <trkpt lat="48.45881" lon="-2.76473">
        <ele>89</ele>
        <time>2026-01-25T11:57:29Z</time>
      </trkpt>
      <trkpt lat="48.4588" lon="-2.76457">
        <ele>89</ele>
        <time>2026-01-25T11:57:30Z</time>
      </trkpt>
      <trkpt lat="48.4588" lon="-2.76441">
        <ele>88.6</ele>
        <time>2026-01-25T11:57:31Z</time>
      </trkpt>
      <trkpt lat="48.45879" lon="-2.76426">
        <ele>88.6</ele>
        <time>2026-01-25T11:57:32Z</time>
      </trkpt>
      <trkpt lat="48.45877" lon="-2.76411">
        <ele>88.6</ele>
        <time>2026-01-25T11:57:33Z</time>
      </trkpt>
      <trkpt lat="48.45876" lon="-2.76395">
        <ele>87.6</ele>
        <time>2026-01-25T11:57:34Z</time>
      </trkpt>
      <trkpt lat="48.45874" lon="-2.76379">
        <ele>85.2</ele>
        <time>2026-01-25T11:57:35Z</time>
      </trkpt>
      <trkpt lat="48.45872" lon="-2.76363">
        <ele>85.2</ele>
        <time>2026-01-25T11:57:36Z</time>
      </trkpt>
      <trkpt lat="48.4587" lon="-2.76347">
        <ele>85.2</ele>
        <time>2026-01-25T11:57:37Z</time>
      </trkpt>
      <trkpt lat="48.45868" lon="-2.76331">
        <ele>84.2</ele>
        <time>2026-01-25T11:57:38Z</time>
      </trkpt>
      <trkpt lat="48.45866" lon="-2.76315">
        <ele>82.2</ele>
        <time>2026-01-25T11:57:39Z</time>
      </trkpt>
      <trkpt lat="48.45863" lon="-2.76298">
        <ele>82.2</ele>
        <time>2026-01-25T11:57:40Z</time>
      </trkpt>
      <trkpt lat="48.4586" lon="-2.76281">
        <ele>82.2</ele>
        <time>2026-01-25T11:57:41Z</time>
      </trkpt>
      <trkpt lat="48.45858" lon="-2.76264">
        <ele>81.2</ele>
        <time>2026-01-25T11:57:42Z</time>
      </trkpt>
      <trkpt lat="48.45855" lon="-2.76248">
        <ele>78.6</ele>
        <time>2026-01-25T11:57:43Z</time>
      </trkpt>
      <trkpt lat="48.45852" lon="-2.76231">
        <ele>78.6</ele>
        <time>2026-01-25T11:57:44Z</time>
      </trkpt>
      <trkpt lat="48.4585" lon="-2.76214">
        <ele>78.6</ele>
        <time>2026-01-25T11:57:45Z</time>
      </trkpt>
      <trkpt lat="48.45847" lon="-2.76197">
        <ele>77.6</ele>
        <time>2026-01-25T11:57:46Z</time>
      </trkpt>
      <trkpt lat="48.45844" lon="-2.76181">
        <ele>77.8</ele>
        <time>2026-01-25T11:57:47Z</time>
      </trkpt>
      <trkpt lat="48.45842" lon="-2.76165">
        <ele>77.8</ele>
        <time>2026-01-25T11:57:48Z</time>
      </trkpt>
      <trkpt lat="48.4584" lon="-2.76148">
        <ele>77.8</ele>
        <time>2026-01-25T11:57:49Z</time>
      </trkpt>
      <trkpt lat="48.45838" lon="-2.76132">
        <ele>77.8</ele>
        <time>2026-01-25T11:57:50Z</time>
      </trkpt>
      <trkpt lat="48.45837" lon="-2.76117">
        <ele>78.2</ele>
        <time>2026-01-25T11:57:51Z</time>
      </trkpt>
      <trkpt lat="48.45835" lon="-2.76102">
        <ele>78.2</ele>
        <time>2026-01-25T11:57:52Z</time>
      </trkpt>
      <trkpt lat="48.45834" lon="-2.76087">
        <ele>78.2</ele>
        <time>2026-01-25T11:57:53Z</time>
      </trkpt>
      <trkpt lat="48.45833" lon="-2.76073">
        <ele>79.2</ele>
        <time>2026-01-25T11:57:54Z</time>
      </trkpt>
      <trkpt lat="48.45832" lon="-2.76059">
        <ele>80.4</ele>
        <time>2026-01-25T11:57:55Z</time>
      </trkpt>
      <trkpt lat="48.45831" lon="-2.76046">
        <ele>80.4</ele>
        <time>2026-01-25T11:57:56Z</time>
      </trkpt>
      <trkpt lat="48.4583" lon="-2.76033">
        <ele>80.4</ele>
        <time>2026-01-25T11:57:57Z</time>
      </trkpt>
      <trkpt lat="48.45829" lon="-2.76021">
        <ele>81.4</ele>
        <time>2026-01-25T11:57:58Z</time>
      </trkpt>
      <trkpt lat="48.45828" lon="-2.76009">
        <ele>83.2</ele>
        <time>2026-01-25T11:57:59Z</time>
      </trkpt>
      <trkpt lat="48.45827" lon="-2.75998">
        <ele>83.2</ele>
        <time>2026-01-25T11:58:00Z</time>
      </trkpt>
      <trkpt lat="48.45826" lon="-2.75988">
        <ele>83.2</ele>
        <time>2026-01-25T11:58:01Z</time>
      </trkpt>
      <trkpt lat="48.45826" lon="-2.75978">
        <ele>84.2</ele>
        <time>2026-01-25T11:58:02Z</time>
      </trkpt>
      <trkpt lat="48.45825" lon="-2.75968">
        <ele>85.8</ele>
        <time>2026-01-25T11:58:03Z</time>
      </trkpt>
      <trkpt lat="48.45824" lon="-2.7596">
        <ele>85.8</ele>
        <time>2026-01-25T11:58:04Z</time>
      </trkpt>
      <trkpt lat="48.45824" lon="-2.75952">
        <ele>85.8</ele>
        <time>2026-01-25T11:58:05Z</time>
      </trkpt>
      <trkpt lat="48.45824" lon="-2.75944">
        <ele>86.8</ele>
        <time>2026-01-25T11:58:06Z</time>
      </trkpt>
      <trkpt lat="48.45823" lon="-2.75937">
        <ele>87.8</ele>
        <time>2026-01-25T11:58:07Z</time>
      </trkpt>
      <trkpt lat="48.45823" lon="-2.75931">
        <ele>87.8</ele>
        <time>2026-01-25T11:58:08Z</time>
      </trkpt>
      <trkpt lat="48.45822" lon="-2.75925">
        <ele>87.8</ele>
        <time>2026-01-25T11:58:09Z</time>
      </trkpt>
      <trkpt lat="48.45822" lon="-2.7592">
        <ele>88.6</ele>
        <time>2026-01-25T11:58:10Z</time>
      </trkpt>
      <trkpt lat="48.45822" lon="-2.75915">
        <ele>89.4</ele>
        <time>2026-01-25T11:58:11Z</time>
      </trkpt>
      <trkpt lat="48.45822" lon="-2.75911">
        <ele>89.4</ele>
        <time>2026-01-25T11:58:12Z</time>
      </trkpt>
      <trkpt lat="48.45821" lon="-2.75907">
        <ele>89.4</ele>
        <time>2026-01-25T11:58:13Z</time>
      </trkpt>
      <trkpt lat="48.45821" lon="-2.75902">
        <ele>90.2</ele>
        <time>2026-01-25T11:58:14Z</time>
      </trkpt>
      <trkpt lat="48.4582" lon="-2.75898">
        <ele>90.4</ele>
        <time>2026-01-25T11:58:15Z</time>
      </trkpt>
      <trkpt lat="48.4582" lon="-2.75894">
        <ele>90.4</ele>
        <time>2026-01-25T11:58:16Z</time>
      </trkpt>
      <trkpt lat="48.4582" lon="-2.75889">
        <ele>90.4</ele>
        <time>2026-01-25T11:58:17Z</time>
      </trkpt>
      <trkpt lat="48.4582" lon="-2.75885">
        <ele>90.4</ele>
        <time>2026-01-25T11:58:18Z</time>
      </trkpt>
      <trkpt lat="48.45819" lon="-2.7588">
        <ele>93</ele>
        <time>2026-01-25T11:58:19Z</time>
      </trkpt>
      <trkpt lat="48.45819" lon="-2.75876">
        <ele>93</ele>
        <time>2026-01-25T11:58:20Z</time>
      </trkpt>
      <trkpt lat="48.45818" lon="-2.75872">
        <ele>93</ele>
        <time>2026-01-25T11:58:21Z</time>
      </trkpt>
      <trkpt lat="48.45818" lon="-2.75867">
        <ele>93</ele>
        <time>2026-01-25T11:58:22Z</time>
      </trkpt>
      <trkpt lat="48.45818" lon="-2.75863">
        <ele>92.2</ele>
        <time>2026-01-25T11:58:23Z</time>
      </trkpt>
      <trkpt lat="48.45818" lon="-2.75858">
        <ele>92.2</ele>
        <time>2026-01-25T11:58:24Z</time>
      </trkpt>
      <trkpt lat="48.45818" lon="-2.75854">
        <ele>92.2</ele>
        <time>2026-01-25T11:58:25Z</time>
      </trkpt>
      <trkpt lat="48.45817" lon="-2.7585">
        <ele>92.6</ele>
        <time>2026-01-25T11:58:26Z</time>
      </trkpt>
      <trkpt lat="48.45817" lon="-2.75846">
        <ele>92.6</ele>
        <time>2026-01-25T11:58:27Z</time>
      </trkpt>
      <trkpt lat="48.45817" lon="-2.75842">
        <ele>92.6</ele>
        <time>2026-01-25T11:58:28Z</time>
      </trkpt>
      <trkpt lat="48.45817" lon="-2.75838">
        <ele>92.6</ele>
        <time>2026-01-25T11:58:29Z</time>
      </trkpt>
      <trkpt lat="48.45816" lon="-2.75834">
        <ele>93.4</ele>
        <time>2026-01-25T11:58:30Z</time>
      </trkpt>
      <trkpt lat="48.45816" lon="-2.75829">
        <ele>93.2</ele>
        <time>2026-01-25T11:58:31Z</time>
      </trkpt>
      <trkpt lat="48.45816" lon="-2.75825">
        <ele>93.2</ele>
        <time>2026-01-25T11:58:32Z</time>
      </trkpt>
      <trkpt lat="48.45815" lon="-2.75821">
        <ele>93.2</ele>
        <time>2026-01-25T11:58:33Z</time>
      </trkpt>
      <trkpt lat="48.45814" lon="-2.75817">
        <ele>93.8</ele>
        <time>2026-01-25T11:58:34Z</time>
      </trkpt>
      <trkpt lat="48.45814" lon="-2.75813">
        <ele>94</ele>
        <time>2026-01-25T11:58:35Z</time>
      </trkpt>
      <trkpt lat="48.45814" lon="-2.75809">
        <ele>94</ele>
        <time>2026-01-25T11:58:36Z</time>
      </trkpt>
      <trkpt lat="48.45814" lon="-2.75805">
        <ele>94</ele>
        <time>2026-01-25T11:58:37Z</time>
      </trkpt>
      <trkpt lat="48.45814" lon="-2.75801">
        <ele>94.6</ele>
        <time>2026-01-25T11:58:38Z</time>
      </trkpt>
      <trkpt lat="48.45814" lon="-2.75797">
        <ele>94.8</ele>
        <time>2026-01-25T11:58:39Z</time>
      </trkpt>
      <trkpt lat="48.45814" lon="-2.75792">
        <ele>94.8</ele>
        <time>2026-01-25T11:58:40Z</time>
      </trkpt>
      <trkpt lat="48.45814" lon="-2.75788">
        <ele>94.8</ele>
        <time>2026-01-25T11:58:41Z</time>
      </trkpt>
      <trkpt lat="48.45813" lon="-2.75785">
        <ele>95.6</ele>
        <time>2026-01-25T11:58:42Z</time>
      </trkpt>
      <trkpt lat="48.45813" lon="-2.75781">
        <ele>95.4</ele>
        <time>2026-01-25T11:58:43Z</time>
      </trkpt>
      <trkpt lat="48.45812" lon="-2.75777">
        <ele>95.4</ele>
        <time>2026-01-25T11:58:44Z</time>
      </trkpt>
      <trkpt lat="48.45812" lon="-2.75773">
        <ele>95.4</ele>
        <time>2026-01-25T11:58:45Z</time>
      </trkpt>
      <trkpt lat="48.45812" lon="-2.75769">
        <ele>96</ele>
        <time>2026-01-25T11:58:46Z</time>
      </trkpt>
      <trkpt lat="48.45811" lon="-2.75765">
        <ele>96.6</ele>
        <time>2026-01-25T11:58:47Z</time>
      </trkpt>
      <trkpt lat="48.45811" lon="-2.75761">
        <ele>96.6</ele>
        <time>2026-01-25T11:58:48Z</time>
      </trkpt>
      <trkpt lat="48.45811" lon="-2.75758">
        <ele>96.6</ele>
        <time>2026-01-25T11:58:49Z</time>
      </trkpt>
      <trkpt lat="48.45811" lon="-2.75754">
        <ele>97.4</ele>
        <time>2026-01-25T11:58:50Z</time>
      </trkpt>
      <trkpt lat="48.45811" lon="-2.7575">
        <ele>97.6</ele>
        <time>2026-01-25T11:58:51Z</time>
      </trkpt>
      <trkpt lat="48.4581" lon="-2.75747">
        <ele>97.6</ele>
        <time>2026-01-25T11:58:52Z</time>
      </trkpt>
      <trkpt lat="48.4581" lon="-2.75743">
        <ele>97.6</ele>
        <time>2026-01-25T11:58:53Z</time>
      </trkpt>
      <trkpt lat="48.4581" lon="-2.7574">
        <ele>98.6</ele>
        <time>2026-01-25T11:58:54Z</time>
      </trkpt>
      <trkpt lat="48.4581" lon="-2.75736">
        <ele>98.8</ele>
        <time>2026-01-25T11:58:55Z</time>
      </trkpt>
      <trkpt lat="48.45809" lon="-2.75733">
        <ele>98.8</ele>
        <time>2026-01-25T11:58:56Z</time>
      </trkpt>
      <trkpt lat="48.45809" lon="-2.7573">
        <ele>98.8</ele>
        <time>2026-01-25T11:58:57Z</time>
      </trkpt>
      <trkpt lat="48.45809" lon="-2.75727">
        <ele>99.4</ele>
        <time>2026-01-25T11:58:58Z</time>
      </trkpt>
      <trkpt lat="48.45809" lon="-2.75724">
        <ele>99.2</ele>
        <time>2026-01-25T11:58:59Z</time>
      </trkpt>
      <trkpt lat="48.45809" lon="-2.75721">
        <ele>99.2</ele>
        <time>2026-01-25T11:59:00Z</time>
      </trkpt>
      <trkpt lat="48.45808" lon="-2.75719">
        <ele>99.2</ele>
        <time>2026-01-25T11:59:01Z</time>
      </trkpt>
      <trkpt lat="48.45808" lon="-2.75716">
        <ele>100.2</ele>
        <time>2026-01-25T11:59:02Z</time>
      </trkpt>
      <trkpt lat="48.45808" lon="-2.75713">
        <ele>100.8</ele>
        <time>2026-01-25T11:59:03Z</time>
      </trkpt>
      <trkpt lat="48.45808" lon="-2.7571">
        <ele>100.8</ele>
        <time>2026-01-25T11:59:04Z</time>
      </trkpt>
      <trkpt lat="48.45808" lon="-2.75707">
        <ele>100.8</ele>
        <time>2026-01-25T11:59:05Z</time>
      </trkpt>
      <trkpt lat="48.45808" lon="-2.75704">
        <ele>101.6</ele>
        <time>2026-01-25T11:59:06Z</time>
      </trkpt>
      <trkpt lat="48.45808" lon="-2.75701">
        <ele>102</ele>
        <time>2026-01-25T11:59:07Z</time>
      </trkpt>
      <trkpt lat="48.45808" lon="-2.75698">
        <ele>102</ele>
        <time>2026-01-25T11:59:08Z</time>
      </trkpt>
      <trkpt lat="48.45808" lon="-2.75695">
        <ele>102</ele>
        <time>2026-01-25T11:59:09Z</time>
      </trkpt>
      <trkpt lat="48.45808" lon="-2.75692">
        <ele>102.6</ele>
        <time>2026-01-25T11:59:10Z</time>
      </trkpt>
      <trkpt lat="48.45808" lon="-2.75689">
        <ele>102.6</ele>
        <time>2026-01-25T11:59:11Z</time>
      </trkpt>
      <trkpt lat="48.45808" lon="-2.75686">
        <ele>102.6</ele>
        <time>2026-01-25T11:59:12Z</time>
      </trkpt>
      <trkpt lat="48.45808" lon="-2.75683">
        <ele>102.6</ele>
        <time>2026-01-25T11:59:13Z</time>
      </trkpt>
      <trkpt lat="48.45809" lon="-2.7568">
        <ele>103.2</ele>
        <time>2026-01-25T11:59:14Z</time>
      </trkpt>
      <trkpt lat="48.45809" lon="-2.75678">
        <ele>104.2</ele>
        <time>2026-01-25T11:59:15Z</time>
      </trkpt>
      <trkpt lat="48.45809" lon="-2.75675">
        <ele>104.2</ele>
        <time>2026-01-25T11:59:16Z</time>
      </trkpt>
      <trkpt lat="48.4581" lon="-2.75672">
        <ele>104.2</ele>
        <time>2026-01-25T11:59:17Z</time>
      </trkpt>
      <trkpt lat="48.4581" lon="-2.75669">
        <ele>104.4</ele>
        <time>2026-01-25T11:59:18Z</time>
      </trkpt>
      <trkpt lat="48.45811" lon="-2.75667">
        <ele>104.8</ele>
        <time>2026-01-25T11:59:19Z</time>
      </trkpt>
      <trkpt lat="48.45812" lon="-2.75664">
        <ele>104.8</ele>
        <time>2026-01-25T11:59:20Z</time>
      </trkpt>
      <trkpt lat="48.45812" lon="-2.75662">
        <ele>104.8</ele>
        <time>2026-01-25T11:59:21Z</time>
      </trkpt>
      <trkpt lat="48.45813" lon="-2.75659">
        <ele>105.6</ele>
        <time>2026-01-25T11:59:22Z</time>
      </trkpt>
      <trkpt lat="48.45814" lon="-2.75656">
        <ele>106</ele>
        <time>2026-01-25T11:59:23Z</time>
      </trkpt>
      <trkpt lat="48.45815" lon="-2.75654">
        <ele>106</ele>
        <time>2026-01-25T11:59:24Z</time>
      </trkpt>
      <trkpt lat="48.45816" lon="-2.75651">
        <ele>106</ele>
        <time>2026-01-25T11:59:25Z</time>
      </trkpt>
      <trkpt lat="48.45816" lon="-2.75648">
        <ele>106.8</ele>
        <time>2026-01-25T11:59:26Z</time>
      </trkpt>
      <trkpt lat="48.45818" lon="-2.75646">
        <ele>107</ele>
        <time>2026-01-25T11:59:27Z</time>
      </trkpt>
      <trkpt lat="48.45818" lon="-2.75644">
        <ele>107</ele>
        <time>2026-01-25T11:59:28Z</time>
      </trkpt>
      <trkpt lat="48.45819" lon="-2.75641">
        <ele>107</ele>
        <time>2026-01-25T11:59:29Z</time>
      </trkpt>
      <trkpt lat="48.4582" lon="-2.75639">
        <ele>107.4</ele>
        <time>2026-01-25T11:59:30Z</time>
      </trkpt>
      <trkpt lat="48.45821" lon="-2.75636">
        <ele>107.4</ele>
        <time>2026-01-25T11:59:31Z</time>
      </trkpt>
      <trkpt lat="48.45822" lon="-2.75634">
        <ele>107.4</ele>
        <time>2026-01-25T11:59:32Z</time>
      </trkpt>
      <trkpt lat="48.45822" lon="-2.75631">
        <ele>107.4</ele>
        <time>2026-01-25T11:59:33Z</time>
      </trkpt>
      <trkpt lat="48.45823" lon="-2.75629">
        <ele>108.4</ele>
        <time>2026-01-25T11:59:34Z</time>
      </trkpt>
      <trkpt lat="48.45824" lon="-2.75626">
        <ele>108.8</ele>
        <time>2026-01-25T11:59:35Z</time>
      </trkpt>
      <trkpt lat="48.45825" lon="-2.75624">
        <ele>108.8</ele>
        <time>2026-01-25T11:59:36Z</time>
      </trkpt>
      <trkpt lat="48.45826" lon="-2.75622">
        <ele>108.8</ele>
        <time>2026-01-25T11:59:37Z</time>
      </trkpt>
      <trkpt lat="48.45827" lon="-2.75619">
        <ele>108.8</ele>
        <time>2026-01-25T11:59:38Z</time>
      </trkpt>
      <trkpt lat="48.45828" lon="-2.75617">
        <ele>109.6</ele>
        <time>2026-01-25T11:59:39Z</time>
      </trkpt>
      <trkpt lat="48.45829" lon="-2.75614">
        <ele>109.6</ele>
        <time>2026-01-25T11:59:40Z</time>
      </trkpt>
      <trkpt lat="48.4583" lon="-2.75612">
        <ele>109.6</ele>
        <time>2026-01-25T11:59:41Z</time>
      </trkpt>
      <trkpt lat="48.45831" lon="-2.75609">
        <ele>110.6</ele>
        <time>2026-01-25T11:59:42Z</time>
      </trkpt>
      <trkpt lat="48.45832" lon="-2.75607">
        <ele>110.8</ele>
        <time>2026-01-25T11:59:43Z</time>
      </trkpt>
      <trkpt lat="48.45833" lon="-2.75605">
        <ele>110.8</ele>
        <time>2026-01-25T11:59:44Z</time>
      </trkpt>
      <trkpt lat="48.45834" lon="-2.75603">
        <ele>110.8</ele>
        <time>2026-01-25T11:59:45Z</time>
      </trkpt>
      <trkpt lat="48.45835" lon="-2.756">
        <ele>111.6</ele>
        <time>2026-01-25T11:59:46Z</time>
      </trkpt>
      <trkpt lat="48.45836" lon="-2.75598">
        <ele>111.8</ele>
        <time>2026-01-25T11:59:47Z</time>
      </trkpt>
      <trkpt lat="48.45837" lon="-2.75595">
        <ele>111.8</ele>
        <time>2026-01-25T11:59:48Z</time>
      </trkpt>
      <trkpt lat="48.45837" lon="-2.75593">
        <ele>111.8</ele>
        <time>2026-01-25T11:59:49Z</time>
      </trkpt>
      <trkpt lat="48.45837" lon="-2.7559">
        <ele>112.4</ele>
        <time>2026-01-25T11:59:50Z</time>
      </trkpt>
      <trkpt lat="48.45837" lon="-2.75587">
        <ele>112.8</ele>
        <time>2026-01-25T11:59:51Z</time>
      </trkpt>
      <trkpt lat="48.45837" lon="-2.75584">
        <ele>112.8</ele>
        <time>2026-01-25T11:59:52Z</time>
      </trkpt>
      <trkpt lat="48.45837" lon="-2.75581">
        <ele>112.8</ele>
        <time>2026-01-25T11:59:53Z</time>
      </trkpt>
      <trkpt lat="48.45836" lon="-2.75579">
        <ele>113.6</ele>
        <time>2026-01-25T11:59:54Z</time>
      </trkpt>
      <trkpt lat="48.45835" lon="-2.75576">
        <ele>114</ele>
        <time>2026-01-25T11:59:55Z</time>
      </trkpt>
      <trkpt lat="48.45834" lon="-2.75574">
        <ele>114</ele>
        <time>2026-01-25T11:59:56Z</time>
      </trkpt>
      <trkpt lat="48.45833" lon="-2.75571">
        <ele>114</ele>
        <time>2026-01-25T11:59:57Z</time>
      </trkpt>
      <trkpt lat="48.45832" lon="-2.75569">
        <ele>114.8</ele>
        <time>2026-01-25T11:59:58Z</time>
      </trkpt>
      <trkpt lat="48.4583" lon="-2.75567">
        <ele>114.8</ele>
        <time>2026-01-25T11:59:59Z</time>
      </trkpt>
      <trkpt lat="48.45828" lon="-2.75565">
        <ele>114.8</ele>
        <time>2026-01-25T12:00:00Z</time>
      </trkpt>
      <trkpt lat="48.45827" lon="-2.75563">
        <ele>114.8</ele>
        <time>2026-01-25T12:00:01Z</time>
      </trkpt>
      <trkpt lat="48.45825" lon="-2.75561">
        <ele>115.2</ele>
        <time>2026-01-25T12:00:02Z</time>
      </trkpt>
      <trkpt lat="48.45823" lon="-2.75559">
        <ele>115</ele>
        <time>2026-01-25T12:00:03Z</time>
      </trkpt>
      <trkpt lat="48.45821" lon="-2.75557">
        <ele>115</ele>
        <time>2026-01-25T12:00:04Z</time>
      </trkpt>
      <trkpt lat="48.45819" lon="-2.75555">
        <ele>115</ele>
        <time>2026-01-25T12:00:05Z</time>
      </trkpt>
      <trkpt lat="48.45817" lon="-2.75553">
        <ele>115</ele>
        <time>2026-01-25T12:00:06Z</time>
      </trkpt>
      <trkpt lat="48.45815" lon="-2.75552">
        <ele>115.6</ele>
        <time>2026-01-25T12:00:07Z</time>
      </trkpt>
      <trkpt lat="48.45813" lon="-2.7555">
        <ele>115.6</ele>
        <time>2026-01-25T12:00:08Z</time>
      </trkpt>
      <trkpt lat="48.45811" lon="-2.75548">
        <ele>115.6</ele>
        <time>2026-01-25T12:00:09Z</time>
      </trkpt>
      <trkpt lat="48.45809" lon="-2.75546">
        <ele>116.2</ele>
        <time>2026-01-25T12:00:10Z</time>
      </trkpt>
      <trkpt lat="48.45807" lon="-2.75544">
        <ele>116.6</ele>
        <time>2026-01-25T12:00:11Z</time>
      </trkpt>
      <trkpt lat="48.45805" lon="-2.75542">
        <ele>116.6</ele>
        <time>2026-01-25T12:00:12Z</time>
      </trkpt>
      <trkpt lat="48.45803" lon="-2.7554">
        <ele>116.6</ele>
        <time>2026-01-25T12:00:13Z</time>
      </trkpt>
      <trkpt lat="48.45801" lon="-2.75538">
        <ele>117.2</ele>
        <time>2026-01-25T12:00:14Z</time>
      </trkpt>
      <trkpt lat="48.45798" lon="-2.75535">
        <ele>117.4</ele>
        <time>2026-01-25T12:00:15Z</time>
      </trkpt>
      <trkpt lat="48.45796" lon="-2.75533">
        <ele>117.4</ele>
        <time>2026-01-25T12:00:16Z</time>
      </trkpt>
      <trkpt lat="48.45794" lon="-2.75532">
        <ele>117.4</ele>
        <time>2026-01-25T12:00:17Z</time>
      </trkpt>
      <trkpt lat="48.45792" lon="-2.7553">
        <ele>117.4</ele>
        <time>2026-01-25T12:00:18Z</time>
      </trkpt>
      <trkpt lat="48.4579" lon="-2.75528">
        <ele>117.4</ele>
        <time>2026-01-25T12:00:19Z</time>
      </trkpt>
      <trkpt lat="48.45788" lon="-2.75526">
        <ele>117.4</ele>
        <time>2026-01-25T12:00:20Z</time>
      </trkpt>
      <trkpt lat="48.45786" lon="-2.75523">
        <ele>117.4</ele>
        <time>2026-01-25T12:00:21Z</time>
      </trkpt>
      <trkpt lat="48.45784" lon="-2.75521">
        <ele>118</ele>
        <time>2026-01-25T12:00:22Z</time>
      </trkpt>
      <trkpt lat="48.45782" lon="-2.75519">
        <ele>118</ele>
        <time>2026-01-25T12:00:23Z</time>
      </trkpt>
      <trkpt lat="48.4578" lon="-2.75517">
        <ele>118</ele>
        <time>2026-01-25T12:00:24Z</time>
      </trkpt>
      <trkpt lat="48.45778" lon="-2.75515">
        <ele>118</ele>
        <time>2026-01-25T12:00:25Z</time>
      </trkpt>
      <trkpt lat="48.45775" lon="-2.75513">
        <ele>118</ele>
        <time>2026-01-25T12:00:26Z</time>
      </trkpt>
      <trkpt lat="48.45773" lon="-2.75511">
        <ele>118.2</ele>
        <time>2026-01-25T12:00:27Z</time>
      </trkpt>
      <trkpt lat="48.45771" lon="-2.75509">
        <ele>118.2</ele>
        <time>2026-01-25T12:00:28Z</time>
      </trkpt>
      <trkpt lat="48.45769" lon="-2.75507">
        <ele>118.2</ele>
        <time>2026-01-25T12:00:29Z</time>
      </trkpt>
      <trkpt lat="48.45766" lon="-2.75505">
        <ele>118.2</ele>
        <time>2026-01-25T12:00:30Z</time>
      </trkpt>
      <trkpt lat="48.45764" lon="-2.75503">
        <ele>119.2</ele>
        <time>2026-01-25T12:00:31Z</time>
      </trkpt>
      <trkpt lat="48.45761" lon="-2.75501">
        <ele>119.2</ele>
        <time>2026-01-25T12:00:32Z</time>
      </trkpt>
      <trkpt lat="48.45759" lon="-2.75499">
        <ele>119.2</ele>
        <time>2026-01-25T12:00:33Z</time>
      </trkpt>
      <trkpt lat="48.45756" lon="-2.75497">
        <ele>119.2</ele>
        <time>2026-01-25T12:00:34Z</time>
      </trkpt>
      <trkpt lat="48.45754" lon="-2.75495">
        <ele>119.4</ele>
        <time>2026-01-25T12:00:35Z</time>
      </trkpt>
      <trkpt lat="48.45751" lon="-2.75493">
        <ele>119.4</ele>
        <time>2026-01-25T12:00:36Z</time>
      </trkpt>
      <trkpt lat="48.45749" lon="-2.75491">
        <ele>119.4</ele>
        <time>2026-01-25T12:00:37Z</time>
      </trkpt>
      <trkpt lat="48.45746" lon="-2.75489">
        <ele>119.4</ele>
        <time>2026-01-25T12:00:38Z</time>
      </trkpt>
      <trkpt lat="48.45744" lon="-2.75487">
        <ele>120</ele>
        <time>2026-01-25T12:00:39Z</time>
      </trkpt>
      <trkpt lat="48.45742" lon="-2.75485">
        <ele>120</ele>
        <time>2026-01-25T12:00:40Z</time>
      </trkpt>
      <trkpt lat="48.45739" lon="-2.75483">
        <ele>120</ele>
        <time>2026-01-25T12:00:41Z</time>
      </trkpt>
      <trkpt lat="48.45737" lon="-2.75481">
        <ele>120.4</ele>
        <time>2026-01-25T12:00:42Z</time>
      </trkpt>
      <trkpt lat="48.45735" lon="-2.75479">
        <ele>120.6</ele>
        <time>2026-01-25T12:00:43Z</time>
      </trkpt>
      <trkpt lat="48.45732" lon="-2.75478">
        <ele>120.6</ele>
        <time>2026-01-25T12:00:44Z</time>
      </trkpt>
      <trkpt lat="48.4573" lon="-2.75477">
        <ele>120.6</ele>
        <time>2026-01-25T12:00:45Z</time>
      </trkpt>
      <trkpt lat="48.45728" lon="-2.75475">
        <ele>121.2</ele>
        <time>2026-01-25T12:00:46Z</time>
      </trkpt>
      <trkpt lat="48.45726" lon="-2.75473">
        <ele>121.6</ele>
        <time>2026-01-25T12:00:47Z</time>
      </trkpt>
      <trkpt lat="48.45723" lon="-2.75471">
        <ele>121.6</ele>
        <time>2026-01-25T12:00:48Z</time>
      </trkpt>
      <trkpt lat="48.45721" lon="-2.75469">
        <ele>121.6</ele>
        <time>2026-01-25T12:00:49Z</time>
      </trkpt>
      <trkpt lat="48.45718" lon="-2.75467">
        <ele>121.6</ele>
        <time>2026-01-25T12:00:50Z</time>
      </trkpt>
      <trkpt lat="48.45715" lon="-2.75465">
        <ele>121.8</ele>
        <time>2026-01-25T12:00:51Z</time>
      </trkpt>
      <trkpt lat="48.45713" lon="-2.75463">
        <ele>121.8</ele>
        <time>2026-01-25T12:00:52Z</time>
      </trkpt>
      <trkpt lat="48.45711" lon="-2.7546">
        <ele>121.8</ele>
        <time>2026-01-25T12:00:53Z</time>
      </trkpt>
      <trkpt lat="48.45708" lon="-2.75458">
        <ele>121.8</ele>
        <time>2026-01-25T12:00:54Z</time>
      </trkpt>
      <trkpt lat="48.45706" lon="-2.75456">
        <ele>122</ele>
        <time>2026-01-25T12:00:55Z</time>
      </trkpt>
      <trkpt lat="48.45703" lon="-2.75453">
        <ele>122</ele>
        <time>2026-01-25T12:00:56Z</time>
      </trkpt>
      <trkpt lat="48.45701" lon="-2.7545">
        <ele>122</ele>
        <time>2026-01-25T12:00:57Z</time>
      </trkpt>
      <trkpt lat="48.45698" lon="-2.75447">
        <ele>122.6</ele>
        <time>2026-01-25T12:00:58Z</time>
      </trkpt>
      <trkpt lat="48.45696" lon="-2.75444">
        <ele>123</ele>
        <time>2026-01-25T12:00:59Z</time>
      </trkpt>
      <trkpt lat="48.45693" lon="-2.75441">
        <ele>123</ele>
        <time>2026-01-25T12:01:00Z</time>
      </trkpt>
      <trkpt lat="48.45691" lon="-2.75438">
        <ele>123</ele>
        <time>2026-01-25T12:01:01Z</time>
      </trkpt>
      <trkpt lat="48.45688" lon="-2.75435">
        <ele>123.6</ele>
        <time>2026-01-25T12:01:02Z</time>
      </trkpt>
      <trkpt lat="48.45686" lon="-2.75432">
        <ele>123.6</ele>
        <time>2026-01-25T12:01:03Z</time>
      </trkpt>
      <trkpt lat="48.45683" lon="-2.7543">
        <ele>123.6</ele>
        <time>2026-01-25T12:01:04Z</time>
      </trkpt>
      <trkpt lat="48.45681" lon="-2.75427">
        <ele>123.6</ele>
        <time>2026-01-25T12:01:05Z</time>
      </trkpt>
      <trkpt lat="48.45678" lon="-2.75424">
        <ele>123.6</ele>
        <time>2026-01-25T12:01:06Z</time>
      </trkpt>
      <trkpt lat="48.45675" lon="-2.75421">
        <ele>123.8</ele>
        <time>2026-01-25T12:01:07Z</time>
      </trkpt>
      <trkpt lat="48.45673" lon="-2.75419">
        <ele>123.8</ele>
        <time>2026-01-25T12:01:08Z</time>
      </trkpt>
      <trkpt lat="48.4567" lon="-2.75416">
        <ele>123.8</ele>
        <time>2026-01-25T12:01:09Z</time>
      </trkpt>
      <trkpt lat="48.45667" lon="-2.75414">
        <ele>124.4</ele>
        <time>2026-01-25T12:01:10Z</time>
      </trkpt>
      <trkpt lat="48.45665" lon="-2.75411">
        <ele>125</ele>
        <time>2026-01-25T12:01:11Z</time>
      </trkpt>
      <trkpt lat="48.45662" lon="-2.75408">
        <ele>125</ele>
        <time>2026-01-25T12:01:12Z</time>
      </trkpt>
      <trkpt lat="48.4566" lon="-2.75406">
        <ele>125</ele>
        <time>2026-01-25T12:01:13Z</time>
      </trkpt>
      <trkpt lat="48.45657" lon="-2.75403">
        <ele>125.2</ele>
        <time>2026-01-25T12:01:14Z</time>
      </trkpt>
      <trkpt lat="48.45655" lon="-2.75401">
        <ele>125.8</ele>
        <time>2026-01-25T12:01:15Z</time>
      </trkpt>
      <trkpt lat="48.45652" lon="-2.75398">
        <ele>125.8</ele>
        <time>2026-01-25T12:01:16Z</time>
      </trkpt>
      <trkpt lat="48.4565" lon="-2.75396">
        <ele>125.8</ele>
        <time>2026-01-25T12:01:17Z</time>
      </trkpt>
      <trkpt lat="48.45647" lon="-2.75393">
        <ele>126.8</ele>
        <time>2026-01-25T12:01:18Z</time>
      </trkpt>
      <trkpt lat="48.45644" lon="-2.75391">
        <ele>127</ele>
        <time>2026-01-25T12:01:19Z</time>
      </trkpt>
      <trkpt lat="48.45642" lon="-2.75389">
        <ele>127</ele>
        <time>2026-01-25T12:01:20Z</time>
      </trkpt>
      <trkpt lat="48.45639" lon="-2.75386">
        <ele>127</ele>
        <time>2026-01-25T12:01:21Z</time>
      </trkpt>
      <trkpt lat="48.45636" lon="-2.75384">
        <ele>127.4</ele>
        <time>2026-01-25T12:01:22Z</time>
      </trkpt>
      <trkpt lat="48.45634" lon="-2.75382">
        <ele>127.4</ele>
        <time>2026-01-25T12:01:23Z</time>
      </trkpt>
      <trkpt lat="48.45631" lon="-2.7538">
        <ele>127.4</ele>
        <time>2026-01-25T12:01:24Z</time>
      </trkpt>
      <trkpt lat="48.45628" lon="-2.75378">
        <ele>127.4</ele>
        <time>2026-01-25T12:01:25Z</time>
      </trkpt>
      <trkpt lat="48.45625" lon="-2.75375">
        <ele>127.8</ele>
        <time>2026-01-25T12:01:26Z</time>
      </trkpt>
      <trkpt lat="48.45623" lon="-2.75373">
        <ele>128</ele>
        <time>2026-01-25T12:01:27Z</time>
      </trkpt>
      <trkpt lat="48.4562" lon="-2.75371">
        <ele>128</ele>
        <time>2026-01-25T12:01:28Z</time>
      </trkpt>
      <trkpt lat="48.45617" lon="-2.75369">
        <ele>128</ele>
        <time>2026-01-25T12:01:29Z</time>
      </trkpt>
      <trkpt lat="48.45614" lon="-2.75367">
        <ele>128.4</ele>
        <time>2026-01-25T12:01:30Z</time>
      </trkpt>
      <trkpt lat="48.45611" lon="-2.75365">
        <ele>128.4</ele>
        <time>2026-01-25T12:01:31Z</time>
      </trkpt>
      <trkpt lat="48.45608" lon="-2.75364">
        <ele>128.4</ele>
        <time>2026-01-25T12:01:32Z</time>
      </trkpt>
      <trkpt lat="48.45605" lon="-2.75362">
        <ele>128.4</ele>
        <time>2026-01-25T12:01:33Z</time>
      </trkpt>
      <trkpt lat="48.45602" lon="-2.75361">
        <ele>128.4</ele>
        <time>2026-01-25T12:01:34Z</time>
      </trkpt>
      <trkpt lat="48.456" lon="-2.75359">
        <ele>129</ele>
        <time>2026-01-25T12:01:35Z</time>
      </trkpt>
      <trkpt lat="48.45597" lon="-2.75357">
        <ele>129</ele>
        <time>2026-01-25T12:01:36Z</time>
      </trkpt>
      <trkpt lat="48.45594" lon="-2.75356">
        <ele>129</ele>
        <time>2026-01-25T12:01:37Z</time>
      </trkpt>
      <trkpt lat="48.45591" lon="-2.75354">
        <ele>130</ele>
        <time>2026-01-25T12:01:38Z</time>
      </trkpt>
      <trkpt lat="48.45588" lon="-2.75353">
        <ele>130.6</ele>
        <time>2026-01-25T12:01:39Z</time>
      </trkpt>
      <trkpt lat="48.45585" lon="-2.75351">
        <ele>130.6</ele>
        <time>2026-01-25T12:01:40Z</time>
      </trkpt>
      <trkpt lat="48.45582" lon="-2.7535">
        <ele>130.6</ele>
        <time>2026-01-25T12:01:41Z</time>
      </trkpt>
      <trkpt lat="48.45579" lon="-2.75348">
        <ele>130.6</ele>
        <time>2026-01-25T12:01:42Z</time>
      </trkpt>
      <trkpt lat="48.45576" lon="-2.75347">
        <ele>130.4</ele>
        <time>2026-01-25T12:01:43Z</time>
      </trkpt>
      <trkpt lat="48.45573" lon="-2.75346">
        <ele>130.4</ele>
        <time>2026-01-25T12:01:44Z</time>
      </trkpt>
      <trkpt lat="48.4557" lon="-2.75345">
        <ele>130.4</ele>
        <time>2026-01-25T12:01:45Z</time>
      </trkpt>
      <trkpt lat="48.45567" lon="-2.75344">
        <ele>131</ele>
        <time>2026-01-25T12:01:46Z</time>
      </trkpt>
      <trkpt lat="48.45564" lon="-2.75343">
        <ele>131.4</ele>
        <time>2026-01-25T12:01:47Z</time>
      </trkpt>
      <trkpt lat="48.45561" lon="-2.75342">
        <ele>131.4</ele>
        <time>2026-01-25T12:01:48Z</time>
      </trkpt>
      <trkpt lat="48.45558" lon="-2.75341">
        <ele>131.4</ele>
        <time>2026-01-25T12:01:49Z</time>
      </trkpt>
      <trkpt lat="48.45555" lon="-2.7534">
        <ele>131.4</ele>
        <time>2026-01-25T12:01:50Z</time>
      </trkpt>
      <trkpt lat="48.45552" lon="-2.75339">
        <ele>132</ele>
        <time>2026-01-25T12:01:51Z</time>
      </trkpt>
      <trkpt lat="48.45549" lon="-2.75338">
        <ele>132</ele>
        <time>2026-01-25T12:01:52Z</time>
      </trkpt>
      <trkpt lat="48.45546" lon="-2.75337">
        <ele>132</ele>
        <time>2026-01-25T12:01:53Z</time>
      </trkpt>
      <trkpt lat="48.45542" lon="-2.75336">
        <ele>132.6</ele>
        <time>2026-01-25T12:01:54Z</time>
      </trkpt>
      <trkpt lat="48.45539" lon="-2.75336">
        <ele>132.8</ele>
        <time>2026-01-25T12:01:55Z</time>
      </trkpt>
      <trkpt lat="48.45536" lon="-2.75335">
        <ele>132.8</ele>
        <time>2026-01-25T12:01:56Z</time>
      </trkpt>
      <trkpt lat="48.45533" lon="-2.75334">
        <ele>132.8</ele>
        <time>2026-01-25T12:01:57Z</time>
      </trkpt>
      <trkpt lat="48.4553" lon="-2.75333">
        <ele>133.4</ele>
        <time>2026-01-25T12:01:58Z</time>
      </trkpt>
      <trkpt lat="48.45527" lon="-2.75332">
        <ele>133.8</ele>
        <time>2026-01-25T12:01:59Z</time>
      </trkpt>
      <trkpt lat="48.45524" lon="-2.75331">
        <ele>133.8</ele>
        <time>2026-01-25T12:02:00Z</time>
      </trkpt>
      <trkpt lat="48.45521" lon="-2.7533">
        <ele>133.8</ele>
        <time>2026-01-25T12:02:01Z</time>
      </trkpt>
      <trkpt lat="48.45518" lon="-2.7533">
        <ele>134.4</ele>
        <time>2026-01-25T12:02:02Z</time>
      </trkpt>
      <trkpt lat="48.45515" lon="-2.75329">
        <ele>134.6</ele>
        <time>2026-01-25T12:02:03Z</time>
      </trkpt>
      <trkpt lat="48.45511" lon="-2.75328">
        <ele>134.6</ele>
        <time>2026-01-25T12:02:04Z</time>
      </trkpt>
      <trkpt lat="48.45508" lon="-2.75327">
        <ele>134.6</ele>
        <time>2026-01-25T12:02:05Z</time>
      </trkpt>
      <trkpt lat="48.45505" lon="-2.75326">
        <ele>135.6</ele>
        <time>2026-01-25T12:02:06Z</time>
      </trkpt>
      <trkpt lat="48.45502" lon="-2.75326">
        <ele>135.2</ele>
        <time>2026-01-25T12:02:07Z</time>
      </trkpt>
      <trkpt lat="48.45499" lon="-2.75325">
        <ele>135.2</ele>
        <time>2026-01-25T12:02:08Z</time>
      </trkpt>
      <trkpt lat="48.45496" lon="-2.75324">
        <ele>135.2</ele>
        <time>2026-01-25T12:02:09Z</time>
      </trkpt>
      <trkpt lat="48.45493" lon="-2.75323">
        <ele>135.2</ele>
        <time>2026-01-25T12:02:10Z</time>
      </trkpt>
      <trkpt lat="48.4549" lon="-2.75323">
        <ele>135.4</ele>
        <time>2026-01-25T12:02:11Z</time>
      </trkpt>
      <trkpt lat="48.45487" lon="-2.75322">
        <ele>135.4</ele>
        <time>2026-01-25T12:02:12Z</time>
      </trkpt>
      <trkpt lat="48.45484" lon="-2.75321">
        <ele>135.4</ele>
        <time>2026-01-25T12:02:13Z</time>
      </trkpt>
      <trkpt lat="48.45481" lon="-2.7532">
        <ele>136.4</ele>
        <time>2026-01-25T12:02:14Z</time>
      </trkpt>
      <trkpt lat="48.45478" lon="-2.7532">
        <ele>137</ele>
        <time>2026-01-25T12:02:15Z</time>
      </trkpt>
      <trkpt lat="48.45475" lon="-2.75319">
        <ele>137</ele>
        <time>2026-01-25T12:02:16Z</time>
      </trkpt>
      <trkpt lat="48.45472" lon="-2.75318">
        <ele>137</ele>
        <time>2026-01-25T12:02:17Z</time>
      </trkpt>
      <trkpt lat="48.45469" lon="-2.75317">
        <ele>137.2</ele>
        <time>2026-01-25T12:02:18Z</time>
      </trkpt>
      <trkpt lat="48.45466" lon="-2.75316">
        <ele>138</ele>
        <time>2026-01-25T12:02:19Z</time>
      </trkpt>
      <trkpt lat="48.45463" lon="-2.75316">
        <ele>138</ele>
        <time>2026-01-25T12:02:20Z</time>
      </trkpt>
      <trkpt lat="48.4546" lon="-2.75315">
        <ele>138</ele>
        <time>2026-01-25T12:02:21Z</time>
      </trkpt>
      <trkpt lat="48.45456" lon="-2.75314">
        <ele>138</ele>
        <time>2026-01-25T12:02:22Z</time>
      </trkpt>
      <trkpt lat="48.45453" lon="-2.75314">
        <ele>138.4</ele>
        <time>2026-01-25T12:02:23Z</time>
      </trkpt>
      <trkpt lat="48.4545" lon="-2.75313">
        <ele>138.4</ele>
        <time>2026-01-25T12:02:24Z</time>
      </trkpt>
      <trkpt lat="48.45447" lon="-2.75312">
        <ele>138.4</ele>
        <time>2026-01-25T12:02:25Z</time>
      </trkpt>
      <trkpt lat="48.45444" lon="-2.75311">
        <ele>138.8</ele>
        <time>2026-01-25T12:02:26Z</time>
      </trkpt>
      <trkpt lat="48.45441" lon="-2.7531">
        <ele>139</ele>
        <time>2026-01-25T12:02:27Z</time>
      </trkpt>
      <trkpt lat="48.45438" lon="-2.7531">
        <ele>139</ele>
        <time>2026-01-25T12:02:28Z</time>
      </trkpt>
      <trkpt lat="48.45435" lon="-2.75309">
        <ele>139</ele>
        <time>2026-01-25T12:02:29Z</time>
      </trkpt>
      <trkpt lat="48.45432" lon="-2.75308">
        <ele>139.6</ele>
        <time>2026-01-25T12:02:30Z</time>
      </trkpt>
      <trkpt lat="48.45429" lon="-2.75307">
        <ele>140</ele>
        <time>2026-01-25T12:02:31Z</time>
      </trkpt>
      <trkpt lat="48.45426" lon="-2.75307">
        <ele>140</ele>
        <time>2026-01-25T12:02:32Z</time>
      </trkpt>
      <trkpt lat="48.45423" lon="-2.75306">
        <ele>140</ele>
        <time>2026-01-25T12:02:33Z</time>
      </trkpt>
      <trkpt lat="48.4542" lon="-2.75305">
        <ele>140.4</ele>
        <time>2026-01-25T12:02:34Z</time>
      </trkpt>
      <trkpt lat="48.45417" lon="-2.75305">
        <ele>140.4</ele>
        <time>2026-01-25T12:02:35Z</time>
      </trkpt>
      <trkpt lat="48.45414" lon="-2.75304">
        <ele>140.4</ele>
        <time>2026-01-25T12:02:36Z</time>
      </trkpt>
      <trkpt lat="48.45411" lon="-2.75303">
        <ele>140.4</ele>
        <time>2026-01-25T12:02:37Z</time>
      </trkpt>
      <trkpt lat="48.45407" lon="-2.75302">
        <ele>140.4</ele>
        <time>2026-01-25T12:02:38Z</time>
      </trkpt>
      <trkpt lat="48.45404" lon="-2.75301">
        <ele>141</ele>
        <time>2026-01-25T12:02:39Z</time>
      </trkpt>
      <trkpt lat="48.45401" lon="-2.75301">
        <ele>141</ele>
        <time>2026-01-25T12:02:40Z</time>
      </trkpt>
      <trkpt lat="48.45398" lon="-2.753">
        <ele>141</ele>
        <time>2026-01-25T12:02:41Z</time>
      </trkpt>
      <trkpt lat="48.45395" lon="-2.75299">
        <ele>141.8</ele>
        <time>2026-01-25T12:02:42Z</time>
      </trkpt>
      <trkpt lat="48.45392" lon="-2.75299">
        <ele>142</ele>
        <time>2026-01-25T12:02:43Z</time>
      </trkpt>
      <trkpt lat="48.45389" lon="-2.75298">
        <ele>142</ele>
        <time>2026-01-25T12:02:44Z</time>
      </trkpt>
      <trkpt lat="48.45386" lon="-2.75297">
        <ele>142</ele>
        <time>2026-01-25T12:02:45Z</time>
      </trkpt>
      <trkpt lat="48.45383" lon="-2.75296">
        <ele>142</ele>
        <time>2026-01-25T12:02:46Z</time>
      </trkpt>
      <trkpt lat="48.4538" lon="-2.75295">
        <ele>142.6</ele>
        <time>2026-01-25T12:02:47Z</time>
      </trkpt>
      <trkpt lat="48.45377" lon="-2.75295">
        <ele>142.6</ele>
        <time>2026-01-25T12:02:48Z</time>
      </trkpt>
      <trkpt lat="48.45374" lon="-2.75295">
        <ele>142.6</ele>
        <time>2026-01-25T12:02:49Z</time>
      </trkpt>
      <trkpt lat="48.45371" lon="-2.75294">
        <ele>142.6</ele>
        <time>2026-01-25T12:02:50Z</time>
      </trkpt>
      <trkpt lat="48.45368" lon="-2.75293">
        <ele>143.8</ele>
        <time>2026-01-25T12:02:51Z</time>
      </trkpt>
      <trkpt lat="48.45365" lon="-2.75292">
        <ele>143.8</ele>
        <time>2026-01-25T12:02:52Z</time>
      </trkpt>
      <trkpt lat="48.45361" lon="-2.75291">
        <ele>143.8</ele>
        <time>2026-01-25T12:02:53Z</time>
      </trkpt>
      <trkpt lat="48.45358" lon="-2.75291">
        <ele>143.8</ele>
        <time>2026-01-25T12:02:54Z</time>
      </trkpt>
      <trkpt lat="48.45355" lon="-2.7529">
        <ele>143.6</ele>
        <time>2026-01-25T12:02:55Z</time>
      </trkpt>
      <trkpt lat="48.45352" lon="-2.75289">
        <ele>143.6</ele>
        <time>2026-01-25T12:02:56Z</time>
      </trkpt>
      <trkpt lat="48.45349" lon="-2.75288">
        <ele>143.6</ele>
        <time>2026-01-25T12:02:57Z</time>
      </trkpt>
      <trkpt lat="48.45345" lon="-2.75287">
        <ele>144</ele>
        <time>2026-01-25T12:02:58Z</time>
      </trkpt>
      <trkpt lat="48.45342" lon="-2.75286">
        <ele>143.6</ele>
        <time>2026-01-25T12:02:59Z</time>
      </trkpt>
      <trkpt lat="48.45339" lon="-2.75286">
        <ele>143.6</ele>
        <time>2026-01-25T12:03:00Z</time>
      </trkpt>
      <trkpt lat="48.45336" lon="-2.75285">
        <ele>143.6</ele>
        <time>2026-01-25T12:03:01Z</time>
      </trkpt>
      <trkpt lat="48.45333" lon="-2.75284">
        <ele>144.4</ele>
        <time>2026-01-25T12:03:02Z</time>
      </trkpt>
      <trkpt lat="48.45329" lon="-2.75283">
        <ele>144.6</ele>
        <time>2026-01-25T12:03:03Z</time>
      </trkpt>
      <trkpt lat="48.45326" lon="-2.75283">
        <ele>144.6</ele>
        <time>2026-01-25T12:03:04Z</time>
      </trkpt>
      <trkpt lat="48.45323" lon="-2.75282">
        <ele>144.6</ele>
        <time>2026-01-25T12:03:05Z</time>
      </trkpt>
      <trkpt lat="48.45319" lon="-2.75281">
        <ele>145.6</ele>
        <time>2026-01-25T12:03:06Z</time>
      </trkpt>
      <trkpt lat="48.45316" lon="-2.7528">
        <ele>145.2</ele>
        <time>2026-01-25T12:03:07Z</time>
      </trkpt>
      <trkpt lat="48.45313" lon="-2.75279">
        <ele>145.2</ele>
        <time>2026-01-25T12:03:08Z</time>
      </trkpt>
      <trkpt lat="48.45309" lon="-2.75278">
        <ele>145.2</ele>
        <time>2026-01-25T12:03:09Z</time>
      </trkpt>
      <trkpt lat="48.45306" lon="-2.75278">
        <ele>146.2</ele>
        <time>2026-01-25T12:03:10Z</time>
      </trkpt>
      <trkpt lat="48.45303" lon="-2.75277">
        <ele>146</ele>
        <time>2026-01-25T12:03:11Z</time>
      </trkpt>
      <trkpt lat="48.45299" lon="-2.75276">
        <ele>146</ele>
        <time>2026-01-25T12:03:12Z</time>
      </trkpt>
      <trkpt lat="48.45296" lon="-2.75275">
        <ele>146</ele>
        <time>2026-01-25T12:03:13Z</time>
      </trkpt>
      <trkpt lat="48.45292" lon="-2.75274">
        <ele>146</ele>
        <time>2026-01-25T12:03:14Z</time>
      </trkpt>
      <trkpt lat="48.45289" lon="-2.75273">
        <ele>147</ele>
        <time>2026-01-25T12:03:15Z</time>
      </trkpt>
      <trkpt lat="48.45286" lon="-2.75272">
        <ele>147</ele>
        <time>2026-01-25T12:03:16Z</time>
      </trkpt>
      <trkpt lat="48.45282" lon="-2.75272">
        <ele>147</ele>
        <time>2026-01-25T12:03:17Z</time>
      </trkpt>
      <trkpt lat="48.45279" lon="-2.75271">
        <ele>147.2</ele>
        <time>2026-01-25T12:03:18Z</time>
      </trkpt>
      <trkpt lat="48.45275" lon="-2.7527">
        <ele>147.8</ele>
        <time>2026-01-25T12:03:19Z</time>
      </trkpt>
      <trkpt lat="48.45272" lon="-2.75269">
        <ele>147.8</ele>
        <time>2026-01-25T12:03:20Z</time>
      </trkpt>
      <trkpt lat="48.45269" lon="-2.75268">
        <ele>147.8</ele>
        <time>2026-01-25T12:03:21Z</time>
      </trkpt>
      <trkpt lat="48.45265" lon="-2.75267">
        <ele>148.2</ele>
        <time>2026-01-25T12:03:22Z</time>
      </trkpt>
      <trkpt lat="48.45262" lon="-2.75266">
        <ele>148.6</ele>
        <time>2026-01-25T12:03:23Z</time>
      </trkpt>
      <trkpt lat="48.45258" lon="-2.75265">
        <ele>148.6</ele>
        <time>2026-01-25T12:03:24Z</time>
      </trkpt>
      <trkpt lat="48.45255" lon="-2.75264">
        <ele>148.6</ele>
        <time>2026-01-25T12:03:25Z</time>
      </trkpt>
      <trkpt lat="48.45251" lon="-2.75263">
        <ele>148.6</ele>
        <time>2026-01-25T12:03:26Z</time>
      </trkpt>
      <trkpt lat="48.45248" lon="-2.75262">
        <ele>149</ele>
        <time>2026-01-25T12:03:27Z</time>
      </trkpt>
      <trkpt lat="48.45244" lon="-2.75261">
        <ele>149</ele>
        <time>2026-01-25T12:03:28Z</time>
      </trkpt>
      <trkpt lat="48.4524" lon="-2.75261">
        <ele>149</ele>
        <time>2026-01-25T12:03:29Z</time>
      </trkpt>
      <trkpt lat="48.45237" lon="-2.7526">
        <ele>148.6</ele>
        <time>2026-01-25T12:03:30Z</time>
      </trkpt>
      <trkpt lat="48.45233" lon="-2.75259">
        <ele>149</ele>
        <time>2026-01-25T12:03:31Z</time>
      </trkpt>
      <trkpt lat="48.4523" lon="-2.75258">
        <ele>149</ele>
        <time>2026-01-25T12:03:32Z</time>
      </trkpt>
      <trkpt lat="48.45226" lon="-2.75257">
        <ele>149</ele>
        <time>2026-01-25T12:03:33Z</time>
      </trkpt>
      <trkpt lat="48.45222" lon="-2.75256">
        <ele>149.2</ele>
        <time>2026-01-25T12:03:34Z</time>
      </trkpt>
      <trkpt lat="48.45219" lon="-2.75255">
        <ele>149</ele>
        <time>2026-01-25T12:03:35Z</time>
      </trkpt>
      <trkpt lat="48.45215" lon="-2.75255">
        <ele>149</ele>
        <time>2026-01-25T12:03:36Z</time>
      </trkpt>
      <trkpt lat="48.45211" lon="-2.75254">
        <ele>149</ele>
        <time>2026-01-25T12:03:37Z</time>
      </trkpt>
      <trkpt lat="48.45208" lon="-2.75253">
        <ele>150</ele>
        <time>2026-01-25T12:03:38Z</time>
      </trkpt>
      <trkpt lat="48.45204" lon="-2.75252">
        <ele>150.8</ele>
        <time>2026-01-25T12:03:39Z</time>
      </trkpt>
      <trkpt lat="48.452" lon="-2.75251">
        <ele>150.8</ele>
        <time>2026-01-25T12:03:40Z</time>
      </trkpt>
      <trkpt lat="48.45196" lon="-2.7525">
        <ele>150.8</ele>
        <time>2026-01-25T12:03:41Z</time>
      </trkpt>
      <trkpt lat="48.45192" lon="-2.75249">
        <ele>150.8</ele>
        <time>2026-01-25T12:03:42Z</time>
      </trkpt>
      <trkpt lat="48.45188" lon="-2.75248">
        <ele>151.4</ele>
        <time>2026-01-25T12:03:43Z</time>
      </trkpt>
      <trkpt lat="48.45184" lon="-2.75247">
        <ele>151.4</ele>
        <time>2026-01-25T12:03:44Z</time>
      </trkpt>
      <trkpt lat="48.4518" lon="-2.75246">
        <ele>151.4</ele>
        <time>2026-01-25T12:03:45Z</time>
      </trkpt>
      <trkpt lat="48.45176" lon="-2.75245">
        <ele>151.4</ele>
        <time>2026-01-25T12:03:46Z</time>
      </trkpt>
      <trkpt lat="48.45172" lon="-2.75244">
        <ele>151.8</ele>
        <time>2026-01-25T12:03:47Z</time>
      </trkpt>
      <trkpt lat="48.45168" lon="-2.75243">
        <ele>151.8</ele>
        <time>2026-01-25T12:03:48Z</time>
      </trkpt>
      <trkpt lat="48.45164" lon="-2.75242">
        <ele>151.8</ele>
        <time>2026-01-25T12:03:49Z</time>
      </trkpt>
      <trkpt lat="48.4516" lon="-2.75241">
        <ele>151.8</ele>
        <time>2026-01-25T12:03:50Z</time>
      </trkpt>
      <trkpt lat="48.45156" lon="-2.7524">
        <ele>151.8</ele>
        <time>2026-01-25T12:03:51Z</time>
      </trkpt>
      <trkpt lat="48.45151" lon="-2.75239">
        <ele>151.8</ele>
        <time>2026-01-25T12:03:52Z</time>
      </trkpt>
      <trkpt lat="48.45147" lon="-2.75238">
        <ele>151.8</ele>
        <time>2026-01-25T12:03:53Z</time>
      </trkpt>
      <trkpt lat="48.45143" lon="-2.75237">
        <ele>152</ele>
        <time>2026-01-25T12:03:54Z</time>
      </trkpt>
      <trkpt lat="48.45139" lon="-2.75236">
        <ele>152</ele>
        <time>2026-01-25T12:03:55Z</time>
      </trkpt>
      <trkpt lat="48.45135" lon="-2.75235">
        <ele>152</ele>
        <time>2026-01-25T12:03:56Z</time>
      </trkpt>
      <trkpt lat="48.45131" lon="-2.75234">
        <ele>152</ele>
        <time>2026-01-25T12:03:57Z</time>
      </trkpt>
      <trkpt lat="48.45126" lon="-2.75232">
        <ele>152.8</ele>
        <time>2026-01-25T12:03:58Z</time>
      </trkpt>
      <trkpt lat="48.45122" lon="-2.75231">
        <ele>152.8</ele>
        <time>2026-01-25T12:03:59Z</time>
      </trkpt>
      <trkpt lat="48.45118" lon="-2.7523">
        <ele>152.8</ele>
        <time>2026-01-25T12:04:00Z</time>
      </trkpt>
      <trkpt lat="48.45113" lon="-2.75229">
        <ele>152.8</ele>
        <time>2026-01-25T12:04:01Z</time>
      </trkpt>
      <trkpt lat="48.45109" lon="-2.75228">
        <ele>152.8</ele>
        <time>2026-01-25T12:04:02Z</time>
      </trkpt>
      <trkpt lat="48.45105" lon="-2.75227">
        <ele>153</ele>
        <time>2026-01-25T12:04:03Z</time>
      </trkpt>
      <trkpt lat="48.451" lon="-2.75226">
        <ele>153</ele>
        <time>2026-01-25T12:04:04Z</time>
      </trkpt>
      <trkpt lat="48.45096" lon="-2.75225">
        <ele>153</ele>
        <time>2026-01-25T12:04:05Z</time>
      </trkpt>
      <trkpt lat="48.45091" lon="-2.75224">
        <ele>153</ele>
        <time>2026-01-25T12:04:06Z</time>
      </trkpt>
      <trkpt lat="48.45086" lon="-2.75222">
        <ele>153</ele>
        <time>2026-01-25T12:04:07Z</time>
      </trkpt>
      <trkpt lat="48.45082" lon="-2.7522">
        <ele>153</ele>
        <time>2026-01-25T12:04:08Z</time>
      </trkpt>
      <trkpt lat="48.45077" lon="-2.75218">
        <ele>153</ele>
        <time>2026-01-25T12:04:09Z</time>
      </trkpt>
      <trkpt lat="48.45072" lon="-2.75216">
        <ele>153</ele>
        <time>2026-01-25T12:04:10Z</time>
      </trkpt>
      <trkpt lat="48.45067" lon="-2.75214">
        <ele>153.6</ele>
        <time>2026-01-25T12:04:11Z</time>
      </trkpt>
      <trkpt lat="48.45062" lon="-2.75212">
        <ele>153.6</ele>
        <time>2026-01-25T12:04:12Z</time>
      </trkpt>
      <trkpt lat="48.45057" lon="-2.7521">
        <ele>153.6</ele>
        <time>2026-01-25T12:04:13Z</time>
      </trkpt>
      <trkpt lat="48.45053" lon="-2.75208">
        <ele>154</ele>
        <time>2026-01-25T12:04:14Z</time>
      </trkpt>
      <trkpt lat="48.45048" lon="-2.75206">
        <ele>153.6</ele>
        <time>2026-01-25T12:04:15Z</time>
      </trkpt>
      <trkpt lat="48.45043" lon="-2.75203">
        <ele>153.6</ele>
        <time>2026-01-25T12:04:16Z</time>
      </trkpt>
      <trkpt lat="48.45038" lon="-2.75201">
        <ele>153.6</ele>
        <time>2026-01-25T12:04:17Z</time>
      </trkpt>
      <trkpt lat="48.45032" lon="-2.75199">
        <ele>153.6</ele>
        <time>2026-01-25T12:04:18Z</time>
      </trkpt>
      <trkpt lat="48.45027" lon="-2.75196">
        <ele>152.8</ele>
        <time>2026-01-25T12:04:19Z</time>
      </trkpt>
      <trkpt lat="48.45022" lon="-2.75194">
        <ele>152.8</ele>
        <time>2026-01-25T12:04:20Z</time>
      </trkpt>
      <trkpt lat="48.45017" lon="-2.75191">
        <ele>152.8</ele>
        <time>2026-01-25T12:04:21Z</time>
      </trkpt>
      <trkpt lat="48.45012" lon="-2.75188">
        <ele>152.8</ele>
        <time>2026-01-25T12:04:22Z</time>
      </trkpt>
      <trkpt lat="48.45006" lon="-2.75185">
        <ele>151.8</ele>
        <time>2026-01-25T12:04:23Z</time>
      </trkpt>
      <trkpt lat="48.45001" lon="-2.75182">
        <ele>151.8</ele>
        <time>2026-01-25T12:04:24Z</time>
      </trkpt>
      <trkpt lat="48.44996" lon="-2.75179">
        <ele>151.8</ele>
        <time>2026-01-25T12:04:25Z</time>
      </trkpt>
      <trkpt lat="48.44991" lon="-2.75176">
        <ele>151.8</ele>
        <time>2026-01-25T12:04:26Z</time>
      </trkpt>
      <trkpt lat="48.44985" lon="-2.75174">
        <ele>152.4</ele>
        <time>2026-01-25T12:04:27Z</time>
      </trkpt>
      <trkpt lat="48.4498" lon="-2.75171">
        <ele>152.4</ele>
        <time>2026-01-25T12:04:28Z</time>
      </trkpt>
      <trkpt lat="48.44975" lon="-2.75168">
        <ele>152.4</ele>
        <time>2026-01-25T12:04:29Z</time>
      </trkpt>
      <trkpt lat="48.44969" lon="-2.75165">
        <ele>152.6</ele>
        <time>2026-01-25T12:04:30Z</time>
      </trkpt>
      <trkpt lat="48.44964" lon="-2.75162">
        <ele>152.2</ele>
        <time>2026-01-25T12:04:31Z</time>
      </trkpt>
      <trkpt lat="48.4496" lon="-2.75159">
        <ele>152.2</ele>
        <time>2026-01-25T12:04:32Z</time>
      </trkpt>
      <trkpt lat="48.44955" lon="-2.75156">
        <ele>152.2</ele>
        <time>2026-01-25T12:04:33Z</time>
      </trkpt>
      <trkpt lat="48.4495" lon="-2.75154">
        <ele>153.2</ele>
        <time>2026-01-25T12:04:34Z</time>
      </trkpt>
      <trkpt lat="48.44945" lon="-2.75151">
        <ele>152.6</ele>
        <time>2026-01-25T12:04:35Z</time>
      </trkpt>
      <trkpt lat="48.4494" lon="-2.75149">
        <ele>152.6</ele>
        <time>2026-01-25T12:04:36Z</time>
      </trkpt>
      <trkpt lat="48.44935" lon="-2.75146">
        <ele>152.6</ele>
        <time>2026-01-25T12:04:37Z</time>
      </trkpt>
      <trkpt lat="48.4493" lon="-2.75143">
        <ele>152</ele>
        <time>2026-01-25T12:04:38Z</time>
      </trkpt>
      <trkpt lat="48.44926" lon="-2.7514">
        <ele>151.8</ele>
        <time>2026-01-25T12:04:39Z</time>
      </trkpt>
      <trkpt lat="48.44921" lon="-2.75136">
        <ele>151.8</ele>
        <time>2026-01-25T12:04:40Z</time>
      </trkpt>
      <trkpt lat="48.44916" lon="-2.75131">
        <ele>151.8</ele>
        <time>2026-01-25T12:04:41Z</time>
      </trkpt>
      <trkpt lat="48.44911" lon="-2.75124">
        <ele>151.8</ele>
        <time>2026-01-25T12:04:42Z</time>
      </trkpt>
      <trkpt lat="48.44906" lon="-2.75116">
        <ele>149.4</ele>
        <time>2026-01-25T12:04:43Z</time>
      </trkpt>
      <trkpt lat="48.44901" lon="-2.75107">
        <ele>149.4</ele>
        <time>2026-01-25T12:04:44Z</time>
      </trkpt>
      <trkpt lat="48.44896" lon="-2.75098">
        <ele>149.4</ele>
        <time>2026-01-25T12:04:45Z</time>
      </trkpt>
      <trkpt lat="48.44891" lon="-2.75089">
        <ele>148.4</ele>
        <time>2026-01-25T12:04:46Z</time>
      </trkpt>
      <trkpt lat="48.44886" lon="-2.75079">
        <ele>147.8</ele>
        <time>2026-01-25T12:04:47Z</time>
      </trkpt>
      <trkpt lat="48.4488" lon="-2.75069">
        <ele>147.8</ele>
        <time>2026-01-25T12:04:48Z</time>
      </trkpt>
      <trkpt lat="48.44875" lon="-2.75058">
        <ele>147.8</ele>
        <time>2026-01-25T12:04:49Z</time>
      </trkpt>
      <trkpt lat="48.44869" lon="-2.75047">
        <ele>146.8</ele>
        <time>2026-01-25T12:04:50Z</time>
      </trkpt>
      <trkpt lat="48.44864" lon="-2.75037">
        <ele>145</ele>
        <time>2026-01-25T12:04:51Z</time>
      </trkpt>
      <trkpt lat="48.44858" lon="-2.75025">
        <ele>145</ele>
        <time>2026-01-25T12:04:52Z</time>
      </trkpt>
      <trkpt lat="48.44852" lon="-2.75013">
        <ele>145</ele>
        <time>2026-01-25T12:04:53Z</time>
      </trkpt>
      <trkpt lat="48.44846" lon="-2.75002">
        <ele>144</ele>
        <time>2026-01-25T12:04:54Z</time>
      </trkpt>
      <trkpt lat="48.44839" lon="-2.7499">
        <ele>141.4</ele>
        <time>2026-01-25T12:04:55Z</time>
      </trkpt>
      <trkpt lat="48.44833" lon="-2.74979">
        <ele>141.4</ele>
        <time>2026-01-25T12:04:56Z</time>
      </trkpt>
      <trkpt lat="48.44827" lon="-2.74968">
        <ele>141.4</ele>
        <time>2026-01-25T12:04:57Z</time>
      </trkpt>
      <trkpt lat="48.44821" lon="-2.74956">
        <ele>140.4</ele>
        <time>2026-01-25T12:04:58Z</time>
      </trkpt>
      <trkpt lat="48.44815" lon="-2.74945">
        <ele>139.8</ele>
        <time>2026-01-25T12:04:59Z</time>
      </trkpt>
      <trkpt lat="48.44809" lon="-2.74934">
        <ele>139.8</ele>
        <time>2026-01-25T12:05:00Z</time>
      </trkpt>
      <trkpt lat="48.44803" lon="-2.74923">
        <ele>139.8</ele>
        <time>2026-01-25T12:05:01Z</time>
      </trkpt>
      <trkpt lat="48.44797" lon="-2.74913">
        <ele>139.8</ele>
        <time>2026-01-25T12:05:02Z</time>
      </trkpt>
      <trkpt lat="48.44792" lon="-2.74902">
        <ele>141.2</ele>
        <time>2026-01-25T12:05:03Z</time>
      </trkpt>
      <trkpt lat="48.44787" lon="-2.74891">
        <ele>141.2</ele>
        <time>2026-01-25T12:05:04Z</time>
      </trkpt>
      <trkpt lat="48.44783" lon="-2.7488">
        <ele>141.2</ele>
        <time>2026-01-25T12:05:05Z</time>
      </trkpt>
      <trkpt lat="48.44778" lon="-2.74868">
        <ele>141.2</ele>
        <time>2026-01-25T12:05:06Z</time>
      </trkpt>
      <trkpt lat="48.44774" lon="-2.74856">
        <ele>141.2</ele>
        <time>2026-01-25T12:05:07Z</time>
      </trkpt>
      <trkpt lat="48.4477" lon="-2.74844">
        <ele>141.2</ele>
        <time>2026-01-25T12:05:08Z</time>
      </trkpt>
      <trkpt lat="48.44766" lon="-2.74832">
        <ele>141.2</ele>
        <time>2026-01-25T12:05:09Z</time>
      </trkpt>
      <trkpt lat="48.44761" lon="-2.7482">
        <ele>141.2</ele>
        <time>2026-01-25T12:05:10Z</time>
      </trkpt>
      <trkpt lat="48.44757" lon="-2.74809">
        <ele>141.4</ele>
        <time>2026-01-25T12:05:11Z</time>
      </trkpt>
      <trkpt lat="48.44752" lon="-2.74797">
        <ele>141.4</ele>
        <time>2026-01-25T12:05:12Z</time>
      </trkpt>
      <trkpt lat="48.44747" lon="-2.74785">
        <ele>141.4</ele>
        <time>2026-01-25T12:05:13Z</time>
      </trkpt>
      <trkpt lat="48.44743" lon="-2.74773">
        <ele>141.4</ele>
        <time>2026-01-25T12:05:14Z</time>
      </trkpt>
      <trkpt lat="48.44741" lon="-2.7476">
        <ele>140.2</ele>
        <time>2026-01-25T12:05:15Z</time>
      </trkpt>
      <trkpt lat="48.4474" lon="-2.74746">
        <ele>140.2</ele>
        <time>2026-01-25T12:05:16Z</time>
      </trkpt>
      <trkpt lat="48.44738" lon="-2.74732">
        <ele>140.2</ele>
        <time>2026-01-25T12:05:17Z</time>
      </trkpt>
      <trkpt lat="48.44734" lon="-2.74719">
        <ele>139.2</ele>
        <time>2026-01-25T12:05:18Z</time>
      </trkpt>
      <trkpt lat="48.44731" lon="-2.74707">
        <ele>138.8</ele>
        <time>2026-01-25T12:05:19Z</time>
      </trkpt>
      <trkpt lat="48.44726" lon="-2.74695">
        <ele>138.8</ele>
        <time>2026-01-25T12:05:20Z</time>
      </trkpt>
      <trkpt lat="48.44722" lon="-2.74683">
        <ele>138.8</ele>
        <time>2026-01-25T12:05:21Z</time>
      </trkpt>
      <trkpt lat="48.44718" lon="-2.74671">
        <ele>138.8</ele>
        <time>2026-01-25T12:05:22Z</time>
      </trkpt>
      <trkpt lat="48.44714" lon="-2.74659">
        <ele>137.8</ele>
        <time>2026-01-25T12:05:23Z</time>
      </trkpt>
      <trkpt lat="48.4471" lon="-2.74647">
        <ele>137.8</ele>
        <time>2026-01-25T12:05:24Z</time>
      </trkpt>
      <trkpt lat="48.44706" lon="-2.74636">
        <ele>137.8</ele>
        <time>2026-01-25T12:05:25Z</time>
      </trkpt>
      <trkpt lat="48.44703" lon="-2.74624">
        <ele>137.8</ele>
        <time>2026-01-25T12:05:26Z</time>
      </trkpt>
      <trkpt lat="48.44699" lon="-2.74612">
        <ele>137.4</ele>
        <time>2026-01-25T12:05:27Z</time>
      </trkpt>
      <trkpt lat="48.44695" lon="-2.74601">
        <ele>137.4</ele>
        <time>2026-01-25T12:05:28Z</time>
      </trkpt>
      <trkpt lat="48.44691" lon="-2.74589">
        <ele>137.4</ele>
        <time>2026-01-25T12:05:29Z</time>
      </trkpt>
      <trkpt lat="48.44687" lon="-2.74578">
        <ele>137.4</ele>
        <time>2026-01-25T12:05:30Z</time>
      </trkpt>
      <trkpt lat="48.44684" lon="-2.74567">
        <ele>137.6</ele>
        <time>2026-01-25T12:05:31Z</time>
      </trkpt>
      <trkpt lat="48.4468" lon="-2.74555">
        <ele>137.6</ele>
        <time>2026-01-25T12:05:32Z</time>
      </trkpt>
      <trkpt lat="48.44676" lon="-2.74544">
        <ele>137.6</ele>
        <time>2026-01-25T12:05:33Z</time>
      </trkpt>
      <trkpt lat="48.44672" lon="-2.74533">
        <ele>137.6</ele>
        <time>2026-01-25T12:05:34Z</time>
      </trkpt>
      <trkpt lat="48.44668" lon="-2.74522">
        <ele>137.6</ele>
        <time>2026-01-25T12:05:35Z</time>
      </trkpt>
      <trkpt lat="48.44664" lon="-2.74511">
        <ele>137.6</ele>
        <time>2026-01-25T12:05:36Z</time>
      </trkpt>
      <trkpt lat="48.4466" lon="-2.74501">
        <ele>137.6</ele>
        <time>2026-01-25T12:05:37Z</time>
      </trkpt>
      <trkpt lat="48.44655" lon="-2.74491">
        <ele>137.8</ele>
        <time>2026-01-25T12:05:38Z</time>
      </trkpt>
      <trkpt lat="48.4465" lon="-2.74482">
        <ele>136.6</ele>
        <time>2026-01-25T12:05:39Z</time>
      </trkpt>
      <trkpt lat="48.44645" lon="-2.74473">
        <ele>136.6</ele>
        <time>2026-01-25T12:05:40Z</time>
      </trkpt>
      <trkpt lat="48.44639" lon="-2.74465">
        <ele>136.6</ele>
        <time>2026-01-25T12:05:41Z</time>
      </trkpt>
      <trkpt lat="48.44634" lon="-2.74457">
        <ele>137.6</ele>
        <time>2026-01-25T12:05:42Z</time>
      </trkpt>
      <trkpt lat="48.44628" lon="-2.74451">
        <ele>137.2</ele>
        <time>2026-01-25T12:05:43Z</time>
      </trkpt>
      <trkpt lat="48.44622" lon="-2.74445">
        <ele>137.2</ele>
        <time>2026-01-25T12:05:44Z</time>
      </trkpt>
      <trkpt lat="48.44616" lon="-2.74439">
        <ele>137.2</ele>
        <time>2026-01-25T12:05:45Z</time>
      </trkpt>
      <trkpt lat="48.4461" lon="-2.74434">
        <ele>138.2</ele>
        <time>2026-01-25T12:05:46Z</time>
      </trkpt>
      <trkpt lat="48.44604" lon="-2.74429">
        <ele>137.8</ele>
        <time>2026-01-25T12:05:47Z</time>
      </trkpt>
      <trkpt lat="48.44598" lon="-2.74426">
        <ele>137.8</ele>
        <time>2026-01-25T12:05:48Z</time>
      </trkpt>
      <trkpt lat="48.44592" lon="-2.74422">
        <ele>137.8</ele>
        <time>2026-01-25T12:05:49Z</time>
      </trkpt>
      <trkpt lat="48.44585" lon="-2.74419">
        <ele>138.2</ele>
        <time>2026-01-25T12:05:50Z</time>
      </trkpt>
      <trkpt lat="48.44579" lon="-2.74417">
        <ele>137.2</ele>
        <time>2026-01-25T12:05:51Z</time>
      </trkpt>
      <trkpt lat="48.44572" lon="-2.74414">
        <ele>137.2</ele>
        <time>2026-01-25T12:05:52Z</time>
      </trkpt>
      <trkpt lat="48.44565" lon="-2.74413">
        <ele>137.2</ele>
        <time>2026-01-25T12:05:53Z</time>
      </trkpt>
      <trkpt lat="48.44559" lon="-2.74412">
        <ele>137.2</ele>
        <time>2026-01-25T12:05:54Z</time>
      </trkpt>
      <trkpt lat="48.44553" lon="-2.74411">
        <ele>137.2</ele>
        <time>2026-01-25T12:05:55Z</time>
      </trkpt>
      <trkpt lat="48.44549" lon="-2.74407">
        <ele>137.2</ele>
        <time>2026-01-25T12:05:56Z</time>
      </trkpt>
      <trkpt lat="48.44547" lon="-2.74401">
        <ele>137.2</ele>
        <time>2026-01-25T12:05:57Z</time>
      </trkpt>
      <trkpt lat="48.44547" lon="-2.74394">
        <ele>138</ele>
        <time>2026-01-25T12:05:58Z</time>
      </trkpt>
      <trkpt lat="48.44549" lon="-2.74387">
        <ele>137.4</ele>
        <time>2026-01-25T12:05:59Z</time>
      </trkpt>
      <trkpt lat="48.44553" lon="-2.7438">
        <ele>137.4</ele>
        <time>2026-01-25T12:06:00Z</time>
      </trkpt>
      <trkpt lat="48.44558" lon="-2.74373">
        <ele>137.4</ele>
        <time>2026-01-25T12:06:01Z</time>
      </trkpt>
      <trkpt lat="48.44562" lon="-2.74366">
        <ele>136.4</ele>
        <time>2026-01-25T12:06:02Z</time>
      </trkpt>
      <trkpt lat="48.44567" lon="-2.74357">
        <ele>136</ele>
        <time>2026-01-25T12:06:03Z</time>
      </trkpt>
      <trkpt lat="48.44571" lon="-2.74349">
        <ele>136</ele>
        <time>2026-01-25T12:06:04Z</time>
      </trkpt>
      <trkpt lat="48.44576" lon="-2.7434">
        <ele>136</ele>
        <time>2026-01-25T12:06:05Z</time>
      </trkpt>
      <trkpt lat="48.44581" lon="-2.74331">
        <ele>135</ele>
        <time>2026-01-25T12:06:06Z</time>
      </trkpt>
      <trkpt lat="48.44586" lon="-2.74322">
        <ele>134</ele>
        <time>2026-01-25T12:06:07Z</time>
      </trkpt>
      <trkpt lat="48.44592" lon="-2.74313">
        <ele>134</ele>
        <time>2026-01-25T12:06:08Z</time>
      </trkpt>
      <trkpt lat="48.44597" lon="-2.74303">
        <ele>134</ele>
        <time>2026-01-25T12:06:09Z</time>
      </trkpt>
      <trkpt lat="48.44602" lon="-2.74293">
        <ele>133</ele>
        <time>2026-01-25T12:06:10Z</time>
      </trkpt>
      <trkpt lat="48.44608" lon="-2.74283">
        <ele>132.4</ele>
        <time>2026-01-25T12:06:11Z</time>
      </trkpt>
      <trkpt lat="48.44613" lon="-2.74273">
        <ele>132.4</ele>
        <time>2026-01-25T12:06:12Z</time>
      </trkpt>
      <trkpt lat="48.44618" lon="-2.74263">
        <ele>132.4</ele>
        <time>2026-01-25T12:06:13Z</time>
      </trkpt>
      <trkpt lat="48.44623" lon="-2.74253">
        <ele>132.4</ele>
        <time>2026-01-25T12:06:14Z</time>
      </trkpt>
      <trkpt lat="48.44628" lon="-2.74243">
        <ele>130</ele>
        <time>2026-01-25T12:06:15Z</time>
      </trkpt>
      <trkpt lat="48.44633" lon="-2.74232">
        <ele>130</ele>
        <time>2026-01-25T12:06:16Z</time>
      </trkpt>
      <trkpt lat="48.44639" lon="-2.74221">
        <ele>130</ele>
        <time>2026-01-25T12:06:17Z</time>
      </trkpt>
      <trkpt lat="48.44644" lon="-2.7421">
        <ele>130</ele>
        <time>2026-01-25T12:06:18Z</time>
      </trkpt>
      <trkpt lat="48.4465" lon="-2.742">
        <ele>128.4</ele>
        <time>2026-01-25T12:06:19Z</time>
      </trkpt>
      <trkpt lat="48.44655" lon="-2.74189">
        <ele>128.4</ele>
        <time>2026-01-25T12:06:20Z</time>
      </trkpt>
      <trkpt lat="48.44661" lon="-2.74178">
        <ele>128.4</ele>
        <time>2026-01-25T12:06:21Z</time>
      </trkpt>
      <trkpt lat="48.44666" lon="-2.74167">
        <ele>127.8</ele>
        <time>2026-01-25T12:06:22Z</time>
      </trkpt>
      <trkpt lat="48.44672" lon="-2.74156">
        <ele>127.4</ele>
        <time>2026-01-25T12:06:23Z</time>
      </trkpt>
      <trkpt lat="48.44677" lon="-2.74144">
        <ele>127.4</ele>
        <time>2026-01-25T12:06:24Z</time>
      </trkpt>
      <trkpt lat="48.44682" lon="-2.74132">
        <ele>127.4</ele>
        <time>2026-01-25T12:06:25Z</time>
      </trkpt>
      <trkpt lat="48.44688" lon="-2.74119">
        <ele>127.4</ele>
        <time>2026-01-25T12:06:26Z</time>
      </trkpt>
      <trkpt lat="48.44693" lon="-2.74107">
        <ele>125</ele>
        <time>2026-01-25T12:06:27Z</time>
      </trkpt>
      <trkpt lat="48.447" lon="-2.74095">
        <ele>125</ele>
        <time>2026-01-25T12:06:28Z</time>
      </trkpt>
      <trkpt lat="48.44706" lon="-2.74082">
        <ele>125</ele>
        <time>2026-01-25T12:06:29Z</time>
      </trkpt>
      <trkpt lat="48.44712" lon="-2.7407">
        <ele>124</ele>
        <time>2026-01-25T12:06:30Z</time>
      </trkpt>
      <trkpt lat="48.44719" lon="-2.74058">
        <ele>122.2</ele>
        <time>2026-01-25T12:06:31Z</time>
      </trkpt>
      <trkpt lat="48.44725" lon="-2.74046">
        <ele>122.2</ele>
        <time>2026-01-25T12:06:32Z</time>
      </trkpt>
      <trkpt lat="48.44732" lon="-2.74033">
        <ele>122.2</ele>
        <time>2026-01-25T12:06:33Z</time>
      </trkpt>
      <trkpt lat="48.44738" lon="-2.74021">
        <ele>121.2</ele>
        <time>2026-01-25T12:06:34Z</time>
      </trkpt>
      <trkpt lat="48.44745" lon="-2.74008">
        <ele>119.8</ele>
        <time>2026-01-25T12:06:35Z</time>
      </trkpt>
      <trkpt lat="48.44751" lon="-2.73996">
        <ele>119.8</ele>
        <time>2026-01-25T12:06:36Z</time>
      </trkpt>
      <trkpt lat="48.44758" lon="-2.73984">
        <ele>119.8</ele>
        <time>2026-01-25T12:06:37Z</time>
      </trkpt>
      <trkpt lat="48.44765" lon="-2.73972">
        <ele>118.8</ele>
        <time>2026-01-25T12:06:38Z</time>
      </trkpt>
      <trkpt lat="48.44773" lon="-2.73961">
        <ele>118.6</ele>
        <time>2026-01-25T12:06:39Z</time>
      </trkpt>
      <trkpt lat="48.4478" lon="-2.7395">
        <ele>118.6</ele>
        <time>2026-01-25T12:06:40Z</time>
      </trkpt>
      <trkpt lat="48.44788" lon="-2.73939">
        <ele>118.6</ele>
        <time>2026-01-25T12:06:41Z</time>
      </trkpt>
      <trkpt lat="48.44795" lon="-2.73928">
        <ele>117.6</ele>
        <time>2026-01-25T12:06:42Z</time>
      </trkpt>
      <trkpt lat="48.44801" lon="-2.73917">
        <ele>118</ele>
        <time>2026-01-25T12:06:43Z</time>
      </trkpt>
      <trkpt lat="48.44806" lon="-2.73907">
        <ele>118</ele>
        <time>2026-01-25T12:06:44Z</time>
      </trkpt>
      <trkpt lat="48.4481" lon="-2.73898">
        <ele>118</ele>
        <time>2026-01-25T12:06:45Z</time>
      </trkpt>
      <trkpt lat="48.44815" lon="-2.7389">
        <ele>119</ele>
        <time>2026-01-25T12:06:46Z</time>
      </trkpt>
      <trkpt lat="48.44821" lon="-2.73884">
        <ele>120</ele>
        <time>2026-01-25T12:06:47Z</time>
      </trkpt>
      <trkpt lat="48.44827" lon="-2.73879">
        <ele>120</ele>
        <time>2026-01-25T12:06:48Z</time>
      </trkpt>
      <trkpt lat="48.44833" lon="-2.73875">
        <ele>120</ele>
        <time>2026-01-25T12:06:49Z</time>
      </trkpt>
      <trkpt lat="48.44839" lon="-2.73869">
        <ele>120</ele>
        <time>2026-01-25T12:06:50Z</time>
      </trkpt>
      <trkpt lat="48.44844" lon="-2.73864">
        <ele>121.4</ele>
        <time>2026-01-25T12:06:51Z</time>
      </trkpt>
      <trkpt lat="48.44849" lon="-2.73858">
        <ele>121.4</ele>
        <time>2026-01-25T12:06:52Z</time>
      </trkpt>
      <trkpt lat="48.44854" lon="-2.73852">
        <ele>121.4</ele>
        <time>2026-01-25T12:06:53Z</time>
      </trkpt>
      <trkpt lat="48.44858" lon="-2.73847">
        <ele>122.4</ele>
        <time>2026-01-25T12:06:54Z</time>
      </trkpt>
      <trkpt lat="48.44862" lon="-2.73843">
        <ele>123</ele>
        <time>2026-01-25T12:06:55Z</time>
      </trkpt>
      <trkpt lat="48.44867" lon="-2.73838">
        <ele>123</ele>
        <time>2026-01-25T12:06:56Z</time>
      </trkpt>
      <trkpt lat="48.4487" lon="-2.73834">
        <ele>123</ele>
        <time>2026-01-25T12:06:57Z</time>
      </trkpt>
      <trkpt lat="48.44874" lon="-2.7383">
        <ele>124</ele>
        <time>2026-01-25T12:06:58Z</time>
      </trkpt>
      <trkpt lat="48.44877" lon="-2.73826">
        <ele>125.2</ele>
        <time>2026-01-25T12:06:59Z</time>
      </trkpt>
      <trkpt lat="48.4488" lon="-2.73822">
        <ele>125.2</ele>
        <time>2026-01-25T12:07:00Z</time>
      </trkpt>
      <trkpt lat="48.44882" lon="-2.73818">
        <ele>125.2</ele>
        <time>2026-01-25T12:07:01Z</time>
      </trkpt>
      <trkpt lat="48.44885" lon="-2.73813">
        <ele>126.2</ele>
        <time>2026-01-25T12:07:02Z</time>
      </trkpt>
      <trkpt lat="48.44888" lon="-2.73808">
        <ele>126</ele>
        <time>2026-01-25T12:07:03Z</time>
      </trkpt>
      <trkpt lat="48.4489" lon="-2.73803">
        <ele>126</ele>
        <time>2026-01-25T12:07:04Z</time>
      </trkpt>
      <trkpt lat="48.44893" lon="-2.73798">
        <ele>126</ele>
        <time>2026-01-25T12:07:05Z</time>
      </trkpt>
      <trkpt lat="48.44896" lon="-2.73792">
        <ele>126.8</ele>
        <time>2026-01-25T12:07:06Z</time>
      </trkpt>
      <trkpt lat="48.44899" lon="-2.73786">
        <ele>127.2</ele>
        <time>2026-01-25T12:07:07Z</time>
      </trkpt>
      <trkpt lat="48.44902" lon="-2.7378">
        <ele>127.2</ele>
        <time>2026-01-25T12:07:08Z</time>
      </trkpt>
      <trkpt lat="48.44904" lon="-2.73774">
        <ele>127.2</ele>
        <time>2026-01-25T12:07:09Z</time>
      </trkpt>
      <trkpt lat="48.44907" lon="-2.73768">
        <ele>128.2</ele>
        <time>2026-01-25T12:07:10Z</time>
      </trkpt>
      <trkpt lat="48.44909" lon="-2.73763">
        <ele>129</ele>
        <time>2026-01-25T12:07:11Z</time>
      </trkpt>
      <trkpt lat="48.44912" lon="-2.73757">
        <ele>129</ele>
        <time>2026-01-25T12:07:12Z</time>
      </trkpt>
      <trkpt lat="48.44914" lon="-2.73752">
        <ele>129</ele>
        <time>2026-01-25T12:07:13Z</time>
      </trkpt>
      <trkpt lat="48.44917" lon="-2.73747">
        <ele>129.6</ele>
        <time>2026-01-25T12:07:14Z</time>
      </trkpt>
      <trkpt lat="48.44919" lon="-2.73742">
        <ele>130.2</ele>
        <time>2026-01-25T12:07:15Z</time>
      </trkpt>
      <trkpt lat="48.44921" lon="-2.73737">
        <ele>130.2</ele>
        <time>2026-01-25T12:07:16Z</time>
      </trkpt>
      <trkpt lat="48.44924" lon="-2.73732">
        <ele>130.2</ele>
        <time>2026-01-25T12:07:17Z</time>
      </trkpt>
      <trkpt lat="48.44926" lon="-2.73727">
        <ele>130.8</ele>
        <time>2026-01-25T12:07:18Z</time>
      </trkpt>
      <trkpt lat="48.44928" lon="-2.73722">
        <ele>131.2</ele>
        <time>2026-01-25T12:07:19Z</time>
      </trkpt>
      <trkpt lat="48.4493" lon="-2.73717">
        <ele>131.2</ele>
        <time>2026-01-25T12:07:20Z</time>
      </trkpt>
      <trkpt lat="48.44932" lon="-2.73712">
        <ele>131.2</ele>
        <time>2026-01-25T12:07:21Z</time>
      </trkpt>
      <trkpt lat="48.44934" lon="-2.73707">
        <ele>131.2</ele>
        <time>2026-01-25T12:07:22Z</time>
      </trkpt>
      <trkpt lat="48.44936" lon="-2.73702">
        <ele>132.2</ele>
        <time>2026-01-25T12:07:23Z</time>
      </trkpt>
      <trkpt lat="48.44938" lon="-2.73697">
        <ele>132.2</ele>
        <time>2026-01-25T12:07:24Z</time>
      </trkpt>
      <trkpt lat="48.44941" lon="-2.73692">
        <ele>132.2</ele>
        <time>2026-01-25T12:07:25Z</time>
      </trkpt>
      <trkpt lat="48.44943" lon="-2.73687">
        <ele>132.2</ele>
        <time>2026-01-25T12:07:26Z</time>
      </trkpt>
      <trkpt lat="48.44946" lon="-2.73682">
        <ele>132.6</ele>
        <time>2026-01-25T12:07:27Z</time>
      </trkpt>
      <trkpt lat="48.44948" lon="-2.73678">
        <ele>132.6</ele>
        <time>2026-01-25T12:07:28Z</time>
      </trkpt>
      <trkpt lat="48.44951" lon="-2.73673">
        <ele>132.6</ele>
        <time>2026-01-25T12:07:29Z</time>
      </trkpt>
      <trkpt lat="48.44954" lon="-2.73668">
        <ele>133.2</ele>
        <time>2026-01-25T12:07:30Z</time>
      </trkpt>
      <trkpt lat="48.44957" lon="-2.73664">
        <ele>132.6</ele>
        <time>2026-01-25T12:07:31Z</time>
      </trkpt>
      <trkpt lat="48.44961" lon="-2.73659">
        <ele>132.6</ele>
        <time>2026-01-25T12:07:32Z</time>
      </trkpt>
      <trkpt lat="48.44964" lon="-2.73655">
        <ele>132.6</ele>
        <time>2026-01-25T12:07:33Z</time>
      </trkpt>
      <trkpt lat="48.44967" lon="-2.7365">
        <ele>132.8</ele>
        <time>2026-01-25T12:07:34Z</time>
      </trkpt>
      <trkpt lat="48.44971" lon="-2.73646">
        <ele>133</ele>
        <time>2026-01-25T12:07:35Z</time>
      </trkpt>
      <trkpt lat="48.44975" lon="-2.73641">
        <ele>133</ele>
        <time>2026-01-25T12:07:36Z</time>
      </trkpt>
      <trkpt lat="48.44979" lon="-2.73636">
        <ele>133</ele>
        <time>2026-01-25T12:07:37Z</time>
      </trkpt>
      <trkpt lat="48.44983" lon="-2.73631">
        <ele>133</ele>
        <time>2026-01-25T12:07:38Z</time>
      </trkpt>
      <trkpt lat="48.44987" lon="-2.73626">
        <ele>133</ele>
        <time>2026-01-25T12:07:39Z</time>
      </trkpt>
      <trkpt lat="48.4499" lon="-2.7362">
        <ele>133</ele>
        <time>2026-01-25T12:07:40Z</time>
      </trkpt>
      <trkpt lat="48.44995" lon="-2.73614">
        <ele>133</ele>
        <time>2026-01-25T12:07:41Z</time>
      </trkpt>
      <trkpt lat="48.44999" lon="-2.73608">
        <ele>133.2</ele>
        <time>2026-01-25T12:07:42Z</time>
      </trkpt>
      <trkpt lat="48.45003" lon="-2.73601">
        <ele>132.4</ele>
        <time>2026-01-25T12:07:43Z</time>
      </trkpt>
      <trkpt lat="48.45007" lon="-2.73595">
        <ele>132.4</ele>
        <time>2026-01-25T12:07:44Z</time>
      </trkpt>
      <trkpt lat="48.45011" lon="-2.73588">
        <ele>132.4</ele>
        <time>2026-01-25T12:07:45Z</time>
      </trkpt>
      <trkpt lat="48.45015" lon="-2.7358">
        <ele>132.4</ele>
        <time>2026-01-25T12:07:46Z</time>
      </trkpt>
      <trkpt lat="48.45019" lon="-2.73573">
        <ele>131.8</ele>
        <time>2026-01-25T12:07:47Z</time>
      </trkpt>
      <trkpt lat="48.45023" lon="-2.73565">
        <ele>131.8</ele>
        <time>2026-01-25T12:07:48Z</time>
      </trkpt>
      <trkpt lat="48.45027" lon="-2.73557">
        <ele>131.8</ele>
        <time>2026-01-25T12:07:49Z</time>
      </trkpt>
      <trkpt lat="48.45031" lon="-2.7355">
        <ele>131.6</ele>
        <time>2026-01-25T12:07:50Z</time>
      </trkpt>
      <trkpt lat="48.45035" lon="-2.73541">
        <ele>131.4</ele>
        <time>2026-01-25T12:07:51Z</time>
      </trkpt>
      <trkpt lat="48.45039" lon="-2.73533">
        <ele>131.4</ele>
        <time>2026-01-25T12:07:52Z</time>
      </trkpt>
      <trkpt lat="48.45043" lon="-2.73525">
        <ele>131.4</ele>
        <time>2026-01-25T12:07:53Z</time>
      </trkpt>
      <trkpt lat="48.45048" lon="-2.73516">
        <ele>131</ele>
        <time>2026-01-25T12:07:54Z</time>
      </trkpt>
      <trkpt lat="48.45052" lon="-2.73507">
        <ele>130.8</ele>
        <time>2026-01-25T12:07:55Z</time>
      </trkpt>
      <trkpt lat="48.45057" lon="-2.73499">
        <ele>130.8</ele>
        <time>2026-01-25T12:07:56Z</time>
      </trkpt>
      <trkpt lat="48.45062" lon="-2.7349">
        <ele>130.8</ele>
        <time>2026-01-25T12:07:57Z</time>
      </trkpt>
      <trkpt lat="48.45066" lon="-2.73481">
        <ele>130.8</ele>
        <time>2026-01-25T12:07:58Z</time>
      </trkpt>
      <trkpt lat="48.45071" lon="-2.73472">
        <ele>130.2</ele>
        <time>2026-01-25T12:07:59Z</time>
      </trkpt>
      <trkpt lat="48.45076" lon="-2.73463">
        <ele>130.2</ele>
        <time>2026-01-25T12:08:00Z</time>
      </trkpt>
      <trkpt lat="48.45081" lon="-2.73454">
        <ele>130.2</ele>
        <time>2026-01-25T12:08:01Z</time>
      </trkpt>
      <trkpt lat="48.45086" lon="-2.73445">
        <ele>129.2</ele>
        <time>2026-01-25T12:08:02Z</time>
      </trkpt>
      <trkpt lat="48.45091" lon="-2.73436">
        <ele>129</ele>
        <time>2026-01-25T12:08:03Z</time>
      </trkpt>
      <trkpt lat="48.45096" lon="-2.73427">
        <ele>129</ele>
        <time>2026-01-25T12:08:04Z</time>
      </trkpt>
      <trkpt lat="48.45101" lon="-2.73417">
        <ele>129</ele>
        <time>2026-01-25T12:08:05Z</time>
      </trkpt>
      <trkpt lat="48.45107" lon="-2.73407">
        <ele>128</ele>
        <time>2026-01-25T12:08:06Z</time>
      </trkpt>
      <trkpt lat="48.45112" lon="-2.73397">
        <ele>127.8</ele>
        <time>2026-01-25T12:08:07Z</time>
      </trkpt>
      <trkpt lat="48.45116" lon="-2.73386">
        <ele>127.8</ele>
        <time>2026-01-25T12:08:08Z</time>
      </trkpt>
      <trkpt lat="48.45121" lon="-2.73375">
        <ele>127.8</ele>
        <time>2026-01-25T12:08:09Z</time>
      </trkpt>
      <trkpt lat="48.45125" lon="-2.73364">
        <ele>127.2</ele>
        <time>2026-01-25T12:08:10Z</time>
      </trkpt>
      <trkpt lat="48.45129" lon="-2.73352">
        <ele>126.8</ele>
        <time>2026-01-25T12:08:11Z</time>
      </trkpt>
      <trkpt lat="48.45132" lon="-2.7334">
        <ele>126.8</ele>
        <time>2026-01-25T12:08:12Z</time>
      </trkpt>
      <trkpt lat="48.45136" lon="-2.73327">
        <ele>126.8</ele>
        <time>2026-01-25T12:08:13Z</time>
      </trkpt>
      <trkpt lat="48.45138" lon="-2.73315">
        <ele>126.8</ele>
        <time>2026-01-25T12:08:14Z</time>
      </trkpt>
      <trkpt lat="48.45141" lon="-2.73302">
        <ele>125.4</ele>
        <time>2026-01-25T12:08:15Z</time>
      </trkpt>
      <trkpt lat="48.45144" lon="-2.73288">
        <ele>125.4</ele>
        <time>2026-01-25T12:08:16Z</time>
      </trkpt>
      <trkpt lat="48.45146" lon="-2.73275">
        <ele>125.4</ele>
        <time>2026-01-25T12:08:17Z</time>
      </trkpt>
      <trkpt lat="48.45149" lon="-2.73262">
        <ele>124.4</ele>
        <time>2026-01-25T12:08:18Z</time>
      </trkpt>
      <trkpt lat="48.45151" lon="-2.73248">
        <ele>124</ele>
        <time>2026-01-25T12:08:19Z</time>
      </trkpt>
      <trkpt lat="48.45154" lon="-2.73234">
        <ele>124</ele>
        <time>2026-01-25T12:08:20Z</time>
      </trkpt>
      <trkpt lat="48.45157" lon="-2.7322">
        <ele>124</ele>
        <time>2026-01-25T12:08:21Z</time>
      </trkpt>
      <trkpt lat="48.45159" lon="-2.73206">
        <ele>123</ele>
        <time>2026-01-25T12:08:22Z</time>
      </trkpt>
      <trkpt lat="48.45162" lon="-2.73191">
        <ele>122.8</ele>
        <time>2026-01-25T12:08:23Z</time>
      </trkpt>
      <trkpt lat="48.45164" lon="-2.73177">
        <ele>122.8</ele>
        <time>2026-01-25T12:08:24Z</time>
      </trkpt>
      <trkpt lat="48.45167" lon="-2.73162">
        <ele>122.8</ele>
        <time>2026-01-25T12:08:25Z</time>
      </trkpt>
      <trkpt lat="48.4517" lon="-2.73147">
        <ele>122.4</ele>
        <time>2026-01-25T12:08:26Z</time>
      </trkpt>
      <trkpt lat="48.45173" lon="-2.73132">
        <ele>121.8</ele>
        <time>2026-01-25T12:08:27Z</time>
      </trkpt>
      <trkpt lat="48.45176" lon="-2.73117">
        <ele>121.8</ele>
        <time>2026-01-25T12:08:28Z</time>
      </trkpt>
      <trkpt lat="48.45179" lon="-2.73102">
        <ele>121.8</ele>
        <time>2026-01-25T12:08:29Z</time>
      </trkpt>
      <trkpt lat="48.45182" lon="-2.73086">
        <ele>120.8</ele>
        <time>2026-01-25T12:08:30Z</time>
      </trkpt>
      <trkpt lat="48.45186" lon="-2.73071">
        <ele>119.2</ele>
        <time>2026-01-25T12:08:31Z</time>
      </trkpt>
      <trkpt lat="48.4519" lon="-2.73057">
        <ele>119.2</ele>
        <time>2026-01-25T12:08:32Z</time>
      </trkpt>
      <trkpt lat="48.45196" lon="-2.73043">
        <ele>119.2</ele>
        <time>2026-01-25T12:08:33Z</time>
      </trkpt>
      <trkpt lat="48.45202" lon="-2.73029">
        <ele>119.2</ele>
        <time>2026-01-25T12:08:34Z</time>
      </trkpt>
      <trkpt lat="48.45208" lon="-2.73016">
        <ele>119.2</ele>
        <time>2026-01-25T12:08:35Z</time>
      </trkpt>
      <trkpt lat="48.45216" lon="-2.73003">
        <ele>119.2</ele>
        <time>2026-01-25T12:08:36Z</time>
      </trkpt>
      <trkpt lat="48.45224" lon="-2.72992">
        <ele>119.2</ele>
        <time>2026-01-25T12:08:37Z</time>
      </trkpt>
      <trkpt lat="48.45233" lon="-2.72981">
        <ele>118.2</ele>
        <time>2026-01-25T12:08:38Z</time>
      </trkpt>
      <trkpt lat="48.45242" lon="-2.7297">
        <ele>113.6</ele>
        <time>2026-01-25T12:08:39Z</time>
      </trkpt>
      <trkpt lat="48.45251" lon="-2.7296">
        <ele>113.6</ele>
        <time>2026-01-25T12:08:40Z</time>
      </trkpt>
      <trkpt lat="48.4526" lon="-2.7295">
        <ele>113.6</ele>
        <time>2026-01-25T12:08:41Z</time>
      </trkpt>
      <trkpt lat="48.45269" lon="-2.7294">
        <ele>113.6</ele>
        <time>2026-01-25T12:08:42Z</time>
      </trkpt>
      <trkpt lat="48.45278" lon="-2.7293">
        <ele>113</ele>
        <time>2026-01-25T12:08:43Z</time>
      </trkpt>
      <trkpt lat="48.45287" lon="-2.7292">
        <ele>113</ele>
        <time>2026-01-25T12:08:44Z</time>
      </trkpt>
      <trkpt lat="48.45296" lon="-2.72909">
        <ele>113</ele>
        <time>2026-01-25T12:08:45Z</time>
      </trkpt>
      <trkpt lat="48.45305" lon="-2.72899">
        <ele>112</ele>
        <time>2026-01-25T12:08:46Z</time>
      </trkpt>
      <trkpt lat="48.45313" lon="-2.72889">
        <ele>111.2</ele>
        <time>2026-01-25T12:08:47Z</time>
      </trkpt>
      <trkpt lat="48.45322" lon="-2.72879">
        <ele>111.2</ele>
        <time>2026-01-25T12:08:48Z</time>
      </trkpt>
      <trkpt lat="48.45331" lon="-2.72869">
        <ele>111.2</ele>
        <time>2026-01-25T12:08:49Z</time>
      </trkpt>
      <trkpt lat="48.4534" lon="-2.72859">
        <ele>110.8</ele>
        <time>2026-01-25T12:08:50Z</time>
      </trkpt>
      <trkpt lat="48.45348" lon="-2.7285">
        <ele>111.4</ele>
        <time>2026-01-25T12:08:51Z</time>
      </trkpt>
      <trkpt lat="48.45357" lon="-2.7284">
        <ele>111.4</ele>
        <time>2026-01-25T12:08:52Z</time>
      </trkpt>
      <trkpt lat="48.45366" lon="-2.7283">
        <ele>111.4</ele>
        <time>2026-01-25T12:08:53Z</time>
      </trkpt>
      <trkpt lat="48.45375" lon="-2.7282">
        <ele>110.4</ele>
        <time>2026-01-25T12:08:54Z</time>
      </trkpt>
      <trkpt lat="48.45384" lon="-2.72809">
        <ele>108</ele>
        <time>2026-01-25T12:08:55Z</time>
      </trkpt>
      <trkpt lat="48.45393" lon="-2.72799">
        <ele>108</ele>
        <time>2026-01-25T12:08:56Z</time>
      </trkpt>
      <trkpt lat="48.45402" lon="-2.72789">
        <ele>108</ele>
        <time>2026-01-25T12:08:57Z</time>
      </trkpt>
      <trkpt lat="48.45411" lon="-2.72778">
        <ele>107</ele>
        <time>2026-01-25T12:08:58Z</time>
      </trkpt>
      <trkpt lat="48.45421" lon="-2.72768">
        <ele>106.2</ele>
        <time>2026-01-25T12:08:59Z</time>
      </trkpt>
      <trkpt lat="48.4543" lon="-2.72757">
        <ele>106.2</ele>
        <time>2026-01-25T12:09:00Z</time>
      </trkpt>
      <trkpt lat="48.4544" lon="-2.72746">
        <ele>106.2</ele>
        <time>2026-01-25T12:09:01Z</time>
      </trkpt>
      <trkpt lat="48.45449" lon="-2.72734">
        <ele>105.2</ele>
        <time>2026-01-25T12:09:02Z</time>
      </trkpt>
      <trkpt lat="48.45458" lon="-2.72722">
        <ele>103.8</ele>
        <time>2026-01-25T12:09:03Z</time>
      </trkpt>
      <trkpt lat="48.45466" lon="-2.72709">
        <ele>103.8</ele>
        <time>2026-01-25T12:09:04Z</time>
      </trkpt>
      <trkpt lat="48.45474" lon="-2.72696">
        <ele>103.8</ele>
        <time>2026-01-25T12:09:05Z</time>
      </trkpt>
      <trkpt lat="48.45481" lon="-2.72682">
        <ele>104.2</ele>
        <time>2026-01-25T12:09:06Z</time>
      </trkpt>
      <trkpt lat="48.45487" lon="-2.72669">
        <ele>103.4</ele>
        <time>2026-01-25T12:09:07Z</time>
      </trkpt>
      <trkpt lat="48.45493" lon="-2.72655">
        <ele>103.4</ele>
        <time>2026-01-25T12:09:08Z</time>
      </trkpt>
      <trkpt lat="48.45499" lon="-2.7264">
        <ele>103.4</ele>
        <time>2026-01-25T12:09:09Z</time>
      </trkpt>
      <trkpt lat="48.45505" lon="-2.72626">
        <ele>103.4</ele>
        <time>2026-01-25T12:09:10Z</time>
      </trkpt>
      <trkpt lat="48.45511" lon="-2.72612">
        <ele>103.8</ele>
        <time>2026-01-25T12:09:11Z</time>
      </trkpt>
      <trkpt lat="48.45516" lon="-2.72599">
        <ele>103.8</ele>
        <time>2026-01-25T12:09:12Z</time>
      </trkpt>
      <trkpt lat="48.45522" lon="-2.72585">
        <ele>103.8</ele>
        <time>2026-01-25T12:09:13Z</time>
      </trkpt>
      <trkpt lat="48.45527" lon="-2.72571">
        <ele>103.6</ele>
        <time>2026-01-25T12:09:14Z</time>
      </trkpt>
      <trkpt lat="48.45533" lon="-2.72558">
        <ele>103.6</ele>
        <time>2026-01-25T12:09:15Z</time>
      </trkpt>
      <trkpt lat="48.45539" lon="-2.72544">
        <ele>103.6</ele>
        <time>2026-01-25T12:09:16Z</time>
      </trkpt>
      <trkpt lat="48.45544" lon="-2.7253">
        <ele>103.6</ele>
        <time>2026-01-25T12:09:17Z</time>
      </trkpt>
      <trkpt lat="48.4555" lon="-2.72517">
        <ele>102.6</ele>
        <time>2026-01-25T12:09:18Z</time>
      </trkpt>
      <trkpt lat="48.45555" lon="-2.72503">
        <ele>101.8</ele>
        <time>2026-01-25T12:09:19Z</time>
      </trkpt>
      <trkpt lat="48.45561" lon="-2.72489">
        <ele>101.8</ele>
        <time>2026-01-25T12:09:20Z</time>
      </trkpt>
      <trkpt lat="48.45567" lon="-2.72476">
        <ele>101.8</ele>
        <time>2026-01-25T12:09:21Z</time>
      </trkpt>
      <trkpt lat="48.45572" lon="-2.72462">
        <ele>101.8</ele>
        <time>2026-01-25T12:09:22Z</time>
      </trkpt>
      <trkpt lat="48.45577" lon="-2.72448">
        <ele>100.6</ele>
        <time>2026-01-25T12:09:23Z</time>
      </trkpt>
      <trkpt lat="48.45583" lon="-2.72434">
        <ele>100.6</ele>
        <time>2026-01-25T12:09:24Z</time>
      </trkpt>
      <trkpt lat="48.45589" lon="-2.72421">
        <ele>100.6</ele>
        <time>2026-01-25T12:09:25Z</time>
      </trkpt>
      <trkpt lat="48.45595" lon="-2.72407">
        <ele>100.6</ele>
        <time>2026-01-25T12:09:26Z</time>
      </trkpt>
      <trkpt lat="48.45601" lon="-2.72395">
        <ele>101.4</ele>
        <time>2026-01-25T12:09:27Z</time>
      </trkpt>
      <trkpt lat="48.45607" lon="-2.72383">
        <ele>101.4</ele>
        <time>2026-01-25T12:09:28Z</time>
      </trkpt>
      <trkpt lat="48.45614" lon="-2.72371">
        <ele>101.4</ele>
        <time>2026-01-25T12:09:29Z</time>
      </trkpt>
      <trkpt lat="48.45622" lon="-2.72361">
        <ele>101.4</ele>
        <time>2026-01-25T12:09:30Z</time>
      </trkpt>
      <trkpt lat="48.45629" lon="-2.72351">
        <ele>101</ele>
        <time>2026-01-25T12:09:31Z</time>
      </trkpt>
      <trkpt lat="48.45636" lon="-2.72342">
        <ele>101</ele>
        <time>2026-01-25T12:09:32Z</time>
      </trkpt>
      <trkpt lat="48.45644" lon="-2.72333">
        <ele>101</ele>
        <time>2026-01-25T12:09:33Z</time>
      </trkpt>
      <trkpt lat="48.45651" lon="-2.72324">
        <ele>101.6</ele>
        <time>2026-01-25T12:09:34Z</time>
      </trkpt>
      <trkpt lat="48.45659" lon="-2.72316">
        <ele>102</ele>
        <time>2026-01-25T12:09:35Z</time>
      </trkpt>
      <trkpt lat="48.45666" lon="-2.72308">
        <ele>102</ele>
        <time>2026-01-25T12:09:36Z</time>
      </trkpt>
      <trkpt lat="48.45673" lon="-2.723">
        <ele>102</ele>
        <time>2026-01-25T12:09:37Z</time>
      </trkpt>
      <trkpt lat="48.45679" lon="-2.72292">
        <ele>103</ele>
        <time>2026-01-25T12:09:38Z</time>
      </trkpt>
      <trkpt lat="48.45686" lon="-2.72285">
        <ele>104</ele>
        <time>2026-01-25T12:09:39Z</time>
      </trkpt>
      <trkpt lat="48.45693" lon="-2.72278">
        <ele>104</ele>
        <time>2026-01-25T12:09:40Z</time>
      </trkpt>
      <trkpt lat="48.45699" lon="-2.72271">
        <ele>104</ele>
        <time>2026-01-25T12:09:41Z</time>
      </trkpt>
      <trkpt lat="48.45705" lon="-2.72264">
        <ele>105</ele>
        <time>2026-01-25T12:09:42Z</time>
      </trkpt>
      <trkpt lat="48.45711" lon="-2.72258">
        <ele>106</ele>
        <time>2026-01-25T12:09:43Z</time>
      </trkpt>
      <trkpt lat="48.45716" lon="-2.72251">
        <ele>106</ele>
        <time>2026-01-25T12:09:44Z</time>
      </trkpt>
      <trkpt lat="48.45722" lon="-2.72245">
        <ele>106</ele>
        <time>2026-01-25T12:09:45Z</time>
      </trkpt>
      <trkpt lat="48.45727" lon="-2.72239">
        <ele>106</ele>
        <time>2026-01-25T12:09:46Z</time>
      </trkpt>
      <trkpt lat="48.45733" lon="-2.72234">
        <ele>107.4</ele>
        <time>2026-01-25T12:09:47Z</time>
      </trkpt>
      <trkpt lat="48.45737" lon="-2.72229">
        <ele>107.4</ele>
        <time>2026-01-25T12:09:48Z</time>
      </trkpt>
      <trkpt lat="48.45742" lon="-2.72225">
        <ele>107.4</ele>
        <time>2026-01-25T12:09:49Z</time>
      </trkpt>
      <trkpt lat="48.45746" lon="-2.72221">
        <ele>108.4</ele>
        <time>2026-01-25T12:09:50Z</time>
      </trkpt>
      <trkpt lat="48.45751" lon="-2.72217">
        <ele>109.4</ele>
        <time>2026-01-25T12:09:51Z</time>
      </trkpt>
      <trkpt lat="48.45755" lon="-2.72213">
        <ele>109.4</ele>
        <time>2026-01-25T12:09:52Z</time>
      </trkpt>
      <trkpt lat="48.45759" lon="-2.7221">
        <ele>109.4</ele>
        <time>2026-01-25T12:09:53Z</time>
      </trkpt>
      <trkpt lat="48.45762" lon="-2.72207">
        <ele>110.4</ele>
        <time>2026-01-25T12:09:54Z</time>
      </trkpt>
      <trkpt lat="48.45766" lon="-2.72204">
        <ele>111.2</ele>
        <time>2026-01-25T12:09:55Z</time>
      </trkpt>
      <trkpt lat="48.4577" lon="-2.72202">
        <ele>111.2</ele>
        <time>2026-01-25T12:09:56Z</time>
      </trkpt>
      <trkpt lat="48.45774" lon="-2.722">
        <ele>111.2</ele>
        <time>2026-01-25T12:09:57Z</time>
      </trkpt>
      <trkpt lat="48.45778" lon="-2.72197">
        <ele>111.2</ele>
        <time>2026-01-25T12:09:58Z</time>
      </trkpt>
      <trkpt lat="48.45781" lon="-2.72195">
        <ele>111.4</ele>
        <time>2026-01-25T12:09:59Z</time>
      </trkpt>
      <trkpt lat="48.45785" lon="-2.72193">
        <ele>111.4</ele>
        <time>2026-01-25T12:10:00Z</time>
      </trkpt>
      <trkpt lat="48.45789" lon="-2.72191">
        <ele>111.4</ele>
        <time>2026-01-25T12:10:01Z</time>
      </trkpt>
      <trkpt lat="48.45793" lon="-2.72189">
        <ele>112.2</ele>
        <time>2026-01-25T12:10:02Z</time>
      </trkpt>
      <trkpt lat="48.45797" lon="-2.72188">
        <ele>112</ele>
        <time>2026-01-25T12:10:03Z</time>
      </trkpt>
      <trkpt lat="48.45801" lon="-2.72186">
        <ele>112</ele>
        <time>2026-01-25T12:10:04Z</time>
      </trkpt>
      <trkpt lat="48.45805" lon="-2.72184">
        <ele>112</ele>
        <time>2026-01-25T12:10:05Z</time>
      </trkpt>
      <trkpt lat="48.45809" lon="-2.72182">
        <ele>113</ele>
        <time>2026-01-25T12:10:06Z</time>
      </trkpt>
      <trkpt lat="48.45813" lon="-2.7218">
        <ele>113.4</ele>
        <time>2026-01-25T12:10:07Z</time>
      </trkpt>
      <trkpt lat="48.45817" lon="-2.72179">
        <ele>113.4</ele>
        <time>2026-01-25T12:10:08Z</time>
      </trkpt>
      <trkpt lat="48.45821" lon="-2.72177">
        <ele>113.4</ele>
        <time>2026-01-25T12:10:09Z</time>
      </trkpt>
      <trkpt lat="48.45825" lon="-2.72174">
        <ele>113.4</ele>
        <time>2026-01-25T12:10:10Z</time>
      </trkpt>
      <trkpt lat="48.45829" lon="-2.72172">
        <ele>113.2</ele>
        <time>2026-01-25T12:10:11Z</time>
      </trkpt>
      <trkpt lat="48.45833" lon="-2.72169">
        <ele>113.2</ele>
        <time>2026-01-25T12:10:12Z</time>
      </trkpt>
      <trkpt lat="48.45836" lon="-2.72166">
        <ele>113.2</ele>
        <time>2026-01-25T12:10:13Z</time>
      </trkpt>
      <trkpt lat="48.4584" lon="-2.72161">
        <ele>114.2</ele>
        <time>2026-01-25T12:10:14Z</time>
      </trkpt>
      <trkpt lat="48.45842" lon="-2.72157">
        <ele>114.2</ele>
        <time>2026-01-25T12:10:15Z</time>
      </trkpt>
      <trkpt lat="48.45845" lon="-2.72151">
        <ele>114.2</ele>
        <time>2026-01-25T12:10:16Z</time>
      </trkpt>
      <trkpt lat="48.45847" lon="-2.72145">
        <ele>114.2</ele>
        <time>2026-01-25T12:10:17Z</time>
      </trkpt>
      <trkpt lat="48.4585" lon="-2.7214">
        <ele>113.8</ele>
        <time>2026-01-25T12:10:18Z</time>
      </trkpt>
      <trkpt lat="48.45852" lon="-2.72134">
        <ele>114.2</ele>
        <time>2026-01-25T12:10:19Z</time>
      </trkpt>
      <trkpt lat="48.45854" lon="-2.72128">
        <ele>114.2</ele>
        <time>2026-01-25T12:10:20Z</time>
      </trkpt>
      <trkpt lat="48.45856" lon="-2.72122">
        <ele>114.2</ele>
        <time>2026-01-25T12:10:21Z</time>
      </trkpt>
      <trkpt lat="48.45857" lon="-2.72116">
        <ele>114.8</ele>
        <time>2026-01-25T12:10:22Z</time>
      </trkpt>
      <trkpt lat="48.45859" lon="-2.72111">
        <ele>114.8</ele>
        <time>2026-01-25T12:10:23Z</time>
      </trkpt>
      <trkpt lat="48.4586" lon="-2.72105">
        <ele>114.8</ele>
        <time>2026-01-25T12:10:24Z</time>
      </trkpt>
      <trkpt lat="48.45862" lon="-2.72098">
        <ele>114.8</ele>
        <time>2026-01-25T12:10:25Z</time>
      </trkpt>
      <trkpt lat="48.45864" lon="-2.72092">
        <ele>114.2</ele>
        <time>2026-01-25T12:10:26Z</time>
      </trkpt>
      <trkpt lat="48.45866" lon="-2.72085">
        <ele>114.4</ele>
        <time>2026-01-25T12:10:27Z</time>
      </trkpt>
      <trkpt lat="48.45868" lon="-2.72078">
        <ele>114.4</ele>
        <time>2026-01-25T12:10:28Z</time>
      </trkpt>
      <trkpt lat="48.45871" lon="-2.72072">
        <ele>114.4</ele>
        <time>2026-01-25T12:10:29Z</time>
      </trkpt>
      <trkpt lat="48.45873" lon="-2.72064">
        <ele>114.4</ele>
        <time>2026-01-25T12:10:30Z</time>
      </trkpt>
      <trkpt lat="48.45875" lon="-2.72056">
        <ele>114.8</ele>
        <time>2026-01-25T12:10:31Z</time>
      </trkpt>
      <trkpt lat="48.45877" lon="-2.72048">
        <ele>114.8</ele>
        <time>2026-01-25T12:10:32Z</time>
      </trkpt>
      <trkpt lat="48.4588" lon="-2.7204">
        <ele>114.8</ele>
        <time>2026-01-25T12:10:33Z</time>
      </trkpt>
      <trkpt lat="48.45882" lon="-2.72032">
        <ele>114</ele>
        <time>2026-01-25T12:10:34Z</time>
      </trkpt>
      <trkpt lat="48.45884" lon="-2.72023">
        <ele>113.6</ele>
        <time>2026-01-25T12:10:35Z</time>
      </trkpt>
      <trkpt lat="48.45887" lon="-2.72015">
        <ele>113.6</ele>
        <time>2026-01-25T12:10:36Z</time>
      </trkpt>
      <trkpt lat="48.45889" lon="-2.72007">
        <ele>113.6</ele>
        <time>2026-01-25T12:10:37Z</time>
      </trkpt>
      <trkpt lat="48.45892" lon="-2.71998">
        <ele>114</ele>
        <time>2026-01-25T12:10:38Z</time>
      </trkpt>
      <trkpt lat="48.45895" lon="-2.71989">
        <ele>114.2</ele>
        <time>2026-01-25T12:10:39Z</time>
      </trkpt>
      <trkpt lat="48.45898" lon="-2.71981">
        <ele>114.2</ele>
        <time>2026-01-25T12:10:40Z</time>
      </trkpt>
      <trkpt lat="48.459" lon="-2.71972">
        <ele>114.2</ele>
        <time>2026-01-25T12:10:41Z</time>
      </trkpt>
      <trkpt lat="48.45903" lon="-2.71963">
        <ele>115.2</ele>
        <time>2026-01-25T12:10:42Z</time>
      </trkpt>
      <trkpt lat="48.45906" lon="-2.71954">
        <ele>114.8</ele>
        <time>2026-01-25T12:10:43Z</time>
      </trkpt>
      <trkpt lat="48.45909" lon="-2.71945">
        <ele>114.8</ele>
        <time>2026-01-25T12:10:44Z</time>
      </trkpt>
      <trkpt lat="48.45912" lon="-2.71935">
        <ele>114.8</ele>
        <time>2026-01-25T12:10:45Z</time>
      </trkpt>
      <trkpt lat="48.45914" lon="-2.71926">
        <ele>114.8</ele>
        <time>2026-01-25T12:10:46Z</time>
      </trkpt>
      <trkpt lat="48.45917" lon="-2.71918">
        <ele>115</ele>
        <time>2026-01-25T12:10:47Z</time>
      </trkpt>
      <trkpt lat="48.4592" lon="-2.71909">
        <ele>115</ele>
        <time>2026-01-25T12:10:48Z</time>
      </trkpt>
      <trkpt lat="48.45923" lon="-2.719">
        <ele>115</ele>
        <time>2026-01-25T12:10:49Z</time>
      </trkpt>
      <trkpt lat="48.45925" lon="-2.71892">
        <ele>115</ele>
        <time>2026-01-25T12:10:50Z</time>
      </trkpt>
      <trkpt lat="48.45928" lon="-2.71882">
        <ele>113.8</ele>
        <time>2026-01-25T12:10:51Z</time>
      </trkpt>
      <trkpt lat="48.45931" lon="-2.71873">
        <ele>113.8</ele>
        <time>2026-01-25T12:10:52Z</time>
      </trkpt>
      <trkpt lat="48.45934" lon="-2.71863">
        <ele>113.8</ele>
        <time>2026-01-25T12:10:53Z</time>
      </trkpt>
      <trkpt lat="48.45937" lon="-2.71853">
        <ele>113.8</ele>
        <time>2026-01-25T12:10:54Z</time>
      </trkpt>
      <trkpt lat="48.4594" lon="-2.71844">
        <ele>113.6</ele>
        <time>2026-01-25T12:10:55Z</time>
      </trkpt>
      <trkpt lat="48.45943" lon="-2.71833">
        <ele>113.6</ele>
        <time>2026-01-25T12:10:56Z</time>
      </trkpt>
      <trkpt lat="48.45947" lon="-2.71823">
        <ele>113.6</ele>
        <time>2026-01-25T12:10:57Z</time>
      </trkpt>
      <trkpt lat="48.45951" lon="-2.71814">
        <ele>113.6</ele>
        <time>2026-01-25T12:10:58Z</time>
      </trkpt>
      <trkpt lat="48.45955" lon="-2.71805">
        <ele>113.4</ele>
        <time>2026-01-25T12:10:59Z</time>
      </trkpt>
      <trkpt lat="48.45959" lon="-2.71796">
        <ele>113.4</ele>
        <time>2026-01-25T12:11:00Z</time>
      </trkpt>
      <trkpt lat="48.45964" lon="-2.71788">
        <ele>113.4</ele>
        <time>2026-01-25T12:11:01Z</time>
      </trkpt>
      <trkpt lat="48.45969" lon="-2.7178">
        <ele>112.6</ele>
        <time>2026-01-25T12:11:02Z</time>
      </trkpt>
      <trkpt lat="48.45974" lon="-2.71772">
        <ele>112.8</ele>
        <time>2026-01-25T12:11:03Z</time>
      </trkpt>
      <trkpt lat="48.45977" lon="-2.71764">
        <ele>112.8</ele>
        <time>2026-01-25T12:11:04Z</time>
      </trkpt>
      <trkpt lat="48.45982" lon="-2.71756">
        <ele>112.8</ele>
        <time>2026-01-25T12:11:05Z</time>
      </trkpt>
      <trkpt lat="48.45987" lon="-2.71748">
        <ele>112.8</ele>
        <time>2026-01-25T12:11:06Z</time>
      </trkpt>
      <trkpt lat="48.45991" lon="-2.71741">
        <ele>112.8</ele>
        <time>2026-01-25T12:11:07Z</time>
      </trkpt>
      <trkpt lat="48.45995" lon="-2.71733">
        <ele>112.8</ele>
        <time>2026-01-25T12:11:08Z</time>
      </trkpt>
      <trkpt lat="48.46001" lon="-2.71725">
        <ele>112.8</ele>
        <time>2026-01-25T12:11:09Z</time>
      </trkpt>
      <trkpt lat="48.46006" lon="-2.71718">
        <ele>112.8</ele>
        <time>2026-01-25T12:11:10Z</time>
      </trkpt>
      <trkpt lat="48.46011" lon="-2.71711">
        <ele>113.2</ele>
        <time>2026-01-25T12:11:11Z</time>
      </trkpt>
      <trkpt lat="48.46016" lon="-2.71703">
        <ele>113.2</ele>
        <time>2026-01-25T12:11:12Z</time>
      </trkpt>
      <trkpt lat="48.46021" lon="-2.71695">
        <ele>113.2</ele>
        <time>2026-01-25T12:11:13Z</time>
      </trkpt>
      <trkpt lat="48.46027" lon="-2.71686">
        <ele>112.4</ele>
        <time>2026-01-25T12:11:14Z</time>
      </trkpt>
      <trkpt lat="48.46033" lon="-2.71678">
        <ele>112.8</ele>
        <time>2026-01-25T12:11:15Z</time>
      </trkpt>
      <trkpt lat="48.46038" lon="-2.7167">
        <ele>112.8</ele>
        <time>2026-01-25T12:11:16Z</time>
      </trkpt>
      <trkpt lat="48.46044" lon="-2.71663">
        <ele>112.8</ele>
        <time>2026-01-25T12:11:17Z</time>
      </trkpt>
      <trkpt lat="48.4605" lon="-2.71654">
        <ele>112.8</ele>
        <time>2026-01-25T12:11:18Z</time>
      </trkpt>
      <trkpt lat="48.46057" lon="-2.71646">
        <ele>112.2</ele>
        <time>2026-01-25T12:11:19Z</time>
      </trkpt>
      <trkpt lat="48.46063" lon="-2.71637">
        <ele>112.2</ele>
        <time>2026-01-25T12:11:20Z</time>
      </trkpt>
      <trkpt lat="48.4607" lon="-2.71628">
        <ele>112.2</ele>
        <time>2026-01-25T12:11:21Z</time>
      </trkpt>
      <trkpt lat="48.46076" lon="-2.71618">
        <ele>112.2</ele>
        <time>2026-01-25T12:11:22Z</time>
      </trkpt>
      <trkpt lat="48.46082" lon="-2.71608">
        <ele>111.8</ele>
        <time>2026-01-25T12:11:23Z</time>
      </trkpt>
      <trkpt lat="48.46087" lon="-2.71599">
        <ele>111.8</ele>
        <time>2026-01-25T12:11:24Z</time>
      </trkpt>
      <trkpt lat="48.46093" lon="-2.71589">
        <ele>111.8</ele>
        <time>2026-01-25T12:11:25Z</time>
      </trkpt>
      <trkpt lat="48.46098" lon="-2.71578">
        <ele>112.4</ele>
        <time>2026-01-25T12:11:26Z</time>
      </trkpt>
      <trkpt lat="48.46104" lon="-2.71568">
        <ele>112.2</ele>
        <time>2026-01-25T12:11:27Z</time>
      </trkpt>
      <trkpt lat="48.4611" lon="-2.71558">
        <ele>112.2</ele>
        <time>2026-01-25T12:11:28Z</time>
      </trkpt>
      <trkpt lat="48.46116" lon="-2.71548">
        <ele>112.2</ele>
        <time>2026-01-25T12:11:29Z</time>
      </trkpt>
      <trkpt lat="48.46123" lon="-2.71538">
        <ele>111.8</ele>
        <time>2026-01-25T12:11:30Z</time>
      </trkpt>
      <trkpt lat="48.4613" lon="-2.71529">
        <ele>110.8</ele>
        <time>2026-01-25T12:11:31Z</time>
      </trkpt>
      <trkpt lat="48.46137" lon="-2.7152">
        <ele>110.8</ele>
        <time>2026-01-25T12:11:32Z</time>
      </trkpt>
      <trkpt lat="48.46145" lon="-2.71512">
        <ele>110.8</ele>
        <time>2026-01-25T12:11:33Z</time>
      </trkpt>
      <trkpt lat="48.46153" lon="-2.71504">
        <ele>110.4</ele>
        <time>2026-01-25T12:11:34Z</time>
      </trkpt>
      <trkpt lat="48.46161" lon="-2.71497">
        <ele>109.8</ele>
        <time>2026-01-25T12:11:35Z</time>
      </trkpt>
      <trkpt lat="48.4617" lon="-2.71489">
        <ele>109.8</ele>
        <time>2026-01-25T12:11:36Z</time>
      </trkpt>
      <trkpt lat="48.46178" lon="-2.71482">
        <ele>109.8</ele>
        <time>2026-01-25T12:11:37Z</time>
      </trkpt>
      <trkpt lat="48.46186" lon="-2.71474">
        <ele>109.2</ele>
        <time>2026-01-25T12:11:38Z</time>
      </trkpt>
      <trkpt lat="48.46195" lon="-2.71465">
        <ele>108.8</ele>
        <time>2026-01-25T12:11:39Z</time>
      </trkpt>
      <trkpt lat="48.46202" lon="-2.71456">
        <ele>108.8</ele>
        <time>2026-01-25T12:11:40Z</time>
      </trkpt>
      <trkpt lat="48.46209" lon="-2.71445">
        <ele>108.8</ele>
        <time>2026-01-25T12:11:41Z</time>
      </trkpt>
      <trkpt lat="48.46215" lon="-2.71433">
        <ele>107.8</ele>
        <time>2026-01-25T12:11:42Z</time>
      </trkpt>
      <trkpt lat="48.46222" lon="-2.71421">
        <ele>107.4</ele>
        <time>2026-01-25T12:11:43Z</time>
      </trkpt>
      <trkpt lat="48.46227" lon="-2.71408">
        <ele>107.4</ele>
        <time>2026-01-25T12:11:44Z</time>
      </trkpt>
      <trkpt lat="48.46233" lon="-2.71395">
        <ele>107.4</ele>
        <time>2026-01-25T12:11:45Z</time>
      </trkpt>
      <trkpt lat="48.46239" lon="-2.71382">
        <ele>106.6</ele>
        <time>2026-01-25T12:11:46Z</time>
      </trkpt>
      <trkpt lat="48.46245" lon="-2.71369">
        <ele>106.2</ele>
        <time>2026-01-25T12:11:47Z</time>
      </trkpt>
      <trkpt lat="48.46251" lon="-2.71356">
        <ele>106.2</ele>
        <time>2026-01-25T12:11:48Z</time>
      </trkpt>
      <trkpt lat="48.46257" lon="-2.71343">
        <ele>106.2</ele>
        <time>2026-01-25T12:11:49Z</time>
      </trkpt>
      <trkpt lat="48.46263" lon="-2.7133">
        <ele>106.2</ele>
        <time>2026-01-25T12:11:50Z</time>
      </trkpt>
      <trkpt lat="48.46269" lon="-2.71316">
        <ele>105.4</ele>
        <time>2026-01-25T12:11:51Z</time>
      </trkpt>
      <trkpt lat="48.46276" lon="-2.71304">
        <ele>105.4</ele>
        <time>2026-01-25T12:11:52Z</time>
      </trkpt>
      <trkpt lat="48.46283" lon="-2.71291">
        <ele>105.4</ele>
        <time>2026-01-25T12:11:53Z</time>
      </trkpt>
      <trkpt lat="48.46291" lon="-2.7128">
        <ele>104.4</ele>
        <time>2026-01-25T12:11:54Z</time>
      </trkpt>
      <trkpt lat="48.46299" lon="-2.71269">
        <ele>102.2</ele>
        <time>2026-01-25T12:11:55Z</time>
      </trkpt>
      <trkpt lat="48.46307" lon="-2.7126">
        <ele>102.2</ele>
        <time>2026-01-25T12:11:56Z</time>
      </trkpt>
      <trkpt lat="48.46317" lon="-2.71252">
        <ele>102.2</ele>
        <time>2026-01-25T12:11:57Z</time>
      </trkpt>
      <trkpt lat="48.46327" lon="-2.71246">
        <ele>102.2</ele>
        <time>2026-01-25T12:11:58Z</time>
      </trkpt>
      <trkpt lat="48.46336" lon="-2.71241">
        <ele>103.8</ele>
        <time>2026-01-25T12:11:59Z</time>
      </trkpt>
      <trkpt lat="48.46343" lon="-2.71235">
        <ele>103.8</ele>
        <time>2026-01-25T12:12:00Z</time>
      </trkpt>
      <trkpt lat="48.46349" lon="-2.71228">
        <ele>103.8</ele>
        <time>2026-01-25T12:12:01Z</time>
      </trkpt>
      <trkpt lat="48.46353" lon="-2.71221">
        <ele>104.8</ele>
        <time>2026-01-25T12:12:02Z</time>
      </trkpt>
      <trkpt lat="48.46355" lon="-2.71215">
        <ele>105.8</ele>
        <time>2026-01-25T12:12:03Z</time>
      </trkpt>
      <trkpt lat="48.46357" lon="-2.71208">
        <ele>105.8</ele>
        <time>2026-01-25T12:12:04Z</time>
      </trkpt>
      <trkpt lat="48.46358" lon="-2.712">
        <ele>105.8</ele>
        <time>2026-01-25T12:12:05Z</time>
      </trkpt>
      <trkpt lat="48.4636" lon="-2.71193">
        <ele>105.4</ele>
        <time>2026-01-25T12:12:06Z</time>
      </trkpt>
      <trkpt lat="48.46363" lon="-2.71185">
        <ele>103.8</ele>
        <time>2026-01-25T12:12:07Z</time>
      </trkpt>
      <trkpt lat="48.46366" lon="-2.71178">
        <ele>103.8</ele>
        <time>2026-01-25T12:12:08Z</time>
      </trkpt>
      <trkpt lat="48.4637" lon="-2.7117">
        <ele>103.8</ele>
        <time>2026-01-25T12:12:09Z</time>
      </trkpt>
      <trkpt lat="48.46374" lon="-2.71161">
        <ele>103.8</ele>
        <time>2026-01-25T12:12:10Z</time>
      </trkpt>
      <trkpt lat="48.46377" lon="-2.71151">
        <ele>103.4</ele>
        <time>2026-01-25T12:12:11Z</time>
      </trkpt>
      <trkpt lat="48.46381" lon="-2.71141">
        <ele>103.4</ele>
        <time>2026-01-25T12:12:12Z</time>
      </trkpt>
      <trkpt lat="48.46384" lon="-2.7113">
        <ele>103.4</ele>
        <time>2026-01-25T12:12:13Z</time>
      </trkpt>
      <trkpt lat="48.46388" lon="-2.71118">
        <ele>102.4</ele>
        <time>2026-01-25T12:12:14Z</time>
      </trkpt>
      <trkpt lat="48.46391" lon="-2.71106">
        <ele>100.2</ele>
        <time>2026-01-25T12:12:15Z</time>
      </trkpt>
      <trkpt lat="48.46395" lon="-2.71095">
        <ele>100.2</ele>
        <time>2026-01-25T12:12:16Z</time>
      </trkpt>
      <trkpt lat="48.464" lon="-2.71084">
        <ele>100.2</ele>
        <time>2026-01-25T12:12:17Z</time>
      </trkpt>
      <trkpt lat="48.46404" lon="-2.71072">
        <ele>100.2</ele>
        <time>2026-01-25T12:12:18Z</time>
      </trkpt>
      <trkpt lat="48.46408" lon="-2.71061">
        <ele>100.6</ele>
        <time>2026-01-25T12:12:19Z</time>
      </trkpt>
      <trkpt lat="48.46412" lon="-2.71049">
        <ele>100.6</ele>
        <time>2026-01-25T12:12:20Z</time>
      </trkpt>
      <trkpt lat="48.46416" lon="-2.71036">
        <ele>100.6</ele>
        <time>2026-01-25T12:12:21Z</time>
      </trkpt>
      <trkpt lat="48.46419" lon="-2.71024">
        <ele>100.6</ele>
        <time>2026-01-25T12:12:22Z</time>
      </trkpt>
      <trkpt lat="48.46422" lon="-2.71011">
        <ele>100</ele>
        <time>2026-01-25T12:12:23Z</time>
      </trkpt>
      <trkpt lat="48.46425" lon="-2.70998">
        <ele>100</ele>
        <time>2026-01-25T12:12:24Z</time>
      </trkpt>
      <trkpt lat="48.46427" lon="-2.70984">
        <ele>100</ele>
        <time>2026-01-25T12:12:25Z</time>
      </trkpt>
      <trkpt lat="48.46429" lon="-2.7097">
        <ele>99.8</ele>
        <time>2026-01-25T12:12:26Z</time>
      </trkpt>
      <trkpt lat="48.46432" lon="-2.70957">
        <ele>99.2</ele>
        <time>2026-01-25T12:12:27Z</time>
      </trkpt>
      <trkpt lat="48.46434" lon="-2.70943">
        <ele>99.2</ele>
        <time>2026-01-25T12:12:28Z</time>
      </trkpt>
      <trkpt lat="48.46436" lon="-2.70929">
        <ele>99.2</ele>
        <time>2026-01-25T12:12:29Z</time>
      </trkpt>
      <trkpt lat="48.46439" lon="-2.70914">
        <ele>98.2</ele>
        <time>2026-01-25T12:12:30Z</time>
      </trkpt>
      <trkpt lat="48.46441" lon="-2.709">
        <ele>95.8</ele>
        <time>2026-01-25T12:12:31Z</time>
      </trkpt>
      <trkpt lat="48.46443" lon="-2.70885">
        <ele>95.8</ele>
        <time>2026-01-25T12:12:32Z</time>
      </trkpt>
      <trkpt lat="48.46445" lon="-2.7087">
        <ele>95.8</ele>
        <time>2026-01-25T12:12:33Z</time>
      </trkpt>
      <trkpt lat="48.46448" lon="-2.70854">
        <ele>95.8</ele>
        <time>2026-01-25T12:12:34Z</time>
      </trkpt>
      <trkpt lat="48.4645" lon="-2.70839">
        <ele>94</ele>
        <time>2026-01-25T12:12:35Z</time>
      </trkpt>
      <trkpt lat="48.46453" lon="-2.70822">
        <ele>94</ele>
        <time>2026-01-25T12:12:36Z</time>
      </trkpt>
      <trkpt lat="48.46455" lon="-2.70806">
        <ele>94</ele>
        <time>2026-01-25T12:12:37Z</time>
      </trkpt>
      <trkpt lat="48.46458" lon="-2.70789">
        <ele>93</ele>
        <time>2026-01-25T12:12:38Z</time>
      </trkpt>
      <trkpt lat="48.4646" lon="-2.70772">
        <ele>92</ele>
        <time>2026-01-25T12:12:39Z</time>
      </trkpt>
      <trkpt lat="48.46463" lon="-2.70755">
        <ele>92</ele>
        <time>2026-01-25T12:12:40Z</time>
      </trkpt>
      <trkpt lat="48.46465" lon="-2.70738">
        <ele>92</ele>
        <time>2026-01-25T12:12:41Z</time>
      </trkpt>
      <trkpt lat="48.46467" lon="-2.7072">
        <ele>91</ele>
        <time>2026-01-25T12:12:42Z</time>
      </trkpt>
      <trkpt lat="48.46469" lon="-2.70703">
        <ele>88.6</ele>
        <time>2026-01-25T12:12:43Z</time>
      </trkpt>
      <trkpt lat="48.4647" lon="-2.70685">
        <ele>88.6</ele>
        <time>2026-01-25T12:12:44Z</time>
      </trkpt>
      <trkpt lat="48.46471" lon="-2.70667">
        <ele>88.6</ele>
        <time>2026-01-25T12:12:45Z</time>
      </trkpt>
      <trkpt lat="48.46471" lon="-2.70649">
        <ele>87.6</ele>
        <time>2026-01-25T12:12:46Z</time>
      </trkpt>
      <trkpt lat="48.46471" lon="-2.70631">
        <ele>86.8</ele>
        <time>2026-01-25T12:12:47Z</time>
      </trkpt>
      <trkpt lat="48.4647" lon="-2.70614">
        <ele>86.8</ele>
        <time>2026-01-25T12:12:48Z</time>
      </trkpt>
      <trkpt lat="48.46469" lon="-2.70597">
        <ele>86.8</ele>
        <time>2026-01-25T12:12:49Z</time>
      </trkpt>
      <trkpt lat="48.46468" lon="-2.70581">
        <ele>85.8</ele>
        <time>2026-01-25T12:12:50Z</time>
      </trkpt>
      <trkpt lat="48.46467" lon="-2.70565">
        <ele>86.8</ele>
        <time>2026-01-25T12:12:51Z</time>
      </trkpt>
      <trkpt lat="48.46465" lon="-2.70549">
        <ele>86.8</ele>
        <time>2026-01-25T12:12:52Z</time>
      </trkpt>
      <trkpt lat="48.46464" lon="-2.70534">
        <ele>86.8</ele>
        <time>2026-01-25T12:12:53Z</time>
      </trkpt>
      <trkpt lat="48.46463" lon="-2.70519">
        <ele>86.8</ele>
        <time>2026-01-25T12:12:54Z</time>
      </trkpt>
      <trkpt lat="48.46462" lon="-2.70504">
        <ele>87.6</ele>
        <time>2026-01-25T12:12:55Z</time>
      </trkpt>
      <trkpt lat="48.46461" lon="-2.7049">
        <ele>87.6</ele>
        <time>2026-01-25T12:12:56Z</time>
      </trkpt>
      <trkpt lat="48.46459" lon="-2.70476">
        <ele>87.6</ele>
        <time>2026-01-25T12:12:57Z</time>
      </trkpt>
      <trkpt lat="48.46458" lon="-2.70462">
        <ele>87.6</ele>
        <time>2026-01-25T12:12:58Z</time>
      </trkpt>
      <trkpt lat="48.46457" lon="-2.70449">
        <ele>89.8</ele>
        <time>2026-01-25T12:12:59Z</time>
      </trkpt>
      <trkpt lat="48.46455" lon="-2.70437">
        <ele>89.8</ele>
        <time>2026-01-25T12:13:00Z</time>
      </trkpt>
      <trkpt lat="48.46454" lon="-2.70425">
        <ele>89.8</ele>
        <time>2026-01-25T12:13:01Z</time>
      </trkpt>
      <trkpt lat="48.46453" lon="-2.70413">
        <ele>90.4</ele>
        <time>2026-01-25T12:13:02Z</time>
      </trkpt>
      <trkpt lat="48.46452" lon="-2.70401">
        <ele>91.2</ele>
        <time>2026-01-25T12:13:03Z</time>
      </trkpt>
      <trkpt lat="48.46451" lon="-2.70389">
        <ele>91.2</ele>
        <time>2026-01-25T12:13:04Z</time>
      </trkpt>
      <trkpt lat="48.4645" lon="-2.70378">
        <ele>91.2</ele>
        <time>2026-01-25T12:13:05Z</time>
      </trkpt>
      <trkpt lat="48.46449" lon="-2.70367">
        <ele>91.2</ele>
        <time>2026-01-25T12:13:06Z</time>
      </trkpt>
      <trkpt lat="48.46449" lon="-2.70356">
        <ele>92.8</ele>
        <time>2026-01-25T12:13:07Z</time>
      </trkpt>
      <trkpt lat="48.46448" lon="-2.70346">
        <ele>92.8</ele>
        <time>2026-01-25T12:13:08Z</time>
      </trkpt>
      <trkpt lat="48.46447" lon="-2.70335">
        <ele>92.8</ele>
        <time>2026-01-25T12:13:09Z</time>
      </trkpt>
      <trkpt lat="48.46447" lon="-2.70325">
        <ele>93</ele>
        <time>2026-01-25T12:13:10Z</time>
      </trkpt>
      <trkpt lat="48.46446" lon="-2.70315">
        <ele>92.6</ele>
        <time>2026-01-25T12:13:11Z</time>
      </trkpt>
      <trkpt lat="48.46445" lon="-2.70305">
        <ele>92.6</ele>
        <time>2026-01-25T12:13:12Z</time>
      </trkpt>
      <trkpt lat="48.46445" lon="-2.70295">
        <ele>92.6</ele>
        <time>2026-01-25T12:13:13Z</time>
      </trkpt>
      <trkpt lat="48.46445" lon="-2.70285">
        <ele>92.6</ele>
        <time>2026-01-25T12:13:14Z</time>
      </trkpt>
      <trkpt lat="48.46445" lon="-2.70274">
        <ele>92.8</ele>
        <time>2026-01-25T12:13:15Z</time>
      </trkpt>
      <trkpt lat="48.46445" lon="-2.70263">
        <ele>92.8</ele>
        <time>2026-01-25T12:13:16Z</time>
      </trkpt>
      <trkpt lat="48.46445" lon="-2.70253">
        <ele>92.8</ele>
        <time>2026-01-25T12:13:17Z</time>
      </trkpt>
      <trkpt lat="48.46446" lon="-2.70242">
        <ele>93.4</ele>
        <time>2026-01-25T12:13:18Z</time>
      </trkpt>
      <trkpt lat="48.46446" lon="-2.70231">
        <ele>93.4</ele>
        <time>2026-01-25T12:13:19Z</time>
      </trkpt>
      <trkpt lat="48.46447" lon="-2.7022">
        <ele>93.4</ele>
        <time>2026-01-25T12:13:20Z</time>
      </trkpt>
      <trkpt lat="48.46448" lon="-2.70209">
        <ele>93.4</ele>
        <time>2026-01-25T12:13:21Z</time>
      </trkpt>
      <trkpt lat="48.46449" lon="-2.70198">
        <ele>93.4</ele>
        <time>2026-01-25T12:13:22Z</time>
      </trkpt>
      <trkpt lat="48.4645" lon="-2.70187">
        <ele>92.4</ele>
        <time>2026-01-25T12:13:23Z</time>
      </trkpt>
      <trkpt lat="48.46452" lon="-2.70175">
        <ele>92.4</ele>
        <time>2026-01-25T12:13:24Z</time>
      </trkpt>
      <trkpt lat="48.46453" lon="-2.70164">
        <ele>92.4</ele>
        <time>2026-01-25T12:13:25Z</time>
      </trkpt>
      <trkpt lat="48.46455" lon="-2.70153">
        <ele>93</ele>
        <time>2026-01-25T12:13:26Z</time>
      </trkpt>
      <trkpt lat="48.46456" lon="-2.70143">
        <ele>92.8</ele>
        <time>2026-01-25T12:13:27Z</time>
      </trkpt>
      <trkpt lat="48.46457" lon="-2.70131">
        <ele>92.8</ele>
        <time>2026-01-25T12:13:28Z</time>
      </trkpt>
      <trkpt lat="48.46456" lon="-2.70121">
        <ele>92.8</ele>
        <time>2026-01-25T12:13:29Z</time>
      </trkpt>
      <trkpt lat="48.46455" lon="-2.70112">
        <ele>92.8</ele>
        <time>2026-01-25T12:13:30Z</time>
      </trkpt>
      <trkpt lat="48.46456" lon="-2.70104">
        <ele>94</ele>
        <time>2026-01-25T12:13:31Z</time>
      </trkpt>
      <trkpt lat="48.46458" lon="-2.70098">
        <ele>94</ele>
        <time>2026-01-25T12:13:32Z</time>
      </trkpt>
      <trkpt lat="48.46461" lon="-2.70093">
        <ele>94</ele>
        <time>2026-01-25T12:13:33Z</time>
      </trkpt>
      <trkpt lat="48.46465" lon="-2.7009">
        <ele>93.4</ele>
        <time>2026-01-25T12:13:34Z</time>
      </trkpt>
      <trkpt lat="48.46468" lon="-2.70084">
        <ele>93.4</ele>
        <time>2026-01-25T12:13:35Z</time>
      </trkpt>
      <trkpt lat="48.46469" lon="-2.70076">
        <ele>93.4</ele>
        <time>2026-01-25T12:13:36Z</time>
      </trkpt>
      <trkpt lat="48.46472" lon="-2.70068">
        <ele>93.4</ele>
        <time>2026-01-25T12:13:37Z</time>
      </trkpt>
      <trkpt lat="48.46474" lon="-2.70059">
        <ele>93.4</ele>
        <time>2026-01-25T12:13:38Z</time>
      </trkpt>
      <trkpt lat="48.46476" lon="-2.70049">
        <ele>92.6</ele>
        <time>2026-01-25T12:13:39Z</time>
      </trkpt>
      <trkpt lat="48.46479" lon="-2.7004">
        <ele>92.6</ele>
        <time>2026-01-25T12:13:40Z</time>
      </trkpt>
      <trkpt lat="48.46482" lon="-2.70029">
        <ele>92.6</ele>
        <time>2026-01-25T12:13:41Z</time>
      </trkpt>
      <trkpt lat="48.46486" lon="-2.70019">
        <ele>91.6</ele>
        <time>2026-01-25T12:13:42Z</time>
      </trkpt>
      <trkpt lat="48.46489" lon="-2.70009">
        <ele>90</ele>
        <time>2026-01-25T12:13:43Z</time>
      </trkpt>
      <trkpt lat="48.46493" lon="-2.69998">
        <ele>90</ele>
        <time>2026-01-25T12:13:44Z</time>
      </trkpt>
      <trkpt lat="48.46498" lon="-2.69988">
        <ele>90</ele>
        <time>2026-01-25T12:13:45Z</time>
      </trkpt>
      <trkpt lat="48.46503" lon="-2.69978">
        <ele>89</ele>
        <time>2026-01-25T12:13:46Z</time>
      </trkpt>
      <trkpt lat="48.46507" lon="-2.69967">
        <ele>89.6</ele>
        <time>2026-01-25T12:13:47Z</time>
      </trkpt>
      <trkpt lat="48.46512" lon="-2.69958">
        <ele>89.6</ele>
        <time>2026-01-25T12:13:48Z</time>
      </trkpt>
      <trkpt lat="48.46519" lon="-2.6995">
        <ele>89.6</ele>
        <time>2026-01-25T12:13:49Z</time>
      </trkpt>
      <trkpt lat="48.46526" lon="-2.69943">
        <ele>88.6</ele>
        <time>2026-01-25T12:13:50Z</time>
      </trkpt>
      <trkpt lat="48.46533" lon="-2.69935">
        <ele>87.6</ele>
        <time>2026-01-25T12:13:51Z</time>
      </trkpt>
      <trkpt lat="48.4654" lon="-2.69927">
        <ele>87.6</ele>
        <time>2026-01-25T12:13:52Z</time>
      </trkpt>
      <trkpt lat="48.46547" lon="-2.69919">
        <ele>87.6</ele>
        <time>2026-01-25T12:13:53Z</time>
      </trkpt>
      <trkpt lat="48.46555" lon="-2.69911">
        <ele>87.4</ele>
        <time>2026-01-25T12:13:54Z</time>
      </trkpt>
      <trkpt lat="48.46563" lon="-2.69904">
        <ele>87.2</ele>
        <time>2026-01-25T12:13:55Z</time>
      </trkpt>
      <trkpt lat="48.4657" lon="-2.69895">
        <ele>87.2</ele>
        <time>2026-01-25T12:13:56Z</time>
      </trkpt>
      <trkpt lat="48.46578" lon="-2.69886">
        <ele>87.2</ele>
        <time>2026-01-25T12:13:57Z</time>
      </trkpt>
      <trkpt lat="48.46586" lon="-2.69879">
        <ele>86.4</ele>
        <time>2026-01-25T12:13:58Z</time>
      </trkpt>
      <trkpt lat="48.46594" lon="-2.69871">
        <ele>85.8</ele>
        <time>2026-01-25T12:13:59Z</time>
      </trkpt>
      <trkpt lat="48.46602" lon="-2.69864">
        <ele>85.8</ele>
        <time>2026-01-25T12:14:00Z</time>
      </trkpt>
      <trkpt lat="48.46611" lon="-2.69857">
        <ele>85.8</ele>
        <time>2026-01-25T12:14:01Z</time>
      </trkpt>
      <trkpt lat="48.46619" lon="-2.69849">
        <ele>85.8</ele>
        <time>2026-01-25T12:14:02Z</time>
      </trkpt>
      <trkpt lat="48.46628" lon="-2.69842">
        <ele>85</ele>
        <time>2026-01-25T12:14:03Z</time>
      </trkpt>
      <trkpt lat="48.46636" lon="-2.69834">
        <ele>85</ele>
        <time>2026-01-25T12:14:04Z</time>
      </trkpt>
      <trkpt lat="48.46645" lon="-2.69827">
        <ele>85</ele>
        <time>2026-01-25T12:14:05Z</time>
      </trkpt>
      <trkpt lat="48.46653" lon="-2.6982">
        <ele>85</ele>
        <time>2026-01-25T12:14:06Z</time>
      </trkpt>
      <trkpt lat="48.46661" lon="-2.69812">
        <ele>84.4</ele>
        <time>2026-01-25T12:14:07Z</time>
      </trkpt>
      <trkpt lat="48.4667" lon="-2.69805">
        <ele>84.4</ele>
        <time>2026-01-25T12:14:08Z</time>
      </trkpt>
      <trkpt lat="48.46678" lon="-2.69798">
        <ele>84.4</ele>
        <time>2026-01-25T12:14:09Z</time>
      </trkpt>
      <trkpt lat="48.46686" lon="-2.6979">
        <ele>85.2</ele>
        <time>2026-01-25T12:14:10Z</time>
      </trkpt>
      <trkpt lat="48.46694" lon="-2.69783">
        <ele>85</ele>
        <time>2026-01-25T12:14:11Z</time>
      </trkpt>
      <trkpt lat="48.46702" lon="-2.69776">
        <ele>85</ele>
        <time>2026-01-25T12:14:12Z</time>
      </trkpt>
      <trkpt lat="48.4671" lon="-2.69769">
        <ele>85</ele>
        <time>2026-01-25T12:14:13Z</time>
      </trkpt>
      <trkpt lat="48.46718" lon="-2.69762">
        <ele>86</ele>
        <time>2026-01-25T12:14:14Z</time>
      </trkpt>
      <trkpt lat="48.46725" lon="-2.69755">
        <ele>87.4</ele>
        <time>2026-01-25T12:14:15Z</time>
      </trkpt>
      <trkpt lat="48.46732" lon="-2.69749">
        <ele>87.4</ele>
        <time>2026-01-25T12:14:16Z</time>
      </trkpt>
      <trkpt lat="48.4674" lon="-2.69743">
        <ele>87.4</ele>
        <time>2026-01-25T12:14:17Z</time>
      </trkpt>
      <trkpt lat="48.46747" lon="-2.69739">
        <ele>87.4</ele>
        <time>2026-01-25T12:14:18Z</time>
      </trkpt>
      <trkpt lat="48.46754" lon="-2.69733">
        <ele>88.2</ele>
        <time>2026-01-25T12:14:19Z</time>
      </trkpt>
      <trkpt lat="48.46761" lon="-2.69727">
        <ele>88.2</ele>
        <time>2026-01-25T12:14:20Z</time>
      </trkpt>
      <trkpt lat="48.46768" lon="-2.69721">
        <ele>88.2</ele>
        <time>2026-01-25T12:14:21Z</time>
      </trkpt>
      <trkpt lat="48.46775" lon="-2.69715">
        <ele>89.2</ele>
        <time>2026-01-25T12:14:22Z</time>
      </trkpt>
      <trkpt lat="48.4678" lon="-2.69708">
        <ele>89.2</ele>
        <time>2026-01-25T12:14:23Z</time>
      </trkpt>
      <trkpt lat="48.46786" lon="-2.697">
        <ele>89.2</ele>
        <time>2026-01-25T12:14:24Z</time>
      </trkpt>
      <trkpt lat="48.46793" lon="-2.69695">
        <ele>89.2</ele>
        <time>2026-01-25T12:14:25Z</time>
      </trkpt>
      <trkpt lat="48.468" lon="-2.69689">
        <ele>89.2</ele>
        <time>2026-01-25T12:14:26Z</time>
      </trkpt>
      <trkpt lat="48.46807" lon="-2.69683">
        <ele>89</ele>
        <time>2026-01-25T12:14:27Z</time>
      </trkpt>
      <trkpt lat="48.46814" lon="-2.69677">
        <ele>89</ele>
        <time>2026-01-25T12:14:28Z</time>
      </trkpt>
      <trkpt lat="48.4682" lon="-2.69671">
        <ele>89</ele>
        <time>2026-01-25T12:14:29Z</time>
      </trkpt>
      <trkpt lat="48.46827" lon="-2.69665">
        <ele>89</ele>
        <time>2026-01-25T12:14:30Z</time>
      </trkpt>
      <trkpt lat="48.46833" lon="-2.69659">
        <ele>89.6</ele>
        <time>2026-01-25T12:14:31Z</time>
      </trkpt>
      <trkpt lat="48.46839" lon="-2.69652">
        <ele>89.6</ele>
        <time>2026-01-25T12:14:32Z</time>
      </trkpt>
      <trkpt lat="48.46846" lon="-2.69646">
        <ele>89.6</ele>
        <time>2026-01-25T12:14:33Z</time>
      </trkpt>
      <trkpt lat="48.46852" lon="-2.69639">
        <ele>89.6</ele>
        <time>2026-01-25T12:14:34Z</time>
      </trkpt>
      <trkpt lat="48.46858" lon="-2.69632">
        <ele>90.4</ele>
        <time>2026-01-25T12:14:35Z</time>
      </trkpt>
      <trkpt lat="48.46864" lon="-2.69625">
        <ele>90.4</ele>
        <time>2026-01-25T12:14:36Z</time>
      </trkpt>
      <trkpt lat="48.46869" lon="-2.69618">
        <ele>90.4</ele>
        <time>2026-01-25T12:14:37Z</time>
      </trkpt>
      <trkpt lat="48.46875" lon="-2.69611">
        <ele>90.4</ele>
        <time>2026-01-25T12:14:38Z</time>
      </trkpt>
      <trkpt lat="48.46881" lon="-2.69603">
        <ele>89.8</ele>
        <time>2026-01-25T12:14:39Z</time>
      </trkpt>
      <trkpt lat="48.46886" lon="-2.69595">
        <ele>89.8</ele>
        <time>2026-01-25T12:14:40Z</time>
      </trkpt>
      <trkpt lat="48.46892" lon="-2.69587">
        <ele>89.8</ele>
        <time>2026-01-25T12:14:41Z</time>
      </trkpt>
      <trkpt lat="48.46897" lon="-2.69579">
        <ele>90.4</ele>
        <time>2026-01-25T12:14:42Z</time>
      </trkpt>
      <trkpt lat="48.46903" lon="-2.6957">
        <ele>90.4</ele>
        <time>2026-01-25T12:14:43Z</time>
      </trkpt>
      <trkpt lat="48.46908" lon="-2.69562">
        <ele>90.4</ele>
        <time>2026-01-25T12:14:44Z</time>
      </trkpt>
      <trkpt lat="48.46914" lon="-2.69554">
        <ele>90.4</ele>
        <time>2026-01-25T12:14:45Z</time>
      </trkpt>
      <trkpt lat="48.4692" lon="-2.69545">
        <ele>90.4</ele>
        <time>2026-01-25T12:14:46Z</time>
      </trkpt>
      <trkpt lat="48.46925" lon="-2.69537">
        <ele>91</ele>
        <time>2026-01-25T12:14:47Z</time>
      </trkpt>
      <trkpt lat="48.46931" lon="-2.69528">
        <ele>91</ele>
        <time>2026-01-25T12:14:48Z</time>
      </trkpt>
      <trkpt lat="48.46937" lon="-2.6952">
        <ele>91</ele>
        <time>2026-01-25T12:14:49Z</time>
      </trkpt>
      <trkpt lat="48.46942" lon="-2.69511">
        <ele>90.6</ele>
        <time>2026-01-25T12:14:50Z</time>
      </trkpt>
      <trkpt lat="48.46947" lon="-2.69502">
        <ele>90.4</ele>
        <time>2026-01-25T12:14:51Z</time>
      </trkpt>
      <trkpt lat="48.46953" lon="-2.69494">
        <ele>90.4</ele>
        <time>2026-01-25T12:14:52Z</time>
      </trkpt>
      <trkpt lat="48.46959" lon="-2.69485">
        <ele>90.4</ele>
        <time>2026-01-25T12:14:53Z</time>
      </trkpt>
      <trkpt lat="48.46965" lon="-2.69477">
        <ele>90.4</ele>
        <time>2026-01-25T12:14:54Z</time>
      </trkpt>
      <trkpt lat="48.4697" lon="-2.69469">
        <ele>91.2</ele>
        <time>2026-01-25T12:14:55Z</time>
      </trkpt>
      <trkpt lat="48.46976" lon="-2.6946">
        <ele>91.2</ele>
        <time>2026-01-25T12:14:56Z</time>
      </trkpt>
      <trkpt lat="48.46981" lon="-2.69452">
        <ele>91.2</ele>
        <time>2026-01-25T12:14:57Z</time>
      </trkpt>
      <trkpt lat="48.46987" lon="-2.69443">
        <ele>91.2</ele>
        <time>2026-01-25T12:14:58Z</time>
      </trkpt>
      <trkpt lat="48.46992" lon="-2.69435">
        <ele>91.2</ele>
        <time>2026-01-25T12:14:59Z</time>
      </trkpt>
      <trkpt lat="48.46997" lon="-2.69427">
        <ele>91.2</ele>
        <time>2026-01-25T12:15:00Z</time>
      </trkpt>
      <trkpt lat="48.47002" lon="-2.69419">
        <ele>91.2</ele>
        <time>2026-01-25T12:15:01Z</time>
      </trkpt>
      <trkpt lat="48.47007" lon="-2.69411">
        <ele>91.2</ele>
        <time>2026-01-25T12:15:02Z</time>
      </trkpt>
      <trkpt lat="48.47012" lon="-2.69402">
        <ele>92</ele>
        <time>2026-01-25T12:15:03Z</time>
      </trkpt>
      <trkpt lat="48.47017" lon="-2.69395">
        <ele>92</ele>
        <time>2026-01-25T12:15:04Z</time>
      </trkpt>
      <trkpt lat="48.47023" lon="-2.69389">
        <ele>92</ele>
        <time>2026-01-25T12:15:05Z</time>
      </trkpt>
      <trkpt lat="48.47029" lon="-2.69382">
        <ele>91.2</ele>
        <time>2026-01-25T12:15:06Z</time>
      </trkpt>
      <trkpt lat="48.47035" lon="-2.69375">
        <ele>91.8</ele>
        <time>2026-01-25T12:15:07Z</time>
      </trkpt>
      <trkpt lat="48.4704" lon="-2.69368">
        <ele>91.8</ele>
        <time>2026-01-25T12:15:08Z</time>
      </trkpt>
      <trkpt lat="48.47045" lon="-2.6936">
        <ele>91.8</ele>
        <time>2026-01-25T12:15:09Z</time>
      </trkpt>
      <trkpt lat="48.4705" lon="-2.69352">
        <ele>92.2</ele>
        <time>2026-01-25T12:15:10Z</time>
      </trkpt>
      <trkpt lat="48.47055" lon="-2.69345">
        <ele>92.6</ele>
        <time>2026-01-25T12:15:11Z</time>
      </trkpt>
      <trkpt lat="48.4706" lon="-2.69337">
        <ele>92.6</ele>
        <time>2026-01-25T12:15:12Z</time>
      </trkpt>
      <trkpt lat="48.47065" lon="-2.69329">
        <ele>92.6</ele>
        <time>2026-01-25T12:15:13Z</time>
      </trkpt>
      <trkpt lat="48.4707" lon="-2.69321">
        <ele>92.6</ele>
        <time>2026-01-25T12:15:14Z</time>
      </trkpt>
      <trkpt lat="48.47075" lon="-2.69314">
        <ele>92.6</ele>
        <time>2026-01-25T12:15:15Z</time>
      </trkpt>
      <trkpt lat="48.4708" lon="-2.69306">
        <ele>92.6</ele>
        <time>2026-01-25T12:15:16Z</time>
      </trkpt>
      <trkpt lat="48.47085" lon="-2.69298">
        <ele>92.6</ele>
        <time>2026-01-25T12:15:17Z</time>
      </trkpt>
      <trkpt lat="48.4709" lon="-2.6929">
        <ele>93.6</ele>
        <time>2026-01-25T12:15:18Z</time>
      </trkpt>
      <trkpt lat="48.47095" lon="-2.69283">
        <ele>93.4</ele>
        <time>2026-01-25T12:15:19Z</time>
      </trkpt>
      <trkpt lat="48.471" lon="-2.69276">
        <ele>93.4</ele>
        <time>2026-01-25T12:15:20Z</time>
      </trkpt>
      <trkpt lat="48.47105" lon="-2.69269">
        <ele>93.4</ele>
        <time>2026-01-25T12:15:21Z</time>
      </trkpt>
      <trkpt lat="48.4711" lon="-2.69262">
        <ele>93.4</ele>
        <time>2026-01-25T12:15:22Z</time>
      </trkpt>
      <trkpt lat="48.47114" lon="-2.69255">
        <ele>94.2</ele>
        <time>2026-01-25T12:15:23Z</time>
      </trkpt>
      <trkpt lat="48.47119" lon="-2.69248">
        <ele>94.2</ele>
        <time>2026-01-25T12:15:24Z</time>
      </trkpt>
      <trkpt lat="48.47124" lon="-2.69241">
        <ele>94.2</ele>
        <time>2026-01-25T12:15:25Z</time>
      </trkpt>
      <trkpt lat="48.47129" lon="-2.69233">
        <ele>94.2</ele>
        <time>2026-01-25T12:15:26Z</time>
      </trkpt>
      <trkpt lat="48.47134" lon="-2.69226">
        <ele>93.6</ele>
        <time>2026-01-25T12:15:27Z</time>
      </trkpt>
      <trkpt lat="48.4714" lon="-2.69218">
        <ele>93.6</ele>
        <time>2026-01-25T12:15:28Z</time>
      </trkpt>
      <trkpt lat="48.47145" lon="-2.6921">
        <ele>93.6</ele>
        <time>2026-01-25T12:15:29Z</time>
      </trkpt>
      <trkpt lat="48.4715" lon="-2.69202">
        <ele>92.6</ele>
        <time>2026-01-25T12:15:30Z</time>
      </trkpt>
      <trkpt lat="48.47155" lon="-2.69194">
        <ele>92.8</ele>
        <time>2026-01-25T12:15:31Z</time>
      </trkpt>
      <trkpt lat="48.47161" lon="-2.69186">
        <ele>92.8</ele>
        <time>2026-01-25T12:15:32Z</time>
      </trkpt>
      <trkpt lat="48.47167" lon="-2.69178">
        <ele>92.8</ele>
        <time>2026-01-25T12:15:33Z</time>
      </trkpt>
      <trkpt lat="48.47173" lon="-2.6917">
        <ele>92</ele>
        <time>2026-01-25T12:15:34Z</time>
      </trkpt>
      <trkpt lat="48.47179" lon="-2.69161">
        <ele>91</ele>
        <time>2026-01-25T12:15:35Z</time>
      </trkpt>
      <trkpt lat="48.47185" lon="-2.69153">
        <ele>91</ele>
        <time>2026-01-25T12:15:36Z</time>
      </trkpt>
      <trkpt lat="48.47191" lon="-2.69145">
        <ele>91</ele>
        <time>2026-01-25T12:15:37Z</time>
      </trkpt>
      <trkpt lat="48.47198" lon="-2.69137">
        <ele>91</ele>
        <time>2026-01-25T12:15:38Z</time>
      </trkpt>
      <trkpt lat="48.47204" lon="-2.69128">
        <ele>91</ele>
        <time>2026-01-25T12:15:39Z</time>
      </trkpt>
      <trkpt lat="48.47211" lon="-2.69119">
        <ele>91</ele>
        <time>2026-01-25T12:15:40Z</time>
      </trkpt>
      <trkpt lat="48.47217" lon="-2.69111">
        <ele>91</ele>
        <time>2026-01-25T12:15:41Z</time>
      </trkpt>
      <trkpt lat="48.47224" lon="-2.69102">
        <ele>90</ele>
        <time>2026-01-25T12:15:42Z</time>
      </trkpt>
      <trkpt lat="48.47231" lon="-2.69093">
        <ele>89</ele>
        <time>2026-01-25T12:15:43Z</time>
      </trkpt>
      <trkpt lat="48.47237" lon="-2.69084">
        <ele>89</ele>
        <time>2026-01-25T12:15:44Z</time>
      </trkpt>
      <trkpt lat="48.47244" lon="-2.69074">
        <ele>89</ele>
        <time>2026-01-25T12:15:45Z</time>
      </trkpt>
      <trkpt lat="48.47251" lon="-2.69065">
        <ele>88.2</ele>
        <time>2026-01-25T12:15:46Z</time>
      </trkpt>
      <trkpt lat="48.47258" lon="-2.69056">
        <ele>88.6</ele>
        <time>2026-01-25T12:15:47Z</time>
      </trkpt>
      <trkpt lat="48.47265" lon="-2.69047">
        <ele>88.6</ele>
        <time>2026-01-25T12:15:48Z</time>
      </trkpt>
      <trkpt lat="48.47272" lon="-2.69039">
        <ele>88.6</ele>
        <time>2026-01-25T12:15:49Z</time>
      </trkpt>
      <trkpt lat="48.47279" lon="-2.69029">
        <ele>87.6</ele>
        <time>2026-01-25T12:15:50Z</time>
      </trkpt>
      <trkpt lat="48.47286" lon="-2.6902">
        <ele>86.8</ele>
        <time>2026-01-25T12:15:51Z</time>
      </trkpt>
      <trkpt lat="48.47293" lon="-2.69011">
        <ele>86.8</ele>
        <time>2026-01-25T12:15:52Z</time>
      </trkpt>
      <trkpt lat="48.473" lon="-2.69003">
        <ele>86.8</ele>
        <time>2026-01-25T12:15:53Z</time>
      </trkpt>
      <trkpt lat="48.47306" lon="-2.68994">
        <ele>86.8</ele>
        <time>2026-01-25T12:15:54Z</time>
      </trkpt>
      <trkpt lat="48.47313" lon="-2.68985">
        <ele>87.4</ele>
        <time>2026-01-25T12:15:55Z</time>
      </trkpt>
      <trkpt lat="48.4732" lon="-2.68976">
        <ele>87.4</ele>
        <time>2026-01-25T12:15:56Z</time>
      </trkpt>
      <trkpt lat="48.47327" lon="-2.68966">
        <ele>87.4</ele>
        <time>2026-01-25T12:15:57Z</time>
      </trkpt>
      <trkpt lat="48.47334" lon="-2.68957">
        <ele>86.4</ele>
        <time>2026-01-25T12:15:58Z</time>
      </trkpt>
      <trkpt lat="48.4734" lon="-2.68948">
        <ele>86</ele>
        <time>2026-01-25T12:15:59Z</time>
      </trkpt>
      <trkpt lat="48.47347" lon="-2.68938">
        <ele>86</ele>
        <time>2026-01-25T12:16:00Z</time>
      </trkpt>
      <trkpt lat="48.47354" lon="-2.68929">
        <ele>86</ele>
        <time>2026-01-25T12:16:01Z</time>
      </trkpt>
      <trkpt lat="48.47361" lon="-2.6892">
        <ele>86</ele>
        <time>2026-01-25T12:16:02Z</time>
      </trkpt>
      <trkpt lat="48.47368" lon="-2.68911">
        <ele>83.2</ele>
        <time>2026-01-25T12:16:03Z</time>
      </trkpt>
      <trkpt lat="48.47375" lon="-2.68902">
        <ele>83.2</ele>
        <time>2026-01-25T12:16:04Z</time>
      </trkpt>
      <trkpt lat="48.47382" lon="-2.68893">
        <ele>83.2</ele>
        <time>2026-01-25T12:16:05Z</time>
      </trkpt>
      <trkpt lat="48.4739" lon="-2.68884">
        <ele>82.2</ele>
        <time>2026-01-25T12:16:06Z</time>
      </trkpt>
      <trkpt lat="48.47398" lon="-2.68875">
        <ele>80.8</ele>
        <time>2026-01-25T12:16:07Z</time>
      </trkpt>
      <trkpt lat="48.47406" lon="-2.68866">
        <ele>80.8</ele>
        <time>2026-01-25T12:16:08Z</time>
      </trkpt>
      <trkpt lat="48.47414" lon="-2.68858">
        <ele>80.8</ele>
        <time>2026-01-25T12:16:09Z</time>
      </trkpt>
      <trkpt lat="48.47423" lon="-2.6885">
        <ele>80.8</ele>
        <time>2026-01-25T12:16:10Z</time>
      </trkpt>
      <trkpt lat="48.47432" lon="-2.68844">
        <ele>78.6</ele>
        <time>2026-01-25T12:16:11Z</time>
      </trkpt>
      <trkpt lat="48.47442" lon="-2.68838">
        <ele>78.6</ele>
        <time>2026-01-25T12:16:12Z</time>
      </trkpt>
      <trkpt lat="48.47452" lon="-2.68833">
        <ele>78.6</ele>
        <time>2026-01-25T12:16:13Z</time>
      </trkpt>
      <trkpt lat="48.47462" lon="-2.68829">
        <ele>77.6</ele>
        <time>2026-01-25T12:16:14Z</time>
      </trkpt>
      <trkpt lat="48.47472" lon="-2.68825">
        <ele>75.6</ele>
        <time>2026-01-25T12:16:15Z</time>
      </trkpt>
      <trkpt lat="48.47481" lon="-2.6882">
        <ele>75.6</ele>
        <time>2026-01-25T12:16:16Z</time>
      </trkpt>
      <trkpt lat="48.47491" lon="-2.68815">
        <ele>75.6</ele>
        <time>2026-01-25T12:16:17Z</time>
      </trkpt>
      <trkpt lat="48.47501" lon="-2.68811">
        <ele>75.6</ele>
        <time>2026-01-25T12:16:18Z</time>
      </trkpt>
      <trkpt lat="48.47511" lon="-2.68808">
        <ele>74.6</ele>
        <time>2026-01-25T12:16:19Z</time>
      </trkpt>
      <trkpt lat="48.47521" lon="-2.68806">
        <ele>74.6</ele>
        <time>2026-01-25T12:16:20Z</time>
      </trkpt>
      <trkpt lat="48.47531" lon="-2.68803">
        <ele>74.6</ele>
        <time>2026-01-25T12:16:21Z</time>
      </trkpt>
      <trkpt lat="48.47542" lon="-2.68801">
        <ele>74.6</ele>
        <time>2026-01-25T12:16:22Z</time>
      </trkpt>
      <trkpt lat="48.47552" lon="-2.68799">
        <ele>74.4</ele>
        <time>2026-01-25T12:16:23Z</time>
      </trkpt>
      <trkpt lat="48.47562" lon="-2.68796">
        <ele>74.4</ele>
        <time>2026-01-25T12:16:24Z</time>
      </trkpt>
      <trkpt lat="48.47573" lon="-2.68794">
        <ele>74.4</ele>
        <time>2026-01-25T12:16:25Z</time>
      </trkpt>
      <trkpt lat="48.47583" lon="-2.68792">
        <ele>73.6</ele>
        <time>2026-01-25T12:16:26Z</time>
      </trkpt>
      <trkpt lat="48.47594" lon="-2.68789">
        <ele>73</ele>
        <time>2026-01-25T12:16:27Z</time>
      </trkpt>
      <trkpt lat="48.47604" lon="-2.68787">
        <ele>73</ele>
        <time>2026-01-25T12:16:28Z</time>
      </trkpt>
      <trkpt lat="48.47614" lon="-2.68784">
        <ele>73</ele>
        <time>2026-01-25T12:16:29Z</time>
      </trkpt>
      <trkpt lat="48.47625" lon="-2.6878">
        <ele>72.2</ele>
        <time>2026-01-25T12:16:30Z</time>
      </trkpt>
      <trkpt lat="48.47635" lon="-2.68777">
        <ele>72.4</ele>
        <time>2026-01-25T12:16:31Z</time>
      </trkpt>
      <trkpt lat="48.47645" lon="-2.68773">
        <ele>72.4</ele>
        <time>2026-01-25T12:16:32Z</time>
      </trkpt>
      <trkpt lat="48.47655" lon="-2.6877">
        <ele>72.4</ele>
        <time>2026-01-25T12:16:33Z</time>
      </trkpt>
      <trkpt lat="48.47666" lon="-2.68766">
        <ele>71.4</ele>
        <time>2026-01-25T12:16:34Z</time>
      </trkpt>
      <trkpt lat="48.47676" lon="-2.68762">
        <ele>70.8</ele>
        <time>2026-01-25T12:16:35Z</time>
      </trkpt>
      <trkpt lat="48.47686" lon="-2.68759">
        <ele>70.8</ele>
        <time>2026-01-25T12:16:36Z</time>
      </trkpt>
      <trkpt lat="48.47697" lon="-2.68755">
        <ele>70.8</ele>
        <time>2026-01-25T12:16:37Z</time>
      </trkpt>
      <trkpt lat="48.47707" lon="-2.68751">
        <ele>70.8</ele>
        <time>2026-01-25T12:16:38Z</time>
      </trkpt>
      <trkpt lat="48.47718" lon="-2.68748">
        <ele>69.6</ele>
        <time>2026-01-25T12:16:39Z</time>
      </trkpt>
      <trkpt lat="48.47728" lon="-2.68745">
        <ele>69.6</ele>
        <time>2026-01-25T12:16:40Z</time>
      </trkpt>
      <trkpt lat="48.47739" lon="-2.68742">
        <ele>69.6</ele>
        <time>2026-01-25T12:16:41Z</time>
      </trkpt>
      <trkpt lat="48.47749" lon="-2.68738">
        <ele>69.6</ele>
        <time>2026-01-25T12:16:42Z</time>
      </trkpt>
      <trkpt lat="48.4776" lon="-2.68734">
        <ele>68.2</ele>
        <time>2026-01-25T12:16:43Z</time>
      </trkpt>
      <trkpt lat="48.4777" lon="-2.68731">
        <ele>68.2</ele>
        <time>2026-01-25T12:16:44Z</time>
      </trkpt>
      <trkpt lat="48.4778" lon="-2.68728">
        <ele>68.2</ele>
        <time>2026-01-25T12:16:45Z</time>
      </trkpt>
      <trkpt lat="48.47791" lon="-2.68724">
        <ele>68.2</ele>
        <time>2026-01-25T12:16:46Z</time>
      </trkpt>
      <trkpt lat="48.47801" lon="-2.68721">
        <ele>67.2</ele>
        <time>2026-01-25T12:16:47Z</time>
      </trkpt>
      <trkpt lat="48.47811" lon="-2.68718">
        <ele>67.2</ele>
        <time>2026-01-25T12:16:48Z</time>
      </trkpt>
      <trkpt lat="48.47821" lon="-2.68716">
        <ele>67.2</ele>
        <time>2026-01-25T12:16:49Z</time>
      </trkpt>
      <trkpt lat="48.47831" lon="-2.68713">
        <ele>67.2</ele>
        <time>2026-01-25T12:16:50Z</time>
      </trkpt>
      <trkpt lat="48.4784" lon="-2.6871">
        <ele>65.8</ele>
        <time>2026-01-25T12:16:51Z</time>
      </trkpt>
      <trkpt lat="48.4785" lon="-2.68705">
        <ele>65.8</ele>
        <time>2026-01-25T12:16:52Z</time>
      </trkpt>
      <trkpt lat="48.4786" lon="-2.68702">
        <ele>65.8</ele>
        <time>2026-01-25T12:16:53Z</time>
      </trkpt>
      <trkpt lat="48.47869" lon="-2.68699">
        <ele>65.8</ele>
        <time>2026-01-25T12:16:54Z</time>
      </trkpt>
      <trkpt lat="48.47879" lon="-2.68695">
        <ele>65.2</ele>
        <time>2026-01-25T12:16:55Z</time>
      </trkpt>
      <trkpt lat="48.47889" lon="-2.68692">
        <ele>65.2</ele>
        <time>2026-01-25T12:16:56Z</time>
      </trkpt>
      <trkpt lat="48.47898" lon="-2.68688">
        <ele>65.2</ele>
        <time>2026-01-25T12:16:57Z</time>
      </trkpt>
      <trkpt lat="48.47908" lon="-2.68684">
        <ele>64.8</ele>
        <time>2026-01-25T12:16:58Z</time>
      </trkpt>
      <trkpt lat="48.47917" lon="-2.6868">
        <ele>63.6</ele>
        <time>2026-01-25T12:16:59Z</time>
      </trkpt>
      <trkpt lat="48.47927" lon="-2.68675">
        <ele>63.6</ele>
        <time>2026-01-25T12:17:00Z</time>
      </trkpt>
      <trkpt lat="48.47936" lon="-2.6867">
        <ele>63.6</ele>
        <time>2026-01-25T12:17:01Z</time>
      </trkpt>
      <trkpt lat="48.47945" lon="-2.68664">
        <ele>63.6</ele>
        <time>2026-01-25T12:17:02Z</time>
      </trkpt>
      <trkpt lat="48.47955" lon="-2.68657">
        <ele>60.2</ele>
        <time>2026-01-25T12:17:03Z</time>
      </trkpt>
      <trkpt lat="48.47964" lon="-2.68649">
        <ele>60.2</ele>
        <time>2026-01-25T12:17:04Z</time>
      </trkpt>
      <trkpt lat="48.47973" lon="-2.6864">
        <ele>60.2</ele>
        <time>2026-01-25T12:17:05Z</time>
      </trkpt>
      <trkpt lat="48.47982" lon="-2.6863">
        <ele>59.2</ele>
        <time>2026-01-25T12:17:06Z</time>
      </trkpt>
      <trkpt lat="48.4799" lon="-2.68619">
        <ele>54.6</ele>
        <time>2026-01-25T12:17:07Z</time>
      </trkpt>
      <trkpt lat="48.47999" lon="-2.68606">
        <ele>54.6</ele>
        <time>2026-01-25T12:17:08Z</time>
      </trkpt>
      <trkpt lat="48.48007" lon="-2.68593">
        <ele>54.6</ele>
        <time>2026-01-25T12:17:09Z</time>
      </trkpt>
      <trkpt lat="48.48015" lon="-2.68578">
        <ele>53.6</ele>
        <time>2026-01-25T12:17:10Z</time>
      </trkpt>
      <trkpt lat="48.48022" lon="-2.68562">
        <ele>48</ele>
        <time>2026-01-25T12:17:11Z</time>
      </trkpt>
      <trkpt lat="48.4803" lon="-2.68546">
        <ele>48</ele>
        <time>2026-01-25T12:17:12Z</time>
      </trkpt>
      <trkpt lat="48.48037" lon="-2.6853">
        <ele>48</ele>
        <time>2026-01-25T12:17:13Z</time>
      </trkpt>
      <trkpt lat="48.48044" lon="-2.68515">
        <ele>47</ele>
        <time>2026-01-25T12:17:14Z</time>
      </trkpt>
      <trkpt lat="48.48051" lon="-2.68501">
        <ele>44.6</ele>
        <time>2026-01-25T12:17:15Z</time>
      </trkpt>
      <trkpt lat="48.48058" lon="-2.68487">
        <ele>44.6</ele>
        <time>2026-01-25T12:17:16Z</time>
      </trkpt>
      <trkpt lat="48.48065" lon="-2.68472">
        <ele>44.6</ele>
        <time>2026-01-25T12:17:17Z</time>
      </trkpt>
      <trkpt lat="48.48072" lon="-2.68456">
        <ele>43.6</ele>
        <time>2026-01-25T12:17:18Z</time>
      </trkpt>
      <trkpt lat="48.48079" lon="-2.68441">
        <ele>36.6</ele>
        <time>2026-01-25T12:17:19Z</time>
      </trkpt>
      <trkpt lat="48.48087" lon="-2.68426">
        <ele>36.6</ele>
        <time>2026-01-25T12:17:20Z</time>
      </trkpt>
      <trkpt lat="48.48094" lon="-2.68411">
        <ele>36.6</ele>
        <time>2026-01-25T12:17:21Z</time>
      </trkpt>
      <trkpt lat="48.48101" lon="-2.68399">
        <ele>36</ele>
        <time>2026-01-25T12:17:22Z</time>
      </trkpt>
      <trkpt lat="48.48108" lon="-2.68387">
        <ele>35.4</ele>
        <time>2026-01-25T12:17:23Z</time>
      </trkpt>
      <trkpt lat="48.48116" lon="-2.68377">
        <ele>35.4</ele>
        <time>2026-01-25T12:17:24Z</time>
      </trkpt>
      <trkpt lat="48.48124" lon="-2.68367">
        <ele>35.4</ele>
        <time>2026-01-25T12:17:25Z</time>
      </trkpt>
      <trkpt lat="48.48132" lon="-2.68358">
        <ele>34.4</ele>
        <time>2026-01-25T12:17:26Z</time>
      </trkpt>
      <trkpt lat="48.4814" lon="-2.68349">
        <ele>31.2</ele>
        <time>2026-01-25T12:17:27Z</time>
      </trkpt>
      <trkpt lat="48.48148" lon="-2.6834">
        <ele>31.2</ele>
        <time>2026-01-25T12:17:28Z</time>
      </trkpt>
      <trkpt lat="48.48155" lon="-2.68331">
        <ele>31.2</ele>
        <time>2026-01-25T12:17:29Z</time>
      </trkpt>
      <trkpt lat="48.48163" lon="-2.68323">
        <ele>30.2</ele>
        <time>2026-01-25T12:17:30Z</time>
      </trkpt>
      <trkpt lat="48.4817" lon="-2.68313">
        <ele>27.2</ele>
        <time>2026-01-25T12:17:31Z</time>
      </trkpt>
      <trkpt lat="48.48178" lon="-2.68305">
        <ele>27.2</ele>
        <time>2026-01-25T12:17:32Z</time>
      </trkpt>
      <trkpt lat="48.48185" lon="-2.68297">
        <ele>27.2</ele>
        <time>2026-01-25T12:17:33Z</time>
      </trkpt>
      <trkpt lat="48.48192" lon="-2.68288">
        <ele>26.2</ele>
        <time>2026-01-25T12:17:34Z</time>
      </trkpt>
      <trkpt lat="48.482" lon="-2.68278">
        <ele>23</ele>
        <time>2026-01-25T12:17:35Z</time>
      </trkpt>
      <trkpt lat="48.48207" lon="-2.68267">
        <ele>23</ele>
        <time>2026-01-25T12:17:36Z</time>
      </trkpt>
      <trkpt lat="48.48214" lon="-2.68255">
        <ele>23</ele>
        <time>2026-01-25T12:17:37Z</time>
      </trkpt>
      <trkpt lat="48.48221" lon="-2.68242">
        <ele>22</ele>
        <time>2026-01-25T12:17:38Z</time>
      </trkpt>
      <trkpt lat="48.48227" lon="-2.6823">
        <ele>19</ele>
        <time>2026-01-25T12:17:39Z</time>
      </trkpt>
      <trkpt lat="48.48233" lon="-2.68218">
        <ele>19</ele>
        <time>2026-01-25T12:17:40Z</time>
      </trkpt>
      <trkpt lat="48.48239" lon="-2.68206">
        <ele>19</ele>
        <time>2026-01-25T12:17:41Z</time>
      </trkpt>
      <trkpt lat="48.48244" lon="-2.68195">
        <ele>18</ele>
        <time>2026-01-25T12:17:42Z</time>
      </trkpt>
      <trkpt lat="48.48248" lon="-2.68185">
        <ele>16.4</ele>
        <time>2026-01-25T12:17:43Z</time>
      </trkpt>
      <trkpt lat="48.48252" lon="-2.68175">
        <ele>16.4</ele>
        <time>2026-01-25T12:17:44Z</time>
      </trkpt>
      <trkpt lat="48.48256" lon="-2.68166">
        <ele>16.4</ele>
        <time>2026-01-25T12:17:45Z</time>
      </trkpt>
      <trkpt lat="48.48259" lon="-2.68157">
        <ele>15.4</ele>
        <time>2026-01-25T12:17:46Z</time>
      </trkpt>
      <trkpt lat="48.48261" lon="-2.68147">
        <ele>14.2</ele>
        <time>2026-01-25T12:17:47Z</time>
      </trkpt>
      <trkpt lat="48.48263" lon="-2.68138">
        <ele>14.2</ele>
        <time>2026-01-25T12:17:48Z</time>
      </trkpt>
      <trkpt lat="48.48266" lon="-2.68129">
        <ele>14.2</ele>
        <time>2026-01-25T12:17:49Z</time>
      </trkpt>
      <trkpt lat="48.48272" lon="-2.68121">
        <ele>13.2</ele>
        <time>2026-01-25T12:17:50Z</time>
      </trkpt>
      <trkpt lat="48.48278" lon="-2.68113">
        <ele>10</ele>
        <time>2026-01-25T12:17:51Z</time>
      </trkpt>
      <trkpt lat="48.48284" lon="-2.68105">
        <ele>10</ele>
        <time>2026-01-25T12:17:52Z</time>
      </trkpt>
      <trkpt lat="48.4829" lon="-2.68095">
        <ele>10</ele>
        <time>2026-01-25T12:17:53Z</time>
      </trkpt>
      <trkpt lat="48.48295" lon="-2.68083">
        <ele>9</ele>
        <time>2026-01-25T12:17:54Z</time>
      </trkpt>
      <trkpt lat="48.48301" lon="-2.68072">
        <ele>6.4</ele>
        <time>2026-01-25T12:17:55Z</time>
      </trkpt>
      <trkpt lat="48.48306" lon="-2.6806">
        <ele>6.4</ele>
        <time>2026-01-25T12:17:56Z</time>
      </trkpt>
      <trkpt lat="48.48312" lon="-2.68047">
        <ele>6.4</ele>
        <time>2026-01-25T12:17:57Z</time>
      </trkpt>
      <trkpt lat="48.48317" lon="-2.68034">
        <ele>5.4</ele>
        <time>2026-01-25T12:17:58Z</time>
      </trkpt>
      <trkpt lat="48.48322" lon="-2.68021">
        <ele>4</ele>
        <time>2026-01-25T12:17:59Z</time>
      </trkpt>
      <trkpt lat="48.48328" lon="-2.68009">
        <ele>4</ele>
        <time>2026-01-25T12:18:00Z</time>
      </trkpt>
      <trkpt lat="48.48333" lon="-2.67998">
        <ele>4</ele>
        <time>2026-01-25T12:18:01Z</time>
      </trkpt>
      <trkpt lat="48.48337" lon="-2.67989">
        <ele>5</ele>
        <time>2026-01-25T12:18:02Z</time>
      </trkpt>
      <trkpt lat="48.48342" lon="-2.67981">
        <ele>5.6</ele>
        <time>2026-01-25T12:18:03Z</time>
      </trkpt>
      <trkpt lat="48.48348" lon="-2.67977">
        <ele>5.6</ele>
        <time>2026-01-25T12:18:04Z</time>
      </trkpt>
      <trkpt lat="48.48353" lon="-2.67977">
        <ele>5.6</ele>
        <time>2026-01-25T12:18:05Z</time>
      </trkpt>
      <trkpt lat="48.48359" lon="-2.67979">
        <ele>4.6</ele>
        <time>2026-01-25T12:18:06Z</time>
      </trkpt>
      <trkpt lat="48.48364" lon="-2.67984">
        <ele>4.4</ele>
        <time>2026-01-25T12:18:07Z</time>
      </trkpt>
      <trkpt lat="48.48369" lon="-2.6799">
        <ele>4.4</ele>
        <time>2026-01-25T12:18:08Z</time>
      </trkpt>
      <trkpt lat="48.48374" lon="-2.67995">
        <ele>4.4</ele>
        <time>2026-01-25T12:18:09Z</time>
      </trkpt>
      <trkpt lat="48.48379" lon="-2.68001">
        <ele>4.4</ele>
        <time>2026-01-25T12:18:10Z</time>
      </trkpt>
      <trkpt lat="48.48384" lon="-2.68008">
        <ele>4.2</ele>
        <time>2026-01-25T12:18:11Z</time>
      </trkpt>
      <trkpt lat="48.4839" lon="-2.68014">
        <ele>4.2</ele>
        <time>2026-01-25T12:18:12Z</time>
      </trkpt>
      <trkpt lat="48.48396" lon="-2.68021">
        <ele>4.2</ele>
        <time>2026-01-25T12:18:13Z</time>
      </trkpt>
      <trkpt lat="48.48402" lon="-2.68028">
        <ele>4</ele>
        <time>2026-01-25T12:18:14Z</time>
      </trkpt>
      <trkpt lat="48.48407" lon="-2.68037">
        <ele>3.6</ele>
        <time>2026-01-25T12:18:15Z</time>
      </trkpt>
      <trkpt lat="48.48412" lon="-2.68046">
        <ele>3.6</ele>
        <time>2026-01-25T12:18:16Z</time>
      </trkpt>
      <trkpt lat="48.48415" lon="-2.68057">
        <ele>3.6</ele>
        <time>2026-01-25T12:18:17Z</time>
      </trkpt>
      <trkpt lat="48.48416" lon="-2.68069">
        <ele>3.6</ele>
        <time>2026-01-25T12:18:18Z</time>
      </trkpt>
      <trkpt lat="48.48416" lon="-2.68081">
        <ele>2.8</ele>
        <time>2026-01-25T12:18:19Z</time>
      </trkpt>
      <trkpt lat="48.48415" lon="-2.68093">
        <ele>2.8</ele>
        <time>2026-01-25T12:18:20Z</time>
      </trkpt>
      <trkpt lat="48.48413" lon="-2.68106">
        <ele>2.8</ele>
        <time>2026-01-25T12:18:21Z</time>
      </trkpt>
      <trkpt lat="48.48411" lon="-2.68118">
        <ele>3.8</ele>
        <time>2026-01-25T12:18:22Z</time>
      </trkpt>
      <trkpt lat="48.4841" lon="-2.68129">
        <ele>4</ele>
        <time>2026-01-25T12:18:23Z</time>
      </trkpt>
      <trkpt lat="48.4841" lon="-2.68141">
        <ele>4</ele>
        <time>2026-01-25T12:18:24Z</time>
      </trkpt>
      <trkpt lat="48.4841" lon="-2.68151">
        <ele>4</ele>
        <time>2026-01-25T12:18:25Z</time>
      </trkpt>
      <trkpt lat="48.48411" lon="-2.68161">
        <ele>5</ele>
        <time>2026-01-25T12:18:26Z</time>
      </trkpt>
      <trkpt lat="48.48413" lon="-2.6817">
        <ele>6.4</ele>
        <time>2026-01-25T12:18:27Z</time>
      </trkpt>
      <trkpt lat="48.48415" lon="-2.68178">
        <ele>6.4</ele>
        <time>2026-01-25T12:18:28Z</time>
      </trkpt>
      <trkpt lat="48.48417" lon="-2.68184">
        <ele>6.4</ele>
        <time>2026-01-25T12:18:29Z</time>
      </trkpt>
      <trkpt lat="48.48419" lon="-2.68187">
        <ele>7.4</ele>
        <time>2026-01-25T12:18:30Z</time>
      </trkpt>
      <trkpt lat="48.48421" lon="-2.6819">
        <ele>7.4</ele>
        <time>2026-01-25T12:18:31Z</time>
      </trkpt>
      <trkpt lat="48.48422" lon="-2.68193">
        <ele>7.4</ele>
        <time>2026-01-25T12:18:32Z</time>
      </trkpt>
      <trkpt lat="48.48423" lon="-2.68194">
        <ele>7.4</ele>
        <time>2026-01-25T12:18:33Z</time>
      </trkpt>
      <trkpt lat="48.48423" lon="-2.68194">
        <ele>7.8</ele>
        <time>2026-01-25T12:18:34Z</time>
      </trkpt>
      <trkpt lat="48.48423" lon="-2.68194">
        <ele>7.6</ele>
        <time>2026-01-25T12:18:35Z</time>
      </trkpt>
    </trkseg>
  </trk>
</gpx>